<?xml version="1.0" encoding="UTF-8" standalone="no" ?>
<gpx xmlns="http://www.topografix.com/GPX/1/1" xmlns:xsi="http://www.w3.org/2001/XMLSchema-instance" xsi:schemaLocation="http://www.topografix.com/GPX/1/1 http://www.topografix.com/GPX/1/1/gpx.xsd" version="1.1" creator="VisuGPX - https://www.visugpx.com">
  <metadata>
    <name>rando roaillan 7.7 km</name>
    <desc><![CDATA[photos de la rando dispo en suivant le lien [url]http://rando.pedestre.33.over-blog.com/2020/09/rando-roaillan-7.7-km.html
[/url]]]></desc>
  </metadata>
  <trk>
    <name><![CDATA[rando roaillan 7.7 km]]></name>
    <trkseg>
      <trkpt lat="44.49875" lon="-0.28238">
        <ele>79</ele>
        <time>2020-09-08T14:45:59Z</time>
      </trkpt>
      <trkpt lat="44.49838" lon="-0.28239">
        <ele>79.6</ele>
        <time>2020-09-08T14:46:01Z</time>
      </trkpt>
      <trkpt lat="44.49878" lon="-0.28185">
        <ele>78.9</ele>
        <time>2020-09-08T14:46:03Z</time>
      </trkpt>
      <trkpt lat="44.49887" lon="-0.28176">
        <ele>78.7</ele>
        <time>2020-09-08T14:46:04Z</time>
      </trkpt>
      <trkpt lat="44.49889" lon="-0.28189">
        <ele>78.8</ele>
        <time>2020-09-08T14:46:06Z</time>
      </trkpt>
      <trkpt lat="44.49888" lon="-0.28196">
        <ele>78.9</ele>
        <time>2020-09-08T14:46:07Z</time>
      </trkpt>
      <trkpt lat="44.49881" lon="-0.28215">
        <ele>78.9</ele>
        <time>2020-09-08T14:46:08Z</time>
      </trkpt>
      <trkpt lat="44.4988" lon="-0.28217">
        <ele>78.9</ele>
        <time>2020-09-08T14:46:09Z</time>
      </trkpt>
      <trkpt lat="44.49881" lon="-0.28219">
        <ele>78.9</ele>
        <time>2020-09-08T14:46:11Z</time>
      </trkpt>
      <trkpt lat="44.49881" lon="-0.28221">
        <ele>78.9</ele>
        <time>2020-09-08T14:46:12Z</time>
      </trkpt>
      <trkpt lat="44.49881" lon="-0.28223">
        <ele>78.9</ele>
        <time>2020-09-08T14:46:14Z</time>
      </trkpt>
      <trkpt lat="44.49881" lon="-0.28223">
        <ele>78.9</ele>
        <time>2020-09-08T14:46:15Z</time>
      </trkpt>
      <trkpt lat="44.4988" lon="-0.28225">
        <ele>79</ele>
        <time>2020-09-08T14:46:16Z</time>
      </trkpt>
      <trkpt lat="44.4988" lon="-0.28224">
        <ele>79</ele>
        <time>2020-09-08T14:46:17Z</time>
      </trkpt>
      <trkpt lat="44.4988" lon="-0.28223">
        <ele>79</ele>
        <time>2020-09-08T14:46:18Z</time>
      </trkpt>
      <trkpt lat="44.4988" lon="-0.28222">
        <ele>79</ele>
        <time>2020-09-08T14:46:19Z</time>
      </trkpt>
      <trkpt lat="44.4988" lon="-0.28222">
        <ele>79</ele>
        <time>2020-09-08T14:46:20Z</time>
      </trkpt>
      <trkpt lat="44.49881" lon="-0.28227">
        <ele>79</ele>
        <time>2020-09-08T14:46:22Z</time>
      </trkpt>
      <trkpt lat="44.49881" lon="-0.28226">
        <ele>79</ele>
        <time>2020-09-08T14:46:23Z</time>
      </trkpt>
      <trkpt lat="44.49881" lon="-0.28227">
        <ele>79</ele>
        <time>2020-09-08T14:46:24Z</time>
      </trkpt>
      <trkpt lat="44.49878" lon="-0.28229">
        <ele>79</ele>
        <time>2020-09-08T14:46:26Z</time>
      </trkpt>
      <trkpt lat="44.49878" lon="-0.28229">
        <ele>79</ele>
        <time>2020-09-08T14:46:27Z</time>
      </trkpt>
      <trkpt lat="44.49876" lon="-0.28229">
        <ele>79</ele>
        <time>2020-09-08T14:46:29Z</time>
      </trkpt>
      <trkpt lat="44.49875" lon="-0.28229">
        <ele>79</ele>
        <time>2020-09-08T14:46:30Z</time>
      </trkpt>
      <trkpt lat="44.49875" lon="-0.2823">
        <ele>79</ele>
        <time>2020-09-08T14:46:31Z</time>
      </trkpt>
      <trkpt lat="44.49875" lon="-0.28229">
        <ele>79</ele>
        <time>2020-09-08T14:46:32Z</time>
      </trkpt>
      <trkpt lat="44.49874" lon="-0.28228">
        <ele>79</ele>
        <time>2020-09-08T14:46:34Z</time>
      </trkpt>
      <trkpt lat="44.49873" lon="-0.28228">
        <ele>79</ele>
        <time>2020-09-08T14:46:35Z</time>
      </trkpt>
      <trkpt lat="44.49874" lon="-0.28231">
        <ele>79</ele>
        <time>2020-09-08T14:46:36Z</time>
      </trkpt>
      <trkpt lat="44.49875" lon="-0.28233">
        <ele>79</ele>
        <time>2020-09-08T14:46:38Z</time>
      </trkpt>
      <trkpt lat="44.49874" lon="-0.28234">
        <ele>79</ele>
        <time>2020-09-08T14:46:40Z</time>
      </trkpt>
      <trkpt lat="44.49874" lon="-0.28234">
        <ele>79</ele>
        <time>2020-09-08T14:46:41Z</time>
      </trkpt>
      <trkpt lat="44.49875" lon="-0.28237">
        <ele>79</ele>
        <time>2020-09-08T14:46:42Z</time>
      </trkpt>
      <trkpt lat="44.49875" lon="-0.28238">
        <ele>79</ele>
        <time>2020-09-08T14:46:43Z</time>
      </trkpt>
      <trkpt lat="44.49876" lon="-0.2824">
        <ele>79</ele>
        <time>2020-09-08T14:46:44Z</time>
      </trkpt>
      <trkpt lat="44.49876" lon="-0.28241">
        <ele>79.6</ele>
        <time>2020-09-08T14:46:45Z</time>
      </trkpt>
      <trkpt lat="44.49879" lon="-0.28245">
        <ele>79.7</ele>
        <time>2020-09-08T14:46:47Z</time>
      </trkpt>
      <trkpt lat="44.49881" lon="-0.28248">
        <ele>79.7</ele>
        <time>2020-09-08T14:46:48Z</time>
      </trkpt>
      <trkpt lat="44.49882" lon="-0.2825">
        <ele>79.7</ele>
        <time>2020-09-08T14:46:50Z</time>
      </trkpt>
      <trkpt lat="44.49884" lon="-0.28253">
        <ele>79.8</ele>
        <time>2020-09-08T14:46:51Z</time>
      </trkpt>
      <trkpt lat="44.49885" lon="-0.28254">
        <ele>79.8</ele>
        <time>2020-09-08T14:46:52Z</time>
      </trkpt>
      <trkpt lat="44.49886" lon="-0.28256">
        <ele>79.8</ele>
        <time>2020-09-08T14:46:53Z</time>
      </trkpt>
      <trkpt lat="44.49887" lon="-0.28259">
        <ele>79.8</ele>
        <time>2020-09-08T14:46:55Z</time>
      </trkpt>
      <trkpt lat="44.49889" lon="-0.28262">
        <ele>79.9</ele>
        <time>2020-09-08T14:46:57Z</time>
      </trkpt>
      <trkpt lat="44.49889" lon="-0.28262">
        <ele>79.9</ele>
        <time>2020-09-08T14:46:58Z</time>
      </trkpt>
      <trkpt lat="44.4989" lon="-0.28263">
        <ele>79.9</ele>
        <time>2020-09-08T14:46:59Z</time>
      </trkpt>
      <trkpt lat="44.49891" lon="-0.28264">
        <ele>79.9</ele>
        <time>2020-09-08T14:47:00Z</time>
      </trkpt>
      <trkpt lat="44.49891" lon="-0.28264">
        <ele>79.9</ele>
        <time>2020-09-08T14:47:02Z</time>
      </trkpt>
      <trkpt lat="44.49892" lon="-0.28266">
        <ele>79.9</ele>
        <time>2020-09-08T14:47:03Z</time>
      </trkpt>
      <trkpt lat="44.49894" lon="-0.2827">
        <ele>79.9</ele>
        <time>2020-09-08T14:47:04Z</time>
      </trkpt>
      <trkpt lat="44.49894" lon="-0.28271">
        <ele>80</ele>
        <time>2020-09-08T14:47:05Z</time>
      </trkpt>
      <trkpt lat="44.49896" lon="-0.28274">
        <ele>80</ele>
        <time>2020-09-08T14:47:06Z</time>
      </trkpt>
      <trkpt lat="44.49898" lon="-0.28277">
        <ele>80</ele>
        <time>2020-09-08T14:47:08Z</time>
      </trkpt>
      <trkpt lat="44.49901" lon="-0.2828">
        <ele>80.1</ele>
        <time>2020-09-08T14:47:09Z</time>
      </trkpt>
      <trkpt lat="44.49901" lon="-0.28282">
        <ele>80.1</ele>
        <time>2020-09-08T14:47:11Z</time>
      </trkpt>
      <trkpt lat="44.49902" lon="-0.28283">
        <ele>80.1</ele>
        <time>2020-09-08T14:47:12Z</time>
      </trkpt>
      <trkpt lat="44.49902" lon="-0.28284">
        <ele>80.1</ele>
        <time>2020-09-08T14:47:13Z</time>
      </trkpt>
      <trkpt lat="44.49903" lon="-0.28285">
        <ele>80.2</ele>
        <time>2020-09-08T14:47:14Z</time>
      </trkpt>
      <trkpt lat="44.49904" lon="-0.28287">
        <ele>80.2</ele>
        <time>2020-09-08T14:47:15Z</time>
      </trkpt>
      <trkpt lat="44.49904" lon="-0.28288">
        <ele>80.2</ele>
        <time>2020-09-08T14:47:16Z</time>
      </trkpt>
      <trkpt lat="44.49904" lon="-0.28289">
        <ele>80.2</ele>
        <time>2020-09-08T14:47:17Z</time>
      </trkpt>
      <trkpt lat="44.49905" lon="-0.2829">
        <ele>80.2</ele>
        <time>2020-09-08T14:47:18Z</time>
      </trkpt>
      <trkpt lat="44.49905" lon="-0.28291">
        <ele>80.3</ele>
        <time>2020-09-08T14:47:19Z</time>
      </trkpt>
      <trkpt lat="44.49906" lon="-0.28293">
        <ele>80.3</ele>
        <time>2020-09-08T14:47:21Z</time>
      </trkpt>
      <trkpt lat="44.49907" lon="-0.28294">
        <ele>80.3</ele>
        <time>2020-09-08T14:47:22Z</time>
      </trkpt>
      <trkpt lat="44.49908" lon="-0.28295">
        <ele>80.3</ele>
        <time>2020-09-08T14:47:24Z</time>
      </trkpt>
      <trkpt lat="44.49909" lon="-0.28296">
        <ele>80.3</ele>
        <time>2020-09-08T14:47:25Z</time>
      </trkpt>
      <trkpt lat="44.4991" lon="-0.28298">
        <ele>80.4</ele>
        <time>2020-09-08T14:47:26Z</time>
      </trkpt>
      <trkpt lat="44.49911" lon="-0.28299">
        <ele>80.4</ele>
        <time>2020-09-08T14:47:27Z</time>
      </trkpt>
      <trkpt lat="44.49911" lon="-0.283">
        <ele>80.4</ele>
        <time>2020-09-08T14:47:28Z</time>
      </trkpt>
      <trkpt lat="44.49912" lon="-0.28301">
        <ele>80.4</ele>
        <time>2020-09-08T14:47:29Z</time>
      </trkpt>
      <trkpt lat="44.49912" lon="-0.28302">
        <ele>80.5</ele>
        <time>2020-09-08T14:47:31Z</time>
      </trkpt>
      <trkpt lat="44.49913" lon="-0.28304">
        <ele>80.5</ele>
        <time>2020-09-08T14:47:32Z</time>
      </trkpt>
      <trkpt lat="44.49914" lon="-0.28305">
        <ele>80.5</ele>
        <time>2020-09-08T14:47:33Z</time>
      </trkpt>
      <trkpt lat="44.49914" lon="-0.28306">
        <ele>80.5</ele>
        <time>2020-09-08T14:47:34Z</time>
      </trkpt>
      <trkpt lat="44.49915" lon="-0.28307">
        <ele>80.5</ele>
        <time>2020-09-08T14:47:36Z</time>
      </trkpt>
      <trkpt lat="44.49915" lon="-0.28308">
        <ele>80.6</ele>
        <time>2020-09-08T14:47:37Z</time>
      </trkpt>
      <trkpt lat="44.49916" lon="-0.28308">
        <ele>80.6</ele>
        <time>2020-09-08T14:47:38Z</time>
      </trkpt>
      <trkpt lat="44.49916" lon="-0.28309">
        <ele>80.6</ele>
        <time>2020-09-08T14:47:39Z</time>
      </trkpt>
      <trkpt lat="44.49917" lon="-0.2831">
        <ele>80.6</ele>
        <time>2020-09-08T14:47:40Z</time>
      </trkpt>
      <trkpt lat="44.49918" lon="-0.28311">
        <ele>80.6</ele>
        <time>2020-09-08T14:47:41Z</time>
      </trkpt>
      <trkpt lat="44.49919" lon="-0.28313">
        <ele>80.7</ele>
        <time>2020-09-08T14:47:43Z</time>
      </trkpt>
      <trkpt lat="44.4992" lon="-0.28314">
        <ele>80.7</ele>
        <time>2020-09-08T14:47:44Z</time>
      </trkpt>
      <trkpt lat="44.49921" lon="-0.28315">
        <ele>80.8</ele>
        <time>2020-09-08T14:47:46Z</time>
      </trkpt>
      <trkpt lat="44.49922" lon="-0.28316">
        <ele>80.8</ele>
        <time>2020-09-08T14:47:47Z</time>
      </trkpt>
      <trkpt lat="44.49923" lon="-0.28317">
        <ele>80.8</ele>
        <time>2020-09-08T14:47:48Z</time>
      </trkpt>
      <trkpt lat="44.49924" lon="-0.28318">
        <ele>80.8</ele>
        <time>2020-09-08T14:47:49Z</time>
      </trkpt>
      <trkpt lat="44.49925" lon="-0.28319">
        <ele>80.9</ele>
        <time>2020-09-08T14:47:50Z</time>
      </trkpt>
      <trkpt lat="44.49927" lon="-0.2832">
        <ele>80.9</ele>
        <time>2020-09-08T14:47:52Z</time>
      </trkpt>
      <trkpt lat="44.49928" lon="-0.28321">
        <ele>80.9</ele>
        <time>2020-09-08T14:47:54Z</time>
      </trkpt>
      <trkpt lat="44.4993" lon="-0.28321">
        <ele>81</ele>
        <time>2020-09-08T14:47:55Z</time>
      </trkpt>
      <trkpt lat="44.49931" lon="-0.28322">
        <ele>81</ele>
        <time>2020-09-08T14:47:56Z</time>
      </trkpt>
      <trkpt lat="44.49931" lon="-0.28322">
        <ele>81</ele>
        <time>2020-09-08T14:47:57Z</time>
      </trkpt>
      <trkpt lat="44.49933" lon="-0.28323">
        <ele>81</ele>
        <time>2020-09-08T14:47:58Z</time>
      </trkpt>
      <trkpt lat="44.49934" lon="-0.28324">
        <ele>81.1</ele>
        <time>2020-09-08T14:47:59Z</time>
      </trkpt>
      <trkpt lat="44.49934" lon="-0.28324">
        <ele>81.1</ele>
        <time>2020-09-08T14:48:00Z</time>
      </trkpt>
      <trkpt lat="44.49935" lon="-0.28326">
        <ele>81.1</ele>
        <time>2020-09-08T14:48:01Z</time>
      </trkpt>
      <trkpt lat="44.49937" lon="-0.28327">
        <ele>81.2</ele>
        <time>2020-09-08T14:48:03Z</time>
      </trkpt>
      <trkpt lat="44.49938" lon="-0.28329">
        <ele>81.2</ele>
        <time>2020-09-08T14:48:04Z</time>
      </trkpt>
      <trkpt lat="44.49939" lon="-0.2833">
        <ele>81.2</ele>
        <time>2020-09-08T14:48:05Z</time>
      </trkpt>
      <trkpt lat="44.4994" lon="-0.28332">
        <ele>81.2</ele>
        <time>2020-09-08T14:48:06Z</time>
      </trkpt>
      <trkpt lat="44.49941" lon="-0.28333">
        <ele>81.3</ele>
        <time>2020-09-08T14:48:07Z</time>
      </trkpt>
      <trkpt lat="44.49942" lon="-0.28335">
        <ele>81.3</ele>
        <time>2020-09-08T14:48:08Z</time>
      </trkpt>
      <trkpt lat="44.49943" lon="-0.28336">
        <ele>81.3</ele>
        <time>2020-09-08T14:48:09Z</time>
      </trkpt>
      <trkpt lat="44.49943" lon="-0.28338">
        <ele>81.3</ele>
        <time>2020-09-08T14:48:10Z</time>
      </trkpt>
      <trkpt lat="44.49943" lon="-0.28339">
        <ele>81.3</ele>
        <time>2020-09-08T14:48:11Z</time>
      </trkpt>
      <trkpt lat="44.49944" lon="-0.28342">
        <ele>81.3</ele>
        <time>2020-09-08T14:48:12Z</time>
      </trkpt>
      <trkpt lat="44.49945" lon="-0.28343">
        <ele>81.3</ele>
        <time>2020-09-08T14:48:14Z</time>
      </trkpt>
      <trkpt lat="44.49946" lon="-0.28345">
        <ele>81.3</ele>
        <time>2020-09-08T14:48:16Z</time>
      </trkpt>
      <trkpt lat="44.49946" lon="-0.28347">
        <ele>81.3</ele>
        <time>2020-09-08T14:48:17Z</time>
      </trkpt>
      <trkpt lat="44.49947" lon="-0.2835">
        <ele>81.4</ele>
        <time>2020-09-08T14:48:18Z</time>
      </trkpt>
      <trkpt lat="44.49948" lon="-0.28352">
        <ele>81.4</ele>
        <time>2020-09-08T14:48:19Z</time>
      </trkpt>
      <trkpt lat="44.49948" lon="-0.28353">
        <ele>81.4</ele>
        <time>2020-09-08T14:48:20Z</time>
      </trkpt>
      <trkpt lat="44.49949" lon="-0.28357">
        <ele>81.5</ele>
        <time>2020-09-08T14:48:21Z</time>
      </trkpt>
      <trkpt lat="44.49949" lon="-0.28358">
        <ele>81.5</ele>
        <time>2020-09-08T14:48:22Z</time>
      </trkpt>
      <trkpt lat="44.4995" lon="-0.28361">
        <ele>81.6</ele>
        <time>2020-09-08T14:48:23Z</time>
      </trkpt>
      <trkpt lat="44.49951" lon="-0.28363">
        <ele>81.6</ele>
        <time>2020-09-08T14:48:25Z</time>
      </trkpt>
      <trkpt lat="44.49951" lon="-0.28366">
        <ele>81.7</ele>
        <time>2020-09-08T14:48:26Z</time>
      </trkpt>
      <trkpt lat="44.49952" lon="-0.28367">
        <ele>81.7</ele>
        <time>2020-09-08T14:48:27Z</time>
      </trkpt>
      <trkpt lat="44.49953" lon="-0.2837">
        <ele>81.7</ele>
        <time>2020-09-08T14:48:28Z</time>
      </trkpt>
      <trkpt lat="44.49953" lon="-0.28371">
        <ele>81.8</ele>
        <time>2020-09-08T14:48:29Z</time>
      </trkpt>
      <trkpt lat="44.49953" lon="-0.28372">
        <ele>81.8</ele>
        <time>2020-09-08T14:48:30Z</time>
      </trkpt>
      <trkpt lat="44.49954" lon="-0.28373">
        <ele>81.8</ele>
        <time>2020-09-08T14:48:31Z</time>
      </trkpt>
      <trkpt lat="44.49954" lon="-0.28375">
        <ele>81.8</ele>
        <time>2020-09-08T14:48:32Z</time>
      </trkpt>
      <trkpt lat="44.49954" lon="-0.28376">
        <ele>81.9</ele>
        <time>2020-09-08T14:48:33Z</time>
      </trkpt>
      <trkpt lat="44.49955" lon="-0.28378">
        <ele>81.9</ele>
        <time>2020-09-08T14:48:35Z</time>
      </trkpt>
      <trkpt lat="44.49955" lon="-0.28379">
        <ele>81.9</ele>
        <time>2020-09-08T14:48:36Z</time>
      </trkpt>
      <trkpt lat="44.49956" lon="-0.28379">
        <ele>81.9</ele>
        <time>2020-09-08T14:48:37Z</time>
      </trkpt>
      <trkpt lat="44.49956" lon="-0.2838">
        <ele>81.9</ele>
        <time>2020-09-08T14:48:38Z</time>
      </trkpt>
      <trkpt lat="44.49956" lon="-0.28381">
        <ele>82</ele>
        <time>2020-09-08T14:48:40Z</time>
      </trkpt>
      <trkpt lat="44.49956" lon="-0.28382">
        <ele>82</ele>
        <time>2020-09-08T14:48:41Z</time>
      </trkpt>
      <trkpt lat="44.49957" lon="-0.28384">
        <ele>82</ele>
        <time>2020-09-08T14:48:42Z</time>
      </trkpt>
      <trkpt lat="44.49958" lon="-0.28387">
        <ele>82.1</ele>
        <time>2020-09-08T14:48:44Z</time>
      </trkpt>
      <trkpt lat="44.49959" lon="-0.28389">
        <ele>82.1</ele>
        <time>2020-09-08T14:48:45Z</time>
      </trkpt>
      <trkpt lat="44.49959" lon="-0.28391">
        <ele>82.1</ele>
        <time>2020-09-08T14:48:46Z</time>
      </trkpt>
      <trkpt lat="44.4996" lon="-0.28393">
        <ele>82.1</ele>
        <time>2020-09-08T14:48:47Z</time>
      </trkpt>
      <trkpt lat="44.49961" lon="-0.28395">
        <ele>82.1</ele>
        <time>2020-09-08T14:48:49Z</time>
      </trkpt>
      <trkpt lat="44.49961" lon="-0.28396">
        <ele>82.2</ele>
        <time>2020-09-08T14:48:50Z</time>
      </trkpt>
      <trkpt lat="44.49963" lon="-0.28401">
        <ele>82.2</ele>
        <time>2020-09-08T14:48:51Z</time>
      </trkpt>
      <trkpt lat="44.49964" lon="-0.28403">
        <ele>82.2</ele>
        <time>2020-09-08T14:48:52Z</time>
      </trkpt>
      <trkpt lat="44.49966" lon="-0.28407">
        <ele>82.3</ele>
        <time>2020-09-08T14:48:53Z</time>
      </trkpt>
      <trkpt lat="44.49967" lon="-0.28409">
        <ele>82.3</ele>
        <time>2020-09-08T14:48:54Z</time>
      </trkpt>
      <trkpt lat="44.49969" lon="-0.28411">
        <ele>82.3</ele>
        <time>2020-09-08T14:48:56Z</time>
      </trkpt>
      <trkpt lat="44.4997" lon="-0.28412">
        <ele>82.3</ele>
        <time>2020-09-08T14:48:57Z</time>
      </trkpt>
      <trkpt lat="44.4997" lon="-0.28413">
        <ele>82.4</ele>
        <time>2020-09-08T14:48:58Z</time>
      </trkpt>
      <trkpt lat="44.49971" lon="-0.28414">
        <ele>82.4</ele>
        <time>2020-09-08T14:48:59Z</time>
      </trkpt>
      <trkpt lat="44.49972" lon="-0.28416">
        <ele>82.4</ele>
        <time>2020-09-08T14:49:01Z</time>
      </trkpt>
      <trkpt lat="44.49973" lon="-0.28418">
        <ele>82.4</ele>
        <time>2020-09-08T14:49:02Z</time>
      </trkpt>
      <trkpt lat="44.49973" lon="-0.28419">
        <ele>82.4</ele>
        <time>2020-09-08T14:49:03Z</time>
      </trkpt>
      <trkpt lat="44.49974" lon="-0.28419">
        <ele>82.5</ele>
        <time>2020-09-08T14:49:04Z</time>
      </trkpt>
      <trkpt lat="44.49975" lon="-0.28421">
        <ele>82.5</ele>
        <time>2020-09-08T14:49:05Z</time>
      </trkpt>
      <trkpt lat="44.49976" lon="-0.28423">
        <ele>82.5</ele>
        <time>2020-09-08T14:49:07Z</time>
      </trkpt>
      <trkpt lat="44.49977" lon="-0.28426">
        <ele>82.6</ele>
        <time>2020-09-08T14:49:09Z</time>
      </trkpt>
      <trkpt lat="44.49978" lon="-0.28427">
        <ele>82.6</ele>
        <time>2020-09-08T14:49:10Z</time>
      </trkpt>
      <trkpt lat="44.49978" lon="-0.28429">
        <ele>82.6</ele>
        <time>2020-09-08T14:49:11Z</time>
      </trkpt>
      <trkpt lat="44.49979" lon="-0.28431">
        <ele>82.6</ele>
        <time>2020-09-08T14:49:13Z</time>
      </trkpt>
      <trkpt lat="44.4998" lon="-0.28433">
        <ele>82.7</ele>
        <time>2020-09-08T14:49:15Z</time>
      </trkpt>
      <trkpt lat="44.4998" lon="-0.28435">
        <ele>82.7</ele>
        <time>2020-09-08T14:49:16Z</time>
      </trkpt>
      <trkpt lat="44.49981" lon="-0.28436">
        <ele>82.7</ele>
        <time>2020-09-08T14:49:17Z</time>
      </trkpt>
      <trkpt lat="44.49981" lon="-0.28437">
        <ele>82.7</ele>
        <time>2020-09-08T14:49:18Z</time>
      </trkpt>
      <trkpt lat="44.49982" lon="-0.2844">
        <ele>82.7</ele>
        <time>2020-09-08T14:49:19Z</time>
      </trkpt>
      <trkpt lat="44.49982" lon="-0.28441">
        <ele>82.8</ele>
        <time>2020-09-08T14:49:20Z</time>
      </trkpt>
      <trkpt lat="44.49983" lon="-0.28444">
        <ele>82.8</ele>
        <time>2020-09-08T14:49:22Z</time>
      </trkpt>
      <trkpt lat="44.49983" lon="-0.28446">
        <ele>82.8</ele>
        <time>2020-09-08T14:49:23Z</time>
      </trkpt>
      <trkpt lat="44.49983" lon="-0.28448">
        <ele>82.8</ele>
        <time>2020-09-08T14:49:24Z</time>
      </trkpt>
      <trkpt lat="44.49983" lon="-0.28449">
        <ele>82.9</ele>
        <time>2020-09-08T14:49:25Z</time>
      </trkpt>
      <trkpt lat="44.49984" lon="-0.28454">
        <ele>82.9</ele>
        <time>2020-09-08T14:49:27Z</time>
      </trkpt>
      <trkpt lat="44.49984" lon="-0.28455">
        <ele>82.9</ele>
        <time>2020-09-08T14:49:28Z</time>
      </trkpt>
      <trkpt lat="44.49984" lon="-0.28458">
        <ele>83</ele>
        <time>2020-09-08T14:49:29Z</time>
      </trkpt>
      <trkpt lat="44.49984" lon="-0.2846">
        <ele>83</ele>
        <time>2020-09-08T14:49:30Z</time>
      </trkpt>
      <trkpt lat="44.49985" lon="-0.28464">
        <ele>83</ele>
        <time>2020-09-08T14:49:32Z</time>
      </trkpt>
      <trkpt lat="44.49986" lon="-0.28466">
        <ele>83</ele>
        <time>2020-09-08T14:49:33Z</time>
      </trkpt>
      <trkpt lat="44.49986" lon="-0.28468">
        <ele>83.1</ele>
        <time>2020-09-08T14:49:34Z</time>
      </trkpt>
      <trkpt lat="44.49986" lon="-0.2847">
        <ele>83.1</ele>
        <time>2020-09-08T14:49:36Z</time>
      </trkpt>
      <trkpt lat="44.49987" lon="-0.28472">
        <ele>83.1</ele>
        <time>2020-09-08T14:49:37Z</time>
      </trkpt>
      <trkpt lat="44.49988" lon="-0.28474">
        <ele>83.2</ele>
        <time>2020-09-08T14:49:38Z</time>
      </trkpt>
      <trkpt lat="44.49989" lon="-0.28476">
        <ele>83.2</ele>
        <time>2020-09-08T14:49:39Z</time>
      </trkpt>
      <trkpt lat="44.4999" lon="-0.28477">
        <ele>83.2</ele>
        <time>2020-09-08T14:49:40Z</time>
      </trkpt>
      <trkpt lat="44.4999" lon="-0.28479">
        <ele>83.2</ele>
        <time>2020-09-08T14:49:41Z</time>
      </trkpt>
      <trkpt lat="44.49991" lon="-0.28482">
        <ele>83.3</ele>
        <time>2020-09-08T14:49:43Z</time>
      </trkpt>
      <trkpt lat="44.49992" lon="-0.28484">
        <ele>83.3</ele>
        <time>2020-09-08T14:49:45Z</time>
      </trkpt>
      <trkpt lat="44.49993" lon="-0.28485">
        <ele>83.3</ele>
        <time>2020-09-08T14:49:46Z</time>
      </trkpt>
      <trkpt lat="44.49993" lon="-0.28486">
        <ele>83.3</ele>
        <time>2020-09-08T14:49:48Z</time>
      </trkpt>
      <trkpt lat="44.49994" lon="-0.28487">
        <ele>83.3</ele>
        <time>2020-09-08T14:49:49Z</time>
      </trkpt>
      <trkpt lat="44.49994" lon="-0.28487">
        <ele>83.3</ele>
        <time>2020-09-08T14:49:50Z</time>
      </trkpt>
      <trkpt lat="44.49994" lon="-0.28488">
        <ele>83.3</ele>
        <time>2020-09-08T14:49:52Z</time>
      </trkpt>
      <trkpt lat="44.49995" lon="-0.28489">
        <ele>83.3</ele>
        <time>2020-09-08T14:49:53Z</time>
      </trkpt>
      <trkpt lat="44.49995" lon="-0.28489">
        <ele>83.3</ele>
        <time>2020-09-08T14:49:54Z</time>
      </trkpt>
      <trkpt lat="44.49996" lon="-0.2849">
        <ele>83.4</ele>
        <time>2020-09-08T14:49:55Z</time>
      </trkpt>
      <trkpt lat="44.49997" lon="-0.28492">
        <ele>83.4</ele>
        <time>2020-09-08T14:49:56Z</time>
      </trkpt>
      <trkpt lat="44.49997" lon="-0.28493">
        <ele>83.4</ele>
        <time>2020-09-08T14:49:58Z</time>
      </trkpt>
      <trkpt lat="44.49998" lon="-0.28495">
        <ele>83.4</ele>
        <time>2020-09-08T14:49:59Z</time>
      </trkpt>
      <trkpt lat="44.49999" lon="-0.28497">
        <ele>83.4</ele>
        <time>2020-09-08T14:50:00Z</time>
      </trkpt>
      <trkpt lat="44.49999" lon="-0.28496">
        <ele>83.4</ele>
        <time>2020-09-08T14:50:01Z</time>
      </trkpt>
      <trkpt lat="44.5" lon="-0.285">
        <ele>83.5</ele>
        <time>2020-09-08T14:50:03Z</time>
      </trkpt>
      <trkpt lat="44.50001" lon="-0.28502">
        <ele>83.6</ele>
        <time>2020-09-08T14:50:04Z</time>
      </trkpt>
      <trkpt lat="44.50001" lon="-0.28503">
        <ele>83.6</ele>
        <time>2020-09-08T14:50:06Z</time>
      </trkpt>
      <trkpt lat="44.50002" lon="-0.28505">
        <ele>83.6</ele>
        <time>2020-09-08T14:50:07Z</time>
      </trkpt>
      <trkpt lat="44.50002" lon="-0.28508">
        <ele>83.7</ele>
        <time>2020-09-08T14:50:08Z</time>
      </trkpt>
      <trkpt lat="44.50002" lon="-0.28509">
        <ele>83.7</ele>
        <time>2020-09-08T14:50:09Z</time>
      </trkpt>
      <trkpt lat="44.50003" lon="-0.2851">
        <ele>83.7</ele>
        <time>2020-09-08T14:50:10Z</time>
      </trkpt>
      <trkpt lat="44.50003" lon="-0.28512">
        <ele>83.7</ele>
        <time>2020-09-08T14:50:11Z</time>
      </trkpt>
      <trkpt lat="44.50005" lon="-0.28515">
        <ele>83.8</ele>
        <time>2020-09-08T14:50:13Z</time>
      </trkpt>
      <trkpt lat="44.50005" lon="-0.28516">
        <ele>83.9</ele>
        <time>2020-09-08T14:50:14Z</time>
      </trkpt>
      <trkpt lat="44.50006" lon="-0.28518">
        <ele>83.9</ele>
        <time>2020-09-08T14:50:16Z</time>
      </trkpt>
      <trkpt lat="44.50006" lon="-0.28519">
        <ele>83.9</ele>
        <time>2020-09-08T14:50:17Z</time>
      </trkpt>
      <trkpt lat="44.50007" lon="-0.28521">
        <ele>84</ele>
        <time>2020-09-08T14:50:18Z</time>
      </trkpt>
      <trkpt lat="44.50007" lon="-0.28523">
        <ele>84</ele>
        <time>2020-09-08T14:50:19Z</time>
      </trkpt>
      <trkpt lat="44.50008" lon="-0.28526">
        <ele>84.1</ele>
        <time>2020-09-08T14:50:21Z</time>
      </trkpt>
      <trkpt lat="44.50009" lon="-0.28529">
        <ele>84.1</ele>
        <time>2020-09-08T14:50:22Z</time>
      </trkpt>
      <trkpt lat="44.50009" lon="-0.28531">
        <ele>84.1</ele>
        <time>2020-09-08T14:50:24Z</time>
      </trkpt>
      <trkpt lat="44.50009" lon="-0.28532">
        <ele>84.2</ele>
        <time>2020-09-08T14:50:25Z</time>
      </trkpt>
      <trkpt lat="44.50009" lon="-0.28534">
        <ele>84.2</ele>
        <time>2020-09-08T14:50:27Z</time>
      </trkpt>
      <trkpt lat="44.5001" lon="-0.28536">
        <ele>84.2</ele>
        <time>2020-09-08T14:50:28Z</time>
      </trkpt>
      <trkpt lat="44.5001" lon="-0.28538">
        <ele>84.3</ele>
        <time>2020-09-08T14:50:29Z</time>
      </trkpt>
      <trkpt lat="44.50011" lon="-0.2854">
        <ele>84.3</ele>
        <time>2020-09-08T14:50:30Z</time>
      </trkpt>
      <trkpt lat="44.50011" lon="-0.28541">
        <ele>84.3</ele>
        <time>2020-09-08T14:50:31Z</time>
      </trkpt>
      <trkpt lat="44.50011" lon="-0.28542">
        <ele>84.4</ele>
        <time>2020-09-08T14:50:32Z</time>
      </trkpt>
      <trkpt lat="44.50011" lon="-0.28544">
        <ele>84.4</ele>
        <time>2020-09-08T14:50:34Z</time>
      </trkpt>
      <trkpt lat="44.50011" lon="-0.28546">
        <ele>84.4</ele>
        <time>2020-09-08T14:50:35Z</time>
      </trkpt>
      <trkpt lat="44.5001" lon="-0.28547">
        <ele>84.4</ele>
        <time>2020-09-08T14:50:37Z</time>
      </trkpt>
      <trkpt lat="44.50011" lon="-0.28549">
        <ele>84.5</ele>
        <time>2020-09-08T14:50:38Z</time>
      </trkpt>
      <trkpt lat="44.50011" lon="-0.28551">
        <ele>84.5</ele>
        <time>2020-09-08T14:50:40Z</time>
      </trkpt>
      <trkpt lat="44.50011" lon="-0.28552">
        <ele>84.5</ele>
        <time>2020-09-08T14:50:41Z</time>
      </trkpt>
      <trkpt lat="44.50011" lon="-0.28555">
        <ele>84.6</ele>
        <time>2020-09-08T14:50:43Z</time>
      </trkpt>
      <trkpt lat="44.50011" lon="-0.28557">
        <ele>84.6</ele>
        <time>2020-09-08T14:50:44Z</time>
      </trkpt>
      <trkpt lat="44.50012" lon="-0.28558">
        <ele>84.6</ele>
        <time>2020-09-08T14:50:45Z</time>
      </trkpt>
      <trkpt lat="44.50012" lon="-0.2856">
        <ele>84.7</ele>
        <time>2020-09-08T14:50:46Z</time>
      </trkpt>
      <trkpt lat="44.50012" lon="-0.28561">
        <ele>84.7</ele>
        <time>2020-09-08T14:50:47Z</time>
      </trkpt>
      <trkpt lat="44.50012" lon="-0.28564">
        <ele>84.8</ele>
        <time>2020-09-08T14:50:48Z</time>
      </trkpt>
      <trkpt lat="44.50012" lon="-0.28565">
        <ele>84.8</ele>
        <time>2020-09-08T14:50:49Z</time>
      </trkpt>
      <trkpt lat="44.50012" lon="-0.28566">
        <ele>84.8</ele>
        <time>2020-09-08T14:50:50Z</time>
      </trkpt>
      <trkpt lat="44.50013" lon="-0.28572">
        <ele>84.9</ele>
        <time>2020-09-08T14:50:52Z</time>
      </trkpt>
      <trkpt lat="44.50013" lon="-0.28573">
        <ele>84.9</ele>
        <time>2020-09-08T14:50:54Z</time>
      </trkpt>
      <trkpt lat="44.50013" lon="-0.28575">
        <ele>84.9</ele>
        <time>2020-09-08T14:50:55Z</time>
      </trkpt>
      <trkpt lat="44.50013" lon="-0.28576">
        <ele>85</ele>
        <time>2020-09-08T14:50:56Z</time>
      </trkpt>
      <trkpt lat="44.50012" lon="-0.28579">
        <ele>85</ele>
        <time>2020-09-08T14:50:57Z</time>
      </trkpt>
      <trkpt lat="44.50012" lon="-0.2858">
        <ele>85.1</ele>
        <time>2020-09-08T14:50:58Z</time>
      </trkpt>
      <trkpt lat="44.50012" lon="-0.28582">
        <ele>85.1</ele>
        <time>2020-09-08T14:50:59Z</time>
      </trkpt>
      <trkpt lat="44.50012" lon="-0.28584">
        <ele>85.1</ele>
        <time>2020-09-08T14:51:00Z</time>
      </trkpt>
      <trkpt lat="44.50013" lon="-0.28586">
        <ele>85.2</ele>
        <time>2020-09-08T14:51:01Z</time>
      </trkpt>
      <trkpt lat="44.50013" lon="-0.28588">
        <ele>85.2</ele>
        <time>2020-09-08T14:51:02Z</time>
      </trkpt>
      <trkpt lat="44.50012" lon="-0.2859">
        <ele>85.3</ele>
        <time>2020-09-08T14:51:03Z</time>
      </trkpt>
      <trkpt lat="44.50012" lon="-0.28594">
        <ele>85.3</ele>
        <time>2020-09-08T14:51:05Z</time>
      </trkpt>
      <trkpt lat="44.50012" lon="-0.28598">
        <ele>85.4</ele>
        <time>2020-09-08T14:51:07Z</time>
      </trkpt>
      <trkpt lat="44.50012" lon="-0.286">
        <ele>85.5</ele>
        <time>2020-09-08T14:51:09Z</time>
      </trkpt>
      <trkpt lat="44.50012" lon="-0.28602">
        <ele>85.5</ele>
        <time>2020-09-08T14:51:10Z</time>
      </trkpt>
      <trkpt lat="44.50012" lon="-0.28603">
        <ele>85.6</ele>
        <time>2020-09-08T14:51:11Z</time>
      </trkpt>
      <trkpt lat="44.50012" lon="-0.28605">
        <ele>85.6</ele>
        <time>2020-09-08T14:51:12Z</time>
      </trkpt>
      <trkpt lat="44.50012" lon="-0.28608">
        <ele>85.7</ele>
        <time>2020-09-08T14:51:13Z</time>
      </trkpt>
      <trkpt lat="44.50012" lon="-0.28609">
        <ele>85.7</ele>
        <time>2020-09-08T14:51:14Z</time>
      </trkpt>
      <trkpt lat="44.50012" lon="-0.28612">
        <ele>85.8</ele>
        <time>2020-09-08T14:51:16Z</time>
      </trkpt>
      <trkpt lat="44.50012" lon="-0.28613">
        <ele>85.8</ele>
        <time>2020-09-08T14:51:18Z</time>
      </trkpt>
      <trkpt lat="44.50013" lon="-0.28614">
        <ele>85.8</ele>
        <time>2020-09-08T14:51:19Z</time>
      </trkpt>
      <trkpt lat="44.50012" lon="-0.28616">
        <ele>85.9</ele>
        <time>2020-09-08T14:51:20Z</time>
      </trkpt>
      <trkpt lat="44.50012" lon="-0.28617">
        <ele>85.9</ele>
        <time>2020-09-08T14:51:21Z</time>
      </trkpt>
      <trkpt lat="44.50012" lon="-0.28618">
        <ele>86</ele>
        <time>2020-09-08T14:51:22Z</time>
      </trkpt>
      <trkpt lat="44.50012" lon="-0.28621">
        <ele>86</ele>
        <time>2020-09-08T14:51:23Z</time>
      </trkpt>
      <trkpt lat="44.50012" lon="-0.28624">
        <ele>86.1</ele>
        <time>2020-09-08T14:51:24Z</time>
      </trkpt>
      <trkpt lat="44.50012" lon="-0.28625">
        <ele>86.1</ele>
        <time>2020-09-08T14:51:25Z</time>
      </trkpt>
      <trkpt lat="44.50012" lon="-0.28627">
        <ele>86.2</ele>
        <time>2020-09-08T14:51:26Z</time>
      </trkpt>
      <trkpt lat="44.50012" lon="-0.28629">
        <ele>86.1</ele>
        <time>2020-09-08T14:51:27Z</time>
      </trkpt>
      <trkpt lat="44.50012" lon="-0.2863">
        <ele>86.4</ele>
        <time>2020-09-08T14:51:28Z</time>
      </trkpt>
      <trkpt lat="44.50012" lon="-0.28632">
        <ele>86.3</ele>
        <time>2020-09-08T14:51:30Z</time>
      </trkpt>
      <trkpt lat="44.50011" lon="-0.28635">
        <ele>86.5</ele>
        <time>2020-09-08T14:51:31Z</time>
      </trkpt>
      <trkpt lat="44.50011" lon="-0.28636">
        <ele>86.4</ele>
        <time>2020-09-08T14:51:33Z</time>
      </trkpt>
      <trkpt lat="44.50012" lon="-0.28636">
        <ele>86.5</ele>
        <time>2020-09-08T14:51:34Z</time>
      </trkpt>
      <trkpt lat="44.50014" lon="-0.28635">
        <ele>86.4</ele>
        <time>2020-09-08T14:51:35Z</time>
      </trkpt>
      <trkpt lat="44.50018" lon="-0.28634">
        <ele>86.6</ele>
        <time>2020-09-08T14:51:37Z</time>
      </trkpt>
      <trkpt lat="44.50021" lon="-0.28633">
        <ele>86.3</ele>
        <time>2020-09-08T14:51:38Z</time>
      </trkpt>
      <trkpt lat="44.50022" lon="-0.28633">
        <ele>86.3</ele>
        <time>2020-09-08T14:51:39Z</time>
      </trkpt>
      <trkpt lat="44.50023" lon="-0.28633">
        <ele>86.2</ele>
        <time>2020-09-08T14:51:40Z</time>
      </trkpt>
      <trkpt lat="44.50025" lon="-0.28634">
        <ele>86.6</ele>
        <time>2020-09-08T14:51:41Z</time>
      </trkpt>
      <trkpt lat="44.50026" lon="-0.28636">
        <ele>86.5</ele>
        <time>2020-09-08T14:51:43Z</time>
      </trkpt>
      <trkpt lat="44.50026" lon="-0.28637">
        <ele>86.5</ele>
        <time>2020-09-08T14:51:44Z</time>
      </trkpt>
      <trkpt lat="44.50026" lon="-0.28638">
        <ele>86.7</ele>
        <time>2020-09-08T14:51:45Z</time>
      </trkpt>
      <trkpt lat="44.50026" lon="-0.28639">
        <ele>86.7</ele>
        <time>2020-09-08T14:51:46Z</time>
      </trkpt>
      <trkpt lat="44.50026" lon="-0.2864">
        <ele>86.7</ele>
        <time>2020-09-08T14:51:47Z</time>
      </trkpt>
      <trkpt lat="44.50027" lon="-0.28641">
        <ele>86.6</ele>
        <time>2020-09-08T14:51:48Z</time>
      </trkpt>
      <trkpt lat="44.50027" lon="-0.28642">
        <ele>86.8</ele>
        <time>2020-09-08T14:51:50Z</time>
      </trkpt>
      <trkpt lat="44.50027" lon="-0.28643">
        <ele>86.8</ele>
        <time>2020-09-08T14:51:51Z</time>
      </trkpt>
      <trkpt lat="44.50027" lon="-0.28644">
        <ele>86.8</ele>
        <time>2020-09-08T14:51:52Z</time>
      </trkpt>
      <trkpt lat="44.50028" lon="-0.28645">
        <ele>86.8</ele>
        <time>2020-09-08T14:51:53Z</time>
      </trkpt>
      <trkpt lat="44.50028" lon="-0.28648">
        <ele>87</ele>
        <time>2020-09-08T14:51:55Z</time>
      </trkpt>
      <trkpt lat="44.50029" lon="-0.2865">
        <ele>87</ele>
        <time>2020-09-08T14:51:56Z</time>
      </trkpt>
      <trkpt lat="44.50029" lon="-0.28651">
        <ele>87.2</ele>
        <time>2020-09-08T14:51:57Z</time>
      </trkpt>
      <trkpt lat="44.50029" lon="-0.28652">
        <ele>87.1</ele>
        <time>2020-09-08T14:51:59Z</time>
      </trkpt>
      <trkpt lat="44.50029" lon="-0.28653">
        <ele>87.1</ele>
        <time>2020-09-08T14:52:00Z</time>
      </trkpt>
      <trkpt lat="44.5003" lon="-0.28656">
        <ele>87.3</ele>
        <time>2020-09-08T14:52:01Z</time>
      </trkpt>
      <trkpt lat="44.5003" lon="-0.28657">
        <ele>87.4</ele>
        <time>2020-09-08T14:52:02Z</time>
      </trkpt>
      <trkpt lat="44.5003" lon="-0.28658">
        <ele>87.3</ele>
        <time>2020-09-08T14:52:03Z</time>
      </trkpt>
      <trkpt lat="44.50031" lon="-0.2866">
        <ele>87.5</ele>
        <time>2020-09-08T14:52:04Z</time>
      </trkpt>
      <trkpt lat="44.50031" lon="-0.28662">
        <ele>87.5</ele>
        <time>2020-09-08T14:52:05Z</time>
      </trkpt>
      <trkpt lat="44.50032" lon="-0.28664">
        <ele>87.7</ele>
        <time>2020-09-08T14:52:06Z</time>
      </trkpt>
      <trkpt lat="44.50032" lon="-0.28666">
        <ele>87.7</ele>
        <time>2020-09-08T14:52:07Z</time>
      </trkpt>
      <trkpt lat="44.50032" lon="-0.28668">
        <ele>87.9</ele>
        <time>2020-09-08T14:52:09Z</time>
      </trkpt>
      <trkpt lat="44.50033" lon="-0.2867">
        <ele>87.8</ele>
        <time>2020-09-08T14:52:10Z</time>
      </trkpt>
      <trkpt lat="44.50033" lon="-0.28671">
        <ele>87.9</ele>
        <time>2020-09-08T14:52:11Z</time>
      </trkpt>
      <trkpt lat="44.50034" lon="-0.28673">
        <ele>88.1</ele>
        <time>2020-09-08T14:52:12Z</time>
      </trkpt>
      <trkpt lat="44.50035" lon="-0.28674">
        <ele>88.1</ele>
        <time>2020-09-08T14:52:13Z</time>
      </trkpt>
      <trkpt lat="44.50035" lon="-0.28675">
        <ele>88</ele>
        <time>2020-09-08T14:52:14Z</time>
      </trkpt>
      <trkpt lat="44.50036" lon="-0.28675">
        <ele>88</ele>
        <time>2020-09-08T14:52:15Z</time>
      </trkpt>
      <trkpt lat="44.50036" lon="-0.28676">
        <ele>88.1</ele>
        <time>2020-09-08T14:52:16Z</time>
      </trkpt>
      <trkpt lat="44.50037" lon="-0.28676">
        <ele>88.3</ele>
        <time>2020-09-08T14:52:17Z</time>
      </trkpt>
      <trkpt lat="44.5004" lon="-0.28677">
        <ele>88.4</ele>
        <time>2020-09-08T14:52:19Z</time>
      </trkpt>
      <trkpt lat="44.5004" lon="-0.28677">
        <ele>88.4</ele>
        <time>2020-09-08T14:52:20Z</time>
      </trkpt>
      <trkpt lat="44.50041" lon="-0.28677">
        <ele>88.3</ele>
        <time>2020-09-08T14:52:21Z</time>
      </trkpt>
      <trkpt lat="44.50043" lon="-0.28677">
        <ele>88.3</ele>
        <time>2020-09-08T14:52:22Z</time>
      </trkpt>
      <trkpt lat="44.50044" lon="-0.28677">
        <ele>88.3</ele>
        <time>2020-09-08T14:52:23Z</time>
      </trkpt>
      <trkpt lat="44.50045" lon="-0.28676">
        <ele>88.3</ele>
        <time>2020-09-08T14:52:24Z</time>
      </trkpt>
      <trkpt lat="44.50047" lon="-0.28675">
        <ele>88.3</ele>
        <time>2020-09-08T14:52:26Z</time>
      </trkpt>
      <trkpt lat="44.50048" lon="-0.28672">
        <ele>88.2</ele>
        <time>2020-09-08T14:52:27Z</time>
      </trkpt>
      <trkpt lat="44.50049" lon="-0.28671">
        <ele>88.2</ele>
        <time>2020-09-08T14:52:28Z</time>
      </trkpt>
      <trkpt lat="44.5005" lon="-0.28669">
        <ele>88.2</ele>
        <time>2020-09-08T14:52:29Z</time>
      </trkpt>
      <trkpt lat="44.50052" lon="-0.28668">
        <ele>88.1</ele>
        <time>2020-09-08T14:52:30Z</time>
      </trkpt>
      <trkpt lat="44.50053" lon="-0.28666">
        <ele>88.1</ele>
        <time>2020-09-08T14:52:31Z</time>
      </trkpt>
      <trkpt lat="44.50055" lon="-0.28665">
        <ele>88.1</ele>
        <time>2020-09-08T14:52:33Z</time>
      </trkpt>
      <trkpt lat="44.50056" lon="-0.28663">
        <ele>88</ele>
        <time>2020-09-08T14:52:34Z</time>
      </trkpt>
      <trkpt lat="44.50057" lon="-0.28662">
        <ele>88</ele>
        <time>2020-09-08T14:52:35Z</time>
      </trkpt>
      <trkpt lat="44.50058" lon="-0.28661">
        <ele>88</ele>
        <time>2020-09-08T14:52:36Z</time>
      </trkpt>
      <trkpt lat="44.5006" lon="-0.28659">
        <ele>88</ele>
        <time>2020-09-08T14:52:37Z</time>
      </trkpt>
      <trkpt lat="44.50061" lon="-0.28658">
        <ele>87.9</ele>
        <time>2020-09-08T14:52:38Z</time>
      </trkpt>
      <trkpt lat="44.50062" lon="-0.28658">
        <ele>87.9</ele>
        <time>2020-09-08T14:52:39Z</time>
      </trkpt>
      <trkpt lat="44.50062" lon="-0.28657">
        <ele>87.9</ele>
        <time>2020-09-08T14:52:40Z</time>
      </trkpt>
      <trkpt lat="44.50063" lon="-0.28657">
        <ele>87.9</ele>
        <time>2020-09-08T14:52:41Z</time>
      </trkpt>
      <trkpt lat="44.50064" lon="-0.28656">
        <ele>87.9</ele>
        <time>2020-09-08T14:52:42Z</time>
      </trkpt>
      <trkpt lat="44.50064" lon="-0.28656">
        <ele>87.9</ele>
        <time>2020-09-08T14:52:43Z</time>
      </trkpt>
      <trkpt lat="44.50065" lon="-0.28654">
        <ele>87.8</ele>
        <time>2020-09-08T14:52:45Z</time>
      </trkpt>
      <trkpt lat="44.50065" lon="-0.28653">
        <ele>87.8</ele>
        <time>2020-09-08T14:52:46Z</time>
      </trkpt>
      <trkpt lat="44.50066" lon="-0.28652">
        <ele>87.8</ele>
        <time>2020-09-08T14:52:47Z</time>
      </trkpt>
      <trkpt lat="44.50067" lon="-0.2865">
        <ele>87.8</ele>
        <time>2020-09-08T14:52:49Z</time>
      </trkpt>
      <trkpt lat="44.50067" lon="-0.28649">
        <ele>87.8</ele>
        <time>2020-09-08T14:52:50Z</time>
      </trkpt>
      <trkpt lat="44.50068" lon="-0.28649">
        <ele>87.8</ele>
        <time>2020-09-08T14:52:51Z</time>
      </trkpt>
      <trkpt lat="44.5007" lon="-0.28648">
        <ele>87.7</ele>
        <time>2020-09-08T14:52:53Z</time>
      </trkpt>
      <trkpt lat="44.50071" lon="-0.28646">
        <ele>87.7</ele>
        <time>2020-09-08T14:52:54Z</time>
      </trkpt>
      <trkpt lat="44.50072" lon="-0.28645">
        <ele>87.7</ele>
        <time>2020-09-08T14:52:55Z</time>
      </trkpt>
      <trkpt lat="44.50073" lon="-0.28644">
        <ele>87.7</ele>
        <time>2020-09-08T14:52:56Z</time>
      </trkpt>
      <trkpt lat="44.50073" lon="-0.28643">
        <ele>87.7</ele>
        <time>2020-09-08T14:52:57Z</time>
      </trkpt>
      <trkpt lat="44.50074" lon="-0.28642">
        <ele>87.7</ele>
        <time>2020-09-08T14:52:58Z</time>
      </trkpt>
      <trkpt lat="44.50075" lon="-0.28642">
        <ele>87.7</ele>
        <time>2020-09-08T14:53:00Z</time>
      </trkpt>
      <trkpt lat="44.50075" lon="-0.28641">
        <ele>87.7</ele>
        <time>2020-09-08T14:53:01Z</time>
      </trkpt>
      <trkpt lat="44.50076" lon="-0.28641">
        <ele>87.6</ele>
        <time>2020-09-08T14:53:02Z</time>
      </trkpt>
      <trkpt lat="44.50076" lon="-0.2864">
        <ele>87.6</ele>
        <time>2020-09-08T14:53:03Z</time>
      </trkpt>
      <trkpt lat="44.50077" lon="-0.28639">
        <ele>87.6</ele>
        <time>2020-09-08T14:53:04Z</time>
      </trkpt>
      <trkpt lat="44.50079" lon="-0.28637">
        <ele>87.6</ele>
        <time>2020-09-08T14:53:05Z</time>
      </trkpt>
      <trkpt lat="44.50079" lon="-0.28636">
        <ele>87.6</ele>
        <time>2020-09-08T14:53:06Z</time>
      </trkpt>
      <trkpt lat="44.5008" lon="-0.28635">
        <ele>87.6</ele>
        <time>2020-09-08T14:53:07Z</time>
      </trkpt>
      <trkpt lat="44.50081" lon="-0.28635">
        <ele>87.6</ele>
        <time>2020-09-08T14:53:09Z</time>
      </trkpt>
      <trkpt lat="44.50082" lon="-0.28634">
        <ele>87.5</ele>
        <time>2020-09-08T14:53:10Z</time>
      </trkpt>
      <trkpt lat="44.50083" lon="-0.28633">
        <ele>87.5</ele>
        <time>2020-09-08T14:53:11Z</time>
      </trkpt>
      <trkpt lat="44.50084" lon="-0.28632">
        <ele>87.5</ele>
        <time>2020-09-08T14:53:12Z</time>
      </trkpt>
      <trkpt lat="44.50085" lon="-0.28631">
        <ele>87.5</ele>
        <time>2020-09-08T14:53:13Z</time>
      </trkpt>
      <trkpt lat="44.50087" lon="-0.28629">
        <ele>87.5</ele>
        <time>2020-09-08T14:53:15Z</time>
      </trkpt>
      <trkpt lat="44.50087" lon="-0.28629">
        <ele>87.5</ele>
        <time>2020-09-08T14:53:17Z</time>
      </trkpt>
      <trkpt lat="44.50088" lon="-0.28628">
        <ele>87.5</ele>
        <time>2020-09-08T14:53:18Z</time>
      </trkpt>
      <trkpt lat="44.50089" lon="-0.28627">
        <ele>87.4</ele>
        <time>2020-09-08T14:53:19Z</time>
      </trkpt>
      <trkpt lat="44.50091" lon="-0.28626">
        <ele>87.4</ele>
        <time>2020-09-08T14:53:20Z</time>
      </trkpt>
      <trkpt lat="44.50092" lon="-0.28625">
        <ele>87.4</ele>
        <time>2020-09-08T14:53:21Z</time>
      </trkpt>
      <trkpt lat="44.50094" lon="-0.28624">
        <ele>87.4</ele>
        <time>2020-09-08T14:53:23Z</time>
      </trkpt>
      <trkpt lat="44.50095" lon="-0.28623">
        <ele>87.4</ele>
        <time>2020-09-08T14:53:24Z</time>
      </trkpt>
      <trkpt lat="44.50096" lon="-0.28622">
        <ele>87.4</ele>
        <time>2020-09-08T14:53:25Z</time>
      </trkpt>
      <trkpt lat="44.50097" lon="-0.28623">
        <ele>87.4</ele>
        <time>2020-09-08T14:53:26Z</time>
      </trkpt>
      <trkpt lat="44.50098" lon="-0.28623">
        <ele>87.3</ele>
        <time>2020-09-08T14:53:27Z</time>
      </trkpt>
      <trkpt lat="44.501" lon="-0.28624">
        <ele>87.3</ele>
        <time>2020-09-08T14:53:28Z</time>
      </trkpt>
      <trkpt lat="44.50101" lon="-0.28624">
        <ele>87.3</ele>
        <time>2020-09-08T14:53:29Z</time>
      </trkpt>
      <trkpt lat="44.50104" lon="-0.28625">
        <ele>87.3</ele>
        <time>2020-09-08T14:53:31Z</time>
      </trkpt>
      <trkpt lat="44.50104" lon="-0.28625">
        <ele>87.3</ele>
        <time>2020-09-08T14:53:32Z</time>
      </trkpt>
      <trkpt lat="44.50106" lon="-0.28625">
        <ele>87.3</ele>
        <time>2020-09-08T14:53:34Z</time>
      </trkpt>
      <trkpt lat="44.50108" lon="-0.28626">
        <ele>87.3</ele>
        <time>2020-09-08T14:53:35Z</time>
      </trkpt>
      <trkpt lat="44.5011" lon="-0.28625">
        <ele>87.3</ele>
        <time>2020-09-08T14:53:36Z</time>
      </trkpt>
      <trkpt lat="44.50111" lon="-0.28625">
        <ele>87.3</ele>
        <time>2020-09-08T14:53:37Z</time>
      </trkpt>
      <trkpt lat="44.50112" lon="-0.28624">
        <ele>87.3</ele>
        <time>2020-09-08T14:53:38Z</time>
      </trkpt>
      <trkpt lat="44.50116" lon="-0.28618">
        <ele>87.3</ele>
        <time>2020-09-08T14:53:40Z</time>
      </trkpt>
      <trkpt lat="44.50118" lon="-0.28616">
        <ele>87.3</ele>
        <time>2020-09-08T14:53:41Z</time>
      </trkpt>
      <trkpt lat="44.50119" lon="-0.28614">
        <ele>87.3</ele>
        <time>2020-09-08T14:53:42Z</time>
      </trkpt>
      <trkpt lat="44.50122" lon="-0.28612">
        <ele>87.3</ele>
        <time>2020-09-08T14:53:44Z</time>
      </trkpt>
      <trkpt lat="44.50122" lon="-0.28612">
        <ele>87.3</ele>
        <time>2020-09-08T14:53:45Z</time>
      </trkpt>
      <trkpt lat="44.50124" lon="-0.28611">
        <ele>87.3</ele>
        <time>2020-09-08T14:53:46Z</time>
      </trkpt>
      <trkpt lat="44.50125" lon="-0.2861">
        <ele>87.3</ele>
        <time>2020-09-08T14:53:47Z</time>
      </trkpt>
      <trkpt lat="44.50127" lon="-0.28609">
        <ele>87.3</ele>
        <time>2020-09-08T14:53:48Z</time>
      </trkpt>
      <trkpt lat="44.50128" lon="-0.28608">
        <ele>87.3</ele>
        <time>2020-09-08T14:53:50Z</time>
      </trkpt>
      <trkpt lat="44.50129" lon="-0.28608">
        <ele>87.3</ele>
        <time>2020-09-08T14:53:51Z</time>
      </trkpt>
      <trkpt lat="44.50131" lon="-0.28606">
        <ele>87.3</ele>
        <time>2020-09-08T14:53:53Z</time>
      </trkpt>
      <trkpt lat="44.50133" lon="-0.28605">
        <ele>87.3</ele>
        <time>2020-09-08T14:53:55Z</time>
      </trkpt>
      <trkpt lat="44.50134" lon="-0.28604">
        <ele>87.3</ele>
        <time>2020-09-08T14:53:56Z</time>
      </trkpt>
      <trkpt lat="44.50135" lon="-0.28603">
        <ele>87.3</ele>
        <time>2020-09-08T14:53:58Z</time>
      </trkpt>
      <trkpt lat="44.50137" lon="-0.28602">
        <ele>87.3</ele>
        <time>2020-09-08T14:53:59Z</time>
      </trkpt>
      <trkpt lat="44.50138" lon="-0.28602">
        <ele>87.3</ele>
        <time>2020-09-08T14:54:00Z</time>
      </trkpt>
      <trkpt lat="44.5014" lon="-0.286">
        <ele>87.3</ele>
        <time>2020-09-08T14:54:02Z</time>
      </trkpt>
      <trkpt lat="44.50143" lon="-0.28598">
        <ele>87.3</ele>
        <time>2020-09-08T14:54:03Z</time>
      </trkpt>
      <trkpt lat="44.50144" lon="-0.28598">
        <ele>87.3</ele>
        <time>2020-09-08T14:54:04Z</time>
      </trkpt>
      <trkpt lat="44.50146" lon="-0.28597">
        <ele>87.4</ele>
        <time>2020-09-08T14:54:06Z</time>
      </trkpt>
      <trkpt lat="44.50147" lon="-0.28596">
        <ele>87.4</ele>
        <time>2020-09-08T14:54:07Z</time>
      </trkpt>
      <trkpt lat="44.50148" lon="-0.28595">
        <ele>87.4</ele>
        <time>2020-09-08T14:54:08Z</time>
      </trkpt>
      <trkpt lat="44.5015" lon="-0.28594">
        <ele>87.4</ele>
        <time>2020-09-08T14:54:09Z</time>
      </trkpt>
      <trkpt lat="44.50151" lon="-0.28593">
        <ele>87.4</ele>
        <time>2020-09-08T14:54:10Z</time>
      </trkpt>
      <trkpt lat="44.50153" lon="-0.28592">
        <ele>87.4</ele>
        <time>2020-09-08T14:54:12Z</time>
      </trkpt>
      <trkpt lat="44.50155" lon="-0.28591">
        <ele>87.4</ele>
        <time>2020-09-08T14:54:13Z</time>
      </trkpt>
      <trkpt lat="44.50157" lon="-0.28589">
        <ele>87.5</ele>
        <time>2020-09-08T14:54:15Z</time>
      </trkpt>
      <trkpt lat="44.50159" lon="-0.28589">
        <ele>87.5</ele>
        <time>2020-09-08T14:54:16Z</time>
      </trkpt>
      <trkpt lat="44.5016" lon="-0.28588">
        <ele>87.5</ele>
        <time>2020-09-08T14:54:17Z</time>
      </trkpt>
      <trkpt lat="44.50161" lon="-0.28587">
        <ele>87.5</ele>
        <time>2020-09-08T14:54:19Z</time>
      </trkpt>
      <trkpt lat="44.50163" lon="-0.28586">
        <ele>87.5</ele>
        <time>2020-09-08T14:54:20Z</time>
      </trkpt>
      <trkpt lat="44.50164" lon="-0.28585">
        <ele>87.5</ele>
        <time>2020-09-08T14:54:21Z</time>
      </trkpt>
      <trkpt lat="44.50165" lon="-0.28585">
        <ele>87.6</ele>
        <time>2020-09-08T14:54:22Z</time>
      </trkpt>
      <trkpt lat="44.50167" lon="-0.28584">
        <ele>87.6</ele>
        <time>2020-09-08T14:54:24Z</time>
      </trkpt>
      <trkpt lat="44.50168" lon="-0.28583">
        <ele>87.6</ele>
        <time>2020-09-08T14:54:25Z</time>
      </trkpt>
      <trkpt lat="44.50169" lon="-0.28583">
        <ele>87.6</ele>
        <time>2020-09-08T14:54:26Z</time>
      </trkpt>
      <trkpt lat="44.50169" lon="-0.28583">
        <ele>87.6</ele>
        <time>2020-09-08T14:54:27Z</time>
      </trkpt>
      <trkpt lat="44.5017" lon="-0.28582">
        <ele>87.6</ele>
        <time>2020-09-08T14:54:28Z</time>
      </trkpt>
      <trkpt lat="44.50171" lon="-0.28581">
        <ele>87.6</ele>
        <time>2020-09-08T14:54:29Z</time>
      </trkpt>
      <trkpt lat="44.50172" lon="-0.2858">
        <ele>87.6</ele>
        <time>2020-09-08T14:54:30Z</time>
      </trkpt>
      <trkpt lat="44.50174" lon="-0.28578">
        <ele>87.6</ele>
        <time>2020-09-08T14:54:32Z</time>
      </trkpt>
      <trkpt lat="44.50175" lon="-0.28578">
        <ele>87.6</ele>
        <time>2020-09-08T14:54:33Z</time>
      </trkpt>
      <trkpt lat="44.50176" lon="-0.28577">
        <ele>87.6</ele>
        <time>2020-09-08T14:54:34Z</time>
      </trkpt>
      <trkpt lat="44.50177" lon="-0.28576">
        <ele>87.6</ele>
        <time>2020-09-08T14:54:35Z</time>
      </trkpt>
      <trkpt lat="44.50178" lon="-0.28575">
        <ele>87.6</ele>
        <time>2020-09-08T14:54:37Z</time>
      </trkpt>
      <trkpt lat="44.5018" lon="-0.28574">
        <ele>87.6</ele>
        <time>2020-09-08T14:54:39Z</time>
      </trkpt>
      <trkpt lat="44.50181" lon="-0.28573">
        <ele>87.6</ele>
        <time>2020-09-08T14:54:40Z</time>
      </trkpt>
      <trkpt lat="44.50184" lon="-0.28572">
        <ele>87.6</ele>
        <time>2020-09-08T14:54:41Z</time>
      </trkpt>
      <trkpt lat="44.50185" lon="-0.28572">
        <ele>87.6</ele>
        <time>2020-09-08T14:54:43Z</time>
      </trkpt>
      <trkpt lat="44.50186" lon="-0.28571">
        <ele>87.7</ele>
        <time>2020-09-08T14:54:45Z</time>
      </trkpt>
      <trkpt lat="44.50187" lon="-0.2857">
        <ele>87.7</ele>
        <time>2020-09-08T14:54:46Z</time>
      </trkpt>
      <trkpt lat="44.50189" lon="-0.28569">
        <ele>87.7</ele>
        <time>2020-09-08T14:54:47Z</time>
      </trkpt>
      <trkpt lat="44.50192" lon="-0.28568">
        <ele>87.7</ele>
        <time>2020-09-08T14:54:49Z</time>
      </trkpt>
      <trkpt lat="44.50193" lon="-0.28567">
        <ele>87.7</ele>
        <time>2020-09-08T14:54:50Z</time>
      </trkpt>
      <trkpt lat="44.50193" lon="-0.28567">
        <ele>87.7</ele>
        <time>2020-09-08T14:54:51Z</time>
      </trkpt>
      <trkpt lat="44.50197" lon="-0.28565">
        <ele>87.7</ele>
        <time>2020-09-08T14:54:53Z</time>
      </trkpt>
      <trkpt lat="44.50199" lon="-0.28563">
        <ele>87.8</ele>
        <time>2020-09-08T14:54:54Z</time>
      </trkpt>
      <trkpt lat="44.502" lon="-0.28562">
        <ele>87.8</ele>
        <time>2020-09-08T14:54:55Z</time>
      </trkpt>
      <trkpt lat="44.50201" lon="-0.28561">
        <ele>87.8</ele>
        <time>2020-09-08T14:54:56Z</time>
      </trkpt>
      <trkpt lat="44.50202" lon="-0.2856">
        <ele>87.9</ele>
        <time>2020-09-08T14:54:58Z</time>
      </trkpt>
      <trkpt lat="44.50203" lon="-0.28559">
        <ele>87.9</ele>
        <time>2020-09-08T14:54:59Z</time>
      </trkpt>
      <trkpt lat="44.50204" lon="-0.28558">
        <ele>87.9</ele>
        <time>2020-09-08T14:55:00Z</time>
      </trkpt>
      <trkpt lat="44.50204" lon="-0.28557">
        <ele>87.9</ele>
        <time>2020-09-08T14:55:01Z</time>
      </trkpt>
      <trkpt lat="44.50205" lon="-0.28556">
        <ele>87.9</ele>
        <time>2020-09-08T14:55:02Z</time>
      </trkpt>
      <trkpt lat="44.50206" lon="-0.28555">
        <ele>87.9</ele>
        <time>2020-09-08T14:55:03Z</time>
      </trkpt>
      <trkpt lat="44.50206" lon="-0.28554">
        <ele>87.9</ele>
        <time>2020-09-08T14:55:04Z</time>
      </trkpt>
      <trkpt lat="44.50207" lon="-0.28553">
        <ele>88</ele>
        <time>2020-09-08T14:55:05Z</time>
      </trkpt>
      <trkpt lat="44.50208" lon="-0.28552">
        <ele>88</ele>
        <time>2020-09-08T14:55:06Z</time>
      </trkpt>
      <trkpt lat="44.50209" lon="-0.2855">
        <ele>88</ele>
        <time>2020-09-08T14:55:07Z</time>
      </trkpt>
      <trkpt lat="44.50212" lon="-0.28548">
        <ele>88</ele>
        <time>2020-09-08T14:55:09Z</time>
      </trkpt>
      <trkpt lat="44.50213" lon="-0.28547">
        <ele>88.1</ele>
        <time>2020-09-08T14:55:10Z</time>
      </trkpt>
      <trkpt lat="44.50214" lon="-0.28546">
        <ele>88.1</ele>
        <time>2020-09-08T14:55:11Z</time>
      </trkpt>
      <trkpt lat="44.50216" lon="-0.28543">
        <ele>88.1</ele>
        <time>2020-09-08T14:55:13Z</time>
      </trkpt>
      <trkpt lat="44.50217" lon="-0.28542">
        <ele>88.1</ele>
        <time>2020-09-08T14:55:14Z</time>
      </trkpt>
      <trkpt lat="44.50219" lon="-0.28541">
        <ele>88.1</ele>
        <time>2020-09-08T14:55:15Z</time>
      </trkpt>
      <trkpt lat="44.5022" lon="-0.2854">
        <ele>88.1</ele>
        <time>2020-09-08T14:55:16Z</time>
      </trkpt>
      <trkpt lat="44.50222" lon="-0.28537">
        <ele>87.7</ele>
        <time>2020-09-08T14:55:17Z</time>
      </trkpt>
      <trkpt lat="44.50222" lon="-0.28536">
        <ele>87.7</ele>
        <time>2020-09-08T14:55:18Z</time>
      </trkpt>
      <trkpt lat="44.50222" lon="-0.28536">
        <ele>87.7</ele>
        <time>2020-09-08T14:55:19Z</time>
      </trkpt>
      <trkpt lat="44.50222" lon="-0.28535">
        <ele>87.6</ele>
        <time>2020-09-08T14:55:20Z</time>
      </trkpt>
      <trkpt lat="44.50222" lon="-0.28533">
        <ele>87.6</ele>
        <time>2020-09-08T14:55:21Z</time>
      </trkpt>
      <trkpt lat="44.50222" lon="-0.28532">
        <ele>87.5</ele>
        <time>2020-09-08T14:55:23Z</time>
      </trkpt>
      <trkpt lat="44.50222" lon="-0.28528">
        <ele>87.4</ele>
        <time>2020-09-08T14:55:24Z</time>
      </trkpt>
      <trkpt lat="44.50222" lon="-0.28525">
        <ele>87.3</ele>
        <time>2020-09-08T14:55:26Z</time>
      </trkpt>
      <trkpt lat="44.50221" lon="-0.2852">
        <ele>87.1</ele>
        <time>2020-09-08T14:55:27Z</time>
      </trkpt>
      <trkpt lat="44.50221" lon="-0.28518">
        <ele>87</ele>
        <time>2020-09-08T14:55:28Z</time>
      </trkpt>
      <trkpt lat="44.5022" lon="-0.28517">
        <ele>87</ele>
        <time>2020-09-08T14:55:29Z</time>
      </trkpt>
      <trkpt lat="44.5022" lon="-0.28515">
        <ele>86.9</ele>
        <time>2020-09-08T14:55:30Z</time>
      </trkpt>
      <trkpt lat="44.50219" lon="-0.28511">
        <ele>86.8</ele>
        <time>2020-09-08T14:55:32Z</time>
      </trkpt>
      <trkpt lat="44.50219" lon="-0.28509">
        <ele>86.7</ele>
        <time>2020-09-08T14:55:33Z</time>
      </trkpt>
      <trkpt lat="44.50218" lon="-0.28507">
        <ele>86.5</ele>
        <time>2020-09-08T14:55:34Z</time>
      </trkpt>
      <trkpt lat="44.50217" lon="-0.28504">
        <ele>86.4</ele>
        <time>2020-09-08T14:55:35Z</time>
      </trkpt>
      <trkpt lat="44.50215" lon="-0.285">
        <ele>86.1</ele>
        <time>2020-09-08T14:55:37Z</time>
      </trkpt>
      <trkpt lat="44.50214" lon="-0.28498">
        <ele>86</ele>
        <time>2020-09-08T14:55:38Z</time>
      </trkpt>
      <trkpt lat="44.50214" lon="-0.28496">
        <ele>85.9</ele>
        <time>2020-09-08T14:55:39Z</time>
      </trkpt>
      <trkpt lat="44.50213" lon="-0.28492">
        <ele>85.6</ele>
        <time>2020-09-08T14:55:41Z</time>
      </trkpt>
      <trkpt lat="44.50212" lon="-0.2849">
        <ele>85.5</ele>
        <time>2020-09-08T14:55:42Z</time>
      </trkpt>
      <trkpt lat="44.50212" lon="-0.28488">
        <ele>85.4</ele>
        <time>2020-09-08T14:55:43Z</time>
      </trkpt>
      <trkpt lat="44.50211" lon="-0.28487">
        <ele>85.3</ele>
        <time>2020-09-08T14:55:45Z</time>
      </trkpt>
      <trkpt lat="44.5021" lon="-0.28485">
        <ele>85.1</ele>
        <time>2020-09-08T14:55:46Z</time>
      </trkpt>
      <trkpt lat="44.5021" lon="-0.28484">
        <ele>85.1</ele>
        <time>2020-09-08T14:55:48Z</time>
      </trkpt>
      <trkpt lat="44.5021" lon="-0.28482">
        <ele>85</ele>
        <time>2020-09-08T14:55:49Z</time>
      </trkpt>
      <trkpt lat="44.50209" lon="-0.2848">
        <ele>84.9</ele>
        <time>2020-09-08T14:55:50Z</time>
      </trkpt>
      <trkpt lat="44.50209" lon="-0.28478">
        <ele>84.7</ele>
        <time>2020-09-08T14:55:52Z</time>
      </trkpt>
      <trkpt lat="44.50209" lon="-0.28475">
        <ele>84.6</ele>
        <time>2020-09-08T14:55:53Z</time>
      </trkpt>
      <trkpt lat="44.50208" lon="-0.28474">
        <ele>84.5</ele>
        <time>2020-09-08T14:55:54Z</time>
      </trkpt>
      <trkpt lat="44.50208" lon="-0.28472">
        <ele>84.3</ele>
        <time>2020-09-08T14:55:55Z</time>
      </trkpt>
      <trkpt lat="44.50207" lon="-0.2847">
        <ele>84.3</ele>
        <time>2020-09-08T14:55:56Z</time>
      </trkpt>
      <trkpt lat="44.50208" lon="-0.2847">
        <ele>84.2</ele>
        <time>2020-09-08T14:55:57Z</time>
      </trkpt>
      <trkpt lat="44.50207" lon="-0.28465">
        <ele>83.9</ele>
        <time>2020-09-08T14:55:59Z</time>
      </trkpt>
      <trkpt lat="44.50207" lon="-0.28464">
        <ele>83.9</ele>
        <time>2020-09-08T14:56:00Z</time>
      </trkpt>
      <trkpt lat="44.50206" lon="-0.2846">
        <ele>83.6</ele>
        <time>2020-09-08T14:56:02Z</time>
      </trkpt>
      <trkpt lat="44.50206" lon="-0.28458">
        <ele>83.5</ele>
        <time>2020-09-08T14:56:03Z</time>
      </trkpt>
      <trkpt lat="44.50206" lon="-0.28457">
        <ele>83.4</ele>
        <time>2020-09-08T14:56:04Z</time>
      </trkpt>
      <trkpt lat="44.50205" lon="-0.28454">
        <ele>83.2</ele>
        <time>2020-09-08T14:56:06Z</time>
      </trkpt>
      <trkpt lat="44.50205" lon="-0.28451">
        <ele>83</ele>
        <time>2020-09-08T14:56:07Z</time>
      </trkpt>
      <trkpt lat="44.50205" lon="-0.2845">
        <ele>83</ele>
        <time>2020-09-08T14:56:09Z</time>
      </trkpt>
      <trkpt lat="44.50205" lon="-0.28448">
        <ele>82.9</ele>
        <time>2020-09-08T14:56:10Z</time>
      </trkpt>
      <trkpt lat="44.50204" lon="-0.28445">
        <ele>82.7</ele>
        <time>2020-09-08T14:56:12Z</time>
      </trkpt>
      <trkpt lat="44.50204" lon="-0.28444">
        <ele>82.6</ele>
        <time>2020-09-08T14:56:13Z</time>
      </trkpt>
      <trkpt lat="44.50203" lon="-0.28442">
        <ele>82.5</ele>
        <time>2020-09-08T14:56:14Z</time>
      </trkpt>
      <trkpt lat="44.50203" lon="-0.28441">
        <ele>82.4</ele>
        <time>2020-09-08T14:56:15Z</time>
      </trkpt>
      <trkpt lat="44.50202" lon="-0.28439">
        <ele>82.3</ele>
        <time>2020-09-08T14:56:16Z</time>
      </trkpt>
      <trkpt lat="44.50202" lon="-0.28437">
        <ele>82.1</ele>
        <time>2020-09-08T14:56:18Z</time>
      </trkpt>
      <trkpt lat="44.50202" lon="-0.28434">
        <ele>82</ele>
        <time>2020-09-08T14:56:19Z</time>
      </trkpt>
      <trkpt lat="44.50201" lon="-0.28432">
        <ele>81.8</ele>
        <time>2020-09-08T14:56:20Z</time>
      </trkpt>
      <trkpt lat="44.50201" lon="-0.2843">
        <ele>81.7</ele>
        <time>2020-09-08T14:56:21Z</time>
      </trkpt>
      <trkpt lat="44.502" lon="-0.28428">
        <ele>81.6</ele>
        <time>2020-09-08T14:56:23Z</time>
      </trkpt>
      <trkpt lat="44.502" lon="-0.28426">
        <ele>81.5</ele>
        <time>2020-09-08T14:56:24Z</time>
      </trkpt>
      <trkpt lat="44.502" lon="-0.28424">
        <ele>81.3</ele>
        <time>2020-09-08T14:56:25Z</time>
      </trkpt>
      <trkpt lat="44.50199" lon="-0.28421">
        <ele>81.2</ele>
        <time>2020-09-08T14:56:27Z</time>
      </trkpt>
      <trkpt lat="44.50199" lon="-0.28419">
        <ele>81.1</ele>
        <time>2020-09-08T14:56:28Z</time>
      </trkpt>
      <trkpt lat="44.50198" lon="-0.28417">
        <ele>81.1</ele>
        <time>2020-09-08T14:56:29Z</time>
      </trkpt>
      <trkpt lat="44.50198" lon="-0.28414">
        <ele>81.1</ele>
        <time>2020-09-08T14:56:31Z</time>
      </trkpt>
      <trkpt lat="44.50199" lon="-0.28413">
        <ele>81.1</ele>
        <time>2020-09-08T14:56:33Z</time>
      </trkpt>
      <trkpt lat="44.50199" lon="-0.28412">
        <ele>81.1</ele>
        <time>2020-09-08T14:56:34Z</time>
      </trkpt>
      <trkpt lat="44.50199" lon="-0.2841">
        <ele>81.1</ele>
        <time>2020-09-08T14:56:35Z</time>
      </trkpt>
      <trkpt lat="44.50201" lon="-0.28408">
        <ele>81.1</ele>
        <time>2020-09-08T14:56:36Z</time>
      </trkpt>
      <trkpt lat="44.50202" lon="-0.28407">
        <ele>81.1</ele>
        <time>2020-09-08T14:56:37Z</time>
      </trkpt>
      <trkpt lat="44.50203" lon="-0.28404">
        <ele>81</ele>
        <time>2020-09-08T14:56:39Z</time>
      </trkpt>
      <trkpt lat="44.50203" lon="-0.28403">
        <ele>81</ele>
        <time>2020-09-08T14:56:41Z</time>
      </trkpt>
      <trkpt lat="44.50204" lon="-0.28402">
        <ele>81</ele>
        <time>2020-09-08T14:56:42Z</time>
      </trkpt>
      <trkpt lat="44.50204" lon="-0.284">
        <ele>81</ele>
        <time>2020-09-08T14:56:44Z</time>
      </trkpt>
      <trkpt lat="44.50205" lon="-0.28399">
        <ele>81</ele>
        <time>2020-09-08T14:56:45Z</time>
      </trkpt>
      <trkpt lat="44.50206" lon="-0.284">
        <ele>81</ele>
        <time>2020-09-08T14:56:46Z</time>
      </trkpt>
      <trkpt lat="44.50208" lon="-0.284">
        <ele>81</ele>
        <time>2020-09-08T14:56:47Z</time>
      </trkpt>
      <trkpt lat="44.50209" lon="-0.284">
        <ele>81</ele>
        <time>2020-09-08T14:56:48Z</time>
      </trkpt>
      <trkpt lat="44.5021" lon="-0.284">
        <ele>81</ele>
        <time>2020-09-08T14:56:49Z</time>
      </trkpt>
      <trkpt lat="44.50211" lon="-0.28401">
        <ele>81</ele>
        <time>2020-09-08T14:56:50Z</time>
      </trkpt>
      <trkpt lat="44.50212" lon="-0.28403">
        <ele>81</ele>
        <time>2020-09-08T14:56:51Z</time>
      </trkpt>
      <trkpt lat="44.50213" lon="-0.28403">
        <ele>81</ele>
        <time>2020-09-08T14:56:52Z</time>
      </trkpt>
      <trkpt lat="44.50216" lon="-0.28404">
        <ele>81</ele>
        <time>2020-09-08T14:56:54Z</time>
      </trkpt>
      <trkpt lat="44.50218" lon="-0.28404">
        <ele>81</ele>
        <time>2020-09-08T14:56:55Z</time>
      </trkpt>
      <trkpt lat="44.50221" lon="-0.28407">
        <ele>80.9</ele>
        <time>2020-09-08T14:56:57Z</time>
      </trkpt>
      <trkpt lat="44.50223" lon="-0.28408">
        <ele>80.9</ele>
        <time>2020-09-08T14:56:58Z</time>
      </trkpt>
      <trkpt lat="44.50225" lon="-0.28409">
        <ele>80.9</ele>
        <time>2020-09-08T14:57:00Z</time>
      </trkpt>
      <trkpt lat="44.50228" lon="-0.28411">
        <ele>80.9</ele>
        <time>2020-09-08T14:57:01Z</time>
      </trkpt>
      <trkpt lat="44.50229" lon="-0.28412">
        <ele>80.9</ele>
        <time>2020-09-08T14:57:02Z</time>
      </trkpt>
      <trkpt lat="44.50232" lon="-0.28414">
        <ele>80.9</ele>
        <time>2020-09-08T14:57:03Z</time>
      </trkpt>
      <trkpt lat="44.50233" lon="-0.28415">
        <ele>80.9</ele>
        <time>2020-09-08T14:57:04Z</time>
      </trkpt>
      <trkpt lat="44.50236" lon="-0.28417">
        <ele>80.9</ele>
        <time>2020-09-08T14:57:06Z</time>
      </trkpt>
      <trkpt lat="44.50237" lon="-0.28418">
        <ele>80.9</ele>
        <time>2020-09-08T14:57:07Z</time>
      </trkpt>
      <trkpt lat="44.5024" lon="-0.2842">
        <ele>80.9</ele>
        <time>2020-09-08T14:57:09Z</time>
      </trkpt>
      <trkpt lat="44.50241" lon="-0.28421">
        <ele>80.9</ele>
        <time>2020-09-08T14:57:10Z</time>
      </trkpt>
      <trkpt lat="44.50243" lon="-0.28421">
        <ele>80.9</ele>
        <time>2020-09-08T14:57:12Z</time>
      </trkpt>
      <trkpt lat="44.50244" lon="-0.28422">
        <ele>80.9</ele>
        <time>2020-09-08T14:57:13Z</time>
      </trkpt>
      <trkpt lat="44.50245" lon="-0.28423">
        <ele>80.9</ele>
        <time>2020-09-08T14:57:14Z</time>
      </trkpt>
      <trkpt lat="44.50246" lon="-0.28424">
        <ele>80.9</ele>
        <time>2020-09-08T14:57:15Z</time>
      </trkpt>
      <trkpt lat="44.50247" lon="-0.28425">
        <ele>80.8</ele>
        <time>2020-09-08T14:57:16Z</time>
      </trkpt>
      <trkpt lat="44.50249" lon="-0.28427">
        <ele>80.8</ele>
        <time>2020-09-08T14:57:17Z</time>
      </trkpt>
      <trkpt lat="44.5025" lon="-0.28428">
        <ele>80.8</ele>
        <time>2020-09-08T14:57:18Z</time>
      </trkpt>
      <trkpt lat="44.50251" lon="-0.28428">
        <ele>80.8</ele>
        <time>2020-09-08T14:57:19Z</time>
      </trkpt>
      <trkpt lat="44.50253" lon="-0.2843">
        <ele>80.8</ele>
        <time>2020-09-08T14:57:21Z</time>
      </trkpt>
      <trkpt lat="44.50254" lon="-0.28431">
        <ele>80.8</ele>
        <time>2020-09-08T14:57:22Z</time>
      </trkpt>
      <trkpt lat="44.50255" lon="-0.28432">
        <ele>80.8</ele>
        <time>2020-09-08T14:57:23Z</time>
      </trkpt>
      <trkpt lat="44.50256" lon="-0.28433">
        <ele>80.8</ele>
        <time>2020-09-08T14:57:24Z</time>
      </trkpt>
      <trkpt lat="44.50257" lon="-0.28434">
        <ele>80.8</ele>
        <time>2020-09-08T14:57:25Z</time>
      </trkpt>
      <trkpt lat="44.50258" lon="-0.28435">
        <ele>80.8</ele>
        <time>2020-09-08T14:57:27Z</time>
      </trkpt>
      <trkpt lat="44.50259" lon="-0.28435">
        <ele>80.7</ele>
        <time>2020-09-08T14:57:28Z</time>
      </trkpt>
      <trkpt lat="44.50259" lon="-0.28436">
        <ele>80.7</ele>
        <time>2020-09-08T14:57:29Z</time>
      </trkpt>
      <trkpt lat="44.50261" lon="-0.28437">
        <ele>80.7</ele>
        <time>2020-09-08T14:57:30Z</time>
      </trkpt>
      <trkpt lat="44.50262" lon="-0.28438">
        <ele>80.7</ele>
        <time>2020-09-08T14:57:31Z</time>
      </trkpt>
      <trkpt lat="44.50263" lon="-0.28439">
        <ele>80.7</ele>
        <time>2020-09-08T14:57:33Z</time>
      </trkpt>
      <trkpt lat="44.50265" lon="-0.28439">
        <ele>80.7</ele>
        <time>2020-09-08T14:57:34Z</time>
      </trkpt>
      <trkpt lat="44.50266" lon="-0.2844">
        <ele>80.6</ele>
        <time>2020-09-08T14:57:35Z</time>
      </trkpt>
      <trkpt lat="44.50267" lon="-0.28441">
        <ele>80.6</ele>
        <time>2020-09-08T14:57:36Z</time>
      </trkpt>
      <trkpt lat="44.50269" lon="-0.28442">
        <ele>80.6</ele>
        <time>2020-09-08T14:57:37Z</time>
      </trkpt>
      <trkpt lat="44.50271" lon="-0.28443">
        <ele>80.6</ele>
        <time>2020-09-08T14:57:39Z</time>
      </trkpt>
      <trkpt lat="44.50274" lon="-0.28445">
        <ele>80.5</ele>
        <time>2020-09-08T14:57:41Z</time>
      </trkpt>
      <trkpt lat="44.50275" lon="-0.28445">
        <ele>80.5</ele>
        <time>2020-09-08T14:57:42Z</time>
      </trkpt>
      <trkpt lat="44.50276" lon="-0.28446">
        <ele>80.5</ele>
        <time>2020-09-08T14:57:43Z</time>
      </trkpt>
      <trkpt lat="44.50278" lon="-0.28446">
        <ele>80.5</ele>
        <time>2020-09-08T14:57:45Z</time>
      </trkpt>
      <trkpt lat="44.50279" lon="-0.28447">
        <ele>80.5</ele>
        <time>2020-09-08T14:57:46Z</time>
      </trkpt>
      <trkpt lat="44.5028" lon="-0.28447">
        <ele>80.5</ele>
        <time>2020-09-08T14:57:47Z</time>
      </trkpt>
      <trkpt lat="44.50281" lon="-0.28448">
        <ele>80.5</ele>
        <time>2020-09-08T14:57:48Z</time>
      </trkpt>
      <trkpt lat="44.50282" lon="-0.28449">
        <ele>80.4</ele>
        <time>2020-09-08T14:57:49Z</time>
      </trkpt>
      <trkpt lat="44.50283" lon="-0.28449">
        <ele>80.4</ele>
        <time>2020-09-08T14:57:50Z</time>
      </trkpt>
      <trkpt lat="44.50284" lon="-0.2845">
        <ele>80.4</ele>
        <time>2020-09-08T14:57:51Z</time>
      </trkpt>
      <trkpt lat="44.50286" lon="-0.28451">
        <ele>80.4</ele>
        <time>2020-09-08T14:57:53Z</time>
      </trkpt>
      <trkpt lat="44.50287" lon="-0.28452">
        <ele>80.4</ele>
        <time>2020-09-08T14:57:54Z</time>
      </trkpt>
      <trkpt lat="44.50289" lon="-0.28452">
        <ele>80.4</ele>
        <time>2020-09-08T14:57:55Z</time>
      </trkpt>
      <trkpt lat="44.50292" lon="-0.28453">
        <ele>80.4</ele>
        <time>2020-09-08T14:57:57Z</time>
      </trkpt>
      <trkpt lat="44.50293" lon="-0.28453">
        <ele>80.4</ele>
        <time>2020-09-08T14:57:58Z</time>
      </trkpt>
      <trkpt lat="44.50295" lon="-0.28454">
        <ele>80.4</ele>
        <time>2020-09-08T14:58:00Z</time>
      </trkpt>
      <trkpt lat="44.50296" lon="-0.28455">
        <ele>80.3</ele>
        <time>2020-09-08T14:58:01Z</time>
      </trkpt>
      <trkpt lat="44.50297" lon="-0.28456">
        <ele>80.3</ele>
        <time>2020-09-08T14:58:02Z</time>
      </trkpt>
      <trkpt lat="44.50299" lon="-0.28457">
        <ele>80.3</ele>
        <time>2020-09-08T14:58:03Z</time>
      </trkpt>
      <trkpt lat="44.503" lon="-0.28458">
        <ele>80.3</ele>
        <time>2020-09-08T14:58:04Z</time>
      </trkpt>
      <trkpt lat="44.50301" lon="-0.28458">
        <ele>80.3</ele>
        <time>2020-09-08T14:58:05Z</time>
      </trkpt>
      <trkpt lat="44.50301" lon="-0.28459">
        <ele>80.3</ele>
        <time>2020-09-08T14:58:06Z</time>
      </trkpt>
      <trkpt lat="44.50303" lon="-0.28459">
        <ele>80.3</ele>
        <time>2020-09-08T14:58:07Z</time>
      </trkpt>
      <trkpt lat="44.50304" lon="-0.28459">
        <ele>80.3</ele>
        <time>2020-09-08T14:58:08Z</time>
      </trkpt>
      <trkpt lat="44.50306" lon="-0.28459">
        <ele>80.3</ele>
        <time>2020-09-08T14:58:10Z</time>
      </trkpt>
      <trkpt lat="44.50307" lon="-0.28458">
        <ele>80.3</ele>
        <time>2020-09-08T14:58:11Z</time>
      </trkpt>
      <trkpt lat="44.50309" lon="-0.28457">
        <ele>80.3</ele>
        <time>2020-09-08T14:58:12Z</time>
      </trkpt>
      <trkpt lat="44.5031" lon="-0.28455">
        <ele>80.3</ele>
        <time>2020-09-08T14:58:13Z</time>
      </trkpt>
      <trkpt lat="44.50311" lon="-0.28453">
        <ele>80.3</ele>
        <time>2020-09-08T14:58:14Z</time>
      </trkpt>
      <trkpt lat="44.50311" lon="-0.28451">
        <ele>80.1</ele>
        <time>2020-09-08T14:58:15Z</time>
      </trkpt>
      <trkpt lat="44.50312" lon="-0.28449">
        <ele>80</ele>
        <time>2020-09-08T14:58:16Z</time>
      </trkpt>
      <trkpt lat="44.50312" lon="-0.28447">
        <ele>79.9</ele>
        <time>2020-09-08T14:58:17Z</time>
      </trkpt>
      <trkpt lat="44.50312" lon="-0.28445">
        <ele>79.9</ele>
        <time>2020-09-08T14:58:18Z</time>
      </trkpt>
      <trkpt lat="44.50313" lon="-0.28444">
        <ele>79.8</ele>
        <time>2020-09-08T14:58:19Z</time>
      </trkpt>
      <trkpt lat="44.50313" lon="-0.28442">
        <ele>79.8</ele>
        <time>2020-09-08T14:58:20Z</time>
      </trkpt>
      <trkpt lat="44.50313" lon="-0.2844">
        <ele>79.8</ele>
        <time>2020-09-08T14:58:21Z</time>
      </trkpt>
      <trkpt lat="44.50313" lon="-0.28438">
        <ele>79.7</ele>
        <time>2020-09-08T14:58:22Z</time>
      </trkpt>
      <trkpt lat="44.50314" lon="-0.28434">
        <ele>79.5</ele>
        <time>2020-09-08T14:58:24Z</time>
      </trkpt>
      <trkpt lat="44.50315" lon="-0.2843">
        <ele>79.3</ele>
        <time>2020-09-08T14:58:26Z</time>
      </trkpt>
      <trkpt lat="44.50315" lon="-0.28428">
        <ele>79.3</ele>
        <time>2020-09-08T14:58:27Z</time>
      </trkpt>
      <trkpt lat="44.50316" lon="-0.28425">
        <ele>79.2</ele>
        <time>2020-09-08T14:58:28Z</time>
      </trkpt>
      <trkpt lat="44.50316" lon="-0.28422">
        <ele>79.1</ele>
        <time>2020-09-08T14:58:29Z</time>
      </trkpt>
      <trkpt lat="44.50316" lon="-0.2842">
        <ele>79.1</ele>
        <time>2020-09-08T14:58:30Z</time>
      </trkpt>
      <trkpt lat="44.50317" lon="-0.28418">
        <ele>79</ele>
        <time>2020-09-08T14:58:32Z</time>
      </trkpt>
      <trkpt lat="44.50317" lon="-0.28416">
        <ele>79</ele>
        <time>2020-09-08T14:58:33Z</time>
      </trkpt>
      <trkpt lat="44.50317" lon="-0.28414">
        <ele>79</ele>
        <time>2020-09-08T14:58:34Z</time>
      </trkpt>
      <trkpt lat="44.50318" lon="-0.28412">
        <ele>79</ele>
        <time>2020-09-08T14:58:35Z</time>
      </trkpt>
      <trkpt lat="44.50318" lon="-0.28409">
        <ele>78.8</ele>
        <time>2020-09-08T14:58:36Z</time>
      </trkpt>
      <trkpt lat="44.50318" lon="-0.28408">
        <ele>78.8</ele>
        <time>2020-09-08T14:58:37Z</time>
      </trkpt>
      <trkpt lat="44.50319" lon="-0.28405">
        <ele>78.7</ele>
        <time>2020-09-08T14:58:39Z</time>
      </trkpt>
      <trkpt lat="44.5032" lon="-0.28403">
        <ele>78.7</ele>
        <time>2020-09-08T14:58:40Z</time>
      </trkpt>
      <trkpt lat="44.50321" lon="-0.28401">
        <ele>78.6</ele>
        <time>2020-09-08T14:58:41Z</time>
      </trkpt>
      <trkpt lat="44.50322" lon="-0.28398">
        <ele>78.5</ele>
        <time>2020-09-08T14:58:42Z</time>
      </trkpt>
      <trkpt lat="44.50322" lon="-0.28397">
        <ele>78.5</ele>
        <time>2020-09-08T14:58:44Z</time>
      </trkpt>
      <trkpt lat="44.50322" lon="-0.28395">
        <ele>78.5</ele>
        <time>2020-09-08T14:58:45Z</time>
      </trkpt>
      <trkpt lat="44.50323" lon="-0.28393">
        <ele>78.5</ele>
        <time>2020-09-08T14:58:46Z</time>
      </trkpt>
      <trkpt lat="44.50323" lon="-0.28392">
        <ele>78.4</ele>
        <time>2020-09-08T14:58:47Z</time>
      </trkpt>
      <trkpt lat="44.50324" lon="-0.2839">
        <ele>78.3</ele>
        <time>2020-09-08T14:58:48Z</time>
      </trkpt>
      <trkpt lat="44.50325" lon="-0.28388">
        <ele>78.3</ele>
        <time>2020-09-08T14:58:49Z</time>
      </trkpt>
      <trkpt lat="44.50325" lon="-0.28386">
        <ele>78.3</ele>
        <time>2020-09-08T14:58:50Z</time>
      </trkpt>
      <trkpt lat="44.50328" lon="-0.28383">
        <ele>78.2</ele>
        <time>2020-09-08T14:58:52Z</time>
      </trkpt>
      <trkpt lat="44.5033" lon="-0.28381">
        <ele>78.1</ele>
        <time>2020-09-08T14:58:54Z</time>
      </trkpt>
      <trkpt lat="44.50332" lon="-0.28379">
        <ele>78.1</ele>
        <time>2020-09-08T14:58:56Z</time>
      </trkpt>
      <trkpt lat="44.50333" lon="-0.28378">
        <ele>78</ele>
        <time>2020-09-08T14:58:57Z</time>
      </trkpt>
      <trkpt lat="44.50335" lon="-0.28377">
        <ele>78</ele>
        <time>2020-09-08T14:58:58Z</time>
      </trkpt>
      <trkpt lat="44.50336" lon="-0.28377">
        <ele>78</ele>
        <time>2020-09-08T14:58:59Z</time>
      </trkpt>
      <trkpt lat="44.50337" lon="-0.28377">
        <ele>77.9</ele>
        <time>2020-09-08T14:59:00Z</time>
      </trkpt>
      <trkpt lat="44.50338" lon="-0.28377">
        <ele>77.9</ele>
        <time>2020-09-08T14:59:01Z</time>
      </trkpt>
      <trkpt lat="44.50339" lon="-0.28377">
        <ele>77.9</ele>
        <time>2020-09-08T14:59:02Z</time>
      </trkpt>
      <trkpt lat="44.5034" lon="-0.28377">
        <ele>77.8</ele>
        <time>2020-09-08T14:59:04Z</time>
      </trkpt>
      <trkpt lat="44.50342" lon="-0.28377">
        <ele>77.8</ele>
        <time>2020-09-08T14:59:05Z</time>
      </trkpt>
      <trkpt lat="44.50343" lon="-0.28377">
        <ele>77.7</ele>
        <time>2020-09-08T14:59:06Z</time>
      </trkpt>
      <trkpt lat="44.50345" lon="-0.28378">
        <ele>77.7</ele>
        <time>2020-09-08T14:59:07Z</time>
      </trkpt>
      <trkpt lat="44.50347" lon="-0.28379">
        <ele>77.7</ele>
        <time>2020-09-08T14:59:09Z</time>
      </trkpt>
      <trkpt lat="44.50348" lon="-0.28379">
        <ele>77.7</ele>
        <time>2020-09-08T14:59:10Z</time>
      </trkpt>
      <trkpt lat="44.5035" lon="-0.28379">
        <ele>77.6</ele>
        <time>2020-09-08T14:59:11Z</time>
      </trkpt>
      <trkpt lat="44.50352" lon="-0.28379">
        <ele>77.5</ele>
        <time>2020-09-08T14:59:12Z</time>
      </trkpt>
      <trkpt lat="44.50353" lon="-0.28378">
        <ele>77.5</ele>
        <time>2020-09-08T14:59:13Z</time>
      </trkpt>
      <trkpt lat="44.50355" lon="-0.28378">
        <ele>77.5</ele>
        <time>2020-09-08T14:59:14Z</time>
      </trkpt>
      <trkpt lat="44.50356" lon="-0.28378">
        <ele>77.5</ele>
        <time>2020-09-08T14:59:15Z</time>
      </trkpt>
      <trkpt lat="44.50357" lon="-0.28378">
        <ele>77.5</ele>
        <time>2020-09-08T14:59:16Z</time>
      </trkpt>
      <trkpt lat="44.50359" lon="-0.28377">
        <ele>77.4</ele>
        <time>2020-09-08T14:59:18Z</time>
      </trkpt>
      <trkpt lat="44.5036" lon="-0.28377">
        <ele>77.4</ele>
        <time>2020-09-08T14:59:20Z</time>
      </trkpt>
      <trkpt lat="44.50361" lon="-0.28377">
        <ele>77.3</ele>
        <time>2020-09-08T14:59:21Z</time>
      </trkpt>
      <trkpt lat="44.50362" lon="-0.28376">
        <ele>77.3</ele>
        <time>2020-09-08T14:59:22Z</time>
      </trkpt>
      <trkpt lat="44.50364" lon="-0.28376">
        <ele>77.3</ele>
        <time>2020-09-08T14:59:23Z</time>
      </trkpt>
      <trkpt lat="44.50365" lon="-0.28376">
        <ele>77.2</ele>
        <time>2020-09-08T14:59:24Z</time>
      </trkpt>
      <trkpt lat="44.50366" lon="-0.28376">
        <ele>77.2</ele>
        <time>2020-09-08T14:59:25Z</time>
      </trkpt>
      <trkpt lat="44.50368" lon="-0.28376">
        <ele>77.1</ele>
        <time>2020-09-08T14:59:26Z</time>
      </trkpt>
      <trkpt lat="44.50369" lon="-0.28375">
        <ele>77.2</ele>
        <time>2020-09-08T14:59:27Z</time>
      </trkpt>
      <trkpt lat="44.5037" lon="-0.28375">
        <ele>77.1</ele>
        <time>2020-09-08T14:59:29Z</time>
      </trkpt>
      <trkpt lat="44.50371" lon="-0.28376">
        <ele>77.1</ele>
        <time>2020-09-08T14:59:30Z</time>
      </trkpt>
      <trkpt lat="44.50371" lon="-0.28376">
        <ele>77.1</ele>
        <time>2020-09-08T14:59:31Z</time>
      </trkpt>
      <trkpt lat="44.50371" lon="-0.28376">
        <ele>77.1</ele>
        <time>2020-09-08T14:59:32Z</time>
      </trkpt>
      <trkpt lat="44.50373" lon="-0.28376">
        <ele>77.1</ele>
        <time>2020-09-08T14:59:33Z</time>
      </trkpt>
      <trkpt lat="44.50374" lon="-0.28375">
        <ele>77</ele>
        <time>2020-09-08T14:59:34Z</time>
      </trkpt>
      <trkpt lat="44.50375" lon="-0.28375">
        <ele>77</ele>
        <time>2020-09-08T14:59:36Z</time>
      </trkpt>
      <trkpt lat="44.50377" lon="-0.28374">
        <ele>77</ele>
        <time>2020-09-08T14:59:38Z</time>
      </trkpt>
      <trkpt lat="44.50378" lon="-0.28373">
        <ele>77</ele>
        <time>2020-09-08T14:59:39Z</time>
      </trkpt>
      <trkpt lat="44.50379" lon="-0.28373">
        <ele>76.9</ele>
        <time>2020-09-08T14:59:40Z</time>
      </trkpt>
      <trkpt lat="44.5038" lon="-0.28372">
        <ele>76.9</ele>
        <time>2020-09-08T14:59:41Z</time>
      </trkpt>
      <trkpt lat="44.50381" lon="-0.28372">
        <ele>76.9</ele>
        <time>2020-09-08T14:59:42Z</time>
      </trkpt>
      <trkpt lat="44.50382" lon="-0.28372">
        <ele>76.9</ele>
        <time>2020-09-08T14:59:43Z</time>
      </trkpt>
      <trkpt lat="44.50383" lon="-0.28371">
        <ele>76.9</ele>
        <time>2020-09-08T14:59:44Z</time>
      </trkpt>
      <trkpt lat="44.50385" lon="-0.28371">
        <ele>76.9</ele>
        <time>2020-09-08T14:59:45Z</time>
      </trkpt>
      <trkpt lat="44.50387" lon="-0.2837">
        <ele>76.8</ele>
        <time>2020-09-08T14:59:47Z</time>
      </trkpt>
      <trkpt lat="44.50388" lon="-0.2837">
        <ele>76.8</ele>
        <time>2020-09-08T14:59:48Z</time>
      </trkpt>
      <trkpt lat="44.50389" lon="-0.2837">
        <ele>76.7</ele>
        <time>2020-09-08T14:59:49Z</time>
      </trkpt>
      <trkpt lat="44.50391" lon="-0.28369">
        <ele>76.7</ele>
        <time>2020-09-08T14:59:51Z</time>
      </trkpt>
      <trkpt lat="44.50393" lon="-0.28369">
        <ele>76.6</ele>
        <time>2020-09-08T14:59:53Z</time>
      </trkpt>
      <trkpt lat="44.50394" lon="-0.28369">
        <ele>76.6</ele>
        <time>2020-09-08T14:59:54Z</time>
      </trkpt>
      <trkpt lat="44.50395" lon="-0.28369">
        <ele>76.5</ele>
        <time>2020-09-08T14:59:56Z</time>
      </trkpt>
      <trkpt lat="44.50397" lon="-0.28369">
        <ele>76.5</ele>
        <time>2020-09-08T14:59:57Z</time>
      </trkpt>
      <trkpt lat="44.50398" lon="-0.28369">
        <ele>76.4</ele>
        <time>2020-09-08T14:59:58Z</time>
      </trkpt>
      <trkpt lat="44.50399" lon="-0.28369">
        <ele>76.4</ele>
        <time>2020-09-08T15:00:00Z</time>
      </trkpt>
      <trkpt lat="44.504" lon="-0.28368">
        <ele>76.4</ele>
        <time>2020-09-08T15:00:01Z</time>
      </trkpt>
      <trkpt lat="44.50402" lon="-0.28368">
        <ele>76.3</ele>
        <time>2020-09-08T15:00:02Z</time>
      </trkpt>
      <trkpt lat="44.50403" lon="-0.28368">
        <ele>76.3</ele>
        <time>2020-09-08T15:00:03Z</time>
      </trkpt>
      <trkpt lat="44.50404" lon="-0.28368">
        <ele>76.2</ele>
        <time>2020-09-08T15:00:04Z</time>
      </trkpt>
      <trkpt lat="44.50406" lon="-0.28367">
        <ele>76.2</ele>
        <time>2020-09-08T15:00:05Z</time>
      </trkpt>
      <trkpt lat="44.50407" lon="-0.28367">
        <ele>76.1</ele>
        <time>2020-09-08T15:00:06Z</time>
      </trkpt>
      <trkpt lat="44.50408" lon="-0.28367">
        <ele>76.1</ele>
        <time>2020-09-08T15:00:07Z</time>
      </trkpt>
      <trkpt lat="44.50409" lon="-0.28367">
        <ele>76.2</ele>
        <time>2020-09-08T15:00:08Z</time>
      </trkpt>
      <trkpt lat="44.50411" lon="-0.28367">
        <ele>76.1</ele>
        <time>2020-09-08T15:00:09Z</time>
      </trkpt>
      <trkpt lat="44.50413" lon="-0.28366">
        <ele>76</ele>
        <time>2020-09-08T15:00:10Z</time>
      </trkpt>
      <trkpt lat="44.50413" lon="-0.28366">
        <ele>76</ele>
        <time>2020-09-08T15:00:11Z</time>
      </trkpt>
      <trkpt lat="44.50414" lon="-0.28366">
        <ele>76</ele>
        <time>2020-09-08T15:00:12Z</time>
      </trkpt>
      <trkpt lat="44.50417" lon="-0.28365">
        <ele>75.9</ele>
        <time>2020-09-08T15:00:14Z</time>
      </trkpt>
      <trkpt lat="44.5042" lon="-0.28364">
        <ele>75.7</ele>
        <time>2020-09-08T15:00:15Z</time>
      </trkpt>
      <trkpt lat="44.50424" lon="-0.28363">
        <ele>75.6</ele>
        <time>2020-09-08T15:00:17Z</time>
      </trkpt>
      <trkpt lat="44.50425" lon="-0.28363">
        <ele>75.5</ele>
        <time>2020-09-08T15:00:18Z</time>
      </trkpt>
      <trkpt lat="44.50426" lon="-0.28362">
        <ele>75.5</ele>
        <time>2020-09-08T15:00:19Z</time>
      </trkpt>
      <trkpt lat="44.50427" lon="-0.28362">
        <ele>75.5</ele>
        <time>2020-09-08T15:00:20Z</time>
      </trkpt>
      <trkpt lat="44.50428" lon="-0.28362">
        <ele>75.5</ele>
        <time>2020-09-08T15:00:21Z</time>
      </trkpt>
      <trkpt lat="44.50429" lon="-0.28362">
        <ele>75.4</ele>
        <time>2020-09-08T15:00:22Z</time>
      </trkpt>
      <trkpt lat="44.5043" lon="-0.28361">
        <ele>75.4</ele>
        <time>2020-09-08T15:00:23Z</time>
      </trkpt>
      <trkpt lat="44.50431" lon="-0.28361">
        <ele>75.3</ele>
        <time>2020-09-08T15:00:24Z</time>
      </trkpt>
      <trkpt lat="44.50433" lon="-0.2836">
        <ele>75.3</ele>
        <time>2020-09-08T15:00:26Z</time>
      </trkpt>
      <trkpt lat="44.50434" lon="-0.2836">
        <ele>75.3</ele>
        <time>2020-09-08T15:00:27Z</time>
      </trkpt>
      <trkpt lat="44.50435" lon="-0.28359">
        <ele>75</ele>
        <time>2020-09-08T15:00:28Z</time>
      </trkpt>
      <trkpt lat="44.50436" lon="-0.28359">
        <ele>75</ele>
        <time>2020-09-08T15:00:29Z</time>
      </trkpt>
      <trkpt lat="44.50437" lon="-0.28359">
        <ele>74.9</ele>
        <time>2020-09-08T15:00:31Z</time>
      </trkpt>
      <trkpt lat="44.50439" lon="-0.28359">
        <ele>74.9</ele>
        <time>2020-09-08T15:00:32Z</time>
      </trkpt>
      <trkpt lat="44.50441" lon="-0.28358">
        <ele>74.8</ele>
        <time>2020-09-08T15:00:33Z</time>
      </trkpt>
      <trkpt lat="44.50442" lon="-0.28358">
        <ele>74.8</ele>
        <time>2020-09-08T15:00:34Z</time>
      </trkpt>
      <trkpt lat="44.50443" lon="-0.28358">
        <ele>74.8</ele>
        <time>2020-09-08T15:00:35Z</time>
      </trkpt>
      <trkpt lat="44.50444" lon="-0.28358">
        <ele>74.6</ele>
        <time>2020-09-08T15:00:36Z</time>
      </trkpt>
      <trkpt lat="44.50445" lon="-0.28357">
        <ele>74.6</ele>
        <time>2020-09-08T15:00:37Z</time>
      </trkpt>
      <trkpt lat="44.50447" lon="-0.28356">
        <ele>74.5</ele>
        <time>2020-09-08T15:00:39Z</time>
      </trkpt>
      <trkpt lat="44.50447" lon="-0.28356">
        <ele>74.5</ele>
        <time>2020-09-08T15:00:40Z</time>
      </trkpt>
      <trkpt lat="44.50449" lon="-0.28356">
        <ele>74.5</ele>
        <time>2020-09-08T15:00:41Z</time>
      </trkpt>
      <trkpt lat="44.50452" lon="-0.28355">
        <ele>74.3</ele>
        <time>2020-09-08T15:00:43Z</time>
      </trkpt>
      <trkpt lat="44.50453" lon="-0.28354">
        <ele>74.2</ele>
        <time>2020-09-08T15:00:44Z</time>
      </trkpt>
      <trkpt lat="44.50455" lon="-0.28353">
        <ele>74.2</ele>
        <time>2020-09-08T15:00:45Z</time>
      </trkpt>
      <trkpt lat="44.50456" lon="-0.28352">
        <ele>74.1</ele>
        <time>2020-09-08T15:00:46Z</time>
      </trkpt>
      <trkpt lat="44.50457" lon="-0.28351">
        <ele>74.1</ele>
        <time>2020-09-08T15:00:48Z</time>
      </trkpt>
      <trkpt lat="44.50458" lon="-0.2835">
        <ele>74.1</ele>
        <time>2020-09-08T15:00:49Z</time>
      </trkpt>
      <trkpt lat="44.5046" lon="-0.2835">
        <ele>74</ele>
        <time>2020-09-08T15:00:50Z</time>
      </trkpt>
      <trkpt lat="44.50463" lon="-0.28348">
        <ele>73.8</ele>
        <time>2020-09-08T15:00:51Z</time>
      </trkpt>
      <trkpt lat="44.50464" lon="-0.28347">
        <ele>73.8</ele>
        <time>2020-09-08T15:00:52Z</time>
      </trkpt>
      <trkpt lat="44.50465" lon="-0.28347">
        <ele>73.7</ele>
        <time>2020-09-08T15:00:53Z</time>
      </trkpt>
      <trkpt lat="44.50466" lon="-0.28346">
        <ele>73.7</ele>
        <time>2020-09-08T15:00:54Z</time>
      </trkpt>
      <trkpt lat="44.50467" lon="-0.28346">
        <ele>73.7</ele>
        <time>2020-09-08T15:00:55Z</time>
      </trkpt>
      <trkpt lat="44.50468" lon="-0.28345">
        <ele>73.6</ele>
        <time>2020-09-08T15:00:56Z</time>
      </trkpt>
      <trkpt lat="44.50469" lon="-0.28344">
        <ele>73.6</ele>
        <time>2020-09-08T15:00:57Z</time>
      </trkpt>
      <trkpt lat="44.50472" lon="-0.28344">
        <ele>73.4</ele>
        <time>2020-09-08T15:00:59Z</time>
      </trkpt>
      <trkpt lat="44.50473" lon="-0.28343">
        <ele>73.4</ele>
        <time>2020-09-08T15:01:00Z</time>
      </trkpt>
      <trkpt lat="44.50475" lon="-0.28343">
        <ele>73.3</ele>
        <time>2020-09-08T15:01:02Z</time>
      </trkpt>
      <trkpt lat="44.50476" lon="-0.28342">
        <ele>73.3</ele>
        <time>2020-09-08T15:01:03Z</time>
      </trkpt>
      <trkpt lat="44.50478" lon="-0.28341">
        <ele>73.2</ele>
        <time>2020-09-08T15:01:04Z</time>
      </trkpt>
      <trkpt lat="44.5048" lon="-0.28341">
        <ele>73.2</ele>
        <time>2020-09-08T15:01:05Z</time>
      </trkpt>
      <trkpt lat="44.50481" lon="-0.2834">
        <ele>73.1</ele>
        <time>2020-09-08T15:01:06Z</time>
      </trkpt>
      <trkpt lat="44.50482" lon="-0.2834">
        <ele>73.1</ele>
        <time>2020-09-08T15:01:07Z</time>
      </trkpt>
      <trkpt lat="44.50483" lon="-0.28339">
        <ele>73.1</ele>
        <time>2020-09-08T15:01:08Z</time>
      </trkpt>
      <trkpt lat="44.50484" lon="-0.28339">
        <ele>73.1</ele>
        <time>2020-09-08T15:01:09Z</time>
      </trkpt>
      <trkpt lat="44.50485" lon="-0.28339">
        <ele>73.1</ele>
        <time>2020-09-08T15:01:10Z</time>
      </trkpt>
      <trkpt lat="44.50487" lon="-0.28338">
        <ele>73</ele>
        <time>2020-09-08T15:01:12Z</time>
      </trkpt>
      <trkpt lat="44.50488" lon="-0.28337">
        <ele>73</ele>
        <time>2020-09-08T15:01:13Z</time>
      </trkpt>
      <trkpt lat="44.50489" lon="-0.28336">
        <ele>72.9</ele>
        <time>2020-09-08T15:01:15Z</time>
      </trkpt>
      <trkpt lat="44.5049" lon="-0.28336">
        <ele>72.9</ele>
        <time>2020-09-08T15:01:16Z</time>
      </trkpt>
      <trkpt lat="44.50492" lon="-0.28336">
        <ele>72.9</ele>
        <time>2020-09-08T15:01:18Z</time>
      </trkpt>
      <trkpt lat="44.50493" lon="-0.28336">
        <ele>72.9</ele>
        <time>2020-09-08T15:01:19Z</time>
      </trkpt>
      <trkpt lat="44.50494" lon="-0.28335">
        <ele>72.9</ele>
        <time>2020-09-08T15:01:20Z</time>
      </trkpt>
      <trkpt lat="44.50495" lon="-0.28335">
        <ele>72.9</ele>
        <time>2020-09-08T15:01:21Z</time>
      </trkpt>
      <trkpt lat="44.50496" lon="-0.28335">
        <ele>72.8</ele>
        <time>2020-09-08T15:01:22Z</time>
      </trkpt>
      <trkpt lat="44.50497" lon="-0.28334">
        <ele>72.8</ele>
        <time>2020-09-08T15:01:23Z</time>
      </trkpt>
      <trkpt lat="44.50498" lon="-0.28333">
        <ele>72.7</ele>
        <time>2020-09-08T15:01:25Z</time>
      </trkpt>
      <trkpt lat="44.505" lon="-0.28333">
        <ele>72.8</ele>
        <time>2020-09-08T15:01:26Z</time>
      </trkpt>
      <trkpt lat="44.50501" lon="-0.28332">
        <ele>72.8</ele>
        <time>2020-09-08T15:01:27Z</time>
      </trkpt>
      <trkpt lat="44.50502" lon="-0.28332">
        <ele>72.7</ele>
        <time>2020-09-08T15:01:28Z</time>
      </trkpt>
      <trkpt lat="44.50503" lon="-0.28331">
        <ele>72.7</ele>
        <time>2020-09-08T15:01:30Z</time>
      </trkpt>
      <trkpt lat="44.50504" lon="-0.28331">
        <ele>72.7</ele>
        <time>2020-09-08T15:01:31Z</time>
      </trkpt>
      <trkpt lat="44.50505" lon="-0.2833">
        <ele>72.7</ele>
        <time>2020-09-08T15:01:32Z</time>
      </trkpt>
      <trkpt lat="44.50506" lon="-0.28329">
        <ele>72.7</ele>
        <time>2020-09-08T15:01:33Z</time>
      </trkpt>
      <trkpt lat="44.50506" lon="-0.28328">
        <ele>72.7</ele>
        <time>2020-09-08T15:01:34Z</time>
      </trkpt>
      <trkpt lat="44.50507" lon="-0.28326">
        <ele>72.7</ele>
        <time>2020-09-08T15:01:35Z</time>
      </trkpt>
      <trkpt lat="44.50508" lon="-0.28324">
        <ele>72.7</ele>
        <time>2020-09-08T15:01:37Z</time>
      </trkpt>
      <trkpt lat="44.50509" lon="-0.28322">
        <ele>72.7</ele>
        <time>2020-09-08T15:01:38Z</time>
      </trkpt>
      <trkpt lat="44.5051" lon="-0.28321">
        <ele>72.7</ele>
        <time>2020-09-08T15:01:39Z</time>
      </trkpt>
      <trkpt lat="44.50512" lon="-0.2832">
        <ele>72.6</ele>
        <time>2020-09-08T15:01:41Z</time>
      </trkpt>
      <trkpt lat="44.50512" lon="-0.2832">
        <ele>72.6</ele>
        <time>2020-09-08T15:01:42Z</time>
      </trkpt>
      <trkpt lat="44.50513" lon="-0.2832">
        <ele>72.6</ele>
        <time>2020-09-08T15:01:43Z</time>
      </trkpt>
      <trkpt lat="44.50514" lon="-0.28319">
        <ele>72.6</ele>
        <time>2020-09-08T15:01:44Z</time>
      </trkpt>
      <trkpt lat="44.50515" lon="-0.28318">
        <ele>72.6</ele>
        <time>2020-09-08T15:01:46Z</time>
      </trkpt>
      <trkpt lat="44.50516" lon="-0.28319">
        <ele>72.6</ele>
        <time>2020-09-08T15:01:47Z</time>
      </trkpt>
      <trkpt lat="44.50517" lon="-0.28319">
        <ele>72.6</ele>
        <time>2020-09-08T15:01:48Z</time>
      </trkpt>
      <trkpt lat="44.50517" lon="-0.2832">
        <ele>72.6</ele>
        <time>2020-09-08T15:01:50Z</time>
      </trkpt>
      <trkpt lat="44.50516" lon="-0.2832">
        <ele>72.6</ele>
        <time>2020-09-08T15:01:51Z</time>
      </trkpt>
      <trkpt lat="44.50515" lon="-0.28322">
        <ele>72.6</ele>
        <time>2020-09-08T15:01:53Z</time>
      </trkpt>
      <trkpt lat="44.50514" lon="-0.28322">
        <ele>72.6</ele>
        <time>2020-09-08T15:01:55Z</time>
      </trkpt>
      <trkpt lat="44.50513" lon="-0.28323">
        <ele>72.6</ele>
        <time>2020-09-08T15:01:57Z</time>
      </trkpt>
      <trkpt lat="44.50513" lon="-0.28323">
        <ele>72.6</ele>
        <time>2020-09-08T15:01:58Z</time>
      </trkpt>
      <trkpt lat="44.50512" lon="-0.28323">
        <ele>72.6</ele>
        <time>2020-09-08T15:01:59Z</time>
      </trkpt>
      <trkpt lat="44.50512" lon="-0.28323">
        <ele>72.6</ele>
        <time>2020-09-08T15:02:00Z</time>
      </trkpt>
      <trkpt lat="44.50509" lon="-0.28323">
        <ele>72.7</ele>
        <time>2020-09-08T15:02:02Z</time>
      </trkpt>
      <trkpt lat="44.50508" lon="-0.28323">
        <ele>72.7</ele>
        <time>2020-09-08T15:02:04Z</time>
      </trkpt>
      <trkpt lat="44.50508" lon="-0.28324">
        <ele>72.7</ele>
        <time>2020-09-08T15:02:06Z</time>
      </trkpt>
      <trkpt lat="44.50508" lon="-0.28324">
        <ele>72.7</ele>
        <time>2020-09-08T15:02:08Z</time>
      </trkpt>
      <trkpt lat="44.50508" lon="-0.28324">
        <ele>72.7</ele>
        <time>2020-09-08T15:02:09Z</time>
      </trkpt>
      <trkpt lat="44.50508" lon="-0.28324">
        <ele>72.7</ele>
        <time>2020-09-08T15:02:10Z</time>
      </trkpt>
      <trkpt lat="44.50508" lon="-0.28324">
        <ele>72.7</ele>
        <time>2020-09-08T15:02:12Z</time>
      </trkpt>
      <trkpt lat="44.50507" lon="-0.28324">
        <ele>72.7</ele>
        <time>2020-09-08T15:02:13Z</time>
      </trkpt>
      <trkpt lat="44.50508" lon="-0.28324">
        <ele>72.7</ele>
        <time>2020-09-08T15:02:14Z</time>
      </trkpt>
      <trkpt lat="44.50508" lon="-0.28324">
        <ele>72.7</ele>
        <time>2020-09-08T15:02:16Z</time>
      </trkpt>
      <trkpt lat="44.50507" lon="-0.28324">
        <ele>72.7</ele>
        <time>2020-09-08T15:02:17Z</time>
      </trkpt>
      <trkpt lat="44.50507" lon="-0.28324">
        <ele>72.7</ele>
        <time>2020-09-08T15:02:18Z</time>
      </trkpt>
      <trkpt lat="44.50507" lon="-0.28324">
        <ele>72.7</ele>
        <time>2020-09-08T15:02:19Z</time>
      </trkpt>
      <trkpt lat="44.50507" lon="-0.28324">
        <ele>72.7</ele>
        <time>2020-09-08T15:02:20Z</time>
      </trkpt>
      <trkpt lat="44.50507" lon="-0.28324">
        <ele>72.7</ele>
        <time>2020-09-08T15:02:21Z</time>
      </trkpt>
      <trkpt lat="44.50507" lon="-0.28323">
        <ele>72.7</ele>
        <time>2020-09-08T15:02:23Z</time>
      </trkpt>
      <trkpt lat="44.50507" lon="-0.28323">
        <ele>72.7</ele>
        <time>2020-09-08T15:02:24Z</time>
      </trkpt>
      <trkpt lat="44.50507" lon="-0.28323">
        <ele>72.7</ele>
        <time>2020-09-08T15:02:25Z</time>
      </trkpt>
      <trkpt lat="44.50507" lon="-0.28323">
        <ele>72.7</ele>
        <time>2020-09-08T15:02:26Z</time>
      </trkpt>
      <trkpt lat="44.50507" lon="-0.28323">
        <ele>72.7</ele>
        <time>2020-09-08T15:02:28Z</time>
      </trkpt>
      <trkpt lat="44.50507" lon="-0.28323">
        <ele>72.7</ele>
        <time>2020-09-08T15:02:29Z</time>
      </trkpt>
      <trkpt lat="44.50507" lon="-0.28323">
        <ele>72.7</ele>
        <time>2020-09-08T15:02:30Z</time>
      </trkpt>
      <trkpt lat="44.50507" lon="-0.28323">
        <ele>72.7</ele>
        <time>2020-09-08T15:02:31Z</time>
      </trkpt>
      <trkpt lat="44.50507" lon="-0.28323">
        <ele>72.7</ele>
        <time>2020-09-08T15:02:33Z</time>
      </trkpt>
      <trkpt lat="44.50507" lon="-0.28323">
        <ele>72.7</ele>
        <time>2020-09-08T15:02:34Z</time>
      </trkpt>
      <trkpt lat="44.50507" lon="-0.28323">
        <ele>72.7</ele>
        <time>2020-09-08T15:02:36Z</time>
      </trkpt>
      <trkpt lat="44.50507" lon="-0.28323">
        <ele>72.7</ele>
        <time>2020-09-08T15:02:37Z</time>
      </trkpt>
      <trkpt lat="44.5051" lon="-0.28323">
        <ele>72.7</ele>
        <time>2020-09-08T15:02:39Z</time>
      </trkpt>
      <trkpt lat="44.5051" lon="-0.28322">
        <ele>72.7</ele>
        <time>2020-09-08T15:02:41Z</time>
      </trkpt>
      <trkpt lat="44.5051" lon="-0.28321">
        <ele>72.7</ele>
        <time>2020-09-08T15:02:43Z</time>
      </trkpt>
      <trkpt lat="44.50511" lon="-0.2832">
        <ele>72.7</ele>
        <time>2020-09-08T15:02:44Z</time>
      </trkpt>
      <trkpt lat="44.50511" lon="-0.2832">
        <ele>72.6</ele>
        <time>2020-09-08T15:02:46Z</time>
      </trkpt>
      <trkpt lat="44.50511" lon="-0.2832">
        <ele>72.6</ele>
        <time>2020-09-08T15:02:47Z</time>
      </trkpt>
      <trkpt lat="44.50511" lon="-0.2832">
        <ele>72.6</ele>
        <time>2020-09-08T15:02:49Z</time>
      </trkpt>
      <trkpt lat="44.50512" lon="-0.28321">
        <ele>72.6</ele>
        <time>2020-09-08T15:02:51Z</time>
      </trkpt>
      <trkpt lat="44.50512" lon="-0.28321">
        <ele>72.6</ele>
        <time>2020-09-08T15:02:52Z</time>
      </trkpt>
      <trkpt lat="44.50512" lon="-0.28322">
        <ele>72.6</ele>
        <time>2020-09-08T15:02:54Z</time>
      </trkpt>
      <trkpt lat="44.50512" lon="-0.28322">
        <ele>72.6</ele>
        <time>2020-09-08T15:02:55Z</time>
      </trkpt>
      <trkpt lat="44.50512" lon="-0.28322">
        <ele>72.6</ele>
        <time>2020-09-08T15:02:56Z</time>
      </trkpt>
      <trkpt lat="44.50512" lon="-0.28322">
        <ele>72.6</ele>
        <time>2020-09-08T15:02:57Z</time>
      </trkpt>
      <trkpt lat="44.50512" lon="-0.28322">
        <ele>72.6</ele>
        <time>2020-09-08T15:02:59Z</time>
      </trkpt>
      <trkpt lat="44.50512" lon="-0.28322">
        <ele>72.6</ele>
        <time>2020-09-08T15:03:01Z</time>
      </trkpt>
      <trkpt lat="44.50512" lon="-0.28322">
        <ele>72.6</ele>
        <time>2020-09-08T15:03:03Z</time>
      </trkpt>
      <trkpt lat="44.50512" lon="-0.28321">
        <ele>72.6</ele>
        <time>2020-09-08T15:03:04Z</time>
      </trkpt>
      <trkpt lat="44.50512" lon="-0.2832">
        <ele>72.6</ele>
        <time>2020-09-08T15:03:06Z</time>
      </trkpt>
      <trkpt lat="44.50512" lon="-0.28319">
        <ele>72.6</ele>
        <time>2020-09-08T15:03:08Z</time>
      </trkpt>
      <trkpt lat="44.50511" lon="-0.28319">
        <ele>72.6</ele>
        <time>2020-09-08T15:03:09Z</time>
      </trkpt>
      <trkpt lat="44.50511" lon="-0.28319">
        <ele>72.7</ele>
        <time>2020-09-08T15:03:10Z</time>
      </trkpt>
      <trkpt lat="44.50511" lon="-0.2832">
        <ele>72.7</ele>
        <time>2020-09-08T15:03:11Z</time>
      </trkpt>
      <trkpt lat="44.50511" lon="-0.2832">
        <ele>72.6</ele>
        <time>2020-09-08T15:03:13Z</time>
      </trkpt>
      <trkpt lat="44.50511" lon="-0.28319">
        <ele>72.6</ele>
        <time>2020-09-08T15:03:14Z</time>
      </trkpt>
      <trkpt lat="44.50512" lon="-0.2832">
        <ele>72.6</ele>
        <time>2020-09-08T15:03:15Z</time>
      </trkpt>
      <trkpt lat="44.50512" lon="-0.2832">
        <ele>72.6</ele>
        <time>2020-09-08T15:03:16Z</time>
      </trkpt>
      <trkpt lat="44.50515" lon="-0.2832">
        <ele>72.6</ele>
        <time>2020-09-08T15:03:18Z</time>
      </trkpt>
      <trkpt lat="44.50516" lon="-0.28321">
        <ele>72.6</ele>
        <time>2020-09-08T15:03:19Z</time>
      </trkpt>
      <trkpt lat="44.50517" lon="-0.28323">
        <ele>72.6</ele>
        <time>2020-09-08T15:03:20Z</time>
      </trkpt>
      <trkpt lat="44.50519" lon="-0.28325">
        <ele>72.6</ele>
        <time>2020-09-08T15:03:21Z</time>
      </trkpt>
      <trkpt lat="44.50521" lon="-0.28326">
        <ele>72.6</ele>
        <time>2020-09-08T15:03:22Z</time>
      </trkpt>
      <trkpt lat="44.50525" lon="-0.28327">
        <ele>72.6</ele>
        <time>2020-09-08T15:03:24Z</time>
      </trkpt>
      <trkpt lat="44.50527" lon="-0.28327">
        <ele>72.6</ele>
        <time>2020-09-08T15:03:25Z</time>
      </trkpt>
      <trkpt lat="44.50528" lon="-0.28327">
        <ele>72.6</ele>
        <time>2020-09-08T15:03:26Z</time>
      </trkpt>
      <trkpt lat="44.50531" lon="-0.28327">
        <ele>72.6</ele>
        <time>2020-09-08T15:03:28Z</time>
      </trkpt>
      <trkpt lat="44.50532" lon="-0.28327">
        <ele>72.6</ele>
        <time>2020-09-08T15:03:29Z</time>
      </trkpt>
      <trkpt lat="44.50534" lon="-0.28326">
        <ele>72.6</ele>
        <time>2020-09-08T15:03:30Z</time>
      </trkpt>
      <trkpt lat="44.50535" lon="-0.28326">
        <ele>72.6</ele>
        <time>2020-09-08T15:03:31Z</time>
      </trkpt>
      <trkpt lat="44.50535" lon="-0.28326">
        <ele>72.6</ele>
        <time>2020-09-08T15:03:32Z</time>
      </trkpt>
      <trkpt lat="44.50538" lon="-0.28325">
        <ele>72.6</ele>
        <time>2020-09-08T15:03:34Z</time>
      </trkpt>
      <trkpt lat="44.50539" lon="-0.28324">
        <ele>72.6</ele>
        <time>2020-09-08T15:03:35Z</time>
      </trkpt>
      <trkpt lat="44.50541" lon="-0.28323">
        <ele>72.6</ele>
        <time>2020-09-08T15:03:36Z</time>
      </trkpt>
      <trkpt lat="44.50542" lon="-0.28323">
        <ele>72.6</ele>
        <time>2020-09-08T15:03:37Z</time>
      </trkpt>
      <trkpt lat="44.50543" lon="-0.28322">
        <ele>72.6</ele>
        <time>2020-09-08T15:03:38Z</time>
      </trkpt>
      <trkpt lat="44.50544" lon="-0.28321">
        <ele>72.7</ele>
        <time>2020-09-08T15:03:39Z</time>
      </trkpt>
      <trkpt lat="44.50546" lon="-0.28321">
        <ele>72.7</ele>
        <time>2020-09-08T15:03:40Z</time>
      </trkpt>
      <trkpt lat="44.50547" lon="-0.2832">
        <ele>72.7</ele>
        <time>2020-09-08T15:03:41Z</time>
      </trkpt>
      <trkpt lat="44.50549" lon="-0.28319">
        <ele>72.7</ele>
        <time>2020-09-08T15:03:42Z</time>
      </trkpt>
      <trkpt lat="44.50551" lon="-0.28319">
        <ele>72.7</ele>
        <time>2020-09-08T15:03:43Z</time>
      </trkpt>
      <trkpt lat="44.50552" lon="-0.28318">
        <ele>72.7</ele>
        <time>2020-09-08T15:03:44Z</time>
      </trkpt>
      <trkpt lat="44.50556" lon="-0.28316">
        <ele>72.7</ele>
        <time>2020-09-08T15:03:46Z</time>
      </trkpt>
      <trkpt lat="44.50557" lon="-0.28315">
        <ele>72.7</ele>
        <time>2020-09-08T15:03:47Z</time>
      </trkpt>
      <trkpt lat="44.50558" lon="-0.28315">
        <ele>72.7</ele>
        <time>2020-09-08T15:03:49Z</time>
      </trkpt>
      <trkpt lat="44.50559" lon="-0.28315">
        <ele>72.7</ele>
        <time>2020-09-08T15:03:50Z</time>
      </trkpt>
      <trkpt lat="44.5056" lon="-0.28314">
        <ele>72.7</ele>
        <time>2020-09-08T15:03:51Z</time>
      </trkpt>
      <trkpt lat="44.50563" lon="-0.28314">
        <ele>72.7</ele>
        <time>2020-09-08T15:03:52Z</time>
      </trkpt>
      <trkpt lat="44.50564" lon="-0.28313">
        <ele>72.7</ele>
        <time>2020-09-08T15:03:53Z</time>
      </trkpt>
      <trkpt lat="44.50567" lon="-0.28313">
        <ele>72.7</ele>
        <time>2020-09-08T15:03:55Z</time>
      </trkpt>
      <trkpt lat="44.50567" lon="-0.28313">
        <ele>72.7</ele>
        <time>2020-09-08T15:03:56Z</time>
      </trkpt>
      <trkpt lat="44.50569" lon="-0.28312">
        <ele>72.7</ele>
        <time>2020-09-08T15:03:57Z</time>
      </trkpt>
      <trkpt lat="44.5057" lon="-0.28312">
        <ele>72.7</ele>
        <time>2020-09-08T15:03:58Z</time>
      </trkpt>
      <trkpt lat="44.50571" lon="-0.28312">
        <ele>72.7</ele>
        <time>2020-09-08T15:03:59Z</time>
      </trkpt>
      <trkpt lat="44.50573" lon="-0.28312">
        <ele>72.7</ele>
        <time>2020-09-08T15:04:01Z</time>
      </trkpt>
      <trkpt lat="44.50574" lon="-0.28311">
        <ele>72.7</ele>
        <time>2020-09-08T15:04:02Z</time>
      </trkpt>
      <trkpt lat="44.50576" lon="-0.28311">
        <ele>72.8</ele>
        <time>2020-09-08T15:04:03Z</time>
      </trkpt>
      <trkpt lat="44.50577" lon="-0.28311">
        <ele>72.8</ele>
        <time>2020-09-08T15:04:04Z</time>
      </trkpt>
      <trkpt lat="44.50577" lon="-0.2831">
        <ele>72.8</ele>
        <time>2020-09-08T15:04:05Z</time>
      </trkpt>
      <trkpt lat="44.50579" lon="-0.2831">
        <ele>72.8</ele>
        <time>2020-09-08T15:04:06Z</time>
      </trkpt>
      <trkpt lat="44.50581" lon="-0.28309">
        <ele>72.8</ele>
        <time>2020-09-08T15:04:07Z</time>
      </trkpt>
      <trkpt lat="44.50582" lon="-0.28308">
        <ele>72.8</ele>
        <time>2020-09-08T15:04:08Z</time>
      </trkpt>
      <trkpt lat="44.50584" lon="-0.28308">
        <ele>72.8</ele>
        <time>2020-09-08T15:04:09Z</time>
      </trkpt>
      <trkpt lat="44.50586" lon="-0.28307">
        <ele>72.8</ele>
        <time>2020-09-08T15:04:11Z</time>
      </trkpt>
      <trkpt lat="44.50587" lon="-0.28307">
        <ele>72.8</ele>
        <time>2020-09-08T15:04:12Z</time>
      </trkpt>
      <trkpt lat="44.50588" lon="-0.28306">
        <ele>72.9</ele>
        <time>2020-09-08T15:04:13Z</time>
      </trkpt>
      <trkpt lat="44.50589" lon="-0.28306">
        <ele>72.9</ele>
        <time>2020-09-08T15:04:15Z</time>
      </trkpt>
      <trkpt lat="44.50591" lon="-0.28305">
        <ele>72.9</ele>
        <time>2020-09-08T15:04:16Z</time>
      </trkpt>
      <trkpt lat="44.50593" lon="-0.28304">
        <ele>72.9</ele>
        <time>2020-09-08T15:04:17Z</time>
      </trkpt>
      <trkpt lat="44.50594" lon="-0.28304">
        <ele>72.9</ele>
        <time>2020-09-08T15:04:18Z</time>
      </trkpt>
      <trkpt lat="44.50596" lon="-0.28304">
        <ele>72.9</ele>
        <time>2020-09-08T15:04:19Z</time>
      </trkpt>
      <trkpt lat="44.50597" lon="-0.28303">
        <ele>73</ele>
        <time>2020-09-08T15:04:20Z</time>
      </trkpt>
      <trkpt lat="44.50598" lon="-0.28303">
        <ele>73</ele>
        <time>2020-09-08T15:04:21Z</time>
      </trkpt>
      <trkpt lat="44.50598" lon="-0.28303">
        <ele>73</ele>
        <time>2020-09-08T15:04:22Z</time>
      </trkpt>
      <trkpt lat="44.506" lon="-0.28302">
        <ele>73</ele>
        <time>2020-09-08T15:04:23Z</time>
      </trkpt>
      <trkpt lat="44.50601" lon="-0.28302">
        <ele>73</ele>
        <time>2020-09-08T15:04:24Z</time>
      </trkpt>
      <trkpt lat="44.50603" lon="-0.28302">
        <ele>73.1</ele>
        <time>2020-09-08T15:04:26Z</time>
      </trkpt>
      <trkpt lat="44.50604" lon="-0.28301">
        <ele>73.1</ele>
        <time>2020-09-08T15:04:27Z</time>
      </trkpt>
      <trkpt lat="44.50606" lon="-0.28301">
        <ele>73.1</ele>
        <time>2020-09-08T15:04:28Z</time>
      </trkpt>
      <trkpt lat="44.50608" lon="-0.283">
        <ele>73.1</ele>
        <time>2020-09-08T15:04:29Z</time>
      </trkpt>
      <trkpt lat="44.50609" lon="-0.283">
        <ele>73.1</ele>
        <time>2020-09-08T15:04:30Z</time>
      </trkpt>
      <trkpt lat="44.50609" lon="-0.283">
        <ele>73.1</ele>
        <time>2020-09-08T15:04:31Z</time>
      </trkpt>
      <trkpt lat="44.50611" lon="-0.28301">
        <ele>73.1</ele>
        <time>2020-09-08T15:04:33Z</time>
      </trkpt>
      <trkpt lat="44.50614" lon="-0.283">
        <ele>73.2</ele>
        <time>2020-09-08T15:04:35Z</time>
      </trkpt>
      <trkpt lat="44.50616" lon="-0.283">
        <ele>73.2</ele>
        <time>2020-09-08T15:04:36Z</time>
      </trkpt>
      <trkpt lat="44.50617" lon="-0.283">
        <ele>73.2</ele>
        <time>2020-09-08T15:04:38Z</time>
      </trkpt>
      <trkpt lat="44.50618" lon="-0.283">
        <ele>73.2</ele>
        <time>2020-09-08T15:04:39Z</time>
      </trkpt>
      <trkpt lat="44.50619" lon="-0.283">
        <ele>73.2</ele>
        <time>2020-09-08T15:04:40Z</time>
      </trkpt>
      <trkpt lat="44.50619" lon="-0.283">
        <ele>73.2</ele>
        <time>2020-09-08T15:04:41Z</time>
      </trkpt>
      <trkpt lat="44.5062" lon="-0.283">
        <ele>73.2</ele>
        <time>2020-09-08T15:04:42Z</time>
      </trkpt>
      <trkpt lat="44.50622" lon="-0.283">
        <ele>73.3</ele>
        <time>2020-09-08T15:04:44Z</time>
      </trkpt>
      <trkpt lat="44.50623" lon="-0.283">
        <ele>73.3</ele>
        <time>2020-09-08T15:04:46Z</time>
      </trkpt>
      <trkpt lat="44.50625" lon="-0.28299">
        <ele>73.3</ele>
        <time>2020-09-08T15:04:47Z</time>
      </trkpt>
      <trkpt lat="44.50626" lon="-0.28299">
        <ele>73.3</ele>
        <time>2020-09-08T15:04:48Z</time>
      </trkpt>
      <trkpt lat="44.50627" lon="-0.28298">
        <ele>73.3</ele>
        <time>2020-09-08T15:04:49Z</time>
      </trkpt>
      <trkpt lat="44.50627" lon="-0.28298">
        <ele>73.3</ele>
        <time>2020-09-08T15:04:51Z</time>
      </trkpt>
      <trkpt lat="44.50629" lon="-0.28297">
        <ele>73.3</ele>
        <time>2020-09-08T15:04:52Z</time>
      </trkpt>
      <trkpt lat="44.50632" lon="-0.28297">
        <ele>73.4</ele>
        <time>2020-09-08T15:04:53Z</time>
      </trkpt>
      <trkpt lat="44.50633" lon="-0.28296">
        <ele>73.4</ele>
        <time>2020-09-08T15:04:54Z</time>
      </trkpt>
      <trkpt lat="44.50634" lon="-0.28296">
        <ele>73.4</ele>
        <time>2020-09-08T15:04:55Z</time>
      </trkpt>
      <trkpt lat="44.50636" lon="-0.28295">
        <ele>73.4</ele>
        <time>2020-09-08T15:04:57Z</time>
      </trkpt>
      <trkpt lat="44.50637" lon="-0.28295">
        <ele>73.4</ele>
        <time>2020-09-08T15:04:58Z</time>
      </trkpt>
      <trkpt lat="44.50638" lon="-0.28294">
        <ele>73.4</ele>
        <time>2020-09-08T15:04:59Z</time>
      </trkpt>
      <trkpt lat="44.50639" lon="-0.28293">
        <ele>73.4</ele>
        <time>2020-09-08T15:05:00Z</time>
      </trkpt>
      <trkpt lat="44.5064" lon="-0.28293">
        <ele>73.4</ele>
        <time>2020-09-08T15:05:01Z</time>
      </trkpt>
      <trkpt lat="44.50642" lon="-0.28293">
        <ele>73.4</ele>
        <time>2020-09-08T15:05:03Z</time>
      </trkpt>
      <trkpt lat="44.50643" lon="-0.28292">
        <ele>73.4</ele>
        <time>2020-09-08T15:05:04Z</time>
      </trkpt>
      <trkpt lat="44.50644" lon="-0.28291">
        <ele>73.4</ele>
        <time>2020-09-08T15:05:05Z</time>
      </trkpt>
      <trkpt lat="44.50645" lon="-0.28291">
        <ele>73.4</ele>
        <time>2020-09-08T15:05:06Z</time>
      </trkpt>
      <trkpt lat="44.50646" lon="-0.2829">
        <ele>73.4</ele>
        <time>2020-09-08T15:05:07Z</time>
      </trkpt>
      <trkpt lat="44.50647" lon="-0.28289">
        <ele>73.4</ele>
        <time>2020-09-08T15:05:08Z</time>
      </trkpt>
      <trkpt lat="44.50648" lon="-0.28288">
        <ele>73.4</ele>
        <time>2020-09-08T15:05:09Z</time>
      </trkpt>
      <trkpt lat="44.50649" lon="-0.28287">
        <ele>73.4</ele>
        <time>2020-09-08T15:05:11Z</time>
      </trkpt>
      <trkpt lat="44.5065" lon="-0.28287">
        <ele>73.4</ele>
        <time>2020-09-08T15:05:12Z</time>
      </trkpt>
      <trkpt lat="44.50651" lon="-0.28286">
        <ele>73.4</ele>
        <time>2020-09-08T15:05:13Z</time>
      </trkpt>
      <trkpt lat="44.50652" lon="-0.28285">
        <ele>73.4</ele>
        <time>2020-09-08T15:05:14Z</time>
      </trkpt>
      <trkpt lat="44.50654" lon="-0.28285">
        <ele>73.4</ele>
        <time>2020-09-08T15:05:15Z</time>
      </trkpt>
      <trkpt lat="44.50655" lon="-0.28285">
        <ele>73.4</ele>
        <time>2020-09-08T15:05:16Z</time>
      </trkpt>
      <trkpt lat="44.50656" lon="-0.28284">
        <ele>73.4</ele>
        <time>2020-09-08T15:05:17Z</time>
      </trkpt>
      <trkpt lat="44.50657" lon="-0.28283">
        <ele>73.4</ele>
        <time>2020-09-08T15:05:18Z</time>
      </trkpt>
      <trkpt lat="44.50658" lon="-0.28283">
        <ele>73.4</ele>
        <time>2020-09-08T15:05:20Z</time>
      </trkpt>
      <trkpt lat="44.50659" lon="-0.28282">
        <ele>73.4</ele>
        <time>2020-09-08T15:05:21Z</time>
      </trkpt>
      <trkpt lat="44.5066" lon="-0.28282">
        <ele>73.4</ele>
        <time>2020-09-08T15:05:22Z</time>
      </trkpt>
      <trkpt lat="44.50661" lon="-0.28281">
        <ele>73.3</ele>
        <time>2020-09-08T15:05:23Z</time>
      </trkpt>
      <trkpt lat="44.50662" lon="-0.28281">
        <ele>73.4</ele>
        <time>2020-09-08T15:05:24Z</time>
      </trkpt>
      <trkpt lat="44.50663" lon="-0.28281">
        <ele>73.4</ele>
        <time>2020-09-08T15:05:25Z</time>
      </trkpt>
      <trkpt lat="44.50664" lon="-0.2828">
        <ele>73.3</ele>
        <time>2020-09-08T15:05:26Z</time>
      </trkpt>
      <trkpt lat="44.50665" lon="-0.2828">
        <ele>73.3</ele>
        <time>2020-09-08T15:05:28Z</time>
      </trkpt>
      <trkpt lat="44.50665" lon="-0.2828">
        <ele>73.3</ele>
        <time>2020-09-08T15:05:29Z</time>
      </trkpt>
      <trkpt lat="44.50666" lon="-0.28279">
        <ele>73.3</ele>
        <time>2020-09-08T15:05:31Z</time>
      </trkpt>
      <trkpt lat="44.50668" lon="-0.28279">
        <ele>73.3</ele>
        <time>2020-09-08T15:05:32Z</time>
      </trkpt>
      <trkpt lat="44.5067" lon="-0.28278">
        <ele>73.3</ele>
        <time>2020-09-08T15:05:33Z</time>
      </trkpt>
      <trkpt lat="44.50672" lon="-0.28277">
        <ele>73.3</ele>
        <time>2020-09-08T15:05:35Z</time>
      </trkpt>
      <trkpt lat="44.50672" lon="-0.28277">
        <ele>73.3</ele>
        <time>2020-09-08T15:05:36Z</time>
      </trkpt>
      <trkpt lat="44.50675" lon="-0.28276">
        <ele>73.2</ele>
        <time>2020-09-08T15:05:38Z</time>
      </trkpt>
      <trkpt lat="44.50675" lon="-0.28276">
        <ele>73.2</ele>
        <time>2020-09-08T15:05:39Z</time>
      </trkpt>
      <trkpt lat="44.50676" lon="-0.28276">
        <ele>73.2</ele>
        <time>2020-09-08T15:05:41Z</time>
      </trkpt>
      <trkpt lat="44.50677" lon="-0.28275">
        <ele>73.2</ele>
        <time>2020-09-08T15:05:42Z</time>
      </trkpt>
      <trkpt lat="44.50679" lon="-0.28274">
        <ele>73.2</ele>
        <time>2020-09-08T15:05:43Z</time>
      </trkpt>
      <trkpt lat="44.5068" lon="-0.28274">
        <ele>73.2</ele>
        <time>2020-09-08T15:05:44Z</time>
      </trkpt>
      <trkpt lat="44.50682" lon="-0.28273">
        <ele>73.1</ele>
        <time>2020-09-08T15:05:46Z</time>
      </trkpt>
      <trkpt lat="44.50683" lon="-0.28273">
        <ele>73.1</ele>
        <time>2020-09-08T15:05:47Z</time>
      </trkpt>
      <trkpt lat="44.50684" lon="-0.28273">
        <ele>73.1</ele>
        <time>2020-09-08T15:05:48Z</time>
      </trkpt>
      <trkpt lat="44.50684" lon="-0.28274">
        <ele>73.1</ele>
        <time>2020-09-08T15:05:49Z</time>
      </trkpt>
      <trkpt lat="44.50686" lon="-0.28273">
        <ele>73.1</ele>
        <time>2020-09-08T15:05:51Z</time>
      </trkpt>
      <trkpt lat="44.50687" lon="-0.28273">
        <ele>73.1</ele>
        <time>2020-09-08T15:05:52Z</time>
      </trkpt>
      <trkpt lat="44.50689" lon="-0.28273">
        <ele>73</ele>
        <time>2020-09-08T15:05:53Z</time>
      </trkpt>
      <trkpt lat="44.50689" lon="-0.28274">
        <ele>73</ele>
        <time>2020-09-08T15:05:54Z</time>
      </trkpt>
      <trkpt lat="44.5069" lon="-0.28274">
        <ele>73</ele>
        <time>2020-09-08T15:05:55Z</time>
      </trkpt>
      <trkpt lat="44.50691" lon="-0.28274">
        <ele>73</ele>
        <time>2020-09-08T15:05:56Z</time>
      </trkpt>
      <trkpt lat="44.50693" lon="-0.28273">
        <ele>72.9</ele>
        <time>2020-09-08T15:05:58Z</time>
      </trkpt>
      <trkpt lat="44.50695" lon="-0.28273">
        <ele>72.9</ele>
        <time>2020-09-08T15:05:59Z</time>
      </trkpt>
      <trkpt lat="44.50696" lon="-0.28273">
        <ele>72.9</ele>
        <time>2020-09-08T15:06:00Z</time>
      </trkpt>
      <trkpt lat="44.50697" lon="-0.28272">
        <ele>72.9</ele>
        <time>2020-09-08T15:06:01Z</time>
      </trkpt>
      <trkpt lat="44.50698" lon="-0.28272">
        <ele>72.9</ele>
        <time>2020-09-08T15:06:02Z</time>
      </trkpt>
      <trkpt lat="44.507" lon="-0.28272">
        <ele>72.9</ele>
        <time>2020-09-08T15:06:03Z</time>
      </trkpt>
      <trkpt lat="44.50701" lon="-0.28272">
        <ele>72.8</ele>
        <time>2020-09-08T15:06:04Z</time>
      </trkpt>
      <trkpt lat="44.50702" lon="-0.28271">
        <ele>72.8</ele>
        <time>2020-09-08T15:06:05Z</time>
      </trkpt>
      <trkpt lat="44.50703" lon="-0.28271">
        <ele>72.8</ele>
        <time>2020-09-08T15:06:07Z</time>
      </trkpt>
      <trkpt lat="44.50704" lon="-0.28271">
        <ele>72.8</ele>
        <time>2020-09-08T15:06:08Z</time>
      </trkpt>
      <trkpt lat="44.50707" lon="-0.28271">
        <ele>72.7</ele>
        <time>2020-09-08T15:06:10Z</time>
      </trkpt>
      <trkpt lat="44.50708" lon="-0.28271">
        <ele>72.7</ele>
        <time>2020-09-08T15:06:11Z</time>
      </trkpt>
      <trkpt lat="44.50711" lon="-0.2827">
        <ele>72.6</ele>
        <time>2020-09-08T15:06:12Z</time>
      </trkpt>
      <trkpt lat="44.50712" lon="-0.28269">
        <ele>72.6</ele>
        <time>2020-09-08T15:06:13Z</time>
      </trkpt>
      <trkpt lat="44.50715" lon="-0.28268">
        <ele>72.6</ele>
        <time>2020-09-08T15:06:14Z</time>
      </trkpt>
      <trkpt lat="44.50715" lon="-0.28267">
        <ele>72.6</ele>
        <time>2020-09-08T15:06:15Z</time>
      </trkpt>
      <trkpt lat="44.50718" lon="-0.28267">
        <ele>72.6</ele>
        <time>2020-09-08T15:06:16Z</time>
      </trkpt>
      <trkpt lat="44.50718" lon="-0.28266">
        <ele>72.6</ele>
        <time>2020-09-08T15:06:17Z</time>
      </trkpt>
      <trkpt lat="44.50721" lon="-0.28265">
        <ele>72.5</ele>
        <time>2020-09-08T15:06:19Z</time>
      </trkpt>
      <trkpt lat="44.50722" lon="-0.28264">
        <ele>72.5</ele>
        <time>2020-09-08T15:06:20Z</time>
      </trkpt>
      <trkpt lat="44.50724" lon="-0.28264">
        <ele>72.5</ele>
        <time>2020-09-08T15:06:21Z</time>
      </trkpt>
      <trkpt lat="44.50725" lon="-0.28263">
        <ele>72.5</ele>
        <time>2020-09-08T15:06:22Z</time>
      </trkpt>
      <trkpt lat="44.50727" lon="-0.28262">
        <ele>72.5</ele>
        <time>2020-09-08T15:06:24Z</time>
      </trkpt>
      <trkpt lat="44.50728" lon="-0.28261">
        <ele>72.5</ele>
        <time>2020-09-08T15:06:25Z</time>
      </trkpt>
      <trkpt lat="44.50729" lon="-0.28261">
        <ele>72.4</ele>
        <time>2020-09-08T15:06:26Z</time>
      </trkpt>
      <trkpt lat="44.5073" lon="-0.2826">
        <ele>72.4</ele>
        <time>2020-09-08T15:06:28Z</time>
      </trkpt>
      <trkpt lat="44.50731" lon="-0.2826">
        <ele>72.5</ele>
        <time>2020-09-08T15:06:29Z</time>
      </trkpt>
      <trkpt lat="44.50732" lon="-0.28259">
        <ele>72.5</ele>
        <time>2020-09-08T15:06:30Z</time>
      </trkpt>
      <trkpt lat="44.50733" lon="-0.28259">
        <ele>72.5</ele>
        <time>2020-09-08T15:06:31Z</time>
      </trkpt>
      <trkpt lat="44.50734" lon="-0.28258">
        <ele>72.4</ele>
        <time>2020-09-08T15:06:32Z</time>
      </trkpt>
      <trkpt lat="44.50736" lon="-0.28257">
        <ele>72.4</ele>
        <time>2020-09-08T15:06:34Z</time>
      </trkpt>
      <trkpt lat="44.50737" lon="-0.28257">
        <ele>72.4</ele>
        <time>2020-09-08T15:06:35Z</time>
      </trkpt>
      <trkpt lat="44.50738" lon="-0.28257">
        <ele>72.4</ele>
        <time>2020-09-08T15:06:36Z</time>
      </trkpt>
      <trkpt lat="44.50739" lon="-0.28257">
        <ele>72.4</ele>
        <time>2020-09-08T15:06:37Z</time>
      </trkpt>
      <trkpt lat="44.5074" lon="-0.28257">
        <ele>72.4</ele>
        <time>2020-09-08T15:06:39Z</time>
      </trkpt>
      <trkpt lat="44.50741" lon="-0.28256">
        <ele>72.3</ele>
        <time>2020-09-08T15:06:40Z</time>
      </trkpt>
      <trkpt lat="44.50742" lon="-0.28256">
        <ele>72.3</ele>
        <time>2020-09-08T15:06:41Z</time>
      </trkpt>
      <trkpt lat="44.50744" lon="-0.28256">
        <ele>72.3</ele>
        <time>2020-09-08T15:06:43Z</time>
      </trkpt>
      <trkpt lat="44.50745" lon="-0.28256">
        <ele>72.3</ele>
        <time>2020-09-08T15:06:44Z</time>
      </trkpt>
      <trkpt lat="44.50746" lon="-0.28255">
        <ele>72.4</ele>
        <time>2020-09-08T15:06:45Z</time>
      </trkpt>
      <trkpt lat="44.50747" lon="-0.28255">
        <ele>72.3</ele>
        <time>2020-09-08T15:06:46Z</time>
      </trkpt>
      <trkpt lat="44.50749" lon="-0.28254">
        <ele>72.3</ele>
        <time>2020-09-08T15:06:47Z</time>
      </trkpt>
      <trkpt lat="44.5075" lon="-0.28254">
        <ele>72.3</ele>
        <time>2020-09-08T15:06:48Z</time>
      </trkpt>
      <trkpt lat="44.50751" lon="-0.28254">
        <ele>72.3</ele>
        <time>2020-09-08T15:06:49Z</time>
      </trkpt>
      <trkpt lat="44.50752" lon="-0.28254">
        <ele>72.3</ele>
        <time>2020-09-08T15:06:50Z</time>
      </trkpt>
      <trkpt lat="44.50754" lon="-0.28253">
        <ele>72.2</ele>
        <time>2020-09-08T15:06:52Z</time>
      </trkpt>
      <trkpt lat="44.50758" lon="-0.2825">
        <ele>72.3</ele>
        <time>2020-09-08T15:06:54Z</time>
      </trkpt>
      <trkpt lat="44.50759" lon="-0.28249">
        <ele>72.3</ele>
        <time>2020-09-08T15:06:56Z</time>
      </trkpt>
      <trkpt lat="44.50761" lon="-0.28248">
        <ele>72.3</ele>
        <time>2020-09-08T15:06:57Z</time>
      </trkpt>
      <trkpt lat="44.50762" lon="-0.28248">
        <ele>72.3</ele>
        <time>2020-09-08T15:06:58Z</time>
      </trkpt>
      <trkpt lat="44.50764" lon="-0.28247">
        <ele>72.3</ele>
        <time>2020-09-08T15:06:59Z</time>
      </trkpt>
      <trkpt lat="44.50765" lon="-0.28247">
        <ele>72.4</ele>
        <time>2020-09-08T15:07:00Z</time>
      </trkpt>
      <trkpt lat="44.50766" lon="-0.28246">
        <ele>72.4</ele>
        <time>2020-09-08T15:07:01Z</time>
      </trkpt>
      <trkpt lat="44.50767" lon="-0.28246">
        <ele>72.4</ele>
        <time>2020-09-08T15:07:02Z</time>
      </trkpt>
      <trkpt lat="44.50769" lon="-0.28246">
        <ele>72.4</ele>
        <time>2020-09-08T15:07:03Z</time>
      </trkpt>
      <trkpt lat="44.5077" lon="-0.28245">
        <ele>72.4</ele>
        <time>2020-09-08T15:07:04Z</time>
      </trkpt>
      <trkpt lat="44.50771" lon="-0.28245">
        <ele>72.4</ele>
        <time>2020-09-08T15:07:05Z</time>
      </trkpt>
      <trkpt lat="44.50772" lon="-0.28245">
        <ele>72.4</ele>
        <time>2020-09-08T15:07:06Z</time>
      </trkpt>
      <trkpt lat="44.50775" lon="-0.28244">
        <ele>72.4</ele>
        <time>2020-09-08T15:07:08Z</time>
      </trkpt>
      <trkpt lat="44.50776" lon="-0.28243">
        <ele>72.4</ele>
        <time>2020-09-08T15:07:09Z</time>
      </trkpt>
      <trkpt lat="44.50778" lon="-0.28243">
        <ele>72.3</ele>
        <time>2020-09-08T15:07:11Z</time>
      </trkpt>
      <trkpt lat="44.50781" lon="-0.28242">
        <ele>72.5</ele>
        <time>2020-09-08T15:07:12Z</time>
      </trkpt>
      <trkpt lat="44.50782" lon="-0.28242">
        <ele>72.5</ele>
        <time>2020-09-08T15:07:13Z</time>
      </trkpt>
      <trkpt lat="44.50783" lon="-0.28241">
        <ele>72.5</ele>
        <time>2020-09-08T15:07:14Z</time>
      </trkpt>
      <trkpt lat="44.50785" lon="-0.2824">
        <ele>72.5</ele>
        <time>2020-09-08T15:07:16Z</time>
      </trkpt>
      <trkpt lat="44.50787" lon="-0.2824">
        <ele>72.4</ele>
        <time>2020-09-08T15:07:17Z</time>
      </trkpt>
      <trkpt lat="44.50788" lon="-0.2824">
        <ele>72.4</ele>
        <time>2020-09-08T15:07:18Z</time>
      </trkpt>
      <trkpt lat="44.5079" lon="-0.2824">
        <ele>72.4</ele>
        <time>2020-09-08T15:07:19Z</time>
      </trkpt>
      <trkpt lat="44.50791" lon="-0.2824">
        <ele>72.4</ele>
        <time>2020-09-08T15:07:20Z</time>
      </trkpt>
      <trkpt lat="44.50792" lon="-0.28239">
        <ele>72.4</ele>
        <time>2020-09-08T15:07:22Z</time>
      </trkpt>
      <trkpt lat="44.50794" lon="-0.28238">
        <ele>72.4</ele>
        <time>2020-09-08T15:07:23Z</time>
      </trkpt>
      <trkpt lat="44.50795" lon="-0.28238">
        <ele>72.6</ele>
        <time>2020-09-08T15:07:24Z</time>
      </trkpt>
      <trkpt lat="44.50797" lon="-0.28237">
        <ele>72.5</ele>
        <time>2020-09-08T15:07:26Z</time>
      </trkpt>
      <trkpt lat="44.50798" lon="-0.28237">
        <ele>72.5</ele>
        <time>2020-09-08T15:07:27Z</time>
      </trkpt>
      <trkpt lat="44.50799" lon="-0.28236">
        <ele>72.5</ele>
        <time>2020-09-08T15:07:28Z</time>
      </trkpt>
      <trkpt lat="44.50801" lon="-0.28235">
        <ele>72.5</ele>
        <time>2020-09-08T15:07:29Z</time>
      </trkpt>
      <trkpt lat="44.50801" lon="-0.28235">
        <ele>72.5</ele>
        <time>2020-09-08T15:07:30Z</time>
      </trkpt>
      <trkpt lat="44.50802" lon="-0.28234">
        <ele>72.4</ele>
        <time>2020-09-08T15:07:31Z</time>
      </trkpt>
      <trkpt lat="44.50803" lon="-0.28234">
        <ele>72.6</ele>
        <time>2020-09-08T15:07:32Z</time>
      </trkpt>
      <trkpt lat="44.50805" lon="-0.28233">
        <ele>72.5</ele>
        <time>2020-09-08T15:07:34Z</time>
      </trkpt>
      <trkpt lat="44.50806" lon="-0.28233">
        <ele>72.5</ele>
        <time>2020-09-08T15:07:35Z</time>
      </trkpt>
      <trkpt lat="44.50807" lon="-0.28232">
        <ele>72.5</ele>
        <time>2020-09-08T15:07:36Z</time>
      </trkpt>
      <trkpt lat="44.50808" lon="-0.28232">
        <ele>72.5</ele>
        <time>2020-09-08T15:07:37Z</time>
      </trkpt>
      <trkpt lat="44.50808" lon="-0.28231">
        <ele>72.5</ele>
        <time>2020-09-08T15:07:38Z</time>
      </trkpt>
      <trkpt lat="44.5081" lon="-0.28231">
        <ele>72.5</ele>
        <time>2020-09-08T15:07:40Z</time>
      </trkpt>
      <trkpt lat="44.50811" lon="-0.28231">
        <ele>72.4</ele>
        <time>2020-09-08T15:07:41Z</time>
      </trkpt>
      <trkpt lat="44.50813" lon="-0.28231">
        <ele>72.4</ele>
        <time>2020-09-08T15:07:42Z</time>
      </trkpt>
      <trkpt lat="44.50814" lon="-0.2823">
        <ele>72.2</ele>
        <time>2020-09-08T15:07:43Z</time>
      </trkpt>
      <trkpt lat="44.50815" lon="-0.2823">
        <ele>72.2</ele>
        <time>2020-09-08T15:07:44Z</time>
      </trkpt>
      <trkpt lat="44.50816" lon="-0.2823">
        <ele>72.5</ele>
        <time>2020-09-08T15:07:46Z</time>
      </trkpt>
      <trkpt lat="44.50817" lon="-0.28229">
        <ele>72.4</ele>
        <time>2020-09-08T15:07:47Z</time>
      </trkpt>
      <trkpt lat="44.50819" lon="-0.28228">
        <ele>72.4</ele>
        <time>2020-09-08T15:07:48Z</time>
      </trkpt>
      <trkpt lat="44.5082" lon="-0.28228">
        <ele>72.2</ele>
        <time>2020-09-08T15:07:49Z</time>
      </trkpt>
      <trkpt lat="44.50821" lon="-0.28227">
        <ele>72.2</ele>
        <time>2020-09-08T15:07:50Z</time>
      </trkpt>
      <trkpt lat="44.50822" lon="-0.28226">
        <ele>72.2</ele>
        <time>2020-09-08T15:07:51Z</time>
      </trkpt>
      <trkpt lat="44.50823" lon="-0.28226">
        <ele>72.1</ele>
        <time>2020-09-08T15:07:52Z</time>
      </trkpt>
      <trkpt lat="44.50824" lon="-0.28225">
        <ele>72.1</ele>
        <time>2020-09-08T15:07:54Z</time>
      </trkpt>
      <trkpt lat="44.50826" lon="-0.28225">
        <ele>72.4</ele>
        <time>2020-09-08T15:07:55Z</time>
      </trkpt>
      <trkpt lat="44.50827" lon="-0.28225">
        <ele>72.2</ele>
        <time>2020-09-08T15:07:56Z</time>
      </trkpt>
      <trkpt lat="44.50827" lon="-0.28224">
        <ele>72.2</ele>
        <time>2020-09-08T15:07:57Z</time>
      </trkpt>
      <trkpt lat="44.50828" lon="-0.28224">
        <ele>72.2</ele>
        <time>2020-09-08T15:07:58Z</time>
      </trkpt>
      <trkpt lat="44.50828" lon="-0.28224">
        <ele>72.2</ele>
        <time>2020-09-08T15:07:59Z</time>
      </trkpt>
      <trkpt lat="44.5083" lon="-0.28223">
        <ele>72</ele>
        <time>2020-09-08T15:08:00Z</time>
      </trkpt>
      <trkpt lat="44.50831" lon="-0.28223">
        <ele>72</ele>
        <time>2020-09-08T15:08:02Z</time>
      </trkpt>
      <trkpt lat="44.50833" lon="-0.28223">
        <ele>71.8</ele>
        <time>2020-09-08T15:08:03Z</time>
      </trkpt>
      <trkpt lat="44.50834" lon="-0.28223">
        <ele>71.8</ele>
        <time>2020-09-08T15:08:04Z</time>
      </trkpt>
      <trkpt lat="44.50837" lon="-0.28223">
        <ele>71.6</ele>
        <time>2020-09-08T15:08:06Z</time>
      </trkpt>
      <trkpt lat="44.50838" lon="-0.28223">
        <ele>71.6</ele>
        <time>2020-09-08T15:08:07Z</time>
      </trkpt>
      <trkpt lat="44.50839" lon="-0.28223">
        <ele>71.4</ele>
        <time>2020-09-08T15:08:08Z</time>
      </trkpt>
      <trkpt lat="44.50839" lon="-0.28223">
        <ele>71.4</ele>
        <time>2020-09-08T15:08:09Z</time>
      </trkpt>
      <trkpt lat="44.5084" lon="-0.28223">
        <ele>71.4</ele>
        <time>2020-09-08T15:08:10Z</time>
      </trkpt>
      <trkpt lat="44.50841" lon="-0.28223">
        <ele>71.2</ele>
        <time>2020-09-08T15:08:12Z</time>
      </trkpt>
      <trkpt lat="44.50842" lon="-0.28223">
        <ele>71.2</ele>
        <time>2020-09-08T15:08:13Z</time>
      </trkpt>
      <trkpt lat="44.50844" lon="-0.28223">
        <ele>71.2</ele>
        <time>2020-09-08T15:08:14Z</time>
      </trkpt>
      <trkpt lat="44.50845" lon="-0.28222">
        <ele>71</ele>
        <time>2020-09-08T15:08:16Z</time>
      </trkpt>
      <trkpt lat="44.50847" lon="-0.28221">
        <ele>71</ele>
        <time>2020-09-08T15:08:17Z</time>
      </trkpt>
      <trkpt lat="44.50847" lon="-0.28221">
        <ele>70.7</ele>
        <time>2020-09-08T15:08:18Z</time>
      </trkpt>
      <trkpt lat="44.50848" lon="-0.28221">
        <ele>70.7</ele>
        <time>2020-09-08T15:08:19Z</time>
      </trkpt>
      <trkpt lat="44.50849" lon="-0.28221">
        <ele>70.7</ele>
        <time>2020-09-08T15:08:20Z</time>
      </trkpt>
      <trkpt lat="44.5085" lon="-0.28221">
        <ele>70.7</ele>
        <time>2020-09-08T15:08:21Z</time>
      </trkpt>
      <trkpt lat="44.50852" lon="-0.28221">
        <ele>70.8</ele>
        <time>2020-09-08T15:08:23Z</time>
      </trkpt>
      <trkpt lat="44.50853" lon="-0.28221">
        <ele>70.8</ele>
        <time>2020-09-08T15:08:24Z</time>
      </trkpt>
      <trkpt lat="44.50853" lon="-0.28221">
        <ele>70.6</ele>
        <time>2020-09-08T15:08:25Z</time>
      </trkpt>
      <trkpt lat="44.50855" lon="-0.28221">
        <ele>70.6</ele>
        <time>2020-09-08T15:08:26Z</time>
      </trkpt>
      <trkpt lat="44.50856" lon="-0.2822">
        <ele>70.6</ele>
        <time>2020-09-08T15:08:27Z</time>
      </trkpt>
      <trkpt lat="44.50857" lon="-0.28219">
        <ele>70.4</ele>
        <time>2020-09-08T15:08:29Z</time>
      </trkpt>
      <trkpt lat="44.50858" lon="-0.28219">
        <ele>70.4</ele>
        <time>2020-09-08T15:08:30Z</time>
      </trkpt>
      <trkpt lat="44.5086" lon="-0.28218">
        <ele>70.1</ele>
        <time>2020-09-08T15:08:31Z</time>
      </trkpt>
      <trkpt lat="44.5086" lon="-0.28215">
        <ele>70.4</ele>
        <time>2020-09-08T15:08:33Z</time>
      </trkpt>
      <trkpt lat="44.5086" lon="-0.28213">
        <ele>70.4</ele>
        <time>2020-09-08T15:08:34Z</time>
      </trkpt>
      <trkpt lat="44.5086" lon="-0.28212">
        <ele>71</ele>
        <time>2020-09-08T15:08:35Z</time>
      </trkpt>
      <trkpt lat="44.5086" lon="-0.28208">
        <ele>71.1</ele>
        <time>2020-09-08T15:08:37Z</time>
      </trkpt>
      <trkpt lat="44.5086" lon="-0.28206">
        <ele>71.1</ele>
        <time>2020-09-08T15:08:38Z</time>
      </trkpt>
      <trkpt lat="44.5086" lon="-0.28204">
        <ele>71.4</ele>
        <time>2020-09-08T15:08:40Z</time>
      </trkpt>
      <trkpt lat="44.5086" lon="-0.28203">
        <ele>71.4</ele>
        <time>2020-09-08T15:08:41Z</time>
      </trkpt>
      <trkpt lat="44.5086" lon="-0.28201">
        <ele>71.4</ele>
        <time>2020-09-08T15:08:42Z</time>
      </trkpt>
      <trkpt lat="44.5086" lon="-0.282">
        <ele>71.4</ele>
        <time>2020-09-08T15:08:43Z</time>
      </trkpt>
      <trkpt lat="44.5086" lon="-0.28199">
        <ele>71.7</ele>
        <time>2020-09-08T15:08:44Z</time>
      </trkpt>
      <trkpt lat="44.5086" lon="-0.28198">
        <ele>71.7</ele>
        <time>2020-09-08T15:08:45Z</time>
      </trkpt>
      <trkpt lat="44.5086" lon="-0.28195">
        <ele>72.1</ele>
        <time>2020-09-08T15:08:47Z</time>
      </trkpt>
      <trkpt lat="44.5086" lon="-0.28194">
        <ele>72.1</ele>
        <time>2020-09-08T15:08:48Z</time>
      </trkpt>
      <trkpt lat="44.5086" lon="-0.28193">
        <ele>72.1</ele>
        <time>2020-09-08T15:08:49Z</time>
      </trkpt>
      <trkpt lat="44.5086" lon="-0.2819">
        <ele>72.4</ele>
        <time>2020-09-08T15:08:50Z</time>
      </trkpt>
      <trkpt lat="44.5086" lon="-0.28189">
        <ele>72.4</ele>
        <time>2020-09-08T15:08:51Z</time>
      </trkpt>
      <trkpt lat="44.5086" lon="-0.28188">
        <ele>72.4</ele>
        <time>2020-09-08T15:08:52Z</time>
      </trkpt>
      <trkpt lat="44.5086" lon="-0.28185">
        <ele>72.7</ele>
        <time>2020-09-08T15:08:54Z</time>
      </trkpt>
      <trkpt lat="44.5086" lon="-0.28183">
        <ele>72.7</ele>
        <time>2020-09-08T15:08:55Z</time>
      </trkpt>
      <trkpt lat="44.5086" lon="-0.28182">
        <ele>73.1</ele>
        <time>2020-09-08T15:08:56Z</time>
      </trkpt>
      <trkpt lat="44.5086" lon="-0.28181">
        <ele>73.1</ele>
        <time>2020-09-08T15:08:57Z</time>
      </trkpt>
      <trkpt lat="44.5086" lon="-0.28179">
        <ele>73.1</ele>
        <time>2020-09-08T15:08:58Z</time>
      </trkpt>
      <trkpt lat="44.5086" lon="-0.28177">
        <ele>73.4</ele>
        <time>2020-09-08T15:08:59Z</time>
      </trkpt>
      <trkpt lat="44.5086" lon="-0.28174">
        <ele>73.7</ele>
        <time>2020-09-08T15:09:01Z</time>
      </trkpt>
      <trkpt lat="44.5086" lon="-0.28172">
        <ele>73.7</ele>
        <time>2020-09-08T15:09:02Z</time>
      </trkpt>
      <trkpt lat="44.5086" lon="-0.28171">
        <ele>73.7</ele>
        <time>2020-09-08T15:09:04Z</time>
      </trkpt>
      <trkpt lat="44.5086" lon="-0.28169">
        <ele>74</ele>
        <time>2020-09-08T15:09:05Z</time>
      </trkpt>
      <trkpt lat="44.5086" lon="-0.28166">
        <ele>74</ele>
        <time>2020-09-08T15:09:06Z</time>
      </trkpt>
      <trkpt lat="44.5086" lon="-0.28165">
        <ele>74.3</ele>
        <time>2020-09-08T15:09:07Z</time>
      </trkpt>
      <trkpt lat="44.5086" lon="-0.28163">
        <ele>74.4</ele>
        <time>2020-09-08T15:09:09Z</time>
      </trkpt>
      <trkpt lat="44.5086" lon="-0.28162">
        <ele>74.4</ele>
        <time>2020-09-08T15:09:10Z</time>
      </trkpt>
      <trkpt lat="44.5086" lon="-0.28159">
        <ele>74.6</ele>
        <time>2020-09-08T15:09:11Z</time>
      </trkpt>
      <trkpt lat="44.5086" lon="-0.28158">
        <ele>74.6</ele>
        <time>2020-09-08T15:09:12Z</time>
      </trkpt>
      <trkpt lat="44.50861" lon="-0.28157">
        <ele>74.8</ele>
        <time>2020-09-08T15:09:14Z</time>
      </trkpt>
      <trkpt lat="44.50861" lon="-0.28155">
        <ele>74.9</ele>
        <time>2020-09-08T15:09:15Z</time>
      </trkpt>
      <trkpt lat="44.50862" lon="-0.28154">
        <ele>74.9</ele>
        <time>2020-09-08T15:09:16Z</time>
      </trkpt>
      <trkpt lat="44.50863" lon="-0.28155">
        <ele>74.8</ele>
        <time>2020-09-08T15:09:17Z</time>
      </trkpt>
      <trkpt lat="44.50864" lon="-0.28154">
        <ele>74.8</ele>
        <time>2020-09-08T15:09:19Z</time>
      </trkpt>
      <trkpt lat="44.50865" lon="-0.28152">
        <ele>75</ele>
        <time>2020-09-08T15:09:20Z</time>
      </trkpt>
      <trkpt lat="44.50866" lon="-0.2815">
        <ele>74.9</ele>
        <time>2020-09-08T15:09:22Z</time>
      </trkpt>
      <trkpt lat="44.50867" lon="-0.28148">
        <ele>75</ele>
        <time>2020-09-08T15:09:23Z</time>
      </trkpt>
      <trkpt lat="44.50867" lon="-0.28147">
        <ele>75.2</ele>
        <time>2020-09-08T15:09:24Z</time>
      </trkpt>
      <trkpt lat="44.50867" lon="-0.28146">
        <ele>75.2</ele>
        <time>2020-09-08T15:09:25Z</time>
      </trkpt>
      <trkpt lat="44.50867" lon="-0.28146">
        <ele>75.2</ele>
        <time>2020-09-08T15:09:27Z</time>
      </trkpt>
      <trkpt lat="44.50867" lon="-0.28146">
        <ele>75.2</ele>
        <time>2020-09-08T15:09:28Z</time>
      </trkpt>
      <trkpt lat="44.50867" lon="-0.28146">
        <ele>75.2</ele>
        <time>2020-09-08T15:09:29Z</time>
      </trkpt>
      <trkpt lat="44.50867" lon="-0.28146">
        <ele>75.3</ele>
        <time>2020-09-08T15:09:30Z</time>
      </trkpt>
      <trkpt lat="44.50867" lon="-0.28146">
        <ele>75.3</ele>
        <time>2020-09-08T15:09:31Z</time>
      </trkpt>
      <trkpt lat="44.50867" lon="-0.28146">
        <ele>75.3</ele>
        <time>2020-09-08T15:09:32Z</time>
      </trkpt>
      <trkpt lat="44.50867" lon="-0.28146">
        <ele>75.3</ele>
        <time>2020-09-08T15:09:34Z</time>
      </trkpt>
      <trkpt lat="44.50867" lon="-0.28146">
        <ele>75.3</ele>
        <time>2020-09-08T15:09:36Z</time>
      </trkpt>
      <trkpt lat="44.50867" lon="-0.28146">
        <ele>75.4</ele>
        <time>2020-09-08T15:09:37Z</time>
      </trkpt>
      <trkpt lat="44.50867" lon="-0.28146">
        <ele>75.4</ele>
        <time>2020-09-08T15:09:38Z</time>
      </trkpt>
      <trkpt lat="44.50867" lon="-0.28146">
        <ele>75.4</ele>
        <time>2020-09-08T15:09:40Z</time>
      </trkpt>
      <trkpt lat="44.50867" lon="-0.28145">
        <ele>75.4</ele>
        <time>2020-09-08T15:09:41Z</time>
      </trkpt>
      <trkpt lat="44.50867" lon="-0.28145">
        <ele>75.4</ele>
        <time>2020-09-08T15:09:42Z</time>
      </trkpt>
      <trkpt lat="44.50867" lon="-0.28145">
        <ele>75.4</ele>
        <time>2020-09-08T15:09:44Z</time>
      </trkpt>
      <trkpt lat="44.50867" lon="-0.28145">
        <ele>75.5</ele>
        <time>2020-09-08T15:09:46Z</time>
      </trkpt>
      <trkpt lat="44.50867" lon="-0.28145">
        <ele>75.5</ele>
        <time>2020-09-08T15:09:47Z</time>
      </trkpt>
      <trkpt lat="44.50865" lon="-0.28149">
        <ele>75.4</ele>
        <time>2020-09-08T15:09:49Z</time>
      </trkpt>
      <trkpt lat="44.50864" lon="-0.2815">
        <ele>75.4</ele>
        <time>2020-09-08T15:09:51Z</time>
      </trkpt>
      <trkpt lat="44.50863" lon="-0.2815">
        <ele>75.4</ele>
        <time>2020-09-08T15:09:53Z</time>
      </trkpt>
      <trkpt lat="44.50863" lon="-0.28151">
        <ele>75.6</ele>
        <time>2020-09-08T15:09:55Z</time>
      </trkpt>
      <trkpt lat="44.50862" lon="-0.28151">
        <ele>75.6</ele>
        <time>2020-09-08T15:09:56Z</time>
      </trkpt>
      <trkpt lat="44.50862" lon="-0.28151">
        <ele>75.6</ele>
        <time>2020-09-08T15:09:58Z</time>
      </trkpt>
      <trkpt lat="44.50862" lon="-0.28152">
        <ele>75.6</ele>
        <time>2020-09-08T15:10:00Z</time>
      </trkpt>
      <trkpt lat="44.50862" lon="-0.28152">
        <ele>75.7</ele>
        <time>2020-09-08T15:10:01Z</time>
      </trkpt>
      <trkpt lat="44.50862" lon="-0.28152">
        <ele>75.7</ele>
        <time>2020-09-08T15:10:02Z</time>
      </trkpt>
      <trkpt lat="44.50862" lon="-0.28152">
        <ele>75.7</ele>
        <time>2020-09-08T15:10:04Z</time>
      </trkpt>
      <trkpt lat="44.50862" lon="-0.28152">
        <ele>75.7</ele>
        <time>2020-09-08T15:10:05Z</time>
      </trkpt>
      <trkpt lat="44.50862" lon="-0.28152">
        <ele>75.7</ele>
        <time>2020-09-08T15:10:07Z</time>
      </trkpt>
      <trkpt lat="44.50862" lon="-0.28152">
        <ele>75.8</ele>
        <time>2020-09-08T15:10:09Z</time>
      </trkpt>
      <trkpt lat="44.50862" lon="-0.28152">
        <ele>75.8</ele>
        <time>2020-09-08T15:10:10Z</time>
      </trkpt>
      <trkpt lat="44.50862" lon="-0.28152">
        <ele>75.8</ele>
        <time>2020-09-08T15:10:11Z</time>
      </trkpt>
      <trkpt lat="44.50862" lon="-0.28152">
        <ele>75.8</ele>
        <time>2020-09-08T15:10:12Z</time>
      </trkpt>
      <trkpt lat="44.50862" lon="-0.28152">
        <ele>75.8</ele>
        <time>2020-09-08T15:10:14Z</time>
      </trkpt>
      <trkpt lat="44.50862" lon="-0.28152">
        <ele>75.9</ele>
        <time>2020-09-08T15:10:15Z</time>
      </trkpt>
      <trkpt lat="44.50862" lon="-0.28152">
        <ele>75.9</ele>
        <time>2020-09-08T15:10:17Z</time>
      </trkpt>
      <trkpt lat="44.50862" lon="-0.28152">
        <ele>75.9</ele>
        <time>2020-09-08T15:10:18Z</time>
      </trkpt>
      <trkpt lat="44.50862" lon="-0.28152">
        <ele>75.9</ele>
        <time>2020-09-08T15:10:19Z</time>
      </trkpt>
      <trkpt lat="44.50862" lon="-0.28152">
        <ele>75.9</ele>
        <time>2020-09-08T15:10:20Z</time>
      </trkpt>
      <trkpt lat="44.50862" lon="-0.28152">
        <ele>75.9</ele>
        <time>2020-09-08T15:10:22Z</time>
      </trkpt>
      <trkpt lat="44.50862" lon="-0.28152">
        <ele>76</ele>
        <time>2020-09-08T15:10:23Z</time>
      </trkpt>
      <trkpt lat="44.50862" lon="-0.28152">
        <ele>76</ele>
        <time>2020-09-08T15:10:25Z</time>
      </trkpt>
      <trkpt lat="44.50862" lon="-0.28152">
        <ele>76</ele>
        <time>2020-09-08T15:10:26Z</time>
      </trkpt>
      <trkpt lat="44.50862" lon="-0.28152">
        <ele>76</ele>
        <time>2020-09-08T15:10:27Z</time>
      </trkpt>
      <trkpt lat="44.50862" lon="-0.28152">
        <ele>76</ele>
        <time>2020-09-08T15:10:29Z</time>
      </trkpt>
      <trkpt lat="44.50862" lon="-0.28152">
        <ele>76.1</ele>
        <time>2020-09-08T15:10:30Z</time>
      </trkpt>
      <trkpt lat="44.50862" lon="-0.28152">
        <ele>76.1</ele>
        <time>2020-09-08T15:10:32Z</time>
      </trkpt>
      <trkpt lat="44.50862" lon="-0.28152">
        <ele>76.1</ele>
        <time>2020-09-08T15:10:33Z</time>
      </trkpt>
      <trkpt lat="44.50862" lon="-0.28152">
        <ele>76.1</ele>
        <time>2020-09-08T15:10:35Z</time>
      </trkpt>
      <trkpt lat="44.50862" lon="-0.28152">
        <ele>76.1</ele>
        <time>2020-09-08T15:10:37Z</time>
      </trkpt>
      <trkpt lat="44.50862" lon="-0.28152">
        <ele>76.2</ele>
        <time>2020-09-08T15:10:38Z</time>
      </trkpt>
      <trkpt lat="44.50862" lon="-0.28152">
        <ele>76.2</ele>
        <time>2020-09-08T15:10:39Z</time>
      </trkpt>
      <trkpt lat="44.50862" lon="-0.28152">
        <ele>76.2</ele>
        <time>2020-09-08T15:10:41Z</time>
      </trkpt>
      <trkpt lat="44.50862" lon="-0.28152">
        <ele>76.2</ele>
        <time>2020-09-08T15:10:42Z</time>
      </trkpt>
      <trkpt lat="44.50862" lon="-0.28152">
        <ele>76.2</ele>
        <time>2020-09-08T15:10:44Z</time>
      </trkpt>
      <trkpt lat="44.50862" lon="-0.28152">
        <ele>76.2</ele>
        <time>2020-09-08T15:10:45Z</time>
      </trkpt>
      <trkpt lat="44.50862" lon="-0.28152">
        <ele>76.3</ele>
        <time>2020-09-08T15:10:46Z</time>
      </trkpt>
      <trkpt lat="44.50862" lon="-0.28152">
        <ele>76.3</ele>
        <time>2020-09-08T15:10:47Z</time>
      </trkpt>
      <trkpt lat="44.50862" lon="-0.28152">
        <ele>76.3</ele>
        <time>2020-09-08T15:10:49Z</time>
      </trkpt>
      <trkpt lat="44.50862" lon="-0.28152">
        <ele>76.3</ele>
        <time>2020-09-08T15:10:50Z</time>
      </trkpt>
      <trkpt lat="44.50862" lon="-0.28152">
        <ele>76.3</ele>
        <time>2020-09-08T15:10:51Z</time>
      </trkpt>
      <trkpt lat="44.50862" lon="-0.28152">
        <ele>76.4</ele>
        <time>2020-09-08T15:10:53Z</time>
      </trkpt>
      <trkpt lat="44.50862" lon="-0.28152">
        <ele>76.4</ele>
        <time>2020-09-08T15:10:54Z</time>
      </trkpt>
      <trkpt lat="44.50862" lon="-0.28152">
        <ele>76.4</ele>
        <time>2020-09-08T15:10:56Z</time>
      </trkpt>
      <trkpt lat="44.50862" lon="-0.28152">
        <ele>76.4</ele>
        <time>2020-09-08T15:10:57Z</time>
      </trkpt>
      <trkpt lat="44.50862" lon="-0.28152">
        <ele>76.4</ele>
        <time>2020-09-08T15:10:58Z</time>
      </trkpt>
      <trkpt lat="44.50862" lon="-0.28152">
        <ele>76.5</ele>
        <time>2020-09-08T15:11:00Z</time>
      </trkpt>
      <trkpt lat="44.50862" lon="-0.28152">
        <ele>76.5</ele>
        <time>2020-09-08T15:11:01Z</time>
      </trkpt>
      <trkpt lat="44.50862" lon="-0.28152">
        <ele>76.5</ele>
        <time>2020-09-08T15:11:02Z</time>
      </trkpt>
      <trkpt lat="44.50862" lon="-0.28152">
        <ele>76.5</ele>
        <time>2020-09-08T15:11:03Z</time>
      </trkpt>
      <trkpt lat="44.50862" lon="-0.28152">
        <ele>76.5</ele>
        <time>2020-09-08T15:11:05Z</time>
      </trkpt>
      <trkpt lat="44.50862" lon="-0.28152">
        <ele>76.6</ele>
        <time>2020-09-08T15:11:07Z</time>
      </trkpt>
      <trkpt lat="44.50862" lon="-0.28152">
        <ele>76.6</ele>
        <time>2020-09-08T15:11:08Z</time>
      </trkpt>
      <trkpt lat="44.50862" lon="-0.28152">
        <ele>76.6</ele>
        <time>2020-09-08T15:11:09Z</time>
      </trkpt>
      <trkpt lat="44.50862" lon="-0.28152">
        <ele>76.6</ele>
        <time>2020-09-08T15:11:11Z</time>
      </trkpt>
      <trkpt lat="44.50862" lon="-0.28152">
        <ele>76.6</ele>
        <time>2020-09-08T15:11:13Z</time>
      </trkpt>
      <trkpt lat="44.50862" lon="-0.28152">
        <ele>76.6</ele>
        <time>2020-09-08T15:11:14Z</time>
      </trkpt>
      <trkpt lat="44.50862" lon="-0.28152">
        <ele>76.7</ele>
        <time>2020-09-08T15:11:16Z</time>
      </trkpt>
      <trkpt lat="44.50862" lon="-0.28152">
        <ele>76.7</ele>
        <time>2020-09-08T15:11:17Z</time>
      </trkpt>
      <trkpt lat="44.50862" lon="-0.28152">
        <ele>76.7</ele>
        <time>2020-09-08T15:11:19Z</time>
      </trkpt>
      <trkpt lat="44.50862" lon="-0.28152">
        <ele>76.7</ele>
        <time>2020-09-08T15:11:20Z</time>
      </trkpt>
      <trkpt lat="44.50862" lon="-0.28152">
        <ele>76.7</ele>
        <time>2020-09-08T15:11:21Z</time>
      </trkpt>
      <trkpt lat="44.50862" lon="-0.28152">
        <ele>76.8</ele>
        <time>2020-09-08T15:11:22Z</time>
      </trkpt>
      <trkpt lat="44.50862" lon="-0.28152">
        <ele>76.8</ele>
        <time>2020-09-08T15:11:24Z</time>
      </trkpt>
      <trkpt lat="44.50862" lon="-0.28152">
        <ele>76.8</ele>
        <time>2020-09-08T15:11:25Z</time>
      </trkpt>
      <trkpt lat="44.50862" lon="-0.28152">
        <ele>76.8</ele>
        <time>2020-09-08T15:11:27Z</time>
      </trkpt>
      <trkpt lat="44.50862" lon="-0.28152">
        <ele>76.8</ele>
        <time>2020-09-08T15:11:29Z</time>
      </trkpt>
      <trkpt lat="44.50862" lon="-0.28152">
        <ele>76.8</ele>
        <time>2020-09-08T15:11:31Z</time>
      </trkpt>
      <trkpt lat="44.50862" lon="-0.28152">
        <ele>76.8</ele>
        <time>2020-09-08T15:11:33Z</time>
      </trkpt>
      <trkpt lat="44.50862" lon="-0.28152">
        <ele>76.8</ele>
        <time>2020-09-08T15:11:34Z</time>
      </trkpt>
      <trkpt lat="44.50862" lon="-0.28152">
        <ele>76.8</ele>
        <time>2020-09-08T15:11:36Z</time>
      </trkpt>
      <trkpt lat="44.50862" lon="-0.28152">
        <ele>76.8</ele>
        <time>2020-09-08T15:11:38Z</time>
      </trkpt>
      <trkpt lat="44.50862" lon="-0.28152">
        <ele>76.8</ele>
        <time>2020-09-08T15:11:40Z</time>
      </trkpt>
      <trkpt lat="44.50862" lon="-0.28152">
        <ele>76.8</ele>
        <time>2020-09-08T15:11:41Z</time>
      </trkpt>
      <trkpt lat="44.50862" lon="-0.28152">
        <ele>76.8</ele>
        <time>2020-09-08T15:11:43Z</time>
      </trkpt>
      <trkpt lat="44.50862" lon="-0.28152">
        <ele>76.8</ele>
        <time>2020-09-08T15:11:45Z</time>
      </trkpt>
      <trkpt lat="44.50862" lon="-0.28152">
        <ele>76.8</ele>
        <time>2020-09-08T15:11:47Z</time>
      </trkpt>
      <trkpt lat="44.50862" lon="-0.28152">
        <ele>76.8</ele>
        <time>2020-09-08T15:11:49Z</time>
      </trkpt>
      <trkpt lat="44.50862" lon="-0.28152">
        <ele>76.8</ele>
        <time>2020-09-08T15:11:51Z</time>
      </trkpt>
      <trkpt lat="44.50862" lon="-0.28152">
        <ele>76.8</ele>
        <time>2020-09-08T15:11:52Z</time>
      </trkpt>
      <trkpt lat="44.50862" lon="-0.28152">
        <ele>76.8</ele>
        <time>2020-09-08T15:11:53Z</time>
      </trkpt>
      <trkpt lat="44.50862" lon="-0.28152">
        <ele>76.8</ele>
        <time>2020-09-08T15:11:55Z</time>
      </trkpt>
      <trkpt lat="44.50862" lon="-0.28152">
        <ele>76.8</ele>
        <time>2020-09-08T15:11:56Z</time>
      </trkpt>
      <trkpt lat="44.50862" lon="-0.28152">
        <ele>76.8</ele>
        <time>2020-09-08T15:11:58Z</time>
      </trkpt>
      <trkpt lat="44.50862" lon="-0.28152">
        <ele>76.8</ele>
        <time>2020-09-08T15:11:59Z</time>
      </trkpt>
      <trkpt lat="44.50862" lon="-0.28152">
        <ele>76.8</ele>
        <time>2020-09-08T15:12:00Z</time>
      </trkpt>
      <trkpt lat="44.50862" lon="-0.28152">
        <ele>76.8</ele>
        <time>2020-09-08T15:12:01Z</time>
      </trkpt>
      <trkpt lat="44.50862" lon="-0.28152">
        <ele>76.8</ele>
        <time>2020-09-08T15:12:03Z</time>
      </trkpt>
      <trkpt lat="44.50862" lon="-0.28152">
        <ele>76.8</ele>
        <time>2020-09-08T15:12:04Z</time>
      </trkpt>
      <trkpt lat="44.50862" lon="-0.28152">
        <ele>76.8</ele>
        <time>2020-09-08T15:12:06Z</time>
      </trkpt>
      <trkpt lat="44.50862" lon="-0.28152">
        <ele>76.8</ele>
        <time>2020-09-08T15:12:07Z</time>
      </trkpt>
      <trkpt lat="44.50862" lon="-0.28152">
        <ele>76.8</ele>
        <time>2020-09-08T15:12:09Z</time>
      </trkpt>
      <trkpt lat="44.50862" lon="-0.28152">
        <ele>76.8</ele>
        <time>2020-09-08T15:12:10Z</time>
      </trkpt>
      <trkpt lat="44.50862" lon="-0.28152">
        <ele>76.8</ele>
        <time>2020-09-08T15:12:12Z</time>
      </trkpt>
      <trkpt lat="44.50862" lon="-0.28152">
        <ele>76.8</ele>
        <time>2020-09-08T15:12:14Z</time>
      </trkpt>
      <trkpt lat="44.50862" lon="-0.28152">
        <ele>76.8</ele>
        <time>2020-09-08T15:12:16Z</time>
      </trkpt>
      <trkpt lat="44.50862" lon="-0.28152">
        <ele>76.8</ele>
        <time>2020-09-08T15:12:18Z</time>
      </trkpt>
      <trkpt lat="44.50862" lon="-0.28152">
        <ele>76.8</ele>
        <time>2020-09-08T15:12:20Z</time>
      </trkpt>
      <trkpt lat="44.50862" lon="-0.28152">
        <ele>76.8</ele>
        <time>2020-09-08T15:12:21Z</time>
      </trkpt>
      <trkpt lat="44.50862" lon="-0.28152">
        <ele>76.8</ele>
        <time>2020-09-08T15:12:23Z</time>
      </trkpt>
      <trkpt lat="44.50862" lon="-0.28152">
        <ele>76.8</ele>
        <time>2020-09-08T15:12:25Z</time>
      </trkpt>
      <trkpt lat="44.50862" lon="-0.28152">
        <ele>76.8</ele>
        <time>2020-09-08T15:12:26Z</time>
      </trkpt>
      <trkpt lat="44.50862" lon="-0.28152">
        <ele>76.8</ele>
        <time>2020-09-08T15:12:27Z</time>
      </trkpt>
      <trkpt lat="44.50862" lon="-0.28152">
        <ele>76.8</ele>
        <time>2020-09-08T15:12:28Z</time>
      </trkpt>
      <trkpt lat="44.50862" lon="-0.28152">
        <ele>76.8</ele>
        <time>2020-09-08T15:12:30Z</time>
      </trkpt>
      <trkpt lat="44.50862" lon="-0.28152">
        <ele>76.8</ele>
        <time>2020-09-08T15:12:58Z</time>
      </trkpt>
      <trkpt lat="44.50862" lon="-0.28152">
        <ele>76.8</ele>
        <time>2020-09-08T15:13:00Z</time>
      </trkpt>
      <trkpt lat="44.50862" lon="-0.28152">
        <ele>76.8</ele>
        <time>2020-09-08T15:13:01Z</time>
      </trkpt>
      <trkpt lat="44.50862" lon="-0.28152">
        <ele>76.8</ele>
        <time>2020-09-08T15:13:03Z</time>
      </trkpt>
      <trkpt lat="44.50862" lon="-0.28152">
        <ele>76.8</ele>
        <time>2020-09-08T15:13:05Z</time>
      </trkpt>
      <trkpt lat="44.50862" lon="-0.28152">
        <ele>76.8</ele>
        <time>2020-09-08T15:13:06Z</time>
      </trkpt>
      <trkpt lat="44.50862" lon="-0.28152">
        <ele>76.8</ele>
        <time>2020-09-08T15:13:07Z</time>
      </trkpt>
      <trkpt lat="44.50862" lon="-0.28152">
        <ele>76.8</ele>
        <time>2020-09-08T15:13:08Z</time>
      </trkpt>
      <trkpt lat="44.50862" lon="-0.28152">
        <ele>76.8</ele>
        <time>2020-09-08T15:13:09Z</time>
      </trkpt>
      <trkpt lat="44.50862" lon="-0.28152">
        <ele>76.8</ele>
        <time>2020-09-08T15:13:11Z</time>
      </trkpt>
      <trkpt lat="44.50862" lon="-0.28152">
        <ele>76.8</ele>
        <time>2020-09-08T15:13:13Z</time>
      </trkpt>
      <trkpt lat="44.50862" lon="-0.28152">
        <ele>76.8</ele>
        <time>2020-09-08T15:13:14Z</time>
      </trkpt>
      <trkpt lat="44.50862" lon="-0.28152">
        <ele>76.8</ele>
        <time>2020-09-08T15:13:15Z</time>
      </trkpt>
      <trkpt lat="44.50862" lon="-0.28152">
        <ele>76.8</ele>
        <time>2020-09-08T15:13:17Z</time>
      </trkpt>
      <trkpt lat="44.50862" lon="-0.28152">
        <ele>76.8</ele>
        <time>2020-09-08T15:13:18Z</time>
      </trkpt>
      <trkpt lat="44.50862" lon="-0.28152">
        <ele>76.8</ele>
        <time>2020-09-08T15:13:19Z</time>
      </trkpt>
      <trkpt lat="44.50862" lon="-0.28152">
        <ele>76.8</ele>
        <time>2020-09-08T15:13:21Z</time>
      </trkpt>
      <trkpt lat="44.50862" lon="-0.28152">
        <ele>76.8</ele>
        <time>2020-09-08T15:13:23Z</time>
      </trkpt>
      <trkpt lat="44.50862" lon="-0.28152">
        <ele>76.8</ele>
        <time>2020-09-08T15:13:25Z</time>
      </trkpt>
      <trkpt lat="44.50862" lon="-0.28152">
        <ele>76.8</ele>
        <time>2020-09-08T15:13:26Z</time>
      </trkpt>
      <trkpt lat="44.50862" lon="-0.28152">
        <ele>76.8</ele>
        <time>2020-09-08T15:13:27Z</time>
      </trkpt>
      <trkpt lat="44.50862" lon="-0.28152">
        <ele>76.8</ele>
        <time>2020-09-08T15:13:28Z</time>
      </trkpt>
      <trkpt lat="44.50862" lon="-0.28152">
        <ele>76.8</ele>
        <time>2020-09-08T15:13:29Z</time>
      </trkpt>
      <trkpt lat="44.50862" lon="-0.28152">
        <ele>76.8</ele>
        <time>2020-09-08T15:13:30Z</time>
      </trkpt>
      <trkpt lat="44.50862" lon="-0.28152">
        <ele>76.8</ele>
        <time>2020-09-08T15:13:31Z</time>
      </trkpt>
      <trkpt lat="44.50862" lon="-0.28152">
        <ele>76.8</ele>
        <time>2020-09-08T15:13:33Z</time>
      </trkpt>
      <trkpt lat="44.50862" lon="-0.28152">
        <ele>76.8</ele>
        <time>2020-09-08T15:13:34Z</time>
      </trkpt>
      <trkpt lat="44.50862" lon="-0.28152">
        <ele>76.8</ele>
        <time>2020-09-08T15:13:36Z</time>
      </trkpt>
      <trkpt lat="44.50862" lon="-0.28152">
        <ele>76.8</ele>
        <time>2020-09-08T15:13:37Z</time>
      </trkpt>
      <trkpt lat="44.50862" lon="-0.28152">
        <ele>76.8</ele>
        <time>2020-09-08T15:13:38Z</time>
      </trkpt>
      <trkpt lat="44.50862" lon="-0.28152">
        <ele>76.8</ele>
        <time>2020-09-08T15:13:40Z</time>
      </trkpt>
      <trkpt lat="44.50862" lon="-0.28152">
        <ele>76.8</ele>
        <time>2020-09-08T15:13:41Z</time>
      </trkpt>
      <trkpt lat="44.50862" lon="-0.28152">
        <ele>76.8</ele>
        <time>2020-09-08T15:13:43Z</time>
      </trkpt>
      <trkpt lat="44.50862" lon="-0.28152">
        <ele>76.8</ele>
        <time>2020-09-08T15:13:45Z</time>
      </trkpt>
      <trkpt lat="44.50862" lon="-0.28152">
        <ele>76.8</ele>
        <time>2020-09-08T15:13:46Z</time>
      </trkpt>
      <trkpt lat="44.50862" lon="-0.28152">
        <ele>76.8</ele>
        <time>2020-09-08T15:13:48Z</time>
      </trkpt>
      <trkpt lat="44.50862" lon="-0.28152">
        <ele>76.8</ele>
        <time>2020-09-08T15:13:49Z</time>
      </trkpt>
      <trkpt lat="44.50862" lon="-0.28152">
        <ele>76.8</ele>
        <time>2020-09-08T15:13:50Z</time>
      </trkpt>
      <trkpt lat="44.50862" lon="-0.28152">
        <ele>76.8</ele>
        <time>2020-09-08T15:13:52Z</time>
      </trkpt>
      <trkpt lat="44.50862" lon="-0.28152">
        <ele>76.8</ele>
        <time>2020-09-08T15:13:53Z</time>
      </trkpt>
      <trkpt lat="44.50862" lon="-0.28152">
        <ele>76.8</ele>
        <time>2020-09-08T15:13:54Z</time>
      </trkpt>
      <trkpt lat="44.50862" lon="-0.28152">
        <ele>76.8</ele>
        <time>2020-09-08T15:13:56Z</time>
      </trkpt>
      <trkpt lat="44.50862" lon="-0.28152">
        <ele>76.8</ele>
        <time>2020-09-08T15:13:57Z</time>
      </trkpt>
      <trkpt lat="44.50862" lon="-0.28152">
        <ele>76.8</ele>
        <time>2020-09-08T15:13:59Z</time>
      </trkpt>
      <trkpt lat="44.50862" lon="-0.28152">
        <ele>76.8</ele>
        <time>2020-09-08T15:14:01Z</time>
      </trkpt>
      <trkpt lat="44.50862" lon="-0.28152">
        <ele>76.8</ele>
        <time>2020-09-08T15:14:03Z</time>
      </trkpt>
      <trkpt lat="44.50862" lon="-0.28152">
        <ele>76.8</ele>
        <time>2020-09-08T15:14:05Z</time>
      </trkpt>
      <trkpt lat="44.50862" lon="-0.28152">
        <ele>76.8</ele>
        <time>2020-09-08T15:14:07Z</time>
      </trkpt>
      <trkpt lat="44.50862" lon="-0.28152">
        <ele>76.8</ele>
        <time>2020-09-08T15:14:08Z</time>
      </trkpt>
      <trkpt lat="44.50862" lon="-0.28152">
        <ele>76.8</ele>
        <time>2020-09-08T15:14:09Z</time>
      </trkpt>
      <trkpt lat="44.50862" lon="-0.28152">
        <ele>76.8</ele>
        <time>2020-09-08T15:14:11Z</time>
      </trkpt>
      <trkpt lat="44.50862" lon="-0.28152">
        <ele>76.8</ele>
        <time>2020-09-08T15:14:13Z</time>
      </trkpt>
      <trkpt lat="44.50862" lon="-0.28152">
        <ele>76.8</ele>
        <time>2020-09-08T15:14:14Z</time>
      </trkpt>
      <trkpt lat="44.50862" lon="-0.28152">
        <ele>76.8</ele>
        <time>2020-09-08T15:14:15Z</time>
      </trkpt>
      <trkpt lat="44.50862" lon="-0.28152">
        <ele>76.8</ele>
        <time>2020-09-08T15:14:17Z</time>
      </trkpt>
      <trkpt lat="44.50862" lon="-0.28152">
        <ele>76.8</ele>
        <time>2020-09-08T15:14:19Z</time>
      </trkpt>
      <trkpt lat="44.50862" lon="-0.28152">
        <ele>76.8</ele>
        <time>2020-09-08T15:14:20Z</time>
      </trkpt>
      <trkpt lat="44.50862" lon="-0.28152">
        <ele>76.8</ele>
        <time>2020-09-08T15:14:21Z</time>
      </trkpt>
      <trkpt lat="44.50862" lon="-0.28152">
        <ele>76.8</ele>
        <time>2020-09-08T15:14:23Z</time>
      </trkpt>
      <trkpt lat="44.50862" lon="-0.28152">
        <ele>76.8</ele>
        <time>2020-09-08T15:14:24Z</time>
      </trkpt>
      <trkpt lat="44.50862" lon="-0.28152">
        <ele>76.8</ele>
        <time>2020-09-08T15:14:26Z</time>
      </trkpt>
      <trkpt lat="44.50862" lon="-0.28152">
        <ele>76.8</ele>
        <time>2020-09-08T15:14:28Z</time>
      </trkpt>
      <trkpt lat="44.50862" lon="-0.28152">
        <ele>76.8</ele>
        <time>2020-09-08T15:14:29Z</time>
      </trkpt>
      <trkpt lat="44.50862" lon="-0.28152">
        <ele>76.8</ele>
        <time>2020-09-08T15:14:31Z</time>
      </trkpt>
      <trkpt lat="44.50862" lon="-0.28152">
        <ele>76.8</ele>
        <time>2020-09-08T15:14:32Z</time>
      </trkpt>
      <trkpt lat="44.50862" lon="-0.28152">
        <ele>76.8</ele>
        <time>2020-09-08T15:14:34Z</time>
      </trkpt>
      <trkpt lat="44.50862" lon="-0.28152">
        <ele>76.8</ele>
        <time>2020-09-08T15:14:35Z</time>
      </trkpt>
      <trkpt lat="44.50862" lon="-0.28152">
        <ele>76.8</ele>
        <time>2020-09-08T15:14:37Z</time>
      </trkpt>
      <trkpt lat="44.50862" lon="-0.28152">
        <ele>76.8</ele>
        <time>2020-09-08T15:14:38Z</time>
      </trkpt>
      <trkpt lat="44.50862" lon="-0.28152">
        <ele>76.8</ele>
        <time>2020-09-08T15:14:39Z</time>
      </trkpt>
      <trkpt lat="44.50862" lon="-0.28152">
        <ele>76.8</ele>
        <time>2020-09-08T15:14:41Z</time>
      </trkpt>
      <trkpt lat="44.50862" lon="-0.28152">
        <ele>76.8</ele>
        <time>2020-09-08T15:14:43Z</time>
      </trkpt>
      <trkpt lat="44.50862" lon="-0.28152">
        <ele>76.8</ele>
        <time>2020-09-08T15:14:45Z</time>
      </trkpt>
      <trkpt lat="44.50862" lon="-0.28152">
        <ele>76.8</ele>
        <time>2020-09-08T15:14:46Z</time>
      </trkpt>
      <trkpt lat="44.50862" lon="-0.28152">
        <ele>76.8</ele>
        <time>2020-09-08T15:14:47Z</time>
      </trkpt>
      <trkpt lat="44.50862" lon="-0.28152">
        <ele>76.8</ele>
        <time>2020-09-08T15:14:49Z</time>
      </trkpt>
      <trkpt lat="44.50862" lon="-0.28152">
        <ele>76.8</ele>
        <time>2020-09-08T15:14:51Z</time>
      </trkpt>
      <trkpt lat="44.50862" lon="-0.28152">
        <ele>76.8</ele>
        <time>2020-09-08T15:14:53Z</time>
      </trkpt>
      <trkpt lat="44.50862" lon="-0.28152">
        <ele>76.8</ele>
        <time>2020-09-08T15:14:55Z</time>
      </trkpt>
      <trkpt lat="44.50862" lon="-0.28152">
        <ele>76.8</ele>
        <time>2020-09-08T15:14:57Z</time>
      </trkpt>
      <trkpt lat="44.50862" lon="-0.28152">
        <ele>76.8</ele>
        <time>2020-09-08T15:14:58Z</time>
      </trkpt>
      <trkpt lat="44.50862" lon="-0.28152">
        <ele>76.8</ele>
        <time>2020-09-08T15:15:00Z</time>
      </trkpt>
      <trkpt lat="44.50862" lon="-0.28152">
        <ele>76.8</ele>
        <time>2020-09-08T15:15:01Z</time>
      </trkpt>
      <trkpt lat="44.50862" lon="-0.28152">
        <ele>76.8</ele>
        <time>2020-09-08T15:15:03Z</time>
      </trkpt>
      <trkpt lat="44.50862" lon="-0.28152">
        <ele>76.8</ele>
        <time>2020-09-08T15:15:05Z</time>
      </trkpt>
      <trkpt lat="44.50862" lon="-0.28152">
        <ele>76.8</ele>
        <time>2020-09-08T15:15:07Z</time>
      </trkpt>
      <trkpt lat="44.50862" lon="-0.28152">
        <ele>76.8</ele>
        <time>2020-09-08T15:15:09Z</time>
      </trkpt>
      <trkpt lat="44.50862" lon="-0.28152">
        <ele>76.8</ele>
        <time>2020-09-08T15:15:10Z</time>
      </trkpt>
      <trkpt lat="44.50862" lon="-0.28152">
        <ele>76.8</ele>
        <time>2020-09-08T15:15:11Z</time>
      </trkpt>
      <trkpt lat="44.50862" lon="-0.28152">
        <ele>76.8</ele>
        <time>2020-09-08T15:15:13Z</time>
      </trkpt>
      <trkpt lat="44.50862" lon="-0.28152">
        <ele>76.8</ele>
        <time>2020-09-08T15:15:14Z</time>
      </trkpt>
      <trkpt lat="44.50862" lon="-0.28152">
        <ele>76.8</ele>
        <time>2020-09-08T15:15:16Z</time>
      </trkpt>
      <trkpt lat="44.50862" lon="-0.28152">
        <ele>76.8</ele>
        <time>2020-09-08T15:15:18Z</time>
      </trkpt>
      <trkpt lat="44.50862" lon="-0.28152">
        <ele>76.8</ele>
        <time>2020-09-08T15:15:20Z</time>
      </trkpt>
      <trkpt lat="44.50862" lon="-0.28152">
        <ele>76.8</ele>
        <time>2020-09-08T15:15:21Z</time>
      </trkpt>
      <trkpt lat="44.50862" lon="-0.28152">
        <ele>76.8</ele>
        <time>2020-09-08T15:15:23Z</time>
      </trkpt>
      <trkpt lat="44.50862" lon="-0.28152">
        <ele>76.8</ele>
        <time>2020-09-08T15:15:24Z</time>
      </trkpt>
      <trkpt lat="44.50862" lon="-0.28152">
        <ele>76.8</ele>
        <time>2020-09-08T15:15:26Z</time>
      </trkpt>
      <trkpt lat="44.50862" lon="-0.28152">
        <ele>76.8</ele>
        <time>2020-09-08T15:15:28Z</time>
      </trkpt>
      <trkpt lat="44.50862" lon="-0.28152">
        <ele>76.8</ele>
        <time>2020-09-08T15:15:29Z</time>
      </trkpt>
      <trkpt lat="44.50862" lon="-0.28152">
        <ele>76.8</ele>
        <time>2020-09-08T15:15:31Z</time>
      </trkpt>
      <trkpt lat="44.50862" lon="-0.28152">
        <ele>76.8</ele>
        <time>2020-09-08T15:15:33Z</time>
      </trkpt>
      <trkpt lat="44.50862" lon="-0.28152">
        <ele>76.8</ele>
        <time>2020-09-08T15:15:34Z</time>
      </trkpt>
      <trkpt lat="44.50862" lon="-0.28152">
        <ele>76.8</ele>
        <time>2020-09-08T15:15:35Z</time>
      </trkpt>
      <trkpt lat="44.50862" lon="-0.28152">
        <ele>76.8</ele>
        <time>2020-09-08T15:15:37Z</time>
      </trkpt>
      <trkpt lat="44.50862" lon="-0.28152">
        <ele>76.8</ele>
        <time>2020-09-08T15:15:39Z</time>
      </trkpt>
      <trkpt lat="44.50862" lon="-0.28152">
        <ele>76.8</ele>
        <time>2020-09-08T15:42:23Z</time>
      </trkpt>
      <trkpt lat="44.50862" lon="-0.28152">
        <ele>76.8</ele>
        <time>2020-09-08T15:42:24Z</time>
      </trkpt>
      <trkpt lat="44.50862" lon="-0.28152">
        <ele>76.8</ele>
        <time>2020-09-08T15:42:25Z</time>
      </trkpt>
      <trkpt lat="44.50862" lon="-0.28152">
        <ele>76.8</ele>
        <time>2020-09-08T15:42:26Z</time>
      </trkpt>
      <trkpt lat="44.50862" lon="-0.28152">
        <ele>76.8</ele>
        <time>2020-09-08T15:42:28Z</time>
      </trkpt>
      <trkpt lat="44.50862" lon="-0.28152">
        <ele>76.8</ele>
        <time>2020-09-08T15:42:29Z</time>
      </trkpt>
      <trkpt lat="44.50862" lon="-0.28152">
        <ele>76.8</ele>
        <time>2020-09-08T15:46:30Z</time>
      </trkpt>
      <trkpt lat="44.50861" lon="-0.28138">
        <ele>77.3</ele>
        <time>2020-09-08T15:48:38Z</time>
      </trkpt>
      <trkpt lat="44.50861" lon="-0.2814">
        <ele>77.1</ele>
        <time>2020-09-08T15:48:39Z</time>
      </trkpt>
      <trkpt lat="44.5086" lon="-0.28146">
        <ele>77</ele>
        <time>2020-09-08T15:48:41Z</time>
      </trkpt>
      <trkpt lat="44.5086" lon="-0.28146">
        <ele>77</ele>
        <time>2020-09-08T15:48:42Z</time>
      </trkpt>
      <trkpt lat="44.5086" lon="-0.28146">
        <ele>77</ele>
        <time>2020-09-08T15:48:44Z</time>
      </trkpt>
      <trkpt lat="44.5086" lon="-0.28146">
        <ele>77</ele>
        <time>2020-09-08T15:48:45Z</time>
      </trkpt>
      <trkpt lat="44.5086" lon="-0.28146">
        <ele>77</ele>
        <time>2020-09-08T15:48:46Z</time>
      </trkpt>
      <trkpt lat="44.5086" lon="-0.28146">
        <ele>77</ele>
        <time>2020-09-08T15:48:47Z</time>
      </trkpt>
      <trkpt lat="44.5086" lon="-0.28146">
        <ele>77</ele>
        <time>2020-09-08T15:48:49Z</time>
      </trkpt>
      <trkpt lat="44.5086" lon="-0.28146">
        <ele>77</ele>
        <time>2020-09-08T15:48:51Z</time>
      </trkpt>
      <trkpt lat="44.50861" lon="-0.28147">
        <ele>77</ele>
        <time>2020-09-08T15:48:52Z</time>
      </trkpt>
      <trkpt lat="44.50862" lon="-0.28147">
        <ele>77</ele>
        <time>2020-09-08T15:48:53Z</time>
      </trkpt>
      <trkpt lat="44.50863" lon="-0.28149">
        <ele>76.6</ele>
        <time>2020-09-08T15:48:55Z</time>
      </trkpt>
      <trkpt lat="44.50863" lon="-0.28149">
        <ele>76.6</ele>
        <time>2020-09-08T15:48:56Z</time>
      </trkpt>
      <trkpt lat="44.50864" lon="-0.28148">
        <ele>76.8</ele>
        <time>2020-09-08T15:48:57Z</time>
      </trkpt>
      <trkpt lat="44.50865" lon="-0.28144">
        <ele>76.8</ele>
        <time>2020-09-08T15:48:59Z</time>
      </trkpt>
      <trkpt lat="44.50864" lon="-0.2814">
        <ele>77</ele>
        <time>2020-09-08T15:49:00Z</time>
      </trkpt>
      <trkpt lat="44.50864" lon="-0.28139">
        <ele>77.2</ele>
        <time>2020-09-08T15:49:01Z</time>
      </trkpt>
      <trkpt lat="44.50863" lon="-0.28135">
        <ele>77.4</ele>
        <time>2020-09-08T15:49:02Z</time>
      </trkpt>
      <trkpt lat="44.50863" lon="-0.28134">
        <ele>77.4</ele>
        <time>2020-09-08T15:49:03Z</time>
      </trkpt>
      <trkpt lat="44.50862" lon="-0.28127">
        <ele>77.6</ele>
        <time>2020-09-08T15:49:05Z</time>
      </trkpt>
      <trkpt lat="44.50861" lon="-0.28124">
        <ele>77.8</ele>
        <time>2020-09-08T15:49:06Z</time>
      </trkpt>
      <trkpt lat="44.50858" lon="-0.28118">
        <ele>78</ele>
        <time>2020-09-08T15:49:08Z</time>
      </trkpt>
      <trkpt lat="44.50858" lon="-0.28116">
        <ele>78.1</ele>
        <time>2020-09-08T15:49:09Z</time>
      </trkpt>
      <trkpt lat="44.50857" lon="-0.28115">
        <ele>78.1</ele>
        <time>2020-09-08T15:49:10Z</time>
      </trkpt>
      <trkpt lat="44.50857" lon="-0.28113">
        <ele>78.2</ele>
        <time>2020-09-08T15:49:11Z</time>
      </trkpt>
      <trkpt lat="44.50856" lon="-0.28111">
        <ele>78.2</ele>
        <time>2020-09-08T15:49:12Z</time>
      </trkpt>
      <trkpt lat="44.50856" lon="-0.28109">
        <ele>78.3</ele>
        <time>2020-09-08T15:49:13Z</time>
      </trkpt>
      <trkpt lat="44.50856" lon="-0.28106">
        <ele>78.3</ele>
        <time>2020-09-08T15:49:15Z</time>
      </trkpt>
      <trkpt lat="44.50856" lon="-0.28103">
        <ele>78.4</ele>
        <time>2020-09-08T15:49:16Z</time>
      </trkpt>
      <trkpt lat="44.50855" lon="-0.28101">
        <ele>78.4</ele>
        <time>2020-09-08T15:49:18Z</time>
      </trkpt>
      <trkpt lat="44.50855" lon="-0.28099">
        <ele>78.5</ele>
        <time>2020-09-08T15:49:19Z</time>
      </trkpt>
      <trkpt lat="44.50855" lon="-0.28097">
        <ele>78.5</ele>
        <time>2020-09-08T15:49:20Z</time>
      </trkpt>
      <trkpt lat="44.50854" lon="-0.28096">
        <ele>78.5</ele>
        <time>2020-09-08T15:49:22Z</time>
      </trkpt>
      <trkpt lat="44.50853" lon="-0.28093">
        <ele>78.6</ele>
        <time>2020-09-08T15:49:23Z</time>
      </trkpt>
      <trkpt lat="44.50852" lon="-0.28088">
        <ele>78.7</ele>
        <time>2020-09-08T15:49:25Z</time>
      </trkpt>
      <trkpt lat="44.50852" lon="-0.28087">
        <ele>78.8</ele>
        <time>2020-09-08T15:49:26Z</time>
      </trkpt>
      <trkpt lat="44.50852" lon="-0.28086">
        <ele>78.8</ele>
        <time>2020-09-08T15:49:27Z</time>
      </trkpt>
      <trkpt lat="44.50851" lon="-0.28084">
        <ele>78.8</ele>
        <time>2020-09-08T15:49:28Z</time>
      </trkpt>
      <trkpt lat="44.50851" lon="-0.28082">
        <ele>78.8</ele>
        <time>2020-09-08T15:49:29Z</time>
      </trkpt>
      <trkpt lat="44.5085" lon="-0.28078">
        <ele>78.9</ele>
        <time>2020-09-08T15:49:31Z</time>
      </trkpt>
      <trkpt lat="44.50851" lon="-0.28076">
        <ele>78.9</ele>
        <time>2020-09-08T15:49:32Z</time>
      </trkpt>
      <trkpt lat="44.50851" lon="-0.28074">
        <ele>79</ele>
        <time>2020-09-08T15:49:33Z</time>
      </trkpt>
      <trkpt lat="44.50851" lon="-0.2807">
        <ele>79.1</ele>
        <time>2020-09-08T15:49:34Z</time>
      </trkpt>
      <trkpt lat="44.50851" lon="-0.28068">
        <ele>79.1</ele>
        <time>2020-09-08T15:49:35Z</time>
      </trkpt>
      <trkpt lat="44.50852" lon="-0.28065">
        <ele>79.1</ele>
        <time>2020-09-08T15:49:36Z</time>
      </trkpt>
      <trkpt lat="44.50852" lon="-0.28063">
        <ele>79.1</ele>
        <time>2020-09-08T15:49:38Z</time>
      </trkpt>
      <trkpt lat="44.50853" lon="-0.2806">
        <ele>79.2</ele>
        <time>2020-09-08T15:49:39Z</time>
      </trkpt>
      <trkpt lat="44.50853" lon="-0.28058">
        <ele>79.2</ele>
        <time>2020-09-08T15:49:40Z</time>
      </trkpt>
      <trkpt lat="44.50853" lon="-0.28057">
        <ele>79.2</ele>
        <time>2020-09-08T15:49:41Z</time>
      </trkpt>
      <trkpt lat="44.50854" lon="-0.28054">
        <ele>79.2</ele>
        <time>2020-09-08T15:49:43Z</time>
      </trkpt>
      <trkpt lat="44.50855" lon="-0.28051">
        <ele>79.3</ele>
        <time>2020-09-08T15:49:44Z</time>
      </trkpt>
      <trkpt lat="44.50856" lon="-0.28047">
        <ele>79.3</ele>
        <time>2020-09-08T15:49:46Z</time>
      </trkpt>
      <trkpt lat="44.50857" lon="-0.28045">
        <ele>79.4</ele>
        <time>2020-09-08T15:49:47Z</time>
      </trkpt>
      <trkpt lat="44.50857" lon="-0.28043">
        <ele>79.4</ele>
        <time>2020-09-08T15:49:48Z</time>
      </trkpt>
      <trkpt lat="44.50858" lon="-0.28039">
        <ele>79.4</ele>
        <time>2020-09-08T15:49:50Z</time>
      </trkpt>
      <trkpt lat="44.50859" lon="-0.28037">
        <ele>79.4</ele>
        <time>2020-09-08T15:49:51Z</time>
      </trkpt>
      <trkpt lat="44.50859" lon="-0.28034">
        <ele>79.5</ele>
        <time>2020-09-08T15:49:53Z</time>
      </trkpt>
      <trkpt lat="44.5086" lon="-0.28031">
        <ele>79.5</ele>
        <time>2020-09-08T15:49:54Z</time>
      </trkpt>
      <trkpt lat="44.5086" lon="-0.28028">
        <ele>79.6</ele>
        <time>2020-09-08T15:49:56Z</time>
      </trkpt>
      <trkpt lat="44.50861" lon="-0.28025">
        <ele>79.6</ele>
        <time>2020-09-08T15:49:57Z</time>
      </trkpt>
      <trkpt lat="44.50862" lon="-0.28023">
        <ele>79.6</ele>
        <time>2020-09-08T15:49:59Z</time>
      </trkpt>
      <trkpt lat="44.50863" lon="-0.28019">
        <ele>79.7</ele>
        <time>2020-09-08T15:50:00Z</time>
      </trkpt>
      <trkpt lat="44.50863" lon="-0.28018">
        <ele>79.7</ele>
        <time>2020-09-08T15:50:01Z</time>
      </trkpt>
      <trkpt lat="44.50864" lon="-0.28014">
        <ele>79.7</ele>
        <time>2020-09-08T15:50:03Z</time>
      </trkpt>
      <trkpt lat="44.50864" lon="-0.28013">
        <ele>79.7</ele>
        <time>2020-09-08T15:50:04Z</time>
      </trkpt>
      <trkpt lat="44.50865" lon="-0.2801">
        <ele>79.8</ele>
        <time>2020-09-08T15:50:05Z</time>
      </trkpt>
      <trkpt lat="44.50865" lon="-0.28008">
        <ele>79.8</ele>
        <time>2020-09-08T15:50:06Z</time>
      </trkpt>
      <trkpt lat="44.50866" lon="-0.28006">
        <ele>79.8</ele>
        <time>2020-09-08T15:50:08Z</time>
      </trkpt>
      <trkpt lat="44.50866" lon="-0.28004">
        <ele>79.8</ele>
        <time>2020-09-08T15:50:09Z</time>
      </trkpt>
      <trkpt lat="44.50867" lon="-0.28">
        <ele>79.8</ele>
        <time>2020-09-08T15:50:10Z</time>
      </trkpt>
      <trkpt lat="44.50867" lon="-0.27999">
        <ele>79.8</ele>
        <time>2020-09-08T15:50:11Z</time>
      </trkpt>
      <trkpt lat="44.50867" lon="-0.27997">
        <ele>79.9</ele>
        <time>2020-09-08T15:50:12Z</time>
      </trkpt>
      <trkpt lat="44.50867" lon="-0.27995">
        <ele>79.9</ele>
        <time>2020-09-08T15:50:14Z</time>
      </trkpt>
      <trkpt lat="44.50868" lon="-0.27991">
        <ele>79.9</ele>
        <time>2020-09-08T15:50:15Z</time>
      </trkpt>
      <trkpt lat="44.50868" lon="-0.27989">
        <ele>79.9</ele>
        <time>2020-09-08T15:50:17Z</time>
      </trkpt>
      <trkpt lat="44.50869" lon="-0.27986">
        <ele>79.9</ele>
        <time>2020-09-08T15:50:18Z</time>
      </trkpt>
      <trkpt lat="44.50869" lon="-0.27982">
        <ele>79.9</ele>
        <time>2020-09-08T15:50:20Z</time>
      </trkpt>
      <trkpt lat="44.50869" lon="-0.2798">
        <ele>79.9</ele>
        <time>2020-09-08T15:50:21Z</time>
      </trkpt>
      <trkpt lat="44.5087" lon="-0.27978">
        <ele>79.9</ele>
        <time>2020-09-08T15:50:22Z</time>
      </trkpt>
      <trkpt lat="44.5087" lon="-0.27975">
        <ele>79.9</ele>
        <time>2020-09-08T15:50:24Z</time>
      </trkpt>
      <trkpt lat="44.50871" lon="-0.27971">
        <ele>79.9</ele>
        <time>2020-09-08T15:50:26Z</time>
      </trkpt>
      <trkpt lat="44.50872" lon="-0.27968">
        <ele>79.9</ele>
        <time>2020-09-08T15:50:27Z</time>
      </trkpt>
      <trkpt lat="44.50871" lon="-0.27967">
        <ele>79.8</ele>
        <time>2020-09-08T15:50:28Z</time>
      </trkpt>
      <trkpt lat="44.50871" lon="-0.27965">
        <ele>79.8</ele>
        <time>2020-09-08T15:50:29Z</time>
      </trkpt>
      <trkpt lat="44.50871" lon="-0.27962">
        <ele>79.8</ele>
        <time>2020-09-08T15:50:30Z</time>
      </trkpt>
      <trkpt lat="44.50871" lon="-0.27961">
        <ele>79.8</ele>
        <time>2020-09-08T15:50:32Z</time>
      </trkpt>
      <trkpt lat="44.50871" lon="-0.27958">
        <ele>79.8</ele>
        <time>2020-09-08T15:50:33Z</time>
      </trkpt>
      <trkpt lat="44.50871" lon="-0.27956">
        <ele>79.8</ele>
        <time>2020-09-08T15:50:34Z</time>
      </trkpt>
      <trkpt lat="44.50872" lon="-0.27952">
        <ele>79.7</ele>
        <time>2020-09-08T15:50:36Z</time>
      </trkpt>
      <trkpt lat="44.50872" lon="-0.2795">
        <ele>79.7</ele>
        <time>2020-09-08T15:50:37Z</time>
      </trkpt>
      <trkpt lat="44.50872" lon="-0.27946">
        <ele>79.7</ele>
        <time>2020-09-08T15:50:39Z</time>
      </trkpt>
      <trkpt lat="44.50872" lon="-0.27944">
        <ele>79.7</ele>
        <time>2020-09-08T15:50:40Z</time>
      </trkpt>
      <trkpt lat="44.50872" lon="-0.27942">
        <ele>79.7</ele>
        <time>2020-09-08T15:50:41Z</time>
      </trkpt>
      <trkpt lat="44.50872" lon="-0.2794">
        <ele>79.6</ele>
        <time>2020-09-08T15:50:43Z</time>
      </trkpt>
      <trkpt lat="44.50872" lon="-0.27937">
        <ele>79.6</ele>
        <time>2020-09-08T15:50:44Z</time>
      </trkpt>
      <trkpt lat="44.50872" lon="-0.27933">
        <ele>79.5</ele>
        <time>2020-09-08T15:50:46Z</time>
      </trkpt>
      <trkpt lat="44.50871" lon="-0.2793">
        <ele>79.5</ele>
        <time>2020-09-08T15:50:47Z</time>
      </trkpt>
      <trkpt lat="44.50871" lon="-0.27929">
        <ele>79.4</ele>
        <time>2020-09-08T15:50:48Z</time>
      </trkpt>
      <trkpt lat="44.50871" lon="-0.27927">
        <ele>79.4</ele>
        <time>2020-09-08T15:50:49Z</time>
      </trkpt>
      <trkpt lat="44.50871" lon="-0.27923">
        <ele>79.3</ele>
        <time>2020-09-08T15:50:51Z</time>
      </trkpt>
      <trkpt lat="44.5087" lon="-0.27922">
        <ele>79.3</ele>
        <time>2020-09-08T15:50:52Z</time>
      </trkpt>
      <trkpt lat="44.5087" lon="-0.2792">
        <ele>79.3</ele>
        <time>2020-09-08T15:50:54Z</time>
      </trkpt>
      <trkpt lat="44.5087" lon="-0.27918">
        <ele>79.3</ele>
        <time>2020-09-08T15:50:55Z</time>
      </trkpt>
      <trkpt lat="44.50869" lon="-0.27915">
        <ele>79.2</ele>
        <time>2020-09-08T15:50:56Z</time>
      </trkpt>
      <trkpt lat="44.50869" lon="-0.27913">
        <ele>79.2</ele>
        <time>2020-09-08T15:50:57Z</time>
      </trkpt>
      <trkpt lat="44.50869" lon="-0.2791">
        <ele>79.1</ele>
        <time>2020-09-08T15:50:59Z</time>
      </trkpt>
      <trkpt lat="44.50869" lon="-0.27907">
        <ele>79</ele>
        <time>2020-09-08T15:51:00Z</time>
      </trkpt>
      <trkpt lat="44.50868" lon="-0.27905">
        <ele>79</ele>
        <time>2020-09-08T15:51:01Z</time>
      </trkpt>
      <trkpt lat="44.50868" lon="-0.27903">
        <ele>78.9</ele>
        <time>2020-09-08T15:51:03Z</time>
      </trkpt>
      <trkpt lat="44.50868" lon="-0.27901">
        <ele>78.9</ele>
        <time>2020-09-08T15:51:04Z</time>
      </trkpt>
      <trkpt lat="44.50868" lon="-0.27898">
        <ele>78.8</ele>
        <time>2020-09-08T15:51:05Z</time>
      </trkpt>
      <trkpt lat="44.50867" lon="-0.27896">
        <ele>78.8</ele>
        <time>2020-09-08T15:51:06Z</time>
      </trkpt>
      <trkpt lat="44.50867" lon="-0.27893">
        <ele>78.6</ele>
        <time>2020-09-08T15:51:08Z</time>
      </trkpt>
      <trkpt lat="44.50866" lon="-0.27889">
        <ele>78.5</ele>
        <time>2020-09-08T15:51:10Z</time>
      </trkpt>
      <trkpt lat="44.50865" lon="-0.27887">
        <ele>78.5</ele>
        <time>2020-09-08T15:51:11Z</time>
      </trkpt>
      <trkpt lat="44.50865" lon="-0.27885">
        <ele>78.4</ele>
        <time>2020-09-08T15:51:12Z</time>
      </trkpt>
      <trkpt lat="44.50864" lon="-0.27883">
        <ele>78.4</ele>
        <time>2020-09-08T15:51:13Z</time>
      </trkpt>
      <trkpt lat="44.50863" lon="-0.2788">
        <ele>78.2</ele>
        <time>2020-09-08T15:51:15Z</time>
      </trkpt>
      <trkpt lat="44.50862" lon="-0.27876">
        <ele>78.1</ele>
        <time>2020-09-08T15:51:16Z</time>
      </trkpt>
      <trkpt lat="44.50862" lon="-0.27876">
        <ele>78.1</ele>
        <time>2020-09-08T15:51:17Z</time>
      </trkpt>
      <trkpt lat="44.50861" lon="-0.27874">
        <ele>78.1</ele>
        <time>2020-09-08T15:51:18Z</time>
      </trkpt>
      <trkpt lat="44.5086" lon="-0.27872">
        <ele>77.9</ele>
        <time>2020-09-08T15:51:19Z</time>
      </trkpt>
      <trkpt lat="44.50859" lon="-0.27869">
        <ele>77.8</ele>
        <time>2020-09-08T15:51:21Z</time>
      </trkpt>
      <trkpt lat="44.50859" lon="-0.27866">
        <ele>77.8</ele>
        <time>2020-09-08T15:51:22Z</time>
      </trkpt>
      <trkpt lat="44.50859" lon="-0.27865">
        <ele>77.8</ele>
        <time>2020-09-08T15:51:23Z</time>
      </trkpt>
      <trkpt lat="44.50858" lon="-0.27864">
        <ele>77.6</ele>
        <time>2020-09-08T15:51:24Z</time>
      </trkpt>
      <trkpt lat="44.50857" lon="-0.27859">
        <ele>77.4</ele>
        <time>2020-09-08T15:51:26Z</time>
      </trkpt>
      <trkpt lat="44.50857" lon="-0.27857">
        <ele>77.4</ele>
        <time>2020-09-08T15:51:27Z</time>
      </trkpt>
      <trkpt lat="44.50856" lon="-0.27856">
        <ele>77.2</ele>
        <time>2020-09-08T15:51:28Z</time>
      </trkpt>
      <trkpt lat="44.50856" lon="-0.27854">
        <ele>77.2</ele>
        <time>2020-09-08T15:51:29Z</time>
      </trkpt>
      <trkpt lat="44.50855" lon="-0.2785">
        <ele>77.1</ele>
        <time>2020-09-08T15:51:30Z</time>
      </trkpt>
      <trkpt lat="44.50855" lon="-0.2785">
        <ele>77.1</ele>
        <time>2020-09-08T15:51:31Z</time>
      </trkpt>
      <trkpt lat="44.50854" lon="-0.27846">
        <ele>76.9</ele>
        <time>2020-09-08T15:51:32Z</time>
      </trkpt>
      <trkpt lat="44.50853" lon="-0.27844">
        <ele>76.9</ele>
        <time>2020-09-08T15:51:34Z</time>
      </trkpt>
      <trkpt lat="44.50853" lon="-0.27843">
        <ele>76.7</ele>
        <time>2020-09-08T15:51:35Z</time>
      </trkpt>
      <trkpt lat="44.50852" lon="-0.27841">
        <ele>76.7</ele>
        <time>2020-09-08T15:51:36Z</time>
      </trkpt>
      <trkpt lat="44.50851" lon="-0.27837">
        <ele>76.6</ele>
        <time>2020-09-08T15:51:38Z</time>
      </trkpt>
      <trkpt lat="44.5085" lon="-0.27835">
        <ele>76.5</ele>
        <time>2020-09-08T15:51:39Z</time>
      </trkpt>
      <trkpt lat="44.50849" lon="-0.27831">
        <ele>76.4</ele>
        <time>2020-09-08T15:51:41Z</time>
      </trkpt>
      <trkpt lat="44.50848" lon="-0.2783">
        <ele>76.2</ele>
        <time>2020-09-08T15:51:42Z</time>
      </trkpt>
      <trkpt lat="44.50848" lon="-0.27828">
        <ele>76.2</ele>
        <time>2020-09-08T15:51:43Z</time>
      </trkpt>
      <trkpt lat="44.50846" lon="-0.27823">
        <ele>76</ele>
        <time>2020-09-08T15:51:45Z</time>
      </trkpt>
      <trkpt lat="44.50846" lon="-0.27822">
        <ele>75.9</ele>
        <time>2020-09-08T15:51:46Z</time>
      </trkpt>
      <trkpt lat="44.50845" lon="-0.27818">
        <ele>75.9</ele>
        <time>2020-09-08T15:51:47Z</time>
      </trkpt>
      <trkpt lat="44.50845" lon="-0.27816">
        <ele>75.7</ele>
        <time>2020-09-08T15:51:49Z</time>
      </trkpt>
      <trkpt lat="44.50844" lon="-0.27814">
        <ele>75.7</ele>
        <time>2020-09-08T15:51:50Z</time>
      </trkpt>
      <trkpt lat="44.50843" lon="-0.27811">
        <ele>75.6</ele>
        <time>2020-09-08T15:51:51Z</time>
      </trkpt>
      <trkpt lat="44.50843" lon="-0.27809">
        <ele>75.4</ele>
        <time>2020-09-08T15:51:53Z</time>
      </trkpt>
      <trkpt lat="44.50843" lon="-0.27807">
        <ele>75.4</ele>
        <time>2020-09-08T15:51:54Z</time>
      </trkpt>
      <trkpt lat="44.50842" lon="-0.27804">
        <ele>75.3</ele>
        <time>2020-09-08T15:51:55Z</time>
      </trkpt>
      <trkpt lat="44.50841" lon="-0.27803">
        <ele>75.3</ele>
        <time>2020-09-08T15:51:57Z</time>
      </trkpt>
      <trkpt lat="44.5084" lon="-0.27799">
        <ele>75.2</ele>
        <time>2020-09-08T15:51:58Z</time>
      </trkpt>
      <trkpt lat="44.5084" lon="-0.27798">
        <ele>75.2</ele>
        <time>2020-09-08T15:51:59Z</time>
      </trkpt>
      <trkpt lat="44.50839" lon="-0.27794">
        <ele>75</ele>
        <time>2020-09-08T15:52:01Z</time>
      </trkpt>
      <trkpt lat="44.50838" lon="-0.27792">
        <ele>75</ele>
        <time>2020-09-08T15:52:03Z</time>
      </trkpt>
      <trkpt lat="44.50837" lon="-0.27789">
        <ele>74.9</ele>
        <time>2020-09-08T15:52:04Z</time>
      </trkpt>
      <trkpt lat="44.50837" lon="-0.27787">
        <ele>74.8</ele>
        <time>2020-09-08T15:52:05Z</time>
      </trkpt>
      <trkpt lat="44.50837" lon="-0.27785">
        <ele>74.8</ele>
        <time>2020-09-08T15:52:06Z</time>
      </trkpt>
      <trkpt lat="44.50836" lon="-0.27784">
        <ele>74.8</ele>
        <time>2020-09-08T15:52:07Z</time>
      </trkpt>
      <trkpt lat="44.50835" lon="-0.27781">
        <ele>74.7</ele>
        <time>2020-09-08T15:52:09Z</time>
      </trkpt>
      <trkpt lat="44.50835" lon="-0.27778">
        <ele>74.7</ele>
        <time>2020-09-08T15:52:10Z</time>
      </trkpt>
      <trkpt lat="44.50834" lon="-0.27776">
        <ele>74.7</ele>
        <time>2020-09-08T15:52:12Z</time>
      </trkpt>
      <trkpt lat="44.50834" lon="-0.27774">
        <ele>74.6</ele>
        <time>2020-09-08T15:52:13Z</time>
      </trkpt>
      <trkpt lat="44.50833" lon="-0.27773">
        <ele>74.6</ele>
        <time>2020-09-08T15:52:14Z</time>
      </trkpt>
      <trkpt lat="44.50833" lon="-0.27771">
        <ele>74.6</ele>
        <time>2020-09-08T15:52:15Z</time>
      </trkpt>
      <trkpt lat="44.50832" lon="-0.27769">
        <ele>74.5</ele>
        <time>2020-09-08T15:52:16Z</time>
      </trkpt>
      <trkpt lat="44.50832" lon="-0.27767">
        <ele>74.5</ele>
        <time>2020-09-08T15:52:18Z</time>
      </trkpt>
      <trkpt lat="44.50831" lon="-0.27765">
        <ele>74.4</ele>
        <time>2020-09-08T15:52:19Z</time>
      </trkpt>
      <trkpt lat="44.5083" lon="-0.27762">
        <ele>74.4</ele>
        <time>2020-09-08T15:52:21Z</time>
      </trkpt>
      <trkpt lat="44.5083" lon="-0.27761">
        <ele>74.3</ele>
        <time>2020-09-08T15:52:22Z</time>
      </trkpt>
      <trkpt lat="44.5083" lon="-0.27759">
        <ele>74.3</ele>
        <time>2020-09-08T15:52:23Z</time>
      </trkpt>
      <trkpt lat="44.50829" lon="-0.27758">
        <ele>74.3</ele>
        <time>2020-09-08T15:52:24Z</time>
      </trkpt>
      <trkpt lat="44.50829" lon="-0.27756">
        <ele>74.3</ele>
        <time>2020-09-08T15:52:25Z</time>
      </trkpt>
      <trkpt lat="44.50828" lon="-0.27753">
        <ele>74.2</ele>
        <time>2020-09-08T15:52:27Z</time>
      </trkpt>
      <trkpt lat="44.50827" lon="-0.2775">
        <ele>74.2</ele>
        <time>2020-09-08T15:52:28Z</time>
      </trkpt>
      <trkpt lat="44.50827" lon="-0.27749">
        <ele>74.2</ele>
        <time>2020-09-08T15:52:29Z</time>
      </trkpt>
      <trkpt lat="44.50827" lon="-0.27748">
        <ele>74.2</ele>
        <time>2020-09-08T15:52:30Z</time>
      </trkpt>
      <trkpt lat="44.50826" lon="-0.27745">
        <ele>74.1</ele>
        <time>2020-09-08T15:52:32Z</time>
      </trkpt>
      <trkpt lat="44.50826" lon="-0.27743">
        <ele>74.1</ele>
        <time>2020-09-08T15:52:33Z</time>
      </trkpt>
      <trkpt lat="44.50826" lon="-0.27742">
        <ele>74.1</ele>
        <time>2020-09-08T15:52:34Z</time>
      </trkpt>
      <trkpt lat="44.50826" lon="-0.2774">
        <ele>74.1</ele>
        <time>2020-09-08T15:52:35Z</time>
      </trkpt>
      <trkpt lat="44.50825" lon="-0.27737">
        <ele>74.1</ele>
        <time>2020-09-08T15:52:37Z</time>
      </trkpt>
      <trkpt lat="44.50824" lon="-0.27735">
        <ele>74</ele>
        <time>2020-09-08T15:52:38Z</time>
      </trkpt>
      <trkpt lat="44.50824" lon="-0.27734">
        <ele>74</ele>
        <time>2020-09-08T15:52:39Z</time>
      </trkpt>
      <trkpt lat="44.50823" lon="-0.27732">
        <ele>74</ele>
        <time>2020-09-08T15:52:40Z</time>
      </trkpt>
      <trkpt lat="44.50823" lon="-0.27729">
        <ele>74</ele>
        <time>2020-09-08T15:52:42Z</time>
      </trkpt>
      <trkpt lat="44.50822" lon="-0.27728">
        <ele>74</ele>
        <time>2020-09-08T15:52:43Z</time>
      </trkpt>
      <trkpt lat="44.50822" lon="-0.27725">
        <ele>74</ele>
        <time>2020-09-08T15:52:44Z</time>
      </trkpt>
      <trkpt lat="44.50822" lon="-0.27723">
        <ele>73.9</ele>
        <time>2020-09-08T15:52:45Z</time>
      </trkpt>
      <trkpt lat="44.50821" lon="-0.27722">
        <ele>73.9</ele>
        <time>2020-09-08T15:52:46Z</time>
      </trkpt>
      <trkpt lat="44.50821" lon="-0.2772">
        <ele>73.9</ele>
        <time>2020-09-08T15:52:47Z</time>
      </trkpt>
      <trkpt lat="44.50821" lon="-0.27718">
        <ele>73.9</ele>
        <time>2020-09-08T15:52:48Z</time>
      </trkpt>
      <trkpt lat="44.50821" lon="-0.27717">
        <ele>73.9</ele>
        <time>2020-09-08T15:52:50Z</time>
      </trkpt>
      <trkpt lat="44.5082" lon="-0.27713">
        <ele>73.8</ele>
        <time>2020-09-08T15:52:51Z</time>
      </trkpt>
      <trkpt lat="44.5082" lon="-0.27712">
        <ele>73.8</ele>
        <time>2020-09-08T15:52:53Z</time>
      </trkpt>
      <trkpt lat="44.5082" lon="-0.27709">
        <ele>73.8</ele>
        <time>2020-09-08T15:52:54Z</time>
      </trkpt>
      <trkpt lat="44.5082" lon="-0.27708">
        <ele>73.9</ele>
        <time>2020-09-08T15:52:55Z</time>
      </trkpt>
      <trkpt lat="44.50819" lon="-0.27705">
        <ele>73.8</ele>
        <time>2020-09-08T15:52:57Z</time>
      </trkpt>
      <trkpt lat="44.50819" lon="-0.27704">
        <ele>73.8</ele>
        <time>2020-09-08T15:52:58Z</time>
      </trkpt>
      <trkpt lat="44.50819" lon="-0.27699">
        <ele>73.8</ele>
        <time>2020-09-08T15:52:59Z</time>
      </trkpt>
      <trkpt lat="44.50819" lon="-0.27697">
        <ele>73.8</ele>
        <time>2020-09-08T15:53:01Z</time>
      </trkpt>
      <trkpt lat="44.50819" lon="-0.27696">
        <ele>73.8</ele>
        <time>2020-09-08T15:53:02Z</time>
      </trkpt>
      <trkpt lat="44.50819" lon="-0.27694">
        <ele>73.8</ele>
        <time>2020-09-08T15:53:03Z</time>
      </trkpt>
      <trkpt lat="44.50819" lon="-0.27692">
        <ele>73.7</ele>
        <time>2020-09-08T15:53:05Z</time>
      </trkpt>
      <trkpt lat="44.50819" lon="-0.27688">
        <ele>73.7</ele>
        <time>2020-09-08T15:53:07Z</time>
      </trkpt>
      <trkpt lat="44.50818" lon="-0.27686">
        <ele>73.7</ele>
        <time>2020-09-08T15:53:08Z</time>
      </trkpt>
      <trkpt lat="44.50818" lon="-0.27684">
        <ele>73.7</ele>
        <time>2020-09-08T15:53:09Z</time>
      </trkpt>
      <trkpt lat="44.50818" lon="-0.27682">
        <ele>73.7</ele>
        <time>2020-09-08T15:53:10Z</time>
      </trkpt>
      <trkpt lat="44.50818" lon="-0.27679">
        <ele>73.6</ele>
        <time>2020-09-08T15:53:12Z</time>
      </trkpt>
      <trkpt lat="44.50818" lon="-0.27677">
        <ele>73.6</ele>
        <time>2020-09-08T15:53:13Z</time>
      </trkpt>
      <trkpt lat="44.50817" lon="-0.27675">
        <ele>73.6</ele>
        <time>2020-09-08T15:53:14Z</time>
      </trkpt>
      <trkpt lat="44.50817" lon="-0.27672">
        <ele>73.6</ele>
        <time>2020-09-08T15:53:15Z</time>
      </trkpt>
      <trkpt lat="44.50817" lon="-0.27669">
        <ele>73.6</ele>
        <time>2020-09-08T15:53:17Z</time>
      </trkpt>
      <trkpt lat="44.50816" lon="-0.27667">
        <ele>73.5</ele>
        <time>2020-09-08T15:53:18Z</time>
      </trkpt>
      <trkpt lat="44.50816" lon="-0.27664">
        <ele>73.5</ele>
        <time>2020-09-08T15:53:20Z</time>
      </trkpt>
      <trkpt lat="44.50816" lon="-0.27661">
        <ele>73.5</ele>
        <time>2020-09-08T15:53:21Z</time>
      </trkpt>
      <trkpt lat="44.50815" lon="-0.27659">
        <ele>73.5</ele>
        <time>2020-09-08T15:53:23Z</time>
      </trkpt>
      <trkpt lat="44.50815" lon="-0.27656">
        <ele>73.5</ele>
        <time>2020-09-08T15:53:24Z</time>
      </trkpt>
      <trkpt lat="44.50815" lon="-0.27653">
        <ele>73.4</ele>
        <time>2020-09-08T15:53:26Z</time>
      </trkpt>
      <trkpt lat="44.50815" lon="-0.2765">
        <ele>73.4</ele>
        <time>2020-09-08T15:53:27Z</time>
      </trkpt>
      <trkpt lat="44.50815" lon="-0.27647">
        <ele>73.4</ele>
        <time>2020-09-08T15:53:29Z</time>
      </trkpt>
      <trkpt lat="44.50815" lon="-0.27643">
        <ele>73.4</ele>
        <time>2020-09-08T15:53:30Z</time>
      </trkpt>
      <trkpt lat="44.50815" lon="-0.27641">
        <ele>73.3</ele>
        <time>2020-09-08T15:53:31Z</time>
      </trkpt>
      <trkpt lat="44.50815" lon="-0.27639">
        <ele>73.3</ele>
        <time>2020-09-08T15:53:32Z</time>
      </trkpt>
      <trkpt lat="44.50814" lon="-0.27637">
        <ele>73.3</ele>
        <time>2020-09-08T15:53:34Z</time>
      </trkpt>
      <trkpt lat="44.50814" lon="-0.27636">
        <ele>73.3</ele>
        <time>2020-09-08T15:53:35Z</time>
      </trkpt>
      <trkpt lat="44.50814" lon="-0.27634">
        <ele>73.3</ele>
        <time>2020-09-08T15:53:36Z</time>
      </trkpt>
      <trkpt lat="44.50813" lon="-0.27631">
        <ele>73.2</ele>
        <time>2020-09-08T15:53:37Z</time>
      </trkpt>
      <trkpt lat="44.50813" lon="-0.27627">
        <ele>73.2</ele>
        <time>2020-09-08T15:53:39Z</time>
      </trkpt>
      <trkpt lat="44.50812" lon="-0.27626">
        <ele>73.2</ele>
        <time>2020-09-08T15:53:40Z</time>
      </trkpt>
      <trkpt lat="44.50812" lon="-0.27622">
        <ele>73.1</ele>
        <time>2020-09-08T15:53:42Z</time>
      </trkpt>
      <trkpt lat="44.50812" lon="-0.27621">
        <ele>73.1</ele>
        <time>2020-09-08T15:53:43Z</time>
      </trkpt>
      <trkpt lat="44.50811" lon="-0.27617">
        <ele>73.1</ele>
        <time>2020-09-08T15:53:44Z</time>
      </trkpt>
      <trkpt lat="44.50811" lon="-0.27616">
        <ele>73.1</ele>
        <time>2020-09-08T15:53:45Z</time>
      </trkpt>
      <trkpt lat="44.5081" lon="-0.27614">
        <ele>73.1</ele>
        <time>2020-09-08T15:53:46Z</time>
      </trkpt>
      <trkpt lat="44.5081" lon="-0.27613">
        <ele>73.1</ele>
        <time>2020-09-08T15:53:47Z</time>
      </trkpt>
      <trkpt lat="44.5081" lon="-0.2761">
        <ele>73</ele>
        <time>2020-09-08T15:53:49Z</time>
      </trkpt>
      <trkpt lat="44.5081" lon="-0.27608">
        <ele>73</ele>
        <time>2020-09-08T15:53:50Z</time>
      </trkpt>
      <trkpt lat="44.5081" lon="-0.27605">
        <ele>73</ele>
        <time>2020-09-08T15:53:52Z</time>
      </trkpt>
      <trkpt lat="44.5081" lon="-0.27603">
        <ele>73</ele>
        <time>2020-09-08T15:53:53Z</time>
      </trkpt>
      <trkpt lat="44.5081" lon="-0.276">
        <ele>73</ele>
        <time>2020-09-08T15:53:55Z</time>
      </trkpt>
      <trkpt lat="44.5081" lon="-0.27599">
        <ele>72.9</ele>
        <time>2020-09-08T15:53:56Z</time>
      </trkpt>
      <trkpt lat="44.50811" lon="-0.27596">
        <ele>72.9</ele>
        <time>2020-09-08T15:53:57Z</time>
      </trkpt>
      <trkpt lat="44.50811" lon="-0.27594">
        <ele>72.8</ele>
        <time>2020-09-08T15:53:58Z</time>
      </trkpt>
      <trkpt lat="44.50812" lon="-0.27593">
        <ele>72.8</ele>
        <time>2020-09-08T15:53:59Z</time>
      </trkpt>
      <trkpt lat="44.50813" lon="-0.27593">
        <ele>72.8</ele>
        <time>2020-09-08T15:54:00Z</time>
      </trkpt>
      <trkpt lat="44.50816" lon="-0.27594">
        <ele>72.8</ele>
        <time>2020-09-08T15:54:02Z</time>
      </trkpt>
      <trkpt lat="44.50817" lon="-0.27595">
        <ele>72.8</ele>
        <time>2020-09-08T15:54:03Z</time>
      </trkpt>
      <trkpt lat="44.50818" lon="-0.27596">
        <ele>72.8</ele>
        <time>2020-09-08T15:54:04Z</time>
      </trkpt>
      <trkpt lat="44.5082" lon="-0.27596">
        <ele>72.7</ele>
        <time>2020-09-08T15:54:06Z</time>
      </trkpt>
      <trkpt lat="44.50822" lon="-0.27596">
        <ele>72.7</ele>
        <time>2020-09-08T15:54:07Z</time>
      </trkpt>
      <trkpt lat="44.50824" lon="-0.27597">
        <ele>72.6</ele>
        <time>2020-09-08T15:54:08Z</time>
      </trkpt>
      <trkpt lat="44.50826" lon="-0.27596">
        <ele>72.4</ele>
        <time>2020-09-08T15:54:09Z</time>
      </trkpt>
      <trkpt lat="44.50827" lon="-0.27596">
        <ele>72.4</ele>
        <time>2020-09-08T15:54:10Z</time>
      </trkpt>
      <trkpt lat="44.50828" lon="-0.27595">
        <ele>72.4</ele>
        <time>2020-09-08T15:54:11Z</time>
      </trkpt>
      <trkpt lat="44.5083" lon="-0.27595">
        <ele>72.2</ele>
        <time>2020-09-08T15:54:12Z</time>
      </trkpt>
      <trkpt lat="44.50832" lon="-0.27594">
        <ele>72.2</ele>
        <time>2020-09-08T15:54:14Z</time>
      </trkpt>
      <trkpt lat="44.50833" lon="-0.27594">
        <ele>71.9</ele>
        <time>2020-09-08T15:54:15Z</time>
      </trkpt>
      <trkpt lat="44.50834" lon="-0.27593">
        <ele>71.9</ele>
        <time>2020-09-08T15:54:16Z</time>
      </trkpt>
      <trkpt lat="44.50837" lon="-0.27592">
        <ele>71.7</ele>
        <time>2020-09-08T15:54:18Z</time>
      </trkpt>
      <trkpt lat="44.50838" lon="-0.27592">
        <ele>71.7</ele>
        <time>2020-09-08T15:54:19Z</time>
      </trkpt>
      <trkpt lat="44.50839" lon="-0.27591">
        <ele>71.4</ele>
        <time>2020-09-08T15:54:20Z</time>
      </trkpt>
      <trkpt lat="44.50841" lon="-0.2759">
        <ele>71.3</ele>
        <time>2020-09-08T15:54:21Z</time>
      </trkpt>
      <trkpt lat="44.50843" lon="-0.27588">
        <ele>71.1</ele>
        <time>2020-09-08T15:54:23Z</time>
      </trkpt>
      <trkpt lat="44.50844" lon="-0.27586">
        <ele>70.8</ele>
        <time>2020-09-08T15:54:24Z</time>
      </trkpt>
      <trkpt lat="44.50846" lon="-0.27584">
        <ele>70.7</ele>
        <time>2020-09-08T15:54:25Z</time>
      </trkpt>
      <trkpt lat="44.50847" lon="-0.27581">
        <ele>70.5</ele>
        <time>2020-09-08T15:54:27Z</time>
      </trkpt>
      <trkpt lat="44.50848" lon="-0.27579">
        <ele>70.3</ele>
        <time>2020-09-08T15:54:29Z</time>
      </trkpt>
      <trkpt lat="44.50849" lon="-0.27577">
        <ele>70.1</ele>
        <time>2020-09-08T15:54:30Z</time>
      </trkpt>
      <trkpt lat="44.50849" lon="-0.27573">
        <ele>70</ele>
        <time>2020-09-08T15:54:31Z</time>
      </trkpt>
      <trkpt lat="44.50849" lon="-0.27571">
        <ele>70</ele>
        <time>2020-09-08T15:54:32Z</time>
      </trkpt>
      <trkpt lat="44.50847" lon="-0.27568">
        <ele>70.1</ele>
        <time>2020-09-08T15:54:34Z</time>
      </trkpt>
      <trkpt lat="44.50846" lon="-0.27566">
        <ele>70.1</ele>
        <time>2020-09-08T15:54:36Z</time>
      </trkpt>
      <trkpt lat="44.50844" lon="-0.27563">
        <ele>70.3</ele>
        <time>2020-09-08T15:54:37Z</time>
      </trkpt>
      <trkpt lat="44.50843" lon="-0.27561">
        <ele>70.3</ele>
        <time>2020-09-08T15:54:39Z</time>
      </trkpt>
      <trkpt lat="44.50842" lon="-0.27559">
        <ele>70.1</ele>
        <time>2020-09-08T15:54:40Z</time>
      </trkpt>
      <trkpt lat="44.5084" lon="-0.27557">
        <ele>70.4</ele>
        <time>2020-09-08T15:54:41Z</time>
      </trkpt>
      <trkpt lat="44.50839" lon="-0.27556">
        <ele>70.3</ele>
        <time>2020-09-08T15:54:42Z</time>
      </trkpt>
      <trkpt lat="44.50838" lon="-0.27555">
        <ele>70.5</ele>
        <time>2020-09-08T15:54:43Z</time>
      </trkpt>
      <trkpt lat="44.50837" lon="-0.27554">
        <ele>70.5</ele>
        <time>2020-09-08T15:54:44Z</time>
      </trkpt>
      <trkpt lat="44.50836" lon="-0.27553">
        <ele>70.5</ele>
        <time>2020-09-08T15:54:46Z</time>
      </trkpt>
      <trkpt lat="44.50834" lon="-0.27551">
        <ele>70.6</ele>
        <time>2020-09-08T15:54:47Z</time>
      </trkpt>
      <trkpt lat="44.50833" lon="-0.27551">
        <ele>70.6</ele>
        <time>2020-09-08T15:54:48Z</time>
      </trkpt>
      <trkpt lat="44.50833" lon="-0.2755">
        <ele>70.6</ele>
        <time>2020-09-08T15:54:49Z</time>
      </trkpt>
      <trkpt lat="44.50832" lon="-0.27548">
        <ele>70.6</ele>
        <time>2020-09-08T15:54:51Z</time>
      </trkpt>
      <trkpt lat="44.50833" lon="-0.27546">
        <ele>70.5</ele>
        <time>2020-09-08T15:54:52Z</time>
      </trkpt>
      <trkpt lat="44.50833" lon="-0.27545">
        <ele>70.5</ele>
        <time>2020-09-08T15:54:53Z</time>
      </trkpt>
      <trkpt lat="44.50834" lon="-0.27543">
        <ele>70.5</ele>
        <time>2020-09-08T15:54:54Z</time>
      </trkpt>
      <trkpt lat="44.50834" lon="-0.27542">
        <ele>70.3</ele>
        <time>2020-09-08T15:54:55Z</time>
      </trkpt>
      <trkpt lat="44.50835" lon="-0.2754">
        <ele>70.3</ele>
        <time>2020-09-08T15:54:56Z</time>
      </trkpt>
      <trkpt lat="44.50835" lon="-0.27539">
        <ele>69.8</ele>
        <time>2020-09-08T15:54:58Z</time>
      </trkpt>
      <trkpt lat="44.50836" lon="-0.27538">
        <ele>69.8</ele>
        <time>2020-09-08T15:54:59Z</time>
      </trkpt>
      <trkpt lat="44.50836" lon="-0.27537">
        <ele>69.8</ele>
        <time>2020-09-08T15:55:00Z</time>
      </trkpt>
      <trkpt lat="44.50836" lon="-0.27536">
        <ele>69.8</ele>
        <time>2020-09-08T15:55:01Z</time>
      </trkpt>
      <trkpt lat="44.50837" lon="-0.27535">
        <ele>69.8</ele>
        <time>2020-09-08T15:55:02Z</time>
      </trkpt>
      <trkpt lat="44.50838" lon="-0.27535">
        <ele>69.5</ele>
        <time>2020-09-08T15:55:04Z</time>
      </trkpt>
      <trkpt lat="44.5084" lon="-0.27533">
        <ele>69.3</ele>
        <time>2020-09-08T15:55:05Z</time>
      </trkpt>
      <trkpt lat="44.50842" lon="-0.27532">
        <ele>69</ele>
        <time>2020-09-08T15:55:06Z</time>
      </trkpt>
      <trkpt lat="44.50843" lon="-0.27531">
        <ele>69</ele>
        <time>2020-09-08T15:55:07Z</time>
      </trkpt>
      <trkpt lat="44.50842" lon="-0.27529">
        <ele>68.8</ele>
        <time>2020-09-08T15:55:09Z</time>
      </trkpt>
      <trkpt lat="44.50842" lon="-0.27528">
        <ele>68.8</ele>
        <time>2020-09-08T15:55:10Z</time>
      </trkpt>
      <trkpt lat="44.50841" lon="-0.27526">
        <ele>68.9</ele>
        <time>2020-09-08T15:55:11Z</time>
      </trkpt>
      <trkpt lat="44.5084" lon="-0.27523">
        <ele>68.9</ele>
        <time>2020-09-08T15:55:12Z</time>
      </trkpt>
      <trkpt lat="44.50839" lon="-0.27521">
        <ele>68.7</ele>
        <time>2020-09-08T15:55:13Z</time>
      </trkpt>
      <trkpt lat="44.50838" lon="-0.27521">
        <ele>69</ele>
        <time>2020-09-08T15:55:14Z</time>
      </trkpt>
      <trkpt lat="44.50837" lon="-0.2752">
        <ele>69</ele>
        <time>2020-09-08T15:55:15Z</time>
      </trkpt>
      <trkpt lat="44.50836" lon="-0.27517">
        <ele>68.8</ele>
        <time>2020-09-08T15:55:17Z</time>
      </trkpt>
      <trkpt lat="44.50835" lon="-0.27516">
        <ele>69.1</ele>
        <time>2020-09-08T15:55:18Z</time>
      </trkpt>
      <trkpt lat="44.50833" lon="-0.27515">
        <ele>69.1</ele>
        <time>2020-09-08T15:55:19Z</time>
      </trkpt>
      <trkpt lat="44.50832" lon="-0.27514">
        <ele>69.1</ele>
        <time>2020-09-08T15:55:21Z</time>
      </trkpt>
      <trkpt lat="44.50831" lon="-0.27513">
        <ele>69.2</ele>
        <time>2020-09-08T15:55:22Z</time>
      </trkpt>
      <trkpt lat="44.50831" lon="-0.27513">
        <ele>69.2</ele>
        <time>2020-09-08T15:55:23Z</time>
      </trkpt>
      <trkpt lat="44.50832" lon="-0.27511">
        <ele>69.2</ele>
        <time>2020-09-08T15:55:25Z</time>
      </trkpt>
      <trkpt lat="44.50833" lon="-0.2751">
        <ele>68.9</ele>
        <time>2020-09-08T15:55:26Z</time>
      </trkpt>
      <trkpt lat="44.50834" lon="-0.27508">
        <ele>68.7</ele>
        <time>2020-09-08T15:55:28Z</time>
      </trkpt>
      <trkpt lat="44.50835" lon="-0.27507">
        <ele>68.7</ele>
        <time>2020-09-08T15:55:29Z</time>
      </trkpt>
      <trkpt lat="44.50836" lon="-0.27506">
        <ele>68.4</ele>
        <time>2020-09-08T15:55:30Z</time>
      </trkpt>
      <trkpt lat="44.50837" lon="-0.27505">
        <ele>68.4</ele>
        <time>2020-09-08T15:55:31Z</time>
      </trkpt>
      <trkpt lat="44.50837" lon="-0.27504">
        <ele>68.2</ele>
        <time>2020-09-08T15:55:32Z</time>
      </trkpt>
      <trkpt lat="44.50838" lon="-0.27503">
        <ele>67.9</ele>
        <time>2020-09-08T15:55:34Z</time>
      </trkpt>
      <trkpt lat="44.50839" lon="-0.27501">
        <ele>67.9</ele>
        <time>2020-09-08T15:55:35Z</time>
      </trkpt>
      <trkpt lat="44.5084" lon="-0.275">
        <ele>67.6</ele>
        <time>2020-09-08T15:55:37Z</time>
      </trkpt>
      <trkpt lat="44.50841" lon="-0.27498">
        <ele>67.6</ele>
        <time>2020-09-08T15:55:38Z</time>
      </trkpt>
      <trkpt lat="44.50841" lon="-0.27496">
        <ele>67.6</ele>
        <time>2020-09-08T15:55:39Z</time>
      </trkpt>
      <trkpt lat="44.50842" lon="-0.27495">
        <ele>67.1</ele>
        <time>2020-09-08T15:55:40Z</time>
      </trkpt>
      <trkpt lat="44.50842" lon="-0.27494">
        <ele>67.1</ele>
        <time>2020-09-08T15:55:41Z</time>
      </trkpt>
      <trkpt lat="44.50842" lon="-0.27492">
        <ele>67.1</ele>
        <time>2020-09-08T15:55:42Z</time>
      </trkpt>
      <trkpt lat="44.50842" lon="-0.27491">
        <ele>66.8</ele>
        <time>2020-09-08T15:55:43Z</time>
      </trkpt>
      <trkpt lat="44.50843" lon="-0.2749">
        <ele>66.8</ele>
        <time>2020-09-08T15:55:44Z</time>
      </trkpt>
      <trkpt lat="44.50843" lon="-0.27487">
        <ele>66.8</ele>
        <time>2020-09-08T15:55:45Z</time>
      </trkpt>
      <trkpt lat="44.50843" lon="-0.27486">
        <ele>66.6</ele>
        <time>2020-09-08T15:55:47Z</time>
      </trkpt>
      <trkpt lat="44.50844" lon="-0.27483">
        <ele>66.6</ele>
        <time>2020-09-08T15:55:48Z</time>
      </trkpt>
      <trkpt lat="44.50844" lon="-0.27482">
        <ele>66.1</ele>
        <time>2020-09-08T15:55:49Z</time>
      </trkpt>
      <trkpt lat="44.50845" lon="-0.2748">
        <ele>66.1</ele>
        <time>2020-09-08T15:55:51Z</time>
      </trkpt>
      <trkpt lat="44.50845" lon="-0.27479">
        <ele>65.8</ele>
        <time>2020-09-08T15:55:52Z</time>
      </trkpt>
      <trkpt lat="44.50845" lon="-0.27477">
        <ele>65.8</ele>
        <time>2020-09-08T15:55:53Z</time>
      </trkpt>
      <trkpt lat="44.50846" lon="-0.27475">
        <ele>65.8</ele>
        <time>2020-09-08T15:55:54Z</time>
      </trkpt>
      <trkpt lat="44.50846" lon="-0.27474">
        <ele>65.6</ele>
        <time>2020-09-08T15:55:55Z</time>
      </trkpt>
      <trkpt lat="44.50846" lon="-0.27472">
        <ele>65.6</ele>
        <time>2020-09-08T15:55:56Z</time>
      </trkpt>
      <trkpt lat="44.50846" lon="-0.27471">
        <ele>65.6</ele>
        <time>2020-09-08T15:55:58Z</time>
      </trkpt>
      <trkpt lat="44.50846" lon="-0.27469">
        <ele>65.4</ele>
        <time>2020-09-08T15:55:59Z</time>
      </trkpt>
      <trkpt lat="44.50846" lon="-0.27467">
        <ele>65.4</ele>
        <time>2020-09-08T15:56:00Z</time>
      </trkpt>
      <trkpt lat="44.50847" lon="-0.27465">
        <ele>65</ele>
        <time>2020-09-08T15:56:02Z</time>
      </trkpt>
      <trkpt lat="44.50847" lon="-0.27463">
        <ele>65</ele>
        <time>2020-09-08T15:56:03Z</time>
      </trkpt>
      <trkpt lat="44.50847" lon="-0.27461">
        <ele>64.7</ele>
        <time>2020-09-08T15:56:04Z</time>
      </trkpt>
      <trkpt lat="44.50847" lon="-0.27458">
        <ele>64.7</ele>
        <time>2020-09-08T15:56:06Z</time>
      </trkpt>
      <trkpt lat="44.50847" lon="-0.27456">
        <ele>64.4</ele>
        <time>2020-09-08T15:56:07Z</time>
      </trkpt>
      <trkpt lat="44.50847" lon="-0.27453">
        <ele>64.1</ele>
        <time>2020-09-08T15:56:09Z</time>
      </trkpt>
      <trkpt lat="44.50846" lon="-0.27449">
        <ele>64.1</ele>
        <time>2020-09-08T15:56:11Z</time>
      </trkpt>
      <trkpt lat="44.50846" lon="-0.27447">
        <ele>63.9</ele>
        <time>2020-09-08T15:56:12Z</time>
      </trkpt>
      <trkpt lat="44.50845" lon="-0.27443">
        <ele>63.6</ele>
        <time>2020-09-08T15:56:14Z</time>
      </trkpt>
      <trkpt lat="44.50844" lon="-0.27443">
        <ele>63.9</ele>
        <time>2020-09-08T15:56:15Z</time>
      </trkpt>
      <trkpt lat="44.50843" lon="-0.27441">
        <ele>63.9</ele>
        <time>2020-09-08T15:56:16Z</time>
      </trkpt>
      <trkpt lat="44.50842" lon="-0.2744">
        <ele>63.9</ele>
        <time>2020-09-08T15:56:17Z</time>
      </trkpt>
      <trkpt lat="44.50841" lon="-0.27439">
        <ele>63.9</ele>
        <time>2020-09-08T15:56:19Z</time>
      </trkpt>
      <trkpt lat="44.5084" lon="-0.27437">
        <ele>63.9</ele>
        <time>2020-09-08T15:56:20Z</time>
      </trkpt>
      <trkpt lat="44.5084" lon="-0.27436">
        <ele>63.9</ele>
        <time>2020-09-08T15:56:21Z</time>
      </trkpt>
      <trkpt lat="44.5084" lon="-0.27436">
        <ele>63.7</ele>
        <time>2020-09-08T15:56:23Z</time>
      </trkpt>
      <trkpt lat="44.50839" lon="-0.27435">
        <ele>63.7</ele>
        <time>2020-09-08T15:56:24Z</time>
      </trkpt>
      <trkpt lat="44.50839" lon="-0.27434">
        <ele>63.7</ele>
        <time>2020-09-08T15:56:25Z</time>
      </trkpt>
      <trkpt lat="44.50839" lon="-0.27433">
        <ele>63.7</ele>
        <time>2020-09-08T15:56:26Z</time>
      </trkpt>
      <trkpt lat="44.50838" lon="-0.27431">
        <ele>63.7</ele>
        <time>2020-09-08T15:56:27Z</time>
      </trkpt>
      <trkpt lat="44.50837" lon="-0.27429">
        <ele>63.7</ele>
        <time>2020-09-08T15:56:29Z</time>
      </trkpt>
      <trkpt lat="44.50836" lon="-0.27427">
        <ele>63.5</ele>
        <time>2020-09-08T15:56:30Z</time>
      </trkpt>
      <trkpt lat="44.50836" lon="-0.27426">
        <ele>63.5</ele>
        <time>2020-09-08T15:56:31Z</time>
      </trkpt>
      <trkpt lat="44.50835" lon="-0.27425">
        <ele>63.5</ele>
        <time>2020-09-08T15:56:32Z</time>
      </trkpt>
      <trkpt lat="44.50835" lon="-0.27424">
        <ele>63.8</ele>
        <time>2020-09-08T15:56:33Z</time>
      </trkpt>
      <trkpt lat="44.50834" lon="-0.27422">
        <ele>63.5</ele>
        <time>2020-09-08T15:56:34Z</time>
      </trkpt>
      <trkpt lat="44.50833" lon="-0.2742">
        <ele>63.5</ele>
        <time>2020-09-08T15:56:35Z</time>
      </trkpt>
      <trkpt lat="44.50832" lon="-0.27419">
        <ele>63.5</ele>
        <time>2020-09-08T15:56:36Z</time>
      </trkpt>
      <trkpt lat="44.50832" lon="-0.27418">
        <ele>63.5</ele>
        <time>2020-09-08T15:56:37Z</time>
      </trkpt>
      <trkpt lat="44.50831" lon="-0.27417">
        <ele>63.5</ele>
        <time>2020-09-08T15:56:39Z</time>
      </trkpt>
      <trkpt lat="44.5083" lon="-0.27415">
        <ele>63.5</ele>
        <time>2020-09-08T15:56:40Z</time>
      </trkpt>
      <trkpt lat="44.5083" lon="-0.27414">
        <ele>63.3</ele>
        <time>2020-09-08T15:56:41Z</time>
      </trkpt>
      <trkpt lat="44.50829" lon="-0.27413">
        <ele>63.3</ele>
        <time>2020-09-08T15:56:42Z</time>
      </trkpt>
      <trkpt lat="44.50829" lon="-0.27412">
        <ele>63.3</ele>
        <time>2020-09-08T15:56:43Z</time>
      </trkpt>
      <trkpt lat="44.50829" lon="-0.27412">
        <ele>63.3</ele>
        <time>2020-09-08T15:56:44Z</time>
      </trkpt>
      <trkpt lat="44.50829" lon="-0.27412">
        <ele>63.5</ele>
        <time>2020-09-08T15:56:46Z</time>
      </trkpt>
      <trkpt lat="44.50829" lon="-0.27413">
        <ele>63.5</ele>
        <time>2020-09-08T15:56:48Z</time>
      </trkpt>
      <trkpt lat="44.50829" lon="-0.27413">
        <ele>63.5</ele>
        <time>2020-09-08T15:56:49Z</time>
      </trkpt>
      <trkpt lat="44.50829" lon="-0.27414">
        <ele>63.5</ele>
        <time>2020-09-08T15:56:51Z</time>
      </trkpt>
      <trkpt lat="44.50829" lon="-0.27414">
        <ele>63.5</ele>
        <time>2020-09-08T15:56:52Z</time>
      </trkpt>
      <trkpt lat="44.50828" lon="-0.27415">
        <ele>63.8</ele>
        <time>2020-09-08T15:56:53Z</time>
      </trkpt>
      <trkpt lat="44.50828" lon="-0.27414">
        <ele>63.5</ele>
        <time>2020-09-08T15:56:54Z</time>
      </trkpt>
      <trkpt lat="44.50828" lon="-0.27413">
        <ele>63.5</ele>
        <time>2020-09-08T15:56:55Z</time>
      </trkpt>
      <trkpt lat="44.50828" lon="-0.27412">
        <ele>63.5</ele>
        <time>2020-09-08T15:56:57Z</time>
      </trkpt>
      <trkpt lat="44.50827" lon="-0.2741">
        <ele>63.5</ele>
        <time>2020-09-08T15:56:58Z</time>
      </trkpt>
      <trkpt lat="44.50827" lon="-0.27409">
        <ele>63.3</ele>
        <time>2020-09-08T15:57:00Z</time>
      </trkpt>
      <trkpt lat="44.50826" lon="-0.27408">
        <ele>63.3</ele>
        <time>2020-09-08T15:57:01Z</time>
      </trkpt>
      <trkpt lat="44.50826" lon="-0.27407">
        <ele>63.3</ele>
        <time>2020-09-08T15:57:03Z</time>
      </trkpt>
      <trkpt lat="44.50826" lon="-0.27408">
        <ele>63.3</ele>
        <time>2020-09-08T15:57:05Z</time>
      </trkpt>
      <trkpt lat="44.50827" lon="-0.2741">
        <ele>63.3</ele>
        <time>2020-09-08T15:57:06Z</time>
      </trkpt>
      <trkpt lat="44.50827" lon="-0.27411">
        <ele>63.5</ele>
        <time>2020-09-08T15:57:07Z</time>
      </trkpt>
      <trkpt lat="44.50829" lon="-0.27411">
        <ele>63.3</ele>
        <time>2020-09-08T15:57:09Z</time>
      </trkpt>
      <trkpt lat="44.50831" lon="-0.2741">
        <ele>63.3</ele>
        <time>2020-09-08T15:57:10Z</time>
      </trkpt>
      <trkpt lat="44.50832" lon="-0.27408">
        <ele>62.7</ele>
        <time>2020-09-08T15:57:12Z</time>
      </trkpt>
      <trkpt lat="44.50833" lon="-0.27407">
        <ele>62.7</ele>
        <time>2020-09-08T15:57:13Z</time>
      </trkpt>
      <trkpt lat="44.50834" lon="-0.27405">
        <ele>62.5</ele>
        <time>2020-09-08T15:57:14Z</time>
      </trkpt>
      <trkpt lat="44.50835" lon="-0.274">
        <ele>62</ele>
        <time>2020-09-08T15:57:16Z</time>
      </trkpt>
      <trkpt lat="44.50835" lon="-0.27399">
        <ele>62</ele>
        <time>2020-09-08T15:57:17Z</time>
      </trkpt>
      <trkpt lat="44.50836" lon="-0.27396">
        <ele>61.8</ele>
        <time>2020-09-08T15:57:18Z</time>
      </trkpt>
      <trkpt lat="44.50836" lon="-0.27393">
        <ele>61.6</ele>
        <time>2020-09-08T15:57:20Z</time>
      </trkpt>
      <trkpt lat="44.50836" lon="-0.2739">
        <ele>61.6</ele>
        <time>2020-09-08T15:57:21Z</time>
      </trkpt>
      <trkpt lat="44.50835" lon="-0.27389">
        <ele>61.6</ele>
        <time>2020-09-08T15:57:22Z</time>
      </trkpt>
      <trkpt lat="44.50835" lon="-0.27388">
        <ele>61.4</ele>
        <time>2020-09-08T15:57:23Z</time>
      </trkpt>
      <trkpt lat="44.50833" lon="-0.27385">
        <ele>61.7</ele>
        <time>2020-09-08T15:57:24Z</time>
      </trkpt>
      <trkpt lat="44.50831" lon="-0.27384">
        <ele>61.7</ele>
        <time>2020-09-08T15:57:26Z</time>
      </trkpt>
      <trkpt lat="44.5083" lon="-0.27383">
        <ele>61.7</ele>
        <time>2020-09-08T15:57:27Z</time>
      </trkpt>
      <trkpt lat="44.50829" lon="-0.27382">
        <ele>62</ele>
        <time>2020-09-08T15:57:28Z</time>
      </trkpt>
      <trkpt lat="44.50828" lon="-0.27381">
        <ele>62</ele>
        <time>2020-09-08T15:57:29Z</time>
      </trkpt>
      <trkpt lat="44.50827" lon="-0.2738">
        <ele>62</ele>
        <time>2020-09-08T15:57:30Z</time>
      </trkpt>
      <trkpt lat="44.50825" lon="-0.27379">
        <ele>62</ele>
        <time>2020-09-08T15:57:31Z</time>
      </trkpt>
      <trkpt lat="44.50824" lon="-0.27377">
        <ele>62</ele>
        <time>2020-09-08T15:57:32Z</time>
      </trkpt>
      <trkpt lat="44.50823" lon="-0.27376">
        <ele>62</ele>
        <time>2020-09-08T15:57:33Z</time>
      </trkpt>
      <trkpt lat="44.50821" lon="-0.27374">
        <ele>62.1</ele>
        <time>2020-09-08T15:57:35Z</time>
      </trkpt>
      <trkpt lat="44.5082" lon="-0.27374">
        <ele>62.1</ele>
        <time>2020-09-08T15:57:36Z</time>
      </trkpt>
      <trkpt lat="44.50819" lon="-0.27373">
        <ele>62.3</ele>
        <time>2020-09-08T15:57:37Z</time>
      </trkpt>
      <trkpt lat="44.50817" lon="-0.27371">
        <ele>62.1</ele>
        <time>2020-09-08T15:57:39Z</time>
      </trkpt>
      <trkpt lat="44.50816" lon="-0.27371">
        <ele>62.3</ele>
        <time>2020-09-08T15:57:40Z</time>
      </trkpt>
      <trkpt lat="44.50815" lon="-0.27369">
        <ele>62.3</ele>
        <time>2020-09-08T15:57:41Z</time>
      </trkpt>
      <trkpt lat="44.50811" lon="-0.27367">
        <ele>62.3</ele>
        <time>2020-09-08T15:57:43Z</time>
      </trkpt>
      <trkpt lat="44.5081" lon="-0.27367">
        <ele>62.6</ele>
        <time>2020-09-08T15:57:44Z</time>
      </trkpt>
      <trkpt lat="44.5081" lon="-0.27366">
        <ele>62.6</ele>
        <time>2020-09-08T15:57:45Z</time>
      </trkpt>
      <trkpt lat="44.50809" lon="-0.27366">
        <ele>62.6</ele>
        <time>2020-09-08T15:57:46Z</time>
      </trkpt>
      <trkpt lat="44.50807" lon="-0.27365">
        <ele>62.8</ele>
        <time>2020-09-08T15:57:48Z</time>
      </trkpt>
      <trkpt lat="44.50805" lon="-0.27364">
        <ele>62.8</ele>
        <time>2020-09-08T15:57:50Z</time>
      </trkpt>
      <trkpt lat="44.50803" lon="-0.27364">
        <ele>63.1</ele>
        <time>2020-09-08T15:57:51Z</time>
      </trkpt>
      <trkpt lat="44.50802" lon="-0.27363">
        <ele>63.1</ele>
        <time>2020-09-08T15:57:52Z</time>
      </trkpt>
      <trkpt lat="44.50801" lon="-0.27363">
        <ele>63.1</ele>
        <time>2020-09-08T15:57:53Z</time>
      </trkpt>
      <trkpt lat="44.508" lon="-0.27363">
        <ele>63.1</ele>
        <time>2020-09-08T15:57:54Z</time>
      </trkpt>
      <trkpt lat="44.50799" lon="-0.27362">
        <ele>63.1</ele>
        <time>2020-09-08T15:57:55Z</time>
      </trkpt>
      <trkpt lat="44.50798" lon="-0.27362">
        <ele>63.4</ele>
        <time>2020-09-08T15:57:56Z</time>
      </trkpt>
      <trkpt lat="44.50797" lon="-0.27362">
        <ele>63.4</ele>
        <time>2020-09-08T15:57:57Z</time>
      </trkpt>
      <trkpt lat="44.50795" lon="-0.27362">
        <ele>63.6</ele>
        <time>2020-09-08T15:57:58Z</time>
      </trkpt>
      <trkpt lat="44.50794" lon="-0.27362">
        <ele>63.6</ele>
        <time>2020-09-08T15:57:59Z</time>
      </trkpt>
      <trkpt lat="44.50792" lon="-0.27362">
        <ele>63.6</ele>
        <time>2020-09-08T15:58:01Z</time>
      </trkpt>
      <trkpt lat="44.50791" lon="-0.27362">
        <ele>63.9</ele>
        <time>2020-09-08T15:58:02Z</time>
      </trkpt>
      <trkpt lat="44.5079" lon="-0.27362">
        <ele>63.9</ele>
        <time>2020-09-08T15:58:03Z</time>
      </trkpt>
      <trkpt lat="44.50787" lon="-0.27362">
        <ele>64.1</ele>
        <time>2020-09-08T15:58:04Z</time>
      </trkpt>
      <trkpt lat="44.50786" lon="-0.27363">
        <ele>64.1</ele>
        <time>2020-09-08T15:58:05Z</time>
      </trkpt>
      <trkpt lat="44.50785" lon="-0.27363">
        <ele>64.6</ele>
        <time>2020-09-08T15:58:06Z</time>
      </trkpt>
      <trkpt lat="44.50784" lon="-0.27363">
        <ele>64.6</ele>
        <time>2020-09-08T15:58:07Z</time>
      </trkpt>
      <trkpt lat="44.50783" lon="-0.27363">
        <ele>64.6</ele>
        <time>2020-09-08T15:58:08Z</time>
      </trkpt>
      <trkpt lat="44.5078" lon="-0.27362">
        <ele>64.7</ele>
        <time>2020-09-08T15:58:10Z</time>
      </trkpt>
      <trkpt lat="44.50779" lon="-0.27362">
        <ele>64.9</ele>
        <time>2020-09-08T15:58:11Z</time>
      </trkpt>
      <trkpt lat="44.50778" lon="-0.27362">
        <ele>64.9</ele>
        <time>2020-09-08T15:58:12Z</time>
      </trkpt>
      <trkpt lat="44.50777" lon="-0.27362">
        <ele>64.9</ele>
        <time>2020-09-08T15:58:13Z</time>
      </trkpt>
      <trkpt lat="44.50776" lon="-0.27361">
        <ele>65.2</ele>
        <time>2020-09-08T15:58:14Z</time>
      </trkpt>
      <trkpt lat="44.50775" lon="-0.27361">
        <ele>65.2</ele>
        <time>2020-09-08T15:58:15Z</time>
      </trkpt>
      <trkpt lat="44.50773" lon="-0.2736">
        <ele>65.5</ele>
        <time>2020-09-08T15:58:16Z</time>
      </trkpt>
      <trkpt lat="44.50772" lon="-0.2736">
        <ele>65.5</ele>
        <time>2020-09-08T15:58:18Z</time>
      </trkpt>
      <trkpt lat="44.50771" lon="-0.27359">
        <ele>65.7</ele>
        <time>2020-09-08T15:58:19Z</time>
      </trkpt>
      <trkpt lat="44.50768" lon="-0.27358">
        <ele>65.5</ele>
        <time>2020-09-08T15:58:20Z</time>
      </trkpt>
      <trkpt lat="44.50766" lon="-0.27357">
        <ele>65.7</ele>
        <time>2020-09-08T15:58:21Z</time>
      </trkpt>
      <trkpt lat="44.50765" lon="-0.27357">
        <ele>65.7</ele>
        <time>2020-09-08T15:58:23Z</time>
      </trkpt>
      <trkpt lat="44.50764" lon="-0.27356">
        <ele>66</ele>
        <time>2020-09-08T15:58:24Z</time>
      </trkpt>
      <trkpt lat="44.50763" lon="-0.27356">
        <ele>66</ele>
        <time>2020-09-08T15:58:25Z</time>
      </trkpt>
      <trkpt lat="44.50762" lon="-0.27355">
        <ele>66</ele>
        <time>2020-09-08T15:58:26Z</time>
      </trkpt>
      <trkpt lat="44.50761" lon="-0.27354">
        <ele>66.2</ele>
        <time>2020-09-08T15:58:27Z</time>
      </trkpt>
      <trkpt lat="44.50759" lon="-0.27354">
        <ele>66</ele>
        <time>2020-09-08T15:58:28Z</time>
      </trkpt>
      <trkpt lat="44.50758" lon="-0.27353">
        <ele>66.1</ele>
        <time>2020-09-08T15:58:30Z</time>
      </trkpt>
      <trkpt lat="44.50756" lon="-0.27352">
        <ele>66.1</ele>
        <time>2020-09-08T15:58:31Z</time>
      </trkpt>
      <trkpt lat="44.50755" lon="-0.2735">
        <ele>66.3</ele>
        <time>2020-09-08T15:58:32Z</time>
      </trkpt>
      <trkpt lat="44.50753" lon="-0.27349">
        <ele>66.1</ele>
        <time>2020-09-08T15:58:33Z</time>
      </trkpt>
      <trkpt lat="44.50751" lon="-0.27348">
        <ele>66.3</ele>
        <time>2020-09-08T15:58:35Z</time>
      </trkpt>
      <trkpt lat="44.5075" lon="-0.27347">
        <ele>66.3</ele>
        <time>2020-09-08T15:58:36Z</time>
      </trkpt>
      <trkpt lat="44.50749" lon="-0.27346">
        <ele>66.4</ele>
        <time>2020-09-08T15:58:37Z</time>
      </trkpt>
      <trkpt lat="44.50748" lon="-0.27345">
        <ele>66.2</ele>
        <time>2020-09-08T15:58:39Z</time>
      </trkpt>
      <trkpt lat="44.50746" lon="-0.27343">
        <ele>66.3</ele>
        <time>2020-09-08T15:58:40Z</time>
      </trkpt>
      <trkpt lat="44.50744" lon="-0.27341">
        <ele>66.1</ele>
        <time>2020-09-08T15:58:42Z</time>
      </trkpt>
      <trkpt lat="44.50742" lon="-0.27339">
        <ele>66.2</ele>
        <time>2020-09-08T15:58:43Z</time>
      </trkpt>
      <trkpt lat="44.5074" lon="-0.27338">
        <ele>66.3</ele>
        <time>2020-09-08T15:58:45Z</time>
      </trkpt>
      <trkpt lat="44.50738" lon="-0.27336">
        <ele>66</ele>
        <time>2020-09-08T15:58:46Z</time>
      </trkpt>
      <trkpt lat="44.50735" lon="-0.27334">
        <ele>66</ele>
        <time>2020-09-08T15:58:48Z</time>
      </trkpt>
      <trkpt lat="44.50734" lon="-0.27332">
        <ele>65.8</ele>
        <time>2020-09-08T15:58:49Z</time>
      </trkpt>
      <trkpt lat="44.50733" lon="-0.27332">
        <ele>65.8</ele>
        <time>2020-09-08T15:58:50Z</time>
      </trkpt>
      <trkpt lat="44.50732" lon="-0.27331">
        <ele>65.8</ele>
        <time>2020-09-08T15:58:51Z</time>
      </trkpt>
      <trkpt lat="44.50731" lon="-0.2733">
        <ele>65.8</ele>
        <time>2020-09-08T15:58:52Z</time>
      </trkpt>
      <trkpt lat="44.50729" lon="-0.27329">
        <ele>65.8</ele>
        <time>2020-09-08T15:58:53Z</time>
      </trkpt>
      <trkpt lat="44.50725" lon="-0.27327">
        <ele>65.5</ele>
        <time>2020-09-08T15:58:55Z</time>
      </trkpt>
      <trkpt lat="44.50724" lon="-0.27326">
        <ele>65.4</ele>
        <time>2020-09-08T15:58:56Z</time>
      </trkpt>
      <trkpt lat="44.50723" lon="-0.27325">
        <ele>65.4</ele>
        <time>2020-09-08T15:58:57Z</time>
      </trkpt>
      <trkpt lat="44.50722" lon="-0.27324">
        <ele>65.1</ele>
        <time>2020-09-08T15:58:58Z</time>
      </trkpt>
      <trkpt lat="44.5072" lon="-0.27323">
        <ele>65</ele>
        <time>2020-09-08T15:59:00Z</time>
      </trkpt>
      <trkpt lat="44.50719" lon="-0.27322">
        <ele>65</ele>
        <time>2020-09-08T15:59:01Z</time>
      </trkpt>
      <trkpt lat="44.50717" lon="-0.2732">
        <ele>64.9</ele>
        <time>2020-09-08T15:59:03Z</time>
      </trkpt>
      <trkpt lat="44.50715" lon="-0.27319">
        <ele>64.5</ele>
        <time>2020-09-08T15:59:04Z</time>
      </trkpt>
      <trkpt lat="44.50715" lon="-0.27318">
        <ele>64.5</ele>
        <time>2020-09-08T15:59:05Z</time>
      </trkpt>
      <trkpt lat="44.50714" lon="-0.27318">
        <ele>64.5</ele>
        <time>2020-09-08T15:59:06Z</time>
      </trkpt>
      <trkpt lat="44.50713" lon="-0.27317">
        <ele>64.3</ele>
        <time>2020-09-08T15:59:07Z</time>
      </trkpt>
      <trkpt lat="44.50711" lon="-0.27315">
        <ele>64</ele>
        <time>2020-09-08T15:59:09Z</time>
      </trkpt>
      <trkpt lat="44.5071" lon="-0.27315">
        <ele>64</ele>
        <time>2020-09-08T15:59:10Z</time>
      </trkpt>
      <trkpt lat="44.50709" lon="-0.27314">
        <ele>63.8</ele>
        <time>2020-09-08T15:59:11Z</time>
      </trkpt>
      <trkpt lat="44.50707" lon="-0.27314">
        <ele>63.8</ele>
        <time>2020-09-08T15:59:13Z</time>
      </trkpt>
      <trkpt lat="44.50706" lon="-0.27313">
        <ele>63.7</ele>
        <time>2020-09-08T15:59:14Z</time>
      </trkpt>
      <trkpt lat="44.50702" lon="-0.27313">
        <ele>63.5</ele>
        <time>2020-09-08T15:59:16Z</time>
      </trkpt>
      <trkpt lat="44.507" lon="-0.27313">
        <ele>63.3</ele>
        <time>2020-09-08T15:59:18Z</time>
      </trkpt>
      <trkpt lat="44.50699" lon="-0.27313">
        <ele>63.3</ele>
        <time>2020-09-08T15:59:19Z</time>
      </trkpt>
      <trkpt lat="44.50699" lon="-0.27312">
        <ele>63.3</ele>
        <time>2020-09-08T15:59:20Z</time>
      </trkpt>
      <trkpt lat="44.50697" lon="-0.27312">
        <ele>63.1</ele>
        <time>2020-09-08T15:59:21Z</time>
      </trkpt>
      <trkpt lat="44.50696" lon="-0.27312">
        <ele>63.1</ele>
        <time>2020-09-08T15:59:22Z</time>
      </trkpt>
      <trkpt lat="44.50693" lon="-0.27312">
        <ele>62.9</ele>
        <time>2020-09-08T15:59:23Z</time>
      </trkpt>
      <trkpt lat="44.50692" lon="-0.27312">
        <ele>62.9</ele>
        <time>2020-09-08T15:59:24Z</time>
      </trkpt>
      <trkpt lat="44.50691" lon="-0.27313">
        <ele>62.9</ele>
        <time>2020-09-08T15:59:25Z</time>
      </trkpt>
      <trkpt lat="44.5069" lon="-0.27313">
        <ele>62.7</ele>
        <time>2020-09-08T15:59:26Z</time>
      </trkpt>
      <trkpt lat="44.50689" lon="-0.27313">
        <ele>62.7</ele>
        <time>2020-09-08T15:59:28Z</time>
      </trkpt>
      <trkpt lat="44.50687" lon="-0.27313">
        <ele>62.5</ele>
        <time>2020-09-08T15:59:29Z</time>
      </trkpt>
      <trkpt lat="44.50685" lon="-0.27314">
        <ele>62.5</ele>
        <time>2020-09-08T15:59:30Z</time>
      </trkpt>
      <trkpt lat="44.50683" lon="-0.27314">
        <ele>62.3</ele>
        <time>2020-09-08T15:59:32Z</time>
      </trkpt>
      <trkpt lat="44.50682" lon="-0.27314">
        <ele>62.3</ele>
        <time>2020-09-08T15:59:33Z</time>
      </trkpt>
      <trkpt lat="44.5068" lon="-0.27314">
        <ele>62.1</ele>
        <time>2020-09-08T15:59:34Z</time>
      </trkpt>
      <trkpt lat="44.50679" lon="-0.27314">
        <ele>62.1</ele>
        <time>2020-09-08T15:59:35Z</time>
      </trkpt>
      <trkpt lat="44.50678" lon="-0.27314">
        <ele>61.9</ele>
        <time>2020-09-08T15:59:36Z</time>
      </trkpt>
      <trkpt lat="44.50676" lon="-0.27314">
        <ele>61.7</ele>
        <time>2020-09-08T15:59:37Z</time>
      </trkpt>
      <trkpt lat="44.50674" lon="-0.27314">
        <ele>61.7</ele>
        <time>2020-09-08T15:59:39Z</time>
      </trkpt>
      <trkpt lat="44.50673" lon="-0.27313">
        <ele>61.5</ele>
        <time>2020-09-08T15:59:40Z</time>
      </trkpt>
      <trkpt lat="44.50672" lon="-0.27313">
        <ele>61.5</ele>
        <time>2020-09-08T15:59:41Z</time>
      </trkpt>
      <trkpt lat="44.50669" lon="-0.27312">
        <ele>61.4</ele>
        <time>2020-09-08T15:59:43Z</time>
      </trkpt>
      <trkpt lat="44.50669" lon="-0.27312">
        <ele>61.4</ele>
        <time>2020-09-08T15:59:44Z</time>
      </trkpt>
      <trkpt lat="44.50667" lon="-0.27312">
        <ele>61.4</ele>
        <time>2020-09-08T15:59:45Z</time>
      </trkpt>
      <trkpt lat="44.50666" lon="-0.27312">
        <ele>61.2</ele>
        <time>2020-09-08T15:59:46Z</time>
      </trkpt>
      <trkpt lat="44.50664" lon="-0.27311">
        <ele>61</ele>
        <time>2020-09-08T15:59:47Z</time>
      </trkpt>
      <trkpt lat="44.50663" lon="-0.27311">
        <ele>60.8</ele>
        <time>2020-09-08T15:59:48Z</time>
      </trkpt>
      <trkpt lat="44.50662" lon="-0.27311">
        <ele>60.8</ele>
        <time>2020-09-08T15:59:49Z</time>
      </trkpt>
      <trkpt lat="44.50661" lon="-0.27311">
        <ele>60.8</ele>
        <time>2020-09-08T15:59:50Z</time>
      </trkpt>
      <trkpt lat="44.5066" lon="-0.27311">
        <ele>60.7</ele>
        <time>2020-09-08T15:59:51Z</time>
      </trkpt>
      <trkpt lat="44.50658" lon="-0.27311">
        <ele>60.7</ele>
        <time>2020-09-08T15:59:53Z</time>
      </trkpt>
      <trkpt lat="44.50657" lon="-0.27312">
        <ele>60.8</ele>
        <time>2020-09-08T15:59:54Z</time>
      </trkpt>
      <trkpt lat="44.50655" lon="-0.27312">
        <ele>60.8</ele>
        <time>2020-09-08T15:59:55Z</time>
      </trkpt>
      <trkpt lat="44.50653" lon="-0.27313">
        <ele>60.7</ele>
        <time>2020-09-08T15:59:57Z</time>
      </trkpt>
      <trkpt lat="44.50652" lon="-0.27313">
        <ele>60.7</ele>
        <time>2020-09-08T15:59:58Z</time>
      </trkpt>
      <trkpt lat="44.50651" lon="-0.27314">
        <ele>60.6</ele>
        <time>2020-09-08T15:59:59Z</time>
      </trkpt>
      <trkpt lat="44.5065" lon="-0.27314">
        <ele>60.6</ele>
        <time>2020-09-08T16:00:00Z</time>
      </trkpt>
      <trkpt lat="44.50649" lon="-0.27315">
        <ele>60.6</ele>
        <time>2020-09-08T16:00:01Z</time>
      </trkpt>
      <trkpt lat="44.50646" lon="-0.27316">
        <ele>60.8</ele>
        <time>2020-09-08T16:00:03Z</time>
      </trkpt>
      <trkpt lat="44.50645" lon="-0.27316">
        <ele>60.8</ele>
        <time>2020-09-08T16:00:04Z</time>
      </trkpt>
      <trkpt lat="44.50643" lon="-0.27317">
        <ele>60.7</ele>
        <time>2020-09-08T16:00:06Z</time>
      </trkpt>
      <trkpt lat="44.50641" lon="-0.27318">
        <ele>60.6</ele>
        <time>2020-09-08T16:00:07Z</time>
      </trkpt>
      <trkpt lat="44.5064" lon="-0.27318">
        <ele>60.6</ele>
        <time>2020-09-08T16:00:08Z</time>
      </trkpt>
      <trkpt lat="44.50638" lon="-0.27319">
        <ele>60.5</ele>
        <time>2020-09-08T16:00:09Z</time>
      </trkpt>
      <trkpt lat="44.50637" lon="-0.27319">
        <ele>60.5</ele>
        <time>2020-09-08T16:00:10Z</time>
      </trkpt>
      <trkpt lat="44.50636" lon="-0.27319">
        <ele>60.5</ele>
        <time>2020-09-08T16:00:11Z</time>
      </trkpt>
      <trkpt lat="44.50633" lon="-0.2732">
        <ele>60.7</ele>
        <time>2020-09-08T16:00:13Z</time>
      </trkpt>
      <trkpt lat="44.50632" lon="-0.2732">
        <ele>60.7</ele>
        <time>2020-09-08T16:00:14Z</time>
      </trkpt>
      <trkpt lat="44.5063" lon="-0.27321">
        <ele>60.6</ele>
        <time>2020-09-08T16:00:15Z</time>
      </trkpt>
      <trkpt lat="44.50629" lon="-0.27321">
        <ele>60.6</ele>
        <time>2020-09-08T16:00:16Z</time>
      </trkpt>
      <trkpt lat="44.50628" lon="-0.27321">
        <ele>60.6</ele>
        <time>2020-09-08T16:00:17Z</time>
      </trkpt>
      <trkpt lat="44.50626" lon="-0.27323">
        <ele>60.6</ele>
        <time>2020-09-08T16:00:19Z</time>
      </trkpt>
      <trkpt lat="44.50625" lon="-0.27324">
        <ele>60.6</ele>
        <time>2020-09-08T16:00:20Z</time>
      </trkpt>
      <trkpt lat="44.50624" lon="-0.27324">
        <ele>60.8</ele>
        <time>2020-09-08T16:00:21Z</time>
      </trkpt>
      <trkpt lat="44.50623" lon="-0.27325">
        <ele>60.8</ele>
        <time>2020-09-08T16:00:22Z</time>
      </trkpt>
      <trkpt lat="44.50622" lon="-0.27326">
        <ele>60.8</ele>
        <time>2020-09-08T16:00:23Z</time>
      </trkpt>
      <trkpt lat="44.50619" lon="-0.27327">
        <ele>60.8</ele>
        <time>2020-09-08T16:00:25Z</time>
      </trkpt>
      <trkpt lat="44.50617" lon="-0.27327">
        <ele>60.7</ele>
        <time>2020-09-08T16:00:27Z</time>
      </trkpt>
      <trkpt lat="44.50616" lon="-0.27328">
        <ele>60.7</ele>
        <time>2020-09-08T16:00:28Z</time>
      </trkpt>
      <trkpt lat="44.50614" lon="-0.27328">
        <ele>60.7</ele>
        <time>2020-09-08T16:00:29Z</time>
      </trkpt>
      <trkpt lat="44.50613" lon="-0.27329">
        <ele>60.9</ele>
        <time>2020-09-08T16:00:31Z</time>
      </trkpt>
      <trkpt lat="44.50612" lon="-0.2733">
        <ele>60.9</ele>
        <time>2020-09-08T16:00:32Z</time>
      </trkpt>
      <trkpt lat="44.50611" lon="-0.2733">
        <ele>60.9</ele>
        <time>2020-09-08T16:00:33Z</time>
      </trkpt>
      <trkpt lat="44.50608" lon="-0.27331">
        <ele>60.9</ele>
        <time>2020-09-08T16:00:35Z</time>
      </trkpt>
      <trkpt lat="44.50606" lon="-0.27331">
        <ele>60.9</ele>
        <time>2020-09-08T16:00:37Z</time>
      </trkpt>
      <trkpt lat="44.50605" lon="-0.27331">
        <ele>60.8</ele>
        <time>2020-09-08T16:00:38Z</time>
      </trkpt>
      <trkpt lat="44.50603" lon="-0.27332">
        <ele>60.8</ele>
        <time>2020-09-08T16:00:39Z</time>
      </trkpt>
      <trkpt lat="44.50602" lon="-0.27332">
        <ele>60.8</ele>
        <time>2020-09-08T16:00:40Z</time>
      </trkpt>
      <trkpt lat="44.50601" lon="-0.27332">
        <ele>60.8</ele>
        <time>2020-09-08T16:00:41Z</time>
      </trkpt>
      <trkpt lat="44.506" lon="-0.27333">
        <ele>61</ele>
        <time>2020-09-08T16:00:42Z</time>
      </trkpt>
      <trkpt lat="44.50597" lon="-0.27334">
        <ele>60.9</ele>
        <time>2020-09-08T16:00:44Z</time>
      </trkpt>
      <trkpt lat="44.50596" lon="-0.27334">
        <ele>60.9</ele>
        <time>2020-09-08T16:00:45Z</time>
      </trkpt>
      <trkpt lat="44.50596" lon="-0.27335">
        <ele>60.9</ele>
        <time>2020-09-08T16:00:46Z</time>
      </trkpt>
      <trkpt lat="44.50594" lon="-0.27334">
        <ele>60.9</ele>
        <time>2020-09-08T16:00:48Z</time>
      </trkpt>
      <trkpt lat="44.50592" lon="-0.27334">
        <ele>60.9</ele>
        <time>2020-09-08T16:00:49Z</time>
      </trkpt>
      <trkpt lat="44.50591" lon="-0.27335">
        <ele>60.9</ele>
        <time>2020-09-08T16:00:50Z</time>
      </trkpt>
      <trkpt lat="44.50589" lon="-0.27335">
        <ele>60.8</ele>
        <time>2020-09-08T16:00:51Z</time>
      </trkpt>
      <trkpt lat="44.50588" lon="-0.27336">
        <ele>60.8</ele>
        <time>2020-09-08T16:00:52Z</time>
      </trkpt>
      <trkpt lat="44.50587" lon="-0.27336">
        <ele>60.8</ele>
        <time>2020-09-08T16:00:53Z</time>
      </trkpt>
      <trkpt lat="44.50585" lon="-0.27337">
        <ele>60.9</ele>
        <time>2020-09-08T16:00:55Z</time>
      </trkpt>
      <trkpt lat="44.50584" lon="-0.27338">
        <ele>60.9</ele>
        <time>2020-09-08T16:00:56Z</time>
      </trkpt>
      <trkpt lat="44.50584" lon="-0.27338">
        <ele>60.9</ele>
        <time>2020-09-08T16:00:57Z</time>
      </trkpt>
      <trkpt lat="44.50581" lon="-0.27339">
        <ele>60.8</ele>
        <time>2020-09-08T16:00:59Z</time>
      </trkpt>
      <trkpt lat="44.5058" lon="-0.27339">
        <ele>60.8</ele>
        <time>2020-09-08T16:01:00Z</time>
      </trkpt>
      <trkpt lat="44.50579" lon="-0.2734">
        <ele>60.8</ele>
        <time>2020-09-08T16:01:01Z</time>
      </trkpt>
      <trkpt lat="44.50578" lon="-0.2734">
        <ele>60.8</ele>
        <time>2020-09-08T16:01:02Z</time>
      </trkpt>
      <trkpt lat="44.50575" lon="-0.27341">
        <ele>60.8</ele>
        <time>2020-09-08T16:01:04Z</time>
      </trkpt>
      <trkpt lat="44.50574" lon="-0.27342">
        <ele>60.8</ele>
        <time>2020-09-08T16:01:05Z</time>
      </trkpt>
      <trkpt lat="44.50574" lon="-0.27342">
        <ele>60.8</ele>
        <time>2020-09-08T16:01:06Z</time>
      </trkpt>
      <trkpt lat="44.50573" lon="-0.27343">
        <ele>60.8</ele>
        <time>2020-09-08T16:01:07Z</time>
      </trkpt>
      <trkpt lat="44.50572" lon="-0.27344">
        <ele>60.8</ele>
        <time>2020-09-08T16:01:09Z</time>
      </trkpt>
      <trkpt lat="44.50571" lon="-0.27344">
        <ele>60.7</ele>
        <time>2020-09-08T16:01:10Z</time>
      </trkpt>
      <trkpt lat="44.5057" lon="-0.27345">
        <ele>60.7</ele>
        <time>2020-09-08T16:01:11Z</time>
      </trkpt>
      <trkpt lat="44.50569" lon="-0.27345">
        <ele>60.7</ele>
        <time>2020-09-08T16:01:12Z</time>
      </trkpt>
      <trkpt lat="44.50568" lon="-0.27345">
        <ele>60.6</ele>
        <time>2020-09-08T16:01:13Z</time>
      </trkpt>
      <trkpt lat="44.50567" lon="-0.27345">
        <ele>60.6</ele>
        <time>2020-09-08T16:01:14Z</time>
      </trkpt>
      <trkpt lat="44.50567" lon="-0.27345">
        <ele>60.6</ele>
        <time>2020-09-08T16:01:15Z</time>
      </trkpt>
      <trkpt lat="44.50565" lon="-0.27345">
        <ele>60.6</ele>
        <time>2020-09-08T16:01:17Z</time>
      </trkpt>
      <trkpt lat="44.50563" lon="-0.27345">
        <ele>60.6</ele>
        <time>2020-09-08T16:01:18Z</time>
      </trkpt>
      <trkpt lat="44.50562" lon="-0.27345">
        <ele>60.5</ele>
        <time>2020-09-08T16:01:19Z</time>
      </trkpt>
      <trkpt lat="44.50561" lon="-0.27345">
        <ele>60.5</ele>
        <time>2020-09-08T16:01:20Z</time>
      </trkpt>
      <trkpt lat="44.50559" lon="-0.27345">
        <ele>60.4</ele>
        <time>2020-09-08T16:01:22Z</time>
      </trkpt>
      <trkpt lat="44.50557" lon="-0.27345">
        <ele>60.4</ele>
        <time>2020-09-08T16:01:23Z</time>
      </trkpt>
      <trkpt lat="44.50555" lon="-0.27346">
        <ele>60.4</ele>
        <time>2020-09-08T16:01:24Z</time>
      </trkpt>
      <trkpt lat="44.50554" lon="-0.27346">
        <ele>60.4</ele>
        <time>2020-09-08T16:01:25Z</time>
      </trkpt>
      <trkpt lat="44.50552" lon="-0.27346">
        <ele>60.3</ele>
        <time>2020-09-08T16:01:26Z</time>
      </trkpt>
      <trkpt lat="44.50551" lon="-0.27346">
        <ele>60.3</ele>
        <time>2020-09-08T16:01:28Z</time>
      </trkpt>
      <trkpt lat="44.5055" lon="-0.27346">
        <ele>60.2</ele>
        <time>2020-09-08T16:01:29Z</time>
      </trkpt>
      <trkpt lat="44.50548" lon="-0.27346">
        <ele>60.2</ele>
        <time>2020-09-08T16:01:30Z</time>
      </trkpt>
      <trkpt lat="44.50546" lon="-0.27346">
        <ele>60.2</ele>
        <time>2020-09-08T16:01:32Z</time>
      </trkpt>
      <trkpt lat="44.50545" lon="-0.27346">
        <ele>60.2</ele>
        <time>2020-09-08T16:01:33Z</time>
      </trkpt>
      <trkpt lat="44.50543" lon="-0.27347">
        <ele>60.1</ele>
        <time>2020-09-08T16:01:34Z</time>
      </trkpt>
      <trkpt lat="44.5054" lon="-0.27347">
        <ele>60</ele>
        <time>2020-09-08T16:01:35Z</time>
      </trkpt>
      <trkpt lat="44.5054" lon="-0.27347">
        <ele>60</ele>
        <time>2020-09-08T16:01:36Z</time>
      </trkpt>
      <trkpt lat="44.50538" lon="-0.27347">
        <ele>60</ele>
        <time>2020-09-08T16:01:37Z</time>
      </trkpt>
      <trkpt lat="44.50537" lon="-0.27346">
        <ele>59.9</ele>
        <time>2020-09-08T16:01:39Z</time>
      </trkpt>
      <trkpt lat="44.50535" lon="-0.27346">
        <ele>59.8</ele>
        <time>2020-09-08T16:01:40Z</time>
      </trkpt>
      <trkpt lat="44.50532" lon="-0.27346">
        <ele>59.8</ele>
        <time>2020-09-08T16:01:42Z</time>
      </trkpt>
      <trkpt lat="44.50531" lon="-0.27346">
        <ele>59.8</ele>
        <time>2020-09-08T16:01:43Z</time>
      </trkpt>
      <trkpt lat="44.5053" lon="-0.27346">
        <ele>59.8</ele>
        <time>2020-09-08T16:01:44Z</time>
      </trkpt>
      <trkpt lat="44.50527" lon="-0.27346">
        <ele>59.6</ele>
        <time>2020-09-08T16:01:45Z</time>
      </trkpt>
      <trkpt lat="44.50526" lon="-0.27345">
        <ele>59.6</ele>
        <time>2020-09-08T16:01:46Z</time>
      </trkpt>
      <trkpt lat="44.50525" lon="-0.27345">
        <ele>59.5</ele>
        <time>2020-09-08T16:01:47Z</time>
      </trkpt>
      <trkpt lat="44.50524" lon="-0.27345">
        <ele>59.5</ele>
        <time>2020-09-08T16:01:48Z</time>
      </trkpt>
      <trkpt lat="44.50521" lon="-0.27345">
        <ele>59.4</ele>
        <time>2020-09-08T16:01:50Z</time>
      </trkpt>
      <trkpt lat="44.50519" lon="-0.27344">
        <ele>59.3</ele>
        <time>2020-09-08T16:01:51Z</time>
      </trkpt>
      <trkpt lat="44.50518" lon="-0.27343">
        <ele>59.3</ele>
        <time>2020-09-08T16:01:52Z</time>
      </trkpt>
      <trkpt lat="44.50517" lon="-0.27343">
        <ele>59.3</ele>
        <time>2020-09-08T16:01:53Z</time>
      </trkpt>
      <trkpt lat="44.50514" lon="-0.27341">
        <ele>59.1</ele>
        <time>2020-09-08T16:01:55Z</time>
      </trkpt>
      <trkpt lat="44.50512" lon="-0.2734">
        <ele>59</ele>
        <time>2020-09-08T16:01:57Z</time>
      </trkpt>
      <trkpt lat="44.50511" lon="-0.27339">
        <ele>59</ele>
        <time>2020-09-08T16:01:58Z</time>
      </trkpt>
      <trkpt lat="44.50508" lon="-0.27338">
        <ele>58.9</ele>
        <time>2020-09-08T16:01:59Z</time>
      </trkpt>
      <trkpt lat="44.50507" lon="-0.27339">
        <ele>58.8</ele>
        <time>2020-09-08T16:02:01Z</time>
      </trkpt>
      <trkpt lat="44.50506" lon="-0.2734">
        <ele>58.8</ele>
        <time>2020-09-08T16:02:02Z</time>
      </trkpt>
      <trkpt lat="44.50505" lon="-0.2734">
        <ele>58.8</ele>
        <time>2020-09-08T16:02:03Z</time>
      </trkpt>
      <trkpt lat="44.50504" lon="-0.27341">
        <ele>58.7</ele>
        <time>2020-09-08T16:02:04Z</time>
      </trkpt>
      <trkpt lat="44.50502" lon="-0.27341">
        <ele>58.7</ele>
        <time>2020-09-08T16:02:05Z</time>
      </trkpt>
      <trkpt lat="44.505" lon="-0.27341">
        <ele>58.6</ele>
        <time>2020-09-08T16:02:06Z</time>
      </trkpt>
      <trkpt lat="44.50498" lon="-0.27341">
        <ele>58.5</ele>
        <time>2020-09-08T16:02:08Z</time>
      </trkpt>
      <trkpt lat="44.50495" lon="-0.27342">
        <ele>58.5</ele>
        <time>2020-09-08T16:02:10Z</time>
      </trkpt>
      <trkpt lat="44.50494" lon="-0.27341">
        <ele>58.5</ele>
        <time>2020-09-08T16:02:11Z</time>
      </trkpt>
      <trkpt lat="44.50493" lon="-0.27341">
        <ele>58.4</ele>
        <time>2020-09-08T16:02:12Z</time>
      </trkpt>
      <trkpt lat="44.50492" lon="-0.2734">
        <ele>58.3</ele>
        <time>2020-09-08T16:02:14Z</time>
      </trkpt>
      <trkpt lat="44.5049" lon="-0.27338">
        <ele>58.3</ele>
        <time>2020-09-08T16:02:15Z</time>
      </trkpt>
      <trkpt lat="44.50489" lon="-0.27337">
        <ele>58.3</ele>
        <time>2020-09-08T16:02:16Z</time>
      </trkpt>
      <trkpt lat="44.50488" lon="-0.27336">
        <ele>58</ele>
        <time>2020-09-08T16:02:17Z</time>
      </trkpt>
      <trkpt lat="44.50488" lon="-0.27335">
        <ele>58</ele>
        <time>2020-09-08T16:02:18Z</time>
      </trkpt>
      <trkpt lat="44.50485" lon="-0.27333">
        <ele>57.9</ele>
        <time>2020-09-08T16:02:20Z</time>
      </trkpt>
      <trkpt lat="44.50484" lon="-0.27333">
        <ele>57.9</ele>
        <time>2020-09-08T16:02:21Z</time>
      </trkpt>
      <trkpt lat="44.50483" lon="-0.27333">
        <ele>57.9</ele>
        <time>2020-09-08T16:02:22Z</time>
      </trkpt>
      <trkpt lat="44.50482" lon="-0.27333">
        <ele>57.8</ele>
        <time>2020-09-08T16:02:24Z</time>
      </trkpt>
      <trkpt lat="44.50481" lon="-0.27334">
        <ele>57.8</ele>
        <time>2020-09-08T16:02:25Z</time>
      </trkpt>
      <trkpt lat="44.50479" lon="-0.27335">
        <ele>57.7</ele>
        <time>2020-09-08T16:02:27Z</time>
      </trkpt>
      <trkpt lat="44.50478" lon="-0.27336">
        <ele>57.7</ele>
        <time>2020-09-08T16:02:28Z</time>
      </trkpt>
      <trkpt lat="44.50478" lon="-0.27337">
        <ele>57.7</ele>
        <time>2020-09-08T16:02:29Z</time>
      </trkpt>
      <trkpt lat="44.50478" lon="-0.27339">
        <ele>57.9</ele>
        <time>2020-09-08T16:02:31Z</time>
      </trkpt>
      <trkpt lat="44.50477" lon="-0.2734">
        <ele>57.9</ele>
        <time>2020-09-08T16:02:32Z</time>
      </trkpt>
      <trkpt lat="44.50476" lon="-0.27341">
        <ele>57.8</ele>
        <time>2020-09-08T16:02:33Z</time>
      </trkpt>
      <trkpt lat="44.50475" lon="-0.27341">
        <ele>57.9</ele>
        <time>2020-09-08T16:02:34Z</time>
      </trkpt>
      <trkpt lat="44.50474" lon="-0.27343">
        <ele>57.9</ele>
        <time>2020-09-08T16:02:36Z</time>
      </trkpt>
      <trkpt lat="44.50474" lon="-0.27343">
        <ele>57.9</ele>
        <time>2020-09-08T16:02:37Z</time>
      </trkpt>
      <trkpt lat="44.50475" lon="-0.27343">
        <ele>57.9</ele>
        <time>2020-09-08T16:02:38Z</time>
      </trkpt>
      <trkpt lat="44.50474" lon="-0.27344">
        <ele>57.9</ele>
        <time>2020-09-08T16:02:40Z</time>
      </trkpt>
      <trkpt lat="44.50473" lon="-0.27344">
        <ele>57.8</ele>
        <time>2020-09-08T16:02:41Z</time>
      </trkpt>
      <trkpt lat="44.50472" lon="-0.27344">
        <ele>57.8</ele>
        <time>2020-09-08T16:02:42Z</time>
      </trkpt>
      <trkpt lat="44.50471" lon="-0.27344">
        <ele>57.8</ele>
        <time>2020-09-08T16:02:43Z</time>
      </trkpt>
      <trkpt lat="44.50469" lon="-0.27347">
        <ele>57.8</ele>
        <time>2020-09-08T16:02:45Z</time>
      </trkpt>
      <trkpt lat="44.50468" lon="-0.27348">
        <ele>57.7</ele>
        <time>2020-09-08T16:02:46Z</time>
      </trkpt>
      <trkpt lat="44.50467" lon="-0.27349">
        <ele>57.7</ele>
        <time>2020-09-08T16:02:48Z</time>
      </trkpt>
      <trkpt lat="44.50468" lon="-0.27349">
        <ele>57.8</ele>
        <time>2020-09-08T16:02:50Z</time>
      </trkpt>
      <trkpt lat="44.50469" lon="-0.27348">
        <ele>57.8</ele>
        <time>2020-09-08T16:02:51Z</time>
      </trkpt>
      <trkpt lat="44.50469" lon="-0.27347">
        <ele>57.8</ele>
        <time>2020-09-08T16:02:52Z</time>
      </trkpt>
      <trkpt lat="44.5047" lon="-0.27347">
        <ele>57.8</ele>
        <time>2020-09-08T16:02:54Z</time>
      </trkpt>
      <trkpt lat="44.50472" lon="-0.27348">
        <ele>57.9</ele>
        <time>2020-09-08T16:02:55Z</time>
      </trkpt>
      <trkpt lat="44.50473" lon="-0.27349">
        <ele>57.9</ele>
        <time>2020-09-08T16:02:56Z</time>
      </trkpt>
      <trkpt lat="44.50474" lon="-0.27352">
        <ele>58.2</ele>
        <time>2020-09-08T16:02:58Z</time>
      </trkpt>
      <trkpt lat="44.50475" lon="-0.27353">
        <ele>58.2</ele>
        <time>2020-09-08T16:02:59Z</time>
      </trkpt>
      <trkpt lat="44.50475" lon="-0.27354">
        <ele>58.2</ele>
        <time>2020-09-08T16:03:00Z</time>
      </trkpt>
      <trkpt lat="44.50475" lon="-0.27356">
        <ele>58.3</ele>
        <time>2020-09-08T16:03:01Z</time>
      </trkpt>
      <trkpt lat="44.50476" lon="-0.27358">
        <ele>58.3</ele>
        <time>2020-09-08T16:03:02Z</time>
      </trkpt>
      <trkpt lat="44.50476" lon="-0.27359">
        <ele>58.5</ele>
        <time>2020-09-08T16:03:04Z</time>
      </trkpt>
      <trkpt lat="44.50476" lon="-0.27361">
        <ele>58.5</ele>
        <time>2020-09-08T16:03:05Z</time>
      </trkpt>
      <trkpt lat="44.50477" lon="-0.27364">
        <ele>58.6</ele>
        <time>2020-09-08T16:03:06Z</time>
      </trkpt>
      <trkpt lat="44.50477" lon="-0.27366">
        <ele>58.6</ele>
        <time>2020-09-08T16:03:07Z</time>
      </trkpt>
      <trkpt lat="44.50476" lon="-0.27368">
        <ele>58.8</ele>
        <time>2020-09-08T16:03:08Z</time>
      </trkpt>
      <trkpt lat="44.50475" lon="-0.27368">
        <ele>58.8</ele>
        <time>2020-09-08T16:03:10Z</time>
      </trkpt>
      <trkpt lat="44.50474" lon="-0.27369">
        <ele>58.8</ele>
        <time>2020-09-08T16:03:12Z</time>
      </trkpt>
      <trkpt lat="44.50474" lon="-0.2737">
        <ele>58.7</ele>
        <time>2020-09-08T16:03:13Z</time>
      </trkpt>
      <trkpt lat="44.50473" lon="-0.2737">
        <ele>58.7</ele>
        <time>2020-09-08T16:03:14Z</time>
      </trkpt>
      <trkpt lat="44.50472" lon="-0.2737">
        <ele>58.7</ele>
        <time>2020-09-08T16:03:15Z</time>
      </trkpt>
      <trkpt lat="44.50472" lon="-0.27371">
        <ele>58.7</ele>
        <time>2020-09-08T16:03:16Z</time>
      </trkpt>
      <trkpt lat="44.50471" lon="-0.27372">
        <ele>58.8</ele>
        <time>2020-09-08T16:03:17Z</time>
      </trkpt>
      <trkpt lat="44.5047" lon="-0.27373">
        <ele>58.7</ele>
        <time>2020-09-08T16:03:19Z</time>
      </trkpt>
      <trkpt lat="44.50469" lon="-0.27374">
        <ele>58.7</ele>
        <time>2020-09-08T16:03:20Z</time>
      </trkpt>
      <trkpt lat="44.50469" lon="-0.27376">
        <ele>58.8</ele>
        <time>2020-09-08T16:03:21Z</time>
      </trkpt>
      <trkpt lat="44.50469" lon="-0.27377">
        <ele>58.8</ele>
        <time>2020-09-08T16:03:22Z</time>
      </trkpt>
      <trkpt lat="44.50468" lon="-0.27379">
        <ele>58.8</ele>
        <time>2020-09-08T16:03:24Z</time>
      </trkpt>
      <trkpt lat="44.50467" lon="-0.2738">
        <ele>58.8</ele>
        <time>2020-09-08T16:03:25Z</time>
      </trkpt>
      <trkpt lat="44.50466" lon="-0.27382">
        <ele>58.8</ele>
        <time>2020-09-08T16:03:26Z</time>
      </trkpt>
      <trkpt lat="44.50466" lon="-0.27383">
        <ele>58.8</ele>
        <time>2020-09-08T16:03:28Z</time>
      </trkpt>
      <trkpt lat="44.50465" lon="-0.27384">
        <ele>58.7</ele>
        <time>2020-09-08T16:03:29Z</time>
      </trkpt>
      <trkpt lat="44.50464" lon="-0.27384">
        <ele>58.7</ele>
        <time>2020-09-08T16:03:30Z</time>
      </trkpt>
      <trkpt lat="44.50463" lon="-0.27385">
        <ele>58.8</ele>
        <time>2020-09-08T16:03:31Z</time>
      </trkpt>
      <trkpt lat="44.50462" lon="-0.27385">
        <ele>58.8</ele>
        <time>2020-09-08T16:03:32Z</time>
      </trkpt>
      <trkpt lat="44.50462" lon="-0.27385">
        <ele>58.7</ele>
        <time>2020-09-08T16:03:33Z</time>
      </trkpt>
      <trkpt lat="44.50461" lon="-0.27385">
        <ele>58.7</ele>
        <time>2020-09-08T16:03:35Z</time>
      </trkpt>
      <trkpt lat="44.5046" lon="-0.27386">
        <ele>58.7</ele>
        <time>2020-09-08T16:03:36Z</time>
      </trkpt>
      <trkpt lat="44.50459" lon="-0.27387">
        <ele>58.7</ele>
        <time>2020-09-08T16:03:37Z</time>
      </trkpt>
      <trkpt lat="44.50458" lon="-0.27388">
        <ele>58.5</ele>
        <time>2020-09-08T16:03:39Z</time>
      </trkpt>
      <trkpt lat="44.50457" lon="-0.2739">
        <ele>58.6</ele>
        <time>2020-09-08T16:03:40Z</time>
      </trkpt>
      <trkpt lat="44.50456" lon="-0.27391">
        <ele>58.6</ele>
        <time>2020-09-08T16:03:42Z</time>
      </trkpt>
      <trkpt lat="44.50455" lon="-0.27393">
        <ele>58.6</ele>
        <time>2020-09-08T16:03:44Z</time>
      </trkpt>
      <trkpt lat="44.50455" lon="-0.27394">
        <ele>58.6</ele>
        <time>2020-09-08T16:03:46Z</time>
      </trkpt>
      <trkpt lat="44.50455" lon="-0.27394">
        <ele>58.6</ele>
        <time>2020-09-08T16:03:47Z</time>
      </trkpt>
      <trkpt lat="44.50455" lon="-0.27394">
        <ele>58.6</ele>
        <time>2020-09-08T16:03:48Z</time>
      </trkpt>
      <trkpt lat="44.50454" lon="-0.27395">
        <ele>58.6</ele>
        <time>2020-09-08T16:03:50Z</time>
      </trkpt>
      <trkpt lat="44.50454" lon="-0.27397">
        <ele>58.6</ele>
        <time>2020-09-08T16:03:51Z</time>
      </trkpt>
      <trkpt lat="44.50453" lon="-0.27399">
        <ele>58.7</ele>
        <time>2020-09-08T16:03:52Z</time>
      </trkpt>
      <trkpt lat="44.50452" lon="-0.27401">
        <ele>58.5</ele>
        <time>2020-09-08T16:03:54Z</time>
      </trkpt>
      <trkpt lat="44.50452" lon="-0.27402">
        <ele>58.6</ele>
        <time>2020-09-08T16:03:55Z</time>
      </trkpt>
      <trkpt lat="44.50452" lon="-0.27403">
        <ele>58.6</ele>
        <time>2020-09-08T16:03:56Z</time>
      </trkpt>
      <trkpt lat="44.50451" lon="-0.27405">
        <ele>58.6</ele>
        <time>2020-09-08T16:03:58Z</time>
      </trkpt>
      <trkpt lat="44.5045" lon="-0.27407">
        <ele>58.7</ele>
        <time>2020-09-08T16:03:59Z</time>
      </trkpt>
      <trkpt lat="44.50449" lon="-0.27408">
        <ele>58.5</ele>
        <time>2020-09-08T16:04:00Z</time>
      </trkpt>
      <trkpt lat="44.50448" lon="-0.2741">
        <ele>58.5</ele>
        <time>2020-09-08T16:04:01Z</time>
      </trkpt>
      <trkpt lat="44.50447" lon="-0.27413">
        <ele>58.6</ele>
        <time>2020-09-08T16:04:03Z</time>
      </trkpt>
      <trkpt lat="44.50446" lon="-0.27414">
        <ele>58.4</ele>
        <time>2020-09-08T16:04:04Z</time>
      </trkpt>
      <trkpt lat="44.50445" lon="-0.27415">
        <ele>58.5</ele>
        <time>2020-09-08T16:04:05Z</time>
      </trkpt>
      <trkpt lat="44.50445" lon="-0.27416">
        <ele>58.5</ele>
        <time>2020-09-08T16:04:06Z</time>
      </trkpt>
      <trkpt lat="44.50444" lon="-0.27417">
        <ele>58.5</ele>
        <time>2020-09-08T16:04:07Z</time>
      </trkpt>
      <trkpt lat="44.50443" lon="-0.2742">
        <ele>58.3</ele>
        <time>2020-09-08T16:04:08Z</time>
      </trkpt>
      <trkpt lat="44.50442" lon="-0.27422">
        <ele>58.3</ele>
        <time>2020-09-08T16:04:10Z</time>
      </trkpt>
      <trkpt lat="44.50441" lon="-0.27424">
        <ele>58.4</ele>
        <time>2020-09-08T16:04:11Z</time>
      </trkpt>
      <trkpt lat="44.5044" lon="-0.27425">
        <ele>58.2</ele>
        <time>2020-09-08T16:04:12Z</time>
      </trkpt>
      <trkpt lat="44.50439" lon="-0.27427">
        <ele>58.2</ele>
        <time>2020-09-08T16:04:13Z</time>
      </trkpt>
      <trkpt lat="44.50437" lon="-0.2743">
        <ele>58.2</ele>
        <time>2020-09-08T16:04:15Z</time>
      </trkpt>
      <trkpt lat="44.50437" lon="-0.27431">
        <ele>58.1</ele>
        <time>2020-09-08T16:04:16Z</time>
      </trkpt>
      <trkpt lat="44.50436" lon="-0.27432">
        <ele>58.1</ele>
        <time>2020-09-08T16:04:17Z</time>
      </trkpt>
      <trkpt lat="44.50435" lon="-0.27434">
        <ele>58.1</ele>
        <time>2020-09-08T16:04:19Z</time>
      </trkpt>
      <trkpt lat="44.50435" lon="-0.27435">
        <ele>58.1</ele>
        <time>2020-09-08T16:04:20Z</time>
      </trkpt>
      <trkpt lat="44.50434" lon="-0.27437">
        <ele>57.9</ele>
        <time>2020-09-08T16:04:21Z</time>
      </trkpt>
      <trkpt lat="44.50433" lon="-0.27438">
        <ele>57.9</ele>
        <time>2020-09-08T16:04:22Z</time>
      </trkpt>
      <trkpt lat="44.50431" lon="-0.2744">
        <ele>57.9</ele>
        <time>2020-09-08T16:04:23Z</time>
      </trkpt>
      <trkpt lat="44.5043" lon="-0.27442">
        <ele>57.7</ele>
        <time>2020-09-08T16:04:25Z</time>
      </trkpt>
      <trkpt lat="44.50429" lon="-0.27444">
        <ele>57.7</ele>
        <time>2020-09-08T16:04:26Z</time>
      </trkpt>
      <trkpt lat="44.50429" lon="-0.27445">
        <ele>57.7</ele>
        <time>2020-09-08T16:04:27Z</time>
      </trkpt>
      <trkpt lat="44.50427" lon="-0.27447">
        <ele>57.6</ele>
        <time>2020-09-08T16:04:29Z</time>
      </trkpt>
      <trkpt lat="44.50427" lon="-0.27449">
        <ele>57.6</ele>
        <time>2020-09-08T16:04:30Z</time>
      </trkpt>
      <trkpt lat="44.50425" lon="-0.27452">
        <ele>57.6</ele>
        <time>2020-09-08T16:04:31Z</time>
      </trkpt>
      <trkpt lat="44.50424" lon="-0.27453">
        <ele>57.5</ele>
        <time>2020-09-08T16:04:33Z</time>
      </trkpt>
      <trkpt lat="44.50423" lon="-0.27454">
        <ele>57.5</ele>
        <time>2020-09-08T16:04:34Z</time>
      </trkpt>
      <trkpt lat="44.50422" lon="-0.27456">
        <ele>57.5</ele>
        <time>2020-09-08T16:04:35Z</time>
      </trkpt>
      <trkpt lat="44.50421" lon="-0.27457">
        <ele>57.4</ele>
        <time>2020-09-08T16:04:36Z</time>
      </trkpt>
      <trkpt lat="44.5042" lon="-0.27458">
        <ele>57.4</ele>
        <time>2020-09-08T16:04:37Z</time>
      </trkpt>
      <trkpt lat="44.50418" lon="-0.27459">
        <ele>57.3</ele>
        <time>2020-09-08T16:04:38Z</time>
      </trkpt>
      <trkpt lat="44.50416" lon="-0.2746">
        <ele>57.3</ele>
        <time>2020-09-08T16:04:40Z</time>
      </trkpt>
      <trkpt lat="44.50415" lon="-0.27461">
        <ele>57.2</ele>
        <time>2020-09-08T16:04:41Z</time>
      </trkpt>
      <trkpt lat="44.50413" lon="-0.27461">
        <ele>57.2</ele>
        <time>2020-09-08T16:04:43Z</time>
      </trkpt>
      <trkpt lat="44.50411" lon="-0.27463">
        <ele>57.1</ele>
        <time>2020-09-08T16:04:44Z</time>
      </trkpt>
      <trkpt lat="44.5041" lon="-0.27463">
        <ele>57.1</ele>
        <time>2020-09-08T16:04:45Z</time>
      </trkpt>
      <trkpt lat="44.50409" lon="-0.27464">
        <ele>57.1</ele>
        <time>2020-09-08T16:04:46Z</time>
      </trkpt>
      <trkpt lat="44.50408" lon="-0.27465">
        <ele>57.1</ele>
        <time>2020-09-08T16:04:47Z</time>
      </trkpt>
      <trkpt lat="44.50405" lon="-0.27466">
        <ele>57.1</ele>
        <time>2020-09-08T16:04:49Z</time>
      </trkpt>
      <trkpt lat="44.50403" lon="-0.27467">
        <ele>57</ele>
        <time>2020-09-08T16:04:51Z</time>
      </trkpt>
      <trkpt lat="44.50402" lon="-0.27468">
        <ele>57</ele>
        <time>2020-09-08T16:04:52Z</time>
      </trkpt>
      <trkpt lat="44.504" lon="-0.27469">
        <ele>57</ele>
        <time>2020-09-08T16:04:53Z</time>
      </trkpt>
      <trkpt lat="44.50399" lon="-0.27469">
        <ele>57</ele>
        <time>2020-09-08T16:04:54Z</time>
      </trkpt>
      <trkpt lat="44.50396" lon="-0.27469">
        <ele>57</ele>
        <time>2020-09-08T16:04:55Z</time>
      </trkpt>
      <trkpt lat="44.50395" lon="-0.27469">
        <ele>57</ele>
        <time>2020-09-08T16:04:56Z</time>
      </trkpt>
      <trkpt lat="44.50394" lon="-0.27469">
        <ele>57</ele>
        <time>2020-09-08T16:04:57Z</time>
      </trkpt>
      <trkpt lat="44.50393" lon="-0.27469">
        <ele>57</ele>
        <time>2020-09-08T16:04:59Z</time>
      </trkpt>
      <trkpt lat="44.50391" lon="-0.27469">
        <ele>57</ele>
        <time>2020-09-08T16:05:00Z</time>
      </trkpt>
      <trkpt lat="44.50388" lon="-0.27468">
        <ele>57</ele>
        <time>2020-09-08T16:05:02Z</time>
      </trkpt>
      <trkpt lat="44.50387" lon="-0.27468">
        <ele>57</ele>
        <time>2020-09-08T16:05:03Z</time>
      </trkpt>
      <trkpt lat="44.50386" lon="-0.27468">
        <ele>57</ele>
        <time>2020-09-08T16:05:04Z</time>
      </trkpt>
      <trkpt lat="44.50386" lon="-0.27467">
        <ele>57</ele>
        <time>2020-09-08T16:05:05Z</time>
      </trkpt>
      <trkpt lat="44.50384" lon="-0.27467">
        <ele>57.1</ele>
        <time>2020-09-08T16:05:06Z</time>
      </trkpt>
      <trkpt lat="44.50382" lon="-0.27468">
        <ele>57.1</ele>
        <time>2020-09-08T16:05:08Z</time>
      </trkpt>
      <trkpt lat="44.50381" lon="-0.27468">
        <ele>57.1</ele>
        <time>2020-09-08T16:05:09Z</time>
      </trkpt>
      <trkpt lat="44.5038" lon="-0.27469">
        <ele>57.1</ele>
        <time>2020-09-08T16:05:10Z</time>
      </trkpt>
      <trkpt lat="44.50379" lon="-0.27469">
        <ele>57.2</ele>
        <time>2020-09-08T16:05:11Z</time>
      </trkpt>
      <trkpt lat="44.50378" lon="-0.27469">
        <ele>57.2</ele>
        <time>2020-09-08T16:05:12Z</time>
      </trkpt>
      <trkpt lat="44.50375" lon="-0.2747">
        <ele>57.2</ele>
        <time>2020-09-08T16:05:13Z</time>
      </trkpt>
      <trkpt lat="44.50374" lon="-0.2747">
        <ele>57.2</ele>
        <time>2020-09-08T16:05:15Z</time>
      </trkpt>
      <trkpt lat="44.50372" lon="-0.27471">
        <ele>57.3</ele>
        <time>2020-09-08T16:05:16Z</time>
      </trkpt>
      <trkpt lat="44.50371" lon="-0.27471">
        <ele>57.3</ele>
        <time>2020-09-08T16:05:17Z</time>
      </trkpt>
      <trkpt lat="44.5037" lon="-0.27472">
        <ele>57.4</ele>
        <time>2020-09-08T16:05:18Z</time>
      </trkpt>
      <trkpt lat="44.50369" lon="-0.27472">
        <ele>57.4</ele>
        <time>2020-09-08T16:05:20Z</time>
      </trkpt>
      <trkpt lat="44.50368" lon="-0.27473">
        <ele>57.4</ele>
        <time>2020-09-08T16:05:21Z</time>
      </trkpt>
      <trkpt lat="44.50367" lon="-0.27473">
        <ele>57.4</ele>
        <time>2020-09-08T16:05:22Z</time>
      </trkpt>
      <trkpt lat="44.50365" lon="-0.27474">
        <ele>57.4</ele>
        <time>2020-09-08T16:05:23Z</time>
      </trkpt>
      <trkpt lat="44.50364" lon="-0.27474">
        <ele>57.5</ele>
        <time>2020-09-08T16:05:24Z</time>
      </trkpt>
      <trkpt lat="44.50363" lon="-0.27475">
        <ele>57.5</ele>
        <time>2020-09-08T16:05:25Z</time>
      </trkpt>
      <trkpt lat="44.50362" lon="-0.27476">
        <ele>57.5</ele>
        <time>2020-09-08T16:05:26Z</time>
      </trkpt>
      <trkpt lat="44.50361" lon="-0.27476">
        <ele>57.5</ele>
        <time>2020-09-08T16:05:27Z</time>
      </trkpt>
      <trkpt lat="44.5036" lon="-0.27477">
        <ele>57.6</ele>
        <time>2020-09-08T16:05:29Z</time>
      </trkpt>
      <trkpt lat="44.50359" lon="-0.27477">
        <ele>57.6</ele>
        <time>2020-09-08T16:05:30Z</time>
      </trkpt>
      <trkpt lat="44.50358" lon="-0.27478">
        <ele>57.6</ele>
        <time>2020-09-08T16:05:31Z</time>
      </trkpt>
      <trkpt lat="44.50356" lon="-0.27478">
        <ele>57.6</ele>
        <time>2020-09-08T16:05:32Z</time>
      </trkpt>
      <trkpt lat="44.50355" lon="-0.27478">
        <ele>57.6</ele>
        <time>2020-09-08T16:05:34Z</time>
      </trkpt>
      <trkpt lat="44.50354" lon="-0.27478">
        <ele>57.7</ele>
        <time>2020-09-08T16:05:35Z</time>
      </trkpt>
      <trkpt lat="44.50352" lon="-0.27478">
        <ele>57.7</ele>
        <time>2020-09-08T16:05:36Z</time>
      </trkpt>
      <trkpt lat="44.50351" lon="-0.27478">
        <ele>57.8</ele>
        <time>2020-09-08T16:05:37Z</time>
      </trkpt>
      <trkpt lat="44.5035" lon="-0.27479">
        <ele>57.8</ele>
        <time>2020-09-08T16:05:39Z</time>
      </trkpt>
      <trkpt lat="44.50349" lon="-0.27479">
        <ele>57.7</ele>
        <time>2020-09-08T16:05:40Z</time>
      </trkpt>
      <trkpt lat="44.50348" lon="-0.27479">
        <ele>57.8</ele>
        <time>2020-09-08T16:05:42Z</time>
      </trkpt>
      <trkpt lat="44.50347" lon="-0.27479">
        <ele>57.8</ele>
        <time>2020-09-08T16:05:43Z</time>
      </trkpt>
      <trkpt lat="44.50346" lon="-0.27479">
        <ele>57.8</ele>
        <time>2020-09-08T16:05:44Z</time>
      </trkpt>
      <trkpt lat="44.50344" lon="-0.2748">
        <ele>57.9</ele>
        <time>2020-09-08T16:05:46Z</time>
      </trkpt>
      <trkpt lat="44.50343" lon="-0.2748">
        <ele>57.9</ele>
        <time>2020-09-08T16:05:47Z</time>
      </trkpt>
      <trkpt lat="44.50341" lon="-0.27482">
        <ele>57.9</ele>
        <time>2020-09-08T16:05:48Z</time>
      </trkpt>
      <trkpt lat="44.50341" lon="-0.27483">
        <ele>57.9</ele>
        <time>2020-09-08T16:05:49Z</time>
      </trkpt>
      <trkpt lat="44.5034" lon="-0.27483">
        <ele>57.9</ele>
        <time>2020-09-08T16:05:50Z</time>
      </trkpt>
      <trkpt lat="44.50338" lon="-0.27485">
        <ele>57.9</ele>
        <time>2020-09-08T16:05:52Z</time>
      </trkpt>
      <trkpt lat="44.50337" lon="-0.27487">
        <ele>57.9</ele>
        <time>2020-09-08T16:05:53Z</time>
      </trkpt>
      <trkpt lat="44.50336" lon="-0.27488">
        <ele>57.9</ele>
        <time>2020-09-08T16:05:54Z</time>
      </trkpt>
      <trkpt lat="44.50334" lon="-0.27489">
        <ele>57.9</ele>
        <time>2020-09-08T16:05:55Z</time>
      </trkpt>
      <trkpt lat="44.50334" lon="-0.2749">
        <ele>57.9</ele>
        <time>2020-09-08T16:05:56Z</time>
      </trkpt>
      <trkpt lat="44.50333" lon="-0.27491">
        <ele>57.9</ele>
        <time>2020-09-08T16:05:57Z</time>
      </trkpt>
      <trkpt lat="44.50331" lon="-0.27493">
        <ele>57.8</ele>
        <time>2020-09-08T16:05:59Z</time>
      </trkpt>
      <trkpt lat="44.5033" lon="-0.27493">
        <ele>57.8</ele>
        <time>2020-09-08T16:06:00Z</time>
      </trkpt>
      <trkpt lat="44.50329" lon="-0.27494">
        <ele>57.8</ele>
        <time>2020-09-08T16:06:01Z</time>
      </trkpt>
      <trkpt lat="44.50328" lon="-0.27495">
        <ele>57.8</ele>
        <time>2020-09-08T16:06:02Z</time>
      </trkpt>
      <trkpt lat="44.50326" lon="-0.27496">
        <ele>57.7</ele>
        <time>2020-09-08T16:06:03Z</time>
      </trkpt>
      <trkpt lat="44.50324" lon="-0.27497">
        <ele>57.7</ele>
        <time>2020-09-08T16:06:05Z</time>
      </trkpt>
      <trkpt lat="44.50323" lon="-0.27497">
        <ele>57.7</ele>
        <time>2020-09-08T16:06:06Z</time>
      </trkpt>
      <trkpt lat="44.5032" lon="-0.27498">
        <ele>57.8</ele>
        <time>2020-09-08T16:06:08Z</time>
      </trkpt>
      <trkpt lat="44.50319" lon="-0.27498">
        <ele>57.8</ele>
        <time>2020-09-08T16:06:09Z</time>
      </trkpt>
      <trkpt lat="44.50318" lon="-0.27497">
        <ele>57.8</ele>
        <time>2020-09-08T16:06:10Z</time>
      </trkpt>
      <trkpt lat="44.50317" lon="-0.27497">
        <ele>57.8</ele>
        <time>2020-09-08T16:06:11Z</time>
      </trkpt>
      <trkpt lat="44.50316" lon="-0.27496">
        <ele>57.8</ele>
        <time>2020-09-08T16:06:13Z</time>
      </trkpt>
      <trkpt lat="44.50314" lon="-0.27496">
        <ele>57.7</ele>
        <time>2020-09-08T16:06:14Z</time>
      </trkpt>
      <trkpt lat="44.50313" lon="-0.27496">
        <ele>57.8</ele>
        <time>2020-09-08T16:06:15Z</time>
      </trkpt>
      <trkpt lat="44.50311" lon="-0.27495">
        <ele>57.8</ele>
        <time>2020-09-08T16:06:16Z</time>
      </trkpt>
      <trkpt lat="44.5031" lon="-0.27495">
        <ele>57.8</ele>
        <time>2020-09-08T16:06:17Z</time>
      </trkpt>
      <trkpt lat="44.50308" lon="-0.27494">
        <ele>57.8</ele>
        <time>2020-09-08T16:06:18Z</time>
      </trkpt>
      <trkpt lat="44.50307" lon="-0.27493">
        <ele>57.8</ele>
        <time>2020-09-08T16:06:20Z</time>
      </trkpt>
      <trkpt lat="44.50306" lon="-0.27493">
        <ele>57.8</ele>
        <time>2020-09-08T16:06:21Z</time>
      </trkpt>
      <trkpt lat="44.50305" lon="-0.27493">
        <ele>57.8</ele>
        <time>2020-09-08T16:06:22Z</time>
      </trkpt>
      <trkpt lat="44.50304" lon="-0.27492">
        <ele>57.8</ele>
        <time>2020-09-08T16:06:23Z</time>
      </trkpt>
      <trkpt lat="44.50302" lon="-0.27493">
        <ele>57.7</ele>
        <time>2020-09-08T16:06:25Z</time>
      </trkpt>
      <trkpt lat="44.50302" lon="-0.27494">
        <ele>57.7</ele>
        <time>2020-09-08T16:06:26Z</time>
      </trkpt>
      <trkpt lat="44.50301" lon="-0.27495">
        <ele>57.7</ele>
        <time>2020-09-08T16:06:27Z</time>
      </trkpt>
      <trkpt lat="44.50299" lon="-0.27496">
        <ele>57.7</ele>
        <time>2020-09-08T16:06:28Z</time>
      </trkpt>
      <trkpt lat="44.50299" lon="-0.27497">
        <ele>57.7</ele>
        <time>2020-09-08T16:06:29Z</time>
      </trkpt>
      <trkpt lat="44.50298" lon="-0.27498">
        <ele>57.7</ele>
        <time>2020-09-08T16:06:31Z</time>
      </trkpt>
      <trkpt lat="44.50299" lon="-0.27498">
        <ele>57.7</ele>
        <time>2020-09-08T16:06:32Z</time>
      </trkpt>
      <trkpt lat="44.50299" lon="-0.275">
        <ele>57.7</ele>
        <time>2020-09-08T16:06:34Z</time>
      </trkpt>
      <trkpt lat="44.50299" lon="-0.27501">
        <ele>57.6</ele>
        <time>2020-09-08T16:06:35Z</time>
      </trkpt>
      <trkpt lat="44.50298" lon="-0.27504">
        <ele>57.6</ele>
        <time>2020-09-08T16:06:37Z</time>
      </trkpt>
      <trkpt lat="44.50298" lon="-0.27506">
        <ele>57.6</ele>
        <time>2020-09-08T16:06:38Z</time>
      </trkpt>
      <trkpt lat="44.50297" lon="-0.27508">
        <ele>57.6</ele>
        <time>2020-09-08T16:06:39Z</time>
      </trkpt>
      <trkpt lat="44.50297" lon="-0.27509">
        <ele>57.5</ele>
        <time>2020-09-08T16:06:40Z</time>
      </trkpt>
      <trkpt lat="44.50297" lon="-0.27512">
        <ele>57.5</ele>
        <time>2020-09-08T16:06:42Z</time>
      </trkpt>
      <trkpt lat="44.50297" lon="-0.27514">
        <ele>57.4</ele>
        <time>2020-09-08T16:06:43Z</time>
      </trkpt>
      <trkpt lat="44.50297" lon="-0.27516">
        <ele>57.4</ele>
        <time>2020-09-08T16:06:44Z</time>
      </trkpt>
      <trkpt lat="44.50297" lon="-0.27518">
        <ele>57.4</ele>
        <time>2020-09-08T16:06:46Z</time>
      </trkpt>
      <trkpt lat="44.50298" lon="-0.27521">
        <ele>57.4</ele>
        <time>2020-09-08T16:06:47Z</time>
      </trkpt>
      <trkpt lat="44.50298" lon="-0.27522">
        <ele>57.3</ele>
        <time>2020-09-08T16:06:48Z</time>
      </trkpt>
      <trkpt lat="44.50298" lon="-0.27525">
        <ele>57.3</ele>
        <time>2020-09-08T16:06:49Z</time>
      </trkpt>
      <trkpt lat="44.50298" lon="-0.27527">
        <ele>57.2</ele>
        <time>2020-09-08T16:06:50Z</time>
      </trkpt>
      <trkpt lat="44.50298" lon="-0.27528">
        <ele>57.2</ele>
        <time>2020-09-08T16:06:51Z</time>
      </trkpt>
      <trkpt lat="44.50299" lon="-0.27531">
        <ele>57.2</ele>
        <time>2020-09-08T16:06:53Z</time>
      </trkpt>
      <trkpt lat="44.50299" lon="-0.27532">
        <ele>57.2</ele>
        <time>2020-09-08T16:06:54Z</time>
      </trkpt>
      <trkpt lat="44.503" lon="-0.27533">
        <ele>57</ele>
        <time>2020-09-08T16:06:55Z</time>
      </trkpt>
      <trkpt lat="44.50301" lon="-0.27535">
        <ele>56.9</ele>
        <time>2020-09-08T16:06:57Z</time>
      </trkpt>
      <trkpt lat="44.50301" lon="-0.27536">
        <ele>56.8</ele>
        <time>2020-09-08T16:06:58Z</time>
      </trkpt>
      <trkpt lat="44.50302" lon="-0.27537">
        <ele>56.8</ele>
        <time>2020-09-08T16:06:59Z</time>
      </trkpt>
      <trkpt lat="44.50302" lon="-0.27538">
        <ele>56.8</ele>
        <time>2020-09-08T16:07:00Z</time>
      </trkpt>
      <trkpt lat="44.50302" lon="-0.27539">
        <ele>56.7</ele>
        <time>2020-09-08T16:07:01Z</time>
      </trkpt>
      <trkpt lat="44.50303" lon="-0.27541">
        <ele>56.6</ele>
        <time>2020-09-08T16:07:03Z</time>
      </trkpt>
      <trkpt lat="44.50303" lon="-0.27539">
        <ele>56.6</ele>
        <time>2020-09-08T16:07:04Z</time>
      </trkpt>
      <trkpt lat="44.50303" lon="-0.27538">
        <ele>56.6</ele>
        <time>2020-09-08T16:07:06Z</time>
      </trkpt>
      <trkpt lat="44.50302" lon="-0.27537">
        <ele>56.6</ele>
        <time>2020-09-08T16:07:07Z</time>
      </trkpt>
      <trkpt lat="44.50302" lon="-0.27535">
        <ele>56.5</ele>
        <time>2020-09-08T16:07:08Z</time>
      </trkpt>
      <trkpt lat="44.50302" lon="-0.27534">
        <ele>56.6</ele>
        <time>2020-09-08T16:07:10Z</time>
      </trkpt>
      <trkpt lat="44.50302" lon="-0.27533">
        <ele>56.6</ele>
        <time>2020-09-08T16:07:11Z</time>
      </trkpt>
      <trkpt lat="44.50302" lon="-0.27532">
        <ele>56.5</ele>
        <time>2020-09-08T16:07:12Z</time>
      </trkpt>
      <trkpt lat="44.50302" lon="-0.2753">
        <ele>56.5</ele>
        <time>2020-09-08T16:07:13Z</time>
      </trkpt>
      <trkpt lat="44.50301" lon="-0.27528">
        <ele>56.6</ele>
        <time>2020-09-08T16:07:15Z</time>
      </trkpt>
      <trkpt lat="44.50301" lon="-0.27526">
        <ele>56.5</ele>
        <time>2020-09-08T16:07:16Z</time>
      </trkpt>
      <trkpt lat="44.50301" lon="-0.27522">
        <ele>56.6</ele>
        <time>2020-09-08T16:07:17Z</time>
      </trkpt>
      <trkpt lat="44.503" lon="-0.27521">
        <ele>56.6</ele>
        <time>2020-09-08T16:07:18Z</time>
      </trkpt>
      <trkpt lat="44.50299" lon="-0.27519">
        <ele>56.6</ele>
        <time>2020-09-08T16:07:20Z</time>
      </trkpt>
      <trkpt lat="44.50298" lon="-0.27518">
        <ele>56.5</ele>
        <time>2020-09-08T16:07:21Z</time>
      </trkpt>
      <trkpt lat="44.50296" lon="-0.27517">
        <ele>56.5</ele>
        <time>2020-09-08T16:07:22Z</time>
      </trkpt>
      <trkpt lat="44.50295" lon="-0.27517">
        <ele>56.6</ele>
        <time>2020-09-08T16:07:23Z</time>
      </trkpt>
      <trkpt lat="44.50291" lon="-0.27516">
        <ele>56.5</ele>
        <time>2020-09-08T16:07:25Z</time>
      </trkpt>
      <trkpt lat="44.5029" lon="-0.27516">
        <ele>56.5</ele>
        <time>2020-09-08T16:07:26Z</time>
      </trkpt>
      <trkpt lat="44.50288" lon="-0.27516">
        <ele>56.4</ele>
        <time>2020-09-08T16:07:27Z</time>
      </trkpt>
      <trkpt lat="44.50286" lon="-0.27517">
        <ele>56.4</ele>
        <time>2020-09-08T16:07:29Z</time>
      </trkpt>
      <trkpt lat="44.50284" lon="-0.27518">
        <ele>56.3</ele>
        <time>2020-09-08T16:07:30Z</time>
      </trkpt>
      <trkpt lat="44.50282" lon="-0.27519">
        <ele>56.3</ele>
        <time>2020-09-08T16:07:32Z</time>
      </trkpt>
      <trkpt lat="44.5028" lon="-0.27521">
        <ele>56.3</ele>
        <time>2020-09-08T16:07:33Z</time>
      </trkpt>
      <trkpt lat="44.50279" lon="-0.27522">
        <ele>56.3</ele>
        <time>2020-09-08T16:07:34Z</time>
      </trkpt>
      <trkpt lat="44.50278" lon="-0.27524">
        <ele>56.2</ele>
        <time>2020-09-08T16:07:36Z</time>
      </trkpt>
      <trkpt lat="44.50278" lon="-0.27526">
        <ele>56.2</ele>
        <time>2020-09-08T16:07:37Z</time>
      </trkpt>
      <trkpt lat="44.50277" lon="-0.27528">
        <ele>56.1</ele>
        <time>2020-09-08T16:07:38Z</time>
      </trkpt>
      <trkpt lat="44.50276" lon="-0.2753">
        <ele>56.1</ele>
        <time>2020-09-08T16:07:40Z</time>
      </trkpt>
      <trkpt lat="44.50275" lon="-0.27532">
        <ele>56.1</ele>
        <time>2020-09-08T16:07:41Z</time>
      </trkpt>
      <trkpt lat="44.50275" lon="-0.27533">
        <ele>56</ele>
        <time>2020-09-08T16:07:42Z</time>
      </trkpt>
      <trkpt lat="44.50274" lon="-0.27535">
        <ele>56.1</ele>
        <time>2020-09-08T16:07:44Z</time>
      </trkpt>
      <trkpt lat="44.50275" lon="-0.27538">
        <ele>56</ele>
        <time>2020-09-08T16:07:46Z</time>
      </trkpt>
      <trkpt lat="44.50275" lon="-0.2754">
        <ele>55.9</ele>
        <time>2020-09-08T16:07:48Z</time>
      </trkpt>
      <trkpt lat="44.50276" lon="-0.2754">
        <ele>55.9</ele>
        <time>2020-09-08T16:07:50Z</time>
      </trkpt>
      <trkpt lat="44.50277" lon="-0.27541">
        <ele>55.9</ele>
        <time>2020-09-08T16:07:51Z</time>
      </trkpt>
      <trkpt lat="44.50277" lon="-0.27541">
        <ele>55.8</ele>
        <time>2020-09-08T16:07:52Z</time>
      </trkpt>
      <trkpt lat="44.50276" lon="-0.27542">
        <ele>55.8</ele>
        <time>2020-09-08T16:07:54Z</time>
      </trkpt>
      <trkpt lat="44.50275" lon="-0.27544">
        <ele>55.9</ele>
        <time>2020-09-08T16:07:56Z</time>
      </trkpt>
      <trkpt lat="44.50274" lon="-0.27545">
        <ele>55.8</ele>
        <time>2020-09-08T16:07:57Z</time>
      </trkpt>
      <trkpt lat="44.50273" lon="-0.27546">
        <ele>55.8</ele>
        <time>2020-09-08T16:07:58Z</time>
      </trkpt>
      <trkpt lat="44.50272" lon="-0.27547">
        <ele>55.7</ele>
        <time>2020-09-08T16:08:00Z</time>
      </trkpt>
      <trkpt lat="44.50272" lon="-0.27548">
        <ele>55.8</ele>
        <time>2020-09-08T16:08:02Z</time>
      </trkpt>
      <trkpt lat="44.50272" lon="-0.27548">
        <ele>55.7</ele>
        <time>2020-09-08T16:08:03Z</time>
      </trkpt>
      <trkpt lat="44.50272" lon="-0.27549">
        <ele>55.7</ele>
        <time>2020-09-08T16:08:04Z</time>
      </trkpt>
      <trkpt lat="44.50273" lon="-0.2755">
        <ele>55.6</ele>
        <time>2020-09-08T16:08:06Z</time>
      </trkpt>
      <trkpt lat="44.50273" lon="-0.27549">
        <ele>55.6</ele>
        <time>2020-09-08T16:08:08Z</time>
      </trkpt>
      <trkpt lat="44.50273" lon="-0.27549">
        <ele>55.6</ele>
        <time>2020-09-08T16:08:09Z</time>
      </trkpt>
      <trkpt lat="44.50274" lon="-0.2755">
        <ele>55.5</ele>
        <time>2020-09-08T16:08:11Z</time>
      </trkpt>
      <trkpt lat="44.50274" lon="-0.27551">
        <ele>55.5</ele>
        <time>2020-09-08T16:08:13Z</time>
      </trkpt>
      <trkpt lat="44.50275" lon="-0.27551">
        <ele>55.4</ele>
        <time>2020-09-08T16:08:14Z</time>
      </trkpt>
      <trkpt lat="44.50275" lon="-0.2755">
        <ele>55.3</ele>
        <time>2020-09-08T16:08:16Z</time>
      </trkpt>
      <trkpt lat="44.50275" lon="-0.2755">
        <ele>55.3</ele>
        <time>2020-09-08T16:08:17Z</time>
      </trkpt>
      <trkpt lat="44.50276" lon="-0.2755">
        <ele>55.2</ele>
        <time>2020-09-08T16:08:18Z</time>
      </trkpt>
      <trkpt lat="44.50276" lon="-0.27549">
        <ele>55.2</ele>
        <time>2020-09-08T16:08:20Z</time>
      </trkpt>
      <trkpt lat="44.50276" lon="-0.27549">
        <ele>55.1</ele>
        <time>2020-09-08T16:08:21Z</time>
      </trkpt>
      <trkpt lat="44.50276" lon="-0.27548">
        <ele>55.1</ele>
        <time>2020-09-08T16:08:22Z</time>
      </trkpt>
      <trkpt lat="44.50278" lon="-0.27548">
        <ele>55.1</ele>
        <time>2020-09-08T16:08:24Z</time>
      </trkpt>
      <trkpt lat="44.50278" lon="-0.27547">
        <ele>55</ele>
        <time>2020-09-08T16:08:26Z</time>
      </trkpt>
      <trkpt lat="44.50277" lon="-0.27548">
        <ele>55</ele>
        <time>2020-09-08T16:08:28Z</time>
      </trkpt>
      <trkpt lat="44.50277" lon="-0.27549">
        <ele>54.9</ele>
        <time>2020-09-08T16:08:29Z</time>
      </trkpt>
      <trkpt lat="44.50276" lon="-0.2755">
        <ele>54.9</ele>
        <time>2020-09-08T16:08:30Z</time>
      </trkpt>
      <trkpt lat="44.50275" lon="-0.27552">
        <ele>55</ele>
        <time>2020-09-08T16:08:32Z</time>
      </trkpt>
      <trkpt lat="44.50274" lon="-0.27552">
        <ele>55</ele>
        <time>2020-09-08T16:08:33Z</time>
      </trkpt>
      <trkpt lat="44.50273" lon="-0.27553">
        <ele>55</ele>
        <time>2020-09-08T16:08:34Z</time>
      </trkpt>
      <trkpt lat="44.50275" lon="-0.27553">
        <ele>54.9</ele>
        <time>2020-09-08T16:08:37Z</time>
      </trkpt>
      <trkpt lat="44.50275" lon="-0.27552">
        <ele>54.9</ele>
        <time>2020-09-08T16:08:38Z</time>
      </trkpt>
      <trkpt lat="44.50274" lon="-0.27552">
        <ele>54.8</ele>
        <time>2020-09-08T16:08:40Z</time>
      </trkpt>
      <trkpt lat="44.50274" lon="-0.27551">
        <ele>54.7</ele>
        <time>2020-09-08T16:08:42Z</time>
      </trkpt>
      <trkpt lat="44.50273" lon="-0.27552">
        <ele>54.7</ele>
        <time>2020-09-08T16:08:43Z</time>
      </trkpt>
      <trkpt lat="44.50273" lon="-0.27552">
        <ele>54.7</ele>
        <time>2020-09-08T16:08:44Z</time>
      </trkpt>
      <trkpt lat="44.50273" lon="-0.27553">
        <ele>54.7</ele>
        <time>2020-09-08T16:08:46Z</time>
      </trkpt>
      <trkpt lat="44.50273" lon="-0.27554">
        <ele>54.7</ele>
        <time>2020-09-08T16:08:47Z</time>
      </trkpt>
      <trkpt lat="44.50272" lon="-0.27555">
        <ele>54.6</ele>
        <time>2020-09-08T16:08:48Z</time>
      </trkpt>
      <trkpt lat="44.50272" lon="-0.27557">
        <ele>54.6</ele>
        <time>2020-09-08T16:08:49Z</time>
      </trkpt>
      <trkpt lat="44.50272" lon="-0.27558">
        <ele>54.6</ele>
        <time>2020-09-08T16:08:50Z</time>
      </trkpt>
      <trkpt lat="44.50272" lon="-0.27559">
        <ele>54.7</ele>
        <time>2020-09-08T16:08:51Z</time>
      </trkpt>
      <trkpt lat="44.50272" lon="-0.2756">
        <ele>54.7</ele>
        <time>2020-09-08T16:08:52Z</time>
      </trkpt>
      <trkpt lat="44.50271" lon="-0.27562">
        <ele>54.6</ele>
        <time>2020-09-08T16:08:54Z</time>
      </trkpt>
      <trkpt lat="44.50271" lon="-0.27563">
        <ele>54.6</ele>
        <time>2020-09-08T16:08:55Z</time>
      </trkpt>
      <trkpt lat="44.50269" lon="-0.27564">
        <ele>54.6</ele>
        <time>2020-09-08T16:08:57Z</time>
      </trkpt>
      <trkpt lat="44.50268" lon="-0.27566">
        <ele>54.7</ele>
        <time>2020-09-08T16:08:58Z</time>
      </trkpt>
      <trkpt lat="44.50266" lon="-0.27567">
        <ele>54.7</ele>
        <time>2020-09-08T16:09:00Z</time>
      </trkpt>
      <trkpt lat="44.50264" lon="-0.27568">
        <ele>54.8</ele>
        <time>2020-09-08T16:09:01Z</time>
      </trkpt>
      <trkpt lat="44.50262" lon="-0.27569">
        <ele>54.9</ele>
        <time>2020-09-08T16:09:03Z</time>
      </trkpt>
      <trkpt lat="44.5026" lon="-0.27569">
        <ele>55</ele>
        <time>2020-09-08T16:09:04Z</time>
      </trkpt>
      <trkpt lat="44.50257" lon="-0.27571">
        <ele>55.1</ele>
        <time>2020-09-08T16:09:05Z</time>
      </trkpt>
      <trkpt lat="44.50256" lon="-0.27571">
        <ele>55.2</ele>
        <time>2020-09-08T16:09:06Z</time>
      </trkpt>
      <trkpt lat="44.50254" lon="-0.27572">
        <ele>55.2</ele>
        <time>2020-09-08T16:09:07Z</time>
      </trkpt>
      <trkpt lat="44.50252" lon="-0.27572">
        <ele>55.3</ele>
        <time>2020-09-08T16:09:08Z</time>
      </trkpt>
      <trkpt lat="44.50248" lon="-0.27573">
        <ele>55.6</ele>
        <time>2020-09-08T16:09:10Z</time>
      </trkpt>
      <trkpt lat="44.50246" lon="-0.27574">
        <ele>55.7</ele>
        <time>2020-09-08T16:09:11Z</time>
      </trkpt>
      <trkpt lat="44.50245" lon="-0.27574">
        <ele>55.7</ele>
        <time>2020-09-08T16:09:12Z</time>
      </trkpt>
      <trkpt lat="44.50243" lon="-0.27575">
        <ele>55.9</ele>
        <time>2020-09-08T16:09:14Z</time>
      </trkpt>
      <trkpt lat="44.50242" lon="-0.27576">
        <ele>55.9</ele>
        <time>2020-09-08T16:09:15Z</time>
      </trkpt>
      <trkpt lat="44.5024" lon="-0.27577">
        <ele>56</ele>
        <time>2020-09-08T16:09:16Z</time>
      </trkpt>
      <trkpt lat="44.50239" lon="-0.27578">
        <ele>56.2</ele>
        <time>2020-09-08T16:09:17Z</time>
      </trkpt>
      <trkpt lat="44.50238" lon="-0.27579">
        <ele>56.2</ele>
        <time>2020-09-08T16:09:19Z</time>
      </trkpt>
      <trkpt lat="44.50237" lon="-0.27579">
        <ele>56.4</ele>
        <time>2020-09-08T16:09:22Z</time>
      </trkpt>
      <trkpt lat="44.50236" lon="-0.27578">
        <ele>56.4</ele>
        <time>2020-09-08T16:09:24Z</time>
      </trkpt>
      <trkpt lat="44.50235" lon="-0.27578">
        <ele>56.4</ele>
        <time>2020-09-08T16:09:25Z</time>
      </trkpt>
      <trkpt lat="44.50234" lon="-0.27577">
        <ele>56.3</ele>
        <time>2020-09-08T16:09:27Z</time>
      </trkpt>
      <trkpt lat="44.50233" lon="-0.27577">
        <ele>56.3</ele>
        <time>2020-09-08T16:09:28Z</time>
      </trkpt>
      <trkpt lat="44.50231" lon="-0.27578">
        <ele>56.7</ele>
        <time>2020-09-08T16:09:29Z</time>
      </trkpt>
      <trkpt lat="44.5023" lon="-0.27578">
        <ele>56.7</ele>
        <time>2020-09-08T16:09:30Z</time>
      </trkpt>
      <trkpt lat="44.50229" lon="-0.2758">
        <ele>56.7</ele>
        <time>2020-09-08T16:09:32Z</time>
      </trkpt>
      <trkpt lat="44.50229" lon="-0.27581">
        <ele>56.9</ele>
        <time>2020-09-08T16:09:33Z</time>
      </trkpt>
      <trkpt lat="44.50228" lon="-0.27581">
        <ele>56.9</ele>
        <time>2020-09-08T16:09:35Z</time>
      </trkpt>
      <trkpt lat="44.50228" lon="-0.27582">
        <ele>57.1</ele>
        <time>2020-09-08T16:09:36Z</time>
      </trkpt>
      <trkpt lat="44.50227" lon="-0.27582">
        <ele>57.1</ele>
        <time>2020-09-08T16:09:38Z</time>
      </trkpt>
      <trkpt lat="44.50227" lon="-0.27583">
        <ele>57.1</ele>
        <time>2020-09-08T16:09:39Z</time>
      </trkpt>
      <trkpt lat="44.50226" lon="-0.27583">
        <ele>57.1</ele>
        <time>2020-09-08T16:09:40Z</time>
      </trkpt>
      <trkpt lat="44.50223" lon="-0.27566">
        <ele>56.4</ele>
        <time>2020-09-08T16:14:18Z</time>
      </trkpt>
      <trkpt lat="44.50224" lon="-0.27567">
        <ele>56.4</ele>
        <time>2020-09-08T16:14:19Z</time>
      </trkpt>
      <trkpt lat="44.50224" lon="-0.27567">
        <ele>56.4</ele>
        <time>2020-09-08T16:14:20Z</time>
      </trkpt>
      <trkpt lat="44.50225" lon="-0.27568">
        <ele>56.4</ele>
        <time>2020-09-08T16:14:22Z</time>
      </trkpt>
      <trkpt lat="44.50226" lon="-0.27569">
        <ele>56.2</ele>
        <time>2020-09-08T16:14:23Z</time>
      </trkpt>
      <trkpt lat="44.50226" lon="-0.27569">
        <ele>56.4</ele>
        <time>2020-09-08T16:14:24Z</time>
      </trkpt>
      <trkpt lat="44.50226" lon="-0.2757">
        <ele>56.4</ele>
        <time>2020-09-08T16:14:26Z</time>
      </trkpt>
      <trkpt lat="44.50225" lon="-0.27571">
        <ele>56.6</ele>
        <time>2020-09-08T16:14:28Z</time>
      </trkpt>
      <trkpt lat="44.50225" lon="-0.27571">
        <ele>56.6</ele>
        <time>2020-09-08T16:14:29Z</time>
      </trkpt>
      <trkpt lat="44.50225" lon="-0.27572">
        <ele>56.6</ele>
        <time>2020-09-08T16:14:30Z</time>
      </trkpt>
      <trkpt lat="44.50224" lon="-0.27572">
        <ele>56.6</ele>
        <time>2020-09-08T16:14:32Z</time>
      </trkpt>
      <trkpt lat="44.50224" lon="-0.27573">
        <ele>56.6</ele>
        <time>2020-09-08T16:14:33Z</time>
      </trkpt>
      <trkpt lat="44.50223" lon="-0.27573">
        <ele>56.6</ele>
        <time>2020-09-08T16:14:34Z</time>
      </trkpt>
      <trkpt lat="44.50223" lon="-0.27573">
        <ele>56.8</ele>
        <time>2020-09-08T16:14:36Z</time>
      </trkpt>
      <trkpt lat="44.50223" lon="-0.27573">
        <ele>56.6</ele>
        <time>2020-09-08T16:14:37Z</time>
      </trkpt>
      <trkpt lat="44.50224" lon="-0.27572">
        <ele>56.6</ele>
        <time>2020-09-08T16:14:38Z</time>
      </trkpt>
      <trkpt lat="44.50227" lon="-0.27572">
        <ele>56.4</ele>
        <time>2020-09-08T16:14:41Z</time>
      </trkpt>
      <trkpt lat="44.50227" lon="-0.27572">
        <ele>56.4</ele>
        <time>2020-09-08T16:14:43Z</time>
      </trkpt>
      <trkpt lat="44.50227" lon="-0.27571">
        <ele>56.4</ele>
        <time>2020-09-08T16:14:44Z</time>
      </trkpt>
      <trkpt lat="44.50228" lon="-0.27571">
        <ele>56.4</ele>
        <time>2020-09-08T16:14:45Z</time>
      </trkpt>
      <trkpt lat="44.50229" lon="-0.27571">
        <ele>56.4</ele>
        <time>2020-09-08T16:14:46Z</time>
      </trkpt>
      <trkpt lat="44.5023" lon="-0.2757">
        <ele>56.3</ele>
        <time>2020-09-08T16:14:47Z</time>
      </trkpt>
      <trkpt lat="44.50232" lon="-0.27569">
        <ele>56.1</ele>
        <time>2020-09-08T16:14:48Z</time>
      </trkpt>
      <trkpt lat="44.50233" lon="-0.27569">
        <ele>56.1</ele>
        <time>2020-09-08T16:14:49Z</time>
      </trkpt>
      <trkpt lat="44.50233" lon="-0.27569">
        <ele>56.1</ele>
        <time>2020-09-08T16:14:50Z</time>
      </trkpt>
      <trkpt lat="44.50235" lon="-0.27569">
        <ele>56.1</ele>
        <time>2020-09-08T16:14:52Z</time>
      </trkpt>
      <trkpt lat="44.50237" lon="-0.27569">
        <ele>56</ele>
        <time>2020-09-08T16:14:53Z</time>
      </trkpt>
      <trkpt lat="44.50238" lon="-0.27569">
        <ele>55.8</ele>
        <time>2020-09-08T16:14:54Z</time>
      </trkpt>
      <trkpt lat="44.50239" lon="-0.27568">
        <ele>55.7</ele>
        <time>2020-09-08T16:14:56Z</time>
      </trkpt>
      <trkpt lat="44.50241" lon="-0.27568">
        <ele>55.7</ele>
        <time>2020-09-08T16:14:57Z</time>
      </trkpt>
      <trkpt lat="44.50244" lon="-0.27567">
        <ele>55.5</ele>
        <time>2020-09-08T16:14:59Z</time>
      </trkpt>
      <trkpt lat="44.50246" lon="-0.27567">
        <ele>55.4</ele>
        <time>2020-09-08T16:15:00Z</time>
      </trkpt>
      <trkpt lat="44.50248" lon="-0.27566">
        <ele>55.2</ele>
        <time>2020-09-08T16:15:02Z</time>
      </trkpt>
      <trkpt lat="44.5025" lon="-0.27566">
        <ele>55.2</ele>
        <time>2020-09-08T16:15:03Z</time>
      </trkpt>
      <trkpt lat="44.50251" lon="-0.27566">
        <ele>55.1</ele>
        <time>2020-09-08T16:15:04Z</time>
      </trkpt>
      <trkpt lat="44.50252" lon="-0.27565">
        <ele>55.1</ele>
        <time>2020-09-08T16:15:05Z</time>
      </trkpt>
      <trkpt lat="44.50258" lon="-0.27563">
        <ele>54.6</ele>
        <time>2020-09-08T16:15:08Z</time>
      </trkpt>
      <trkpt lat="44.50261" lon="-0.27562">
        <ele>54.5</ele>
        <time>2020-09-08T16:15:09Z</time>
      </trkpt>
      <trkpt lat="44.50262" lon="-0.27562">
        <ele>54.5</ele>
        <time>2020-09-08T16:15:10Z</time>
      </trkpt>
      <trkpt lat="44.50264" lon="-0.2756">
        <ele>54.3</ele>
        <time>2020-09-08T16:15:12Z</time>
      </trkpt>
      <trkpt lat="44.50265" lon="-0.27559">
        <ele>54.3</ele>
        <time>2020-09-08T16:15:13Z</time>
      </trkpt>
      <trkpt lat="44.50267" lon="-0.27558">
        <ele>54.2</ele>
        <time>2020-09-08T16:15:14Z</time>
      </trkpt>
      <trkpt lat="44.50268" lon="-0.27557">
        <ele>54.2</ele>
        <time>2020-09-08T16:15:15Z</time>
      </trkpt>
      <trkpt lat="44.50269" lon="-0.27557">
        <ele>54.1</ele>
        <time>2020-09-08T16:15:16Z</time>
      </trkpt>
      <trkpt lat="44.50272" lon="-0.27555">
        <ele>53.9</ele>
        <time>2020-09-08T16:15:18Z</time>
      </trkpt>
      <trkpt lat="44.50273" lon="-0.27554">
        <ele>53.9</ele>
        <time>2020-09-08T16:15:19Z</time>
      </trkpt>
      <trkpt lat="44.50274" lon="-0.27554">
        <ele>53.9</ele>
        <time>2020-09-08T16:15:20Z</time>
      </trkpt>
      <trkpt lat="44.50275" lon="-0.27554">
        <ele>53.7</ele>
        <time>2020-09-08T16:15:21Z</time>
      </trkpt>
      <trkpt lat="44.50278" lon="-0.27552">
        <ele>53.7</ele>
        <time>2020-09-08T16:15:23Z</time>
      </trkpt>
      <trkpt lat="44.50279" lon="-0.27551">
        <ele>53.6</ele>
        <time>2020-09-08T16:15:25Z</time>
      </trkpt>
      <trkpt lat="44.5028" lon="-0.2755">
        <ele>53.6</ele>
        <time>2020-09-08T16:15:26Z</time>
      </trkpt>
      <trkpt lat="44.50282" lon="-0.27548">
        <ele>53.5</ele>
        <time>2020-09-08T16:15:28Z</time>
      </trkpt>
      <trkpt lat="44.50283" lon="-0.27548">
        <ele>53.5</ele>
        <time>2020-09-08T16:15:29Z</time>
      </trkpt>
      <trkpt lat="44.50284" lon="-0.27548">
        <ele>53.4</ele>
        <time>2020-09-08T16:15:30Z</time>
      </trkpt>
      <trkpt lat="44.50285" lon="-0.27547">
        <ele>53.4</ele>
        <time>2020-09-08T16:15:31Z</time>
      </trkpt>
      <trkpt lat="44.50286" lon="-0.27547">
        <ele>53.4</ele>
        <time>2020-09-08T16:15:32Z</time>
      </trkpt>
      <trkpt lat="44.50287" lon="-0.27546">
        <ele>53.4</ele>
        <time>2020-09-08T16:15:34Z</time>
      </trkpt>
      <trkpt lat="44.50288" lon="-0.27545">
        <ele>53.3</ele>
        <time>2020-09-08T16:15:35Z</time>
      </trkpt>
      <trkpt lat="44.50288" lon="-0.27545">
        <ele>53.3</ele>
        <time>2020-09-08T16:15:36Z</time>
      </trkpt>
      <trkpt lat="44.50289" lon="-0.27544">
        <ele>53.3</ele>
        <time>2020-09-08T16:15:37Z</time>
      </trkpt>
      <trkpt lat="44.5029" lon="-0.27543">
        <ele>53.3</ele>
        <time>2020-09-08T16:15:39Z</time>
      </trkpt>
      <trkpt lat="44.5029" lon="-0.27543">
        <ele>53.4</ele>
        <time>2020-09-08T16:15:40Z</time>
      </trkpt>
      <trkpt lat="44.5029" lon="-0.27543">
        <ele>53.4</ele>
        <time>2020-09-08T16:15:42Z</time>
      </trkpt>
      <trkpt lat="44.50289" lon="-0.27543">
        <ele>53.3</ele>
        <time>2020-09-08T16:15:43Z</time>
      </trkpt>
      <trkpt lat="44.50288" lon="-0.27544">
        <ele>53.3</ele>
        <time>2020-09-08T16:15:45Z</time>
      </trkpt>
      <trkpt lat="44.50287" lon="-0.27544">
        <ele>53.3</ele>
        <time>2020-09-08T16:15:46Z</time>
      </trkpt>
      <trkpt lat="44.50288" lon="-0.27544">
        <ele>53.3</ele>
        <time>2020-09-08T16:15:47Z</time>
      </trkpt>
      <trkpt lat="44.50288" lon="-0.27543">
        <ele>53.4</ele>
        <time>2020-09-08T16:15:48Z</time>
      </trkpt>
      <trkpt lat="44.50289" lon="-0.27542">
        <ele>53.4</ele>
        <time>2020-09-08T16:15:49Z</time>
      </trkpt>
      <trkpt lat="44.50289" lon="-0.2754">
        <ele>53.4</ele>
        <time>2020-09-08T16:15:51Z</time>
      </trkpt>
      <trkpt lat="44.5029" lon="-0.2754">
        <ele>53.3</ele>
        <time>2020-09-08T16:15:52Z</time>
      </trkpt>
      <trkpt lat="44.50292" lon="-0.27539">
        <ele>53.3</ele>
        <time>2020-09-08T16:15:53Z</time>
      </trkpt>
      <trkpt lat="44.50293" lon="-0.27539">
        <ele>53.3</ele>
        <time>2020-09-08T16:15:55Z</time>
      </trkpt>
      <trkpt lat="44.50294" lon="-0.2754">
        <ele>53.2</ele>
        <time>2020-09-08T16:15:56Z</time>
      </trkpt>
      <trkpt lat="44.50296" lon="-0.27541">
        <ele>53.2</ele>
        <time>2020-09-08T16:15:58Z</time>
      </trkpt>
      <trkpt lat="44.50296" lon="-0.27542">
        <ele>53.2</ele>
        <time>2020-09-08T16:15:59Z</time>
      </trkpt>
      <trkpt lat="44.50297" lon="-0.27543">
        <ele>53.2</ele>
        <time>2020-09-08T16:16:01Z</time>
      </trkpt>
      <trkpt lat="44.50298" lon="-0.27543">
        <ele>53.2</ele>
        <time>2020-09-08T16:16:02Z</time>
      </trkpt>
      <trkpt lat="44.503" lon="-0.27544">
        <ele>53.1</ele>
        <time>2020-09-08T16:16:03Z</time>
      </trkpt>
      <trkpt lat="44.50301" lon="-0.27544">
        <ele>53.1</ele>
        <time>2020-09-08T16:16:05Z</time>
      </trkpt>
      <trkpt lat="44.50302" lon="-0.27544">
        <ele>53.1</ele>
        <time>2020-09-08T16:16:06Z</time>
      </trkpt>
      <trkpt lat="44.50304" lon="-0.27543">
        <ele>53.1</ele>
        <time>2020-09-08T16:16:07Z</time>
      </trkpt>
      <trkpt lat="44.50304" lon="-0.27542">
        <ele>53.1</ele>
        <time>2020-09-08T16:16:09Z</time>
      </trkpt>
      <trkpt lat="44.50305" lon="-0.27542">
        <ele>53.1</ele>
        <time>2020-09-08T16:16:10Z</time>
      </trkpt>
      <trkpt lat="44.50306" lon="-0.27542">
        <ele>53</ele>
        <time>2020-09-08T16:16:11Z</time>
      </trkpt>
      <trkpt lat="44.50307" lon="-0.27541">
        <ele>53</ele>
        <time>2020-09-08T16:16:13Z</time>
      </trkpt>
      <trkpt lat="44.50308" lon="-0.27541">
        <ele>53</ele>
        <time>2020-09-08T16:16:14Z</time>
      </trkpt>
      <trkpt lat="44.50309" lon="-0.2754">
        <ele>53</ele>
        <time>2020-09-08T16:16:15Z</time>
      </trkpt>
      <trkpt lat="44.5031" lon="-0.2754">
        <ele>53</ele>
        <time>2020-09-08T16:16:16Z</time>
      </trkpt>
      <trkpt lat="44.5031" lon="-0.2754">
        <ele>53</ele>
        <time>2020-09-08T16:16:17Z</time>
      </trkpt>
      <trkpt lat="44.50312" lon="-0.2754">
        <ele>53</ele>
        <time>2020-09-08T16:16:19Z</time>
      </trkpt>
      <trkpt lat="44.50312" lon="-0.2754">
        <ele>52.9</ele>
        <time>2020-09-08T16:16:21Z</time>
      </trkpt>
      <trkpt lat="44.50312" lon="-0.2754">
        <ele>52.9</ele>
        <time>2020-09-08T16:16:23Z</time>
      </trkpt>
      <trkpt lat="44.50312" lon="-0.2754">
        <ele>52.9</ele>
        <time>2020-09-08T16:16:24Z</time>
      </trkpt>
      <trkpt lat="44.50314" lon="-0.2754">
        <ele>52.9</ele>
        <time>2020-09-08T16:16:25Z</time>
      </trkpt>
      <trkpt lat="44.50314" lon="-0.27539">
        <ele>52.9</ele>
        <time>2020-09-08T16:16:27Z</time>
      </trkpt>
      <trkpt lat="44.50316" lon="-0.27539">
        <ele>52.9</ele>
        <time>2020-09-08T16:16:28Z</time>
      </trkpt>
      <trkpt lat="44.50317" lon="-0.27538">
        <ele>53</ele>
        <time>2020-09-08T16:16:29Z</time>
      </trkpt>
      <trkpt lat="44.50318" lon="-0.27538">
        <ele>53</ele>
        <time>2020-09-08T16:16:31Z</time>
      </trkpt>
      <trkpt lat="44.50319" lon="-0.27537">
        <ele>53</ele>
        <time>2020-09-08T16:16:32Z</time>
      </trkpt>
      <trkpt lat="44.50322" lon="-0.27536">
        <ele>52.9</ele>
        <time>2020-09-08T16:16:34Z</time>
      </trkpt>
      <trkpt lat="44.50323" lon="-0.27535">
        <ele>52.9</ele>
        <time>2020-09-08T16:16:35Z</time>
      </trkpt>
      <trkpt lat="44.50325" lon="-0.27534">
        <ele>53</ele>
        <time>2020-09-08T16:16:37Z</time>
      </trkpt>
      <trkpt lat="44.50327" lon="-0.27533">
        <ele>53</ele>
        <time>2020-09-08T16:16:38Z</time>
      </trkpt>
      <trkpt lat="44.50328" lon="-0.27532">
        <ele>53</ele>
        <time>2020-09-08T16:16:40Z</time>
      </trkpt>
      <trkpt lat="44.5033" lon="-0.2753">
        <ele>53.1</ele>
        <time>2020-09-08T16:16:42Z</time>
      </trkpt>
      <trkpt lat="44.50331" lon="-0.27529">
        <ele>53.1</ele>
        <time>2020-09-08T16:16:43Z</time>
      </trkpt>
      <trkpt lat="44.50332" lon="-0.27529">
        <ele>53.1</ele>
        <time>2020-09-08T16:16:44Z</time>
      </trkpt>
      <trkpt lat="44.50333" lon="-0.27528">
        <ele>53.1</ele>
        <time>2020-09-08T16:16:45Z</time>
      </trkpt>
      <trkpt lat="44.50335" lon="-0.27527">
        <ele>53.1</ele>
        <time>2020-09-08T16:16:47Z</time>
      </trkpt>
      <trkpt lat="44.50336" lon="-0.27525">
        <ele>53.2</ele>
        <time>2020-09-08T16:16:48Z</time>
      </trkpt>
      <trkpt lat="44.50338" lon="-0.27523">
        <ele>53.2</ele>
        <time>2020-09-08T16:16:50Z</time>
      </trkpt>
      <trkpt lat="44.50338" lon="-0.27523">
        <ele>53.2</ele>
        <time>2020-09-08T16:16:51Z</time>
      </trkpt>
      <trkpt lat="44.50341" lon="-0.27521">
        <ele>53.3</ele>
        <time>2020-09-08T16:16:53Z</time>
      </trkpt>
      <trkpt lat="44.50342" lon="-0.27521">
        <ele>53.3</ele>
        <time>2020-09-08T16:16:54Z</time>
      </trkpt>
      <trkpt lat="44.50343" lon="-0.2752">
        <ele>53.3</ele>
        <time>2020-09-08T16:16:56Z</time>
      </trkpt>
      <trkpt lat="44.50344" lon="-0.2752">
        <ele>53.3</ele>
        <time>2020-09-08T16:16:57Z</time>
      </trkpt>
      <trkpt lat="44.50347" lon="-0.2752">
        <ele>53.3</ele>
        <time>2020-09-08T16:16:59Z</time>
      </trkpt>
      <trkpt lat="44.50348" lon="-0.2752">
        <ele>53.3</ele>
        <time>2020-09-08T16:17:00Z</time>
      </trkpt>
      <trkpt lat="44.50349" lon="-0.27521">
        <ele>53.3</ele>
        <time>2020-09-08T16:17:02Z</time>
      </trkpt>
      <trkpt lat="44.50349" lon="-0.27522">
        <ele>53.2</ele>
        <time>2020-09-08T16:17:04Z</time>
      </trkpt>
      <trkpt lat="44.50349" lon="-0.27522">
        <ele>53.2</ele>
        <time>2020-09-08T16:17:05Z</time>
      </trkpt>
      <trkpt lat="44.50349" lon="-0.27523">
        <ele>53.2</ele>
        <time>2020-09-08T16:17:06Z</time>
      </trkpt>
      <trkpt lat="44.50348" lon="-0.27523">
        <ele>53.2</ele>
        <time>2020-09-08T16:17:09Z</time>
      </trkpt>
      <trkpt lat="44.50348" lon="-0.27523">
        <ele>53.2</ele>
        <time>2020-09-08T16:17:10Z</time>
      </trkpt>
      <trkpt lat="44.50347" lon="-0.27523">
        <ele>53.2</ele>
        <time>2020-09-08T16:17:12Z</time>
      </trkpt>
      <trkpt lat="44.50347" lon="-0.27523">
        <ele>53.2</ele>
        <time>2020-09-08T16:17:14Z</time>
      </trkpt>
      <trkpt lat="44.50349" lon="-0.27522">
        <ele>53.3</ele>
        <time>2020-09-08T16:17:15Z</time>
      </trkpt>
      <trkpt lat="44.5035" lon="-0.27521">
        <ele>53.3</ele>
        <time>2020-09-08T16:17:16Z</time>
      </trkpt>
      <trkpt lat="44.50351" lon="-0.2752">
        <ele>53.3</ele>
        <time>2020-09-08T16:17:18Z</time>
      </trkpt>
      <trkpt lat="44.50354" lon="-0.27518">
        <ele>53.2</ele>
        <time>2020-09-08T16:17:19Z</time>
      </trkpt>
      <trkpt lat="44.50355" lon="-0.27518">
        <ele>53.2</ele>
        <time>2020-09-08T16:17:20Z</time>
      </trkpt>
      <trkpt lat="44.50355" lon="-0.27518">
        <ele>53.2</ele>
        <time>2020-09-08T16:17:21Z</time>
      </trkpt>
      <trkpt lat="44.50357" lon="-0.27517">
        <ele>53.2</ele>
        <time>2020-09-08T16:17:23Z</time>
      </trkpt>
      <trkpt lat="44.50358" lon="-0.27518">
        <ele>53.2</ele>
        <time>2020-09-08T16:17:24Z</time>
      </trkpt>
      <trkpt lat="44.50358" lon="-0.27519">
        <ele>53.2</ele>
        <time>2020-09-08T16:17:25Z</time>
      </trkpt>
      <trkpt lat="44.50359" lon="-0.27518">
        <ele>53.2</ele>
        <time>2020-09-08T16:17:26Z</time>
      </trkpt>
      <trkpt lat="44.5036" lon="-0.27517">
        <ele>53.3</ele>
        <time>2020-09-08T16:17:27Z</time>
      </trkpt>
      <trkpt lat="44.50361" lon="-0.27517">
        <ele>53.3</ele>
        <time>2020-09-08T16:17:28Z</time>
      </trkpt>
      <trkpt lat="44.50362" lon="-0.27516">
        <ele>53.3</ele>
        <time>2020-09-08T16:17:30Z</time>
      </trkpt>
      <trkpt lat="44.50362" lon="-0.27515">
        <ele>53.3</ele>
        <time>2020-09-08T16:17:31Z</time>
      </trkpt>
      <trkpt lat="44.50363" lon="-0.27515">
        <ele>53.3</ele>
        <time>2020-09-08T16:17:32Z</time>
      </trkpt>
      <trkpt lat="44.50364" lon="-0.27515">
        <ele>53.2</ele>
        <time>2020-09-08T16:17:33Z</time>
      </trkpt>
      <trkpt lat="44.50364" lon="-0.27515">
        <ele>53.2</ele>
        <time>2020-09-08T16:17:35Z</time>
      </trkpt>
      <trkpt lat="44.50365" lon="-0.27516">
        <ele>53.2</ele>
        <time>2020-09-08T16:17:36Z</time>
      </trkpt>
      <trkpt lat="44.50365" lon="-0.27517">
        <ele>53.2</ele>
        <time>2020-09-08T16:17:37Z</time>
      </trkpt>
      <trkpt lat="44.50366" lon="-0.27515">
        <ele>53.2</ele>
        <time>2020-09-08T16:17:39Z</time>
      </trkpt>
      <trkpt lat="44.50367" lon="-0.27515">
        <ele>53.2</ele>
        <time>2020-09-08T16:17:40Z</time>
      </trkpt>
      <trkpt lat="44.50366" lon="-0.27514">
        <ele>53.2</ele>
        <time>2020-09-08T16:17:42Z</time>
      </trkpt>
      <trkpt lat="44.50366" lon="-0.27514">
        <ele>53.2</ele>
        <time>2020-09-08T16:17:43Z</time>
      </trkpt>
      <trkpt lat="44.50367" lon="-0.27514">
        <ele>53.2</ele>
        <time>2020-09-08T16:17:44Z</time>
      </trkpt>
      <trkpt lat="44.50369" lon="-0.27513">
        <ele>53.3</ele>
        <time>2020-09-08T16:17:45Z</time>
      </trkpt>
      <trkpt lat="44.5037" lon="-0.27513">
        <ele>53.2</ele>
        <time>2020-09-08T16:17:47Z</time>
      </trkpt>
      <trkpt lat="44.50371" lon="-0.27512">
        <ele>53.2</ele>
        <time>2020-09-08T16:17:48Z</time>
      </trkpt>
      <trkpt lat="44.50372" lon="-0.27511">
        <ele>53.2</ele>
        <time>2020-09-08T16:17:50Z</time>
      </trkpt>
      <trkpt lat="44.50373" lon="-0.27511">
        <ele>53.2</ele>
        <time>2020-09-08T16:17:52Z</time>
      </trkpt>
      <trkpt lat="44.50373" lon="-0.2751">
        <ele>53.2</ele>
        <time>2020-09-08T16:17:54Z</time>
      </trkpt>
      <trkpt lat="44.50373" lon="-0.2751">
        <ele>53.2</ele>
        <time>2020-09-08T16:17:55Z</time>
      </trkpt>
      <trkpt lat="44.50373" lon="-0.27509">
        <ele>53.2</ele>
        <time>2020-09-08T16:17:57Z</time>
      </trkpt>
      <trkpt lat="44.50373" lon="-0.27508">
        <ele>53.2</ele>
        <time>2020-09-08T16:17:58Z</time>
      </trkpt>
      <trkpt lat="44.50374" lon="-0.27508">
        <ele>53.2</ele>
        <time>2020-09-08T16:18:00Z</time>
      </trkpt>
      <trkpt lat="44.50374" lon="-0.27508">
        <ele>53.2</ele>
        <time>2020-09-08T16:18:01Z</time>
      </trkpt>
      <trkpt lat="44.50374" lon="-0.27507">
        <ele>53.2</ele>
        <time>2020-09-08T16:18:02Z</time>
      </trkpt>
      <trkpt lat="44.50374" lon="-0.27507">
        <ele>53.2</ele>
        <time>2020-09-08T16:18:03Z</time>
      </trkpt>
      <trkpt lat="44.50374" lon="-0.27507">
        <ele>53.2</ele>
        <time>2020-09-08T16:18:04Z</time>
      </trkpt>
      <trkpt lat="44.50374" lon="-0.27506">
        <ele>53.2</ele>
        <time>2020-09-08T16:18:06Z</time>
      </trkpt>
      <trkpt lat="44.50374" lon="-0.27506">
        <ele>53.2</ele>
        <time>2020-09-08T16:18:07Z</time>
      </trkpt>
      <trkpt lat="44.50374" lon="-0.27506">
        <ele>53.2</ele>
        <time>2020-09-08T16:18:09Z</time>
      </trkpt>
      <trkpt lat="44.50374" lon="-0.27506">
        <ele>53.2</ele>
        <time>2020-09-08T16:18:11Z</time>
      </trkpt>
      <trkpt lat="44.50374" lon="-0.27506">
        <ele>53.2</ele>
        <time>2020-09-08T16:18:13Z</time>
      </trkpt>
      <trkpt lat="44.50374" lon="-0.27506">
        <ele>53.2</ele>
        <time>2020-09-08T16:18:14Z</time>
      </trkpt>
      <trkpt lat="44.50374" lon="-0.27506">
        <ele>53.2</ele>
        <time>2020-09-08T16:18:15Z</time>
      </trkpt>
      <trkpt lat="44.50374" lon="-0.27506">
        <ele>53.2</ele>
        <time>2020-09-08T16:18:17Z</time>
      </trkpt>
      <trkpt lat="44.50374" lon="-0.27505">
        <ele>53.2</ele>
        <time>2020-09-08T16:18:18Z</time>
      </trkpt>
      <trkpt lat="44.50374" lon="-0.27504">
        <ele>53.3</ele>
        <time>2020-09-08T16:18:20Z</time>
      </trkpt>
      <trkpt lat="44.50375" lon="-0.27501">
        <ele>53.3</ele>
        <time>2020-09-08T16:18:21Z</time>
      </trkpt>
      <trkpt lat="44.50375" lon="-0.275">
        <ele>53.3</ele>
        <time>2020-09-08T16:18:22Z</time>
      </trkpt>
      <trkpt lat="44.50375" lon="-0.27497">
        <ele>53.3</ele>
        <time>2020-09-08T16:18:24Z</time>
      </trkpt>
      <trkpt lat="44.50375" lon="-0.27495">
        <ele>53.3</ele>
        <time>2020-09-08T16:18:25Z</time>
      </trkpt>
      <trkpt lat="44.50376" lon="-0.27494">
        <ele>53.3</ele>
        <time>2020-09-08T16:18:26Z</time>
      </trkpt>
      <trkpt lat="44.50377" lon="-0.27493">
        <ele>53.2</ele>
        <time>2020-09-08T16:18:27Z</time>
      </trkpt>
      <trkpt lat="44.50378" lon="-0.27492">
        <ele>53.2</ele>
        <time>2020-09-08T16:18:29Z</time>
      </trkpt>
      <trkpt lat="44.5038" lon="-0.27492">
        <ele>53.2</ele>
        <time>2020-09-08T16:18:30Z</time>
      </trkpt>
      <trkpt lat="44.50381" lon="-0.27491">
        <ele>53.2</ele>
        <time>2020-09-08T16:18:31Z</time>
      </trkpt>
      <trkpt lat="44.50383" lon="-0.27491">
        <ele>53.2</ele>
        <time>2020-09-08T16:18:33Z</time>
      </trkpt>
      <trkpt lat="44.50384" lon="-0.27491">
        <ele>53.2</ele>
        <time>2020-09-08T16:18:35Z</time>
      </trkpt>
      <trkpt lat="44.50384" lon="-0.27493">
        <ele>53.2</ele>
        <time>2020-09-08T16:18:37Z</time>
      </trkpt>
      <trkpt lat="44.50385" lon="-0.27494">
        <ele>53.2</ele>
        <time>2020-09-08T16:18:39Z</time>
      </trkpt>
      <trkpt lat="44.50385" lon="-0.27495">
        <ele>53.2</ele>
        <time>2020-09-08T16:18:41Z</time>
      </trkpt>
      <trkpt lat="44.50385" lon="-0.27496">
        <ele>53.2</ele>
        <time>2020-09-08T16:18:42Z</time>
      </trkpt>
      <trkpt lat="44.50386" lon="-0.27494">
        <ele>53.2</ele>
        <time>2020-09-08T16:18:44Z</time>
      </trkpt>
      <trkpt lat="44.50387" lon="-0.27493">
        <ele>53.2</ele>
        <time>2020-09-08T16:18:45Z</time>
      </trkpt>
      <trkpt lat="44.50388" lon="-0.27492">
        <ele>53.2</ele>
        <time>2020-09-08T16:18:46Z</time>
      </trkpt>
      <trkpt lat="44.50388" lon="-0.27491">
        <ele>53.2</ele>
        <time>2020-09-08T16:18:47Z</time>
      </trkpt>
      <trkpt lat="44.50391" lon="-0.27488">
        <ele>53.2</ele>
        <time>2020-09-08T16:18:49Z</time>
      </trkpt>
      <trkpt lat="44.50393" lon="-0.27487">
        <ele>53.1</ele>
        <time>2020-09-08T16:18:50Z</time>
      </trkpt>
      <trkpt lat="44.50394" lon="-0.27486">
        <ele>53.1</ele>
        <time>2020-09-08T16:18:51Z</time>
      </trkpt>
      <trkpt lat="44.50395" lon="-0.27486">
        <ele>53.2</ele>
        <time>2020-09-08T16:18:52Z</time>
      </trkpt>
      <trkpt lat="44.50398" lon="-0.27486">
        <ele>53.2</ele>
        <time>2020-09-08T16:18:54Z</time>
      </trkpt>
      <trkpt lat="44.504" lon="-0.27486">
        <ele>53.2</ele>
        <time>2020-09-08T16:18:55Z</time>
      </trkpt>
      <trkpt lat="44.50401" lon="-0.27486">
        <ele>53.2</ele>
        <time>2020-09-08T16:18:56Z</time>
      </trkpt>
      <trkpt lat="44.50404" lon="-0.27484">
        <ele>53.2</ele>
        <time>2020-09-08T16:18:58Z</time>
      </trkpt>
      <trkpt lat="44.50405" lon="-0.27484">
        <ele>53.2</ele>
        <time>2020-09-08T16:18:59Z</time>
      </trkpt>
      <trkpt lat="44.50406" lon="-0.27483">
        <ele>53.2</ele>
        <time>2020-09-08T16:19:00Z</time>
      </trkpt>
      <trkpt lat="44.50408" lon="-0.27483">
        <ele>53.3</ele>
        <time>2020-09-08T16:19:01Z</time>
      </trkpt>
      <trkpt lat="44.50408" lon="-0.27482">
        <ele>53.3</ele>
        <time>2020-09-08T16:19:02Z</time>
      </trkpt>
      <trkpt lat="44.50411" lon="-0.27481">
        <ele>53.3</ele>
        <time>2020-09-08T16:19:04Z</time>
      </trkpt>
      <trkpt lat="44.50412" lon="-0.27481">
        <ele>53.3</ele>
        <time>2020-09-08T16:19:05Z</time>
      </trkpt>
      <trkpt lat="44.50413" lon="-0.27481">
        <ele>53.4</ele>
        <time>2020-09-08T16:19:06Z</time>
      </trkpt>
      <trkpt lat="44.50415" lon="-0.27481">
        <ele>53.4</ele>
        <time>2020-09-08T16:19:07Z</time>
      </trkpt>
      <trkpt lat="44.50416" lon="-0.2748">
        <ele>53.5</ele>
        <time>2020-09-08T16:19:08Z</time>
      </trkpt>
      <trkpt lat="44.50419" lon="-0.2748">
        <ele>53.6</ele>
        <time>2020-09-08T16:19:10Z</time>
      </trkpt>
      <trkpt lat="44.5042" lon="-0.2748">
        <ele>53.6</ele>
        <time>2020-09-08T16:19:11Z</time>
      </trkpt>
      <trkpt lat="44.50421" lon="-0.2748">
        <ele>53.6</ele>
        <time>2020-09-08T16:19:12Z</time>
      </trkpt>
      <trkpt lat="44.50423" lon="-0.27479">
        <ele>53.7</ele>
        <time>2020-09-08T16:19:14Z</time>
      </trkpt>
      <trkpt lat="44.50424" lon="-0.27478">
        <ele>53.7</ele>
        <time>2020-09-08T16:19:15Z</time>
      </trkpt>
      <trkpt lat="44.50425" lon="-0.27478">
        <ele>53.8</ele>
        <time>2020-09-08T16:19:17Z</time>
      </trkpt>
      <trkpt lat="44.50427" lon="-0.27477">
        <ele>53.8</ele>
        <time>2020-09-08T16:19:18Z</time>
      </trkpt>
      <trkpt lat="44.50429" lon="-0.27476">
        <ele>53.9</ele>
        <time>2020-09-08T16:19:19Z</time>
      </trkpt>
      <trkpt lat="44.50431" lon="-0.27476">
        <ele>53.9</ele>
        <time>2020-09-08T16:19:21Z</time>
      </trkpt>
      <trkpt lat="44.50433" lon="-0.27475">
        <ele>54.1</ele>
        <time>2020-09-08T16:19:22Z</time>
      </trkpt>
      <trkpt lat="44.50434" lon="-0.27475">
        <ele>54.1</ele>
        <time>2020-09-08T16:19:23Z</time>
      </trkpt>
      <trkpt lat="44.50436" lon="-0.27474">
        <ele>54.3</ele>
        <time>2020-09-08T16:19:24Z</time>
      </trkpt>
      <trkpt lat="44.50437" lon="-0.27473">
        <ele>54.4</ele>
        <time>2020-09-08T16:19:25Z</time>
      </trkpt>
      <trkpt lat="44.5044" lon="-0.27472">
        <ele>54.4</ele>
        <time>2020-09-08T16:19:27Z</time>
      </trkpt>
      <trkpt lat="44.50441" lon="-0.27472">
        <ele>54.6</ele>
        <time>2020-09-08T16:19:28Z</time>
      </trkpt>
      <trkpt lat="44.50443" lon="-0.27472">
        <ele>54.6</ele>
        <time>2020-09-08T16:19:29Z</time>
      </trkpt>
      <trkpt lat="44.50444" lon="-0.27471">
        <ele>54.7</ele>
        <time>2020-09-08T16:19:30Z</time>
      </trkpt>
      <trkpt lat="44.50446" lon="-0.27471">
        <ele>54.7</ele>
        <time>2020-09-08T16:19:32Z</time>
      </trkpt>
      <trkpt lat="44.50447" lon="-0.2747">
        <ele>54.9</ele>
        <time>2020-09-08T16:19:33Z</time>
      </trkpt>
      <trkpt lat="44.50449" lon="-0.27469">
        <ele>54.9</ele>
        <time>2020-09-08T16:19:35Z</time>
      </trkpt>
      <trkpt lat="44.5045" lon="-0.27469">
        <ele>55</ele>
        <time>2020-09-08T16:19:36Z</time>
      </trkpt>
      <trkpt lat="44.50452" lon="-0.27468">
        <ele>55</ele>
        <time>2020-09-08T16:19:37Z</time>
      </trkpt>
      <trkpt lat="44.50453" lon="-0.27468">
        <ele>55.2</ele>
        <time>2020-09-08T16:19:38Z</time>
      </trkpt>
      <trkpt lat="44.50454" lon="-0.27468">
        <ele>55.2</ele>
        <time>2020-09-08T16:19:39Z</time>
      </trkpt>
      <trkpt lat="44.50456" lon="-0.27467">
        <ele>55.3</ele>
        <time>2020-09-08T16:19:41Z</time>
      </trkpt>
      <trkpt lat="44.50456" lon="-0.27467">
        <ele>55.3</ele>
        <time>2020-09-08T16:19:42Z</time>
      </trkpt>
      <trkpt lat="44.50457" lon="-0.27466">
        <ele>55.3</ele>
        <time>2020-09-08T16:19:43Z</time>
      </trkpt>
      <trkpt lat="44.50459" lon="-0.27465">
        <ele>55.3</ele>
        <time>2020-09-08T16:19:44Z</time>
      </trkpt>
      <trkpt lat="44.5046" lon="-0.27465">
        <ele>55.4</ele>
        <time>2020-09-08T16:19:46Z</time>
      </trkpt>
      <trkpt lat="44.50462" lon="-0.27464">
        <ele>55.6</ele>
        <time>2020-09-08T16:19:48Z</time>
      </trkpt>
      <trkpt lat="44.50463" lon="-0.27464">
        <ele>55.6</ele>
        <time>2020-09-08T16:19:49Z</time>
      </trkpt>
      <trkpt lat="44.50465" lon="-0.27463">
        <ele>55.7</ele>
        <time>2020-09-08T16:19:50Z</time>
      </trkpt>
      <trkpt lat="44.50466" lon="-0.27462">
        <ele>55.7</ele>
        <time>2020-09-08T16:19:52Z</time>
      </trkpt>
      <trkpt lat="44.50467" lon="-0.27462">
        <ele>55.7</ele>
        <time>2020-09-08T16:19:53Z</time>
      </trkpt>
      <trkpt lat="44.50469" lon="-0.2746">
        <ele>55.8</ele>
        <time>2020-09-08T16:19:55Z</time>
      </trkpt>
      <trkpt lat="44.5047" lon="-0.2746">
        <ele>55.8</ele>
        <time>2020-09-08T16:19:56Z</time>
      </trkpt>
      <trkpt lat="44.50471" lon="-0.27459">
        <ele>55.8</ele>
        <time>2020-09-08T16:19:57Z</time>
      </trkpt>
      <trkpt lat="44.50472" lon="-0.27459">
        <ele>56</ele>
        <time>2020-09-08T16:19:58Z</time>
      </trkpt>
      <trkpt lat="44.50474" lon="-0.27459">
        <ele>56.1</ele>
        <time>2020-09-08T16:20:00Z</time>
      </trkpt>
      <trkpt lat="44.50474" lon="-0.27459">
        <ele>56.1</ele>
        <time>2020-09-08T16:20:01Z</time>
      </trkpt>
      <trkpt lat="44.50474" lon="-0.27459">
        <ele>56.1</ele>
        <time>2020-09-08T16:20:02Z</time>
      </trkpt>
      <trkpt lat="44.50473" lon="-0.27459">
        <ele>56</ele>
        <time>2020-09-08T16:20:05Z</time>
      </trkpt>
      <trkpt lat="44.50474" lon="-0.27459">
        <ele>56</ele>
        <time>2020-09-08T16:20:06Z</time>
      </trkpt>
      <trkpt lat="44.50474" lon="-0.27459">
        <ele>56</ele>
        <time>2020-09-08T16:20:07Z</time>
      </trkpt>
      <trkpt lat="44.50475" lon="-0.27458">
        <ele>56.1</ele>
        <time>2020-09-08T16:20:08Z</time>
      </trkpt>
      <trkpt lat="44.50477" lon="-0.27457">
        <ele>56.1</ele>
        <time>2020-09-08T16:20:09Z</time>
      </trkpt>
      <trkpt lat="44.50478" lon="-0.27457">
        <ele>56.2</ele>
        <time>2020-09-08T16:20:10Z</time>
      </trkpt>
      <trkpt lat="44.50479" lon="-0.27456">
        <ele>56.2</ele>
        <time>2020-09-08T16:20:12Z</time>
      </trkpt>
      <trkpt lat="44.50481" lon="-0.27455">
        <ele>56.3</ele>
        <time>2020-09-08T16:20:14Z</time>
      </trkpt>
      <trkpt lat="44.50483" lon="-0.27454">
        <ele>56.3</ele>
        <time>2020-09-08T16:20:15Z</time>
      </trkpt>
      <trkpt lat="44.50484" lon="-0.27453">
        <ele>56.4</ele>
        <time>2020-09-08T16:20:16Z</time>
      </trkpt>
      <trkpt lat="44.50486" lon="-0.27453">
        <ele>56.4</ele>
        <time>2020-09-08T16:20:17Z</time>
      </trkpt>
      <trkpt lat="44.50487" lon="-0.27453">
        <ele>56.4</ele>
        <time>2020-09-08T16:20:18Z</time>
      </trkpt>
      <trkpt lat="44.50489" lon="-0.27452">
        <ele>56.4</ele>
        <time>2020-09-08T16:20:19Z</time>
      </trkpt>
      <trkpt lat="44.50491" lon="-0.27452">
        <ele>56.5</ele>
        <time>2020-09-08T16:20:21Z</time>
      </trkpt>
      <trkpt lat="44.50493" lon="-0.27451">
        <ele>56.6</ele>
        <time>2020-09-08T16:20:22Z</time>
      </trkpt>
      <trkpt lat="44.50495" lon="-0.27451">
        <ele>56.6</ele>
        <time>2020-09-08T16:20:23Z</time>
      </trkpt>
      <trkpt lat="44.50498" lon="-0.27451">
        <ele>56.7</ele>
        <time>2020-09-08T16:20:25Z</time>
      </trkpt>
      <trkpt lat="44.50499" lon="-0.27451">
        <ele>56.8</ele>
        <time>2020-09-08T16:20:26Z</time>
      </trkpt>
      <trkpt lat="44.50501" lon="-0.2745">
        <ele>56.8</ele>
        <time>2020-09-08T16:20:27Z</time>
      </trkpt>
      <trkpt lat="44.50502" lon="-0.2745">
        <ele>56.8</ele>
        <time>2020-09-08T16:20:28Z</time>
      </trkpt>
      <trkpt lat="44.50503" lon="-0.2745">
        <ele>56.8</ele>
        <time>2020-09-08T16:20:29Z</time>
      </trkpt>
      <trkpt lat="44.50504" lon="-0.2745">
        <ele>56.8</ele>
        <time>2020-09-08T16:20:30Z</time>
      </trkpt>
      <trkpt lat="44.50506" lon="-0.2745">
        <ele>56.9</ele>
        <time>2020-09-08T16:20:31Z</time>
      </trkpt>
      <trkpt lat="44.50507" lon="-0.2745">
        <ele>56.9</ele>
        <time>2020-09-08T16:20:33Z</time>
      </trkpt>
      <trkpt lat="44.50511" lon="-0.27449">
        <ele>57</ele>
        <time>2020-09-08T16:20:34Z</time>
      </trkpt>
      <trkpt lat="44.50513" lon="-0.27449">
        <ele>57</ele>
        <time>2020-09-08T16:20:35Z</time>
      </trkpt>
      <trkpt lat="44.50515" lon="-0.27448">
        <ele>57</ele>
        <time>2020-09-08T16:20:37Z</time>
      </trkpt>
      <trkpt lat="44.50516" lon="-0.27447">
        <ele>57</ele>
        <time>2020-09-08T16:20:38Z</time>
      </trkpt>
      <trkpt lat="44.50519" lon="-0.27447">
        <ele>57</ele>
        <time>2020-09-08T16:20:40Z</time>
      </trkpt>
      <trkpt lat="44.50521" lon="-0.27445">
        <ele>57</ele>
        <time>2020-09-08T16:20:41Z</time>
      </trkpt>
      <trkpt lat="44.50522" lon="-0.27444">
        <ele>57.1</ele>
        <time>2020-09-08T16:20:43Z</time>
      </trkpt>
      <trkpt lat="44.50523" lon="-0.27442">
        <ele>57.1</ele>
        <time>2020-09-08T16:20:44Z</time>
      </trkpt>
      <trkpt lat="44.50524" lon="-0.27441">
        <ele>57.1</ele>
        <time>2020-09-08T16:20:45Z</time>
      </trkpt>
      <trkpt lat="44.50525" lon="-0.2744">
        <ele>57.1</ele>
        <time>2020-09-08T16:20:46Z</time>
      </trkpt>
      <trkpt lat="44.50525" lon="-0.27438">
        <ele>57</ele>
        <time>2020-09-08T16:20:47Z</time>
      </trkpt>
      <trkpt lat="44.50525" lon="-0.27435">
        <ele>56.9</ele>
        <time>2020-09-08T16:20:49Z</time>
      </trkpt>
      <trkpt lat="44.50525" lon="-0.27432">
        <ele>56.8</ele>
        <time>2020-09-08T16:20:50Z</time>
      </trkpt>
      <trkpt lat="44.50526" lon="-0.2743">
        <ele>56.7</ele>
        <time>2020-09-08T16:20:51Z</time>
      </trkpt>
      <trkpt lat="44.50526" lon="-0.27427">
        <ele>56.7</ele>
        <time>2020-09-08T16:20:53Z</time>
      </trkpt>
      <trkpt lat="44.50527" lon="-0.27425">
        <ele>56.6</ele>
        <time>2020-09-08T16:20:54Z</time>
      </trkpt>
      <trkpt lat="44.50526" lon="-0.2742">
        <ele>56.4</ele>
        <time>2020-09-08T16:20:56Z</time>
      </trkpt>
      <trkpt lat="44.50526" lon="-0.27418">
        <ele>56.4</ele>
        <time>2020-09-08T16:20:57Z</time>
      </trkpt>
      <trkpt lat="44.50525" lon="-0.27415">
        <ele>56.2</ele>
        <time>2020-09-08T16:20:58Z</time>
      </trkpt>
      <trkpt lat="44.50524" lon="-0.27412">
        <ele>56.1</ele>
        <time>2020-09-08T16:21:00Z</time>
      </trkpt>
      <trkpt lat="44.50522" lon="-0.27408">
        <ele>56</ele>
        <time>2020-09-08T16:21:01Z</time>
      </trkpt>
      <trkpt lat="44.50521" lon="-0.27407">
        <ele>55.9</ele>
        <time>2020-09-08T16:21:02Z</time>
      </trkpt>
      <trkpt lat="44.50519" lon="-0.27402">
        <ele>55.7</ele>
        <time>2020-09-08T16:21:04Z</time>
      </trkpt>
      <trkpt lat="44.50517" lon="-0.27398">
        <ele>55.5</ele>
        <time>2020-09-08T16:21:06Z</time>
      </trkpt>
      <trkpt lat="44.50516" lon="-0.27397">
        <ele>55.5</ele>
        <time>2020-09-08T16:21:07Z</time>
      </trkpt>
      <trkpt lat="44.50515" lon="-0.27393">
        <ele>55.3</ele>
        <time>2020-09-08T16:21:08Z</time>
      </trkpt>
      <trkpt lat="44.50513" lon="-0.2739">
        <ele>55.2</ele>
        <time>2020-09-08T16:21:10Z</time>
      </trkpt>
      <trkpt lat="44.50512" lon="-0.27389">
        <ele>55.2</ele>
        <time>2020-09-08T16:21:11Z</time>
      </trkpt>
      <trkpt lat="44.50512" lon="-0.27387">
        <ele>55.1</ele>
        <time>2020-09-08T16:21:12Z</time>
      </trkpt>
      <trkpt lat="44.5051" lon="-0.27383">
        <ele>54.9</ele>
        <time>2020-09-08T16:21:14Z</time>
      </trkpt>
      <trkpt lat="44.50509" lon="-0.27381">
        <ele>54.9</ele>
        <time>2020-09-08T16:21:16Z</time>
      </trkpt>
      <trkpt lat="44.50508" lon="-0.27381">
        <ele>54.8</ele>
        <time>2020-09-08T16:21:17Z</time>
      </trkpt>
      <trkpt lat="44.50508" lon="-0.2738">
        <ele>54.8</ele>
        <time>2020-09-08T16:21:18Z</time>
      </trkpt>
      <trkpt lat="44.50507" lon="-0.27378">
        <ele>54.7</ele>
        <time>2020-09-08T16:21:19Z</time>
      </trkpt>
      <trkpt lat="44.50507" lon="-0.27376">
        <ele>54.6</ele>
        <time>2020-09-08T16:21:21Z</time>
      </trkpt>
      <trkpt lat="44.50506" lon="-0.27374">
        <ele>54.6</ele>
        <time>2020-09-08T16:21:22Z</time>
      </trkpt>
      <trkpt lat="44.50505" lon="-0.27372">
        <ele>54.5</ele>
        <time>2020-09-08T16:21:23Z</time>
      </trkpt>
      <trkpt lat="44.50504" lon="-0.2737">
        <ele>54.4</ele>
        <time>2020-09-08T16:21:25Z</time>
      </trkpt>
      <trkpt lat="44.50503" lon="-0.27368">
        <ele>54.3</ele>
        <time>2020-09-08T16:21:26Z</time>
      </trkpt>
      <trkpt lat="44.50502" lon="-0.27365">
        <ele>54.2</ele>
        <time>2020-09-08T16:21:28Z</time>
      </trkpt>
      <trkpt lat="44.50501" lon="-0.27364">
        <ele>54.1</ele>
        <time>2020-09-08T16:21:29Z</time>
      </trkpt>
      <trkpt lat="44.505" lon="-0.27363">
        <ele>54.1</ele>
        <time>2020-09-08T16:21:30Z</time>
      </trkpt>
      <trkpt lat="44.505" lon="-0.27361">
        <ele>54</ele>
        <time>2020-09-08T16:21:32Z</time>
      </trkpt>
      <trkpt lat="44.50499" lon="-0.27359">
        <ele>54</ele>
        <time>2020-09-08T16:21:33Z</time>
      </trkpt>
      <trkpt lat="44.50498" lon="-0.27357">
        <ele>53.9</ele>
        <time>2020-09-08T16:21:34Z</time>
      </trkpt>
      <trkpt lat="44.50498" lon="-0.27355">
        <ele>53.8</ele>
        <time>2020-09-08T16:21:36Z</time>
      </trkpt>
      <trkpt lat="44.50498" lon="-0.27353">
        <ele>53.7</ele>
        <time>2020-09-08T16:21:37Z</time>
      </trkpt>
      <trkpt lat="44.50497" lon="-0.27349">
        <ele>53.6</ele>
        <time>2020-09-08T16:21:39Z</time>
      </trkpt>
      <trkpt lat="44.50497" lon="-0.27347">
        <ele>53.5</ele>
        <time>2020-09-08T16:21:40Z</time>
      </trkpt>
      <trkpt lat="44.50497" lon="-0.27345">
        <ele>53.5</ele>
        <time>2020-09-08T16:21:41Z</time>
      </trkpt>
      <trkpt lat="44.50497" lon="-0.27343">
        <ele>53.4</ele>
        <time>2020-09-08T16:21:43Z</time>
      </trkpt>
      <trkpt lat="44.50496" lon="-0.27339">
        <ele>53.2</ele>
        <time>2020-09-08T16:21:44Z</time>
      </trkpt>
      <trkpt lat="44.50496" lon="-0.27337">
        <ele>53.2</ele>
        <time>2020-09-08T16:21:45Z</time>
      </trkpt>
      <trkpt lat="44.50496" lon="-0.27335">
        <ele>53.1</ele>
        <time>2020-09-08T16:21:46Z</time>
      </trkpt>
      <trkpt lat="44.50496" lon="-0.2733">
        <ele>53</ele>
        <time>2020-09-08T16:21:48Z</time>
      </trkpt>
      <trkpt lat="44.50496" lon="-0.27328">
        <ele>52.9</ele>
        <time>2020-09-08T16:21:49Z</time>
      </trkpt>
      <trkpt lat="44.50496" lon="-0.27325">
        <ele>52.8</ele>
        <time>2020-09-08T16:21:50Z</time>
      </trkpt>
      <trkpt lat="44.50496" lon="-0.27324">
        <ele>52.7</ele>
        <time>2020-09-08T16:21:51Z</time>
      </trkpt>
      <trkpt lat="44.50496" lon="-0.27323">
        <ele>52.7</ele>
        <time>2020-09-08T16:21:52Z</time>
      </trkpt>
      <trkpt lat="44.50496" lon="-0.27321">
        <ele>52.6</ele>
        <time>2020-09-08T16:21:53Z</time>
      </trkpt>
      <trkpt lat="44.50496" lon="-0.27318">
        <ele>52.5</ele>
        <time>2020-09-08T16:21:54Z</time>
      </trkpt>
      <trkpt lat="44.50496" lon="-0.27316">
        <ele>52.5</ele>
        <time>2020-09-08T16:21:56Z</time>
      </trkpt>
      <trkpt lat="44.50495" lon="-0.27315">
        <ele>52.4</ele>
        <time>2020-09-08T16:21:57Z</time>
      </trkpt>
      <trkpt lat="44.50496" lon="-0.27313">
        <ele>52.4</ele>
        <time>2020-09-08T16:21:59Z</time>
      </trkpt>
      <trkpt lat="44.50496" lon="-0.2731">
        <ele>52.3</ele>
        <time>2020-09-08T16:22:00Z</time>
      </trkpt>
      <trkpt lat="44.50495" lon="-0.27308">
        <ele>52.2</ele>
        <time>2020-09-08T16:22:01Z</time>
      </trkpt>
      <trkpt lat="44.50496" lon="-0.27307">
        <ele>52.2</ele>
        <time>2020-09-08T16:22:02Z</time>
      </trkpt>
      <trkpt lat="44.50496" lon="-0.27305">
        <ele>52.1</ele>
        <time>2020-09-08T16:22:04Z</time>
      </trkpt>
      <trkpt lat="44.50496" lon="-0.27303">
        <ele>52</ele>
        <time>2020-09-08T16:22:05Z</time>
      </trkpt>
      <trkpt lat="44.50495" lon="-0.27302">
        <ele>52</ele>
        <time>2020-09-08T16:22:06Z</time>
      </trkpt>
      <trkpt lat="44.50494" lon="-0.27298">
        <ele>51.8</ele>
        <time>2020-09-08T16:22:08Z</time>
      </trkpt>
      <trkpt lat="44.50492" lon="-0.27293">
        <ele>51.6</ele>
        <time>2020-09-08T16:22:10Z</time>
      </trkpt>
      <trkpt lat="44.50491" lon="-0.27292">
        <ele>51.3</ele>
        <time>2020-09-08T16:22:11Z</time>
      </trkpt>
      <trkpt lat="44.50491" lon="-0.27291">
        <ele>51.3</ele>
        <time>2020-09-08T16:22:13Z</time>
      </trkpt>
      <trkpt lat="44.5049" lon="-0.2729">
        <ele>51.3</ele>
        <time>2020-09-08T16:22:14Z</time>
      </trkpt>
      <trkpt lat="44.50488" lon="-0.27289">
        <ele>51.2</ele>
        <time>2020-09-08T16:22:15Z</time>
      </trkpt>
      <trkpt lat="44.50487" lon="-0.27288">
        <ele>51.1</ele>
        <time>2020-09-08T16:22:17Z</time>
      </trkpt>
      <trkpt lat="44.50486" lon="-0.27286">
        <ele>51.1</ele>
        <time>2020-09-08T16:22:18Z</time>
      </trkpt>
      <trkpt lat="44.50485" lon="-0.27285">
        <ele>51</ele>
        <time>2020-09-08T16:22:19Z</time>
      </trkpt>
      <trkpt lat="44.50484" lon="-0.27283">
        <ele>50.9</ele>
        <time>2020-09-08T16:22:20Z</time>
      </trkpt>
      <trkpt lat="44.50483" lon="-0.27281">
        <ele>50.9</ele>
        <time>2020-09-08T16:22:22Z</time>
      </trkpt>
      <trkpt lat="44.50481" lon="-0.2728">
        <ele>50.8</ele>
        <time>2020-09-08T16:22:23Z</time>
      </trkpt>
      <trkpt lat="44.50479" lon="-0.27279">
        <ele>50.7</ele>
        <time>2020-09-08T16:22:25Z</time>
      </trkpt>
      <trkpt lat="44.50478" lon="-0.2728">
        <ele>50.7</ele>
        <time>2020-09-08T16:22:26Z</time>
      </trkpt>
      <trkpt lat="44.50477" lon="-0.27281">
        <ele>50.6</ele>
        <time>2020-09-08T16:22:27Z</time>
      </trkpt>
      <trkpt lat="44.50476" lon="-0.27282">
        <ele>50.6</ele>
        <time>2020-09-08T16:22:28Z</time>
      </trkpt>
      <trkpt lat="44.50475" lon="-0.27282">
        <ele>50.5</ele>
        <time>2020-09-08T16:22:29Z</time>
      </trkpt>
      <trkpt lat="44.50473" lon="-0.27283">
        <ele>50.5</ele>
        <time>2020-09-08T16:22:30Z</time>
      </trkpt>
      <trkpt lat="44.50472" lon="-0.27284">
        <ele>50.4</ele>
        <time>2020-09-08T16:22:32Z</time>
      </trkpt>
      <trkpt lat="44.50472" lon="-0.27285">
        <ele>50.4</ele>
        <time>2020-09-08T16:22:33Z</time>
      </trkpt>
      <trkpt lat="44.5047" lon="-0.27285">
        <ele>50.3</ele>
        <time>2020-09-08T16:22:34Z</time>
      </trkpt>
      <trkpt lat="44.50469" lon="-0.27286">
        <ele>50.3</ele>
        <time>2020-09-08T16:22:35Z</time>
      </trkpt>
      <trkpt lat="44.50468" lon="-0.27287">
        <ele>50.2</ele>
        <time>2020-09-08T16:22:36Z</time>
      </trkpt>
      <trkpt lat="44.50466" lon="-0.27289">
        <ele>50.1</ele>
        <time>2020-09-08T16:22:37Z</time>
      </trkpt>
      <trkpt lat="44.50464" lon="-0.27289">
        <ele>50.1</ele>
        <time>2020-09-08T16:22:39Z</time>
      </trkpt>
      <trkpt lat="44.50463" lon="-0.2729">
        <ele>50</ele>
        <time>2020-09-08T16:22:40Z</time>
      </trkpt>
      <trkpt lat="44.50461" lon="-0.27292">
        <ele>49.9</ele>
        <time>2020-09-08T16:22:42Z</time>
      </trkpt>
      <trkpt lat="44.5046" lon="-0.27293">
        <ele>49.9</ele>
        <time>2020-09-08T16:22:43Z</time>
      </trkpt>
      <trkpt lat="44.50457" lon="-0.27296">
        <ele>49.7</ele>
        <time>2020-09-08T16:22:45Z</time>
      </trkpt>
      <trkpt lat="44.50456" lon="-0.27297">
        <ele>49.6</ele>
        <time>2020-09-08T16:22:46Z</time>
      </trkpt>
      <trkpt lat="44.50455" lon="-0.27298">
        <ele>49.6</ele>
        <time>2020-09-08T16:22:48Z</time>
      </trkpt>
      <trkpt lat="44.50454" lon="-0.27299">
        <ele>49.5</ele>
        <time>2020-09-08T16:22:49Z</time>
      </trkpt>
      <trkpt lat="44.50453" lon="-0.27301">
        <ele>49.5</ele>
        <time>2020-09-08T16:22:50Z</time>
      </trkpt>
      <trkpt lat="44.50452" lon="-0.27302">
        <ele>49.4</ele>
        <time>2020-09-08T16:22:51Z</time>
      </trkpt>
      <trkpt lat="44.5045" lon="-0.27303">
        <ele>49.3</ele>
        <time>2020-09-08T16:22:53Z</time>
      </trkpt>
      <trkpt lat="44.50449" lon="-0.27305">
        <ele>49.3</ele>
        <time>2020-09-08T16:22:54Z</time>
      </trkpt>
      <trkpt lat="44.50448" lon="-0.27306">
        <ele>49.2</ele>
        <time>2020-09-08T16:22:55Z</time>
      </trkpt>
      <trkpt lat="44.50446" lon="-0.27308">
        <ele>49.1</ele>
        <time>2020-09-08T16:22:56Z</time>
      </trkpt>
      <trkpt lat="44.50444" lon="-0.27309">
        <ele>49</ele>
        <time>2020-09-08T16:22:58Z</time>
      </trkpt>
      <trkpt lat="44.50443" lon="-0.2731">
        <ele>48.9</ele>
        <time>2020-09-08T16:22:59Z</time>
      </trkpt>
      <trkpt lat="44.50442" lon="-0.27311">
        <ele>48.8</ele>
        <time>2020-09-08T16:23:00Z</time>
      </trkpt>
      <trkpt lat="44.50441" lon="-0.27312">
        <ele>48.8</ele>
        <time>2020-09-08T16:23:01Z</time>
      </trkpt>
      <trkpt lat="44.50439" lon="-0.27313">
        <ele>48.7</ele>
        <time>2020-09-08T16:23:02Z</time>
      </trkpt>
      <trkpt lat="44.50437" lon="-0.27314">
        <ele>48.6</ele>
        <time>2020-09-08T16:23:04Z</time>
      </trkpt>
      <trkpt lat="44.50435" lon="-0.27315">
        <ele>48.5</ele>
        <time>2020-09-08T16:23:05Z</time>
      </trkpt>
      <trkpt lat="44.50434" lon="-0.27315">
        <ele>48.5</ele>
        <time>2020-09-08T16:23:07Z</time>
      </trkpt>
      <trkpt lat="44.50433" lon="-0.27316">
        <ele>48.4</ele>
        <time>2020-09-08T16:23:08Z</time>
      </trkpt>
      <trkpt lat="44.50431" lon="-0.27317">
        <ele>48.3</ele>
        <time>2020-09-08T16:23:09Z</time>
      </trkpt>
      <trkpt lat="44.50429" lon="-0.27317">
        <ele>48.2</ele>
        <time>2020-09-08T16:23:10Z</time>
      </trkpt>
      <trkpt lat="44.50428" lon="-0.27317">
        <ele>48.1</ele>
        <time>2020-09-08T16:23:11Z</time>
      </trkpt>
      <trkpt lat="44.50425" lon="-0.27318">
        <ele>48</ele>
        <time>2020-09-08T16:23:12Z</time>
      </trkpt>
      <trkpt lat="44.50424" lon="-0.27318">
        <ele>48</ele>
        <time>2020-09-08T16:23:13Z</time>
      </trkpt>
      <trkpt lat="44.5042" lon="-0.27319">
        <ele>47.8</ele>
        <time>2020-09-08T16:23:15Z</time>
      </trkpt>
      <trkpt lat="44.50419" lon="-0.27319">
        <ele>47.7</ele>
        <time>2020-09-08T16:23:16Z</time>
      </trkpt>
      <trkpt lat="44.50418" lon="-0.27319">
        <ele>47.7</ele>
        <time>2020-09-08T16:23:17Z</time>
      </trkpt>
      <trkpt lat="44.50417" lon="-0.2732">
        <ele>47.6</ele>
        <time>2020-09-08T16:23:18Z</time>
      </trkpt>
      <trkpt lat="44.50415" lon="-0.27321">
        <ele>47.5</ele>
        <time>2020-09-08T16:23:19Z</time>
      </trkpt>
      <trkpt lat="44.50414" lon="-0.27322">
        <ele>47.4</ele>
        <time>2020-09-08T16:23:20Z</time>
      </trkpt>
      <trkpt lat="44.50412" lon="-0.27323">
        <ele>47.3</ele>
        <time>2020-09-08T16:23:21Z</time>
      </trkpt>
      <trkpt lat="44.50411" lon="-0.27324">
        <ele>47.3</ele>
        <time>2020-09-08T16:23:23Z</time>
      </trkpt>
      <trkpt lat="44.5041" lon="-0.27324">
        <ele>47.3</ele>
        <time>2020-09-08T16:23:24Z</time>
      </trkpt>
      <trkpt lat="44.50408" lon="-0.27325">
        <ele>47.2</ele>
        <time>2020-09-08T16:23:25Z</time>
      </trkpt>
      <trkpt lat="44.50407" lon="-0.27326">
        <ele>47.1</ele>
        <time>2020-09-08T16:23:26Z</time>
      </trkpt>
      <trkpt lat="44.50405" lon="-0.27327">
        <ele>47</ele>
        <time>2020-09-08T16:23:27Z</time>
      </trkpt>
      <trkpt lat="44.50404" lon="-0.27327">
        <ele>47</ele>
        <time>2020-09-08T16:23:28Z</time>
      </trkpt>
      <trkpt lat="44.50404" lon="-0.27328">
        <ele>46.9</ele>
        <time>2020-09-08T16:23:29Z</time>
      </trkpt>
      <trkpt lat="44.50401" lon="-0.27328">
        <ele>46.8</ele>
        <time>2020-09-08T16:23:31Z</time>
      </trkpt>
      <trkpt lat="44.504" lon="-0.27328">
        <ele>46.7</ele>
        <time>2020-09-08T16:23:32Z</time>
      </trkpt>
      <trkpt lat="44.50398" lon="-0.27328">
        <ele>46.7</ele>
        <time>2020-09-08T16:23:34Z</time>
      </trkpt>
      <trkpt lat="44.50396" lon="-0.27328">
        <ele>46.6</ele>
        <time>2020-09-08T16:23:35Z</time>
      </trkpt>
      <trkpt lat="44.50396" lon="-0.27328">
        <ele>46.5</ele>
        <time>2020-09-08T16:23:36Z</time>
      </trkpt>
      <trkpt lat="44.50394" lon="-0.27328">
        <ele>46.5</ele>
        <time>2020-09-08T16:23:37Z</time>
      </trkpt>
      <trkpt lat="44.50393" lon="-0.27329">
        <ele>46.4</ele>
        <time>2020-09-08T16:23:38Z</time>
      </trkpt>
      <trkpt lat="44.50392" lon="-0.27329">
        <ele>46.4</ele>
        <time>2020-09-08T16:23:39Z</time>
      </trkpt>
      <trkpt lat="44.50391" lon="-0.27329">
        <ele>46.3</ele>
        <time>2020-09-08T16:23:40Z</time>
      </trkpt>
      <trkpt lat="44.5039" lon="-0.27329">
        <ele>46.3</ele>
        <time>2020-09-08T16:23:41Z</time>
      </trkpt>
      <trkpt lat="44.50388" lon="-0.2733">
        <ele>46.2</ele>
        <time>2020-09-08T16:23:42Z</time>
      </trkpt>
      <trkpt lat="44.50387" lon="-0.27331">
        <ele>46.2</ele>
        <time>2020-09-08T16:23:44Z</time>
      </trkpt>
      <trkpt lat="44.50386" lon="-0.27331">
        <ele>46.1</ele>
        <time>2020-09-08T16:23:45Z</time>
      </trkpt>
      <trkpt lat="44.50385" lon="-0.27331">
        <ele>46.1</ele>
        <time>2020-09-08T16:23:46Z</time>
      </trkpt>
      <trkpt lat="44.50384" lon="-0.27331">
        <ele>46</ele>
        <time>2020-09-08T16:23:47Z</time>
      </trkpt>
      <trkpt lat="44.50383" lon="-0.27332">
        <ele>46</ele>
        <time>2020-09-08T16:23:48Z</time>
      </trkpt>
      <trkpt lat="44.5038" lon="-0.27332">
        <ele>45.8</ele>
        <time>2020-09-08T16:23:50Z</time>
      </trkpt>
      <trkpt lat="44.50378" lon="-0.27332">
        <ele>45.8</ele>
        <time>2020-09-08T16:23:51Z</time>
      </trkpt>
      <trkpt lat="44.50377" lon="-0.27332">
        <ele>45.7</ele>
        <time>2020-09-08T16:23:53Z</time>
      </trkpt>
      <trkpt lat="44.50375" lon="-0.27332">
        <ele>45.7</ele>
        <time>2020-09-08T16:23:54Z</time>
      </trkpt>
      <trkpt lat="44.50373" lon="-0.27333">
        <ele>45.6</ele>
        <time>2020-09-08T16:23:55Z</time>
      </trkpt>
      <trkpt lat="44.50371" lon="-0.27333">
        <ele>45.5</ele>
        <time>2020-09-08T16:23:57Z</time>
      </trkpt>
      <trkpt lat="44.50371" lon="-0.27333">
        <ele>45.5</ele>
        <time>2020-09-08T16:23:58Z</time>
      </trkpt>
      <trkpt lat="44.50369" lon="-0.27334">
        <ele>45.5</ele>
        <time>2020-09-08T16:24:00Z</time>
      </trkpt>
      <trkpt lat="44.50367" lon="-0.27335">
        <ele>45.4</ele>
        <time>2020-09-08T16:24:01Z</time>
      </trkpt>
      <trkpt lat="44.50366" lon="-0.27335">
        <ele>45.4</ele>
        <time>2020-09-08T16:24:02Z</time>
      </trkpt>
      <trkpt lat="44.50364" lon="-0.27335">
        <ele>45.3</ele>
        <time>2020-09-08T16:24:03Z</time>
      </trkpt>
      <trkpt lat="44.50363" lon="-0.27335">
        <ele>45.3</ele>
        <time>2020-09-08T16:24:04Z</time>
      </trkpt>
      <trkpt lat="44.50362" lon="-0.27336">
        <ele>45.3</ele>
        <time>2020-09-08T16:24:05Z</time>
      </trkpt>
      <trkpt lat="44.50361" lon="-0.27336">
        <ele>45.2</ele>
        <time>2020-09-08T16:24:07Z</time>
      </trkpt>
      <trkpt lat="44.5036" lon="-0.27336">
        <ele>45.2</ele>
        <time>2020-09-08T16:24:08Z</time>
      </trkpt>
      <trkpt lat="44.50359" lon="-0.27336">
        <ele>45.2</ele>
        <time>2020-09-08T16:24:09Z</time>
      </trkpt>
      <trkpt lat="44.50357" lon="-0.27336">
        <ele>45.1</ele>
        <time>2020-09-08T16:24:11Z</time>
      </trkpt>
      <trkpt lat="44.50356" lon="-0.27336">
        <ele>45.1</ele>
        <time>2020-09-08T16:24:12Z</time>
      </trkpt>
      <trkpt lat="44.50354" lon="-0.27337">
        <ele>45</ele>
        <time>2020-09-08T16:24:13Z</time>
      </trkpt>
      <trkpt lat="44.50353" lon="-0.27337">
        <ele>45</ele>
        <time>2020-09-08T16:24:14Z</time>
      </trkpt>
      <trkpt lat="44.50352" lon="-0.27337">
        <ele>45</ele>
        <time>2020-09-08T16:24:15Z</time>
      </trkpt>
      <trkpt lat="44.5035" lon="-0.27338">
        <ele>44.9</ele>
        <time>2020-09-08T16:24:16Z</time>
      </trkpt>
      <trkpt lat="44.50349" lon="-0.27338">
        <ele>44.9</ele>
        <time>2020-09-08T16:24:18Z</time>
      </trkpt>
      <trkpt lat="44.50348" lon="-0.27338">
        <ele>44.9</ele>
        <time>2020-09-08T16:24:19Z</time>
      </trkpt>
      <trkpt lat="44.50345" lon="-0.27339">
        <ele>44.8</ele>
        <time>2020-09-08T16:24:20Z</time>
      </trkpt>
      <trkpt lat="44.50345" lon="-0.27339">
        <ele>44.8</ele>
        <time>2020-09-08T16:24:21Z</time>
      </trkpt>
      <trkpt lat="44.50343" lon="-0.2734">
        <ele>44.7</ele>
        <time>2020-09-08T16:24:22Z</time>
      </trkpt>
      <trkpt lat="44.50342" lon="-0.27341">
        <ele>44.7</ele>
        <time>2020-09-08T16:24:23Z</time>
      </trkpt>
      <trkpt lat="44.50341" lon="-0.27341">
        <ele>44.7</ele>
        <time>2020-09-08T16:24:24Z</time>
      </trkpt>
      <trkpt lat="44.50339" lon="-0.27342">
        <ele>44.6</ele>
        <time>2020-09-08T16:24:25Z</time>
      </trkpt>
      <trkpt lat="44.50337" lon="-0.27343">
        <ele>44.6</ele>
        <time>2020-09-08T16:24:27Z</time>
      </trkpt>
      <trkpt lat="44.50336" lon="-0.27344">
        <ele>44.6</ele>
        <time>2020-09-08T16:24:28Z</time>
      </trkpt>
      <trkpt lat="44.50335" lon="-0.27344">
        <ele>44.5</ele>
        <time>2020-09-08T16:24:29Z</time>
      </trkpt>
      <trkpt lat="44.50333" lon="-0.27345">
        <ele>44.5</ele>
        <time>2020-09-08T16:24:30Z</time>
      </trkpt>
      <trkpt lat="44.50331" lon="-0.27346">
        <ele>44.5</ele>
        <time>2020-09-08T16:24:32Z</time>
      </trkpt>
      <trkpt lat="44.50329" lon="-0.27347">
        <ele>44.5</ele>
        <time>2020-09-08T16:24:33Z</time>
      </trkpt>
      <trkpt lat="44.50328" lon="-0.27348">
        <ele>44.5</ele>
        <time>2020-09-08T16:24:35Z</time>
      </trkpt>
      <trkpt lat="44.50327" lon="-0.27348">
        <ele>44.5</ele>
        <time>2020-09-08T16:24:36Z</time>
      </trkpt>
      <trkpt lat="44.50326" lon="-0.27349">
        <ele>44.5</ele>
        <time>2020-09-08T16:24:37Z</time>
      </trkpt>
      <trkpt lat="44.50324" lon="-0.2735">
        <ele>44.5</ele>
        <time>2020-09-08T16:24:38Z</time>
      </trkpt>
      <trkpt lat="44.50323" lon="-0.2735">
        <ele>44.5</ele>
        <time>2020-09-08T16:24:39Z</time>
      </trkpt>
      <trkpt lat="44.5032" lon="-0.27351">
        <ele>44.5</ele>
        <time>2020-09-08T16:24:41Z</time>
      </trkpt>
      <trkpt lat="44.50319" lon="-0.27352">
        <ele>44.5</ele>
        <time>2020-09-08T16:24:42Z</time>
      </trkpt>
      <trkpt lat="44.50318" lon="-0.27352">
        <ele>44.5</ele>
        <time>2020-09-08T16:24:43Z</time>
      </trkpt>
      <trkpt lat="44.50317" lon="-0.27353">
        <ele>44.5</ele>
        <time>2020-09-08T16:24:44Z</time>
      </trkpt>
      <trkpt lat="44.50316" lon="-0.27354">
        <ele>44.5</ele>
        <time>2020-09-08T16:24:45Z</time>
      </trkpt>
      <trkpt lat="44.50314" lon="-0.27355">
        <ele>44.6</ele>
        <time>2020-09-08T16:24:47Z</time>
      </trkpt>
      <trkpt lat="44.50312" lon="-0.27355">
        <ele>44.6</ele>
        <time>2020-09-08T16:24:48Z</time>
      </trkpt>
      <trkpt lat="44.50311" lon="-0.27356">
        <ele>44.6</ele>
        <time>2020-09-08T16:24:49Z</time>
      </trkpt>
      <trkpt lat="44.50308" lon="-0.27358">
        <ele>44.7</ele>
        <time>2020-09-08T16:24:51Z</time>
      </trkpt>
      <trkpt lat="44.50307" lon="-0.27358">
        <ele>44.7</ele>
        <time>2020-09-08T16:24:52Z</time>
      </trkpt>
      <trkpt lat="44.50305" lon="-0.27359">
        <ele>44.7</ele>
        <time>2020-09-08T16:24:53Z</time>
      </trkpt>
      <trkpt lat="44.50304" lon="-0.2736">
        <ele>44.7</ele>
        <time>2020-09-08T16:24:54Z</time>
      </trkpt>
      <trkpt lat="44.50303" lon="-0.2736">
        <ele>44.8</ele>
        <time>2020-09-08T16:24:55Z</time>
      </trkpt>
      <trkpt lat="44.50302" lon="-0.27361">
        <ele>44.8</ele>
        <time>2020-09-08T16:24:57Z</time>
      </trkpt>
      <trkpt lat="44.50301" lon="-0.27361">
        <ele>44.8</ele>
        <time>2020-09-08T16:24:58Z</time>
      </trkpt>
      <trkpt lat="44.503" lon="-0.27362">
        <ele>44.8</ele>
        <time>2020-09-08T16:24:59Z</time>
      </trkpt>
      <trkpt lat="44.50297" lon="-0.27364">
        <ele>44.9</ele>
        <time>2020-09-08T16:25:01Z</time>
      </trkpt>
      <trkpt lat="44.50297" lon="-0.27364">
        <ele>44.9</ele>
        <time>2020-09-08T16:25:02Z</time>
      </trkpt>
      <trkpt lat="44.50296" lon="-0.27365">
        <ele>44.9</ele>
        <time>2020-09-08T16:25:03Z</time>
      </trkpt>
      <trkpt lat="44.50295" lon="-0.27366">
        <ele>45</ele>
        <time>2020-09-08T16:25:04Z</time>
      </trkpt>
      <trkpt lat="44.50292" lon="-0.27367">
        <ele>45</ele>
        <time>2020-09-08T16:25:06Z</time>
      </trkpt>
      <trkpt lat="44.50291" lon="-0.27368">
        <ele>45</ele>
        <time>2020-09-08T16:25:07Z</time>
      </trkpt>
      <trkpt lat="44.5029" lon="-0.27368">
        <ele>45</ele>
        <time>2020-09-08T16:25:08Z</time>
      </trkpt>
      <trkpt lat="44.50289" lon="-0.27368">
        <ele>45</ele>
        <time>2020-09-08T16:25:09Z</time>
      </trkpt>
      <trkpt lat="44.50287" lon="-0.27369">
        <ele>45.1</ele>
        <time>2020-09-08T16:25:10Z</time>
      </trkpt>
      <trkpt lat="44.50286" lon="-0.27369">
        <ele>45.1</ele>
        <time>2020-09-08T16:25:11Z</time>
      </trkpt>
      <trkpt lat="44.50286" lon="-0.2737">
        <ele>45.1</ele>
        <time>2020-09-08T16:25:12Z</time>
      </trkpt>
      <trkpt lat="44.50285" lon="-0.2737">
        <ele>45.1</ele>
        <time>2020-09-08T16:25:13Z</time>
      </trkpt>
      <trkpt lat="44.50283" lon="-0.27371">
        <ele>45.1</ele>
        <time>2020-09-08T16:25:15Z</time>
      </trkpt>
      <trkpt lat="44.50282" lon="-0.27371">
        <ele>45.4</ele>
        <time>2020-09-08T16:25:16Z</time>
      </trkpt>
      <trkpt lat="44.50281" lon="-0.27371">
        <ele>45.4</ele>
        <time>2020-09-08T16:25:17Z</time>
      </trkpt>
      <trkpt lat="44.5028" lon="-0.27371">
        <ele>45.5</ele>
        <time>2020-09-08T16:25:18Z</time>
      </trkpt>
      <trkpt lat="44.50279" lon="-0.27371">
        <ele>45.5</ele>
        <time>2020-09-08T16:25:19Z</time>
      </trkpt>
      <trkpt lat="44.50277" lon="-0.27372">
        <ele>45.6</ele>
        <time>2020-09-08T16:25:20Z</time>
      </trkpt>
      <trkpt lat="44.50275" lon="-0.27373">
        <ele>45.7</ele>
        <time>2020-09-08T16:25:22Z</time>
      </trkpt>
      <trkpt lat="44.50274" lon="-0.27373">
        <ele>45.8</ele>
        <time>2020-09-08T16:25:23Z</time>
      </trkpt>
      <trkpt lat="44.50273" lon="-0.27373">
        <ele>45.8</ele>
        <time>2020-09-08T16:25:24Z</time>
      </trkpt>
      <trkpt lat="44.50271" lon="-0.27374">
        <ele>45.9</ele>
        <time>2020-09-08T16:25:26Z</time>
      </trkpt>
      <trkpt lat="44.5027" lon="-0.27374">
        <ele>46</ele>
        <time>2020-09-08T16:25:27Z</time>
      </trkpt>
      <trkpt lat="44.50269" lon="-0.27373">
        <ele>46.1</ele>
        <time>2020-09-08T16:25:28Z</time>
      </trkpt>
      <trkpt lat="44.50268" lon="-0.27373">
        <ele>46.1</ele>
        <time>2020-09-08T16:25:29Z</time>
      </trkpt>
      <trkpt lat="44.50267" lon="-0.27372">
        <ele>46.2</ele>
        <time>2020-09-08T16:25:30Z</time>
      </trkpt>
      <trkpt lat="44.50265" lon="-0.27372">
        <ele>46.2</ele>
        <time>2020-09-08T16:25:32Z</time>
      </trkpt>
      <trkpt lat="44.50264" lon="-0.27371">
        <ele>46.3</ele>
        <time>2020-09-08T16:25:33Z</time>
      </trkpt>
      <trkpt lat="44.50262" lon="-0.27369">
        <ele>46.4</ele>
        <time>2020-09-08T16:25:34Z</time>
      </trkpt>
      <trkpt lat="44.50261" lon="-0.27368">
        <ele>46.5</ele>
        <time>2020-09-08T16:25:36Z</time>
      </trkpt>
      <trkpt lat="44.5026" lon="-0.27367">
        <ele>46.6</ele>
        <time>2020-09-08T16:25:37Z</time>
      </trkpt>
      <trkpt lat="44.50259" lon="-0.27366">
        <ele>46.6</ele>
        <time>2020-09-08T16:25:38Z</time>
      </trkpt>
      <trkpt lat="44.50258" lon="-0.27365">
        <ele>46.7</ele>
        <time>2020-09-08T16:25:39Z</time>
      </trkpt>
      <trkpt lat="44.50256" lon="-0.27363">
        <ele>46.8</ele>
        <time>2020-09-08T16:25:40Z</time>
      </trkpt>
      <trkpt lat="44.50256" lon="-0.27362">
        <ele>46.8</ele>
        <time>2020-09-08T16:25:41Z</time>
      </trkpt>
      <trkpt lat="44.50256" lon="-0.27361">
        <ele>46.9</ele>
        <time>2020-09-08T16:25:42Z</time>
      </trkpt>
      <trkpt lat="44.50255" lon="-0.27359">
        <ele>46.9</ele>
        <time>2020-09-08T16:25:44Z</time>
      </trkpt>
      <trkpt lat="44.50255" lon="-0.27358">
        <ele>47</ele>
        <time>2020-09-08T16:25:45Z</time>
      </trkpt>
      <trkpt lat="44.50254" lon="-0.27357">
        <ele>47</ele>
        <time>2020-09-08T16:25:46Z</time>
      </trkpt>
      <trkpt lat="44.50253" lon="-0.27356">
        <ele>47.1</ele>
        <time>2020-09-08T16:25:47Z</time>
      </trkpt>
      <trkpt lat="44.50252" lon="-0.27354">
        <ele>47.2</ele>
        <time>2020-09-08T16:25:49Z</time>
      </trkpt>
      <trkpt lat="44.50251" lon="-0.27353">
        <ele>47.2</ele>
        <time>2020-09-08T16:25:50Z</time>
      </trkpt>
      <trkpt lat="44.5025" lon="-0.27352">
        <ele>47.3</ele>
        <time>2020-09-08T16:25:52Z</time>
      </trkpt>
      <trkpt lat="44.50249" lon="-0.27352">
        <ele>47.3</ele>
        <time>2020-09-08T16:25:53Z</time>
      </trkpt>
      <trkpt lat="44.50248" lon="-0.27351">
        <ele>47.4</ele>
        <time>2020-09-08T16:25:54Z</time>
      </trkpt>
      <trkpt lat="44.50246" lon="-0.2735">
        <ele>47.5</ele>
        <time>2020-09-08T16:25:56Z</time>
      </trkpt>
      <trkpt lat="44.50245" lon="-0.2735">
        <ele>47.5</ele>
        <time>2020-09-08T16:25:57Z</time>
      </trkpt>
      <trkpt lat="44.50244" lon="-0.2735">
        <ele>47.6</ele>
        <time>2020-09-08T16:25:58Z</time>
      </trkpt>
      <trkpt lat="44.50243" lon="-0.27349">
        <ele>47.7</ele>
        <time>2020-09-08T16:25:59Z</time>
      </trkpt>
      <trkpt lat="44.50241" lon="-0.27348">
        <ele>47.8</ele>
        <time>2020-09-08T16:26:00Z</time>
      </trkpt>
      <trkpt lat="44.5024" lon="-0.27348">
        <ele>47.8</ele>
        <time>2020-09-08T16:26:01Z</time>
      </trkpt>
      <trkpt lat="44.50238" lon="-0.27347">
        <ele>47.9</ele>
        <time>2020-09-08T16:26:03Z</time>
      </trkpt>
      <trkpt lat="44.50237" lon="-0.27347">
        <ele>48</ele>
        <time>2020-09-08T16:26:04Z</time>
      </trkpt>
      <trkpt lat="44.50237" lon="-0.27347">
        <ele>48</ele>
        <time>2020-09-08T16:26:05Z</time>
      </trkpt>
      <trkpt lat="44.50234" lon="-0.27346">
        <ele>48.1</ele>
        <time>2020-09-08T16:26:06Z</time>
      </trkpt>
      <trkpt lat="44.50233" lon="-0.27346">
        <ele>48.2</ele>
        <time>2020-09-08T16:26:08Z</time>
      </trkpt>
      <trkpt lat="44.50232" lon="-0.27346">
        <ele>48.2</ele>
        <time>2020-09-08T16:26:09Z</time>
      </trkpt>
      <trkpt lat="44.5023" lon="-0.27346">
        <ele>48.3</ele>
        <time>2020-09-08T16:26:10Z</time>
      </trkpt>
      <trkpt lat="44.50229" lon="-0.27346">
        <ele>48.4</ele>
        <time>2020-09-08T16:26:11Z</time>
      </trkpt>
      <trkpt lat="44.50228" lon="-0.27346">
        <ele>48.4</ele>
        <time>2020-09-08T16:26:12Z</time>
      </trkpt>
      <trkpt lat="44.50227" lon="-0.27347">
        <ele>48.5</ele>
        <time>2020-09-08T16:26:14Z</time>
      </trkpt>
      <trkpt lat="44.50225" lon="-0.27347">
        <ele>48.5</ele>
        <time>2020-09-08T16:26:15Z</time>
      </trkpt>
      <trkpt lat="44.50224" lon="-0.27347">
        <ele>48.6</ele>
        <time>2020-09-08T16:26:16Z</time>
      </trkpt>
      <trkpt lat="44.50222" lon="-0.27347">
        <ele>48.7</ele>
        <time>2020-09-08T16:26:17Z</time>
      </trkpt>
      <trkpt lat="44.5022" lon="-0.27347">
        <ele>48.8</ele>
        <time>2020-09-08T16:26:19Z</time>
      </trkpt>
      <trkpt lat="44.50218" lon="-0.27348">
        <ele>48.9</ele>
        <time>2020-09-08T16:26:21Z</time>
      </trkpt>
      <trkpt lat="44.50217" lon="-0.27348">
        <ele>49</ele>
        <time>2020-09-08T16:26:22Z</time>
      </trkpt>
      <trkpt lat="44.50214" lon="-0.27349">
        <ele>49.1</ele>
        <time>2020-09-08T16:26:23Z</time>
      </trkpt>
      <trkpt lat="44.50213" lon="-0.27349">
        <ele>49.2</ele>
        <time>2020-09-08T16:26:24Z</time>
      </trkpt>
      <trkpt lat="44.50212" lon="-0.2735">
        <ele>49.2</ele>
        <time>2020-09-08T16:26:25Z</time>
      </trkpt>
      <trkpt lat="44.50211" lon="-0.2735">
        <ele>49.3</ele>
        <time>2020-09-08T16:26:26Z</time>
      </trkpt>
      <trkpt lat="44.50209" lon="-0.2735">
        <ele>49.4</ele>
        <time>2020-09-08T16:26:28Z</time>
      </trkpt>
      <trkpt lat="44.50208" lon="-0.27351">
        <ele>49.4</ele>
        <time>2020-09-08T16:26:29Z</time>
      </trkpt>
      <trkpt lat="44.50205" lon="-0.27351">
        <ele>49.6</ele>
        <time>2020-09-08T16:26:31Z</time>
      </trkpt>
      <trkpt lat="44.50204" lon="-0.27352">
        <ele>49.6</ele>
        <time>2020-09-08T16:26:32Z</time>
      </trkpt>
      <trkpt lat="44.50203" lon="-0.27352">
        <ele>49.7</ele>
        <time>2020-09-08T16:26:33Z</time>
      </trkpt>
      <trkpt lat="44.50201" lon="-0.27353">
        <ele>49.8</ele>
        <time>2020-09-08T16:26:35Z</time>
      </trkpt>
      <trkpt lat="44.50198" lon="-0.27354">
        <ele>49.9</ele>
        <time>2020-09-08T16:26:36Z</time>
      </trkpt>
      <trkpt lat="44.50198" lon="-0.27355">
        <ele>50</ele>
        <time>2020-09-08T16:26:37Z</time>
      </trkpt>
      <trkpt lat="44.50195" lon="-0.27355">
        <ele>50.1</ele>
        <time>2020-09-08T16:26:38Z</time>
      </trkpt>
      <trkpt lat="44.50194" lon="-0.27356">
        <ele>50.1</ele>
        <time>2020-09-08T16:26:40Z</time>
      </trkpt>
      <trkpt lat="44.50193" lon="-0.27356">
        <ele>50.2</ele>
        <time>2020-09-08T16:26:41Z</time>
      </trkpt>
      <trkpt lat="44.50192" lon="-0.27356">
        <ele>50.3</ele>
        <time>2020-09-08T16:26:42Z</time>
      </trkpt>
      <trkpt lat="44.50191" lon="-0.27357">
        <ele>50.3</ele>
        <time>2020-09-08T16:26:43Z</time>
      </trkpt>
      <trkpt lat="44.5019" lon="-0.27357">
        <ele>50.4</ele>
        <time>2020-09-08T16:26:44Z</time>
      </trkpt>
      <trkpt lat="44.50189" lon="-0.27357">
        <ele>50.4</ele>
        <time>2020-09-08T16:26:45Z</time>
      </trkpt>
      <trkpt lat="44.50187" lon="-0.27357">
        <ele>50.5</ele>
        <time>2020-09-08T16:26:46Z</time>
      </trkpt>
      <trkpt lat="44.50186" lon="-0.27358">
        <ele>50.5</ele>
        <time>2020-09-08T16:26:47Z</time>
      </trkpt>
      <trkpt lat="44.50184" lon="-0.27358">
        <ele>50.7</ele>
        <time>2020-09-08T16:26:49Z</time>
      </trkpt>
      <trkpt lat="44.50183" lon="-0.27358">
        <ele>50.7</ele>
        <time>2020-09-08T16:26:50Z</time>
      </trkpt>
      <trkpt lat="44.50182" lon="-0.27358">
        <ele>50.7</ele>
        <time>2020-09-08T16:26:51Z</time>
      </trkpt>
      <trkpt lat="44.50181" lon="-0.27359">
        <ele>50.8</ele>
        <time>2020-09-08T16:26:52Z</time>
      </trkpt>
      <trkpt lat="44.5018" lon="-0.27359">
        <ele>50.9</ele>
        <time>2020-09-08T16:26:53Z</time>
      </trkpt>
      <trkpt lat="44.50179" lon="-0.27359">
        <ele>50.9</ele>
        <time>2020-09-08T16:26:54Z</time>
      </trkpt>
      <trkpt lat="44.50176" lon="-0.27359">
        <ele>51</ele>
        <time>2020-09-08T16:26:56Z</time>
      </trkpt>
      <trkpt lat="44.50175" lon="-0.27359">
        <ele>51.1</ele>
        <time>2020-09-08T16:26:57Z</time>
      </trkpt>
      <trkpt lat="44.50173" lon="-0.2736">
        <ele>51.2</ele>
        <time>2020-09-08T16:26:58Z</time>
      </trkpt>
      <trkpt lat="44.50172" lon="-0.2736">
        <ele>51.2</ele>
        <time>2020-09-08T16:27:00Z</time>
      </trkpt>
      <trkpt lat="44.50171" lon="-0.2736">
        <ele>51.3</ele>
        <time>2020-09-08T16:27:01Z</time>
      </trkpt>
      <trkpt lat="44.5017" lon="-0.2736">
        <ele>51.3</ele>
        <time>2020-09-08T16:27:02Z</time>
      </trkpt>
      <trkpt lat="44.50169" lon="-0.27361">
        <ele>51.4</ele>
        <time>2020-09-08T16:27:03Z</time>
      </trkpt>
      <trkpt lat="44.50168" lon="-0.27361">
        <ele>51.4</ele>
        <time>2020-09-08T16:27:04Z</time>
      </trkpt>
      <trkpt lat="44.50167" lon="-0.27361">
        <ele>51.5</ele>
        <time>2020-09-08T16:27:05Z</time>
      </trkpt>
      <trkpt lat="44.50166" lon="-0.27361">
        <ele>51.6</ele>
        <time>2020-09-08T16:27:07Z</time>
      </trkpt>
      <trkpt lat="44.50165" lon="-0.27362">
        <ele>51.6</ele>
        <time>2020-09-08T16:27:08Z</time>
      </trkpt>
      <trkpt lat="44.50162" lon="-0.27362">
        <ele>51.7</ele>
        <time>2020-09-08T16:27:10Z</time>
      </trkpt>
      <trkpt lat="44.50161" lon="-0.27363">
        <ele>51.8</ele>
        <time>2020-09-08T16:27:11Z</time>
      </trkpt>
      <trkpt lat="44.5016" lon="-0.27363">
        <ele>51.8</ele>
        <time>2020-09-08T16:27:12Z</time>
      </trkpt>
      <trkpt lat="44.50159" lon="-0.27364">
        <ele>51.9</ele>
        <time>2020-09-08T16:27:13Z</time>
      </trkpt>
      <trkpt lat="44.50158" lon="-0.27364">
        <ele>51.9</ele>
        <time>2020-09-08T16:27:14Z</time>
      </trkpt>
      <trkpt lat="44.50157" lon="-0.27365">
        <ele>52</ele>
        <time>2020-09-08T16:27:16Z</time>
      </trkpt>
      <trkpt lat="44.50156" lon="-0.27366">
        <ele>52.1</ele>
        <time>2020-09-08T16:27:17Z</time>
      </trkpt>
      <trkpt lat="44.50154" lon="-0.27367">
        <ele>52.2</ele>
        <time>2020-09-08T16:27:18Z</time>
      </trkpt>
      <trkpt lat="44.50152" lon="-0.2737">
        <ele>52.3</ele>
        <time>2020-09-08T16:27:20Z</time>
      </trkpt>
      <trkpt lat="44.50151" lon="-0.27371">
        <ele>52.4</ele>
        <time>2020-09-08T16:27:21Z</time>
      </trkpt>
      <trkpt lat="44.5015" lon="-0.27372">
        <ele>52.4</ele>
        <time>2020-09-08T16:27:22Z</time>
      </trkpt>
      <trkpt lat="44.50149" lon="-0.27373">
        <ele>52.5</ele>
        <time>2020-09-08T16:27:23Z</time>
      </trkpt>
      <trkpt lat="44.50148" lon="-0.27374">
        <ele>52.5</ele>
        <time>2020-09-08T16:27:25Z</time>
      </trkpt>
      <trkpt lat="44.50147" lon="-0.27376">
        <ele>52.6</ele>
        <time>2020-09-08T16:27:26Z</time>
      </trkpt>
      <trkpt lat="44.50147" lon="-0.27377">
        <ele>52.7</ele>
        <time>2020-09-08T16:27:27Z</time>
      </trkpt>
      <trkpt lat="44.50146" lon="-0.27378">
        <ele>52.7</ele>
        <time>2020-09-08T16:27:28Z</time>
      </trkpt>
      <trkpt lat="44.50145" lon="-0.27381">
        <ele>52.8</ele>
        <time>2020-09-08T16:27:29Z</time>
      </trkpt>
      <trkpt lat="44.50145" lon="-0.27382">
        <ele>52.9</ele>
        <time>2020-09-08T16:27:30Z</time>
      </trkpt>
      <trkpt lat="44.50145" lon="-0.27384">
        <ele>52.9</ele>
        <time>2020-09-08T16:27:31Z</time>
      </trkpt>
      <trkpt lat="44.50144" lon="-0.27385">
        <ele>53</ele>
        <time>2020-09-08T16:27:33Z</time>
      </trkpt>
      <trkpt lat="44.50143" lon="-0.27387">
        <ele>53.1</ele>
        <time>2020-09-08T16:27:34Z</time>
      </trkpt>
      <trkpt lat="44.50143" lon="-0.27389">
        <ele>53.1</ele>
        <time>2020-09-08T16:27:35Z</time>
      </trkpt>
      <trkpt lat="44.50143" lon="-0.27391">
        <ele>53.2</ele>
        <time>2020-09-08T16:27:36Z</time>
      </trkpt>
      <trkpt lat="44.50142" lon="-0.27394">
        <ele>53.3</ele>
        <time>2020-09-08T16:27:38Z</time>
      </trkpt>
      <trkpt lat="44.50141" lon="-0.27395">
        <ele>53.7</ele>
        <time>2020-09-08T16:27:39Z</time>
      </trkpt>
      <trkpt lat="44.50141" lon="-0.27396">
        <ele>53.7</ele>
        <time>2020-09-08T16:27:40Z</time>
      </trkpt>
      <trkpt lat="44.5014" lon="-0.27398">
        <ele>53.7</ele>
        <time>2020-09-08T16:27:41Z</time>
      </trkpt>
      <trkpt lat="44.5014" lon="-0.27399">
        <ele>53.7</ele>
        <time>2020-09-08T16:27:42Z</time>
      </trkpt>
      <trkpt lat="44.50139" lon="-0.27401">
        <ele>53.8</ele>
        <time>2020-09-08T16:27:44Z</time>
      </trkpt>
      <trkpt lat="44.50137" lon="-0.27403">
        <ele>53.8</ele>
        <time>2020-09-08T16:27:45Z</time>
      </trkpt>
      <trkpt lat="44.50136" lon="-0.27404">
        <ele>53.8</ele>
        <time>2020-09-08T16:27:46Z</time>
      </trkpt>
      <trkpt lat="44.50136" lon="-0.27404">
        <ele>53.9</ele>
        <time>2020-09-08T16:27:47Z</time>
      </trkpt>
      <trkpt lat="44.50134" lon="-0.27406">
        <ele>53.9</ele>
        <time>2020-09-08T16:27:48Z</time>
      </trkpt>
      <trkpt lat="44.50133" lon="-0.27406">
        <ele>53.9</ele>
        <time>2020-09-08T16:27:49Z</time>
      </trkpt>
      <trkpt lat="44.50132" lon="-0.27407">
        <ele>53.9</ele>
        <time>2020-09-08T16:27:50Z</time>
      </trkpt>
      <trkpt lat="44.5013" lon="-0.27407">
        <ele>54</ele>
        <time>2020-09-08T16:27:52Z</time>
      </trkpt>
      <trkpt lat="44.50129" lon="-0.27407">
        <ele>54</ele>
        <time>2020-09-08T16:27:53Z</time>
      </trkpt>
      <trkpt lat="44.50128" lon="-0.27407">
        <ele>54</ele>
        <time>2020-09-08T16:27:54Z</time>
      </trkpt>
      <trkpt lat="44.50126" lon="-0.27408">
        <ele>54.1</ele>
        <time>2020-09-08T16:27:56Z</time>
      </trkpt>
      <trkpt lat="44.50125" lon="-0.27408">
        <ele>54.1</ele>
        <time>2020-09-08T16:27:57Z</time>
      </trkpt>
      <trkpt lat="44.50123" lon="-0.27408">
        <ele>54.1</ele>
        <time>2020-09-08T16:27:58Z</time>
      </trkpt>
      <trkpt lat="44.50122" lon="-0.27408">
        <ele>54.2</ele>
        <time>2020-09-08T16:27:59Z</time>
      </trkpt>
      <trkpt lat="44.50121" lon="-0.27408">
        <ele>54.2</ele>
        <time>2020-09-08T16:28:00Z</time>
      </trkpt>
      <trkpt lat="44.50119" lon="-0.27408">
        <ele>54.2</ele>
        <time>2020-09-08T16:28:02Z</time>
      </trkpt>
      <trkpt lat="44.50117" lon="-0.27408">
        <ele>54.3</ele>
        <time>2020-09-08T16:28:03Z</time>
      </trkpt>
      <trkpt lat="44.50116" lon="-0.27408">
        <ele>54.3</ele>
        <time>2020-09-08T16:28:04Z</time>
      </trkpt>
      <trkpt lat="44.50115" lon="-0.27407">
        <ele>54.3</ele>
        <time>2020-09-08T16:28:05Z</time>
      </trkpt>
      <trkpt lat="44.50113" lon="-0.27407">
        <ele>54.4</ele>
        <time>2020-09-08T16:28:07Z</time>
      </trkpt>
      <trkpt lat="44.50111" lon="-0.27406">
        <ele>54.4</ele>
        <time>2020-09-08T16:28:08Z</time>
      </trkpt>
      <trkpt lat="44.5011" lon="-0.27405">
        <ele>54.4</ele>
        <time>2020-09-08T16:28:09Z</time>
      </trkpt>
      <trkpt lat="44.50108" lon="-0.27404">
        <ele>54.5</ele>
        <time>2020-09-08T16:28:11Z</time>
      </trkpt>
      <trkpt lat="44.50106" lon="-0.27404">
        <ele>54.5</ele>
        <time>2020-09-08T16:28:12Z</time>
      </trkpt>
      <trkpt lat="44.50105" lon="-0.27403">
        <ele>54.6</ele>
        <time>2020-09-08T16:28:13Z</time>
      </trkpt>
      <trkpt lat="44.50103" lon="-0.27403">
        <ele>54.6</ele>
        <time>2020-09-08T16:28:14Z</time>
      </trkpt>
      <trkpt lat="44.50102" lon="-0.27403">
        <ele>54.6</ele>
        <time>2020-09-08T16:28:15Z</time>
      </trkpt>
      <trkpt lat="44.501" lon="-0.27403">
        <ele>54.7</ele>
        <time>2020-09-08T16:28:17Z</time>
      </trkpt>
      <trkpt lat="44.50098" lon="-0.27403">
        <ele>54.7</ele>
        <time>2020-09-08T16:28:19Z</time>
      </trkpt>
      <trkpt lat="44.50097" lon="-0.27403">
        <ele>54.7</ele>
        <time>2020-09-08T16:28:20Z</time>
      </trkpt>
      <trkpt lat="44.50095" lon="-0.27403">
        <ele>54.8</ele>
        <time>2020-09-08T16:28:21Z</time>
      </trkpt>
      <trkpt lat="44.50093" lon="-0.27401">
        <ele>54.8</ele>
        <time>2020-09-08T16:28:22Z</time>
      </trkpt>
      <trkpt lat="44.50092" lon="-0.27401">
        <ele>54.8</ele>
        <time>2020-09-08T16:28:24Z</time>
      </trkpt>
      <trkpt lat="44.50091" lon="-0.274">
        <ele>54.9</ele>
        <time>2020-09-08T16:28:25Z</time>
      </trkpt>
      <trkpt lat="44.50091" lon="-0.27399">
        <ele>54.9</ele>
        <time>2020-09-08T16:28:26Z</time>
      </trkpt>
      <trkpt lat="44.50089" lon="-0.27398">
        <ele>54.9</ele>
        <time>2020-09-08T16:28:27Z</time>
      </trkpt>
      <trkpt lat="44.50087" lon="-0.27397">
        <ele>55</ele>
        <time>2020-09-08T16:28:29Z</time>
      </trkpt>
      <trkpt lat="44.50086" lon="-0.27397">
        <ele>55</ele>
        <time>2020-09-08T16:28:30Z</time>
      </trkpt>
      <trkpt lat="44.50085" lon="-0.27397">
        <ele>55</ele>
        <time>2020-09-08T16:28:31Z</time>
      </trkpt>
      <trkpt lat="44.50083" lon="-0.27396">
        <ele>55</ele>
        <time>2020-09-08T16:28:32Z</time>
      </trkpt>
      <trkpt lat="44.50079" lon="-0.27396">
        <ele>55.1</ele>
        <time>2020-09-08T16:28:34Z</time>
      </trkpt>
      <trkpt lat="44.50078" lon="-0.27396">
        <ele>55.2</ele>
        <time>2020-09-08T16:28:35Z</time>
      </trkpt>
      <trkpt lat="44.50076" lon="-0.27396">
        <ele>55.2</ele>
        <time>2020-09-08T16:28:37Z</time>
      </trkpt>
      <trkpt lat="44.50074" lon="-0.27396">
        <ele>55.2</ele>
        <time>2020-09-08T16:28:38Z</time>
      </trkpt>
      <trkpt lat="44.50073" lon="-0.27396">
        <ele>55.3</ele>
        <time>2020-09-08T16:28:39Z</time>
      </trkpt>
      <trkpt lat="44.50072" lon="-0.27397">
        <ele>55.3</ele>
        <time>2020-09-08T16:28:40Z</time>
      </trkpt>
      <trkpt lat="44.50071" lon="-0.27397">
        <ele>55.3</ele>
        <time>2020-09-08T16:28:41Z</time>
      </trkpt>
      <trkpt lat="44.5007" lon="-0.27398">
        <ele>55.3</ele>
        <time>2020-09-08T16:28:43Z</time>
      </trkpt>
      <trkpt lat="44.5007" lon="-0.27399">
        <ele>55.4</ele>
        <time>2020-09-08T16:28:44Z</time>
      </trkpt>
      <trkpt lat="44.5007" lon="-0.274">
        <ele>55.4</ele>
        <time>2020-09-08T16:28:45Z</time>
      </trkpt>
      <trkpt lat="44.50071" lon="-0.27401">
        <ele>55.4</ele>
        <time>2020-09-08T16:28:46Z</time>
      </trkpt>
      <trkpt lat="44.50071" lon="-0.27402">
        <ele>55.4</ele>
        <time>2020-09-08T16:28:48Z</time>
      </trkpt>
      <trkpt lat="44.5007" lon="-0.27402">
        <ele>55.4</ele>
        <time>2020-09-08T16:28:50Z</time>
      </trkpt>
      <trkpt lat="44.50069" lon="-0.27402">
        <ele>55.4</ele>
        <time>2020-09-08T16:28:51Z</time>
      </trkpt>
      <trkpt lat="44.50068" lon="-0.27402">
        <ele>55.5</ele>
        <time>2020-09-08T16:28:52Z</time>
      </trkpt>
      <trkpt lat="44.50066" lon="-0.27402">
        <ele>55.5</ele>
        <time>2020-09-08T16:28:53Z</time>
      </trkpt>
      <trkpt lat="44.50065" lon="-0.27401">
        <ele>55.5</ele>
        <time>2020-09-08T16:28:54Z</time>
      </trkpt>
      <trkpt lat="44.50064" lon="-0.27401">
        <ele>55.6</ele>
        <time>2020-09-08T16:28:55Z</time>
      </trkpt>
      <trkpt lat="44.50061" lon="-0.27399">
        <ele>55.6</ele>
        <time>2020-09-08T16:28:56Z</time>
      </trkpt>
      <trkpt lat="44.5006" lon="-0.27399">
        <ele>55.6</ele>
        <time>2020-09-08T16:28:57Z</time>
      </trkpt>
      <trkpt lat="44.50058" lon="-0.27399">
        <ele>55.7</ele>
        <time>2020-09-08T16:28:59Z</time>
      </trkpt>
      <trkpt lat="44.50057" lon="-0.27399">
        <ele>55.7</ele>
        <time>2020-09-08T16:29:00Z</time>
      </trkpt>
      <trkpt lat="44.50055" lon="-0.27397">
        <ele>55.8</ele>
        <time>2020-09-08T16:29:01Z</time>
      </trkpt>
      <trkpt lat="44.50053" lon="-0.27397">
        <ele>55.8</ele>
        <time>2020-09-08T16:29:02Z</time>
      </trkpt>
      <trkpt lat="44.50052" lon="-0.27397">
        <ele>55.8</ele>
        <time>2020-09-08T16:29:04Z</time>
      </trkpt>
      <trkpt lat="44.5005" lon="-0.27396">
        <ele>55.9</ele>
        <time>2020-09-08T16:29:05Z</time>
      </trkpt>
      <trkpt lat="44.5005" lon="-0.27398">
        <ele>55.9</ele>
        <time>2020-09-08T16:29:06Z</time>
      </trkpt>
      <trkpt lat="44.50048" lon="-0.27398">
        <ele>55.9</ele>
        <time>2020-09-08T16:29:07Z</time>
      </trkpt>
      <trkpt lat="44.50046" lon="-0.27398">
        <ele>56</ele>
        <time>2020-09-08T16:29:09Z</time>
      </trkpt>
      <trkpt lat="44.50044" lon="-0.27398">
        <ele>56</ele>
        <time>2020-09-08T16:29:10Z</time>
      </trkpt>
      <trkpt lat="44.50043" lon="-0.27398">
        <ele>56.1</ele>
        <time>2020-09-08T16:29:11Z</time>
      </trkpt>
      <trkpt lat="44.50042" lon="-0.27398">
        <ele>56.1</ele>
        <time>2020-09-08T16:29:12Z</time>
      </trkpt>
      <trkpt lat="44.50039" lon="-0.27398">
        <ele>56.1</ele>
        <time>2020-09-08T16:29:14Z</time>
      </trkpt>
      <trkpt lat="44.50038" lon="-0.27398">
        <ele>56.2</ele>
        <time>2020-09-08T16:29:15Z</time>
      </trkpt>
      <trkpt lat="44.50038" lon="-0.27398">
        <ele>56.2</ele>
        <time>2020-09-08T16:29:16Z</time>
      </trkpt>
      <trkpt lat="44.50038" lon="-0.27397">
        <ele>56.2</ele>
        <time>2020-09-08T16:29:17Z</time>
      </trkpt>
      <trkpt lat="44.50036" lon="-0.27397">
        <ele>56.2</ele>
        <time>2020-09-08T16:29:18Z</time>
      </trkpt>
      <trkpt lat="44.50034" lon="-0.27397">
        <ele>56.2</ele>
        <time>2020-09-08T16:29:20Z</time>
      </trkpt>
      <trkpt lat="44.50033" lon="-0.27397">
        <ele>56.3</ele>
        <time>2020-09-08T16:29:21Z</time>
      </trkpt>
      <trkpt lat="44.50032" lon="-0.27398">
        <ele>56.3</ele>
        <time>2020-09-08T16:29:22Z</time>
      </trkpt>
      <trkpt lat="44.50032" lon="-0.27398">
        <ele>56.3</ele>
        <time>2020-09-08T16:29:23Z</time>
      </trkpt>
      <trkpt lat="44.5003" lon="-0.27399">
        <ele>56.3</ele>
        <time>2020-09-08T16:29:24Z</time>
      </trkpt>
      <trkpt lat="44.50029" lon="-0.27399">
        <ele>56.4</ele>
        <time>2020-09-08T16:29:25Z</time>
      </trkpt>
      <trkpt lat="44.50027" lon="-0.274">
        <ele>56.4</ele>
        <time>2020-09-08T16:29:27Z</time>
      </trkpt>
      <trkpt lat="44.50025" lon="-0.27401">
        <ele>56.5</ele>
        <time>2020-09-08T16:29:28Z</time>
      </trkpt>
      <trkpt lat="44.50024" lon="-0.27402">
        <ele>56.5</ele>
        <time>2020-09-08T16:29:29Z</time>
      </trkpt>
      <trkpt lat="44.50023" lon="-0.27402">
        <ele>56.5</ele>
        <time>2020-09-08T16:29:30Z</time>
      </trkpt>
      <trkpt lat="44.50022" lon="-0.27401">
        <ele>56.5</ele>
        <time>2020-09-08T16:29:31Z</time>
      </trkpt>
      <trkpt lat="44.5002" lon="-0.27401">
        <ele>56.6</ele>
        <time>2020-09-08T16:29:33Z</time>
      </trkpt>
      <trkpt lat="44.50019" lon="-0.27401">
        <ele>56.6</ele>
        <time>2020-09-08T16:29:34Z</time>
      </trkpt>
      <trkpt lat="44.50017" lon="-0.274">
        <ele>56.6</ele>
        <time>2020-09-08T16:29:35Z</time>
      </trkpt>
      <trkpt lat="44.50016" lon="-0.274">
        <ele>56.7</ele>
        <time>2020-09-08T16:29:36Z</time>
      </trkpt>
      <trkpt lat="44.50013" lon="-0.274">
        <ele>56.7</ele>
        <time>2020-09-08T16:29:38Z</time>
      </trkpt>
      <trkpt lat="44.50013" lon="-0.274">
        <ele>56.7</ele>
        <time>2020-09-08T16:29:39Z</time>
      </trkpt>
      <trkpt lat="44.50011" lon="-0.27399">
        <ele>56.8</ele>
        <time>2020-09-08T16:29:40Z</time>
      </trkpt>
      <trkpt lat="44.50012" lon="-0.27398">
        <ele>56.8</ele>
        <time>2020-09-08T16:29:41Z</time>
      </trkpt>
      <trkpt lat="44.50011" lon="-0.27398">
        <ele>56.8</ele>
        <time>2020-09-08T16:29:42Z</time>
      </trkpt>
      <trkpt lat="44.50009" lon="-0.27398">
        <ele>56.8</ele>
        <time>2020-09-08T16:29:43Z</time>
      </trkpt>
      <trkpt lat="44.50008" lon="-0.27398">
        <ele>56.9</ele>
        <time>2020-09-08T16:29:45Z</time>
      </trkpt>
      <trkpt lat="44.50006" lon="-0.27397">
        <ele>56.9</ele>
        <time>2020-09-08T16:29:46Z</time>
      </trkpt>
      <trkpt lat="44.50005" lon="-0.27397">
        <ele>57</ele>
        <time>2020-09-08T16:29:47Z</time>
      </trkpt>
      <trkpt lat="44.50003" lon="-0.27396">
        <ele>57</ele>
        <time>2020-09-08T16:29:49Z</time>
      </trkpt>
      <trkpt lat="44.50002" lon="-0.27396">
        <ele>57</ele>
        <time>2020-09-08T16:29:50Z</time>
      </trkpt>
      <trkpt lat="44.50001" lon="-0.27396">
        <ele>57</ele>
        <time>2020-09-08T16:29:51Z</time>
      </trkpt>
      <trkpt lat="44.5" lon="-0.27396">
        <ele>57.1</ele>
        <time>2020-09-08T16:29:52Z</time>
      </trkpt>
      <trkpt lat="44.49999" lon="-0.27396">
        <ele>57.1</ele>
        <time>2020-09-08T16:29:53Z</time>
      </trkpt>
      <trkpt lat="44.49997" lon="-0.27396">
        <ele>57.1</ele>
        <time>2020-09-08T16:29:54Z</time>
      </trkpt>
      <trkpt lat="44.49996" lon="-0.27396">
        <ele>57.1</ele>
        <time>2020-09-08T16:29:55Z</time>
      </trkpt>
      <trkpt lat="44.49994" lon="-0.27395">
        <ele>57.2</ele>
        <time>2020-09-08T16:29:57Z</time>
      </trkpt>
      <trkpt lat="44.49993" lon="-0.27395">
        <ele>57.2</ele>
        <time>2020-09-08T16:29:58Z</time>
      </trkpt>
      <trkpt lat="44.49992" lon="-0.27395">
        <ele>57.2</ele>
        <time>2020-09-08T16:29:59Z</time>
      </trkpt>
      <trkpt lat="44.49992" lon="-0.27396">
        <ele>57.2</ele>
        <time>2020-09-08T16:30:00Z</time>
      </trkpt>
      <trkpt lat="44.4999" lon="-0.27396">
        <ele>57.3</ele>
        <time>2020-09-08T16:30:01Z</time>
      </trkpt>
      <trkpt lat="44.49988" lon="-0.27396">
        <ele>57.3</ele>
        <time>2020-09-08T16:30:03Z</time>
      </trkpt>
      <trkpt lat="44.49987" lon="-0.27396">
        <ele>57.3</ele>
        <time>2020-09-08T16:30:04Z</time>
      </trkpt>
      <trkpt lat="44.49987" lon="-0.27397">
        <ele>57.3</ele>
        <time>2020-09-08T16:30:05Z</time>
      </trkpt>
      <trkpt lat="44.49985" lon="-0.27398">
        <ele>57.4</ele>
        <time>2020-09-08T16:30:07Z</time>
      </trkpt>
      <trkpt lat="44.49984" lon="-0.27398">
        <ele>57.4</ele>
        <time>2020-09-08T16:30:08Z</time>
      </trkpt>
      <trkpt lat="44.49983" lon="-0.27398">
        <ele>57.4</ele>
        <time>2020-09-08T16:30:09Z</time>
      </trkpt>
      <trkpt lat="44.49982" lon="-0.27399">
        <ele>57.5</ele>
        <time>2020-09-08T16:30:10Z</time>
      </trkpt>
      <trkpt lat="44.4998" lon="-0.274">
        <ele>57.5</ele>
        <time>2020-09-08T16:30:11Z</time>
      </trkpt>
      <trkpt lat="44.49979" lon="-0.274">
        <ele>57.5</ele>
        <time>2020-09-08T16:30:13Z</time>
      </trkpt>
      <trkpt lat="44.49978" lon="-0.27401">
        <ele>57.6</ele>
        <time>2020-09-08T16:30:14Z</time>
      </trkpt>
      <trkpt lat="44.49976" lon="-0.27401">
        <ele>57.6</ele>
        <time>2020-09-08T16:30:15Z</time>
      </trkpt>
      <trkpt lat="44.49976" lon="-0.27402">
        <ele>57.6</ele>
        <time>2020-09-08T16:30:17Z</time>
      </trkpt>
      <trkpt lat="44.49974" lon="-0.27402">
        <ele>57.6</ele>
        <time>2020-09-08T16:30:18Z</time>
      </trkpt>
      <trkpt lat="44.49973" lon="-0.27402">
        <ele>57.7</ele>
        <time>2020-09-08T16:30:19Z</time>
      </trkpt>
      <trkpt lat="44.49972" lon="-0.27403">
        <ele>57.7</ele>
        <time>2020-09-08T16:30:20Z</time>
      </trkpt>
      <trkpt lat="44.4997" lon="-0.27403">
        <ele>57.7</ele>
        <time>2020-09-08T16:30:22Z</time>
      </trkpt>
      <trkpt lat="44.49969" lon="-0.27403">
        <ele>57.8</ele>
        <time>2020-09-08T16:30:23Z</time>
      </trkpt>
      <trkpt lat="44.49967" lon="-0.27404">
        <ele>57.8</ele>
        <time>2020-09-08T16:30:24Z</time>
      </trkpt>
      <trkpt lat="44.49966" lon="-0.27404">
        <ele>57.8</ele>
        <time>2020-09-08T16:30:25Z</time>
      </trkpt>
      <trkpt lat="44.49965" lon="-0.27404">
        <ele>57.8</ele>
        <time>2020-09-08T16:30:26Z</time>
      </trkpt>
      <trkpt lat="44.49964" lon="-0.27405">
        <ele>57.9</ele>
        <time>2020-09-08T16:30:28Z</time>
      </trkpt>
      <trkpt lat="44.49963" lon="-0.27406">
        <ele>57.9</ele>
        <time>2020-09-08T16:30:29Z</time>
      </trkpt>
      <trkpt lat="44.49961" lon="-0.27407">
        <ele>57.9</ele>
        <time>2020-09-08T16:30:30Z</time>
      </trkpt>
      <trkpt lat="44.4996" lon="-0.27408">
        <ele>58</ele>
        <time>2020-09-08T16:30:32Z</time>
      </trkpt>
      <trkpt lat="44.49958" lon="-0.27409">
        <ele>58.1</ele>
        <time>2020-09-08T16:30:33Z</time>
      </trkpt>
      <trkpt lat="44.49957" lon="-0.2741">
        <ele>58.2</ele>
        <time>2020-09-08T16:30:34Z</time>
      </trkpt>
      <trkpt lat="44.49954" lon="-0.27412">
        <ele>58.3</ele>
        <time>2020-09-08T16:30:35Z</time>
      </trkpt>
      <trkpt lat="44.49954" lon="-0.27413">
        <ele>58.3</ele>
        <time>2020-09-08T16:30:37Z</time>
      </trkpt>
      <trkpt lat="44.49953" lon="-0.27414">
        <ele>58.4</ele>
        <time>2020-09-08T16:30:38Z</time>
      </trkpt>
      <trkpt lat="44.49951" lon="-0.27415">
        <ele>58.4</ele>
        <time>2020-09-08T16:30:39Z</time>
      </trkpt>
      <trkpt lat="44.4995" lon="-0.27415">
        <ele>58.5</ele>
        <time>2020-09-08T16:30:40Z</time>
      </trkpt>
      <trkpt lat="44.49949" lon="-0.27416">
        <ele>58.5</ele>
        <time>2020-09-08T16:30:41Z</time>
      </trkpt>
      <trkpt lat="44.49948" lon="-0.27417">
        <ele>58.6</ele>
        <time>2020-09-08T16:30:42Z</time>
      </trkpt>
      <trkpt lat="44.49947" lon="-0.27418">
        <ele>58.7</ele>
        <time>2020-09-08T16:30:44Z</time>
      </trkpt>
      <trkpt lat="44.49946" lon="-0.27418">
        <ele>58.7</ele>
        <time>2020-09-08T16:30:45Z</time>
      </trkpt>
      <trkpt lat="44.49945" lon="-0.27419">
        <ele>58.8</ele>
        <time>2020-09-08T16:30:46Z</time>
      </trkpt>
      <trkpt lat="44.49944" lon="-0.2742">
        <ele>58.8</ele>
        <time>2020-09-08T16:30:47Z</time>
      </trkpt>
      <trkpt lat="44.49942" lon="-0.27422">
        <ele>58.9</ele>
        <time>2020-09-08T16:30:49Z</time>
      </trkpt>
      <trkpt lat="44.49942" lon="-0.27423">
        <ele>58.9</ele>
        <time>2020-09-08T16:30:50Z</time>
      </trkpt>
      <trkpt lat="44.49941" lon="-0.27423">
        <ele>59</ele>
        <time>2020-09-08T16:30:51Z</time>
      </trkpt>
      <trkpt lat="44.4994" lon="-0.27424">
        <ele>59</ele>
        <time>2020-09-08T16:30:52Z</time>
      </trkpt>
      <trkpt lat="44.49939" lon="-0.27425">
        <ele>59.1</ele>
        <time>2020-09-08T16:30:53Z</time>
      </trkpt>
      <trkpt lat="44.49938" lon="-0.27426">
        <ele>59.1</ele>
        <time>2020-09-08T16:30:54Z</time>
      </trkpt>
      <trkpt lat="44.49937" lon="-0.27428">
        <ele>59.2</ele>
        <time>2020-09-08T16:30:55Z</time>
      </trkpt>
      <trkpt lat="44.49937" lon="-0.27428">
        <ele>59.2</ele>
        <time>2020-09-08T16:30:56Z</time>
      </trkpt>
      <trkpt lat="44.49936" lon="-0.27429">
        <ele>59.2</ele>
        <time>2020-09-08T16:30:57Z</time>
      </trkpt>
      <trkpt lat="44.49935" lon="-0.2743">
        <ele>59.3</ele>
        <time>2020-09-08T16:30:58Z</time>
      </trkpt>
      <trkpt lat="44.49934" lon="-0.27431">
        <ele>59.3</ele>
        <time>2020-09-08T16:30:59Z</time>
      </trkpt>
      <trkpt lat="44.49933" lon="-0.27433">
        <ele>59.4</ele>
        <time>2020-09-08T16:31:00Z</time>
      </trkpt>
      <trkpt lat="44.49932" lon="-0.27434">
        <ele>59.5</ele>
        <time>2020-09-08T16:31:02Z</time>
      </trkpt>
      <trkpt lat="44.49931" lon="-0.27435">
        <ele>59.5</ele>
        <time>2020-09-08T16:31:03Z</time>
      </trkpt>
      <trkpt lat="44.49929" lon="-0.27436">
        <ele>59.6</ele>
        <time>2020-09-08T16:31:04Z</time>
      </trkpt>
      <trkpt lat="44.49928" lon="-0.27437">
        <ele>59.7</ele>
        <time>2020-09-08T16:31:05Z</time>
      </trkpt>
      <trkpt lat="44.49926" lon="-0.27439">
        <ele>59.7</ele>
        <time>2020-09-08T16:31:07Z</time>
      </trkpt>
      <trkpt lat="44.49925" lon="-0.2744">
        <ele>59.8</ele>
        <time>2020-09-08T16:31:08Z</time>
      </trkpt>
      <trkpt lat="44.49924" lon="-0.27441">
        <ele>59.9</ele>
        <time>2020-09-08T16:31:09Z</time>
      </trkpt>
      <trkpt lat="44.49923" lon="-0.27443">
        <ele>59.9</ele>
        <time>2020-09-08T16:31:11Z</time>
      </trkpt>
      <trkpt lat="44.49922" lon="-0.27444">
        <ele>60</ele>
        <time>2020-09-08T16:31:12Z</time>
      </trkpt>
      <trkpt lat="44.49921" lon="-0.27446">
        <ele>60.1</ele>
        <time>2020-09-08T16:31:14Z</time>
      </trkpt>
      <trkpt lat="44.4992" lon="-0.27447">
        <ele>60.1</ele>
        <time>2020-09-08T16:31:15Z</time>
      </trkpt>
      <trkpt lat="44.49919" lon="-0.27449">
        <ele>60.2</ele>
        <time>2020-09-08T16:31:17Z</time>
      </trkpt>
      <trkpt lat="44.49918" lon="-0.27451">
        <ele>60.3</ele>
        <time>2020-09-08T16:31:18Z</time>
      </trkpt>
      <trkpt lat="44.49917" lon="-0.27453">
        <ele>60.3</ele>
        <time>2020-09-08T16:31:19Z</time>
      </trkpt>
      <trkpt lat="44.49916" lon="-0.27457">
        <ele>60.5</ele>
        <time>2020-09-08T16:31:21Z</time>
      </trkpt>
      <trkpt lat="44.49917" lon="-0.27461">
        <ele>60.6</ele>
        <time>2020-09-08T16:31:22Z</time>
      </trkpt>
      <trkpt lat="44.49917" lon="-0.27466">
        <ele>60.7</ele>
        <time>2020-09-08T16:31:23Z</time>
      </trkpt>
      <trkpt lat="44.49917" lon="-0.2747">
        <ele>60.9</ele>
        <time>2020-09-08T16:31:24Z</time>
      </trkpt>
      <trkpt lat="44.49917" lon="-0.27471">
        <ele>60.9</ele>
        <time>2020-09-08T16:31:25Z</time>
      </trkpt>
      <trkpt lat="44.49917" lon="-0.27473">
        <ele>61</ele>
        <time>2020-09-08T16:31:27Z</time>
      </trkpt>
      <trkpt lat="44.49916" lon="-0.27475">
        <ele>61</ele>
        <time>2020-09-08T16:31:28Z</time>
      </trkpt>
      <trkpt lat="44.49915" lon="-0.27476">
        <ele>61.1</ele>
        <time>2020-09-08T16:31:29Z</time>
      </trkpt>
      <trkpt lat="44.49914" lon="-0.27477">
        <ele>61.1</ele>
        <time>2020-09-08T16:31:30Z</time>
      </trkpt>
      <trkpt lat="44.49913" lon="-0.27478">
        <ele>61.2</ele>
        <time>2020-09-08T16:31:31Z</time>
      </trkpt>
      <trkpt lat="44.49911" lon="-0.27478">
        <ele>61.3</ele>
        <time>2020-09-08T16:31:33Z</time>
      </trkpt>
      <trkpt lat="44.49911" lon="-0.27479">
        <ele>61.3</ele>
        <time>2020-09-08T16:31:34Z</time>
      </trkpt>
      <trkpt lat="44.4991" lon="-0.27479">
        <ele>61.3</ele>
        <time>2020-09-08T16:31:35Z</time>
      </trkpt>
      <trkpt lat="44.49908" lon="-0.27479">
        <ele>61.4</ele>
        <time>2020-09-08T16:31:37Z</time>
      </trkpt>
      <trkpt lat="44.49906" lon="-0.2748">
        <ele>61.5</ele>
        <time>2020-09-08T16:31:38Z</time>
      </trkpt>
      <trkpt lat="44.49905" lon="-0.27479">
        <ele>61.5</ele>
        <time>2020-09-08T16:31:40Z</time>
      </trkpt>
      <trkpt lat="44.49905" lon="-0.2748">
        <ele>61.6</ele>
        <time>2020-09-08T16:31:41Z</time>
      </trkpt>
      <trkpt lat="44.49904" lon="-0.27481">
        <ele>61.6</ele>
        <time>2020-09-08T16:31:42Z</time>
      </trkpt>
      <trkpt lat="44.49903" lon="-0.27482">
        <ele>61.7</ele>
        <time>2020-09-08T16:31:44Z</time>
      </trkpt>
      <trkpt lat="44.49901" lon="-0.27483">
        <ele>61.8</ele>
        <time>2020-09-08T16:31:45Z</time>
      </trkpt>
      <trkpt lat="44.499" lon="-0.27483">
        <ele>61.8</ele>
        <time>2020-09-08T16:31:46Z</time>
      </trkpt>
      <trkpt lat="44.499" lon="-0.27483">
        <ele>61.8</ele>
        <time>2020-09-08T16:31:48Z</time>
      </trkpt>
      <trkpt lat="44.49899" lon="-0.27483">
        <ele>61.8</ele>
        <time>2020-09-08T16:31:49Z</time>
      </trkpt>
      <trkpt lat="44.49898" lon="-0.27484">
        <ele>61.9</ele>
        <time>2020-09-08T16:31:50Z</time>
      </trkpt>
      <trkpt lat="44.49896" lon="-0.27484">
        <ele>62</ele>
        <time>2020-09-08T16:31:51Z</time>
      </trkpt>
      <trkpt lat="44.49894" lon="-0.27483">
        <ele>62</ele>
        <time>2020-09-08T16:31:52Z</time>
      </trkpt>
      <trkpt lat="44.49892" lon="-0.27484">
        <ele>62.1</ele>
        <time>2020-09-08T16:31:54Z</time>
      </trkpt>
      <trkpt lat="44.49891" lon="-0.27484">
        <ele>62.2</ele>
        <time>2020-09-08T16:31:55Z</time>
      </trkpt>
      <trkpt lat="44.49889" lon="-0.27484">
        <ele>62.3</ele>
        <time>2020-09-08T16:31:56Z</time>
      </trkpt>
      <trkpt lat="44.49888" lon="-0.27483">
        <ele>62.4</ele>
        <time>2020-09-08T16:31:57Z</time>
      </trkpt>
      <trkpt lat="44.49886" lon="-0.27483">
        <ele>62.4</ele>
        <time>2020-09-08T16:31:58Z</time>
      </trkpt>
      <trkpt lat="44.49885" lon="-0.27483">
        <ele>62.6</ele>
        <time>2020-09-08T16:31:59Z</time>
      </trkpt>
      <trkpt lat="44.49884" lon="-0.27484">
        <ele>62.5</ele>
        <time>2020-09-08T16:32:00Z</time>
      </trkpt>
      <trkpt lat="44.49883" lon="-0.27483">
        <ele>62.4</ele>
        <time>2020-09-08T16:32:02Z</time>
      </trkpt>
      <trkpt lat="44.49881" lon="-0.27482">
        <ele>62.2</ele>
        <time>2020-09-08T16:32:03Z</time>
      </trkpt>
      <trkpt lat="44.49879" lon="-0.27479">
        <ele>61.8</ele>
        <time>2020-09-08T16:32:05Z</time>
      </trkpt>
      <trkpt lat="44.49879" lon="-0.27478">
        <ele>61.7</ele>
        <time>2020-09-08T16:32:06Z</time>
      </trkpt>
      <trkpt lat="44.49878" lon="-0.27476">
        <ele>61.4</ele>
        <time>2020-09-08T16:32:08Z</time>
      </trkpt>
      <trkpt lat="44.49877" lon="-0.27475">
        <ele>61.3</ele>
        <time>2020-09-08T16:32:09Z</time>
      </trkpt>
      <trkpt lat="44.49877" lon="-0.27473">
        <ele>61.1</ele>
        <time>2020-09-08T16:32:11Z</time>
      </trkpt>
      <trkpt lat="44.49876" lon="-0.27473">
        <ele>61</ele>
        <time>2020-09-08T16:32:12Z</time>
      </trkpt>
      <trkpt lat="44.49876" lon="-0.27472">
        <ele>60.9</ele>
        <time>2020-09-08T16:32:13Z</time>
      </trkpt>
      <trkpt lat="44.49876" lon="-0.27472">
        <ele>60.9</ele>
        <time>2020-09-08T16:32:14Z</time>
      </trkpt>
      <trkpt lat="44.49875" lon="-0.27472">
        <ele>60.8</ele>
        <time>2020-09-08T16:32:17Z</time>
      </trkpt>
      <trkpt lat="44.49875" lon="-0.27471">
        <ele>60.7</ele>
        <time>2020-09-08T16:32:18Z</time>
      </trkpt>
      <trkpt lat="44.49874" lon="-0.2747">
        <ele>60.7</ele>
        <time>2020-09-08T16:32:20Z</time>
      </trkpt>
      <trkpt lat="44.49873" lon="-0.27469">
        <ele>60.5</ele>
        <time>2020-09-08T16:32:21Z</time>
      </trkpt>
      <trkpt lat="44.49872" lon="-0.27467">
        <ele>60.2</ele>
        <time>2020-09-08T16:32:22Z</time>
      </trkpt>
      <trkpt lat="44.49871" lon="-0.27467">
        <ele>60</ele>
        <time>2020-09-08T16:32:23Z</time>
      </trkpt>
      <trkpt lat="44.4987" lon="-0.27466">
        <ele>59.9</ele>
        <time>2020-09-08T16:32:24Z</time>
      </trkpt>
      <trkpt lat="44.49868" lon="-0.27464">
        <ele>59.6</ele>
        <time>2020-09-08T16:32:26Z</time>
      </trkpt>
      <trkpt lat="44.49867" lon="-0.27463">
        <ele>59.4</ele>
        <time>2020-09-08T16:32:27Z</time>
      </trkpt>
      <trkpt lat="44.49866" lon="-0.27461">
        <ele>59.1</ele>
        <time>2020-09-08T16:32:29Z</time>
      </trkpt>
      <trkpt lat="44.49865" lon="-0.2746">
        <ele>58.9</ele>
        <time>2020-09-08T16:32:30Z</time>
      </trkpt>
      <trkpt lat="44.49865" lon="-0.27458">
        <ele>58.7</ele>
        <time>2020-09-08T16:32:31Z</time>
      </trkpt>
      <trkpt lat="44.49865" lon="-0.27456">
        <ele>58.4</ele>
        <time>2020-09-08T16:32:32Z</time>
      </trkpt>
      <trkpt lat="44.49864" lon="-0.27454">
        <ele>58.3</ele>
        <time>2020-09-08T16:32:33Z</time>
      </trkpt>
      <trkpt lat="44.49865" lon="-0.27453">
        <ele>58.1</ele>
        <time>2020-09-08T16:32:34Z</time>
      </trkpt>
      <trkpt lat="44.49865" lon="-0.27451">
        <ele>58</ele>
        <time>2020-09-08T16:32:36Z</time>
      </trkpt>
      <trkpt lat="44.49865" lon="-0.27447">
        <ele>57.6</ele>
        <time>2020-09-08T16:32:37Z</time>
      </trkpt>
      <trkpt lat="44.49865" lon="-0.27446">
        <ele>57.5</ele>
        <time>2020-09-08T16:32:38Z</time>
      </trkpt>
      <trkpt lat="44.49865" lon="-0.27443">
        <ele>57.2</ele>
        <time>2020-09-08T16:32:39Z</time>
      </trkpt>
      <trkpt lat="44.49864" lon="-0.2744">
        <ele>56.8</ele>
        <time>2020-09-08T16:32:41Z</time>
      </trkpt>
      <trkpt lat="44.49864" lon="-0.27438">
        <ele>56.6</ele>
        <time>2020-09-08T16:32:42Z</time>
      </trkpt>
      <trkpt lat="44.49864" lon="-0.27436">
        <ele>56.4</ele>
        <time>2020-09-08T16:32:43Z</time>
      </trkpt>
      <trkpt lat="44.49864" lon="-0.27434">
        <ele>56.1</ele>
        <time>2020-09-08T16:32:44Z</time>
      </trkpt>
      <trkpt lat="44.49864" lon="-0.27432">
        <ele>55.9</ele>
        <time>2020-09-08T16:32:45Z</time>
      </trkpt>
      <trkpt lat="44.49864" lon="-0.27428">
        <ele>55.4</ele>
        <time>2020-09-08T16:32:47Z</time>
      </trkpt>
      <trkpt lat="44.49864" lon="-0.27426">
        <ele>55.2</ele>
        <time>2020-09-08T16:32:48Z</time>
      </trkpt>
      <trkpt lat="44.49864" lon="-0.27425">
        <ele>55</ele>
        <time>2020-09-08T16:32:49Z</time>
      </trkpt>
      <trkpt lat="44.49864" lon="-0.27423">
        <ele>54.8</ele>
        <time>2020-09-08T16:32:50Z</time>
      </trkpt>
      <trkpt lat="44.49863" lon="-0.27418">
        <ele>54.3</ele>
        <time>2020-09-08T16:32:51Z</time>
      </trkpt>
      <trkpt lat="44.49863" lon="-0.27416">
        <ele>54</ele>
        <time>2020-09-08T16:32:52Z</time>
      </trkpt>
      <trkpt lat="44.49862" lon="-0.27414">
        <ele>53.8</ele>
        <time>2020-09-08T16:32:53Z</time>
      </trkpt>
      <trkpt lat="44.49862" lon="-0.27412">
        <ele>53.6</ele>
        <time>2020-09-08T16:32:54Z</time>
      </trkpt>
      <trkpt lat="44.49862" lon="-0.2741">
        <ele>53.3</ele>
        <time>2020-09-08T16:32:56Z</time>
      </trkpt>
      <trkpt lat="44.49861" lon="-0.27406">
        <ele>52.9</ele>
        <time>2020-09-08T16:32:57Z</time>
      </trkpt>
      <trkpt lat="44.49861" lon="-0.27405">
        <ele>52.7</ele>
        <time>2020-09-08T16:32:58Z</time>
      </trkpt>
      <trkpt lat="44.4986" lon="-0.27403">
        <ele>52.5</ele>
        <time>2020-09-08T16:33:00Z</time>
      </trkpt>
      <trkpt lat="44.49859" lon="-0.27401">
        <ele>52.2</ele>
        <time>2020-09-08T16:33:01Z</time>
      </trkpt>
      <trkpt lat="44.49859" lon="-0.274">
        <ele>52</ele>
        <time>2020-09-08T16:33:02Z</time>
      </trkpt>
      <trkpt lat="44.49858" lon="-0.27398">
        <ele>51.8</ele>
        <time>2020-09-08T16:33:03Z</time>
      </trkpt>
      <trkpt lat="44.49857" lon="-0.27396">
        <ele>52</ele>
        <time>2020-09-08T16:33:05Z</time>
      </trkpt>
      <trkpt lat="44.49857" lon="-0.27394">
        <ele>52</ele>
        <time>2020-09-08T16:33:06Z</time>
      </trkpt>
      <trkpt lat="44.49856" lon="-0.27393">
        <ele>52.1</ele>
        <time>2020-09-08T16:33:07Z</time>
      </trkpt>
      <trkpt lat="44.49856" lon="-0.27391">
        <ele>52.1</ele>
        <time>2020-09-08T16:33:08Z</time>
      </trkpt>
      <trkpt lat="44.49856" lon="-0.27389">
        <ele>52.1</ele>
        <time>2020-09-08T16:33:09Z</time>
      </trkpt>
      <trkpt lat="44.49855" lon="-0.27387">
        <ele>52.2</ele>
        <time>2020-09-08T16:33:10Z</time>
      </trkpt>
      <trkpt lat="44.49855" lon="-0.27386">
        <ele>52.2</ele>
        <time>2020-09-08T16:33:12Z</time>
      </trkpt>
      <trkpt lat="44.49855" lon="-0.27385">
        <ele>52.2</ele>
        <time>2020-09-08T16:33:13Z</time>
      </trkpt>
      <trkpt lat="44.49854" lon="-0.27384">
        <ele>52.3</ele>
        <time>2020-09-08T16:33:14Z</time>
      </trkpt>
      <trkpt lat="44.49854" lon="-0.27382">
        <ele>52.3</ele>
        <time>2020-09-08T16:33:15Z</time>
      </trkpt>
      <trkpt lat="44.49853" lon="-0.27381">
        <ele>52.3</ele>
        <time>2020-09-08T16:33:16Z</time>
      </trkpt>
      <trkpt lat="44.49852" lon="-0.2738">
        <ele>52.3</ele>
        <time>2020-09-08T16:33:18Z</time>
      </trkpt>
      <trkpt lat="44.49852" lon="-0.27381">
        <ele>52.4</ele>
        <time>2020-09-08T16:33:19Z</time>
      </trkpt>
      <trkpt lat="44.49851" lon="-0.27383">
        <ele>52.4</ele>
        <time>2020-09-08T16:33:20Z</time>
      </trkpt>
      <trkpt lat="44.4985" lon="-0.27382">
        <ele>52.4</ele>
        <time>2020-09-08T16:33:21Z</time>
      </trkpt>
      <trkpt lat="44.49849" lon="-0.27382">
        <ele>52.4</ele>
        <time>2020-09-08T16:33:22Z</time>
      </trkpt>
      <trkpt lat="44.49849" lon="-0.27382">
        <ele>52.5</ele>
        <time>2020-09-08T16:33:24Z</time>
      </trkpt>
      <trkpt lat="44.49849" lon="-0.27383">
        <ele>52.5</ele>
        <time>2020-09-08T16:33:25Z</time>
      </trkpt>
      <trkpt lat="44.49849" lon="-0.27383">
        <ele>52.5</ele>
        <time>2020-09-08T16:33:26Z</time>
      </trkpt>
      <trkpt lat="44.49849" lon="-0.27385">
        <ele>52.5</ele>
        <time>2020-09-08T16:33:28Z</time>
      </trkpt>
      <trkpt lat="44.49849" lon="-0.27386">
        <ele>52.5</ele>
        <time>2020-09-08T16:33:30Z</time>
      </trkpt>
      <trkpt lat="44.49849" lon="-0.27386">
        <ele>52.5</ele>
        <time>2020-09-08T16:33:31Z</time>
      </trkpt>
      <trkpt lat="44.49848" lon="-0.27386">
        <ele>52.5</ele>
        <time>2020-09-08T16:33:32Z</time>
      </trkpt>
      <trkpt lat="44.49848" lon="-0.27387">
        <ele>52.5</ele>
        <time>2020-09-08T16:33:34Z</time>
      </trkpt>
      <trkpt lat="44.49848" lon="-0.27387">
        <ele>52.5</ele>
        <time>2020-09-08T16:33:35Z</time>
      </trkpt>
      <trkpt lat="44.49849" lon="-0.27388">
        <ele>52.6</ele>
        <time>2020-09-08T16:33:37Z</time>
      </trkpt>
      <trkpt lat="44.49849" lon="-0.27389">
        <ele>52.6</ele>
        <time>2020-09-08T16:33:39Z</time>
      </trkpt>
      <trkpt lat="44.49849" lon="-0.2739">
        <ele>52.6</ele>
        <time>2020-09-08T16:33:41Z</time>
      </trkpt>
      <trkpt lat="44.49849" lon="-0.27391">
        <ele>52.6</ele>
        <time>2020-09-08T16:33:43Z</time>
      </trkpt>
      <trkpt lat="44.49849" lon="-0.27391">
        <ele>52.6</ele>
        <time>2020-09-08T16:33:44Z</time>
      </trkpt>
      <trkpt lat="44.49849" lon="-0.27391">
        <ele>52.6</ele>
        <time>2020-09-08T16:33:45Z</time>
      </trkpt>
      <trkpt lat="44.49847" lon="-0.27391">
        <ele>52.6</ele>
        <time>2020-09-08T16:33:46Z</time>
      </trkpt>
      <trkpt lat="44.49846" lon="-0.2739">
        <ele>52.7</ele>
        <time>2020-09-08T16:33:47Z</time>
      </trkpt>
      <trkpt lat="44.49846" lon="-0.2739">
        <ele>52.7</ele>
        <time>2020-09-08T16:33:48Z</time>
      </trkpt>
      <trkpt lat="44.49845" lon="-0.27389">
        <ele>52.7</ele>
        <time>2020-09-08T16:33:50Z</time>
      </trkpt>
      <trkpt lat="44.49843" lon="-0.27389">
        <ele>52.7</ele>
        <time>2020-09-08T16:33:51Z</time>
      </trkpt>
      <trkpt lat="44.49841" lon="-0.27389">
        <ele>52.7</ele>
        <time>2020-09-08T16:33:53Z</time>
      </trkpt>
      <trkpt lat="44.49841" lon="-0.2739">
        <ele>52.7</ele>
        <time>2020-09-08T16:33:54Z</time>
      </trkpt>
      <trkpt lat="44.4984" lon="-0.2739">
        <ele>52.7</ele>
        <time>2020-09-08T16:33:55Z</time>
      </trkpt>
      <trkpt lat="44.49839" lon="-0.27391">
        <ele>52.7</ele>
        <time>2020-09-08T16:33:56Z</time>
      </trkpt>
      <trkpt lat="44.49838" lon="-0.27391">
        <ele>52.7</ele>
        <time>2020-09-08T16:33:57Z</time>
      </trkpt>
      <trkpt lat="44.49838" lon="-0.27392">
        <ele>52.7</ele>
        <time>2020-09-08T16:33:58Z</time>
      </trkpt>
      <trkpt lat="44.49837" lon="-0.27393">
        <ele>52.8</ele>
        <time>2020-09-08T16:33:59Z</time>
      </trkpt>
      <trkpt lat="44.49836" lon="-0.27394">
        <ele>52.8</ele>
        <time>2020-09-08T16:34:00Z</time>
      </trkpt>
      <trkpt lat="44.49834" lon="-0.27395">
        <ele>52.8</ele>
        <time>2020-09-08T16:34:02Z</time>
      </trkpt>
      <trkpt lat="44.49833" lon="-0.27398">
        <ele>52.8</ele>
        <time>2020-09-08T16:34:03Z</time>
      </trkpt>
      <trkpt lat="44.49833" lon="-0.27399">
        <ele>52.8</ele>
        <time>2020-09-08T16:34:04Z</time>
      </trkpt>
      <trkpt lat="44.49832" lon="-0.274">
        <ele>52.8</ele>
        <time>2020-09-08T16:34:05Z</time>
      </trkpt>
      <trkpt lat="44.49832" lon="-0.27402">
        <ele>52.8</ele>
        <time>2020-09-08T16:34:06Z</time>
      </trkpt>
      <trkpt lat="44.4983" lon="-0.27407">
        <ele>52.8</ele>
        <time>2020-09-08T16:34:08Z</time>
      </trkpt>
      <trkpt lat="44.49829" lon="-0.27411">
        <ele>52.9</ele>
        <time>2020-09-08T16:34:09Z</time>
      </trkpt>
      <trkpt lat="44.49829" lon="-0.27412">
        <ele>52.9</ele>
        <time>2020-09-08T16:34:10Z</time>
      </trkpt>
      <trkpt lat="44.49829" lon="-0.27414">
        <ele>52.9</ele>
        <time>2020-09-08T16:34:11Z</time>
      </trkpt>
      <trkpt lat="44.49827" lon="-0.27418">
        <ele>52.9</ele>
        <time>2020-09-08T16:34:13Z</time>
      </trkpt>
      <trkpt lat="44.49826" lon="-0.2742">
        <ele>52.9</ele>
        <time>2020-09-08T16:34:15Z</time>
      </trkpt>
      <trkpt lat="44.49826" lon="-0.27423">
        <ele>53</ele>
        <time>2020-09-08T16:34:16Z</time>
      </trkpt>
      <trkpt lat="44.49825" lon="-0.27425">
        <ele>53</ele>
        <time>2020-09-08T16:34:17Z</time>
      </trkpt>
      <trkpt lat="44.49824" lon="-0.27427">
        <ele>53</ele>
        <time>2020-09-08T16:34:19Z</time>
      </trkpt>
      <trkpt lat="44.49823" lon="-0.27428">
        <ele>53</ele>
        <time>2020-09-08T16:34:20Z</time>
      </trkpt>
      <trkpt lat="44.49822" lon="-0.2743">
        <ele>53</ele>
        <time>2020-09-08T16:34:21Z</time>
      </trkpt>
      <trkpt lat="44.4982" lon="-0.27433">
        <ele>53.1</ele>
        <time>2020-09-08T16:34:23Z</time>
      </trkpt>
      <trkpt lat="44.49819" lon="-0.27434">
        <ele>53.1</ele>
        <time>2020-09-08T16:34:24Z</time>
      </trkpt>
      <trkpt lat="44.49818" lon="-0.27435">
        <ele>53.1</ele>
        <time>2020-09-08T16:34:25Z</time>
      </trkpt>
      <trkpt lat="44.49817" lon="-0.27436">
        <ele>53.1</ele>
        <time>2020-09-08T16:34:26Z</time>
      </trkpt>
      <trkpt lat="44.49815" lon="-0.27438">
        <ele>53.1</ele>
        <time>2020-09-08T16:34:28Z</time>
      </trkpt>
      <trkpt lat="44.49814" lon="-0.27439">
        <ele>53.2</ele>
        <time>2020-09-08T16:34:29Z</time>
      </trkpt>
      <trkpt lat="44.49813" lon="-0.27439">
        <ele>53.2</ele>
        <time>2020-09-08T16:34:30Z</time>
      </trkpt>
      <trkpt lat="44.49812" lon="-0.2744">
        <ele>53.2</ele>
        <time>2020-09-08T16:34:32Z</time>
      </trkpt>
      <trkpt lat="44.49809" lon="-0.2744">
        <ele>53.2</ele>
        <time>2020-09-08T16:34:33Z</time>
      </trkpt>
      <trkpt lat="44.49808" lon="-0.27441">
        <ele>53.2</ele>
        <time>2020-09-08T16:34:34Z</time>
      </trkpt>
      <trkpt lat="44.49807" lon="-0.27441">
        <ele>53.3</ele>
        <time>2020-09-08T16:34:35Z</time>
      </trkpt>
      <trkpt lat="44.49805" lon="-0.27442">
        <ele>53.3</ele>
        <time>2020-09-08T16:34:36Z</time>
      </trkpt>
      <trkpt lat="44.49803" lon="-0.27443">
        <ele>53.3</ele>
        <time>2020-09-08T16:34:37Z</time>
      </trkpt>
      <trkpt lat="44.49802" lon="-0.27443">
        <ele>53.4</ele>
        <time>2020-09-08T16:34:38Z</time>
      </trkpt>
      <trkpt lat="44.49801" lon="-0.27443">
        <ele>53.4</ele>
        <time>2020-09-08T16:34:40Z</time>
      </trkpt>
      <trkpt lat="44.498" lon="-0.27443">
        <ele>53.4</ele>
        <time>2020-09-08T16:34:41Z</time>
      </trkpt>
      <trkpt lat="44.49797" lon="-0.27444">
        <ele>53.4</ele>
        <time>2020-09-08T16:34:42Z</time>
      </trkpt>
      <trkpt lat="44.49796" lon="-0.27444">
        <ele>53.4</ele>
        <time>2020-09-08T16:34:43Z</time>
      </trkpt>
      <trkpt lat="44.49794" lon="-0.27445">
        <ele>53.5</ele>
        <time>2020-09-08T16:34:44Z</time>
      </trkpt>
      <trkpt lat="44.49791" lon="-0.27446">
        <ele>53.5</ele>
        <time>2020-09-08T16:34:46Z</time>
      </trkpt>
      <trkpt lat="44.4979" lon="-0.27446">
        <ele>53.5</ele>
        <time>2020-09-08T16:34:47Z</time>
      </trkpt>
      <trkpt lat="44.49789" lon="-0.27447">
        <ele>53.5</ele>
        <time>2020-09-08T16:34:48Z</time>
      </trkpt>
      <trkpt lat="44.49788" lon="-0.27447">
        <ele>53.5</ele>
        <time>2020-09-08T16:34:50Z</time>
      </trkpt>
      <trkpt lat="44.49788" lon="-0.27448">
        <ele>53.5</ele>
        <time>2020-09-08T16:34:51Z</time>
      </trkpt>
      <trkpt lat="44.49787" lon="-0.27447">
        <ele>53.5</ele>
        <time>2020-09-08T16:34:52Z</time>
      </trkpt>
      <trkpt lat="44.49786" lon="-0.27447">
        <ele>53.5</ele>
        <time>2020-09-08T16:34:53Z</time>
      </trkpt>
      <trkpt lat="44.49785" lon="-0.27447">
        <ele>53.5</ele>
        <time>2020-09-08T16:34:55Z</time>
      </trkpt>
      <trkpt lat="44.49784" lon="-0.27447">
        <ele>53.5</ele>
        <time>2020-09-08T16:34:56Z</time>
      </trkpt>
      <trkpt lat="44.49782" lon="-0.27448">
        <ele>53.5</ele>
        <time>2020-09-08T16:34:57Z</time>
      </trkpt>
      <trkpt lat="44.49781" lon="-0.27448">
        <ele>53.5</ele>
        <time>2020-09-08T16:34:58Z</time>
      </trkpt>
      <trkpt lat="44.49781" lon="-0.27449">
        <ele>53.5</ele>
        <time>2020-09-08T16:34:59Z</time>
      </trkpt>
      <trkpt lat="44.4978" lon="-0.27449">
        <ele>53.5</ele>
        <time>2020-09-08T16:35:00Z</time>
      </trkpt>
      <trkpt lat="44.49779" lon="-0.2745">
        <ele>53.5</ele>
        <time>2020-09-08T16:35:01Z</time>
      </trkpt>
      <trkpt lat="44.49778" lon="-0.27451">
        <ele>53.5</ele>
        <time>2020-09-08T16:35:03Z</time>
      </trkpt>
      <trkpt lat="44.49777" lon="-0.27452">
        <ele>53.5</ele>
        <time>2020-09-08T16:35:04Z</time>
      </trkpt>
      <trkpt lat="44.49776" lon="-0.27453">
        <ele>53.5</ele>
        <time>2020-09-08T16:35:05Z</time>
      </trkpt>
      <trkpt lat="44.49775" lon="-0.27453">
        <ele>53.5</ele>
        <time>2020-09-08T16:35:06Z</time>
      </trkpt>
      <trkpt lat="44.49774" lon="-0.27454">
        <ele>53.4</ele>
        <time>2020-09-08T16:35:07Z</time>
      </trkpt>
      <trkpt lat="44.49773" lon="-0.27455">
        <ele>53.4</ele>
        <time>2020-09-08T16:35:08Z</time>
      </trkpt>
      <trkpt lat="44.49771" lon="-0.27456">
        <ele>53.4</ele>
        <time>2020-09-08T16:35:10Z</time>
      </trkpt>
      <trkpt lat="44.4977" lon="-0.27457">
        <ele>53.4</ele>
        <time>2020-09-08T16:35:11Z</time>
      </trkpt>
      <trkpt lat="44.49769" lon="-0.27458">
        <ele>53.4</ele>
        <time>2020-09-08T16:35:13Z</time>
      </trkpt>
      <trkpt lat="44.49768" lon="-0.27459">
        <ele>53.4</ele>
        <time>2020-09-08T16:35:14Z</time>
      </trkpt>
      <trkpt lat="44.49766" lon="-0.2746">
        <ele>53.3</ele>
        <time>2020-09-08T16:35:15Z</time>
      </trkpt>
      <trkpt lat="44.49765" lon="-0.27461">
        <ele>53.3</ele>
        <time>2020-09-08T16:35:16Z</time>
      </trkpt>
      <trkpt lat="44.49764" lon="-0.27462">
        <ele>53.3</ele>
        <time>2020-09-08T16:35:17Z</time>
      </trkpt>
      <trkpt lat="44.49763" lon="-0.27463">
        <ele>53.3</ele>
        <time>2020-09-08T16:35:18Z</time>
      </trkpt>
      <trkpt lat="44.49761" lon="-0.27465">
        <ele>53.2</ele>
        <time>2020-09-08T16:35:20Z</time>
      </trkpt>
      <trkpt lat="44.4976" lon="-0.27465">
        <ele>53.2</ele>
        <time>2020-09-08T16:35:21Z</time>
      </trkpt>
      <trkpt lat="44.49759" lon="-0.27466">
        <ele>53.2</ele>
        <time>2020-09-08T16:35:22Z</time>
      </trkpt>
      <trkpt lat="44.49757" lon="-0.27468">
        <ele>53.2</ele>
        <time>2020-09-08T16:35:24Z</time>
      </trkpt>
      <trkpt lat="44.49755" lon="-0.27469">
        <ele>53.1</ele>
        <time>2020-09-08T16:35:25Z</time>
      </trkpt>
      <trkpt lat="44.49754" lon="-0.2747">
        <ele>53.1</ele>
        <time>2020-09-08T16:35:26Z</time>
      </trkpt>
      <trkpt lat="44.49753" lon="-0.27471">
        <ele>53.1</ele>
        <time>2020-09-08T16:35:27Z</time>
      </trkpt>
      <trkpt lat="44.49751" lon="-0.27472">
        <ele>53.1</ele>
        <time>2020-09-08T16:35:29Z</time>
      </trkpt>
      <trkpt lat="44.49751" lon="-0.27473">
        <ele>53.1</ele>
        <time>2020-09-08T16:35:30Z</time>
      </trkpt>
      <trkpt lat="44.4975" lon="-0.27473">
        <ele>53.1</ele>
        <time>2020-09-08T16:35:31Z</time>
      </trkpt>
      <trkpt lat="44.49749" lon="-0.27474">
        <ele>53.1</ele>
        <time>2020-09-08T16:35:33Z</time>
      </trkpt>
      <trkpt lat="44.49748" lon="-0.27474">
        <ele>53.1</ele>
        <time>2020-09-08T16:35:34Z</time>
      </trkpt>
      <trkpt lat="44.49747" lon="-0.27475">
        <ele>53.1</ele>
        <time>2020-09-08T16:35:35Z</time>
      </trkpt>
      <trkpt lat="44.49745" lon="-0.27476">
        <ele>53.1</ele>
        <time>2020-09-08T16:35:36Z</time>
      </trkpt>
      <trkpt lat="44.49743" lon="-0.27477">
        <ele>53.1</ele>
        <time>2020-09-08T16:35:38Z</time>
      </trkpt>
      <trkpt lat="44.49742" lon="-0.27477">
        <ele>53.1</ele>
        <time>2020-09-08T16:35:39Z</time>
      </trkpt>
      <trkpt lat="44.4974" lon="-0.27478">
        <ele>53.1</ele>
        <time>2020-09-08T16:35:40Z</time>
      </trkpt>
      <trkpt lat="44.49739" lon="-0.27479">
        <ele>53.1</ele>
        <time>2020-09-08T16:35:41Z</time>
      </trkpt>
      <trkpt lat="44.49738" lon="-0.27479">
        <ele>53.1</ele>
        <time>2020-09-08T16:35:42Z</time>
      </trkpt>
      <trkpt lat="44.49737" lon="-0.27479">
        <ele>53.1</ele>
        <time>2020-09-08T16:35:44Z</time>
      </trkpt>
      <trkpt lat="44.49737" lon="-0.27479">
        <ele>53.1</ele>
        <time>2020-09-08T16:35:45Z</time>
      </trkpt>
      <trkpt lat="44.49737" lon="-0.27479">
        <ele>53.1</ele>
        <time>2020-09-08T16:35:46Z</time>
      </trkpt>
      <trkpt lat="44.49737" lon="-0.27478">
        <ele>53.1</ele>
        <time>2020-09-08T16:35:48Z</time>
      </trkpt>
      <trkpt lat="44.49737" lon="-0.27478">
        <ele>53.1</ele>
        <time>2020-09-08T16:35:49Z</time>
      </trkpt>
      <trkpt lat="44.49738" lon="-0.27477">
        <ele>53.2</ele>
        <time>2020-09-08T16:35:50Z</time>
      </trkpt>
      <trkpt lat="44.49738" lon="-0.27477">
        <ele>53.2</ele>
        <time>2020-09-08T16:35:52Z</time>
      </trkpt>
      <trkpt lat="44.49738" lon="-0.27478">
        <ele>53.2</ele>
        <time>2020-09-08T16:35:53Z</time>
      </trkpt>
      <trkpt lat="44.49737" lon="-0.27478">
        <ele>53.2</ele>
        <time>2020-09-08T16:35:55Z</time>
      </trkpt>
      <trkpt lat="44.49736" lon="-0.27478">
        <ele>53.2</ele>
        <time>2020-09-08T16:35:56Z</time>
      </trkpt>
      <trkpt lat="44.49734" lon="-0.27479">
        <ele>53.2</ele>
        <time>2020-09-08T16:35:57Z</time>
      </trkpt>
      <trkpt lat="44.49732" lon="-0.2748">
        <ele>53.2</ele>
        <time>2020-09-08T16:35:59Z</time>
      </trkpt>
      <trkpt lat="44.4973" lon="-0.27481">
        <ele>53.2</ele>
        <time>2020-09-08T16:36:00Z</time>
      </trkpt>
      <trkpt lat="44.49727" lon="-0.27482">
        <ele>53.2</ele>
        <time>2020-09-08T16:36:02Z</time>
      </trkpt>
      <trkpt lat="44.49727" lon="-0.27482">
        <ele>53.2</ele>
        <time>2020-09-08T16:36:03Z</time>
      </trkpt>
      <trkpt lat="44.49725" lon="-0.27483">
        <ele>53.2</ele>
        <time>2020-09-08T16:36:04Z</time>
      </trkpt>
      <trkpt lat="44.49724" lon="-0.27483">
        <ele>53.2</ele>
        <time>2020-09-08T16:36:05Z</time>
      </trkpt>
      <trkpt lat="44.49722" lon="-0.27484">
        <ele>53.3</ele>
        <time>2020-09-08T16:36:06Z</time>
      </trkpt>
      <trkpt lat="44.4972" lon="-0.27485">
        <ele>53.3</ele>
        <time>2020-09-08T16:36:08Z</time>
      </trkpt>
      <trkpt lat="44.49719" lon="-0.27485">
        <ele>53.3</ele>
        <time>2020-09-08T16:36:09Z</time>
      </trkpt>
      <trkpt lat="44.49717" lon="-0.27486">
        <ele>53.3</ele>
        <time>2020-09-08T16:36:10Z</time>
      </trkpt>
      <trkpt lat="44.49717" lon="-0.27486">
        <ele>53.3</ele>
        <time>2020-09-08T16:36:11Z</time>
      </trkpt>
      <trkpt lat="44.49714" lon="-0.27488">
        <ele>53.3</ele>
        <time>2020-09-08T16:36:13Z</time>
      </trkpt>
      <trkpt lat="44.49713" lon="-0.27489">
        <ele>53.3</ele>
        <time>2020-09-08T16:36:14Z</time>
      </trkpt>
      <trkpt lat="44.49712" lon="-0.27489">
        <ele>53.3</ele>
        <time>2020-09-08T16:36:15Z</time>
      </trkpt>
      <trkpt lat="44.4971" lon="-0.27492">
        <ele>53.3</ele>
        <time>2020-09-08T16:36:17Z</time>
      </trkpt>
      <trkpt lat="44.49709" lon="-0.27496">
        <ele>53.3</ele>
        <time>2020-09-08T16:36:18Z</time>
      </trkpt>
      <trkpt lat="44.49709" lon="-0.27498">
        <ele>53.3</ele>
        <time>2020-09-08T16:36:20Z</time>
      </trkpt>
      <trkpt lat="44.49708" lon="-0.27499">
        <ele>53.3</ele>
        <time>2020-09-08T16:36:21Z</time>
      </trkpt>
      <trkpt lat="44.49708" lon="-0.27501">
        <ele>53.2</ele>
        <time>2020-09-08T16:36:22Z</time>
      </trkpt>
      <trkpt lat="44.49708" lon="-0.27503">
        <ele>53.2</ele>
        <time>2020-09-08T16:36:23Z</time>
      </trkpt>
      <trkpt lat="44.49708" lon="-0.27504">
        <ele>53.2</ele>
        <time>2020-09-08T16:36:24Z</time>
      </trkpt>
      <trkpt lat="44.49708" lon="-0.27506">
        <ele>53.2</ele>
        <time>2020-09-08T16:36:25Z</time>
      </trkpt>
      <trkpt lat="44.49708" lon="-0.27509">
        <ele>53.2</ele>
        <time>2020-09-08T16:36:27Z</time>
      </trkpt>
      <trkpt lat="44.49708" lon="-0.27511">
        <ele>53.2</ele>
        <time>2020-09-08T16:36:28Z</time>
      </trkpt>
      <trkpt lat="44.49708" lon="-0.27513">
        <ele>53.1</ele>
        <time>2020-09-08T16:36:29Z</time>
      </trkpt>
      <trkpt lat="44.49708" lon="-0.27515">
        <ele>53.1</ele>
        <time>2020-09-08T16:36:31Z</time>
      </trkpt>
      <trkpt lat="44.49706" lon="-0.27519">
        <ele>53.1</ele>
        <time>2020-09-08T16:36:33Z</time>
      </trkpt>
      <trkpt lat="44.49705" lon="-0.27521">
        <ele>53.1</ele>
        <time>2020-09-08T16:36:34Z</time>
      </trkpt>
      <trkpt lat="44.49704" lon="-0.27522">
        <ele>53.1</ele>
        <time>2020-09-08T16:36:35Z</time>
      </trkpt>
      <trkpt lat="44.49702" lon="-0.27524">
        <ele>53.1</ele>
        <time>2020-09-08T16:36:36Z</time>
      </trkpt>
      <trkpt lat="44.49701" lon="-0.27525">
        <ele>53.1</ele>
        <time>2020-09-08T16:36:37Z</time>
      </trkpt>
      <trkpt lat="44.49699" lon="-0.27525">
        <ele>53.1</ele>
        <time>2020-09-08T16:36:38Z</time>
      </trkpt>
      <trkpt lat="44.49697" lon="-0.27525">
        <ele>53</ele>
        <time>2020-09-08T16:36:40Z</time>
      </trkpt>
      <trkpt lat="44.49694" lon="-0.27526">
        <ele>53</ele>
        <time>2020-09-08T16:36:41Z</time>
      </trkpt>
      <trkpt lat="44.49692" lon="-0.27526">
        <ele>52.9</ele>
        <time>2020-09-08T16:36:42Z</time>
      </trkpt>
      <trkpt lat="44.49691" lon="-0.27526">
        <ele>52.9</ele>
        <time>2020-09-08T16:36:43Z</time>
      </trkpt>
      <trkpt lat="44.49689" lon="-0.27527">
        <ele>52.9</ele>
        <time>2020-09-08T16:36:44Z</time>
      </trkpt>
      <trkpt lat="44.49687" lon="-0.27527">
        <ele>52.9</ele>
        <time>2020-09-08T16:36:45Z</time>
      </trkpt>
      <trkpt lat="44.49684" lon="-0.27528">
        <ele>52.9</ele>
        <time>2020-09-08T16:36:47Z</time>
      </trkpt>
      <trkpt lat="44.49681" lon="-0.27528">
        <ele>53</ele>
        <time>2020-09-08T16:36:48Z</time>
      </trkpt>
      <trkpt lat="44.4968" lon="-0.27528">
        <ele>53</ele>
        <time>2020-09-08T16:36:49Z</time>
      </trkpt>
      <trkpt lat="44.49679" lon="-0.27529">
        <ele>53</ele>
        <time>2020-09-08T16:36:50Z</time>
      </trkpt>
      <trkpt lat="44.49676" lon="-0.27529">
        <ele>53.1</ele>
        <time>2020-09-08T16:36:52Z</time>
      </trkpt>
      <trkpt lat="44.49674" lon="-0.27529">
        <ele>53.2</ele>
        <time>2020-09-08T16:36:53Z</time>
      </trkpt>
      <trkpt lat="44.49674" lon="-0.27528">
        <ele>53.2</ele>
        <time>2020-09-08T16:36:54Z</time>
      </trkpt>
      <trkpt lat="44.49673" lon="-0.27528">
        <ele>53.2</ele>
        <time>2020-09-08T16:36:55Z</time>
      </trkpt>
      <trkpt lat="44.4967" lon="-0.27528">
        <ele>53.3</ele>
        <time>2020-09-08T16:36:57Z</time>
      </trkpt>
      <trkpt lat="44.49669" lon="-0.27528">
        <ele>53.3</ele>
        <time>2020-09-08T16:36:58Z</time>
      </trkpt>
      <trkpt lat="44.49667" lon="-0.27529">
        <ele>53.4</ele>
        <time>2020-09-08T16:36:59Z</time>
      </trkpt>
      <trkpt lat="44.49666" lon="-0.27529">
        <ele>53.4</ele>
        <time>2020-09-08T16:37:01Z</time>
      </trkpt>
      <trkpt lat="44.49665" lon="-0.27529">
        <ele>53.4</ele>
        <time>2020-09-08T16:37:02Z</time>
      </trkpt>
      <trkpt lat="44.49663" lon="-0.27529">
        <ele>53.4</ele>
        <time>2020-09-08T16:37:04Z</time>
      </trkpt>
      <trkpt lat="44.49662" lon="-0.27529">
        <ele>53.4</ele>
        <time>2020-09-08T16:37:05Z</time>
      </trkpt>
      <trkpt lat="44.49661" lon="-0.27529">
        <ele>53.4</ele>
        <time>2020-09-08T16:37:07Z</time>
      </trkpt>
      <trkpt lat="44.4966" lon="-0.27529">
        <ele>53.3</ele>
        <time>2020-09-08T16:37:08Z</time>
      </trkpt>
      <trkpt lat="44.49659" lon="-0.2753">
        <ele>53.2</ele>
        <time>2020-09-08T16:37:09Z</time>
      </trkpt>
      <trkpt lat="44.49658" lon="-0.2753">
        <ele>53.1</ele>
        <time>2020-09-08T16:37:10Z</time>
      </trkpt>
      <trkpt lat="44.49657" lon="-0.2753">
        <ele>53</ele>
        <time>2020-09-08T16:37:11Z</time>
      </trkpt>
      <trkpt lat="44.49655" lon="-0.27531">
        <ele>52.9</ele>
        <time>2020-09-08T16:37:13Z</time>
      </trkpt>
      <trkpt lat="44.49654" lon="-0.27531">
        <ele>52.8</ele>
        <time>2020-09-08T16:37:14Z</time>
      </trkpt>
      <trkpt lat="44.49653" lon="-0.27531">
        <ele>52.7</ele>
        <time>2020-09-08T16:37:15Z</time>
      </trkpt>
      <trkpt lat="44.49652" lon="-0.27531">
        <ele>52.6</ele>
        <time>2020-09-08T16:37:16Z</time>
      </trkpt>
      <trkpt lat="44.49649" lon="-0.27532">
        <ele>52.3</ele>
        <time>2020-09-08T16:37:17Z</time>
      </trkpt>
      <trkpt lat="44.49648" lon="-0.27532">
        <ele>52.2</ele>
        <time>2020-09-08T16:37:18Z</time>
      </trkpt>
      <trkpt lat="44.49647" lon="-0.27532">
        <ele>52.1</ele>
        <time>2020-09-08T16:37:19Z</time>
      </trkpt>
      <trkpt lat="44.49645" lon="-0.27533">
        <ele>52</ele>
        <time>2020-09-08T16:37:21Z</time>
      </trkpt>
      <trkpt lat="44.49644" lon="-0.27534">
        <ele>51.9</ele>
        <time>2020-09-08T16:37:22Z</time>
      </trkpt>
      <trkpt lat="44.49642" lon="-0.27535">
        <ele>51.8</ele>
        <time>2020-09-08T16:37:23Z</time>
      </trkpt>
      <trkpt lat="44.49641" lon="-0.27535">
        <ele>51.7</ele>
        <time>2020-09-08T16:37:25Z</time>
      </trkpt>
      <trkpt lat="44.4964" lon="-0.27536">
        <ele>51.7</ele>
        <time>2020-09-08T16:37:26Z</time>
      </trkpt>
      <trkpt lat="44.49638" lon="-0.27536">
        <ele>51.5</ele>
        <time>2020-09-08T16:37:28Z</time>
      </trkpt>
      <trkpt lat="44.49637" lon="-0.27537">
        <ele>51.5</ele>
        <time>2020-09-08T16:37:29Z</time>
      </trkpt>
      <trkpt lat="44.49636" lon="-0.27537">
        <ele>51.4</ele>
        <time>2020-09-08T16:37:30Z</time>
      </trkpt>
      <trkpt lat="44.49635" lon="-0.27537">
        <ele>51.4</ele>
        <time>2020-09-08T16:37:31Z</time>
      </trkpt>
      <trkpt lat="44.49634" lon="-0.27537">
        <ele>51.3</ele>
        <time>2020-09-08T16:37:32Z</time>
      </trkpt>
      <trkpt lat="44.49632" lon="-0.27537">
        <ele>51.3</ele>
        <time>2020-09-08T16:37:33Z</time>
      </trkpt>
      <trkpt lat="44.49631" lon="-0.27537">
        <ele>51.2</ele>
        <time>2020-09-08T16:37:34Z</time>
      </trkpt>
      <trkpt lat="44.4963" lon="-0.27537">
        <ele>51.2</ele>
        <time>2020-09-08T16:37:35Z</time>
      </trkpt>
      <trkpt lat="44.49629" lon="-0.27537">
        <ele>51.1</ele>
        <time>2020-09-08T16:37:36Z</time>
      </trkpt>
      <trkpt lat="44.49628" lon="-0.27538">
        <ele>51.1</ele>
        <time>2020-09-08T16:37:38Z</time>
      </trkpt>
      <trkpt lat="44.49627" lon="-0.27538">
        <ele>51.1</ele>
        <time>2020-09-08T16:37:39Z</time>
      </trkpt>
      <trkpt lat="44.49626" lon="-0.27538">
        <ele>51.1</ele>
        <time>2020-09-08T16:37:40Z</time>
      </trkpt>
      <trkpt lat="44.49625" lon="-0.27538">
        <ele>51</ele>
        <time>2020-09-08T16:37:41Z</time>
      </trkpt>
      <trkpt lat="44.49624" lon="-0.27538">
        <ele>51</ele>
        <time>2020-09-08T16:37:42Z</time>
      </trkpt>
      <trkpt lat="44.49623" lon="-0.27538">
        <ele>51</ele>
        <time>2020-09-08T16:37:43Z</time>
      </trkpt>
      <trkpt lat="44.49622" lon="-0.27538">
        <ele>51</ele>
        <time>2020-09-08T16:37:44Z</time>
      </trkpt>
      <trkpt lat="44.4962" lon="-0.27538">
        <ele>51</ele>
        <time>2020-09-08T16:37:46Z</time>
      </trkpt>
      <trkpt lat="44.49618" lon="-0.27538">
        <ele>51</ele>
        <time>2020-09-08T16:37:48Z</time>
      </trkpt>
      <trkpt lat="44.49617" lon="-0.27538">
        <ele>51</ele>
        <time>2020-09-08T16:37:49Z</time>
      </trkpt>
      <trkpt lat="44.49616" lon="-0.27537">
        <ele>51</ele>
        <time>2020-09-08T16:37:50Z</time>
      </trkpt>
      <trkpt lat="44.49615" lon="-0.27537">
        <ele>51</ele>
        <time>2020-09-08T16:37:51Z</time>
      </trkpt>
      <trkpt lat="44.49614" lon="-0.27537">
        <ele>51</ele>
        <time>2020-09-08T16:37:52Z</time>
      </trkpt>
      <trkpt lat="44.49613" lon="-0.27537">
        <ele>51</ele>
        <time>2020-09-08T16:37:54Z</time>
      </trkpt>
      <trkpt lat="44.49612" lon="-0.27537">
        <ele>51</ele>
        <time>2020-09-08T16:37:55Z</time>
      </trkpt>
      <trkpt lat="44.49611" lon="-0.27537">
        <ele>51</ele>
        <time>2020-09-08T16:37:56Z</time>
      </trkpt>
      <trkpt lat="44.49609" lon="-0.27537">
        <ele>51</ele>
        <time>2020-09-08T16:37:58Z</time>
      </trkpt>
      <trkpt lat="44.49608" lon="-0.27537">
        <ele>51</ele>
        <time>2020-09-08T16:37:59Z</time>
      </trkpt>
      <trkpt lat="44.49608" lon="-0.27537">
        <ele>51</ele>
        <time>2020-09-08T16:38:00Z</time>
      </trkpt>
      <trkpt lat="44.49606" lon="-0.27537">
        <ele>51.1</ele>
        <time>2020-09-08T16:38:01Z</time>
      </trkpt>
      <trkpt lat="44.49606" lon="-0.27537">
        <ele>51.1</ele>
        <time>2020-09-08T16:38:02Z</time>
      </trkpt>
      <trkpt lat="44.49604" lon="-0.27537">
        <ele>51.1</ele>
        <time>2020-09-08T16:38:03Z</time>
      </trkpt>
      <trkpt lat="44.49603" lon="-0.27537">
        <ele>51.1</ele>
        <time>2020-09-08T16:38:04Z</time>
      </trkpt>
      <trkpt lat="44.49602" lon="-0.27537">
        <ele>51.1</ele>
        <time>2020-09-08T16:38:06Z</time>
      </trkpt>
      <trkpt lat="44.49601" lon="-0.27537">
        <ele>51.2</ele>
        <time>2020-09-08T16:38:07Z</time>
      </trkpt>
      <trkpt lat="44.49599" lon="-0.27537">
        <ele>51.2</ele>
        <time>2020-09-08T16:38:08Z</time>
      </trkpt>
      <trkpt lat="44.49598" lon="-0.27537">
        <ele>51.2</ele>
        <time>2020-09-08T16:38:09Z</time>
      </trkpt>
      <trkpt lat="44.49597" lon="-0.27537">
        <ele>51.2</ele>
        <time>2020-09-08T16:38:10Z</time>
      </trkpt>
      <trkpt lat="44.49596" lon="-0.27537">
        <ele>51.2</ele>
        <time>2020-09-08T16:38:11Z</time>
      </trkpt>
      <trkpt lat="44.49595" lon="-0.27537">
        <ele>51.3</ele>
        <time>2020-09-08T16:38:13Z</time>
      </trkpt>
      <trkpt lat="44.49594" lon="-0.27537">
        <ele>51.3</ele>
        <time>2020-09-08T16:38:14Z</time>
      </trkpt>
      <trkpt lat="44.49593" lon="-0.27537">
        <ele>51.3</ele>
        <time>2020-09-08T16:38:15Z</time>
      </trkpt>
      <trkpt lat="44.49592" lon="-0.27536">
        <ele>51.3</ele>
        <time>2020-09-08T16:38:16Z</time>
      </trkpt>
      <trkpt lat="44.49591" lon="-0.27536">
        <ele>51.4</ele>
        <time>2020-09-08T16:38:17Z</time>
      </trkpt>
      <trkpt lat="44.49589" lon="-0.27536">
        <ele>51.4</ele>
        <time>2020-09-08T16:38:19Z</time>
      </trkpt>
      <trkpt lat="44.49587" lon="-0.27535">
        <ele>51.4</ele>
        <time>2020-09-08T16:38:20Z</time>
      </trkpt>
      <trkpt lat="44.49586" lon="-0.27535">
        <ele>51.4</ele>
        <time>2020-09-08T16:38:21Z</time>
      </trkpt>
      <trkpt lat="44.49585" lon="-0.27535">
        <ele>51.4</ele>
        <time>2020-09-08T16:38:22Z</time>
      </trkpt>
      <trkpt lat="44.49585" lon="-0.27535">
        <ele>51.4</ele>
        <time>2020-09-08T16:38:23Z</time>
      </trkpt>
      <trkpt lat="44.49583" lon="-0.27535">
        <ele>51.4</ele>
        <time>2020-09-08T16:38:25Z</time>
      </trkpt>
      <trkpt lat="44.49582" lon="-0.27535">
        <ele>51.4</ele>
        <time>2020-09-08T16:38:26Z</time>
      </trkpt>
      <trkpt lat="44.49581" lon="-0.27535">
        <ele>51.3</ele>
        <time>2020-09-08T16:38:28Z</time>
      </trkpt>
      <trkpt lat="44.49579" lon="-0.27534">
        <ele>51.3</ele>
        <time>2020-09-08T16:38:29Z</time>
      </trkpt>
      <trkpt lat="44.49579" lon="-0.27534">
        <ele>51.3</ele>
        <time>2020-09-08T16:38:30Z</time>
      </trkpt>
      <trkpt lat="44.49577" lon="-0.27533">
        <ele>51.2</ele>
        <time>2020-09-08T16:38:32Z</time>
      </trkpt>
      <trkpt lat="44.49577" lon="-0.27531">
        <ele>51.2</ele>
        <time>2020-09-08T16:38:34Z</time>
      </trkpt>
      <trkpt lat="44.49578" lon="-0.2753">
        <ele>51.2</ele>
        <time>2020-09-08T16:38:36Z</time>
      </trkpt>
      <trkpt lat="44.49578" lon="-0.2753">
        <ele>51.1</ele>
        <time>2020-09-08T16:38:37Z</time>
      </trkpt>
      <trkpt lat="44.49579" lon="-0.27529">
        <ele>51.1</ele>
        <time>2020-09-08T16:38:39Z</time>
      </trkpt>
      <trkpt lat="44.49579" lon="-0.27528">
        <ele>51.1</ele>
        <time>2020-09-08T16:38:40Z</time>
      </trkpt>
      <trkpt lat="44.49579" lon="-0.27528">
        <ele>51.1</ele>
        <time>2020-09-08T16:38:42Z</time>
      </trkpt>
      <trkpt lat="44.49579" lon="-0.27527">
        <ele>51.1</ele>
        <time>2020-09-08T16:38:44Z</time>
      </trkpt>
      <trkpt lat="44.49579" lon="-0.27527">
        <ele>51.1</ele>
        <time>2020-09-08T16:38:46Z</time>
      </trkpt>
      <trkpt lat="44.49579" lon="-0.27526">
        <ele>51</ele>
        <time>2020-09-08T16:38:48Z</time>
      </trkpt>
      <trkpt lat="44.49579" lon="-0.27526">
        <ele>51</ele>
        <time>2020-09-08T16:38:49Z</time>
      </trkpt>
      <trkpt lat="44.4958" lon="-0.27526">
        <ele>51</ele>
        <time>2020-09-08T16:38:51Z</time>
      </trkpt>
      <trkpt lat="44.4958" lon="-0.27526">
        <ele>51</ele>
        <time>2020-09-08T16:38:52Z</time>
      </trkpt>
      <trkpt lat="44.4958" lon="-0.27526">
        <ele>51</ele>
        <time>2020-09-08T16:38:53Z</time>
      </trkpt>
      <trkpt lat="44.4958" lon="-0.27526">
        <ele>51</ele>
        <time>2020-09-08T16:38:55Z</time>
      </trkpt>
      <trkpt lat="44.4958" lon="-0.27526">
        <ele>51</ele>
        <time>2020-09-08T16:38:56Z</time>
      </trkpt>
      <trkpt lat="44.4958" lon="-0.27526">
        <ele>51</ele>
        <time>2020-09-08T16:38:58Z</time>
      </trkpt>
      <trkpt lat="44.4958" lon="-0.27526">
        <ele>51</ele>
        <time>2020-09-08T16:38:59Z</time>
      </trkpt>
      <trkpt lat="44.4958" lon="-0.27526">
        <ele>51</ele>
        <time>2020-09-08T16:39:00Z</time>
      </trkpt>
      <trkpt lat="44.4958" lon="-0.27526">
        <ele>51</ele>
        <time>2020-09-08T16:39:02Z</time>
      </trkpt>
      <trkpt lat="44.4958" lon="-0.27526">
        <ele>51</ele>
        <time>2020-09-08T16:39:04Z</time>
      </trkpt>
      <trkpt lat="44.4958" lon="-0.27526">
        <ele>51</ele>
        <time>2020-09-08T16:39:05Z</time>
      </trkpt>
      <trkpt lat="44.4958" lon="-0.27526">
        <ele>51</ele>
        <time>2020-09-08T16:39:07Z</time>
      </trkpt>
      <trkpt lat="44.4958" lon="-0.27526">
        <ele>51</ele>
        <time>2020-09-08T16:39:08Z</time>
      </trkpt>
      <trkpt lat="44.4958" lon="-0.27526">
        <ele>51</ele>
        <time>2020-09-08T16:39:10Z</time>
      </trkpt>
      <trkpt lat="44.4958" lon="-0.27526">
        <ele>51</ele>
        <time>2020-09-08T16:39:12Z</time>
      </trkpt>
      <trkpt lat="44.4958" lon="-0.27526">
        <ele>51</ele>
        <time>2020-09-08T16:39:13Z</time>
      </trkpt>
      <trkpt lat="44.4958" lon="-0.27526">
        <ele>51</ele>
        <time>2020-09-08T16:39:14Z</time>
      </trkpt>
      <trkpt lat="44.4958" lon="-0.27526">
        <ele>51</ele>
        <time>2020-09-08T16:39:16Z</time>
      </trkpt>
      <trkpt lat="44.4958" lon="-0.27526">
        <ele>51</ele>
        <time>2020-09-08T16:39:17Z</time>
      </trkpt>
      <trkpt lat="44.4958" lon="-0.27527">
        <ele>51</ele>
        <time>2020-09-08T16:39:19Z</time>
      </trkpt>
      <trkpt lat="44.49578" lon="-0.27529">
        <ele>50.9</ele>
        <time>2020-09-08T16:39:21Z</time>
      </trkpt>
      <trkpt lat="44.49577" lon="-0.27529">
        <ele>50.8</ele>
        <time>2020-09-08T16:39:22Z</time>
      </trkpt>
      <trkpt lat="44.49576" lon="-0.2753">
        <ele>50.8</ele>
        <time>2020-09-08T16:39:24Z</time>
      </trkpt>
      <trkpt lat="44.49576" lon="-0.27531">
        <ele>50.7</ele>
        <time>2020-09-08T16:39:26Z</time>
      </trkpt>
      <trkpt lat="44.49575" lon="-0.27531">
        <ele>50.7</ele>
        <time>2020-09-08T16:39:27Z</time>
      </trkpt>
      <trkpt lat="44.49575" lon="-0.2753">
        <ele>50.7</ele>
        <time>2020-09-08T16:39:29Z</time>
      </trkpt>
      <trkpt lat="44.49575" lon="-0.2753">
        <ele>50.6</ele>
        <time>2020-09-08T16:39:30Z</time>
      </trkpt>
      <trkpt lat="44.49575" lon="-0.27529">
        <ele>50.6</ele>
        <time>2020-09-08T16:39:32Z</time>
      </trkpt>
      <trkpt lat="44.49575" lon="-0.27529">
        <ele>50.6</ele>
        <time>2020-09-08T16:39:33Z</time>
      </trkpt>
      <trkpt lat="44.49576" lon="-0.27529">
        <ele>50.6</ele>
        <time>2020-09-08T16:39:34Z</time>
      </trkpt>
      <trkpt lat="44.49576" lon="-0.27529">
        <ele>50.6</ele>
        <time>2020-09-08T16:39:36Z</time>
      </trkpt>
      <trkpt lat="44.49576" lon="-0.27529">
        <ele>50.6</ele>
        <time>2020-09-08T16:39:38Z</time>
      </trkpt>
      <trkpt lat="44.49576" lon="-0.27529">
        <ele>50.6</ele>
        <time>2020-09-08T16:39:40Z</time>
      </trkpt>
      <trkpt lat="44.49577" lon="-0.27528">
        <ele>50.5</ele>
        <time>2020-09-08T16:39:41Z</time>
      </trkpt>
      <trkpt lat="44.49577" lon="-0.27528">
        <ele>50.5</ele>
        <time>2020-09-08T16:39:42Z</time>
      </trkpt>
      <trkpt lat="44.49577" lon="-0.27528">
        <ele>50.5</ele>
        <time>2020-09-08T16:39:44Z</time>
      </trkpt>
      <trkpt lat="44.49577" lon="-0.27528">
        <ele>50.5</ele>
        <time>2020-09-08T16:39:46Z</time>
      </trkpt>
      <trkpt lat="44.49577" lon="-0.27528">
        <ele>50.5</ele>
        <time>2020-09-08T16:39:47Z</time>
      </trkpt>
      <trkpt lat="44.49577" lon="-0.27528">
        <ele>50.5</ele>
        <time>2020-09-08T16:39:48Z</time>
      </trkpt>
      <trkpt lat="44.49577" lon="-0.27528">
        <ele>50.5</ele>
        <time>2020-09-08T16:39:50Z</time>
      </trkpt>
      <trkpt lat="44.49577" lon="-0.27528">
        <ele>50.5</ele>
        <time>2020-09-08T16:39:51Z</time>
      </trkpt>
      <trkpt lat="44.49577" lon="-0.27528">
        <ele>50.5</ele>
        <time>2020-09-08T16:39:53Z</time>
      </trkpt>
      <trkpt lat="44.49577" lon="-0.27528">
        <ele>50.5</ele>
        <time>2020-09-08T16:39:54Z</time>
      </trkpt>
      <trkpt lat="44.49577" lon="-0.27528">
        <ele>50.5</ele>
        <time>2020-09-08T16:39:56Z</time>
      </trkpt>
      <trkpt lat="44.49577" lon="-0.27528">
        <ele>50.5</ele>
        <time>2020-09-08T16:39:58Z</time>
      </trkpt>
      <trkpt lat="44.49577" lon="-0.27528">
        <ele>50.5</ele>
        <time>2020-09-08T16:40:00Z</time>
      </trkpt>
      <trkpt lat="44.49577" lon="-0.27528">
        <ele>50.5</ele>
        <time>2020-09-08T16:40:01Z</time>
      </trkpt>
      <trkpt lat="44.49577" lon="-0.27528">
        <ele>50.5</ele>
        <time>2020-09-08T16:40:03Z</time>
      </trkpt>
      <trkpt lat="44.49577" lon="-0.27528">
        <ele>50.5</ele>
        <time>2020-09-08T16:40:05Z</time>
      </trkpt>
      <trkpt lat="44.49577" lon="-0.27528">
        <ele>50.5</ele>
        <time>2020-09-08T16:40:06Z</time>
      </trkpt>
      <trkpt lat="44.49577" lon="-0.27528">
        <ele>50.5</ele>
        <time>2020-09-08T16:40:08Z</time>
      </trkpt>
      <trkpt lat="44.49577" lon="-0.27528">
        <ele>50.5</ele>
        <time>2020-09-08T16:40:09Z</time>
      </trkpt>
      <trkpt lat="44.49577" lon="-0.27528">
        <ele>50.5</ele>
        <time>2020-09-08T16:40:11Z</time>
      </trkpt>
      <trkpt lat="44.49577" lon="-0.27528">
        <ele>50.5</ele>
        <time>2020-09-08T16:40:12Z</time>
      </trkpt>
      <trkpt lat="44.49577" lon="-0.27528">
        <ele>50.5</ele>
        <time>2020-09-08T16:40:14Z</time>
      </trkpt>
      <trkpt lat="44.49577" lon="-0.27528">
        <ele>50.5</ele>
        <time>2020-09-08T16:40:15Z</time>
      </trkpt>
      <trkpt lat="44.49577" lon="-0.27528">
        <ele>50.5</ele>
        <time>2020-09-08T16:40:16Z</time>
      </trkpt>
      <trkpt lat="44.49577" lon="-0.27528">
        <ele>50.5</ele>
        <time>2020-09-08T16:40:18Z</time>
      </trkpt>
      <trkpt lat="44.49577" lon="-0.27528">
        <ele>50.5</ele>
        <time>2020-09-08T16:40:20Z</time>
      </trkpt>
      <trkpt lat="44.49577" lon="-0.27528">
        <ele>50.5</ele>
        <time>2020-09-08T16:40:22Z</time>
      </trkpt>
      <trkpt lat="44.49577" lon="-0.27528">
        <ele>50.5</ele>
        <time>2020-09-08T16:40:24Z</time>
      </trkpt>
      <trkpt lat="44.49577" lon="-0.27528">
        <ele>50.5</ele>
        <time>2020-09-08T16:40:25Z</time>
      </trkpt>
      <trkpt lat="44.49577" lon="-0.27528">
        <ele>50.5</ele>
        <time>2020-09-08T16:40:27Z</time>
      </trkpt>
      <trkpt lat="44.49577" lon="-0.27528">
        <ele>50.5</ele>
        <time>2020-09-08T16:40:28Z</time>
      </trkpt>
      <trkpt lat="44.49577" lon="-0.27528">
        <ele>50.5</ele>
        <time>2020-09-08T16:40:29Z</time>
      </trkpt>
      <trkpt lat="44.49577" lon="-0.27528">
        <ele>50.5</ele>
        <time>2020-09-08T16:40:30Z</time>
      </trkpt>
      <trkpt lat="44.49577" lon="-0.27528">
        <ele>50.5</ele>
        <time>2020-09-08T16:40:32Z</time>
      </trkpt>
      <trkpt lat="44.49577" lon="-0.27528">
        <ele>50.5</ele>
        <time>2020-09-08T16:40:34Z</time>
      </trkpt>
      <trkpt lat="44.49577" lon="-0.27528">
        <ele>50.5</ele>
        <time>2020-09-08T16:40:35Z</time>
      </trkpt>
      <trkpt lat="44.49577" lon="-0.27528">
        <ele>50.5</ele>
        <time>2020-09-08T16:40:36Z</time>
      </trkpt>
      <trkpt lat="44.49577" lon="-0.27528">
        <ele>50.5</ele>
        <time>2020-09-08T16:40:38Z</time>
      </trkpt>
      <trkpt lat="44.49577" lon="-0.27528">
        <ele>50.5</ele>
        <time>2020-09-08T16:40:40Z</time>
      </trkpt>
      <trkpt lat="44.49577" lon="-0.27528">
        <ele>50.5</ele>
        <time>2020-09-08T16:40:41Z</time>
      </trkpt>
      <trkpt lat="44.49577" lon="-0.27528">
        <ele>50.5</ele>
        <time>2020-09-08T16:40:42Z</time>
      </trkpt>
      <trkpt lat="44.49577" lon="-0.27528">
        <ele>50.5</ele>
        <time>2020-09-08T16:40:44Z</time>
      </trkpt>
      <trkpt lat="44.49577" lon="-0.27528">
        <ele>50.5</ele>
        <time>2020-09-08T16:40:45Z</time>
      </trkpt>
      <trkpt lat="44.49577" lon="-0.27528">
        <ele>50.5</ele>
        <time>2020-09-08T16:40:47Z</time>
      </trkpt>
      <trkpt lat="44.49577" lon="-0.27528">
        <ele>50.5</ele>
        <time>2020-09-08T16:40:49Z</time>
      </trkpt>
      <trkpt lat="44.49577" lon="-0.27528">
        <ele>50.5</ele>
        <time>2020-09-08T16:40:51Z</time>
      </trkpt>
      <trkpt lat="44.49577" lon="-0.27528">
        <ele>50.5</ele>
        <time>2020-09-08T16:40:52Z</time>
      </trkpt>
      <trkpt lat="44.49577" lon="-0.27528">
        <ele>50.5</ele>
        <time>2020-09-08T16:40:54Z</time>
      </trkpt>
      <trkpt lat="44.49577" lon="-0.27528">
        <ele>50.5</ele>
        <time>2020-09-08T16:40:56Z</time>
      </trkpt>
      <trkpt lat="44.49577" lon="-0.27528">
        <ele>50.5</ele>
        <time>2020-09-08T16:40:57Z</time>
      </trkpt>
      <trkpt lat="44.49577" lon="-0.27528">
        <ele>50.5</ele>
        <time>2020-09-08T16:40:59Z</time>
      </trkpt>
      <trkpt lat="44.49577" lon="-0.27528">
        <ele>50.5</ele>
        <time>2020-09-08T16:41:00Z</time>
      </trkpt>
      <trkpt lat="44.49577" lon="-0.27528">
        <ele>50.5</ele>
        <time>2020-09-08T16:41:02Z</time>
      </trkpt>
      <trkpt lat="44.49577" lon="-0.27528">
        <ele>50.5</ele>
        <time>2020-09-08T16:41:03Z</time>
      </trkpt>
      <trkpt lat="44.49577" lon="-0.27528">
        <ele>50.5</ele>
        <time>2020-09-08T16:41:05Z</time>
      </trkpt>
      <trkpt lat="44.49577" lon="-0.27528">
        <ele>50.5</ele>
        <time>2020-09-08T16:41:07Z</time>
      </trkpt>
      <trkpt lat="44.49577" lon="-0.27528">
        <ele>50.5</ele>
        <time>2020-09-08T16:41:08Z</time>
      </trkpt>
      <trkpt lat="44.49577" lon="-0.27528">
        <ele>50.5</ele>
        <time>2020-09-08T16:41:10Z</time>
      </trkpt>
      <trkpt lat="44.49577" lon="-0.27528">
        <ele>50.5</ele>
        <time>2020-09-08T16:41:12Z</time>
      </trkpt>
      <trkpt lat="44.49577" lon="-0.27528">
        <ele>50.5</ele>
        <time>2020-09-08T16:41:13Z</time>
      </trkpt>
      <trkpt lat="44.49577" lon="-0.27528">
        <ele>50.5</ele>
        <time>2020-09-08T16:41:15Z</time>
      </trkpt>
      <trkpt lat="44.49577" lon="-0.27528">
        <ele>50.5</ele>
        <time>2020-09-08T16:41:17Z</time>
      </trkpt>
      <trkpt lat="44.49577" lon="-0.27528">
        <ele>50.5</ele>
        <time>2020-09-08T16:41:18Z</time>
      </trkpt>
      <trkpt lat="44.49579" lon="-0.27529">
        <ele>50.4</ele>
        <time>2020-09-08T16:41:20Z</time>
      </trkpt>
      <trkpt lat="44.4958" lon="-0.27532">
        <ele>50.3</ele>
        <time>2020-09-08T16:41:22Z</time>
      </trkpt>
      <trkpt lat="44.4958" lon="-0.27532">
        <ele>50.3</ele>
        <time>2020-09-08T16:41:23Z</time>
      </trkpt>
      <trkpt lat="44.49579" lon="-0.27532">
        <ele>50.2</ele>
        <time>2020-09-08T16:41:25Z</time>
      </trkpt>
      <trkpt lat="44.49578" lon="-0.27531">
        <ele>50.2</ele>
        <time>2020-09-08T16:41:27Z</time>
      </trkpt>
      <trkpt lat="44.49578" lon="-0.2753">
        <ele>50.1</ele>
        <time>2020-09-08T16:41:28Z</time>
      </trkpt>
      <trkpt lat="44.49577" lon="-0.27529">
        <ele>50.1</ele>
        <time>2020-09-08T16:41:29Z</time>
      </trkpt>
      <trkpt lat="44.49577" lon="-0.2753">
        <ele>50.1</ele>
        <time>2020-09-08T16:41:30Z</time>
      </trkpt>
      <trkpt lat="44.49577" lon="-0.2753">
        <ele>50.1</ele>
        <time>2020-09-08T16:41:32Z</time>
      </trkpt>
      <trkpt lat="44.49577" lon="-0.27532">
        <ele>50</ele>
        <time>2020-09-08T16:41:33Z</time>
      </trkpt>
      <trkpt lat="44.49577" lon="-0.27532">
        <ele>50</ele>
        <time>2020-09-08T16:41:34Z</time>
      </trkpt>
      <trkpt lat="44.49577" lon="-0.27532">
        <ele>50</ele>
        <time>2020-09-08T16:41:35Z</time>
      </trkpt>
      <trkpt lat="44.49576" lon="-0.27531">
        <ele>50</ele>
        <time>2020-09-08T16:41:37Z</time>
      </trkpt>
      <trkpt lat="44.49575" lon="-0.2753">
        <ele>49.9</ele>
        <time>2020-09-08T16:41:38Z</time>
      </trkpt>
      <trkpt lat="44.49574" lon="-0.27529">
        <ele>49.9</ele>
        <time>2020-09-08T16:41:39Z</time>
      </trkpt>
      <trkpt lat="44.49573" lon="-0.27528">
        <ele>49.8</ele>
        <time>2020-09-08T16:41:40Z</time>
      </trkpt>
      <trkpt lat="44.49571" lon="-0.27526">
        <ele>49.7</ele>
        <time>2020-09-08T16:41:42Z</time>
      </trkpt>
      <trkpt lat="44.4957" lon="-0.27525">
        <ele>49.6</ele>
        <time>2020-09-08T16:41:43Z</time>
      </trkpt>
      <trkpt lat="44.49569" lon="-0.27524">
        <ele>49.5</ele>
        <time>2020-09-08T16:41:45Z</time>
      </trkpt>
      <trkpt lat="44.49567" lon="-0.27522">
        <ele>49.4</ele>
        <time>2020-09-08T16:41:46Z</time>
      </trkpt>
      <trkpt lat="44.49564" lon="-0.27519">
        <ele>49.3</ele>
        <time>2020-09-08T16:41:48Z</time>
      </trkpt>
      <trkpt lat="44.49563" lon="-0.27518">
        <ele>49.2</ele>
        <time>2020-09-08T16:41:49Z</time>
      </trkpt>
      <trkpt lat="44.49562" lon="-0.27517">
        <ele>49.1</ele>
        <time>2020-09-08T16:41:50Z</time>
      </trkpt>
      <trkpt lat="44.49561" lon="-0.27515">
        <ele>49</ele>
        <time>2020-09-08T16:41:51Z</time>
      </trkpt>
      <trkpt lat="44.49558" lon="-0.27511">
        <ele>48.8</ele>
        <time>2020-09-08T16:41:53Z</time>
      </trkpt>
      <trkpt lat="44.49557" lon="-0.2751">
        <ele>48.8</ele>
        <time>2020-09-08T16:41:54Z</time>
      </trkpt>
      <trkpt lat="44.49556" lon="-0.27507">
        <ele>48.6</ele>
        <time>2020-09-08T16:41:55Z</time>
      </trkpt>
      <trkpt lat="44.49555" lon="-0.27506">
        <ele>48.6</ele>
        <time>2020-09-08T16:41:56Z</time>
      </trkpt>
      <trkpt lat="44.49555" lon="-0.27505">
        <ele>48.5</ele>
        <time>2020-09-08T16:41:57Z</time>
      </trkpt>
      <trkpt lat="44.49552" lon="-0.27501">
        <ele>48.4</ele>
        <time>2020-09-08T16:41:59Z</time>
      </trkpt>
      <trkpt lat="44.49552" lon="-0.27499">
        <ele>48.3</ele>
        <time>2020-09-08T16:42:01Z</time>
      </trkpt>
      <trkpt lat="44.49551" lon="-0.27498">
        <ele>48.2</ele>
        <time>2020-09-08T16:42:02Z</time>
      </trkpt>
      <trkpt lat="44.4955" lon="-0.27496">
        <ele>48.1</ele>
        <time>2020-09-08T16:42:03Z</time>
      </trkpt>
      <trkpt lat="44.49549" lon="-0.27494">
        <ele>48.1</ele>
        <time>2020-09-08T16:42:04Z</time>
      </trkpt>
      <trkpt lat="44.49548" lon="-0.27492">
        <ele>47.9</ele>
        <time>2020-09-08T16:42:05Z</time>
      </trkpt>
      <trkpt lat="44.49548" lon="-0.27491">
        <ele>47.9</ele>
        <time>2020-09-08T16:42:06Z</time>
      </trkpt>
      <trkpt lat="44.49547" lon="-0.2749">
        <ele>47.9</ele>
        <time>2020-09-08T16:42:07Z</time>
      </trkpt>
      <trkpt lat="44.49546" lon="-0.27487">
        <ele>47.7</ele>
        <time>2020-09-08T16:42:09Z</time>
      </trkpt>
      <trkpt lat="44.49545" lon="-0.27486">
        <ele>47.7</ele>
        <time>2020-09-08T16:42:10Z</time>
      </trkpt>
      <trkpt lat="44.49544" lon="-0.27484">
        <ele>47.6</ele>
        <time>2020-09-08T16:42:11Z</time>
      </trkpt>
      <trkpt lat="44.49543" lon="-0.27483">
        <ele>47.5</ele>
        <time>2020-09-08T16:42:12Z</time>
      </trkpt>
      <trkpt lat="44.49543" lon="-0.27482">
        <ele>47.5</ele>
        <time>2020-09-08T16:42:13Z</time>
      </trkpt>
      <trkpt lat="44.49542" lon="-0.2748">
        <ele>47.4</ele>
        <time>2020-09-08T16:42:14Z</time>
      </trkpt>
      <trkpt lat="44.49541" lon="-0.27478">
        <ele>47.3</ele>
        <time>2020-09-08T16:42:15Z</time>
      </trkpt>
      <trkpt lat="44.4954" lon="-0.27477">
        <ele>47.2</ele>
        <time>2020-09-08T16:42:16Z</time>
      </trkpt>
      <trkpt lat="44.49539" lon="-0.27475">
        <ele>47.2</ele>
        <time>2020-09-08T16:42:17Z</time>
      </trkpt>
      <trkpt lat="44.49537" lon="-0.27472">
        <ele>47</ele>
        <time>2020-09-08T16:42:19Z</time>
      </trkpt>
      <trkpt lat="44.49537" lon="-0.27472">
        <ele>47</ele>
        <time>2020-09-08T16:42:20Z</time>
      </trkpt>
      <trkpt lat="44.49536" lon="-0.2747">
        <ele>46.9</ele>
        <time>2020-09-08T16:42:21Z</time>
      </trkpt>
      <trkpt lat="44.49534" lon="-0.27468">
        <ele>46.8</ele>
        <time>2020-09-08T16:42:23Z</time>
      </trkpt>
      <trkpt lat="44.49533" lon="-0.27466">
        <ele>46.6</ele>
        <time>2020-09-08T16:42:24Z</time>
      </trkpt>
      <trkpt lat="44.49531" lon="-0.27464">
        <ele>46.5</ele>
        <time>2020-09-08T16:42:26Z</time>
      </trkpt>
      <trkpt lat="44.4953" lon="-0.27463">
        <ele>46.5</ele>
        <time>2020-09-08T16:42:27Z</time>
      </trkpt>
      <trkpt lat="44.49529" lon="-0.2746">
        <ele>46.4</ele>
        <time>2020-09-08T16:42:28Z</time>
      </trkpt>
      <trkpt lat="44.49528" lon="-0.27459">
        <ele>46.3</ele>
        <time>2020-09-08T16:42:29Z</time>
      </trkpt>
      <trkpt lat="44.49526" lon="-0.27457">
        <ele>46.2</ele>
        <time>2020-09-08T16:42:31Z</time>
      </trkpt>
      <trkpt lat="44.49525" lon="-0.27456">
        <ele>46.1</ele>
        <time>2020-09-08T16:42:33Z</time>
      </trkpt>
      <trkpt lat="44.49524" lon="-0.27454">
        <ele>46</ele>
        <time>2020-09-08T16:42:34Z</time>
      </trkpt>
      <trkpt lat="44.49523" lon="-0.27453">
        <ele>45.9</ele>
        <time>2020-09-08T16:42:35Z</time>
      </trkpt>
      <trkpt lat="44.49522" lon="-0.27451">
        <ele>45.9</ele>
        <time>2020-09-08T16:42:36Z</time>
      </trkpt>
      <trkpt lat="44.4952" lon="-0.27448">
        <ele>45.7</ele>
        <time>2020-09-08T16:42:38Z</time>
      </trkpt>
      <trkpt lat="44.49519" lon="-0.27447">
        <ele>45.6</ele>
        <time>2020-09-08T16:42:39Z</time>
      </trkpt>
      <trkpt lat="44.49517" lon="-0.27445">
        <ele>45.5</ele>
        <time>2020-09-08T16:42:40Z</time>
      </trkpt>
      <trkpt lat="44.49517" lon="-0.27444">
        <ele>45.4</ele>
        <time>2020-09-08T16:42:41Z</time>
      </trkpt>
      <trkpt lat="44.49515" lon="-0.27442">
        <ele>45.3</ele>
        <time>2020-09-08T16:42:42Z</time>
      </trkpt>
      <trkpt lat="44.49514" lon="-0.27441">
        <ele>45.3</ele>
        <time>2020-09-08T16:42:43Z</time>
      </trkpt>
      <trkpt lat="44.49513" lon="-0.27439">
        <ele>45.2</ele>
        <time>2020-09-08T16:42:45Z</time>
      </trkpt>
      <trkpt lat="44.49512" lon="-0.27439">
        <ele>45.1</ele>
        <time>2020-09-08T16:42:46Z</time>
      </trkpt>
      <trkpt lat="44.49511" lon="-0.27437">
        <ele>45.1</ele>
        <time>2020-09-08T16:42:47Z</time>
      </trkpt>
      <trkpt lat="44.4951" lon="-0.27436">
        <ele>45</ele>
        <time>2020-09-08T16:42:48Z</time>
      </trkpt>
      <trkpt lat="44.49509" lon="-0.27434">
        <ele>44.9</ele>
        <time>2020-09-08T16:42:50Z</time>
      </trkpt>
      <trkpt lat="44.49508" lon="-0.27433">
        <ele>44.8</ele>
        <time>2020-09-08T16:42:51Z</time>
      </trkpt>
      <trkpt lat="44.49507" lon="-0.27431">
        <ele>44.8</ele>
        <time>2020-09-08T16:42:52Z</time>
      </trkpt>
      <trkpt lat="44.49505" lon="-0.27428">
        <ele>44.6</ele>
        <time>2020-09-08T16:42:54Z</time>
      </trkpt>
      <trkpt lat="44.49504" lon="-0.27426">
        <ele>44.5</ele>
        <time>2020-09-08T16:42:55Z</time>
      </trkpt>
      <trkpt lat="44.49503" lon="-0.27424">
        <ele>44.4</ele>
        <time>2020-09-08T16:42:57Z</time>
      </trkpt>
      <trkpt lat="44.49502" lon="-0.27422">
        <ele>44.3</ele>
        <time>2020-09-08T16:42:58Z</time>
      </trkpt>
      <trkpt lat="44.49501" lon="-0.2742">
        <ele>44.2</ele>
        <time>2020-09-08T16:42:59Z</time>
      </trkpt>
      <trkpt lat="44.49501" lon="-0.27419">
        <ele>44.2</ele>
        <time>2020-09-08T16:43:00Z</time>
      </trkpt>
      <trkpt lat="44.495" lon="-0.27417">
        <ele>44.1</ele>
        <time>2020-09-08T16:43:01Z</time>
      </trkpt>
      <trkpt lat="44.49499" lon="-0.27414">
        <ele>44</ele>
        <time>2020-09-08T16:43:03Z</time>
      </trkpt>
      <trkpt lat="44.49498" lon="-0.27413">
        <ele>44</ele>
        <time>2020-09-08T16:43:05Z</time>
      </trkpt>
      <trkpt lat="44.49498" lon="-0.27411">
        <ele>43.9</ele>
        <time>2020-09-08T16:43:06Z</time>
      </trkpt>
      <trkpt lat="44.49497" lon="-0.2741">
        <ele>43.9</ele>
        <time>2020-09-08T16:43:07Z</time>
      </trkpt>
      <trkpt lat="44.49496" lon="-0.27407">
        <ele>43.8</ele>
        <time>2020-09-08T16:43:08Z</time>
      </trkpt>
      <trkpt lat="44.49496" lon="-0.27405">
        <ele>43.7</ele>
        <time>2020-09-08T16:43:09Z</time>
      </trkpt>
      <trkpt lat="44.49496" lon="-0.27403">
        <ele>43.6</ele>
        <time>2020-09-08T16:43:10Z</time>
      </trkpt>
      <trkpt lat="44.49495" lon="-0.27402">
        <ele>43.6</ele>
        <time>2020-09-08T16:43:11Z</time>
      </trkpt>
      <trkpt lat="44.49497" lon="-0.274">
        <ele>43.5</ele>
        <time>2020-09-08T16:43:14Z</time>
      </trkpt>
      <trkpt lat="44.49498" lon="-0.274">
        <ele>43.5</ele>
        <time>2020-09-08T16:43:15Z</time>
      </trkpt>
      <trkpt lat="44.49498" lon="-0.274">
        <ele>43.5</ele>
        <time>2020-09-08T16:43:17Z</time>
      </trkpt>
      <trkpt lat="44.49498" lon="-0.27399">
        <ele>43.4</ele>
        <time>2020-09-08T16:43:18Z</time>
      </trkpt>
      <trkpt lat="44.49498" lon="-0.27398">
        <ele>43.4</ele>
        <time>2020-09-08T16:43:19Z</time>
      </trkpt>
      <trkpt lat="44.49498" lon="-0.27397">
        <ele>43.4</ele>
        <time>2020-09-08T16:43:20Z</time>
      </trkpt>
      <trkpt lat="44.49497" lon="-0.27394">
        <ele>43.3</ele>
        <time>2020-09-08T16:43:22Z</time>
      </trkpt>
      <trkpt lat="44.49497" lon="-0.27392">
        <ele>43.3</ele>
        <time>2020-09-08T16:43:24Z</time>
      </trkpt>
      <trkpt lat="44.49498" lon="-0.27392">
        <ele>43.2</ele>
        <time>2020-09-08T16:43:26Z</time>
      </trkpt>
      <trkpt lat="44.49498" lon="-0.27391">
        <ele>43.2</ele>
        <time>2020-09-08T16:43:28Z</time>
      </trkpt>
      <trkpt lat="44.49498" lon="-0.2739">
        <ele>43.2</ele>
        <time>2020-09-08T16:43:29Z</time>
      </trkpt>
      <trkpt lat="44.49498" lon="-0.27389">
        <ele>43.2</ele>
        <time>2020-09-08T16:43:30Z</time>
      </trkpt>
      <trkpt lat="44.49497" lon="-0.27387">
        <ele>43.1</ele>
        <time>2020-09-08T16:43:31Z</time>
      </trkpt>
      <trkpt lat="44.49497" lon="-0.27386">
        <ele>43.1</ele>
        <time>2020-09-08T16:43:32Z</time>
      </trkpt>
      <trkpt lat="44.49497" lon="-0.27384">
        <ele>43.1</ele>
        <time>2020-09-08T16:43:33Z</time>
      </trkpt>
      <trkpt lat="44.49496" lon="-0.27382">
        <ele>43</ele>
        <time>2020-09-08T16:43:34Z</time>
      </trkpt>
      <trkpt lat="44.49495" lon="-0.27381">
        <ele>43</ele>
        <time>2020-09-08T16:43:35Z</time>
      </trkpt>
      <trkpt lat="44.49495" lon="-0.27379">
        <ele>43</ele>
        <time>2020-09-08T16:43:36Z</time>
      </trkpt>
      <trkpt lat="44.49494" lon="-0.27378">
        <ele>42.9</ele>
        <time>2020-09-08T16:43:37Z</time>
      </trkpt>
      <trkpt lat="44.49493" lon="-0.27374">
        <ele>42.9</ele>
        <time>2020-09-08T16:43:38Z</time>
      </trkpt>
      <trkpt lat="44.49493" lon="-0.27372">
        <ele>42.8</ele>
        <time>2020-09-08T16:43:40Z</time>
      </trkpt>
      <trkpt lat="44.49492" lon="-0.2737">
        <ele>42.8</ele>
        <time>2020-09-08T16:43:41Z</time>
      </trkpt>
      <trkpt lat="44.49492" lon="-0.27368">
        <ele>42.8</ele>
        <time>2020-09-08T16:43:42Z</time>
      </trkpt>
      <trkpt lat="44.49491" lon="-0.27367">
        <ele>42.8</ele>
        <time>2020-09-08T16:43:43Z</time>
      </trkpt>
      <trkpt lat="44.4949" lon="-0.27364">
        <ele>42.7</ele>
        <time>2020-09-08T16:43:45Z</time>
      </trkpt>
      <trkpt lat="44.4949" lon="-0.27363">
        <ele>42.7</ele>
        <time>2020-09-08T16:43:47Z</time>
      </trkpt>
      <trkpt lat="44.49489" lon="-0.27362">
        <ele>42.7</ele>
        <time>2020-09-08T16:43:48Z</time>
      </trkpt>
      <trkpt lat="44.49488" lon="-0.2736">
        <ele>42.7</ele>
        <time>2020-09-08T16:43:49Z</time>
      </trkpt>
      <trkpt lat="44.49488" lon="-0.27359">
        <ele>42.7</ele>
        <time>2020-09-08T16:43:51Z</time>
      </trkpt>
      <trkpt lat="44.49487" lon="-0.27358">
        <ele>42.6</ele>
        <time>2020-09-08T16:43:52Z</time>
      </trkpt>
      <trkpt lat="44.49486" lon="-0.27356">
        <ele>42.6</ele>
        <time>2020-09-08T16:43:53Z</time>
      </trkpt>
      <trkpt lat="44.49485" lon="-0.27354">
        <ele>42.6</ele>
        <time>2020-09-08T16:43:54Z</time>
      </trkpt>
      <trkpt lat="44.49484" lon="-0.27352">
        <ele>42.5</ele>
        <time>2020-09-08T16:43:56Z</time>
      </trkpt>
      <trkpt lat="44.49484" lon="-0.2735">
        <ele>42.5</ele>
        <time>2020-09-08T16:43:57Z</time>
      </trkpt>
      <trkpt lat="44.49482" lon="-0.27348">
        <ele>42.5</ele>
        <time>2020-09-08T16:43:58Z</time>
      </trkpt>
      <trkpt lat="44.49482" lon="-0.27347">
        <ele>42.5</ele>
        <time>2020-09-08T16:44:00Z</time>
      </trkpt>
      <trkpt lat="44.49481" lon="-0.27345">
        <ele>42.5</ele>
        <time>2020-09-08T16:44:01Z</time>
      </trkpt>
      <trkpt lat="44.4948" lon="-0.27343">
        <ele>42.4</ele>
        <time>2020-09-08T16:44:02Z</time>
      </trkpt>
      <trkpt lat="44.49479" lon="-0.2734">
        <ele>42.4</ele>
        <time>2020-09-08T16:44:04Z</time>
      </trkpt>
      <trkpt lat="44.49478" lon="-0.27338">
        <ele>42.4</ele>
        <time>2020-09-08T16:44:05Z</time>
      </trkpt>
      <trkpt lat="44.49477" lon="-0.27336">
        <ele>42.4</ele>
        <time>2020-09-08T16:44:06Z</time>
      </trkpt>
      <trkpt lat="44.49477" lon="-0.27334">
        <ele>42.4</ele>
        <time>2020-09-08T16:44:07Z</time>
      </trkpt>
      <trkpt lat="44.49476" lon="-0.27332">
        <ele>42.4</ele>
        <time>2020-09-08T16:44:08Z</time>
      </trkpt>
      <trkpt lat="44.49474" lon="-0.27328">
        <ele>42.4</ele>
        <time>2020-09-08T16:44:10Z</time>
      </trkpt>
      <trkpt lat="44.49474" lon="-0.27327">
        <ele>42.4</ele>
        <time>2020-09-08T16:44:11Z</time>
      </trkpt>
      <trkpt lat="44.49473" lon="-0.27325">
        <ele>42.4</ele>
        <time>2020-09-08T16:44:12Z</time>
      </trkpt>
      <trkpt lat="44.49473" lon="-0.27324">
        <ele>42.4</ele>
        <time>2020-09-08T16:44:13Z</time>
      </trkpt>
      <trkpt lat="44.49471" lon="-0.27319">
        <ele>42.4</ele>
        <time>2020-09-08T16:44:15Z</time>
      </trkpt>
      <trkpt lat="44.49471" lon="-0.27318">
        <ele>42.4</ele>
        <time>2020-09-08T16:44:16Z</time>
      </trkpt>
      <trkpt lat="44.49471" lon="-0.27316">
        <ele>42.4</ele>
        <time>2020-09-08T16:44:17Z</time>
      </trkpt>
      <trkpt lat="44.4947" lon="-0.27315">
        <ele>42.4</ele>
        <time>2020-09-08T16:44:18Z</time>
      </trkpt>
      <trkpt lat="44.49469" lon="-0.27311">
        <ele>42.4</ele>
        <time>2020-09-08T16:44:19Z</time>
      </trkpt>
      <trkpt lat="44.49468" lon="-0.27309">
        <ele>42.4</ele>
        <time>2020-09-08T16:44:21Z</time>
      </trkpt>
      <trkpt lat="44.49468" lon="-0.27307">
        <ele>42.5</ele>
        <time>2020-09-08T16:44:22Z</time>
      </trkpt>
      <trkpt lat="44.49468" lon="-0.27305">
        <ele>42.5</ele>
        <time>2020-09-08T16:44:23Z</time>
      </trkpt>
      <trkpt lat="44.49467" lon="-0.27304">
        <ele>42.5</ele>
        <time>2020-09-08T16:44:24Z</time>
      </trkpt>
      <trkpt lat="44.49467" lon="-0.27302">
        <ele>42.5</ele>
        <time>2020-09-08T16:44:25Z</time>
      </trkpt>
      <trkpt lat="44.49466" lon="-0.27299">
        <ele>42.5</ele>
        <time>2020-09-08T16:44:27Z</time>
      </trkpt>
      <trkpt lat="44.49465" lon="-0.27298">
        <ele>42.6</ele>
        <time>2020-09-08T16:44:28Z</time>
      </trkpt>
      <trkpt lat="44.49465" lon="-0.27295">
        <ele>42.6</ele>
        <time>2020-09-08T16:44:29Z</time>
      </trkpt>
      <trkpt lat="44.49464" lon="-0.27292">
        <ele>42.6</ele>
        <time>2020-09-08T16:44:31Z</time>
      </trkpt>
      <trkpt lat="44.49464" lon="-0.27291">
        <ele>42.6</ele>
        <time>2020-09-08T16:44:32Z</time>
      </trkpt>
      <trkpt lat="44.49464" lon="-0.27287">
        <ele>42.7</ele>
        <time>2020-09-08T16:44:34Z</time>
      </trkpt>
      <trkpt lat="44.49464" lon="-0.27286">
        <ele>42.7</ele>
        <time>2020-09-08T16:44:36Z</time>
      </trkpt>
      <trkpt lat="44.49464" lon="-0.27286">
        <ele>42.7</ele>
        <time>2020-09-08T16:44:37Z</time>
      </trkpt>
      <trkpt lat="44.49464" lon="-0.27286">
        <ele>42.7</ele>
        <time>2020-09-08T16:44:39Z</time>
      </trkpt>
      <trkpt lat="44.49465" lon="-0.27287">
        <ele>42.7</ele>
        <time>2020-09-08T16:44:41Z</time>
      </trkpt>
      <trkpt lat="44.49465" lon="-0.27287">
        <ele>42.7</ele>
        <time>2020-09-08T16:44:43Z</time>
      </trkpt>
      <trkpt lat="44.49465" lon="-0.27288">
        <ele>42.7</ele>
        <time>2020-09-08T16:44:45Z</time>
      </trkpt>
      <trkpt lat="44.49465" lon="-0.27288">
        <ele>42.7</ele>
        <time>2020-09-08T16:44:47Z</time>
      </trkpt>
      <trkpt lat="44.49466" lon="-0.27288">
        <ele>42.7</ele>
        <time>2020-09-08T16:44:49Z</time>
      </trkpt>
      <trkpt lat="44.49466" lon="-0.27288">
        <ele>42.8</ele>
        <time>2020-09-08T16:44:50Z</time>
      </trkpt>
      <trkpt lat="44.49465" lon="-0.27287">
        <ele>42.8</ele>
        <time>2020-09-08T16:44:52Z</time>
      </trkpt>
      <trkpt lat="44.49465" lon="-0.27286">
        <ele>42.8</ele>
        <time>2020-09-08T16:44:53Z</time>
      </trkpt>
      <trkpt lat="44.49465" lon="-0.27284">
        <ele>42.8</ele>
        <time>2020-09-08T16:44:54Z</time>
      </trkpt>
      <trkpt lat="44.49464" lon="-0.27283">
        <ele>42.8</ele>
        <time>2020-09-08T16:44:55Z</time>
      </trkpt>
      <trkpt lat="44.49464" lon="-0.27281">
        <ele>42.9</ele>
        <time>2020-09-08T16:44:56Z</time>
      </trkpt>
      <trkpt lat="44.49463" lon="-0.27279">
        <ele>42.9</ele>
        <time>2020-09-08T16:44:57Z</time>
      </trkpt>
      <trkpt lat="44.49463" lon="-0.27276">
        <ele>42.9</ele>
        <time>2020-09-08T16:44:59Z</time>
      </trkpt>
      <trkpt lat="44.49462" lon="-0.27275">
        <ele>43</ele>
        <time>2020-09-08T16:45:00Z</time>
      </trkpt>
      <trkpt lat="44.49462" lon="-0.27273">
        <ele>43</ele>
        <time>2020-09-08T16:45:01Z</time>
      </trkpt>
      <trkpt lat="44.49461" lon="-0.27271">
        <ele>43</ele>
        <time>2020-09-08T16:45:02Z</time>
      </trkpt>
      <trkpt lat="44.49461" lon="-0.27268">
        <ele>43.1</ele>
        <time>2020-09-08T16:45:04Z</time>
      </trkpt>
      <trkpt lat="44.4946" lon="-0.27267">
        <ele>43.1</ele>
        <time>2020-09-08T16:45:05Z</time>
      </trkpt>
      <trkpt lat="44.4946" lon="-0.27265">
        <ele>43.1</ele>
        <time>2020-09-08T16:45:06Z</time>
      </trkpt>
      <trkpt lat="44.49459" lon="-0.27263">
        <ele>43.2</ele>
        <time>2020-09-08T16:45:07Z</time>
      </trkpt>
      <trkpt lat="44.49458" lon="-0.2726">
        <ele>43.3</ele>
        <time>2020-09-08T16:45:09Z</time>
      </trkpt>
      <trkpt lat="44.49458" lon="-0.27259">
        <ele>43.3</ele>
        <time>2020-09-08T16:45:10Z</time>
      </trkpt>
      <trkpt lat="44.49457" lon="-0.27256">
        <ele>43.4</ele>
        <time>2020-09-08T16:45:11Z</time>
      </trkpt>
      <trkpt lat="44.49456" lon="-0.27255">
        <ele>43.4</ele>
        <time>2020-09-08T16:45:12Z</time>
      </trkpt>
      <trkpt lat="44.49456" lon="-0.27254">
        <ele>43.4</ele>
        <time>2020-09-08T16:45:13Z</time>
      </trkpt>
      <trkpt lat="44.49456" lon="-0.27252">
        <ele>43.5</ele>
        <time>2020-09-08T16:45:15Z</time>
      </trkpt>
      <trkpt lat="44.49455" lon="-0.27249">
        <ele>43.6</ele>
        <time>2020-09-08T16:45:16Z</time>
      </trkpt>
      <trkpt lat="44.49455" lon="-0.27247">
        <ele>43.6</ele>
        <time>2020-09-08T16:45:17Z</time>
      </trkpt>
      <trkpt lat="44.49454" lon="-0.27244">
        <ele>43.8</ele>
        <time>2020-09-08T16:45:19Z</time>
      </trkpt>
      <trkpt lat="44.49454" lon="-0.27242">
        <ele>43.8</ele>
        <time>2020-09-08T16:45:20Z</time>
      </trkpt>
      <trkpt lat="44.49453" lon="-0.2724">
        <ele>43.9</ele>
        <time>2020-09-08T16:45:21Z</time>
      </trkpt>
      <trkpt lat="44.49452" lon="-0.27236">
        <ele>44.1</ele>
        <time>2020-09-08T16:45:23Z</time>
      </trkpt>
      <trkpt lat="44.49452" lon="-0.27235">
        <ele>44.1</ele>
        <time>2020-09-08T16:45:24Z</time>
      </trkpt>
      <trkpt lat="44.49452" lon="-0.27233">
        <ele>44.2</ele>
        <time>2020-09-08T16:45:25Z</time>
      </trkpt>
      <trkpt lat="44.49451" lon="-0.27231">
        <ele>44.3</ele>
        <time>2020-09-08T16:45:26Z</time>
      </trkpt>
      <trkpt lat="44.49451" lon="-0.2723">
        <ele>44.3</ele>
        <time>2020-09-08T16:45:27Z</time>
      </trkpt>
      <trkpt lat="44.49451" lon="-0.27228">
        <ele>44.4</ele>
        <time>2020-09-08T16:45:28Z</time>
      </trkpt>
      <trkpt lat="44.49451" lon="-0.27226">
        <ele>44.5</ele>
        <time>2020-09-08T16:45:30Z</time>
      </trkpt>
      <trkpt lat="44.4945" lon="-0.27225">
        <ele>44.5</ele>
        <time>2020-09-08T16:45:31Z</time>
      </trkpt>
      <trkpt lat="44.4945" lon="-0.27224">
        <ele>44.6</ele>
        <time>2020-09-08T16:45:32Z</time>
      </trkpt>
      <trkpt lat="44.4945" lon="-0.27222">
        <ele>44.7</ele>
        <time>2020-09-08T16:45:33Z</time>
      </trkpt>
      <trkpt lat="44.4945" lon="-0.2722">
        <ele>44.8</ele>
        <time>2020-09-08T16:45:35Z</time>
      </trkpt>
      <trkpt lat="44.49449" lon="-0.27218">
        <ele>44.8</ele>
        <time>2020-09-08T16:45:36Z</time>
      </trkpt>
      <trkpt lat="44.49449" lon="-0.27217">
        <ele>44.9</ele>
        <time>2020-09-08T16:45:37Z</time>
      </trkpt>
      <trkpt lat="44.49449" lon="-0.27214">
        <ele>45.1</ele>
        <time>2020-09-08T16:45:39Z</time>
      </trkpt>
      <trkpt lat="44.49449" lon="-0.27213">
        <ele>45.1</ele>
        <time>2020-09-08T16:45:40Z</time>
      </trkpt>
      <trkpt lat="44.49449" lon="-0.27212">
        <ele>45.2</ele>
        <time>2020-09-08T16:45:41Z</time>
      </trkpt>
      <trkpt lat="44.49449" lon="-0.27211">
        <ele>45.2</ele>
        <time>2020-09-08T16:45:43Z</time>
      </trkpt>
      <trkpt lat="44.49449" lon="-0.2721">
        <ele>45.2</ele>
        <time>2020-09-08T16:45:44Z</time>
      </trkpt>
      <trkpt lat="44.49449" lon="-0.27209">
        <ele>45.3</ele>
        <time>2020-09-08T16:45:46Z</time>
      </trkpt>
      <trkpt lat="44.49449" lon="-0.27209">
        <ele>45.3</ele>
        <time>2020-09-08T16:45:48Z</time>
      </trkpt>
      <trkpt lat="44.49448" lon="-0.27208">
        <ele>45.3</ele>
        <time>2020-09-08T16:45:49Z</time>
      </trkpt>
      <trkpt lat="44.49448" lon="-0.27207">
        <ele>45.4</ele>
        <time>2020-09-08T16:45:50Z</time>
      </trkpt>
      <trkpt lat="44.49448" lon="-0.27206">
        <ele>45.4</ele>
        <time>2020-09-08T16:45:52Z</time>
      </trkpt>
      <trkpt lat="44.49448" lon="-0.27205">
        <ele>45.5</ele>
        <time>2020-09-08T16:45:53Z</time>
      </trkpt>
      <trkpt lat="44.49448" lon="-0.27204">
        <ele>45.6</ele>
        <time>2020-09-08T16:45:54Z</time>
      </trkpt>
      <trkpt lat="44.49448" lon="-0.27203">
        <ele>45.6</ele>
        <time>2020-09-08T16:45:55Z</time>
      </trkpt>
      <trkpt lat="44.49448" lon="-0.27202">
        <ele>45.6</ele>
        <time>2020-09-08T16:45:57Z</time>
      </trkpt>
      <trkpt lat="44.49448" lon="-0.27201">
        <ele>45.7</ele>
        <time>2020-09-08T16:45:58Z</time>
      </trkpt>
      <trkpt lat="44.49448" lon="-0.272">
        <ele>45.8</ele>
        <time>2020-09-08T16:45:59Z</time>
      </trkpt>
      <trkpt lat="44.49448" lon="-0.27199">
        <ele>45.8</ele>
        <time>2020-09-08T16:46:01Z</time>
      </trkpt>
      <trkpt lat="44.49447" lon="-0.27198">
        <ele>45.9</ele>
        <time>2020-09-08T16:46:02Z</time>
      </trkpt>
      <trkpt lat="44.49447" lon="-0.27197">
        <ele>45.9</ele>
        <time>2020-09-08T16:46:03Z</time>
      </trkpt>
      <trkpt lat="44.49447" lon="-0.27194">
        <ele>46</ele>
        <time>2020-09-08T16:46:04Z</time>
      </trkpt>
      <trkpt lat="44.49445" lon="-0.27193">
        <ele>46.2</ele>
        <time>2020-09-08T16:46:06Z</time>
      </trkpt>
      <trkpt lat="44.49444" lon="-0.27191">
        <ele>46.3</ele>
        <time>2020-09-08T16:46:07Z</time>
      </trkpt>
      <trkpt lat="44.49444" lon="-0.2719">
        <ele>46.4</ele>
        <time>2020-09-08T16:46:08Z</time>
      </trkpt>
      <trkpt lat="44.49443" lon="-0.27188">
        <ele>46.5</ele>
        <time>2020-09-08T16:46:09Z</time>
      </trkpt>
      <trkpt lat="44.49442" lon="-0.27186">
        <ele>46.7</ele>
        <time>2020-09-08T16:46:10Z</time>
      </trkpt>
      <trkpt lat="44.49441" lon="-0.27185">
        <ele>46.8</ele>
        <time>2020-09-08T16:46:12Z</time>
      </trkpt>
      <trkpt lat="44.49441" lon="-0.27184">
        <ele>46.8</ele>
        <time>2020-09-08T16:46:13Z</time>
      </trkpt>
      <trkpt lat="44.4944" lon="-0.27182">
        <ele>46.9</ele>
        <time>2020-09-08T16:46:14Z</time>
      </trkpt>
      <trkpt lat="44.49439" lon="-0.2718">
        <ele>47.1</ele>
        <time>2020-09-08T16:46:15Z</time>
      </trkpt>
      <trkpt lat="44.49438" lon="-0.27179">
        <ele>47.2</ele>
        <time>2020-09-08T16:46:16Z</time>
      </trkpt>
      <trkpt lat="44.49437" lon="-0.27177">
        <ele>47.3</ele>
        <time>2020-09-08T16:46:17Z</time>
      </trkpt>
      <trkpt lat="44.49436" lon="-0.27175">
        <ele>47.5</ele>
        <time>2020-09-08T16:46:19Z</time>
      </trkpt>
      <trkpt lat="44.49435" lon="-0.27173">
        <ele>47.7</ele>
        <time>2020-09-08T16:46:20Z</time>
      </trkpt>
      <trkpt lat="44.49435" lon="-0.27171">
        <ele>47.8</ele>
        <time>2020-09-08T16:46:21Z</time>
      </trkpt>
      <trkpt lat="44.49434" lon="-0.27169">
        <ele>48</ele>
        <time>2020-09-08T16:46:23Z</time>
      </trkpt>
      <trkpt lat="44.49433" lon="-0.27168">
        <ele>48.1</ele>
        <time>2020-09-08T16:46:24Z</time>
      </trkpt>
      <trkpt lat="44.49433" lon="-0.27167">
        <ele>48.2</ele>
        <time>2020-09-08T16:46:25Z</time>
      </trkpt>
      <trkpt lat="44.49432" lon="-0.27166">
        <ele>48.2</ele>
        <time>2020-09-08T16:46:26Z</time>
      </trkpt>
      <trkpt lat="44.49432" lon="-0.27165">
        <ele>48.3</ele>
        <time>2020-09-08T16:46:27Z</time>
      </trkpt>
      <trkpt lat="44.49431" lon="-0.27163">
        <ele>48.4</ele>
        <time>2020-09-08T16:46:28Z</time>
      </trkpt>
      <trkpt lat="44.4943" lon="-0.27161">
        <ele>48.6</ele>
        <time>2020-09-08T16:46:30Z</time>
      </trkpt>
      <trkpt lat="44.4943" lon="-0.2716">
        <ele>48.7</ele>
        <time>2020-09-08T16:46:31Z</time>
      </trkpt>
      <trkpt lat="44.49429" lon="-0.27159">
        <ele>48.8</ele>
        <time>2020-09-08T16:46:32Z</time>
      </trkpt>
      <trkpt lat="44.49428" lon="-0.27157">
        <ele>48.9</ele>
        <time>2020-09-08T16:46:33Z</time>
      </trkpt>
      <trkpt lat="44.49428" lon="-0.27155">
        <ele>49</ele>
        <time>2020-09-08T16:46:35Z</time>
      </trkpt>
      <trkpt lat="44.49428" lon="-0.27154">
        <ele>49.1</ele>
        <time>2020-09-08T16:46:36Z</time>
      </trkpt>
      <trkpt lat="44.49428" lon="-0.27152">
        <ele>49.2</ele>
        <time>2020-09-08T16:46:37Z</time>
      </trkpt>
      <trkpt lat="44.49427" lon="-0.27151">
        <ele>49.3</ele>
        <time>2020-09-08T16:46:38Z</time>
      </trkpt>
      <trkpt lat="44.49427" lon="-0.2715">
        <ele>49.4</ele>
        <time>2020-09-08T16:46:39Z</time>
      </trkpt>
      <trkpt lat="44.49427" lon="-0.27148">
        <ele>49.5</ele>
        <time>2020-09-08T16:46:41Z</time>
      </trkpt>
      <trkpt lat="44.49426" lon="-0.27146">
        <ele>49.6</ele>
        <time>2020-09-08T16:46:42Z</time>
      </trkpt>
      <trkpt lat="44.49426" lon="-0.27144">
        <ele>49.7</ele>
        <time>2020-09-08T16:46:43Z</time>
      </trkpt>
      <trkpt lat="44.49426" lon="-0.27142">
        <ele>49.8</ele>
        <time>2020-09-08T16:46:44Z</time>
      </trkpt>
      <trkpt lat="44.49426" lon="-0.2714">
        <ele>50</ele>
        <time>2020-09-08T16:46:46Z</time>
      </trkpt>
      <trkpt lat="44.49426" lon="-0.27138">
        <ele>50.1</ele>
        <time>2020-09-08T16:46:47Z</time>
      </trkpt>
      <trkpt lat="44.49426" lon="-0.27136">
        <ele>50.2</ele>
        <time>2020-09-08T16:46:49Z</time>
      </trkpt>
      <trkpt lat="44.49426" lon="-0.27135">
        <ele>50.3</ele>
        <time>2020-09-08T16:46:50Z</time>
      </trkpt>
      <trkpt lat="44.49425" lon="-0.27134">
        <ele>50.4</ele>
        <time>2020-09-08T16:46:51Z</time>
      </trkpt>
      <trkpt lat="44.49425" lon="-0.27132">
        <ele>50.5</ele>
        <time>2020-09-08T16:46:53Z</time>
      </trkpt>
      <trkpt lat="44.49425" lon="-0.2713">
        <ele>50.7</ele>
        <time>2020-09-08T16:46:54Z</time>
      </trkpt>
      <trkpt lat="44.49425" lon="-0.27128">
        <ele>50.8</ele>
        <time>2020-09-08T16:46:55Z</time>
      </trkpt>
      <trkpt lat="44.49425" lon="-0.27127">
        <ele>50.9</ele>
        <time>2020-09-08T16:46:56Z</time>
      </trkpt>
      <trkpt lat="44.49425" lon="-0.27125">
        <ele>51</ele>
        <time>2020-09-08T16:46:58Z</time>
      </trkpt>
      <trkpt lat="44.49425" lon="-0.27123">
        <ele>51.1</ele>
        <time>2020-09-08T16:46:59Z</time>
      </trkpt>
      <trkpt lat="44.49425" lon="-0.27121">
        <ele>51.2</ele>
        <time>2020-09-08T16:47:00Z</time>
      </trkpt>
      <trkpt lat="44.49425" lon="-0.27119">
        <ele>51.4</ele>
        <time>2020-09-08T16:47:02Z</time>
      </trkpt>
      <trkpt lat="44.49426" lon="-0.27115">
        <ele>51.6</ele>
        <time>2020-09-08T16:47:03Z</time>
      </trkpt>
      <trkpt lat="44.49426" lon="-0.27114">
        <ele>51.7</ele>
        <time>2020-09-08T16:47:04Z</time>
      </trkpt>
      <trkpt lat="44.49426" lon="-0.27113">
        <ele>51.8</ele>
        <time>2020-09-08T16:47:05Z</time>
      </trkpt>
      <trkpt lat="44.49426" lon="-0.27111">
        <ele>52</ele>
        <time>2020-09-08T16:47:07Z</time>
      </trkpt>
      <trkpt lat="44.49427" lon="-0.27109">
        <ele>52.1</ele>
        <time>2020-09-08T16:47:08Z</time>
      </trkpt>
      <trkpt lat="44.49428" lon="-0.27106">
        <ele>52.3</ele>
        <time>2020-09-08T16:47:10Z</time>
      </trkpt>
      <trkpt lat="44.49428" lon="-0.27105">
        <ele>52.4</ele>
        <time>2020-09-08T16:47:11Z</time>
      </trkpt>
      <trkpt lat="44.49429" lon="-0.27104">
        <ele>52.5</ele>
        <time>2020-09-08T16:47:12Z</time>
      </trkpt>
      <trkpt lat="44.4943" lon="-0.27102">
        <ele>52.6</ele>
        <time>2020-09-08T16:47:13Z</time>
      </trkpt>
      <trkpt lat="44.49431" lon="-0.27101">
        <ele>52.7</ele>
        <time>2020-09-08T16:47:15Z</time>
      </trkpt>
      <trkpt lat="44.49431" lon="-0.271">
        <ele>52.8</ele>
        <time>2020-09-08T16:47:16Z</time>
      </trkpt>
      <trkpt lat="44.49432" lon="-0.27099">
        <ele>52.9</ele>
        <time>2020-09-08T16:47:17Z</time>
      </trkpt>
      <trkpt lat="44.49433" lon="-0.27097">
        <ele>53.1</ele>
        <time>2020-09-08T16:47:18Z</time>
      </trkpt>
      <trkpt lat="44.49434" lon="-0.27095">
        <ele>53.2</ele>
        <time>2020-09-08T16:47:20Z</time>
      </trkpt>
      <trkpt lat="44.49434" lon="-0.27093">
        <ele>53.3</ele>
        <time>2020-09-08T16:47:21Z</time>
      </trkpt>
      <trkpt lat="44.49435" lon="-0.2709">
        <ele>53.5</ele>
        <time>2020-09-08T16:47:22Z</time>
      </trkpt>
      <trkpt lat="44.49435" lon="-0.2709">
        <ele>53.6</ele>
        <time>2020-09-08T16:47:24Z</time>
      </trkpt>
      <trkpt lat="44.49435" lon="-0.27089">
        <ele>53.6</ele>
        <time>2020-09-08T16:47:26Z</time>
      </trkpt>
      <trkpt lat="44.49435" lon="-0.27088">
        <ele>53.7</ele>
        <time>2020-09-08T16:47:27Z</time>
      </trkpt>
      <trkpt lat="44.49435" lon="-0.27088">
        <ele>53.7</ele>
        <time>2020-09-08T16:47:29Z</time>
      </trkpt>
      <trkpt lat="44.49435" lon="-0.27087">
        <ele>53.8</ele>
        <time>2020-09-08T16:47:30Z</time>
      </trkpt>
      <trkpt lat="44.49435" lon="-0.27086">
        <ele>53.8</ele>
        <time>2020-09-08T16:47:31Z</time>
      </trkpt>
      <trkpt lat="44.49435" lon="-0.27085">
        <ele>53.8</ele>
        <time>2020-09-08T16:47:33Z</time>
      </trkpt>
      <trkpt lat="44.49435" lon="-0.27085">
        <ele>53.9</ele>
        <time>2020-09-08T16:47:34Z</time>
      </trkpt>
      <trkpt lat="44.49435" lon="-0.27084">
        <ele>53.9</ele>
        <time>2020-09-08T16:47:35Z</time>
      </trkpt>
      <trkpt lat="44.49435" lon="-0.27082">
        <ele>54.1</ele>
        <time>2020-09-08T16:47:36Z</time>
      </trkpt>
      <trkpt lat="44.49436" lon="-0.2708">
        <ele>54.2</ele>
        <time>2020-09-08T16:47:37Z</time>
      </trkpt>
      <trkpt lat="44.49436" lon="-0.27077">
        <ele>54.4</ele>
        <time>2020-09-08T16:47:38Z</time>
      </trkpt>
      <trkpt lat="44.49436" lon="-0.27076">
        <ele>54.5</ele>
        <time>2020-09-08T16:47:39Z</time>
      </trkpt>
      <trkpt lat="44.49437" lon="-0.27075">
        <ele>54.6</ele>
        <time>2020-09-08T16:47:40Z</time>
      </trkpt>
      <trkpt lat="44.49437" lon="-0.27073">
        <ele>54.7</ele>
        <time>2020-09-08T16:47:41Z</time>
      </trkpt>
      <trkpt lat="44.49438" lon="-0.27071">
        <ele>54.8</ele>
        <time>2020-09-08T16:47:43Z</time>
      </trkpt>
      <trkpt lat="44.49438" lon="-0.27069">
        <ele>54.9</ele>
        <time>2020-09-08T16:47:44Z</time>
      </trkpt>
      <trkpt lat="44.49438" lon="-0.27067">
        <ele>55.1</ele>
        <time>2020-09-08T16:47:45Z</time>
      </trkpt>
      <trkpt lat="44.49439" lon="-0.27065">
        <ele>55.2</ele>
        <time>2020-09-08T16:47:46Z</time>
      </trkpt>
      <trkpt lat="44.49439" lon="-0.27064">
        <ele>55.3</ele>
        <time>2020-09-08T16:47:47Z</time>
      </trkpt>
      <trkpt lat="44.4944" lon="-0.27063">
        <ele>55.4</ele>
        <time>2020-09-08T16:47:48Z</time>
      </trkpt>
      <trkpt lat="44.4944" lon="-0.2706">
        <ele>55.5</ele>
        <time>2020-09-08T16:47:49Z</time>
      </trkpt>
      <trkpt lat="44.49441" lon="-0.27059">
        <ele>55.6</ele>
        <time>2020-09-08T16:47:51Z</time>
      </trkpt>
      <trkpt lat="44.49441" lon="-0.27058">
        <ele>55.7</ele>
        <time>2020-09-08T16:47:52Z</time>
      </trkpt>
      <trkpt lat="44.49442" lon="-0.27056">
        <ele>55.8</ele>
        <time>2020-09-08T16:47:54Z</time>
      </trkpt>
      <trkpt lat="44.49442" lon="-0.27055">
        <ele>55.9</ele>
        <time>2020-09-08T16:47:55Z</time>
      </trkpt>
      <trkpt lat="44.49442" lon="-0.27054">
        <ele>56</ele>
        <time>2020-09-08T16:47:56Z</time>
      </trkpt>
      <trkpt lat="44.49442" lon="-0.27053">
        <ele>56</ele>
        <time>2020-09-08T16:47:57Z</time>
      </trkpt>
      <trkpt lat="44.49443" lon="-0.27052">
        <ele>56.1</ele>
        <time>2020-09-08T16:47:58Z</time>
      </trkpt>
      <trkpt lat="44.49443" lon="-0.27051">
        <ele>56.2</ele>
        <time>2020-09-08T16:47:59Z</time>
      </trkpt>
      <trkpt lat="44.49444" lon="-0.27049">
        <ele>56.3</ele>
        <time>2020-09-08T16:48:01Z</time>
      </trkpt>
      <trkpt lat="44.49444" lon="-0.27048">
        <ele>56.4</ele>
        <time>2020-09-08T16:48:02Z</time>
      </trkpt>
      <trkpt lat="44.49445" lon="-0.27046">
        <ele>56.5</ele>
        <time>2020-09-08T16:48:03Z</time>
      </trkpt>
      <trkpt lat="44.49445" lon="-0.27045">
        <ele>56.6</ele>
        <time>2020-09-08T16:48:04Z</time>
      </trkpt>
      <trkpt lat="44.49446" lon="-0.27043">
        <ele>56.7</ele>
        <time>2020-09-08T16:48:05Z</time>
      </trkpt>
      <trkpt lat="44.49446" lon="-0.27042">
        <ele>56.8</ele>
        <time>2020-09-08T16:48:06Z</time>
      </trkpt>
      <trkpt lat="44.49447" lon="-0.2704">
        <ele>56.9</ele>
        <time>2020-09-08T16:48:08Z</time>
      </trkpt>
      <trkpt lat="44.49448" lon="-0.27039">
        <ele>57</ele>
        <time>2020-09-08T16:48:09Z</time>
      </trkpt>
      <trkpt lat="44.49448" lon="-0.27037">
        <ele>57.1</ele>
        <time>2020-09-08T16:48:10Z</time>
      </trkpt>
      <trkpt lat="44.49449" lon="-0.27036">
        <ele>57.2</ele>
        <time>2020-09-08T16:48:12Z</time>
      </trkpt>
      <trkpt lat="44.49449" lon="-0.27035">
        <ele>57.3</ele>
        <time>2020-09-08T16:48:13Z</time>
      </trkpt>
      <trkpt lat="44.4945" lon="-0.27033">
        <ele>57.4</ele>
        <time>2020-09-08T16:48:14Z</time>
      </trkpt>
      <trkpt lat="44.4945" lon="-0.27032">
        <ele>57.5</ele>
        <time>2020-09-08T16:48:15Z</time>
      </trkpt>
      <trkpt lat="44.49451" lon="-0.2703">
        <ele>57.6</ele>
        <time>2020-09-08T16:48:16Z</time>
      </trkpt>
      <trkpt lat="44.49451" lon="-0.27028">
        <ele>57.7</ele>
        <time>2020-09-08T16:48:17Z</time>
      </trkpt>
      <trkpt lat="44.49452" lon="-0.27026">
        <ele>57.8</ele>
        <time>2020-09-08T16:48:19Z</time>
      </trkpt>
      <trkpt lat="44.49452" lon="-0.27024">
        <ele>58</ele>
        <time>2020-09-08T16:48:20Z</time>
      </trkpt>
      <trkpt lat="44.49453" lon="-0.27023">
        <ele>58.1</ele>
        <time>2020-09-08T16:48:21Z</time>
      </trkpt>
      <trkpt lat="44.49453" lon="-0.27021">
        <ele>58.2</ele>
        <time>2020-09-08T16:48:22Z</time>
      </trkpt>
      <trkpt lat="44.49454" lon="-0.2702">
        <ele>58.3</ele>
        <time>2020-09-08T16:48:23Z</time>
      </trkpt>
      <trkpt lat="44.49454" lon="-0.27017">
        <ele>58.5</ele>
        <time>2020-09-08T16:48:25Z</time>
      </trkpt>
      <trkpt lat="44.49454" lon="-0.27016">
        <ele>58.5</ele>
        <time>2020-09-08T16:48:26Z</time>
      </trkpt>
      <trkpt lat="44.49455" lon="-0.27015">
        <ele>58.6</ele>
        <time>2020-09-08T16:48:27Z</time>
      </trkpt>
      <trkpt lat="44.49455" lon="-0.27013">
        <ele>58.7</ele>
        <time>2020-09-08T16:48:28Z</time>
      </trkpt>
      <trkpt lat="44.49455" lon="-0.27011">
        <ele>58.9</ele>
        <time>2020-09-08T16:48:29Z</time>
      </trkpt>
      <trkpt lat="44.49456" lon="-0.27009">
        <ele>59</ele>
        <time>2020-09-08T16:48:31Z</time>
      </trkpt>
      <trkpt lat="44.49456" lon="-0.27007">
        <ele>59.1</ele>
        <time>2020-09-08T16:48:32Z</time>
      </trkpt>
      <trkpt lat="44.49457" lon="-0.27005">
        <ele>59.2</ele>
        <time>2020-09-08T16:48:33Z</time>
      </trkpt>
      <trkpt lat="44.49457" lon="-0.27003">
        <ele>59.4</ele>
        <time>2020-09-08T16:48:34Z</time>
      </trkpt>
      <trkpt lat="44.49458" lon="-0.27001">
        <ele>59.5</ele>
        <time>2020-09-08T16:48:35Z</time>
      </trkpt>
      <trkpt lat="44.49458" lon="-0.26999">
        <ele>59.6</ele>
        <time>2020-09-08T16:48:36Z</time>
      </trkpt>
      <trkpt lat="44.49458" lon="-0.26998">
        <ele>59.7</ele>
        <time>2020-09-08T16:48:37Z</time>
      </trkpt>
      <trkpt lat="44.49459" lon="-0.26995">
        <ele>59.9</ele>
        <time>2020-09-08T16:48:38Z</time>
      </trkpt>
      <trkpt lat="44.49459" lon="-0.26994">
        <ele>60</ele>
        <time>2020-09-08T16:48:40Z</time>
      </trkpt>
      <trkpt lat="44.4946" lon="-0.26992">
        <ele>60.1</ele>
        <time>2020-09-08T16:48:41Z</time>
      </trkpt>
      <trkpt lat="44.4946" lon="-0.2699">
        <ele>60.3</ele>
        <time>2020-09-08T16:48:42Z</time>
      </trkpt>
      <trkpt lat="44.49461" lon="-0.26987">
        <ele>60.4</ele>
        <time>2020-09-08T16:48:43Z</time>
      </trkpt>
      <trkpt lat="44.49461" lon="-0.26986">
        <ele>60.5</ele>
        <time>2020-09-08T16:48:44Z</time>
      </trkpt>
      <trkpt lat="44.49461" lon="-0.26985">
        <ele>60.6</ele>
        <time>2020-09-08T16:48:45Z</time>
      </trkpt>
      <trkpt lat="44.49462" lon="-0.26983">
        <ele>60.7</ele>
        <time>2020-09-08T16:48:47Z</time>
      </trkpt>
      <trkpt lat="44.49463" lon="-0.26979">
        <ele>60.9</ele>
        <time>2020-09-08T16:48:49Z</time>
      </trkpt>
      <trkpt lat="44.49463" lon="-0.26976">
        <ele>61.1</ele>
        <time>2020-09-08T16:48:50Z</time>
      </trkpt>
      <trkpt lat="44.49463" lon="-0.26975">
        <ele>61.2</ele>
        <time>2020-09-08T16:48:51Z</time>
      </trkpt>
      <trkpt lat="44.49463" lon="-0.26974">
        <ele>61.3</ele>
        <time>2020-09-08T16:48:52Z</time>
      </trkpt>
      <trkpt lat="44.49464" lon="-0.26968">
        <ele>61.7</ele>
        <time>2020-09-08T16:48:54Z</time>
      </trkpt>
      <trkpt lat="44.49465" lon="-0.26966">
        <ele>61.8</ele>
        <time>2020-09-08T16:48:55Z</time>
      </trkpt>
      <trkpt lat="44.49465" lon="-0.26965">
        <ele>61.9</ele>
        <time>2020-09-08T16:48:57Z</time>
      </trkpt>
      <trkpt lat="44.49465" lon="-0.26963">
        <ele>62</ele>
        <time>2020-09-08T16:48:58Z</time>
      </trkpt>
      <trkpt lat="44.49466" lon="-0.26961">
        <ele>62.1</ele>
        <time>2020-09-08T16:49:00Z</time>
      </trkpt>
      <trkpt lat="44.49466" lon="-0.26959">
        <ele>62.2</ele>
        <time>2020-09-08T16:49:01Z</time>
      </trkpt>
      <trkpt lat="44.49468" lon="-0.26956">
        <ele>62.5</ele>
        <time>2020-09-08T16:49:03Z</time>
      </trkpt>
      <trkpt lat="44.49468" lon="-0.26954">
        <ele>62.6</ele>
        <time>2020-09-08T16:49:04Z</time>
      </trkpt>
      <trkpt lat="44.49468" lon="-0.26953">
        <ele>62.6</ele>
        <time>2020-09-08T16:49:05Z</time>
      </trkpt>
      <trkpt lat="44.49469" lon="-0.26952">
        <ele>62.7</ele>
        <time>2020-09-08T16:49:06Z</time>
      </trkpt>
      <trkpt lat="44.49469" lon="-0.26951">
        <ele>62.8</ele>
        <time>2020-09-08T16:49:07Z</time>
      </trkpt>
      <trkpt lat="44.4947" lon="-0.26949">
        <ele>62.9</ele>
        <time>2020-09-08T16:49:09Z</time>
      </trkpt>
      <trkpt lat="44.4947" lon="-0.26948">
        <ele>63</ele>
        <time>2020-09-08T16:49:10Z</time>
      </trkpt>
      <trkpt lat="44.49471" lon="-0.26947">
        <ele>63.1</ele>
        <time>2020-09-08T16:49:11Z</time>
      </trkpt>
      <trkpt lat="44.49471" lon="-0.26946">
        <ele>63.2</ele>
        <time>2020-09-08T16:49:12Z</time>
      </trkpt>
      <trkpt lat="44.49472" lon="-0.26945">
        <ele>63.3</ele>
        <time>2020-09-08T16:49:13Z</time>
      </trkpt>
      <trkpt lat="44.49473" lon="-0.26942">
        <ele>63.4</ele>
        <time>2020-09-08T16:49:14Z</time>
      </trkpt>
      <trkpt lat="44.49473" lon="-0.26942">
        <ele>63.5</ele>
        <time>2020-09-08T16:49:15Z</time>
      </trkpt>
      <trkpt lat="44.49474" lon="-0.2694">
        <ele>63.6</ele>
        <time>2020-09-08T16:49:16Z</time>
      </trkpt>
      <trkpt lat="44.49474" lon="-0.26939">
        <ele>63.6</ele>
        <time>2020-09-08T16:49:18Z</time>
      </trkpt>
      <trkpt lat="44.49475" lon="-0.26936">
        <ele>63.8</ele>
        <time>2020-09-08T16:49:19Z</time>
      </trkpt>
      <trkpt lat="44.49475" lon="-0.26935">
        <ele>63.9</ele>
        <time>2020-09-08T16:49:20Z</time>
      </trkpt>
      <trkpt lat="44.49476" lon="-0.26932">
        <ele>64.1</ele>
        <time>2020-09-08T16:49:22Z</time>
      </trkpt>
      <trkpt lat="44.49477" lon="-0.26931">
        <ele>64.2</ele>
        <time>2020-09-08T16:49:23Z</time>
      </trkpt>
      <trkpt lat="44.49477" lon="-0.2693">
        <ele>64.3</ele>
        <time>2020-09-08T16:49:24Z</time>
      </trkpt>
      <trkpt lat="44.49477" lon="-0.26928">
        <ele>64.4</ele>
        <time>2020-09-08T16:49:25Z</time>
      </trkpt>
      <trkpt lat="44.49478" lon="-0.26927">
        <ele>64.5</ele>
        <time>2020-09-08T16:49:26Z</time>
      </trkpt>
      <trkpt lat="44.49478" lon="-0.26925">
        <ele>64.6</ele>
        <time>2020-09-08T16:49:27Z</time>
      </trkpt>
      <trkpt lat="44.49479" lon="-0.26922">
        <ele>64.7</ele>
        <time>2020-09-08T16:49:28Z</time>
      </trkpt>
      <trkpt lat="44.49479" lon="-0.26921">
        <ele>64.8</ele>
        <time>2020-09-08T16:49:30Z</time>
      </trkpt>
      <trkpt lat="44.49479" lon="-0.26919">
        <ele>64.9</ele>
        <time>2020-09-08T16:49:31Z</time>
      </trkpt>
      <trkpt lat="44.4948" lon="-0.26918">
        <ele>65</ele>
        <time>2020-09-08T16:49:32Z</time>
      </trkpt>
      <trkpt lat="44.4948" lon="-0.26916">
        <ele>65.1</ele>
        <time>2020-09-08T16:49:33Z</time>
      </trkpt>
      <trkpt lat="44.49481" lon="-0.26914">
        <ele>65.3</ele>
        <time>2020-09-08T16:49:34Z</time>
      </trkpt>
      <trkpt lat="44.49481" lon="-0.26912">
        <ele>65.4</ele>
        <time>2020-09-08T16:49:35Z</time>
      </trkpt>
      <trkpt lat="44.49481" lon="-0.26911">
        <ele>65.4</ele>
        <time>2020-09-08T16:49:37Z</time>
      </trkpt>
      <trkpt lat="44.49482" lon="-0.26908">
        <ele>65.6</ele>
        <time>2020-09-08T16:49:38Z</time>
      </trkpt>
      <trkpt lat="44.49482" lon="-0.26907">
        <ele>65.7</ele>
        <time>2020-09-08T16:49:39Z</time>
      </trkpt>
      <trkpt lat="44.49483" lon="-0.26906">
        <ele>65.8</ele>
        <time>2020-09-08T16:49:41Z</time>
      </trkpt>
      <trkpt lat="44.49483" lon="-0.26904">
        <ele>65.9</ele>
        <time>2020-09-08T16:49:42Z</time>
      </trkpt>
      <trkpt lat="44.49484" lon="-0.26902">
        <ele>66</ele>
        <time>2020-09-08T16:49:43Z</time>
      </trkpt>
      <trkpt lat="44.49485" lon="-0.269">
        <ele>66.2</ele>
        <time>2020-09-08T16:49:44Z</time>
      </trkpt>
      <trkpt lat="44.49486" lon="-0.26899">
        <ele>66.2</ele>
        <time>2020-09-08T16:49:45Z</time>
      </trkpt>
      <trkpt lat="44.49486" lon="-0.26897">
        <ele>66.3</ele>
        <time>2020-09-08T16:49:46Z</time>
      </trkpt>
      <trkpt lat="44.49487" lon="-0.26896">
        <ele>66.4</ele>
        <time>2020-09-08T16:49:48Z</time>
      </trkpt>
      <trkpt lat="44.49488" lon="-0.26893">
        <ele>66.6</ele>
        <time>2020-09-08T16:49:49Z</time>
      </trkpt>
      <trkpt lat="44.49488" lon="-0.26892">
        <ele>66.6</ele>
        <time>2020-09-08T16:49:50Z</time>
      </trkpt>
      <trkpt lat="44.49488" lon="-0.26891">
        <ele>66.7</ele>
        <time>2020-09-08T16:49:51Z</time>
      </trkpt>
      <trkpt lat="44.49489" lon="-0.26889">
        <ele>66.8</ele>
        <time>2020-09-08T16:49:52Z</time>
      </trkpt>
      <trkpt lat="44.4949" lon="-0.26886">
        <ele>67</ele>
        <time>2020-09-08T16:49:54Z</time>
      </trkpt>
      <trkpt lat="44.49491" lon="-0.26885">
        <ele>67.1</ele>
        <time>2020-09-08T16:49:55Z</time>
      </trkpt>
      <trkpt lat="44.49491" lon="-0.26884">
        <ele>67.2</ele>
        <time>2020-09-08T16:49:56Z</time>
      </trkpt>
      <trkpt lat="44.49492" lon="-0.26882">
        <ele>67.3</ele>
        <time>2020-09-08T16:49:57Z</time>
      </trkpt>
      <trkpt lat="44.49493" lon="-0.26879">
        <ele>67.5</ele>
        <time>2020-09-08T16:49:59Z</time>
      </trkpt>
      <trkpt lat="44.49493" lon="-0.26878">
        <ele>67.5</ele>
        <time>2020-09-08T16:50:00Z</time>
      </trkpt>
      <trkpt lat="44.49494" lon="-0.26876">
        <ele>67.6</ele>
        <time>2020-09-08T16:50:01Z</time>
      </trkpt>
      <trkpt lat="44.49494" lon="-0.26875">
        <ele>67.7</ele>
        <time>2020-09-08T16:50:02Z</time>
      </trkpt>
      <trkpt lat="44.49495" lon="-0.26871">
        <ele>67.9</ele>
        <time>2020-09-08T16:50:04Z</time>
      </trkpt>
      <trkpt lat="44.49495" lon="-0.2687">
        <ele>68</ele>
        <time>2020-09-08T16:50:05Z</time>
      </trkpt>
      <trkpt lat="44.49495" lon="-0.26869">
        <ele>68</ele>
        <time>2020-09-08T16:50:06Z</time>
      </trkpt>
      <trkpt lat="44.49495" lon="-0.26868">
        <ele>68.1</ele>
        <time>2020-09-08T16:50:08Z</time>
      </trkpt>
      <trkpt lat="44.49496" lon="-0.26865">
        <ele>68.2</ele>
        <time>2020-09-08T16:50:09Z</time>
      </trkpt>
      <trkpt lat="44.49496" lon="-0.26864">
        <ele>68.3</ele>
        <time>2020-09-08T16:50:11Z</time>
      </trkpt>
      <trkpt lat="44.49496" lon="-0.26862">
        <ele>68.4</ele>
        <time>2020-09-08T16:50:12Z</time>
      </trkpt>
      <trkpt lat="44.49497" lon="-0.2686">
        <ele>68.5</ele>
        <time>2020-09-08T16:50:13Z</time>
      </trkpt>
      <trkpt lat="44.49497" lon="-0.26858">
        <ele>68.6</ele>
        <time>2020-09-08T16:50:15Z</time>
      </trkpt>
      <trkpt lat="44.49498" lon="-0.26857">
        <ele>68.6</ele>
        <time>2020-09-08T16:50:16Z</time>
      </trkpt>
      <trkpt lat="44.49498" lon="-0.26856">
        <ele>68.7</ele>
        <time>2020-09-08T16:50:18Z</time>
      </trkpt>
      <trkpt lat="44.49499" lon="-0.26853">
        <ele>68.8</ele>
        <time>2020-09-08T16:50:19Z</time>
      </trkpt>
      <trkpt lat="44.49499" lon="-0.26852">
        <ele>68.9</ele>
        <time>2020-09-08T16:50:20Z</time>
      </trkpt>
      <trkpt lat="44.49499" lon="-0.26849">
        <ele>69</ele>
        <time>2020-09-08T16:50:21Z</time>
      </trkpt>
      <trkpt lat="44.49499" lon="-0.26848">
        <ele>69.1</ele>
        <time>2020-09-08T16:50:22Z</time>
      </trkpt>
      <trkpt lat="44.495" lon="-0.26846">
        <ele>69.1</ele>
        <time>2020-09-08T16:50:23Z</time>
      </trkpt>
      <trkpt lat="44.495" lon="-0.26842">
        <ele>69.3</ele>
        <time>2020-09-08T16:50:24Z</time>
      </trkpt>
      <trkpt lat="44.49501" lon="-0.26841">
        <ele>69.4</ele>
        <time>2020-09-08T16:50:26Z</time>
      </trkpt>
      <trkpt lat="44.49501" lon="-0.26839">
        <ele>69.5</ele>
        <time>2020-09-08T16:50:27Z</time>
      </trkpt>
      <trkpt lat="44.49501" lon="-0.26838">
        <ele>69.5</ele>
        <time>2020-09-08T16:50:28Z</time>
      </trkpt>
      <trkpt lat="44.49501" lon="-0.26836">
        <ele>69.6</ele>
        <time>2020-09-08T16:50:29Z</time>
      </trkpt>
      <trkpt lat="44.49501" lon="-0.26835">
        <ele>69.7</ele>
        <time>2020-09-08T16:50:30Z</time>
      </trkpt>
      <trkpt lat="44.49501" lon="-0.26833">
        <ele>69.7</ele>
        <time>2020-09-08T16:50:31Z</time>
      </trkpt>
      <trkpt lat="44.49502" lon="-0.26832">
        <ele>69.8</ele>
        <time>2020-09-08T16:50:33Z</time>
      </trkpt>
      <trkpt lat="44.49502" lon="-0.26829">
        <ele>70</ele>
        <time>2020-09-08T16:50:34Z</time>
      </trkpt>
      <trkpt lat="44.49502" lon="-0.26827">
        <ele>70</ele>
        <time>2020-09-08T16:50:35Z</time>
      </trkpt>
      <trkpt lat="44.49502" lon="-0.26824">
        <ele>70.2</ele>
        <time>2020-09-08T16:50:36Z</time>
      </trkpt>
      <trkpt lat="44.49501" lon="-0.26823">
        <ele>70.2</ele>
        <time>2020-09-08T16:50:37Z</time>
      </trkpt>
      <trkpt lat="44.49501" lon="-0.26822">
        <ele>70.3</ele>
        <time>2020-09-08T16:50:38Z</time>
      </trkpt>
      <trkpt lat="44.49501" lon="-0.26819">
        <ele>70.4</ele>
        <time>2020-09-08T16:50:40Z</time>
      </trkpt>
      <trkpt lat="44.49501" lon="-0.26818">
        <ele>70.4</ele>
        <time>2020-09-08T16:50:41Z</time>
      </trkpt>
      <trkpt lat="44.495" lon="-0.26815">
        <ele>70.5</ele>
        <time>2020-09-08T16:50:42Z</time>
      </trkpt>
      <trkpt lat="44.495" lon="-0.26814">
        <ele>70.6</ele>
        <time>2020-09-08T16:50:43Z</time>
      </trkpt>
      <trkpt lat="44.495" lon="-0.26812">
        <ele>70.6</ele>
        <time>2020-09-08T16:50:44Z</time>
      </trkpt>
      <trkpt lat="44.49499" lon="-0.2681">
        <ele>70.7</ele>
        <time>2020-09-08T16:50:45Z</time>
      </trkpt>
      <trkpt lat="44.49499" lon="-0.26808">
        <ele>70.8</ele>
        <time>2020-09-08T16:50:46Z</time>
      </trkpt>
      <trkpt lat="44.49498" lon="-0.26807">
        <ele>70.8</ele>
        <time>2020-09-08T16:50:48Z</time>
      </trkpt>
      <trkpt lat="44.49498" lon="-0.26806">
        <ele>70.8</ele>
        <time>2020-09-08T16:50:49Z</time>
      </trkpt>
      <trkpt lat="44.49498" lon="-0.26804">
        <ele>70.9</ele>
        <time>2020-09-08T16:50:50Z</time>
      </trkpt>
      <trkpt lat="44.49497" lon="-0.26803">
        <ele>70.9</ele>
        <time>2020-09-08T16:50:51Z</time>
      </trkpt>
      <trkpt lat="44.49497" lon="-0.26802">
        <ele>71</ele>
        <time>2020-09-08T16:50:52Z</time>
      </trkpt>
      <trkpt lat="44.49496" lon="-0.26799">
        <ele>71</ele>
        <time>2020-09-08T16:50:54Z</time>
      </trkpt>
      <trkpt lat="44.49496" lon="-0.26797">
        <ele>71.1</ele>
        <time>2020-09-08T16:50:56Z</time>
      </trkpt>
      <trkpt lat="44.49495" lon="-0.26798">
        <ele>71.1</ele>
        <time>2020-09-08T16:50:58Z</time>
      </trkpt>
      <trkpt lat="44.49494" lon="-0.26798">
        <ele>71.2</ele>
        <time>2020-09-08T16:50:59Z</time>
      </trkpt>
      <trkpt lat="44.49493" lon="-0.26797">
        <ele>71.2</ele>
        <time>2020-09-08T16:51:00Z</time>
      </trkpt>
      <trkpt lat="44.49491" lon="-0.26797">
        <ele>71.2</ele>
        <time>2020-09-08T16:51:02Z</time>
      </trkpt>
      <trkpt lat="44.4949" lon="-0.26797">
        <ele>71.2</ele>
        <time>2020-09-08T16:51:03Z</time>
      </trkpt>
      <trkpt lat="44.49488" lon="-0.26795">
        <ele>71.3</ele>
        <time>2020-09-08T16:51:04Z</time>
      </trkpt>
      <trkpt lat="44.49487" lon="-0.26794">
        <ele>71.3</ele>
        <time>2020-09-08T16:51:05Z</time>
      </trkpt>
      <trkpt lat="44.49487" lon="-0.26794">
        <ele>71.3</ele>
        <time>2020-09-08T16:51:06Z</time>
      </trkpt>
      <trkpt lat="44.49485" lon="-0.26792">
        <ele>71.4</ele>
        <time>2020-09-08T16:51:07Z</time>
      </trkpt>
      <trkpt lat="44.49484" lon="-0.26791">
        <ele>71.4</ele>
        <time>2020-09-08T16:51:09Z</time>
      </trkpt>
      <trkpt lat="44.49483" lon="-0.2679">
        <ele>71.4</ele>
        <time>2020-09-08T16:51:10Z</time>
      </trkpt>
      <trkpt lat="44.49482" lon="-0.2679">
        <ele>71.5</ele>
        <time>2020-09-08T16:51:11Z</time>
      </trkpt>
      <trkpt lat="44.49481" lon="-0.26789">
        <ele>71.5</ele>
        <time>2020-09-08T16:51:12Z</time>
      </trkpt>
      <trkpt lat="44.49481" lon="-0.26788">
        <ele>71.5</ele>
        <time>2020-09-08T16:51:13Z</time>
      </trkpt>
      <trkpt lat="44.49479" lon="-0.26787">
        <ele>71.6</ele>
        <time>2020-09-08T16:51:15Z</time>
      </trkpt>
      <trkpt lat="44.49479" lon="-0.26787">
        <ele>71.6</ele>
        <time>2020-09-08T16:51:16Z</time>
      </trkpt>
      <trkpt lat="44.49478" lon="-0.26786">
        <ele>71.5</ele>
        <time>2020-09-08T16:51:17Z</time>
      </trkpt>
      <trkpt lat="44.49477" lon="-0.26785">
        <ele>71.5</ele>
        <time>2020-09-08T16:51:18Z</time>
      </trkpt>
      <trkpt lat="44.49476" lon="-0.26784">
        <ele>71.5</ele>
        <time>2020-09-08T16:51:20Z</time>
      </trkpt>
      <trkpt lat="44.49475" lon="-0.26784">
        <ele>71.5</ele>
        <time>2020-09-08T16:51:21Z</time>
      </trkpt>
      <trkpt lat="44.49475" lon="-0.26784">
        <ele>71.5</ele>
        <time>2020-09-08T16:51:22Z</time>
      </trkpt>
      <trkpt lat="44.49475" lon="-0.26784">
        <ele>71.5</ele>
        <time>2020-09-08T16:51:24Z</time>
      </trkpt>
      <trkpt lat="44.49475" lon="-0.26785">
        <ele>71.5</ele>
        <time>2020-09-08T16:51:26Z</time>
      </trkpt>
      <trkpt lat="44.49475" lon="-0.26785">
        <ele>71.4</ele>
        <time>2020-09-08T16:51:27Z</time>
      </trkpt>
      <trkpt lat="44.49475" lon="-0.26786">
        <ele>71.4</ele>
        <time>2020-09-08T16:51:29Z</time>
      </trkpt>
      <trkpt lat="44.49475" lon="-0.26786">
        <ele>71.4</ele>
        <time>2020-09-08T16:51:31Z</time>
      </trkpt>
      <trkpt lat="44.49475" lon="-0.26786">
        <ele>71.4</ele>
        <time>2020-09-08T16:51:33Z</time>
      </trkpt>
      <trkpt lat="44.49475" lon="-0.26786">
        <ele>71.4</ele>
        <time>2020-09-08T16:51:35Z</time>
      </trkpt>
      <trkpt lat="44.49475" lon="-0.26787">
        <ele>71.4</ele>
        <time>2020-09-08T16:51:36Z</time>
      </trkpt>
      <trkpt lat="44.49475" lon="-0.26787">
        <ele>71.4</ele>
        <time>2020-09-08T16:51:37Z</time>
      </trkpt>
      <trkpt lat="44.49475" lon="-0.26787">
        <ele>71.4</ele>
        <time>2020-09-08T16:51:38Z</time>
      </trkpt>
      <trkpt lat="44.49475" lon="-0.26787">
        <ele>71.4</ele>
        <time>2020-09-08T16:51:40Z</time>
      </trkpt>
      <trkpt lat="44.49475" lon="-0.26787">
        <ele>71.4</ele>
        <time>2020-09-08T16:51:41Z</time>
      </trkpt>
      <trkpt lat="44.49475" lon="-0.26787">
        <ele>71.4</ele>
        <time>2020-09-08T16:51:43Z</time>
      </trkpt>
      <trkpt lat="44.49475" lon="-0.26787">
        <ele>71.4</ele>
        <time>2020-09-08T16:51:44Z</time>
      </trkpt>
      <trkpt lat="44.49475" lon="-0.26787">
        <ele>71.4</ele>
        <time>2020-09-08T16:51:46Z</time>
      </trkpt>
      <trkpt lat="44.49475" lon="-0.26787">
        <ele>71.4</ele>
        <time>2020-09-08T16:51:48Z</time>
      </trkpt>
      <trkpt lat="44.49475" lon="-0.26787">
        <ele>71.4</ele>
        <time>2020-09-08T16:51:49Z</time>
      </trkpt>
      <trkpt lat="44.49475" lon="-0.26787">
        <ele>71.4</ele>
        <time>2020-09-08T16:51:51Z</time>
      </trkpt>
      <trkpt lat="44.49475" lon="-0.26787">
        <ele>71.4</ele>
        <time>2020-09-08T16:51:53Z</time>
      </trkpt>
      <trkpt lat="44.49475" lon="-0.26787">
        <ele>71.4</ele>
        <time>2020-09-08T16:51:55Z</time>
      </trkpt>
      <trkpt lat="44.49475" lon="-0.26787">
        <ele>71.4</ele>
        <time>2020-09-08T16:51:56Z</time>
      </trkpt>
      <trkpt lat="44.49475" lon="-0.26787">
        <ele>71.4</ele>
        <time>2020-09-08T16:51:58Z</time>
      </trkpt>
      <trkpt lat="44.49475" lon="-0.26787">
        <ele>71.4</ele>
        <time>2020-09-08T16:51:59Z</time>
      </trkpt>
      <trkpt lat="44.49475" lon="-0.26787">
        <ele>71.4</ele>
        <time>2020-09-08T16:52:00Z</time>
      </trkpt>
      <trkpt lat="44.49475" lon="-0.26787">
        <ele>71.4</ele>
        <time>2020-09-08T16:52:02Z</time>
      </trkpt>
      <trkpt lat="44.49475" lon="-0.26787">
        <ele>71.4</ele>
        <time>2020-09-08T16:52:04Z</time>
      </trkpt>
      <trkpt lat="44.49475" lon="-0.26787">
        <ele>71.4</ele>
        <time>2020-09-08T16:52:05Z</time>
      </trkpt>
      <trkpt lat="44.49475" lon="-0.26787">
        <ele>71.4</ele>
        <time>2020-09-08T16:52:06Z</time>
      </trkpt>
      <trkpt lat="44.49475" lon="-0.26787">
        <ele>71.4</ele>
        <time>2020-09-08T16:52:08Z</time>
      </trkpt>
      <trkpt lat="44.49475" lon="-0.26788">
        <ele>71.4</ele>
        <time>2020-09-08T16:52:09Z</time>
      </trkpt>
      <trkpt lat="44.49474" lon="-0.2679">
        <ele>71.4</ele>
        <time>2020-09-08T16:52:10Z</time>
      </trkpt>
      <trkpt lat="44.49474" lon="-0.26791">
        <ele>71.4</ele>
        <time>2020-09-08T16:52:12Z</time>
      </trkpt>
      <trkpt lat="44.49475" lon="-0.26792">
        <ele>71.3</ele>
        <time>2020-09-08T16:52:13Z</time>
      </trkpt>
      <trkpt lat="44.49475" lon="-0.26793">
        <ele>71.3</ele>
        <time>2020-09-08T16:52:14Z</time>
      </trkpt>
      <trkpt lat="44.49476" lon="-0.26794">
        <ele>71.3</ele>
        <time>2020-09-08T16:52:16Z</time>
      </trkpt>
      <trkpt lat="44.49476" lon="-0.26796">
        <ele>71.3</ele>
        <time>2020-09-08T16:52:17Z</time>
      </trkpt>
      <trkpt lat="44.49477" lon="-0.26797">
        <ele>71.3</ele>
        <time>2020-09-08T16:52:19Z</time>
      </trkpt>
      <trkpt lat="44.49479" lon="-0.268">
        <ele>71.2</ele>
        <time>2020-09-08T16:52:20Z</time>
      </trkpt>
      <trkpt lat="44.49479" lon="-0.268">
        <ele>71.2</ele>
        <time>2020-09-08T16:52:21Z</time>
      </trkpt>
      <trkpt lat="44.4948" lon="-0.26801">
        <ele>71.2</ele>
        <time>2020-09-08T16:52:22Z</time>
      </trkpt>
      <trkpt lat="44.49481" lon="-0.26803">
        <ele>71.2</ele>
        <time>2020-09-08T16:52:23Z</time>
      </trkpt>
      <trkpt lat="44.49481" lon="-0.26805">
        <ele>71.1</ele>
        <time>2020-09-08T16:52:24Z</time>
      </trkpt>
      <trkpt lat="44.49482" lon="-0.26807">
        <ele>71.1</ele>
        <time>2020-09-08T16:52:25Z</time>
      </trkpt>
      <trkpt lat="44.49483" lon="-0.26809">
        <ele>71</ele>
        <time>2020-09-08T16:52:27Z</time>
      </trkpt>
      <trkpt lat="44.49484" lon="-0.26809">
        <ele>71</ele>
        <time>2020-09-08T16:52:28Z</time>
      </trkpt>
      <trkpt lat="44.49484" lon="-0.2681">
        <ele>71</ele>
        <time>2020-09-08T16:52:29Z</time>
      </trkpt>
      <trkpt lat="44.49485" lon="-0.26813">
        <ele>70.9</ele>
        <time>2020-09-08T16:52:30Z</time>
      </trkpt>
      <trkpt lat="44.49485" lon="-0.26814">
        <ele>70.9</ele>
        <time>2020-09-08T16:52:31Z</time>
      </trkpt>
      <trkpt lat="44.49485" lon="-0.26815">
        <ele>70.9</ele>
        <time>2020-09-08T16:52:33Z</time>
      </trkpt>
      <trkpt lat="44.49485" lon="-0.26816">
        <ele>70.8</ele>
        <time>2020-09-08T16:52:35Z</time>
      </trkpt>
      <trkpt lat="44.49485" lon="-0.26815">
        <ele>70.8</ele>
        <time>2020-09-08T16:52:37Z</time>
      </trkpt>
      <trkpt lat="44.49485" lon="-0.26815">
        <ele>70.8</ele>
        <time>2020-09-08T16:52:39Z</time>
      </trkpt>
      <trkpt lat="44.49485" lon="-0.26815">
        <ele>70.8</ele>
        <time>2020-09-08T16:52:41Z</time>
      </trkpt>
      <trkpt lat="44.49485" lon="-0.26814">
        <ele>70.8</ele>
        <time>2020-09-08T16:52:43Z</time>
      </trkpt>
      <trkpt lat="44.49485" lon="-0.26813">
        <ele>70.8</ele>
        <time>2020-09-08T16:52:44Z</time>
      </trkpt>
      <trkpt lat="44.49485" lon="-0.26813">
        <ele>70.8</ele>
        <time>2020-09-08T16:52:46Z</time>
      </trkpt>
      <trkpt lat="44.49485" lon="-0.26813">
        <ele>70.8</ele>
        <time>2020-09-08T16:52:47Z</time>
      </trkpt>
      <trkpt lat="44.49485" lon="-0.26815">
        <ele>70.7</ele>
        <time>2020-09-08T16:52:49Z</time>
      </trkpt>
      <trkpt lat="44.49485" lon="-0.26816">
        <ele>70.7</ele>
        <time>2020-09-08T16:52:51Z</time>
      </trkpt>
      <trkpt lat="44.49485" lon="-0.26816">
        <ele>70.7</ele>
        <time>2020-09-08T16:52:53Z</time>
      </trkpt>
      <trkpt lat="44.49485" lon="-0.26816">
        <ele>70.7</ele>
        <time>2020-09-08T16:52:54Z</time>
      </trkpt>
      <trkpt lat="44.49485" lon="-0.26816">
        <ele>70.7</ele>
        <time>2020-09-08T16:52:56Z</time>
      </trkpt>
      <trkpt lat="44.49484" lon="-0.26816">
        <ele>70.7</ele>
        <time>2020-09-08T16:52:57Z</time>
      </trkpt>
      <trkpt lat="44.49484" lon="-0.26815">
        <ele>70.6</ele>
        <time>2020-09-08T16:52:59Z</time>
      </trkpt>
      <trkpt lat="44.49483" lon="-0.26815">
        <ele>70.6</ele>
        <time>2020-09-08T16:53:00Z</time>
      </trkpt>
      <trkpt lat="44.49482" lon="-0.26815">
        <ele>70.6</ele>
        <time>2020-09-08T16:53:02Z</time>
      </trkpt>
      <trkpt lat="44.49483" lon="-0.26816">
        <ele>70.6</ele>
        <time>2020-09-08T16:53:03Z</time>
      </trkpt>
      <trkpt lat="44.49482" lon="-0.26816">
        <ele>70.6</ele>
        <time>2020-09-08T16:53:04Z</time>
      </trkpt>
      <trkpt lat="44.49481" lon="-0.26817">
        <ele>70.5</ele>
        <time>2020-09-08T16:53:06Z</time>
      </trkpt>
      <trkpt lat="44.49481" lon="-0.26818">
        <ele>70.5</ele>
        <time>2020-09-08T16:53:07Z</time>
      </trkpt>
      <trkpt lat="44.4948" lon="-0.26819">
        <ele>70.4</ele>
        <time>2020-09-08T16:53:09Z</time>
      </trkpt>
      <trkpt lat="44.49479" lon="-0.2682">
        <ele>70.4</ele>
        <time>2020-09-08T16:53:11Z</time>
      </trkpt>
      <trkpt lat="44.49479" lon="-0.26819">
        <ele>70.4</ele>
        <time>2020-09-08T16:53:13Z</time>
      </trkpt>
      <trkpt lat="44.4948" lon="-0.26818">
        <ele>70.3</ele>
        <time>2020-09-08T16:53:15Z</time>
      </trkpt>
      <trkpt lat="44.4948" lon="-0.26818">
        <ele>70.3</ele>
        <time>2020-09-08T16:53:16Z</time>
      </trkpt>
      <trkpt lat="44.4948" lon="-0.26817">
        <ele>70.3</ele>
        <time>2020-09-08T16:53:18Z</time>
      </trkpt>
      <trkpt lat="44.4948" lon="-0.26817">
        <ele>70.3</ele>
        <time>2020-09-08T16:53:19Z</time>
      </trkpt>
      <trkpt lat="44.4948" lon="-0.26817">
        <ele>70.3</ele>
        <time>2020-09-08T16:53:21Z</time>
      </trkpt>
      <trkpt lat="44.4948" lon="-0.26816">
        <ele>70.3</ele>
        <time>2020-09-08T16:53:23Z</time>
      </trkpt>
      <trkpt lat="44.4948" lon="-0.26816">
        <ele>70.2</ele>
        <time>2020-09-08T16:53:25Z</time>
      </trkpt>
      <trkpt lat="44.4948" lon="-0.26816">
        <ele>70.2</ele>
        <time>2020-09-08T16:53:26Z</time>
      </trkpt>
      <trkpt lat="44.49479" lon="-0.26816">
        <ele>70.2</ele>
        <time>2020-09-08T16:53:28Z</time>
      </trkpt>
      <trkpt lat="44.49477" lon="-0.26816">
        <ele>70.1</ele>
        <time>2020-09-08T16:53:30Z</time>
      </trkpt>
      <trkpt lat="44.49478" lon="-0.26816">
        <ele>70</ele>
        <time>2020-09-08T16:53:32Z</time>
      </trkpt>
      <trkpt lat="44.49479" lon="-0.26817">
        <ele>70</ele>
        <time>2020-09-08T16:53:33Z</time>
      </trkpt>
      <trkpt lat="44.4948" lon="-0.26817">
        <ele>69.9</ele>
        <time>2020-09-08T16:53:34Z</time>
      </trkpt>
      <trkpt lat="44.49482" lon="-0.26817">
        <ele>69.9</ele>
        <time>2020-09-08T16:53:36Z</time>
      </trkpt>
      <trkpt lat="44.49482" lon="-0.26817">
        <ele>69.8</ele>
        <time>2020-09-08T16:53:37Z</time>
      </trkpt>
      <trkpt lat="44.49484" lon="-0.26818">
        <ele>69.7</ele>
        <time>2020-09-08T16:53:39Z</time>
      </trkpt>
      <trkpt lat="44.49485" lon="-0.2682">
        <ele>69.7</ele>
        <time>2020-09-08T16:53:41Z</time>
      </trkpt>
      <trkpt lat="44.49484" lon="-0.26819">
        <ele>69.6</ele>
        <time>2020-09-08T16:53:43Z</time>
      </trkpt>
      <trkpt lat="44.49483" lon="-0.26818">
        <ele>69.5</ele>
        <time>2020-09-08T16:53:44Z</time>
      </trkpt>
      <trkpt lat="44.49484" lon="-0.26818">
        <ele>69.5</ele>
        <time>2020-09-08T16:53:46Z</time>
      </trkpt>
      <trkpt lat="44.49484" lon="-0.26818">
        <ele>69.5</ele>
        <time>2020-09-08T16:53:47Z</time>
      </trkpt>
      <trkpt lat="44.49485" lon="-0.26817">
        <ele>69.4</ele>
        <time>2020-09-08T16:53:48Z</time>
      </trkpt>
      <trkpt lat="44.49486" lon="-0.26816">
        <ele>69.4</ele>
        <time>2020-09-08T16:53:49Z</time>
      </trkpt>
      <trkpt lat="44.49487" lon="-0.26815">
        <ele>69.3</ele>
        <time>2020-09-08T16:53:51Z</time>
      </trkpt>
      <trkpt lat="44.49488" lon="-0.26815">
        <ele>69.3</ele>
        <time>2020-09-08T16:53:52Z</time>
      </trkpt>
      <trkpt lat="44.49489" lon="-0.26815">
        <ele>69.2</ele>
        <time>2020-09-08T16:53:53Z</time>
      </trkpt>
      <trkpt lat="44.4949" lon="-0.26815">
        <ele>69.2</ele>
        <time>2020-09-08T16:53:54Z</time>
      </trkpt>
      <trkpt lat="44.4949" lon="-0.26815">
        <ele>69.1</ele>
        <time>2020-09-08T16:53:55Z</time>
      </trkpt>
      <trkpt lat="44.49491" lon="-0.26815">
        <ele>69.1</ele>
        <time>2020-09-08T16:53:56Z</time>
      </trkpt>
      <trkpt lat="44.49491" lon="-0.26816">
        <ele>69.1</ele>
        <time>2020-09-08T16:53:57Z</time>
      </trkpt>
      <trkpt lat="44.49492" lon="-0.26817">
        <ele>69</ele>
        <time>2020-09-08T16:53:59Z</time>
      </trkpt>
      <trkpt lat="44.49493" lon="-0.26817">
        <ele>69</ele>
        <time>2020-09-08T16:54:00Z</time>
      </trkpt>
      <trkpt lat="44.49494" lon="-0.26817">
        <ele>68.9</ele>
        <time>2020-09-08T16:54:02Z</time>
      </trkpt>
      <trkpt lat="44.49495" lon="-0.26818">
        <ele>68.9</ele>
        <time>2020-09-08T16:54:03Z</time>
      </trkpt>
      <trkpt lat="44.49497" lon="-0.26818">
        <ele>68.8</ele>
        <time>2020-09-08T16:54:05Z</time>
      </trkpt>
      <trkpt lat="44.49497" lon="-0.26819">
        <ele>68.8</ele>
        <time>2020-09-08T16:54:06Z</time>
      </trkpt>
      <trkpt lat="44.49497" lon="-0.26821">
        <ele>68.7</ele>
        <time>2020-09-08T16:54:07Z</time>
      </trkpt>
      <trkpt lat="44.49497" lon="-0.26823">
        <ele>68.6</ele>
        <time>2020-09-08T16:54:08Z</time>
      </trkpt>
      <trkpt lat="44.49498" lon="-0.26825">
        <ele>68.5</ele>
        <time>2020-09-08T16:54:09Z</time>
      </trkpt>
      <trkpt lat="44.49499" lon="-0.26827">
        <ele>68.4</ele>
        <time>2020-09-08T16:54:11Z</time>
      </trkpt>
      <trkpt lat="44.49501" lon="-0.26832">
        <ele>68.2</ele>
        <time>2020-09-08T16:54:12Z</time>
      </trkpt>
      <trkpt lat="44.49501" lon="-0.26833">
        <ele>68.2</ele>
        <time>2020-09-08T16:54:13Z</time>
      </trkpt>
      <trkpt lat="44.49502" lon="-0.26835">
        <ele>68.1</ele>
        <time>2020-09-08T16:54:14Z</time>
      </trkpt>
      <trkpt lat="44.49502" lon="-0.26836">
        <ele>68.1</ele>
        <time>2020-09-08T16:54:15Z</time>
      </trkpt>
      <trkpt lat="44.49503" lon="-0.26839">
        <ele>67.9</ele>
        <time>2020-09-08T16:54:17Z</time>
      </trkpt>
      <trkpt lat="44.49503" lon="-0.2684">
        <ele>67.9</ele>
        <time>2020-09-08T16:54:18Z</time>
      </trkpt>
      <trkpt lat="44.49505" lon="-0.26843">
        <ele>67.7</ele>
        <time>2020-09-08T16:54:20Z</time>
      </trkpt>
      <trkpt lat="44.49505" lon="-0.26845">
        <ele>67.6</ele>
        <time>2020-09-08T16:54:21Z</time>
      </trkpt>
      <trkpt lat="44.49505" lon="-0.26846">
        <ele>67.6</ele>
        <time>2020-09-08T16:54:22Z</time>
      </trkpt>
      <trkpt lat="44.49506" lon="-0.26849">
        <ele>67.4</ele>
        <time>2020-09-08T16:54:23Z</time>
      </trkpt>
      <trkpt lat="44.49506" lon="-0.2685">
        <ele>67.4</ele>
        <time>2020-09-08T16:54:24Z</time>
      </trkpt>
      <trkpt lat="44.49507" lon="-0.26852">
        <ele>67.3</ele>
        <time>2020-09-08T16:54:25Z</time>
      </trkpt>
      <trkpt lat="44.49506" lon="-0.26855">
        <ele>67.2</ele>
        <time>2020-09-08T16:54:27Z</time>
      </trkpt>
      <trkpt lat="44.49506" lon="-0.26855">
        <ele>67.2</ele>
        <time>2020-09-08T16:54:28Z</time>
      </trkpt>
      <trkpt lat="44.49505" lon="-0.26858">
        <ele>67</ele>
        <time>2020-09-08T16:54:29Z</time>
      </trkpt>
      <trkpt lat="44.49505" lon="-0.26859">
        <ele>67</ele>
        <time>2020-09-08T16:54:31Z</time>
      </trkpt>
      <trkpt lat="44.49505" lon="-0.26861">
        <ele>66.9</ele>
        <time>2020-09-08T16:54:32Z</time>
      </trkpt>
      <trkpt lat="44.49505" lon="-0.26862">
        <ele>66.8</ele>
        <time>2020-09-08T16:54:33Z</time>
      </trkpt>
      <trkpt lat="44.49505" lon="-0.26863">
        <ele>66.8</ele>
        <time>2020-09-08T16:54:34Z</time>
      </trkpt>
      <trkpt lat="44.49504" lon="-0.26864">
        <ele>66.7</ele>
        <time>2020-09-08T16:54:35Z</time>
      </trkpt>
      <trkpt lat="44.49504" lon="-0.26869">
        <ele>66.5</ele>
        <time>2020-09-08T16:54:37Z</time>
      </trkpt>
      <trkpt lat="44.49504" lon="-0.2687">
        <ele>66.5</ele>
        <time>2020-09-08T16:54:39Z</time>
      </trkpt>
      <trkpt lat="44.49504" lon="-0.26872">
        <ele>66.4</ele>
        <time>2020-09-08T16:54:40Z</time>
      </trkpt>
      <trkpt lat="44.49503" lon="-0.26874">
        <ele>66.3</ele>
        <time>2020-09-08T16:54:41Z</time>
      </trkpt>
      <trkpt lat="44.49503" lon="-0.26877">
        <ele>66.2</ele>
        <time>2020-09-08T16:54:42Z</time>
      </trkpt>
      <trkpt lat="44.49503" lon="-0.26878">
        <ele>66.1</ele>
        <time>2020-09-08T16:54:43Z</time>
      </trkpt>
      <trkpt lat="44.49503" lon="-0.2688">
        <ele>66</ele>
        <time>2020-09-08T16:54:44Z</time>
      </trkpt>
      <trkpt lat="44.49503" lon="-0.26881">
        <ele>66</ele>
        <time>2020-09-08T16:54:46Z</time>
      </trkpt>
      <trkpt lat="44.49503" lon="-0.26882">
        <ele>65.9</ele>
        <time>2020-09-08T16:54:47Z</time>
      </trkpt>
      <trkpt lat="44.49502" lon="-0.26883">
        <ele>65.9</ele>
        <time>2020-09-08T16:54:48Z</time>
      </trkpt>
      <trkpt lat="44.49502" lon="-0.26883">
        <ele>65.8</ele>
        <time>2020-09-08T16:54:49Z</time>
      </trkpt>
      <trkpt lat="44.49501" lon="-0.26888">
        <ele>65.6</ele>
        <time>2020-09-08T16:54:50Z</time>
      </trkpt>
      <trkpt lat="44.49501" lon="-0.2689">
        <ele>65.5</ele>
        <time>2020-09-08T16:54:51Z</time>
      </trkpt>
      <trkpt lat="44.495" lon="-0.26893">
        <ele>65.4</ele>
        <time>2020-09-08T16:54:53Z</time>
      </trkpt>
      <trkpt lat="44.495" lon="-0.26894">
        <ele>65.4</ele>
        <time>2020-09-08T16:54:54Z</time>
      </trkpt>
      <trkpt lat="44.495" lon="-0.26898">
        <ele>65.2</ele>
        <time>2020-09-08T16:54:55Z</time>
      </trkpt>
      <trkpt lat="44.49499" lon="-0.26899">
        <ele>65.1</ele>
        <time>2020-09-08T16:54:56Z</time>
      </trkpt>
      <trkpt lat="44.49499" lon="-0.26902">
        <ele>65</ele>
        <time>2020-09-08T16:54:58Z</time>
      </trkpt>
      <trkpt lat="44.49499" lon="-0.26903">
        <ele>64.9</ele>
        <time>2020-09-08T16:54:59Z</time>
      </trkpt>
      <trkpt lat="44.49498" lon="-0.26905">
        <ele>64.8</ele>
        <time>2020-09-08T16:55:00Z</time>
      </trkpt>
      <trkpt lat="44.49498" lon="-0.26909">
        <ele>64.6</ele>
        <time>2020-09-08T16:55:01Z</time>
      </trkpt>
      <trkpt lat="44.49497" lon="-0.26911">
        <ele>64.5</ele>
        <time>2020-09-08T16:55:02Z</time>
      </trkpt>
      <trkpt lat="44.49497" lon="-0.26912">
        <ele>64.5</ele>
        <time>2020-09-08T16:55:03Z</time>
      </trkpt>
      <trkpt lat="44.49496" lon="-0.26913">
        <ele>64.4</ele>
        <time>2020-09-08T16:55:05Z</time>
      </trkpt>
      <trkpt lat="44.49496" lon="-0.26915">
        <ele>64.3</ele>
        <time>2020-09-08T16:55:06Z</time>
      </trkpt>
      <trkpt lat="44.49495" lon="-0.26917">
        <ele>64.2</ele>
        <time>2020-09-08T16:55:07Z</time>
      </trkpt>
      <trkpt lat="44.49494" lon="-0.26918">
        <ele>64.1</ele>
        <time>2020-09-08T16:55:08Z</time>
      </trkpt>
      <trkpt lat="44.49493" lon="-0.2692">
        <ele>64</ele>
        <time>2020-09-08T16:55:09Z</time>
      </trkpt>
      <trkpt lat="44.49492" lon="-0.26921">
        <ele>63.9</ele>
        <time>2020-09-08T16:55:10Z</time>
      </trkpt>
      <trkpt lat="44.49491" lon="-0.26922">
        <ele>63.8</ele>
        <time>2020-09-08T16:55:11Z</time>
      </trkpt>
      <trkpt lat="44.4949" lon="-0.26925">
        <ele>63.7</ele>
        <time>2020-09-08T16:55:13Z</time>
      </trkpt>
      <trkpt lat="44.49489" lon="-0.26926">
        <ele>63.6</ele>
        <time>2020-09-08T16:55:14Z</time>
      </trkpt>
      <trkpt lat="44.49488" lon="-0.26927">
        <ele>63.5</ele>
        <time>2020-09-08T16:55:15Z</time>
      </trkpt>
      <trkpt lat="44.49487" lon="-0.26928">
        <ele>63.4</ele>
        <time>2020-09-08T16:55:16Z</time>
      </trkpt>
      <trkpt lat="44.49485" lon="-0.26931">
        <ele>63.2</ele>
        <time>2020-09-08T16:55:18Z</time>
      </trkpt>
      <trkpt lat="44.49485" lon="-0.26933">
        <ele>63.1</ele>
        <time>2020-09-08T16:55:19Z</time>
      </trkpt>
      <trkpt lat="44.49484" lon="-0.26934">
        <ele>63.1</ele>
        <time>2020-09-08T16:55:20Z</time>
      </trkpt>
      <trkpt lat="44.49483" lon="-0.26935">
        <ele>63</ele>
        <time>2020-09-08T16:55:21Z</time>
      </trkpt>
      <trkpt lat="44.49482" lon="-0.26938">
        <ele>62.8</ele>
        <time>2020-09-08T16:55:23Z</time>
      </trkpt>
      <trkpt lat="44.49481" lon="-0.2694">
        <ele>62.7</ele>
        <time>2020-09-08T16:55:24Z</time>
      </trkpt>
      <trkpt lat="44.49479" lon="-0.26943">
        <ele>62.5</ele>
        <time>2020-09-08T16:55:26Z</time>
      </trkpt>
      <trkpt lat="44.49479" lon="-0.26944">
        <ele>62.4</ele>
        <time>2020-09-08T16:55:27Z</time>
      </trkpt>
      <trkpt lat="44.49478" lon="-0.26946">
        <ele>62.4</ele>
        <time>2020-09-08T16:55:28Z</time>
      </trkpt>
      <trkpt lat="44.49477" lon="-0.26947">
        <ele>62.3</ele>
        <time>2020-09-08T16:55:30Z</time>
      </trkpt>
      <trkpt lat="44.49476" lon="-0.2695">
        <ele>62.1</ele>
        <time>2020-09-08T16:55:31Z</time>
      </trkpt>
      <trkpt lat="44.49475" lon="-0.26953">
        <ele>61.9</ele>
        <time>2020-09-08T16:55:32Z</time>
      </trkpt>
      <trkpt lat="44.49474" lon="-0.26954">
        <ele>61.9</ele>
        <time>2020-09-08T16:55:34Z</time>
      </trkpt>
      <trkpt lat="44.49474" lon="-0.26955">
        <ele>61.8</ele>
        <time>2020-09-08T16:55:35Z</time>
      </trkpt>
      <trkpt lat="44.49473" lon="-0.26957">
        <ele>61.7</ele>
        <time>2020-09-08T16:55:36Z</time>
      </trkpt>
      <trkpt lat="44.49472" lon="-0.26958">
        <ele>61.6</ele>
        <time>2020-09-08T16:55:37Z</time>
      </trkpt>
      <trkpt lat="44.49472" lon="-0.2696">
        <ele>61.5</ele>
        <time>2020-09-08T16:55:38Z</time>
      </trkpt>
      <trkpt lat="44.49471" lon="-0.26961">
        <ele>61.5</ele>
        <time>2020-09-08T16:55:39Z</time>
      </trkpt>
      <trkpt lat="44.4947" lon="-0.26964">
        <ele>61.3</ele>
        <time>2020-09-08T16:55:41Z</time>
      </trkpt>
      <trkpt lat="44.49469" lon="-0.26966">
        <ele>61.2</ele>
        <time>2020-09-08T16:55:42Z</time>
      </trkpt>
      <trkpt lat="44.49469" lon="-0.26967">
        <ele>61.1</ele>
        <time>2020-09-08T16:55:43Z</time>
      </trkpt>
      <trkpt lat="44.49468" lon="-0.26968">
        <ele>61</ele>
        <time>2020-09-08T16:55:44Z</time>
      </trkpt>
      <trkpt lat="44.49468" lon="-0.2697">
        <ele>61</ele>
        <time>2020-09-08T16:55:45Z</time>
      </trkpt>
      <trkpt lat="44.49467" lon="-0.26971">
        <ele>60.9</ele>
        <time>2020-09-08T16:55:47Z</time>
      </trkpt>
      <trkpt lat="44.49466" lon="-0.26972">
        <ele>60.8</ele>
        <time>2020-09-08T16:55:48Z</time>
      </trkpt>
      <trkpt lat="44.49465" lon="-0.26973">
        <ele>60.7</ele>
        <time>2020-09-08T16:55:49Z</time>
      </trkpt>
      <trkpt lat="44.49464" lon="-0.26976">
        <ele>60.6</ele>
        <time>2020-09-08T16:55:51Z</time>
      </trkpt>
      <trkpt lat="44.49464" lon="-0.26977">
        <ele>60.5</ele>
        <time>2020-09-08T16:55:52Z</time>
      </trkpt>
      <trkpt lat="44.49463" lon="-0.26978">
        <ele>60.4</ele>
        <time>2020-09-08T16:55:54Z</time>
      </trkpt>
      <trkpt lat="44.49462" lon="-0.2698">
        <ele>60.3</ele>
        <time>2020-09-08T16:55:55Z</time>
      </trkpt>
      <trkpt lat="44.49461" lon="-0.26981">
        <ele>60.2</ele>
        <time>2020-09-08T16:55:56Z</time>
      </trkpt>
      <trkpt lat="44.49461" lon="-0.26982">
        <ele>60.1</ele>
        <time>2020-09-08T16:55:57Z</time>
      </trkpt>
      <trkpt lat="44.4946" lon="-0.26983">
        <ele>60.1</ele>
        <time>2020-09-08T16:55:58Z</time>
      </trkpt>
      <trkpt lat="44.4946" lon="-0.26985">
        <ele>60</ele>
        <time>2020-09-08T16:56:00Z</time>
      </trkpt>
      <trkpt lat="44.4946" lon="-0.26984">
        <ele>59.9</ele>
        <time>2020-09-08T16:56:02Z</time>
      </trkpt>
      <trkpt lat="44.49461" lon="-0.26982">
        <ele>59.8</ele>
        <time>2020-09-08T16:56:03Z</time>
      </trkpt>
      <trkpt lat="44.49461" lon="-0.2698">
        <ele>59.7</ele>
        <time>2020-09-08T16:56:04Z</time>
      </trkpt>
      <trkpt lat="44.49461" lon="-0.26979">
        <ele>59.7</ele>
        <time>2020-09-08T16:56:05Z</time>
      </trkpt>
      <trkpt lat="44.49461" lon="-0.26976">
        <ele>59.5</ele>
        <time>2020-09-08T16:56:07Z</time>
      </trkpt>
      <trkpt lat="44.49461" lon="-0.26974">
        <ele>59.4</ele>
        <time>2020-09-08T16:56:08Z</time>
      </trkpt>
      <trkpt lat="44.49461" lon="-0.26972">
        <ele>59.3</ele>
        <time>2020-09-08T16:56:10Z</time>
      </trkpt>
      <trkpt lat="44.49461" lon="-0.26971">
        <ele>59.3</ele>
        <time>2020-09-08T16:56:11Z</time>
      </trkpt>
      <trkpt lat="44.4946" lon="-0.26971">
        <ele>59.3</ele>
        <time>2020-09-08T16:56:12Z</time>
      </trkpt>
      <trkpt lat="44.4946" lon="-0.26971">
        <ele>59.2</ele>
        <time>2020-09-08T16:56:13Z</time>
      </trkpt>
      <trkpt lat="44.4946" lon="-0.2697">
        <ele>59.2</ele>
        <time>2020-09-08T16:56:14Z</time>
      </trkpt>
      <trkpt lat="44.4946" lon="-0.26971">
        <ele>59.2</ele>
        <time>2020-09-08T16:56:16Z</time>
      </trkpt>
      <trkpt lat="44.4946" lon="-0.26972">
        <ele>59.1</ele>
        <time>2020-09-08T16:56:17Z</time>
      </trkpt>
      <trkpt lat="44.4946" lon="-0.26973">
        <ele>59.1</ele>
        <time>2020-09-08T16:56:18Z</time>
      </trkpt>
      <trkpt lat="44.49459" lon="-0.26974">
        <ele>59</ele>
        <time>2020-09-08T16:56:19Z</time>
      </trkpt>
      <trkpt lat="44.49459" lon="-0.26975">
        <ele>59</ele>
        <time>2020-09-08T16:56:20Z</time>
      </trkpt>
      <trkpt lat="44.49458" lon="-0.26977">
        <ele>58.8</ele>
        <time>2020-09-08T16:56:21Z</time>
      </trkpt>
      <trkpt lat="44.49457" lon="-0.2698">
        <ele>58.7</ele>
        <time>2020-09-08T16:56:23Z</time>
      </trkpt>
      <trkpt lat="44.49457" lon="-0.26981">
        <ele>58.6</ele>
        <time>2020-09-08T16:56:24Z</time>
      </trkpt>
      <trkpt lat="44.49456" lon="-0.26982">
        <ele>58.5</ele>
        <time>2020-09-08T16:56:25Z</time>
      </trkpt>
      <trkpt lat="44.49455" lon="-0.26985">
        <ele>58.4</ele>
        <time>2020-09-08T16:56:27Z</time>
      </trkpt>
      <trkpt lat="44.49454" lon="-0.26986">
        <ele>58.3</ele>
        <time>2020-09-08T16:56:28Z</time>
      </trkpt>
      <trkpt lat="44.49454" lon="-0.26988">
        <ele>58.2</ele>
        <time>2020-09-08T16:56:30Z</time>
      </trkpt>
      <trkpt lat="44.49454" lon="-0.26988">
        <ele>58.1</ele>
        <time>2020-09-08T16:56:32Z</time>
      </trkpt>
      <trkpt lat="44.49454" lon="-0.26989">
        <ele>58.1</ele>
        <time>2020-09-08T16:56:33Z</time>
      </trkpt>
      <trkpt lat="44.49454" lon="-0.2699">
        <ele>58.1</ele>
        <time>2020-09-08T16:56:34Z</time>
      </trkpt>
      <trkpt lat="44.49454" lon="-0.26991">
        <ele>58</ele>
        <time>2020-09-08T16:56:35Z</time>
      </trkpt>
      <trkpt lat="44.49454" lon="-0.26992">
        <ele>58</ele>
        <time>2020-09-08T16:56:36Z</time>
      </trkpt>
      <trkpt lat="44.49454" lon="-0.26994">
        <ele>57.9</ele>
        <time>2020-09-08T16:56:37Z</time>
      </trkpt>
      <trkpt lat="44.49453" lon="-0.26995">
        <ele>57.8</ele>
        <time>2020-09-08T16:56:38Z</time>
      </trkpt>
      <trkpt lat="44.49453" lon="-0.26997">
        <ele>57.7</ele>
        <time>2020-09-08T16:56:39Z</time>
      </trkpt>
      <trkpt lat="44.49453" lon="-0.26999">
        <ele>57.6</ele>
        <time>2020-09-08T16:56:40Z</time>
      </trkpt>
      <trkpt lat="44.49453" lon="-0.27">
        <ele>57.5</ele>
        <time>2020-09-08T16:56:41Z</time>
      </trkpt>
      <trkpt lat="44.49452" lon="-0.27002">
        <ele>57.5</ele>
        <time>2020-09-08T16:56:42Z</time>
      </trkpt>
      <trkpt lat="44.49452" lon="-0.27003">
        <ele>57.4</ele>
        <time>2020-09-08T16:56:43Z</time>
      </trkpt>
      <trkpt lat="44.49452" lon="-0.27005">
        <ele>57.3</ele>
        <time>2020-09-08T16:56:45Z</time>
      </trkpt>
      <trkpt lat="44.49451" lon="-0.27007">
        <ele>57.2</ele>
        <time>2020-09-08T16:56:46Z</time>
      </trkpt>
      <trkpt lat="44.49452" lon="-0.27007">
        <ele>57.2</ele>
        <time>2020-09-08T16:56:47Z</time>
      </trkpt>
      <trkpt lat="44.49451" lon="-0.27009">
        <ele>57.1</ele>
        <time>2020-09-08T16:56:48Z</time>
      </trkpt>
      <trkpt lat="44.49451" lon="-0.2701">
        <ele>57</ele>
        <time>2020-09-08T16:56:49Z</time>
      </trkpt>
      <trkpt lat="44.49451" lon="-0.27011">
        <ele>57</ele>
        <time>2020-09-08T16:56:50Z</time>
      </trkpt>
      <trkpt lat="44.49451" lon="-0.27013">
        <ele>56.9</ele>
        <time>2020-09-08T16:56:51Z</time>
      </trkpt>
      <trkpt lat="44.49451" lon="-0.27014">
        <ele>56.9</ele>
        <time>2020-09-08T16:56:52Z</time>
      </trkpt>
      <trkpt lat="44.49451" lon="-0.27015">
        <ele>56.8</ele>
        <time>2020-09-08T16:56:53Z</time>
      </trkpt>
      <trkpt lat="44.49451" lon="-0.27016">
        <ele>56.7</ele>
        <time>2020-09-08T16:56:54Z</time>
      </trkpt>
      <trkpt lat="44.4945" lon="-0.27019">
        <ele>56.6</ele>
        <time>2020-09-08T16:56:56Z</time>
      </trkpt>
      <trkpt lat="44.4945" lon="-0.2702">
        <ele>56.5</ele>
        <time>2020-09-08T16:56:57Z</time>
      </trkpt>
      <trkpt lat="44.49449" lon="-0.27023">
        <ele>56.4</ele>
        <time>2020-09-08T16:56:58Z</time>
      </trkpt>
      <trkpt lat="44.49449" lon="-0.27024">
        <ele>56.4</ele>
        <time>2020-09-08T16:56:59Z</time>
      </trkpt>
      <trkpt lat="44.49449" lon="-0.27025">
        <ele>56.3</ele>
        <time>2020-09-08T16:57:00Z</time>
      </trkpt>
      <trkpt lat="44.49448" lon="-0.27027">
        <ele>56.2</ele>
        <time>2020-09-08T16:57:02Z</time>
      </trkpt>
      <trkpt lat="44.49448" lon="-0.27029">
        <ele>56.1</ele>
        <time>2020-09-08T16:57:03Z</time>
      </trkpt>
      <trkpt lat="44.49448" lon="-0.27031">
        <ele>56</ele>
        <time>2020-09-08T16:57:04Z</time>
      </trkpt>
      <trkpt lat="44.49447" lon="-0.27033">
        <ele>55.9</ele>
        <time>2020-09-08T16:57:05Z</time>
      </trkpt>
      <trkpt lat="44.49446" lon="-0.27035">
        <ele>55.8</ele>
        <time>2020-09-08T16:57:06Z</time>
      </trkpt>
      <trkpt lat="44.49446" lon="-0.27037">
        <ele>55.7</ele>
        <time>2020-09-08T16:57:07Z</time>
      </trkpt>
      <trkpt lat="44.49445" lon="-0.2704">
        <ele>55.5</ele>
        <time>2020-09-08T16:57:09Z</time>
      </trkpt>
      <trkpt lat="44.49445" lon="-0.27041">
        <ele>55.5</ele>
        <time>2020-09-08T16:57:10Z</time>
      </trkpt>
      <trkpt lat="44.49445" lon="-0.27043">
        <ele>55.3</ele>
        <time>2020-09-08T16:57:11Z</time>
      </trkpt>
      <trkpt lat="44.49444" lon="-0.27045">
        <ele>55.3</ele>
        <time>2020-09-08T16:57:12Z</time>
      </trkpt>
      <trkpt lat="44.49444" lon="-0.27046">
        <ele>55.2</ele>
        <time>2020-09-08T16:57:14Z</time>
      </trkpt>
      <trkpt lat="44.49444" lon="-0.27047">
        <ele>55.1</ele>
        <time>2020-09-08T16:57:15Z</time>
      </trkpt>
      <trkpt lat="44.49444" lon="-0.27049">
        <ele>55.1</ele>
        <time>2020-09-08T16:57:16Z</time>
      </trkpt>
      <trkpt lat="44.49443" lon="-0.2705">
        <ele>55</ele>
        <time>2020-09-08T16:57:17Z</time>
      </trkpt>
      <trkpt lat="44.49443" lon="-0.27052">
        <ele>54.9</ele>
        <time>2020-09-08T16:57:18Z</time>
      </trkpt>
      <trkpt lat="44.49443" lon="-0.27053">
        <ele>54.8</ele>
        <time>2020-09-08T16:57:19Z</time>
      </trkpt>
      <trkpt lat="44.49442" lon="-0.27054">
        <ele>54.8</ele>
        <time>2020-09-08T16:57:20Z</time>
      </trkpt>
      <trkpt lat="44.49442" lon="-0.27056">
        <ele>54.7</ele>
        <time>2020-09-08T16:57:21Z</time>
      </trkpt>
      <trkpt lat="44.49442" lon="-0.27058">
        <ele>54.6</ele>
        <time>2020-09-08T16:57:23Z</time>
      </trkpt>
      <trkpt lat="44.49442" lon="-0.27059">
        <ele>54.5</ele>
        <time>2020-09-08T16:57:24Z</time>
      </trkpt>
      <trkpt lat="44.49441" lon="-0.27062">
        <ele>54.4</ele>
        <time>2020-09-08T16:57:26Z</time>
      </trkpt>
      <trkpt lat="44.49441" lon="-0.27063">
        <ele>54.3</ele>
        <time>2020-09-08T16:57:27Z</time>
      </trkpt>
      <trkpt lat="44.49441" lon="-0.27064">
        <ele>54.2</ele>
        <time>2020-09-08T16:57:28Z</time>
      </trkpt>
      <trkpt lat="44.49441" lon="-0.27065">
        <ele>54.2</ele>
        <time>2020-09-08T16:57:30Z</time>
      </trkpt>
      <trkpt lat="44.49441" lon="-0.27065">
        <ele>54.2</ele>
        <time>2020-09-08T16:57:31Z</time>
      </trkpt>
      <trkpt lat="44.49442" lon="-0.27065">
        <ele>54.2</ele>
        <time>2020-09-08T16:57:32Z</time>
      </trkpt>
      <trkpt lat="44.49442" lon="-0.27065">
        <ele>54.1</ele>
        <time>2020-09-08T16:57:33Z</time>
      </trkpt>
      <trkpt lat="44.49442" lon="-0.27065">
        <ele>54.1</ele>
        <time>2020-09-08T16:57:34Z</time>
      </trkpt>
      <trkpt lat="44.49442" lon="-0.27065">
        <ele>54.1</ele>
        <time>2020-09-08T16:57:36Z</time>
      </trkpt>
      <trkpt lat="44.49442" lon="-0.27065">
        <ele>54.1</ele>
        <time>2020-09-08T16:57:38Z</time>
      </trkpt>
      <trkpt lat="44.49442" lon="-0.27066">
        <ele>54</ele>
        <time>2020-09-08T16:57:39Z</time>
      </trkpt>
      <trkpt lat="44.49442" lon="-0.27067">
        <ele>54</ele>
        <time>2020-09-08T16:57:40Z</time>
      </trkpt>
      <trkpt lat="44.49442" lon="-0.27069">
        <ele>53.9</ele>
        <time>2020-09-08T16:57:41Z</time>
      </trkpt>
      <trkpt lat="44.49441" lon="-0.27072">
        <ele>53.7</ele>
        <time>2020-09-08T16:57:43Z</time>
      </trkpt>
      <trkpt lat="44.49441" lon="-0.27073">
        <ele>53.7</ele>
        <time>2020-09-08T16:57:44Z</time>
      </trkpt>
      <trkpt lat="44.49441" lon="-0.27073">
        <ele>53.6</ele>
        <time>2020-09-08T16:57:45Z</time>
      </trkpt>
      <trkpt lat="44.49441" lon="-0.27074">
        <ele>53.6</ele>
        <time>2020-09-08T16:57:46Z</time>
      </trkpt>
      <trkpt lat="44.49441" lon="-0.27076">
        <ele>53.5</ele>
        <time>2020-09-08T16:57:48Z</time>
      </trkpt>
      <trkpt lat="44.4944" lon="-0.27077">
        <ele>53.4</ele>
        <time>2020-09-08T16:57:49Z</time>
      </trkpt>
      <trkpt lat="44.4944" lon="-0.27078">
        <ele>53.4</ele>
        <time>2020-09-08T16:57:50Z</time>
      </trkpt>
      <trkpt lat="44.49439" lon="-0.2708">
        <ele>53.3</ele>
        <time>2020-09-08T16:57:51Z</time>
      </trkpt>
      <trkpt lat="44.49439" lon="-0.27081">
        <ele>53.2</ele>
        <time>2020-09-08T16:57:52Z</time>
      </trkpt>
      <trkpt lat="44.49438" lon="-0.27083">
        <ele>53.1</ele>
        <time>2020-09-08T16:57:54Z</time>
      </trkpt>
      <trkpt lat="44.49438" lon="-0.27084">
        <ele>53</ele>
        <time>2020-09-08T16:57:55Z</time>
      </trkpt>
      <trkpt lat="44.49437" lon="-0.27085">
        <ele>53</ele>
        <time>2020-09-08T16:57:56Z</time>
      </trkpt>
      <trkpt lat="44.49437" lon="-0.27086">
        <ele>52.9</ele>
        <time>2020-09-08T16:57:57Z</time>
      </trkpt>
      <trkpt lat="44.49437" lon="-0.27088">
        <ele>52.8</ele>
        <time>2020-09-08T16:57:59Z</time>
      </trkpt>
      <trkpt lat="44.49437" lon="-0.27089">
        <ele>52.8</ele>
        <time>2020-09-08T16:58:00Z</time>
      </trkpt>
      <trkpt lat="44.49437" lon="-0.27089">
        <ele>52.7</ele>
        <time>2020-09-08T16:58:01Z</time>
      </trkpt>
      <trkpt lat="44.49436" lon="-0.27091">
        <ele>52.6</ele>
        <time>2020-09-08T16:58:02Z</time>
      </trkpt>
      <trkpt lat="44.49436" lon="-0.27093">
        <ele>52.5</ele>
        <time>2020-09-08T16:58:04Z</time>
      </trkpt>
      <trkpt lat="44.49436" lon="-0.27094">
        <ele>52.5</ele>
        <time>2020-09-08T16:58:05Z</time>
      </trkpt>
      <trkpt lat="44.49436" lon="-0.27095">
        <ele>52.4</ele>
        <time>2020-09-08T16:58:07Z</time>
      </trkpt>
      <trkpt lat="44.49436" lon="-0.27096">
        <ele>52.3</ele>
        <time>2020-09-08T16:58:08Z</time>
      </trkpt>
      <trkpt lat="44.49436" lon="-0.27097">
        <ele>52.3</ele>
        <time>2020-09-08T16:58:09Z</time>
      </trkpt>
      <trkpt lat="44.49435" lon="-0.27098">
        <ele>52.2</ele>
        <time>2020-09-08T16:58:10Z</time>
      </trkpt>
      <trkpt lat="44.49435" lon="-0.27099">
        <ele>52.2</ele>
        <time>2020-09-08T16:58:11Z</time>
      </trkpt>
      <trkpt lat="44.49435" lon="-0.27101">
        <ele>52.1</ele>
        <time>2020-09-08T16:58:12Z</time>
      </trkpt>
      <trkpt lat="44.49435" lon="-0.27102">
        <ele>52.1</ele>
        <time>2020-09-08T16:58:13Z</time>
      </trkpt>
      <trkpt lat="44.49435" lon="-0.27103">
        <ele>52</ele>
        <time>2020-09-08T16:58:14Z</time>
      </trkpt>
      <trkpt lat="44.49434" lon="-0.27105">
        <ele>51.8</ele>
        <time>2020-09-08T16:58:16Z</time>
      </trkpt>
      <trkpt lat="44.49433" lon="-0.27107">
        <ele>51.7</ele>
        <time>2020-09-08T16:58:17Z</time>
      </trkpt>
      <trkpt lat="44.49433" lon="-0.27109">
        <ele>51.6</ele>
        <time>2020-09-08T16:58:18Z</time>
      </trkpt>
      <trkpt lat="44.49433" lon="-0.27112">
        <ele>51.5</ele>
        <time>2020-09-08T16:58:19Z</time>
      </trkpt>
      <trkpt lat="44.49433" lon="-0.27113">
        <ele>51.4</ele>
        <time>2020-09-08T16:58:20Z</time>
      </trkpt>
      <trkpt lat="44.49432" lon="-0.27115">
        <ele>51.3</ele>
        <time>2020-09-08T16:58:22Z</time>
      </trkpt>
      <trkpt lat="44.49432" lon="-0.27117">
        <ele>51.2</ele>
        <time>2020-09-08T16:58:23Z</time>
      </trkpt>
      <trkpt lat="44.49432" lon="-0.27118">
        <ele>51.1</ele>
        <time>2020-09-08T16:58:24Z</time>
      </trkpt>
      <trkpt lat="44.49432" lon="-0.2712">
        <ele>51</ele>
        <time>2020-09-08T16:58:25Z</time>
      </trkpt>
      <trkpt lat="44.49432" lon="-0.27121">
        <ele>51</ele>
        <time>2020-09-08T16:58:26Z</time>
      </trkpt>
      <trkpt lat="44.49432" lon="-0.27123">
        <ele>50.9</ele>
        <time>2020-09-08T16:58:28Z</time>
      </trkpt>
      <trkpt lat="44.49432" lon="-0.27125">
        <ele>50.8</ele>
        <time>2020-09-08T16:58:29Z</time>
      </trkpt>
      <trkpt lat="44.49432" lon="-0.27127">
        <ele>50.7</ele>
        <time>2020-09-08T16:58:31Z</time>
      </trkpt>
      <trkpt lat="44.49432" lon="-0.27128">
        <ele>50.6</ele>
        <time>2020-09-08T16:58:32Z</time>
      </trkpt>
      <trkpt lat="44.49432" lon="-0.27128">
        <ele>50.6</ele>
        <time>2020-09-08T16:58:33Z</time>
      </trkpt>
      <trkpt lat="44.49431" lon="-0.27129">
        <ele>50.6</ele>
        <time>2020-09-08T16:58:34Z</time>
      </trkpt>
      <trkpt lat="44.49431" lon="-0.27131">
        <ele>50.5</ele>
        <time>2020-09-08T16:58:36Z</time>
      </trkpt>
      <trkpt lat="44.49431" lon="-0.27132">
        <ele>50.4</ele>
        <time>2020-09-08T16:58:37Z</time>
      </trkpt>
      <trkpt lat="44.49431" lon="-0.27135">
        <ele>50.2</ele>
        <time>2020-09-08T16:58:38Z</time>
      </trkpt>
      <trkpt lat="44.49431" lon="-0.27136">
        <ele>50.2</ele>
        <time>2020-09-08T16:58:39Z</time>
      </trkpt>
      <trkpt lat="44.49431" lon="-0.27137">
        <ele>50.1</ele>
        <time>2020-09-08T16:58:40Z</time>
      </trkpt>
      <trkpt lat="44.49431" lon="-0.27139">
        <ele>50</ele>
        <time>2020-09-08T16:58:41Z</time>
      </trkpt>
      <trkpt lat="44.49431" lon="-0.2714">
        <ele>50</ele>
        <time>2020-09-08T16:58:42Z</time>
      </trkpt>
      <trkpt lat="44.49431" lon="-0.27142">
        <ele>49.9</ele>
        <time>2020-09-08T16:58:43Z</time>
      </trkpt>
      <trkpt lat="44.49431" lon="-0.27144">
        <ele>49.8</ele>
        <time>2020-09-08T16:58:44Z</time>
      </trkpt>
      <trkpt lat="44.49431" lon="-0.27146">
        <ele>49.7</ele>
        <time>2020-09-08T16:58:46Z</time>
      </trkpt>
      <trkpt lat="44.49431" lon="-0.27147">
        <ele>49.6</ele>
        <time>2020-09-08T16:58:47Z</time>
      </trkpt>
      <trkpt lat="44.49431" lon="-0.27149">
        <ele>49.5</ele>
        <time>2020-09-08T16:58:48Z</time>
      </trkpt>
      <trkpt lat="44.49431" lon="-0.2715">
        <ele>49.5</ele>
        <time>2020-09-08T16:58:49Z</time>
      </trkpt>
      <trkpt lat="44.4943" lon="-0.2715">
        <ele>49.4</ele>
        <time>2020-09-08T16:58:50Z</time>
      </trkpt>
      <trkpt lat="44.49429" lon="-0.27152">
        <ele>49.3</ele>
        <time>2020-09-08T16:58:52Z</time>
      </trkpt>
      <trkpt lat="44.49428" lon="-0.27153">
        <ele>49.2</ele>
        <time>2020-09-08T16:58:53Z</time>
      </trkpt>
      <trkpt lat="44.49427" lon="-0.27155">
        <ele>49.1</ele>
        <time>2020-09-08T16:58:55Z</time>
      </trkpt>
      <trkpt lat="44.49426" lon="-0.27158">
        <ele>48.9</ele>
        <time>2020-09-08T16:58:56Z</time>
      </trkpt>
      <trkpt lat="44.49426" lon="-0.27159">
        <ele>48.9</ele>
        <time>2020-09-08T16:58:57Z</time>
      </trkpt>
      <trkpt lat="44.49425" lon="-0.2716">
        <ele>48.8</ele>
        <time>2020-09-08T16:58:58Z</time>
      </trkpt>
      <trkpt lat="44.49426" lon="-0.27161">
        <ele>48.8</ele>
        <time>2020-09-08T16:59:00Z</time>
      </trkpt>
      <trkpt lat="44.49426" lon="-0.27162">
        <ele>48.7</ele>
        <time>2020-09-08T16:59:02Z</time>
      </trkpt>
      <trkpt lat="44.49425" lon="-0.27163">
        <ele>48.6</ele>
        <time>2020-09-08T16:59:03Z</time>
      </trkpt>
      <trkpt lat="44.49425" lon="-0.27165">
        <ele>48.5</ele>
        <time>2020-09-08T16:59:04Z</time>
      </trkpt>
      <trkpt lat="44.49424" lon="-0.27167">
        <ele>48.3</ele>
        <time>2020-09-08T16:59:06Z</time>
      </trkpt>
      <trkpt lat="44.49423" lon="-0.27168">
        <ele>48.2</ele>
        <time>2020-09-08T16:59:07Z</time>
      </trkpt>
      <trkpt lat="44.49424" lon="-0.27168">
        <ele>48.2</ele>
        <time>2020-09-08T16:59:08Z</time>
      </trkpt>
      <trkpt lat="44.49424" lon="-0.27169">
        <ele>48.1</ele>
        <time>2020-09-08T16:59:09Z</time>
      </trkpt>
      <trkpt lat="44.49425" lon="-0.27169">
        <ele>48</ele>
        <time>2020-09-08T16:59:11Z</time>
      </trkpt>
      <trkpt lat="44.49425" lon="-0.2717">
        <ele>47.9</ele>
        <time>2020-09-08T16:59:12Z</time>
      </trkpt>
      <trkpt lat="44.49426" lon="-0.27171">
        <ele>47.8</ele>
        <time>2020-09-08T16:59:13Z</time>
      </trkpt>
      <trkpt lat="44.49428" lon="-0.27172">
        <ele>47.7</ele>
        <time>2020-09-08T16:59:15Z</time>
      </trkpt>
      <trkpt lat="44.49428" lon="-0.27175">
        <ele>47.5</ele>
        <time>2020-09-08T16:59:16Z</time>
      </trkpt>
      <trkpt lat="44.49429" lon="-0.27176">
        <ele>47.4</ele>
        <time>2020-09-08T16:59:17Z</time>
      </trkpt>
      <trkpt lat="44.49429" lon="-0.27177">
        <ele>47.3</ele>
        <time>2020-09-08T16:59:19Z</time>
      </trkpt>
      <trkpt lat="44.4943" lon="-0.27177">
        <ele>47.2</ele>
        <time>2020-09-08T16:59:21Z</time>
      </trkpt>
      <trkpt lat="44.4943" lon="-0.27178">
        <ele>47.1</ele>
        <time>2020-09-08T16:59:22Z</time>
      </trkpt>
      <trkpt lat="44.49431" lon="-0.27181">
        <ele>46.9</ele>
        <time>2020-09-08T16:59:24Z</time>
      </trkpt>
      <trkpt lat="44.49431" lon="-0.27183">
        <ele>46.7</ele>
        <time>2020-09-08T16:59:25Z</time>
      </trkpt>
      <trkpt lat="44.49431" lon="-0.27185">
        <ele>46.6</ele>
        <time>2020-09-08T16:59:26Z</time>
      </trkpt>
      <trkpt lat="44.49432" lon="-0.27187">
        <ele>46.4</ele>
        <time>2020-09-08T16:59:28Z</time>
      </trkpt>
      <trkpt lat="44.49432" lon="-0.27189">
        <ele>46.3</ele>
        <time>2020-09-08T16:59:29Z</time>
      </trkpt>
      <trkpt lat="44.49433" lon="-0.27192">
        <ele>46.1</ele>
        <time>2020-09-08T16:59:30Z</time>
      </trkpt>
      <trkpt lat="44.49433" lon="-0.27194">
        <ele>46</ele>
        <time>2020-09-08T16:59:31Z</time>
      </trkpt>
      <trkpt lat="44.49434" lon="-0.27195">
        <ele>46</ele>
        <time>2020-09-08T16:59:32Z</time>
      </trkpt>
      <trkpt lat="44.49435" lon="-0.27196">
        <ele>45.9</ele>
        <time>2020-09-08T16:59:33Z</time>
      </trkpt>
      <trkpt lat="44.49435" lon="-0.27197">
        <ele>45.8</ele>
        <time>2020-09-08T16:59:35Z</time>
      </trkpt>
      <trkpt lat="44.49436" lon="-0.27198">
        <ele>45.7</ele>
        <time>2020-09-08T16:59:36Z</time>
      </trkpt>
      <trkpt lat="44.49436" lon="-0.272">
        <ele>45.6</ele>
        <time>2020-09-08T16:59:37Z</time>
      </trkpt>
      <trkpt lat="44.49437" lon="-0.27201">
        <ele>45.6</ele>
        <time>2020-09-08T16:59:38Z</time>
      </trkpt>
      <trkpt lat="44.49437" lon="-0.27203">
        <ele>45.5</ele>
        <time>2020-09-08T16:59:40Z</time>
      </trkpt>
      <trkpt lat="44.49438" lon="-0.27204">
        <ele>45.4</ele>
        <time>2020-09-08T16:59:41Z</time>
      </trkpt>
      <trkpt lat="44.49438" lon="-0.27207">
        <ele>45.2</ele>
        <time>2020-09-08T16:59:42Z</time>
      </trkpt>
      <trkpt lat="44.49439" lon="-0.27208">
        <ele>45.2</ele>
        <time>2020-09-08T16:59:43Z</time>
      </trkpt>
      <trkpt lat="44.4944" lon="-0.2721">
        <ele>45</ele>
        <time>2020-09-08T16:59:44Z</time>
      </trkpt>
      <trkpt lat="44.4944" lon="-0.27212">
        <ele>45</ele>
        <time>2020-09-08T16:59:45Z</time>
      </trkpt>
      <trkpt lat="44.4944" lon="-0.27213">
        <ele>44.9</ele>
        <time>2020-09-08T16:59:46Z</time>
      </trkpt>
      <trkpt lat="44.49441" lon="-0.27216">
        <ele>44.8</ele>
        <time>2020-09-08T16:59:47Z</time>
      </trkpt>
      <trkpt lat="44.49442" lon="-0.27219">
        <ele>44.6</ele>
        <time>2020-09-08T16:59:49Z</time>
      </trkpt>
      <trkpt lat="44.49443" lon="-0.2722">
        <ele>44.5</ele>
        <time>2020-09-08T16:59:50Z</time>
      </trkpt>
      <trkpt lat="44.49444" lon="-0.27221">
        <ele>44.4</ele>
        <time>2020-09-08T16:59:52Z</time>
      </trkpt>
      <trkpt lat="44.49445" lon="-0.27222">
        <ele>44.4</ele>
        <time>2020-09-08T16:59:53Z</time>
      </trkpt>
      <trkpt lat="44.49445" lon="-0.27223">
        <ele>44.3</ele>
        <time>2020-09-08T16:59:54Z</time>
      </trkpt>
      <trkpt lat="44.49446" lon="-0.27226">
        <ele>44.2</ele>
        <time>2020-09-08T16:59:55Z</time>
      </trkpt>
      <trkpt lat="44.49448" lon="-0.27228">
        <ele>44</ele>
        <time>2020-09-08T16:59:57Z</time>
      </trkpt>
      <trkpt lat="44.49448" lon="-0.2723">
        <ele>44</ele>
        <time>2020-09-08T16:59:58Z</time>
      </trkpt>
      <trkpt lat="44.49449" lon="-0.27231">
        <ele>43.9</ele>
        <time>2020-09-08T16:59:59Z</time>
      </trkpt>
      <trkpt lat="44.4945" lon="-0.27233">
        <ele>43.8</ele>
        <time>2020-09-08T17:00:00Z</time>
      </trkpt>
      <trkpt lat="44.49451" lon="-0.27236">
        <ele>43.7</ele>
        <time>2020-09-08T17:00:01Z</time>
      </trkpt>
      <trkpt lat="44.49452" lon="-0.27238">
        <ele>43.6</ele>
        <time>2020-09-08T17:00:03Z</time>
      </trkpt>
      <trkpt lat="44.49453" lon="-0.27241">
        <ele>43.5</ele>
        <time>2020-09-08T17:00:04Z</time>
      </trkpt>
      <trkpt lat="44.49454" lon="-0.27242">
        <ele>43.5</ele>
        <time>2020-09-08T17:00:05Z</time>
      </trkpt>
      <trkpt lat="44.49455" lon="-0.27246">
        <ele>43.3</ele>
        <time>2020-09-08T17:00:07Z</time>
      </trkpt>
      <trkpt lat="44.49455" lon="-0.27248">
        <ele>43.3</ele>
        <time>2020-09-08T17:00:08Z</time>
      </trkpt>
      <trkpt lat="44.49456" lon="-0.2725">
        <ele>43.2</ele>
        <time>2020-09-08T17:00:09Z</time>
      </trkpt>
      <trkpt lat="44.49457" lon="-0.27254">
        <ele>43.1</ele>
        <time>2020-09-08T17:00:11Z</time>
      </trkpt>
      <trkpt lat="44.49458" lon="-0.27255">
        <ele>43.1</ele>
        <time>2020-09-08T17:00:12Z</time>
      </trkpt>
      <trkpt lat="44.49458" lon="-0.27256">
        <ele>43.1</ele>
        <time>2020-09-08T17:00:14Z</time>
      </trkpt>
      <trkpt lat="44.49459" lon="-0.27258">
        <ele>43</ele>
        <time>2020-09-08T17:00:15Z</time>
      </trkpt>
      <trkpt lat="44.4946" lon="-0.27261">
        <ele>43</ele>
        <time>2020-09-08T17:00:16Z</time>
      </trkpt>
      <trkpt lat="44.49461" lon="-0.27263">
        <ele>42.9</ele>
        <time>2020-09-08T17:00:17Z</time>
      </trkpt>
      <trkpt lat="44.49461" lon="-0.27264">
        <ele>42.9</ele>
        <time>2020-09-08T17:00:18Z</time>
      </trkpt>
      <trkpt lat="44.49461" lon="-0.27265">
        <ele>42.9</ele>
        <time>2020-09-08T17:00:19Z</time>
      </trkpt>
      <trkpt lat="44.49462" lon="-0.27267">
        <ele>42.9</ele>
        <time>2020-09-08T17:00:21Z</time>
      </trkpt>
      <trkpt lat="44.49462" lon="-0.2727">
        <ele>42.8</ele>
        <time>2020-09-08T17:00:22Z</time>
      </trkpt>
      <trkpt lat="44.49463" lon="-0.2727">
        <ele>42.8</ele>
        <time>2020-09-08T17:00:23Z</time>
      </trkpt>
      <trkpt lat="44.49463" lon="-0.27271">
        <ele>42.8</ele>
        <time>2020-09-08T17:00:24Z</time>
      </trkpt>
      <trkpt lat="44.49463" lon="-0.27273">
        <ele>42.8</ele>
        <time>2020-09-08T17:00:25Z</time>
      </trkpt>
      <trkpt lat="44.49464" lon="-0.27275">
        <ele>42.7</ele>
        <time>2020-09-08T17:00:26Z</time>
      </trkpt>
      <trkpt lat="44.49464" lon="-0.27277">
        <ele>42.7</ele>
        <time>2020-09-08T17:00:28Z</time>
      </trkpt>
      <trkpt lat="44.49464" lon="-0.27278">
        <ele>42.7</ele>
        <time>2020-09-08T17:00:29Z</time>
      </trkpt>
      <trkpt lat="44.49464" lon="-0.2728">
        <ele>42.7</ele>
        <time>2020-09-08T17:00:30Z</time>
      </trkpt>
      <trkpt lat="44.49464" lon="-0.27282">
        <ele>42.7</ele>
        <time>2020-09-08T17:00:31Z</time>
      </trkpt>
      <trkpt lat="44.49465" lon="-0.27283">
        <ele>42.6</ele>
        <time>2020-09-08T17:00:32Z</time>
      </trkpt>
      <trkpt lat="44.49465" lon="-0.27286">
        <ele>42.6</ele>
        <time>2020-09-08T17:00:34Z</time>
      </trkpt>
      <trkpt lat="44.49465" lon="-0.27287">
        <ele>42.6</ele>
        <time>2020-09-08T17:00:35Z</time>
      </trkpt>
      <trkpt lat="44.49466" lon="-0.27289">
        <ele>42.6</ele>
        <time>2020-09-08T17:00:36Z</time>
      </trkpt>
      <trkpt lat="44.49466" lon="-0.2729">
        <ele>42.5</ele>
        <time>2020-09-08T17:00:37Z</time>
      </trkpt>
      <trkpt lat="44.49466" lon="-0.27292">
        <ele>42.5</ele>
        <time>2020-09-08T17:00:38Z</time>
      </trkpt>
      <trkpt lat="44.49466" lon="-0.27292">
        <ele>42.5</ele>
        <time>2020-09-08T17:00:39Z</time>
      </trkpt>
      <trkpt lat="44.49467" lon="-0.27294">
        <ele>42.5</ele>
        <time>2020-09-08T17:00:40Z</time>
      </trkpt>
      <trkpt lat="44.49467" lon="-0.27296">
        <ele>42.5</ele>
        <time>2020-09-08T17:00:42Z</time>
      </trkpt>
      <trkpt lat="44.49468" lon="-0.273">
        <ele>42.5</ele>
        <time>2020-09-08T17:00:43Z</time>
      </trkpt>
      <trkpt lat="44.49469" lon="-0.27302">
        <ele>42.4</ele>
        <time>2020-09-08T17:00:44Z</time>
      </trkpt>
      <trkpt lat="44.49469" lon="-0.27303">
        <ele>42.4</ele>
        <time>2020-09-08T17:00:45Z</time>
      </trkpt>
      <trkpt lat="44.4947" lon="-0.27304">
        <ele>42.4</ele>
        <time>2020-09-08T17:00:46Z</time>
      </trkpt>
      <trkpt lat="44.4947" lon="-0.27306">
        <ele>42.4</ele>
        <time>2020-09-08T17:00:48Z</time>
      </trkpt>
      <trkpt lat="44.49472" lon="-0.2731">
        <ele>42.4</ele>
        <time>2020-09-08T17:00:49Z</time>
      </trkpt>
      <trkpt lat="44.49472" lon="-0.27311">
        <ele>42.4</ele>
        <time>2020-09-08T17:00:50Z</time>
      </trkpt>
      <trkpt lat="44.49473" lon="-0.27313">
        <ele>42.4</ele>
        <time>2020-09-08T17:00:51Z</time>
      </trkpt>
      <trkpt lat="44.49473" lon="-0.27315">
        <ele>42.4</ele>
        <time>2020-09-08T17:00:52Z</time>
      </trkpt>
      <trkpt lat="44.49473" lon="-0.27316">
        <ele>42.4</ele>
        <time>2020-09-08T17:00:53Z</time>
      </trkpt>
      <trkpt lat="44.49474" lon="-0.27318">
        <ele>42.4</ele>
        <time>2020-09-08T17:00:54Z</time>
      </trkpt>
      <trkpt lat="44.49475" lon="-0.27321">
        <ele>42.4</ele>
        <time>2020-09-08T17:00:56Z</time>
      </trkpt>
      <trkpt lat="44.49475" lon="-0.27322">
        <ele>42.4</ele>
        <time>2020-09-08T17:00:57Z</time>
      </trkpt>
      <trkpt lat="44.49476" lon="-0.27324">
        <ele>42.4</ele>
        <time>2020-09-08T17:00:58Z</time>
      </trkpt>
      <trkpt lat="44.49477" lon="-0.27326">
        <ele>42.4</ele>
        <time>2020-09-08T17:01:00Z</time>
      </trkpt>
      <trkpt lat="44.49478" lon="-0.27329">
        <ele>42.4</ele>
        <time>2020-09-08T17:01:01Z</time>
      </trkpt>
      <trkpt lat="44.49478" lon="-0.27331">
        <ele>42.4</ele>
        <time>2020-09-08T17:01:03Z</time>
      </trkpt>
      <trkpt lat="44.49478" lon="-0.27332">
        <ele>42.4</ele>
        <time>2020-09-08T17:01:04Z</time>
      </trkpt>
      <trkpt lat="44.49479" lon="-0.27334">
        <ele>42.5</ele>
        <time>2020-09-08T17:01:05Z</time>
      </trkpt>
      <trkpt lat="44.49479" lon="-0.27335">
        <ele>42.5</ele>
        <time>2020-09-08T17:01:06Z</time>
      </trkpt>
      <trkpt lat="44.4948" lon="-0.27338">
        <ele>42.5</ele>
        <time>2020-09-08T17:01:07Z</time>
      </trkpt>
      <trkpt lat="44.49481" lon="-0.27339">
        <ele>42.5</ele>
        <time>2020-09-08T17:01:08Z</time>
      </trkpt>
      <trkpt lat="44.49481" lon="-0.2734">
        <ele>42.5</ele>
        <time>2020-09-08T17:01:09Z</time>
      </trkpt>
      <trkpt lat="44.49481" lon="-0.27342">
        <ele>42.6</ele>
        <time>2020-09-08T17:01:10Z</time>
      </trkpt>
      <trkpt lat="44.49482" lon="-0.27345">
        <ele>42.6</ele>
        <time>2020-09-08T17:01:11Z</time>
      </trkpt>
      <trkpt lat="44.49482" lon="-0.27346">
        <ele>42.6</ele>
        <time>2020-09-08T17:01:12Z</time>
      </trkpt>
      <trkpt lat="44.49483" lon="-0.27348">
        <ele>42.6</ele>
        <time>2020-09-08T17:01:14Z</time>
      </trkpt>
      <trkpt lat="44.49484" lon="-0.27349">
        <ele>42.7</ele>
        <time>2020-09-08T17:01:15Z</time>
      </trkpt>
      <trkpt lat="44.49484" lon="-0.27352">
        <ele>42.7</ele>
        <time>2020-09-08T17:01:16Z</time>
      </trkpt>
      <trkpt lat="44.49485" lon="-0.27353">
        <ele>42.7</ele>
        <time>2020-09-08T17:01:18Z</time>
      </trkpt>
      <trkpt lat="44.49485" lon="-0.27354">
        <ele>42.7</ele>
        <time>2020-09-08T17:01:19Z</time>
      </trkpt>
      <trkpt lat="44.49486" lon="-0.27355">
        <ele>42.7</ele>
        <time>2020-09-08T17:01:20Z</time>
      </trkpt>
      <trkpt lat="44.49486" lon="-0.27357">
        <ele>42.8</ele>
        <time>2020-09-08T17:01:21Z</time>
      </trkpt>
      <trkpt lat="44.49487" lon="-0.2736">
        <ele>42.8</ele>
        <time>2020-09-08T17:01:23Z</time>
      </trkpt>
      <trkpt lat="44.49488" lon="-0.27362">
        <ele>42.9</ele>
        <time>2020-09-08T17:01:24Z</time>
      </trkpt>
      <trkpt lat="44.49489" lon="-0.27364">
        <ele>42.9</ele>
        <time>2020-09-08T17:01:25Z</time>
      </trkpt>
      <trkpt lat="44.4949" lon="-0.27366">
        <ele>42.9</ele>
        <time>2020-09-08T17:01:26Z</time>
      </trkpt>
      <trkpt lat="44.4949" lon="-0.27368">
        <ele>43</ele>
        <time>2020-09-08T17:01:27Z</time>
      </trkpt>
      <trkpt lat="44.4949" lon="-0.27371">
        <ele>43</ele>
        <time>2020-09-08T17:01:29Z</time>
      </trkpt>
      <trkpt lat="44.49491" lon="-0.27372">
        <ele>43</ele>
        <time>2020-09-08T17:01:30Z</time>
      </trkpt>
      <trkpt lat="44.49491" lon="-0.27374">
        <ele>43.1</ele>
        <time>2020-09-08T17:01:31Z</time>
      </trkpt>
      <trkpt lat="44.49491" lon="-0.27375">
        <ele>43.1</ele>
        <time>2020-09-08T17:01:32Z</time>
      </trkpt>
      <trkpt lat="44.49491" lon="-0.27376">
        <ele>43.1</ele>
        <time>2020-09-08T17:01:33Z</time>
      </trkpt>
      <trkpt lat="44.49491" lon="-0.27377">
        <ele>43.2</ele>
        <time>2020-09-08T17:01:34Z</time>
      </trkpt>
      <trkpt lat="44.49491" lon="-0.2738">
        <ele>43.2</ele>
        <time>2020-09-08T17:01:36Z</time>
      </trkpt>
      <trkpt lat="44.49492" lon="-0.27382">
        <ele>43.3</ele>
        <time>2020-09-08T17:01:37Z</time>
      </trkpt>
      <trkpt lat="44.49492" lon="-0.27384">
        <ele>43.3</ele>
        <time>2020-09-08T17:01:38Z</time>
      </trkpt>
      <trkpt lat="44.49492" lon="-0.27387">
        <ele>43.4</ele>
        <time>2020-09-08T17:01:39Z</time>
      </trkpt>
      <trkpt lat="44.49493" lon="-0.27389">
        <ele>43.5</ele>
        <time>2020-09-08T17:01:40Z</time>
      </trkpt>
      <trkpt lat="44.49493" lon="-0.27391">
        <ele>43.5</ele>
        <time>2020-09-08T17:01:41Z</time>
      </trkpt>
      <trkpt lat="44.49493" lon="-0.27392">
        <ele>43.6</ele>
        <time>2020-09-08T17:01:43Z</time>
      </trkpt>
      <trkpt lat="44.49493" lon="-0.27394">
        <ele>43.6</ele>
        <time>2020-09-08T17:01:44Z</time>
      </trkpt>
      <trkpt lat="44.49493" lon="-0.27396">
        <ele>43.7</ele>
        <time>2020-09-08T17:01:45Z</time>
      </trkpt>
      <trkpt lat="44.49494" lon="-0.27398">
        <ele>43.7</ele>
        <time>2020-09-08T17:01:46Z</time>
      </trkpt>
      <trkpt lat="44.49494" lon="-0.27401">
        <ele>43.8</ele>
        <time>2020-09-08T17:01:48Z</time>
      </trkpt>
      <trkpt lat="44.49494" lon="-0.27402">
        <ele>43.9</ele>
        <time>2020-09-08T17:01:49Z</time>
      </trkpt>
      <trkpt lat="44.49495" lon="-0.27403">
        <ele>43.9</ele>
        <time>2020-09-08T17:01:50Z</time>
      </trkpt>
      <trkpt lat="44.49495" lon="-0.27405">
        <ele>44</ele>
        <time>2020-09-08T17:01:51Z</time>
      </trkpt>
      <trkpt lat="44.49496" lon="-0.27407">
        <ele>44.1</ele>
        <time>2020-09-08T17:01:52Z</time>
      </trkpt>
      <trkpt lat="44.49496" lon="-0.27408">
        <ele>44.1</ele>
        <time>2020-09-08T17:01:54Z</time>
      </trkpt>
      <trkpt lat="44.49497" lon="-0.27411">
        <ele>44.2</ele>
        <time>2020-09-08T17:01:55Z</time>
      </trkpt>
      <trkpt lat="44.49497" lon="-0.27413">
        <ele>44.3</ele>
        <time>2020-09-08T17:01:56Z</time>
      </trkpt>
      <trkpt lat="44.49498" lon="-0.27415">
        <ele>44.4</ele>
        <time>2020-09-08T17:01:57Z</time>
      </trkpt>
      <trkpt lat="44.49498" lon="-0.27416">
        <ele>44.4</ele>
        <time>2020-09-08T17:01:58Z</time>
      </trkpt>
      <trkpt lat="44.49499" lon="-0.27417">
        <ele>44.5</ele>
        <time>2020-09-08T17:01:59Z</time>
      </trkpt>
      <trkpt lat="44.495" lon="-0.2742">
        <ele>44.6</ele>
        <time>2020-09-08T17:02:00Z</time>
      </trkpt>
      <trkpt lat="44.495" lon="-0.27421">
        <ele>44.7</ele>
        <time>2020-09-08T17:02:01Z</time>
      </trkpt>
      <trkpt lat="44.49501" lon="-0.27423">
        <ele>44.7</ele>
        <time>2020-09-08T17:02:03Z</time>
      </trkpt>
      <trkpt lat="44.49502" lon="-0.27425">
        <ele>44.8</ele>
        <time>2020-09-08T17:02:04Z</time>
      </trkpt>
      <trkpt lat="44.49503" lon="-0.27427">
        <ele>44.9</ele>
        <time>2020-09-08T17:02:05Z</time>
      </trkpt>
      <trkpt lat="44.49503" lon="-0.27429">
        <ele>45</ele>
        <time>2020-09-08T17:02:07Z</time>
      </trkpt>
      <trkpt lat="44.49504" lon="-0.2743">
        <ele>45.1</ele>
        <time>2020-09-08T17:02:08Z</time>
      </trkpt>
      <trkpt lat="44.49505" lon="-0.27431">
        <ele>45.1</ele>
        <time>2020-09-08T17:02:09Z</time>
      </trkpt>
      <trkpt lat="44.49505" lon="-0.27432">
        <ele>45.2</ele>
        <time>2020-09-08T17:02:10Z</time>
      </trkpt>
      <trkpt lat="44.49506" lon="-0.27433">
        <ele>45.2</ele>
        <time>2020-09-08T17:02:11Z</time>
      </trkpt>
      <trkpt lat="44.49507" lon="-0.27434">
        <ele>45.3</ele>
        <time>2020-09-08T17:02:12Z</time>
      </trkpt>
      <trkpt lat="44.49508" lon="-0.27435">
        <ele>45.4</ele>
        <time>2020-09-08T17:02:13Z</time>
      </trkpt>
      <trkpt lat="44.49509" lon="-0.27436">
        <ele>45.4</ele>
        <time>2020-09-08T17:02:14Z</time>
      </trkpt>
      <trkpt lat="44.49511" lon="-0.27439">
        <ele>45.6</ele>
        <time>2020-09-08T17:02:16Z</time>
      </trkpt>
      <trkpt lat="44.49511" lon="-0.2744">
        <ele>45.6</ele>
        <time>2020-09-08T17:02:17Z</time>
      </trkpt>
      <trkpt lat="44.49512" lon="-0.2744">
        <ele>45.7</ele>
        <time>2020-09-08T17:02:18Z</time>
      </trkpt>
      <trkpt lat="44.49514" lon="-0.27442">
        <ele>45.8</ele>
        <time>2020-09-08T17:02:20Z</time>
      </trkpt>
      <trkpt lat="44.49515" lon="-0.27442">
        <ele>45.9</ele>
        <time>2020-09-08T17:02:21Z</time>
      </trkpt>
      <trkpt lat="44.49515" lon="-0.27442">
        <ele>45.9</ele>
        <time>2020-09-08T17:02:22Z</time>
      </trkpt>
      <trkpt lat="44.49516" lon="-0.27443">
        <ele>46</ele>
        <time>2020-09-08T17:02:23Z</time>
      </trkpt>
      <trkpt lat="44.49517" lon="-0.27443">
        <ele>46</ele>
        <time>2020-09-08T17:02:24Z</time>
      </trkpt>
      <trkpt lat="44.4952" lon="-0.27446">
        <ele>46.2</ele>
        <time>2020-09-08T17:02:25Z</time>
      </trkpt>
      <trkpt lat="44.49521" lon="-0.27446">
        <ele>46.3</ele>
        <time>2020-09-08T17:02:27Z</time>
      </trkpt>
      <trkpt lat="44.49522" lon="-0.27447">
        <ele>46.3</ele>
        <time>2020-09-08T17:02:28Z</time>
      </trkpt>
      <trkpt lat="44.49523" lon="-0.27448">
        <ele>46.4</ele>
        <time>2020-09-08T17:02:29Z</time>
      </trkpt>
      <trkpt lat="44.49524" lon="-0.27449">
        <ele>46.5</ele>
        <time>2020-09-08T17:02:30Z</time>
      </trkpt>
      <trkpt lat="44.49525" lon="-0.27449">
        <ele>46.5</ele>
        <time>2020-09-08T17:02:31Z</time>
      </trkpt>
      <trkpt lat="44.49526" lon="-0.2745">
        <ele>46.6</ele>
        <time>2020-09-08T17:02:32Z</time>
      </trkpt>
      <trkpt lat="44.49527" lon="-0.2745">
        <ele>46.7</ele>
        <time>2020-09-08T17:02:33Z</time>
      </trkpt>
      <trkpt lat="44.49528" lon="-0.27451">
        <ele>46.7</ele>
        <time>2020-09-08T17:02:34Z</time>
      </trkpt>
      <trkpt lat="44.4953" lon="-0.27452">
        <ele>46.8</ele>
        <time>2020-09-08T17:02:35Z</time>
      </trkpt>
      <trkpt lat="44.4953" lon="-0.27452">
        <ele>46.9</ele>
        <time>2020-09-08T17:02:37Z</time>
      </trkpt>
      <trkpt lat="44.49531" lon="-0.27453">
        <ele>46.9</ele>
        <time>2020-09-08T17:02:38Z</time>
      </trkpt>
      <trkpt lat="44.49532" lon="-0.27453">
        <ele>47</ele>
        <time>2020-09-08T17:02:39Z</time>
      </trkpt>
      <trkpt lat="44.49533" lon="-0.27454">
        <ele>47.1</ele>
        <time>2020-09-08T17:02:41Z</time>
      </trkpt>
      <trkpt lat="44.49534" lon="-0.27454">
        <ele>47.1</ele>
        <time>2020-09-08T17:02:42Z</time>
      </trkpt>
      <trkpt lat="44.49535" lon="-0.27455">
        <ele>47.2</ele>
        <time>2020-09-08T17:02:43Z</time>
      </trkpt>
      <trkpt lat="44.49537" lon="-0.27456">
        <ele>47.3</ele>
        <time>2020-09-08T17:02:45Z</time>
      </trkpt>
      <trkpt lat="44.49539" lon="-0.27458">
        <ele>47.4</ele>
        <time>2020-09-08T17:02:46Z</time>
      </trkpt>
      <trkpt lat="44.49539" lon="-0.27459">
        <ele>47.4</ele>
        <time>2020-09-08T17:02:47Z</time>
      </trkpt>
      <trkpt lat="44.4954" lon="-0.27459">
        <ele>47.5</ele>
        <time>2020-09-08T17:02:48Z</time>
      </trkpt>
      <trkpt lat="44.49543" lon="-0.27461">
        <ele>47.7</ele>
        <time>2020-09-08T17:02:50Z</time>
      </trkpt>
      <trkpt lat="44.49544" lon="-0.27463">
        <ele>47.7</ele>
        <time>2020-09-08T17:02:51Z</time>
      </trkpt>
      <trkpt lat="44.49546" lon="-0.27464">
        <ele>47.9</ele>
        <time>2020-09-08T17:02:52Z</time>
      </trkpt>
      <trkpt lat="44.49547" lon="-0.27465">
        <ele>48</ele>
        <time>2020-09-08T17:02:54Z</time>
      </trkpt>
      <trkpt lat="44.49548" lon="-0.27466">
        <ele>48.1</ele>
        <time>2020-09-08T17:02:56Z</time>
      </trkpt>
      <trkpt lat="44.4955" lon="-0.27467">
        <ele>48.1</ele>
        <time>2020-09-08T17:02:57Z</time>
      </trkpt>
      <trkpt lat="44.49552" lon="-0.27468">
        <ele>48.3</ele>
        <time>2020-09-08T17:02:58Z</time>
      </trkpt>
      <trkpt lat="44.49553" lon="-0.27468">
        <ele>48.3</ele>
        <time>2020-09-08T17:03:00Z</time>
      </trkpt>
      <trkpt lat="44.49554" lon="-0.27468">
        <ele>48.4</ele>
        <time>2020-09-08T17:03:01Z</time>
      </trkpt>
      <trkpt lat="44.49557" lon="-0.27469">
        <ele>48.5</ele>
        <time>2020-09-08T17:03:02Z</time>
      </trkpt>
      <trkpt lat="44.49557" lon="-0.2747">
        <ele>48.6</ele>
        <time>2020-09-08T17:03:03Z</time>
      </trkpt>
      <trkpt lat="44.49558" lon="-0.2747">
        <ele>48.6</ele>
        <time>2020-09-08T17:03:04Z</time>
      </trkpt>
      <trkpt lat="44.49559" lon="-0.27471">
        <ele>48.7</ele>
        <time>2020-09-08T17:03:05Z</time>
      </trkpt>
      <trkpt lat="44.49562" lon="-0.27473">
        <ele>48.8</ele>
        <time>2020-09-08T17:03:07Z</time>
      </trkpt>
      <trkpt lat="44.49562" lon="-0.27475">
        <ele>48.9</ele>
        <time>2020-09-08T17:03:09Z</time>
      </trkpt>
      <trkpt lat="44.49563" lon="-0.27477">
        <ele>49</ele>
        <time>2020-09-08T17:03:10Z</time>
      </trkpt>
      <trkpt lat="44.49564" lon="-0.27479">
        <ele>49.1</ele>
        <time>2020-09-08T17:03:12Z</time>
      </trkpt>
      <trkpt lat="44.49564" lon="-0.2748">
        <ele>49.2</ele>
        <time>2020-09-08T17:03:13Z</time>
      </trkpt>
      <trkpt lat="44.49565" lon="-0.27481">
        <ele>49.2</ele>
        <time>2020-09-08T17:03:14Z</time>
      </trkpt>
      <trkpt lat="44.49564" lon="-0.27482">
        <ele>49.2</ele>
        <time>2020-09-08T17:03:15Z</time>
      </trkpt>
      <trkpt lat="44.49564" lon="-0.27484">
        <ele>49.3</ele>
        <time>2020-09-08T17:03:16Z</time>
      </trkpt>
      <trkpt lat="44.49564" lon="-0.27486">
        <ele>49.4</ele>
        <time>2020-09-08T17:03:18Z</time>
      </trkpt>
      <trkpt lat="44.49563" lon="-0.27487">
        <ele>49.4</ele>
        <time>2020-09-08T17:03:19Z</time>
      </trkpt>
      <trkpt lat="44.49563" lon="-0.27489">
        <ele>49.5</ele>
        <time>2020-09-08T17:03:20Z</time>
      </trkpt>
      <trkpt lat="44.49563" lon="-0.27491">
        <ele>49.6</ele>
        <time>2020-09-08T17:03:21Z</time>
      </trkpt>
      <trkpt lat="44.49563" lon="-0.27493">
        <ele>49.6</ele>
        <time>2020-09-08T17:03:22Z</time>
      </trkpt>
      <trkpt lat="44.49563" lon="-0.27495">
        <ele>49.7</ele>
        <time>2020-09-08T17:03:23Z</time>
      </trkpt>
      <trkpt lat="44.49563" lon="-0.27497">
        <ele>49.8</ele>
        <time>2020-09-08T17:03:25Z</time>
      </trkpt>
      <trkpt lat="44.49563" lon="-0.275">
        <ele>49.9</ele>
        <time>2020-09-08T17:03:27Z</time>
      </trkpt>
      <trkpt lat="44.49563" lon="-0.27501">
        <ele>49.9</ele>
        <time>2020-09-08T17:03:28Z</time>
      </trkpt>
      <trkpt lat="44.49563" lon="-0.27504">
        <ele>50.1</ele>
        <time>2020-09-08T17:03:30Z</time>
      </trkpt>
      <trkpt lat="44.49563" lon="-0.27505">
        <ele>50.1</ele>
        <time>2020-09-08T17:03:31Z</time>
      </trkpt>
      <trkpt lat="44.49563" lon="-0.27506">
        <ele>50.1</ele>
        <time>2020-09-08T17:03:32Z</time>
      </trkpt>
      <trkpt lat="44.49563" lon="-0.27508">
        <ele>50.2</ele>
        <time>2020-09-08T17:03:33Z</time>
      </trkpt>
      <trkpt lat="44.49564" lon="-0.2751">
        <ele>50.3</ele>
        <time>2020-09-08T17:03:35Z</time>
      </trkpt>
      <trkpt lat="44.49564" lon="-0.27511">
        <ele>50.3</ele>
        <time>2020-09-08T17:03:36Z</time>
      </trkpt>
      <trkpt lat="44.49565" lon="-0.27514">
        <ele>50.4</ele>
        <time>2020-09-08T17:03:37Z</time>
      </trkpt>
      <trkpt lat="44.49565" lon="-0.27515">
        <ele>50.5</ele>
        <time>2020-09-08T17:03:38Z</time>
      </trkpt>
      <trkpt lat="44.49566" lon="-0.27515">
        <ele>50.5</ele>
        <time>2020-09-08T17:03:40Z</time>
      </trkpt>
      <trkpt lat="44.49567" lon="-0.27517">
        <ele>50.6</ele>
        <time>2020-09-08T17:03:41Z</time>
      </trkpt>
      <trkpt lat="44.49567" lon="-0.27518">
        <ele>50.6</ele>
        <time>2020-09-08T17:03:42Z</time>
      </trkpt>
      <trkpt lat="44.49568" lon="-0.27519">
        <ele>50.7</ele>
        <time>2020-09-08T17:03:43Z</time>
      </trkpt>
      <trkpt lat="44.49568" lon="-0.2752">
        <ele>50.7</ele>
        <time>2020-09-08T17:03:44Z</time>
      </trkpt>
      <trkpt lat="44.49569" lon="-0.27521">
        <ele>50.8</ele>
        <time>2020-09-08T17:03:45Z</time>
      </trkpt>
      <trkpt lat="44.4957" lon="-0.27523">
        <ele>50.9</ele>
        <time>2020-09-08T17:03:46Z</time>
      </trkpt>
      <trkpt lat="44.49572" lon="-0.27525">
        <ele>51</ele>
        <time>2020-09-08T17:03:48Z</time>
      </trkpt>
      <trkpt lat="44.49573" lon="-0.27526">
        <ele>51</ele>
        <time>2020-09-08T17:03:49Z</time>
      </trkpt>
      <trkpt lat="44.49574" lon="-0.27527">
        <ele>51.1</ele>
        <time>2020-09-08T17:03:50Z</time>
      </trkpt>
      <trkpt lat="44.49576" lon="-0.27529">
        <ele>51.2</ele>
        <time>2020-09-08T17:03:52Z</time>
      </trkpt>
      <trkpt lat="44.49577" lon="-0.2753">
        <ele>51.2</ele>
        <time>2020-09-08T17:03:53Z</time>
      </trkpt>
      <trkpt lat="44.49578" lon="-0.27531">
        <ele>51.2</ele>
        <time>2020-09-08T17:03:54Z</time>
      </trkpt>
      <trkpt lat="44.49579" lon="-0.27532">
        <ele>51.3</ele>
        <time>2020-09-08T17:03:56Z</time>
      </trkpt>
      <trkpt lat="44.49581" lon="-0.27534">
        <ele>51.3</ele>
        <time>2020-09-08T17:03:57Z</time>
      </trkpt>
      <trkpt lat="44.49582" lon="-0.27536">
        <ele>51.4</ele>
        <time>2020-09-08T17:03:58Z</time>
      </trkpt>
      <trkpt lat="44.49583" lon="-0.27537">
        <ele>51.5</ele>
        <time>2020-09-08T17:03:59Z</time>
      </trkpt>
      <trkpt lat="44.49584" lon="-0.27539">
        <ele>51.6</ele>
        <time>2020-09-08T17:04:01Z</time>
      </trkpt>
      <trkpt lat="44.49585" lon="-0.27542">
        <ele>51.7</ele>
        <time>2020-09-08T17:04:02Z</time>
      </trkpt>
      <trkpt lat="44.49587" lon="-0.27543">
        <ele>51.8</ele>
        <time>2020-09-08T17:04:04Z</time>
      </trkpt>
      <trkpt lat="44.49587" lon="-0.27544">
        <ele>51.9</ele>
        <time>2020-09-08T17:04:05Z</time>
      </trkpt>
      <trkpt lat="44.49588" lon="-0.27545">
        <ele>52</ele>
        <time>2020-09-08T17:04:06Z</time>
      </trkpt>
      <trkpt lat="44.4959" lon="-0.27548">
        <ele>52.1</ele>
        <time>2020-09-08T17:04:08Z</time>
      </trkpt>
      <trkpt lat="44.4959" lon="-0.27549">
        <ele>52.2</ele>
        <time>2020-09-08T17:04:09Z</time>
      </trkpt>
      <trkpt lat="44.49591" lon="-0.2755">
        <ele>52.2</ele>
        <time>2020-09-08T17:04:10Z</time>
      </trkpt>
      <trkpt lat="44.49592" lon="-0.27552">
        <ele>52.3</ele>
        <time>2020-09-08T17:04:11Z</time>
      </trkpt>
      <trkpt lat="44.49593" lon="-0.27554">
        <ele>52.4</ele>
        <time>2020-09-08T17:04:12Z</time>
      </trkpt>
      <trkpt lat="44.49593" lon="-0.27555">
        <ele>52.4</ele>
        <time>2020-09-08T17:04:14Z</time>
      </trkpt>
      <trkpt lat="44.49594" lon="-0.27556">
        <ele>52.5</ele>
        <time>2020-09-08T17:04:15Z</time>
      </trkpt>
      <trkpt lat="44.49595" lon="-0.27559">
        <ele>52.6</ele>
        <time>2020-09-08T17:04:16Z</time>
      </trkpt>
      <trkpt lat="44.49595" lon="-0.2756">
        <ele>52.6</ele>
        <time>2020-09-08T17:04:17Z</time>
      </trkpt>
      <trkpt lat="44.49596" lon="-0.27562">
        <ele>52.7</ele>
        <time>2020-09-08T17:04:18Z</time>
      </trkpt>
      <trkpt lat="44.49597" lon="-0.27565">
        <ele>52.8</ele>
        <time>2020-09-08T17:04:20Z</time>
      </trkpt>
      <trkpt lat="44.49597" lon="-0.27566">
        <ele>52.9</ele>
        <time>2020-09-08T17:04:21Z</time>
      </trkpt>
      <trkpt lat="44.49598" lon="-0.27568">
        <ele>53</ele>
        <time>2020-09-08T17:04:22Z</time>
      </trkpt>
      <trkpt lat="44.49599" lon="-0.27572">
        <ele>53.1</ele>
        <time>2020-09-08T17:04:23Z</time>
      </trkpt>
      <trkpt lat="44.496" lon="-0.27573">
        <ele>53.2</ele>
        <time>2020-09-08T17:04:25Z</time>
      </trkpt>
      <trkpt lat="44.496" lon="-0.27575">
        <ele>53.3</ele>
        <time>2020-09-08T17:04:26Z</time>
      </trkpt>
      <trkpt lat="44.496" lon="-0.27577">
        <ele>53.3</ele>
        <time>2020-09-08T17:04:27Z</time>
      </trkpt>
      <trkpt lat="44.49601" lon="-0.2758">
        <ele>53.5</ele>
        <time>2020-09-08T17:04:28Z</time>
      </trkpt>
      <trkpt lat="44.49601" lon="-0.27582">
        <ele>53.5</ele>
        <time>2020-09-08T17:04:29Z</time>
      </trkpt>
      <trkpt lat="44.49601" lon="-0.27584">
        <ele>53.6</ele>
        <time>2020-09-08T17:04:30Z</time>
      </trkpt>
      <trkpt lat="44.49602" lon="-0.27586">
        <ele>53.7</ele>
        <time>2020-09-08T17:04:32Z</time>
      </trkpt>
      <trkpt lat="44.49602" lon="-0.27588">
        <ele>53.8</ele>
        <time>2020-09-08T17:04:33Z</time>
      </trkpt>
      <trkpt lat="44.49602" lon="-0.27591">
        <ele>53.9</ele>
        <time>2020-09-08T17:04:34Z</time>
      </trkpt>
      <trkpt lat="44.49602" lon="-0.27592">
        <ele>53.9</ele>
        <time>2020-09-08T17:04:36Z</time>
      </trkpt>
      <trkpt lat="44.49602" lon="-0.27593">
        <ele>54</ele>
        <time>2020-09-08T17:04:37Z</time>
      </trkpt>
      <trkpt lat="44.49602" lon="-0.27595">
        <ele>54</ele>
        <time>2020-09-08T17:04:38Z</time>
      </trkpt>
      <trkpt lat="44.49602" lon="-0.27597">
        <ele>54.1</ele>
        <time>2020-09-08T17:04:39Z</time>
      </trkpt>
      <trkpt lat="44.49602" lon="-0.276">
        <ele>54.3</ele>
        <time>2020-09-08T17:04:40Z</time>
      </trkpt>
      <trkpt lat="44.49602" lon="-0.27601">
        <ele>54.3</ele>
        <time>2020-09-08T17:04:42Z</time>
      </trkpt>
      <trkpt lat="44.49602" lon="-0.27603">
        <ele>54.4</ele>
        <time>2020-09-08T17:04:43Z</time>
      </trkpt>
      <trkpt lat="44.49603" lon="-0.27604">
        <ele>54.4</ele>
        <time>2020-09-08T17:04:44Z</time>
      </trkpt>
      <trkpt lat="44.49603" lon="-0.27605">
        <ele>54.5</ele>
        <time>2020-09-08T17:04:45Z</time>
      </trkpt>
      <trkpt lat="44.49603" lon="-0.27608">
        <ele>54.6</ele>
        <time>2020-09-08T17:04:47Z</time>
      </trkpt>
      <trkpt lat="44.49603" lon="-0.2761">
        <ele>54.6</ele>
        <time>2020-09-08T17:04:48Z</time>
      </trkpt>
      <trkpt lat="44.49603" lon="-0.27612">
        <ele>54.7</ele>
        <time>2020-09-08T17:04:50Z</time>
      </trkpt>
      <trkpt lat="44.49603" lon="-0.27614">
        <ele>54.8</ele>
        <time>2020-09-08T17:04:51Z</time>
      </trkpt>
      <trkpt lat="44.49603" lon="-0.27615">
        <ele>54.8</ele>
        <time>2020-09-08T17:04:52Z</time>
      </trkpt>
      <trkpt lat="44.49603" lon="-0.27617">
        <ele>54.9</ele>
        <time>2020-09-08T17:04:53Z</time>
      </trkpt>
      <trkpt lat="44.49603" lon="-0.2762">
        <ele>55</ele>
        <time>2020-09-08T17:04:54Z</time>
      </trkpt>
      <trkpt lat="44.49603" lon="-0.27622">
        <ele>55.1</ele>
        <time>2020-09-08T17:04:56Z</time>
      </trkpt>
      <trkpt lat="44.49603" lon="-0.27624">
        <ele>55.2</ele>
        <time>2020-09-08T17:04:57Z</time>
      </trkpt>
      <trkpt lat="44.49604" lon="-0.27626">
        <ele>55.2</ele>
        <time>2020-09-08T17:04:58Z</time>
      </trkpt>
      <trkpt lat="44.49604" lon="-0.27631">
        <ele>55.4</ele>
        <time>2020-09-08T17:05:00Z</time>
      </trkpt>
      <trkpt lat="44.49604" lon="-0.27633">
        <ele>55.5</ele>
        <time>2020-09-08T17:05:02Z</time>
      </trkpt>
      <trkpt lat="44.49604" lon="-0.27635">
        <ele>55.6</ele>
        <time>2020-09-08T17:05:03Z</time>
      </trkpt>
      <trkpt lat="44.49604" lon="-0.27637">
        <ele>55.7</ele>
        <time>2020-09-08T17:05:04Z</time>
      </trkpt>
      <trkpt lat="44.49604" lon="-0.27638">
        <ele>55.7</ele>
        <time>2020-09-08T17:05:05Z</time>
      </trkpt>
      <trkpt lat="44.49604" lon="-0.2764">
        <ele>55.8</ele>
        <time>2020-09-08T17:05:07Z</time>
      </trkpt>
      <trkpt lat="44.49604" lon="-0.27642">
        <ele>55.9</ele>
        <time>2020-09-08T17:05:08Z</time>
      </trkpt>
      <trkpt lat="44.49604" lon="-0.27644">
        <ele>56</ele>
        <time>2020-09-08T17:05:09Z</time>
      </trkpt>
      <trkpt lat="44.49604" lon="-0.27646">
        <ele>56</ele>
        <time>2020-09-08T17:05:10Z</time>
      </trkpt>
      <trkpt lat="44.49603" lon="-0.27649">
        <ele>56.2</ele>
        <time>2020-09-08T17:05:12Z</time>
      </trkpt>
      <trkpt lat="44.49602" lon="-0.2765">
        <ele>56.2</ele>
        <time>2020-09-08T17:05:13Z</time>
      </trkpt>
      <trkpt lat="44.49602" lon="-0.27651">
        <ele>56.3</ele>
        <time>2020-09-08T17:05:14Z</time>
      </trkpt>
      <trkpt lat="44.49601" lon="-0.27652">
        <ele>56.3</ele>
        <time>2020-09-08T17:05:15Z</time>
      </trkpt>
      <trkpt lat="44.49601" lon="-0.27654">
        <ele>56.6</ele>
        <time>2020-09-08T17:05:16Z</time>
      </trkpt>
      <trkpt lat="44.496" lon="-0.27656">
        <ele>56.8</ele>
        <time>2020-09-08T17:05:17Z</time>
      </trkpt>
      <trkpt lat="44.496" lon="-0.27659">
        <ele>56.9</ele>
        <time>2020-09-08T17:05:18Z</time>
      </trkpt>
      <trkpt lat="44.496" lon="-0.27661">
        <ele>57</ele>
        <time>2020-09-08T17:05:19Z</time>
      </trkpt>
      <trkpt lat="44.49599" lon="-0.27663">
        <ele>57.2</ele>
        <time>2020-09-08T17:05:21Z</time>
      </trkpt>
      <trkpt lat="44.49598" lon="-0.27665">
        <ele>57.2</ele>
        <time>2020-09-08T17:05:22Z</time>
      </trkpt>
      <trkpt lat="44.49597" lon="-0.27666">
        <ele>57.3</ele>
        <time>2020-09-08T17:05:23Z</time>
      </trkpt>
      <trkpt lat="44.49596" lon="-0.27667">
        <ele>57.4</ele>
        <time>2020-09-08T17:05:25Z</time>
      </trkpt>
      <trkpt lat="44.49594" lon="-0.27669">
        <ele>57.6</ele>
        <time>2020-09-08T17:05:26Z</time>
      </trkpt>
      <trkpt lat="44.49593" lon="-0.27669">
        <ele>57.6</ele>
        <time>2020-09-08T17:05:27Z</time>
      </trkpt>
      <trkpt lat="44.49592" lon="-0.2767">
        <ele>57.7</ele>
        <time>2020-09-08T17:05:28Z</time>
      </trkpt>
      <trkpt lat="44.4959" lon="-0.27671">
        <ele>57.9</ele>
        <time>2020-09-08T17:05:29Z</time>
      </trkpt>
      <trkpt lat="44.49588" lon="-0.27672">
        <ele>57.9</ele>
        <time>2020-09-08T17:05:31Z</time>
      </trkpt>
      <trkpt lat="44.49587" lon="-0.27672">
        <ele>58</ele>
        <time>2020-09-08T17:05:32Z</time>
      </trkpt>
      <trkpt lat="44.49586" lon="-0.27672">
        <ele>58.1</ele>
        <time>2020-09-08T17:05:33Z</time>
      </trkpt>
      <trkpt lat="44.49585" lon="-0.27673">
        <ele>58.2</ele>
        <time>2020-09-08T17:05:34Z</time>
      </trkpt>
      <trkpt lat="44.49583" lon="-0.27673">
        <ele>58.3</ele>
        <time>2020-09-08T17:05:35Z</time>
      </trkpt>
      <trkpt lat="44.49582" lon="-0.27673">
        <ele>58.3</ele>
        <time>2020-09-08T17:05:36Z</time>
      </trkpt>
      <trkpt lat="44.4958" lon="-0.27674">
        <ele>58.5</ele>
        <time>2020-09-08T17:05:37Z</time>
      </trkpt>
      <trkpt lat="44.49579" lon="-0.27674">
        <ele>58.5</ele>
        <time>2020-09-08T17:05:39Z</time>
      </trkpt>
      <trkpt lat="44.49577" lon="-0.27674">
        <ele>58.6</ele>
        <time>2020-09-08T17:05:40Z</time>
      </trkpt>
      <trkpt lat="44.49576" lon="-0.27674">
        <ele>58.7</ele>
        <time>2020-09-08T17:05:42Z</time>
      </trkpt>
      <trkpt lat="44.49575" lon="-0.27674">
        <ele>58.8</ele>
        <time>2020-09-08T17:05:43Z</time>
      </trkpt>
      <trkpt lat="44.49574" lon="-0.27674">
        <ele>58.8</ele>
        <time>2020-09-08T17:05:44Z</time>
      </trkpt>
      <trkpt lat="44.49572" lon="-0.27675">
        <ele>58.9</ele>
        <time>2020-09-08T17:05:45Z</time>
      </trkpt>
      <trkpt lat="44.49571" lon="-0.27674">
        <ele>59</ele>
        <time>2020-09-08T17:05:46Z</time>
      </trkpt>
      <trkpt lat="44.49569" lon="-0.27675">
        <ele>59.1</ele>
        <time>2020-09-08T17:05:47Z</time>
      </trkpt>
      <trkpt lat="44.49567" lon="-0.27675">
        <ele>59.3</ele>
        <time>2020-09-08T17:05:49Z</time>
      </trkpt>
      <trkpt lat="44.49566" lon="-0.27675">
        <ele>59.3</ele>
        <time>2020-09-08T17:05:50Z</time>
      </trkpt>
      <trkpt lat="44.49563" lon="-0.27675">
        <ele>59.5</ele>
        <time>2020-09-08T17:05:51Z</time>
      </trkpt>
      <trkpt lat="44.49563" lon="-0.27675">
        <ele>59.5</ele>
        <time>2020-09-08T17:05:52Z</time>
      </trkpt>
      <trkpt lat="44.49562" lon="-0.27676">
        <ele>59.6</ele>
        <time>2020-09-08T17:05:53Z</time>
      </trkpt>
      <trkpt lat="44.49559" lon="-0.27676">
        <ele>59.7</ele>
        <time>2020-09-08T17:05:54Z</time>
      </trkpt>
      <trkpt lat="44.49558" lon="-0.27676">
        <ele>59.8</ele>
        <time>2020-09-08T17:05:56Z</time>
      </trkpt>
      <trkpt lat="44.49557" lon="-0.27677">
        <ele>59.9</ele>
        <time>2020-09-08T17:05:57Z</time>
      </trkpt>
      <trkpt lat="44.49556" lon="-0.27677">
        <ele>60</ele>
        <time>2020-09-08T17:05:58Z</time>
      </trkpt>
      <trkpt lat="44.49555" lon="-0.27677">
        <ele>60</ele>
        <time>2020-09-08T17:05:59Z</time>
      </trkpt>
      <trkpt lat="44.49554" lon="-0.27678">
        <ele>60.1</ele>
        <time>2020-09-08T17:06:00Z</time>
      </trkpt>
      <trkpt lat="44.49552" lon="-0.27679">
        <ele>60.2</ele>
        <time>2020-09-08T17:06:02Z</time>
      </trkpt>
      <trkpt lat="44.4955" lon="-0.2768">
        <ele>60.4</ele>
        <time>2020-09-08T17:06:03Z</time>
      </trkpt>
      <trkpt lat="44.49549" lon="-0.2768">
        <ele>60.4</ele>
        <time>2020-09-08T17:06:04Z</time>
      </trkpt>
      <trkpt lat="44.49547" lon="-0.27681">
        <ele>60.6</ele>
        <time>2020-09-08T17:06:05Z</time>
      </trkpt>
      <trkpt lat="44.49546" lon="-0.27682">
        <ele>60.6</ele>
        <time>2020-09-08T17:06:07Z</time>
      </trkpt>
      <trkpt lat="44.49546" lon="-0.27682">
        <ele>60.7</ele>
        <time>2020-09-08T17:06:08Z</time>
      </trkpt>
      <trkpt lat="44.49544" lon="-0.27683">
        <ele>60.8</ele>
        <time>2020-09-08T17:06:09Z</time>
      </trkpt>
      <trkpt lat="44.49542" lon="-0.27684">
        <ele>61</ele>
        <time>2020-09-08T17:06:11Z</time>
      </trkpt>
      <trkpt lat="44.4954" lon="-0.27686">
        <ele>61.1</ele>
        <time>2020-09-08T17:06:12Z</time>
      </trkpt>
      <trkpt lat="44.4954" lon="-0.27686">
        <ele>61.1</ele>
        <time>2020-09-08T17:06:14Z</time>
      </trkpt>
      <trkpt lat="44.4954" lon="-0.27687">
        <ele>61.2</ele>
        <time>2020-09-08T17:06:15Z</time>
      </trkpt>
      <trkpt lat="44.49539" lon="-0.27688">
        <ele>61.2</ele>
        <time>2020-09-08T17:06:16Z</time>
      </trkpt>
      <trkpt lat="44.49538" lon="-0.27689">
        <ele>61.3</ele>
        <time>2020-09-08T17:06:17Z</time>
      </trkpt>
      <trkpt lat="44.49536" lon="-0.2769">
        <ele>61.4</ele>
        <time>2020-09-08T17:06:19Z</time>
      </trkpt>
      <trkpt lat="44.49535" lon="-0.27691">
        <ele>61.5</ele>
        <time>2020-09-08T17:06:21Z</time>
      </trkpt>
      <trkpt lat="44.49534" lon="-0.27691">
        <ele>61.6</ele>
        <time>2020-09-08T17:06:23Z</time>
      </trkpt>
      <trkpt lat="44.49533" lon="-0.27691">
        <ele>61.6</ele>
        <time>2020-09-08T17:06:24Z</time>
      </trkpt>
      <trkpt lat="44.49533" lon="-0.27691">
        <ele>61.7</ele>
        <time>2020-09-08T17:06:25Z</time>
      </trkpt>
      <trkpt lat="44.49533" lon="-0.27691">
        <ele>61.7</ele>
        <time>2020-09-08T17:06:27Z</time>
      </trkpt>
      <trkpt lat="44.49533" lon="-0.27691">
        <ele>61.7</ele>
        <time>2020-09-08T17:06:28Z</time>
      </trkpt>
      <trkpt lat="44.49533" lon="-0.27692">
        <ele>61.7</ele>
        <time>2020-09-08T17:06:29Z</time>
      </trkpt>
      <trkpt lat="44.49533" lon="-0.27693">
        <ele>61.7</ele>
        <time>2020-09-08T17:06:31Z</time>
      </trkpt>
      <trkpt lat="44.49533" lon="-0.27693">
        <ele>61.8</ele>
        <time>2020-09-08T17:06:33Z</time>
      </trkpt>
      <trkpt lat="44.49534" lon="-0.27694">
        <ele>61.8</ele>
        <time>2020-09-08T17:06:34Z</time>
      </trkpt>
      <trkpt lat="44.49535" lon="-0.27695">
        <ele>61.9</ele>
        <time>2020-09-08T17:06:35Z</time>
      </trkpt>
      <trkpt lat="44.49536" lon="-0.27695">
        <ele>62</ele>
        <time>2020-09-08T17:06:36Z</time>
      </trkpt>
      <trkpt lat="44.49537" lon="-0.27696">
        <ele>62</ele>
        <time>2020-09-08T17:06:38Z</time>
      </trkpt>
      <trkpt lat="44.49538" lon="-0.27696">
        <ele>62.1</ele>
        <time>2020-09-08T17:06:39Z</time>
      </trkpt>
      <trkpt lat="44.49538" lon="-0.27696">
        <ele>62.1</ele>
        <time>2020-09-08T17:06:41Z</time>
      </trkpt>
      <trkpt lat="44.49538" lon="-0.27696">
        <ele>62.1</ele>
        <time>2020-09-08T17:06:42Z</time>
      </trkpt>
      <trkpt lat="44.49539" lon="-0.27695">
        <ele>62.2</ele>
        <time>2020-09-08T17:06:44Z</time>
      </trkpt>
      <trkpt lat="44.49539" lon="-0.27694">
        <ele>62.2</ele>
        <time>2020-09-08T17:06:45Z</time>
      </trkpt>
      <trkpt lat="44.49539" lon="-0.27694">
        <ele>62.2</ele>
        <time>2020-09-08T17:06:47Z</time>
      </trkpt>
      <trkpt lat="44.49539" lon="-0.27694">
        <ele>62.2</ele>
        <time>2020-09-08T17:06:48Z</time>
      </trkpt>
      <trkpt lat="44.49539" lon="-0.27693">
        <ele>62.3</ele>
        <time>2020-09-08T17:06:50Z</time>
      </trkpt>
      <trkpt lat="44.49539" lon="-0.27693">
        <ele>62.3</ele>
        <time>2020-09-08T17:06:52Z</time>
      </trkpt>
      <trkpt lat="44.49539" lon="-0.27693">
        <ele>62.3</ele>
        <time>2020-09-08T17:06:53Z</time>
      </trkpt>
      <trkpt lat="44.49539" lon="-0.27693">
        <ele>62.3</ele>
        <time>2020-09-08T17:06:55Z</time>
      </trkpt>
      <trkpt lat="44.49539" lon="-0.27692">
        <ele>62.3</ele>
        <time>2020-09-08T17:06:57Z</time>
      </trkpt>
      <trkpt lat="44.49537" lon="-0.2769">
        <ele>62.4</ele>
        <time>2020-09-08T17:06:58Z</time>
      </trkpt>
      <trkpt lat="44.49536" lon="-0.2769">
        <ele>62.5</ele>
        <time>2020-09-08T17:07:00Z</time>
      </trkpt>
      <trkpt lat="44.49534" lon="-0.2769">
        <ele>62.6</ele>
        <time>2020-09-08T17:07:01Z</time>
      </trkpt>
      <trkpt lat="44.49533" lon="-0.27691">
        <ele>62.7</ele>
        <time>2020-09-08T17:07:02Z</time>
      </trkpt>
      <trkpt lat="44.49532" lon="-0.27692">
        <ele>62.7</ele>
        <time>2020-09-08T17:07:03Z</time>
      </trkpt>
      <trkpt lat="44.49531" lon="-0.27693">
        <ele>62.9</ele>
        <time>2020-09-08T17:07:04Z</time>
      </trkpt>
      <trkpt lat="44.4953" lon="-0.27693">
        <ele>62.9</ele>
        <time>2020-09-08T17:07:05Z</time>
      </trkpt>
      <trkpt lat="44.49529" lon="-0.27694">
        <ele>63</ele>
        <time>2020-09-08T17:07:06Z</time>
      </trkpt>
      <trkpt lat="44.49528" lon="-0.27695">
        <ele>63</ele>
        <time>2020-09-08T17:07:07Z</time>
      </trkpt>
      <trkpt lat="44.49527" lon="-0.27696">
        <ele>63.1</ele>
        <time>2020-09-08T17:07:08Z</time>
      </trkpt>
      <trkpt lat="44.49525" lon="-0.27697">
        <ele>63.2</ele>
        <time>2020-09-08T17:07:09Z</time>
      </trkpt>
      <trkpt lat="44.49523" lon="-0.27698">
        <ele>63.4</ele>
        <time>2020-09-08T17:07:11Z</time>
      </trkpt>
      <trkpt lat="44.49522" lon="-0.27699">
        <ele>63.4</ele>
        <time>2020-09-08T17:07:12Z</time>
      </trkpt>
      <trkpt lat="44.4952" lon="-0.277">
        <ele>63.5</ele>
        <time>2020-09-08T17:07:13Z</time>
      </trkpt>
      <trkpt lat="44.49517" lon="-0.27701">
        <ele>63.5</ele>
        <time>2020-09-08T17:07:15Z</time>
      </trkpt>
      <trkpt lat="44.49516" lon="-0.27702">
        <ele>63.6</ele>
        <time>2020-09-08T17:07:16Z</time>
      </trkpt>
      <trkpt lat="44.49514" lon="-0.27702">
        <ele>63.6</ele>
        <time>2020-09-08T17:07:18Z</time>
      </trkpt>
      <trkpt lat="44.49513" lon="-0.27702">
        <ele>63.6</ele>
        <time>2020-09-08T17:07:19Z</time>
      </trkpt>
      <trkpt lat="44.49513" lon="-0.27702">
        <ele>63.7</ele>
        <time>2020-09-08T17:07:20Z</time>
      </trkpt>
      <trkpt lat="44.49511" lon="-0.27703">
        <ele>63.7</ele>
        <time>2020-09-08T17:07:22Z</time>
      </trkpt>
      <trkpt lat="44.4951" lon="-0.27704">
        <ele>63.7</ele>
        <time>2020-09-08T17:07:23Z</time>
      </trkpt>
      <trkpt lat="44.49508" lon="-0.27706">
        <ele>63.8</ele>
        <time>2020-09-08T17:07:24Z</time>
      </trkpt>
      <trkpt lat="44.49507" lon="-0.27706">
        <ele>63.8</ele>
        <time>2020-09-08T17:07:25Z</time>
      </trkpt>
      <trkpt lat="44.49503" lon="-0.27709">
        <ele>63.9</ele>
        <time>2020-09-08T17:07:27Z</time>
      </trkpt>
      <trkpt lat="44.49502" lon="-0.2771">
        <ele>63.9</ele>
        <time>2020-09-08T17:07:29Z</time>
      </trkpt>
      <trkpt lat="44.495" lon="-0.27711">
        <ele>64</ele>
        <time>2020-09-08T17:07:30Z</time>
      </trkpt>
      <trkpt lat="44.49498" lon="-0.27712">
        <ele>64</ele>
        <time>2020-09-08T17:07:31Z</time>
      </trkpt>
      <trkpt lat="44.49497" lon="-0.27712">
        <ele>64.1</ele>
        <time>2020-09-08T17:07:32Z</time>
      </trkpt>
      <trkpt lat="44.49495" lon="-0.27713">
        <ele>64.1</ele>
        <time>2020-09-08T17:07:33Z</time>
      </trkpt>
      <trkpt lat="44.49494" lon="-0.27713">
        <ele>64.1</ele>
        <time>2020-09-08T17:07:35Z</time>
      </trkpt>
      <trkpt lat="44.49492" lon="-0.27714">
        <ele>64.2</ele>
        <time>2020-09-08T17:07:36Z</time>
      </trkpt>
      <trkpt lat="44.4949" lon="-0.27715">
        <ele>64.2</ele>
        <time>2020-09-08T17:07:37Z</time>
      </trkpt>
      <trkpt lat="44.49488" lon="-0.27717">
        <ele>64.2</ele>
        <time>2020-09-08T17:07:38Z</time>
      </trkpt>
      <trkpt lat="44.49487" lon="-0.27717">
        <ele>64.2</ele>
        <time>2020-09-08T17:07:39Z</time>
      </trkpt>
      <trkpt lat="44.49486" lon="-0.27718">
        <ele>64.3</ele>
        <time>2020-09-08T17:07:40Z</time>
      </trkpt>
      <trkpt lat="44.49485" lon="-0.27719">
        <ele>64.3</ele>
        <time>2020-09-08T17:07:42Z</time>
      </trkpt>
      <trkpt lat="44.49483" lon="-0.2772">
        <ele>64.3</ele>
        <time>2020-09-08T17:07:43Z</time>
      </trkpt>
      <trkpt lat="44.49482" lon="-0.27721">
        <ele>64.3</ele>
        <time>2020-09-08T17:07:44Z</time>
      </trkpt>
      <trkpt lat="44.49481" lon="-0.27722">
        <ele>64.3</ele>
        <time>2020-09-08T17:07:45Z</time>
      </trkpt>
      <trkpt lat="44.49479" lon="-0.27722">
        <ele>64.3</ele>
        <time>2020-09-08T17:07:46Z</time>
      </trkpt>
      <trkpt lat="44.49478" lon="-0.27723">
        <ele>64.3</ele>
        <time>2020-09-08T17:07:47Z</time>
      </trkpt>
      <trkpt lat="44.49476" lon="-0.27724">
        <ele>64.4</ele>
        <time>2020-09-08T17:07:49Z</time>
      </trkpt>
      <trkpt lat="44.49475" lon="-0.27724">
        <ele>64.4</ele>
        <time>2020-09-08T17:07:50Z</time>
      </trkpt>
      <trkpt lat="44.49475" lon="-0.27724">
        <ele>64.4</ele>
        <time>2020-09-08T17:07:51Z</time>
      </trkpt>
      <trkpt lat="44.49474" lon="-0.27724">
        <ele>64.4</ele>
        <time>2020-09-08T17:07:52Z</time>
      </trkpt>
      <trkpt lat="44.49473" lon="-0.27725">
        <ele>64.4</ele>
        <time>2020-09-08T17:07:53Z</time>
      </trkpt>
      <trkpt lat="44.49472" lon="-0.27725">
        <ele>64.4</ele>
        <time>2020-09-08T17:07:54Z</time>
      </trkpt>
      <trkpt lat="44.49469" lon="-0.27726">
        <ele>64.4</ele>
        <time>2020-09-08T17:07:56Z</time>
      </trkpt>
      <trkpt lat="44.49468" lon="-0.27726">
        <ele>64.4</ele>
        <time>2020-09-08T17:07:57Z</time>
      </trkpt>
      <trkpt lat="44.49466" lon="-0.27725">
        <ele>64.4</ele>
        <time>2020-09-08T17:07:59Z</time>
      </trkpt>
      <trkpt lat="44.49466" lon="-0.27723">
        <ele>64.4</ele>
        <time>2020-09-08T17:08:01Z</time>
      </trkpt>
      <trkpt lat="44.49467" lon="-0.27721">
        <ele>64.4</ele>
        <time>2020-09-08T17:08:03Z</time>
      </trkpt>
      <trkpt lat="44.49467" lon="-0.2772">
        <ele>64.4</ele>
        <time>2020-09-08T17:08:05Z</time>
      </trkpt>
      <trkpt lat="44.49468" lon="-0.2772">
        <ele>64.4</ele>
        <time>2020-09-08T17:08:06Z</time>
      </trkpt>
      <trkpt lat="44.49468" lon="-0.27719">
        <ele>64.4</ele>
        <time>2020-09-08T17:08:08Z</time>
      </trkpt>
      <trkpt lat="44.49469" lon="-0.27718">
        <ele>64.4</ele>
        <time>2020-09-08T17:08:10Z</time>
      </trkpt>
      <trkpt lat="44.49469" lon="-0.27718">
        <ele>64.4</ele>
        <time>2020-09-08T17:08:11Z</time>
      </trkpt>
      <trkpt lat="44.49469" lon="-0.27717">
        <ele>64.4</ele>
        <time>2020-09-08T17:08:13Z</time>
      </trkpt>
      <trkpt lat="44.4947" lon="-0.27717">
        <ele>64.4</ele>
        <time>2020-09-08T17:08:14Z</time>
      </trkpt>
      <trkpt lat="44.4947" lon="-0.27717">
        <ele>64.4</ele>
        <time>2020-09-08T17:08:15Z</time>
      </trkpt>
      <trkpt lat="44.4947" lon="-0.27717">
        <ele>64.4</ele>
        <time>2020-09-08T17:08:16Z</time>
      </trkpt>
      <trkpt lat="44.49469" lon="-0.27716">
        <ele>64.4</ele>
        <time>2020-09-08T17:08:18Z</time>
      </trkpt>
      <trkpt lat="44.49469" lon="-0.27716">
        <ele>64.4</ele>
        <time>2020-09-08T17:08:19Z</time>
      </trkpt>
      <trkpt lat="44.49469" lon="-0.27716">
        <ele>64.4</ele>
        <time>2020-09-08T17:08:20Z</time>
      </trkpt>
      <trkpt lat="44.49471" lon="-0.27716">
        <ele>64.4</ele>
        <time>2020-09-08T17:08:22Z</time>
      </trkpt>
      <trkpt lat="44.49471" lon="-0.27716">
        <ele>64.4</ele>
        <time>2020-09-08T17:08:23Z</time>
      </trkpt>
      <trkpt lat="44.49471" lon="-0.27716">
        <ele>64.4</ele>
        <time>2020-09-08T17:08:24Z</time>
      </trkpt>
      <trkpt lat="44.49471" lon="-0.27715">
        <ele>64.4</ele>
        <time>2020-09-08T17:08:26Z</time>
      </trkpt>
      <trkpt lat="44.49472" lon="-0.27716">
        <ele>64.4</ele>
        <time>2020-09-08T17:08:27Z</time>
      </trkpt>
      <trkpt lat="44.49472" lon="-0.27716">
        <ele>64.4</ele>
        <time>2020-09-08T17:08:29Z</time>
      </trkpt>
      <trkpt lat="44.49472" lon="-0.27716">
        <ele>64.4</ele>
        <time>2020-09-08T17:08:30Z</time>
      </trkpt>
      <trkpt lat="44.49473" lon="-0.27717">
        <ele>64.4</ele>
        <time>2020-09-08T17:08:32Z</time>
      </trkpt>
      <trkpt lat="44.49473" lon="-0.27717">
        <ele>64.4</ele>
        <time>2020-09-08T17:08:33Z</time>
      </trkpt>
      <trkpt lat="44.49473" lon="-0.27717">
        <ele>64.4</ele>
        <time>2020-09-08T17:08:35Z</time>
      </trkpt>
      <trkpt lat="44.49474" lon="-0.27718">
        <ele>64.4</ele>
        <time>2020-09-08T17:08:37Z</time>
      </trkpt>
      <trkpt lat="44.49474" lon="-0.27717">
        <ele>64.3</ele>
        <time>2020-09-08T17:08:39Z</time>
      </trkpt>
      <trkpt lat="44.49474" lon="-0.27716">
        <ele>64.3</ele>
        <time>2020-09-08T17:08:40Z</time>
      </trkpt>
      <trkpt lat="44.49475" lon="-0.27716">
        <ele>64.4</ele>
        <time>2020-09-08T17:08:41Z</time>
      </trkpt>
      <trkpt lat="44.49476" lon="-0.27716">
        <ele>64.4</ele>
        <time>2020-09-08T17:08:43Z</time>
      </trkpt>
      <trkpt lat="44.49477" lon="-0.27715">
        <ele>64.4</ele>
        <time>2020-09-08T17:08:44Z</time>
      </trkpt>
      <trkpt lat="44.49478" lon="-0.27714">
        <ele>64.4</ele>
        <time>2020-09-08T17:08:45Z</time>
      </trkpt>
      <trkpt lat="44.49479" lon="-0.27713">
        <ele>64.4</ele>
        <time>2020-09-08T17:08:46Z</time>
      </trkpt>
      <trkpt lat="44.49479" lon="-0.27712">
        <ele>64.4</ele>
        <time>2020-09-08T17:08:47Z</time>
      </trkpt>
      <trkpt lat="44.4948" lon="-0.27711">
        <ele>64.4</ele>
        <time>2020-09-08T17:08:48Z</time>
      </trkpt>
      <trkpt lat="44.49481" lon="-0.2771">
        <ele>64.4</ele>
        <time>2020-09-08T17:08:49Z</time>
      </trkpt>
      <trkpt lat="44.49482" lon="-0.27709">
        <ele>64.4</ele>
        <time>2020-09-08T17:08:51Z</time>
      </trkpt>
      <trkpt lat="44.49484" lon="-0.27709">
        <ele>64.4</ele>
        <time>2020-09-08T17:08:52Z</time>
      </trkpt>
      <trkpt lat="44.49486" lon="-0.27708">
        <ele>64.4</ele>
        <time>2020-09-08T17:08:53Z</time>
      </trkpt>
      <trkpt lat="44.49487" lon="-0.27707">
        <ele>64.4</ele>
        <time>2020-09-08T17:08:54Z</time>
      </trkpt>
      <trkpt lat="44.49489" lon="-0.27707">
        <ele>64.4</ele>
        <time>2020-09-08T17:08:55Z</time>
      </trkpt>
      <trkpt lat="44.4949" lon="-0.27706">
        <ele>64.4</ele>
        <time>2020-09-08T17:08:56Z</time>
      </trkpt>
      <trkpt lat="44.49493" lon="-0.27705">
        <ele>64.3</ele>
        <time>2020-09-08T17:08:58Z</time>
      </trkpt>
      <trkpt lat="44.49494" lon="-0.27704">
        <ele>64.3</ele>
        <time>2020-09-08T17:08:59Z</time>
      </trkpt>
      <trkpt lat="44.49496" lon="-0.27704">
        <ele>64.3</ele>
        <time>2020-09-08T17:09:00Z</time>
      </trkpt>
      <trkpt lat="44.49497" lon="-0.27703">
        <ele>64.3</ele>
        <time>2020-09-08T17:09:01Z</time>
      </trkpt>
      <trkpt lat="44.49499" lon="-0.27703">
        <ele>64.2</ele>
        <time>2020-09-08T17:09:03Z</time>
      </trkpt>
      <trkpt lat="44.49501" lon="-0.27702">
        <ele>64.2</ele>
        <time>2020-09-08T17:09:04Z</time>
      </trkpt>
      <trkpt lat="44.49502" lon="-0.27702">
        <ele>64.1</ele>
        <time>2020-09-08T17:09:05Z</time>
      </trkpt>
      <trkpt lat="44.49504" lon="-0.27701">
        <ele>64.1</ele>
        <time>2020-09-08T17:09:06Z</time>
      </trkpt>
      <trkpt lat="44.49505" lon="-0.27701">
        <ele>64.1</ele>
        <time>2020-09-08T17:09:07Z</time>
      </trkpt>
      <trkpt lat="44.49508" lon="-0.277">
        <ele>64</ele>
        <time>2020-09-08T17:09:09Z</time>
      </trkpt>
      <trkpt lat="44.49509" lon="-0.277">
        <ele>63.9</ele>
        <time>2020-09-08T17:09:10Z</time>
      </trkpt>
      <trkpt lat="44.49511" lon="-0.277">
        <ele>63.9</ele>
        <time>2020-09-08T17:09:11Z</time>
      </trkpt>
      <trkpt lat="44.49512" lon="-0.277">
        <ele>63.8</ele>
        <time>2020-09-08T17:09:12Z</time>
      </trkpt>
      <trkpt lat="44.49514" lon="-0.27702">
        <ele>63.7</ele>
        <time>2020-09-08T17:09:14Z</time>
      </trkpt>
      <trkpt lat="44.49516" lon="-0.27703">
        <ele>63.7</ele>
        <time>2020-09-08T17:09:15Z</time>
      </trkpt>
      <trkpt lat="44.49518" lon="-0.27704">
        <ele>64</ele>
        <time>2020-09-08T17:09:16Z</time>
      </trkpt>
      <trkpt lat="44.49519" lon="-0.27705">
        <ele>64.1</ele>
        <time>2020-09-08T17:09:17Z</time>
      </trkpt>
      <trkpt lat="44.49522" lon="-0.27708">
        <ele>64.3</ele>
        <time>2020-09-08T17:09:18Z</time>
      </trkpt>
      <trkpt lat="44.49522" lon="-0.27709">
        <ele>64.3</ele>
        <time>2020-09-08T17:09:19Z</time>
      </trkpt>
      <trkpt lat="44.49523" lon="-0.27711">
        <ele>64.4</ele>
        <time>2020-09-08T17:09:20Z</time>
      </trkpt>
      <trkpt lat="44.49524" lon="-0.27712">
        <ele>64.5</ele>
        <time>2020-09-08T17:09:21Z</time>
      </trkpt>
      <trkpt lat="44.49526" lon="-0.27716">
        <ele>64.6</ele>
        <time>2020-09-08T17:09:23Z</time>
      </trkpt>
      <trkpt lat="44.49526" lon="-0.27717">
        <ele>64.6</ele>
        <time>2020-09-08T17:09:24Z</time>
      </trkpt>
      <trkpt lat="44.49527" lon="-0.27719">
        <ele>64.7</ele>
        <time>2020-09-08T17:09:26Z</time>
      </trkpt>
      <trkpt lat="44.49527" lon="-0.27721">
        <ele>64.7</ele>
        <time>2020-09-08T17:09:27Z</time>
      </trkpt>
      <trkpt lat="44.49527" lon="-0.27723">
        <ele>64.7</ele>
        <time>2020-09-08T17:09:28Z</time>
      </trkpt>
      <trkpt lat="44.49528" lon="-0.27725">
        <ele>64.8</ele>
        <time>2020-09-08T17:09:29Z</time>
      </trkpt>
      <trkpt lat="44.49528" lon="-0.27727">
        <ele>64.8</ele>
        <time>2020-09-08T17:09:30Z</time>
      </trkpt>
      <trkpt lat="44.49529" lon="-0.27729">
        <ele>64.8</ele>
        <time>2020-09-08T17:09:32Z</time>
      </trkpt>
      <trkpt lat="44.49529" lon="-0.27731">
        <ele>64.8</ele>
        <time>2020-09-08T17:09:33Z</time>
      </trkpt>
      <trkpt lat="44.4953" lon="-0.27732">
        <ele>64.8</ele>
        <time>2020-09-08T17:09:34Z</time>
      </trkpt>
      <trkpt lat="44.4953" lon="-0.27734">
        <ele>64.8</ele>
        <time>2020-09-08T17:09:35Z</time>
      </trkpt>
      <trkpt lat="44.49531" lon="-0.27737">
        <ele>64.9</ele>
        <time>2020-09-08T17:09:36Z</time>
      </trkpt>
      <trkpt lat="44.49531" lon="-0.27738">
        <ele>64.9</ele>
        <time>2020-09-08T17:09:37Z</time>
      </trkpt>
      <trkpt lat="44.49531" lon="-0.27739">
        <ele>64.9</ele>
        <time>2020-09-08T17:09:38Z</time>
      </trkpt>
      <trkpt lat="44.49531" lon="-0.27741">
        <ele>65</ele>
        <time>2020-09-08T17:09:39Z</time>
      </trkpt>
      <trkpt lat="44.49532" lon="-0.27743">
        <ele>65.1</ele>
        <time>2020-09-08T17:09:41Z</time>
      </trkpt>
      <trkpt lat="44.49533" lon="-0.27746">
        <ele>65.1</ele>
        <time>2020-09-08T17:09:42Z</time>
      </trkpt>
      <trkpt lat="44.49533" lon="-0.27747">
        <ele>65.2</ele>
        <time>2020-09-08T17:09:43Z</time>
      </trkpt>
      <trkpt lat="44.49534" lon="-0.2775">
        <ele>65.3</ele>
        <time>2020-09-08T17:09:44Z</time>
      </trkpt>
      <trkpt lat="44.49534" lon="-0.27751">
        <ele>65.4</ele>
        <time>2020-09-08T17:09:45Z</time>
      </trkpt>
      <trkpt lat="44.49535" lon="-0.27753">
        <ele>65.4</ele>
        <time>2020-09-08T17:09:46Z</time>
      </trkpt>
      <trkpt lat="44.49535" lon="-0.27754">
        <ele>65.5</ele>
        <time>2020-09-08T17:09:47Z</time>
      </trkpt>
      <trkpt lat="44.49536" lon="-0.27756">
        <ele>65.6</ele>
        <time>2020-09-08T17:09:49Z</time>
      </trkpt>
      <trkpt lat="44.49536" lon="-0.27757">
        <ele>65.7</ele>
        <time>2020-09-08T17:09:50Z</time>
      </trkpt>
      <trkpt lat="44.49537" lon="-0.2776">
        <ele>65.8</ele>
        <time>2020-09-08T17:09:51Z</time>
      </trkpt>
      <trkpt lat="44.49538" lon="-0.27761">
        <ele>65.9</ele>
        <time>2020-09-08T17:09:52Z</time>
      </trkpt>
      <trkpt lat="44.49538" lon="-0.27763">
        <ele>66</ele>
        <time>2020-09-08T17:09:53Z</time>
      </trkpt>
      <trkpt lat="44.49539" lon="-0.27764">
        <ele>66</ele>
        <time>2020-09-08T17:09:55Z</time>
      </trkpt>
      <trkpt lat="44.4954" lon="-0.27765">
        <ele>66.1</ele>
        <time>2020-09-08T17:09:56Z</time>
      </trkpt>
      <trkpt lat="44.4954" lon="-0.27767">
        <ele>66.2</ele>
        <time>2020-09-08T17:09:57Z</time>
      </trkpt>
      <trkpt lat="44.49541" lon="-0.27769">
        <ele>66.2</ele>
        <time>2020-09-08T17:09:58Z</time>
      </trkpt>
      <trkpt lat="44.49542" lon="-0.2777">
        <ele>66.3</ele>
        <time>2020-09-08T17:09:59Z</time>
      </trkpt>
      <trkpt lat="44.49542" lon="-0.27773">
        <ele>66.3</ele>
        <time>2020-09-08T17:10:01Z</time>
      </trkpt>
      <trkpt lat="44.49543" lon="-0.27775">
        <ele>66.3</ele>
        <time>2020-09-08T17:10:02Z</time>
      </trkpt>
      <trkpt lat="44.49544" lon="-0.27777">
        <ele>66.4</ele>
        <time>2020-09-08T17:10:03Z</time>
      </trkpt>
      <trkpt lat="44.49544" lon="-0.27778">
        <ele>66.4</ele>
        <time>2020-09-08T17:10:04Z</time>
      </trkpt>
      <trkpt lat="44.49544" lon="-0.2778">
        <ele>66.4</ele>
        <time>2020-09-08T17:10:06Z</time>
      </trkpt>
      <trkpt lat="44.49545" lon="-0.27783">
        <ele>66.4</ele>
        <time>2020-09-08T17:10:07Z</time>
      </trkpt>
      <trkpt lat="44.49546" lon="-0.27784">
        <ele>66.4</ele>
        <time>2020-09-08T17:10:08Z</time>
      </trkpt>
      <trkpt lat="44.49547" lon="-0.27787">
        <ele>66.4</ele>
        <time>2020-09-08T17:10:09Z</time>
      </trkpt>
      <trkpt lat="44.49547" lon="-0.27789">
        <ele>66.5</ele>
        <time>2020-09-08T17:10:10Z</time>
      </trkpt>
      <trkpt lat="44.49548" lon="-0.2779">
        <ele>66.5</ele>
        <time>2020-09-08T17:10:11Z</time>
      </trkpt>
      <trkpt lat="44.49548" lon="-0.27792">
        <ele>66.5</ele>
        <time>2020-09-08T17:10:13Z</time>
      </trkpt>
      <trkpt lat="44.49549" lon="-0.27793">
        <ele>66.6</ele>
        <time>2020-09-08T17:10:14Z</time>
      </trkpt>
      <trkpt lat="44.49549" lon="-0.27794">
        <ele>66.6</ele>
        <time>2020-09-08T17:10:16Z</time>
      </trkpt>
      <trkpt lat="44.4955" lon="-0.27797">
        <ele>66.7</ele>
        <time>2020-09-08T17:10:17Z</time>
      </trkpt>
      <trkpt lat="44.4955" lon="-0.27798">
        <ele>66.8</ele>
        <time>2020-09-08T17:10:18Z</time>
      </trkpt>
      <trkpt lat="44.49551" lon="-0.27799">
        <ele>66.8</ele>
        <time>2020-09-08T17:10:19Z</time>
      </trkpt>
      <trkpt lat="44.49551" lon="-0.27801">
        <ele>66.9</ele>
        <time>2020-09-08T17:10:20Z</time>
      </trkpt>
      <trkpt lat="44.49552" lon="-0.27803">
        <ele>67</ele>
        <time>2020-09-08T17:10:21Z</time>
      </trkpt>
      <trkpt lat="44.49552" lon="-0.27804">
        <ele>67.1</ele>
        <time>2020-09-08T17:10:23Z</time>
      </trkpt>
      <trkpt lat="44.49553" lon="-0.27806">
        <ele>67.2</ele>
        <time>2020-09-08T17:10:24Z</time>
      </trkpt>
      <trkpt lat="44.49553" lon="-0.27807">
        <ele>67.3</ele>
        <time>2020-09-08T17:10:25Z</time>
      </trkpt>
      <trkpt lat="44.49553" lon="-0.27809">
        <ele>67.4</ele>
        <time>2020-09-08T17:10:26Z</time>
      </trkpt>
      <trkpt lat="44.49554" lon="-0.27811">
        <ele>67.6</ele>
        <time>2020-09-08T17:10:27Z</time>
      </trkpt>
      <trkpt lat="44.49555" lon="-0.27813">
        <ele>67.7</ele>
        <time>2020-09-08T17:10:28Z</time>
      </trkpt>
      <trkpt lat="44.49555" lon="-0.27814">
        <ele>67.7</ele>
        <time>2020-09-08T17:10:29Z</time>
      </trkpt>
      <trkpt lat="44.49556" lon="-0.27816">
        <ele>67.9</ele>
        <time>2020-09-08T17:10:31Z</time>
      </trkpt>
      <trkpt lat="44.49557" lon="-0.27819">
        <ele>68</ele>
        <time>2020-09-08T17:10:32Z</time>
      </trkpt>
      <trkpt lat="44.49557" lon="-0.2782">
        <ele>68.1</ele>
        <time>2020-09-08T17:10:33Z</time>
      </trkpt>
      <trkpt lat="44.49558" lon="-0.27822">
        <ele>68.2</ele>
        <time>2020-09-08T17:10:35Z</time>
      </trkpt>
      <trkpt lat="44.49558" lon="-0.27824">
        <ele>68.3</ele>
        <time>2020-09-08T17:10:36Z</time>
      </trkpt>
      <trkpt lat="44.49559" lon="-0.27826">
        <ele>68.4</ele>
        <time>2020-09-08T17:10:37Z</time>
      </trkpt>
      <trkpt lat="44.49559" lon="-0.27827">
        <ele>68.4</ele>
        <time>2020-09-08T17:10:39Z</time>
      </trkpt>
      <trkpt lat="44.49559" lon="-0.27828">
        <ele>68.5</ele>
        <time>2020-09-08T17:10:40Z</time>
      </trkpt>
      <trkpt lat="44.49559" lon="-0.27829">
        <ele>68.6</ele>
        <time>2020-09-08T17:10:41Z</time>
      </trkpt>
      <trkpt lat="44.4956" lon="-0.27832">
        <ele>68.7</ele>
        <time>2020-09-08T17:10:42Z</time>
      </trkpt>
      <trkpt lat="44.4956" lon="-0.27833">
        <ele>68.7</ele>
        <time>2020-09-08T17:10:43Z</time>
      </trkpt>
      <trkpt lat="44.4956" lon="-0.27834">
        <ele>68.8</ele>
        <time>2020-09-08T17:10:44Z</time>
      </trkpt>
      <trkpt lat="44.4956" lon="-0.27835">
        <ele>68.8</ele>
        <time>2020-09-08T17:10:45Z</time>
      </trkpt>
      <trkpt lat="44.4956" lon="-0.27837">
        <ele>68.9</ele>
        <time>2020-09-08T17:10:46Z</time>
      </trkpt>
      <trkpt lat="44.4956" lon="-0.27839">
        <ele>69</ele>
        <time>2020-09-08T17:10:48Z</time>
      </trkpt>
      <trkpt lat="44.4956" lon="-0.27841">
        <ele>69.1</ele>
        <time>2020-09-08T17:10:49Z</time>
      </trkpt>
      <trkpt lat="44.49561" lon="-0.27844">
        <ele>69.3</ele>
        <time>2020-09-08T17:10:51Z</time>
      </trkpt>
      <trkpt lat="44.49561" lon="-0.27845">
        <ele>69.3</ele>
        <time>2020-09-08T17:10:52Z</time>
      </trkpt>
      <trkpt lat="44.49561" lon="-0.27846">
        <ele>69.4</ele>
        <time>2020-09-08T17:10:53Z</time>
      </trkpt>
      <trkpt lat="44.49562" lon="-0.27848">
        <ele>69.5</ele>
        <time>2020-09-08T17:10:55Z</time>
      </trkpt>
      <trkpt lat="44.49562" lon="-0.2785">
        <ele>69.6</ele>
        <time>2020-09-08T17:10:56Z</time>
      </trkpt>
      <trkpt lat="44.49562" lon="-0.27852">
        <ele>69.7</ele>
        <time>2020-09-08T17:10:57Z</time>
      </trkpt>
      <trkpt lat="44.49562" lon="-0.27854">
        <ele>69.8</ele>
        <time>2020-09-08T17:10:58Z</time>
      </trkpt>
      <trkpt lat="44.49563" lon="-0.27856">
        <ele>70</ele>
        <time>2020-09-08T17:11:00Z</time>
      </trkpt>
      <trkpt lat="44.49563" lon="-0.27857">
        <ele>70.1</ele>
        <time>2020-09-08T17:11:01Z</time>
      </trkpt>
      <trkpt lat="44.49564" lon="-0.27861">
        <ele>70.2</ele>
        <time>2020-09-08T17:11:02Z</time>
      </trkpt>
      <trkpt lat="44.49564" lon="-0.27862">
        <ele>70.3</ele>
        <time>2020-09-08T17:11:04Z</time>
      </trkpt>
      <trkpt lat="44.49565" lon="-0.27863">
        <ele>70.4</ele>
        <time>2020-09-08T17:11:05Z</time>
      </trkpt>
      <trkpt lat="44.49565" lon="-0.27865">
        <ele>70.5</ele>
        <time>2020-09-08T17:11:06Z</time>
      </trkpt>
      <trkpt lat="44.49566" lon="-0.27867">
        <ele>70.6</ele>
        <time>2020-09-08T17:11:07Z</time>
      </trkpt>
      <trkpt lat="44.49566" lon="-0.27868">
        <ele>70.7</ele>
        <time>2020-09-08T17:11:08Z</time>
      </trkpt>
      <trkpt lat="44.49567" lon="-0.2787">
        <ele>70.8</ele>
        <time>2020-09-08T17:11:09Z</time>
      </trkpt>
      <trkpt lat="44.49567" lon="-0.27872">
        <ele>70.9</ele>
        <time>2020-09-08T17:11:10Z</time>
      </trkpt>
      <trkpt lat="44.49567" lon="-0.27873">
        <ele>70.9</ele>
        <time>2020-09-08T17:11:11Z</time>
      </trkpt>
      <trkpt lat="44.49568" lon="-0.27875">
        <ele>71</ele>
        <time>2020-09-08T17:11:13Z</time>
      </trkpt>
      <trkpt lat="44.49568" lon="-0.27877">
        <ele>71.1</ele>
        <time>2020-09-08T17:11:14Z</time>
      </trkpt>
      <trkpt lat="44.49569" lon="-0.27878">
        <ele>71.2</ele>
        <time>2020-09-08T17:11:15Z</time>
      </trkpt>
      <trkpt lat="44.49569" lon="-0.2788">
        <ele>71.3</ele>
        <time>2020-09-08T17:11:16Z</time>
      </trkpt>
      <trkpt lat="44.4957" lon="-0.27881">
        <ele>71.4</ele>
        <time>2020-09-08T17:11:17Z</time>
      </trkpt>
      <trkpt lat="44.4957" lon="-0.27883">
        <ele>71.5</ele>
        <time>2020-09-08T17:11:18Z</time>
      </trkpt>
      <trkpt lat="44.4957" lon="-0.27885">
        <ele>71.6</ele>
        <time>2020-09-08T17:11:19Z</time>
      </trkpt>
      <trkpt lat="44.49571" lon="-0.27888">
        <ele>71.8</ele>
        <time>2020-09-08T17:11:21Z</time>
      </trkpt>
      <trkpt lat="44.49571" lon="-0.27889">
        <ele>71.8</ele>
        <time>2020-09-08T17:11:22Z</time>
      </trkpt>
      <trkpt lat="44.49571" lon="-0.2789">
        <ele>71.8</ele>
        <time>2020-09-08T17:11:23Z</time>
      </trkpt>
      <trkpt lat="44.49572" lon="-0.27891">
        <ele>71.9</ele>
        <time>2020-09-08T17:11:24Z</time>
      </trkpt>
      <trkpt lat="44.49572" lon="-0.27893">
        <ele>72</ele>
        <time>2020-09-08T17:11:26Z</time>
      </trkpt>
      <trkpt lat="44.49573" lon="-0.27896">
        <ele>72.1</ele>
        <time>2020-09-08T17:11:28Z</time>
      </trkpt>
      <trkpt lat="44.49573" lon="-0.27898">
        <ele>72.2</ele>
        <time>2020-09-08T17:11:29Z</time>
      </trkpt>
      <trkpt lat="44.49574" lon="-0.279">
        <ele>72.3</ele>
        <time>2020-09-08T17:11:30Z</time>
      </trkpt>
      <trkpt lat="44.49574" lon="-0.27901">
        <ele>72.3</ele>
        <time>2020-09-08T17:11:32Z</time>
      </trkpt>
      <trkpt lat="44.49575" lon="-0.27903">
        <ele>72.4</ele>
        <time>2020-09-08T17:11:34Z</time>
      </trkpt>
      <trkpt lat="44.49576" lon="-0.27906">
        <ele>72.5</ele>
        <time>2020-09-08T17:11:35Z</time>
      </trkpt>
      <trkpt lat="44.49576" lon="-0.27907">
        <ele>72.5</ele>
        <time>2020-09-08T17:11:36Z</time>
      </trkpt>
      <trkpt lat="44.49576" lon="-0.27908">
        <ele>72.5</ele>
        <time>2020-09-08T17:11:37Z</time>
      </trkpt>
      <trkpt lat="44.49577" lon="-0.2791">
        <ele>72.6</ele>
        <time>2020-09-08T17:11:38Z</time>
      </trkpt>
      <trkpt lat="44.49577" lon="-0.27912">
        <ele>72.7</ele>
        <time>2020-09-08T17:11:39Z</time>
      </trkpt>
      <trkpt lat="44.49578" lon="-0.27914">
        <ele>72.7</ele>
        <time>2020-09-08T17:11:40Z</time>
      </trkpt>
      <trkpt lat="44.49578" lon="-0.27915">
        <ele>72.8</ele>
        <time>2020-09-08T17:11:41Z</time>
      </trkpt>
      <trkpt lat="44.49579" lon="-0.27917">
        <ele>72.9</ele>
        <time>2020-09-08T17:11:43Z</time>
      </trkpt>
      <trkpt lat="44.49579" lon="-0.27919">
        <ele>72.9</ele>
        <time>2020-09-08T17:11:44Z</time>
      </trkpt>
      <trkpt lat="44.49579" lon="-0.2792">
        <ele>73</ele>
        <time>2020-09-08T17:11:45Z</time>
      </trkpt>
      <trkpt lat="44.4958" lon="-0.27922">
        <ele>73.1</ele>
        <time>2020-09-08T17:11:46Z</time>
      </trkpt>
      <trkpt lat="44.4958" lon="-0.27924">
        <ele>73.2</ele>
        <time>2020-09-08T17:11:48Z</time>
      </trkpt>
      <trkpt lat="44.49582" lon="-0.27927">
        <ele>73.4</ele>
        <time>2020-09-08T17:11:50Z</time>
      </trkpt>
      <trkpt lat="44.49582" lon="-0.27928">
        <ele>73.5</ele>
        <time>2020-09-08T17:11:51Z</time>
      </trkpt>
      <trkpt lat="44.49583" lon="-0.2793">
        <ele>73.6</ele>
        <time>2020-09-08T17:11:52Z</time>
      </trkpt>
      <trkpt lat="44.49584" lon="-0.27932">
        <ele>73.7</ele>
        <time>2020-09-08T17:11:53Z</time>
      </trkpt>
      <trkpt lat="44.49584" lon="-0.27934">
        <ele>73.8</ele>
        <time>2020-09-08T17:11:54Z</time>
      </trkpt>
      <trkpt lat="44.49585" lon="-0.27936">
        <ele>73.9</ele>
        <time>2020-09-08T17:11:56Z</time>
      </trkpt>
      <trkpt lat="44.49586" lon="-0.27938">
        <ele>74</ele>
        <time>2020-09-08T17:11:57Z</time>
      </trkpt>
      <trkpt lat="44.49586" lon="-0.2794">
        <ele>74.2</ele>
        <time>2020-09-08T17:11:58Z</time>
      </trkpt>
      <trkpt lat="44.49587" lon="-0.27942">
        <ele>74.2</ele>
        <time>2020-09-08T17:11:59Z</time>
      </trkpt>
      <trkpt lat="44.49588" lon="-0.27944">
        <ele>74.4</ele>
        <time>2020-09-08T17:12:01Z</time>
      </trkpt>
      <trkpt lat="44.49589" lon="-0.27946">
        <ele>74.5</ele>
        <time>2020-09-08T17:12:02Z</time>
      </trkpt>
      <trkpt lat="44.4959" lon="-0.27947">
        <ele>74.5</ele>
        <time>2020-09-08T17:12:03Z</time>
      </trkpt>
      <trkpt lat="44.49591" lon="-0.27949">
        <ele>74.6</ele>
        <time>2020-09-08T17:12:04Z</time>
      </trkpt>
      <trkpt lat="44.49592" lon="-0.27951">
        <ele>74.7</ele>
        <time>2020-09-08T17:12:05Z</time>
      </trkpt>
      <trkpt lat="44.49592" lon="-0.27953">
        <ele>74.8</ele>
        <time>2020-09-08T17:12:06Z</time>
      </trkpt>
      <trkpt lat="44.49594" lon="-0.27956">
        <ele>75</ele>
        <time>2020-09-08T17:12:08Z</time>
      </trkpt>
      <trkpt lat="44.49595" lon="-0.27957">
        <ele>75.1</ele>
        <time>2020-09-08T17:12:09Z</time>
      </trkpt>
      <trkpt lat="44.49596" lon="-0.27959">
        <ele>75.2</ele>
        <time>2020-09-08T17:12:11Z</time>
      </trkpt>
      <trkpt lat="44.49597" lon="-0.27961">
        <ele>75.2</ele>
        <time>2020-09-08T17:12:12Z</time>
      </trkpt>
      <trkpt lat="44.49598" lon="-0.27962">
        <ele>75.3</ele>
        <time>2020-09-08T17:12:13Z</time>
      </trkpt>
      <trkpt lat="44.49599" lon="-0.27963">
        <ele>75.4</ele>
        <time>2020-09-08T17:12:14Z</time>
      </trkpt>
      <trkpt lat="44.49599" lon="-0.27964">
        <ele>75.4</ele>
        <time>2020-09-08T17:12:15Z</time>
      </trkpt>
      <trkpt lat="44.49601" lon="-0.27966">
        <ele>75.5</ele>
        <time>2020-09-08T17:12:17Z</time>
      </trkpt>
      <trkpt lat="44.49603" lon="-0.27968">
        <ele>75.6</ele>
        <time>2020-09-08T17:12:19Z</time>
      </trkpt>
      <trkpt lat="44.49604" lon="-0.27968">
        <ele>75.6</ele>
        <time>2020-09-08T17:12:20Z</time>
      </trkpt>
      <trkpt lat="44.49604" lon="-0.27969">
        <ele>75.7</ele>
        <time>2020-09-08T17:12:21Z</time>
      </trkpt>
      <trkpt lat="44.49605" lon="-0.27969">
        <ele>75.7</ele>
        <time>2020-09-08T17:12:22Z</time>
      </trkpt>
      <trkpt lat="44.49606" lon="-0.2797">
        <ele>75.8</ele>
        <time>2020-09-08T17:12:24Z</time>
      </trkpt>
      <trkpt lat="44.49607" lon="-0.27971">
        <ele>75.8</ele>
        <time>2020-09-08T17:12:25Z</time>
      </trkpt>
      <trkpt lat="44.49608" lon="-0.27972">
        <ele>75.9</ele>
        <time>2020-09-08T17:12:26Z</time>
      </trkpt>
      <trkpt lat="44.49609" lon="-0.27973">
        <ele>75.9</ele>
        <time>2020-09-08T17:12:27Z</time>
      </trkpt>
      <trkpt lat="44.4961" lon="-0.27974">
        <ele>76</ele>
        <time>2020-09-08T17:12:28Z</time>
      </trkpt>
      <trkpt lat="44.49611" lon="-0.27975">
        <ele>76</ele>
        <time>2020-09-08T17:12:29Z</time>
      </trkpt>
      <trkpt lat="44.49612" lon="-0.27977">
        <ele>76.1</ele>
        <time>2020-09-08T17:12:30Z</time>
      </trkpt>
      <trkpt lat="44.49613" lon="-0.27978">
        <ele>76.2</ele>
        <time>2020-09-08T17:12:32Z</time>
      </trkpt>
      <trkpt lat="44.49614" lon="-0.27979">
        <ele>76.2</ele>
        <time>2020-09-08T17:12:33Z</time>
      </trkpt>
      <trkpt lat="44.49615" lon="-0.2798">
        <ele>76.3</ele>
        <time>2020-09-08T17:12:34Z</time>
      </trkpt>
      <trkpt lat="44.49616" lon="-0.27983">
        <ele>76.4</ele>
        <time>2020-09-08T17:12:36Z</time>
      </trkpt>
      <trkpt lat="44.49616" lon="-0.27984">
        <ele>76.5</ele>
        <time>2020-09-08T17:12:37Z</time>
      </trkpt>
      <trkpt lat="44.49617" lon="-0.27986">
        <ele>76.6</ele>
        <time>2020-09-08T17:12:38Z</time>
      </trkpt>
      <trkpt lat="44.49618" lon="-0.27988">
        <ele>76.7</ele>
        <time>2020-09-08T17:12:39Z</time>
      </trkpt>
      <trkpt lat="44.49619" lon="-0.27991">
        <ele>76.9</ele>
        <time>2020-09-08T17:12:41Z</time>
      </trkpt>
      <trkpt lat="44.4962" lon="-0.27992">
        <ele>77</ele>
        <time>2020-09-08T17:12:42Z</time>
      </trkpt>
      <trkpt lat="44.4962" lon="-0.27994">
        <ele>77.1</ele>
        <time>2020-09-08T17:12:43Z</time>
      </trkpt>
      <trkpt lat="44.49622" lon="-0.27998">
        <ele>77.3</ele>
        <time>2020-09-08T17:12:45Z</time>
      </trkpt>
      <trkpt lat="44.49622" lon="-0.27999">
        <ele>77.4</ele>
        <time>2020-09-08T17:12:46Z</time>
      </trkpt>
      <trkpt lat="44.49623" lon="-0.28002">
        <ele>77.5</ele>
        <time>2020-09-08T17:12:47Z</time>
      </trkpt>
      <trkpt lat="44.49623" lon="-0.28003">
        <ele>77.6</ele>
        <time>2020-09-08T17:12:48Z</time>
      </trkpt>
      <trkpt lat="44.49624" lon="-0.28004">
        <ele>77.7</ele>
        <time>2020-09-08T17:12:49Z</time>
      </trkpt>
      <trkpt lat="44.49624" lon="-0.28006">
        <ele>77.8</ele>
        <time>2020-09-08T17:12:51Z</time>
      </trkpt>
      <trkpt lat="44.49625" lon="-0.28008">
        <ele>77.9</ele>
        <time>2020-09-08T17:12:52Z</time>
      </trkpt>
      <trkpt lat="44.49625" lon="-0.2801">
        <ele>78</ele>
        <time>2020-09-08T17:12:53Z</time>
      </trkpt>
      <trkpt lat="44.49626" lon="-0.28012">
        <ele>78.1</ele>
        <time>2020-09-08T17:12:54Z</time>
      </trkpt>
      <trkpt lat="44.49627" lon="-0.28015">
        <ele>78.3</ele>
        <time>2020-09-08T17:12:56Z</time>
      </trkpt>
      <trkpt lat="44.49628" lon="-0.28018">
        <ele>78.4</ele>
        <time>2020-09-08T17:12:58Z</time>
      </trkpt>
      <trkpt lat="44.49628" lon="-0.28021">
        <ele>78.5</ele>
        <time>2020-09-08T17:12:59Z</time>
      </trkpt>
      <trkpt lat="44.49629" lon="-0.28022">
        <ele>78.6</ele>
        <time>2020-09-08T17:13:00Z</time>
      </trkpt>
      <trkpt lat="44.49629" lon="-0.28024">
        <ele>78.6</ele>
        <time>2020-09-08T17:13:01Z</time>
      </trkpt>
      <trkpt lat="44.4963" lon="-0.28026">
        <ele>78.7</ele>
        <time>2020-09-08T17:13:03Z</time>
      </trkpt>
      <trkpt lat="44.49631" lon="-0.28028">
        <ele>78.7</ele>
        <time>2020-09-08T17:13:04Z</time>
      </trkpt>
      <trkpt lat="44.49632" lon="-0.2803">
        <ele>78.8</ele>
        <time>2020-09-08T17:13:05Z</time>
      </trkpt>
      <trkpt lat="44.49633" lon="-0.28032">
        <ele>78.8</ele>
        <time>2020-09-08T17:13:06Z</time>
      </trkpt>
      <trkpt lat="44.49634" lon="-0.28034">
        <ele>78.9</ele>
        <time>2020-09-08T17:13:08Z</time>
      </trkpt>
      <trkpt lat="44.49635" lon="-0.28035">
        <ele>78.9</ele>
        <time>2020-09-08T17:13:09Z</time>
      </trkpt>
      <trkpt lat="44.49635" lon="-0.28036">
        <ele>78.9</ele>
        <time>2020-09-08T17:13:10Z</time>
      </trkpt>
      <trkpt lat="44.49636" lon="-0.28038">
        <ele>78.9</ele>
        <time>2020-09-08T17:13:11Z</time>
      </trkpt>
      <trkpt lat="44.49637" lon="-0.28039">
        <ele>78.9</ele>
        <time>2020-09-08T17:13:12Z</time>
      </trkpt>
      <trkpt lat="44.49637" lon="-0.28041">
        <ele>78.9</ele>
        <time>2020-09-08T17:13:14Z</time>
      </trkpt>
      <trkpt lat="44.49638" lon="-0.28043">
        <ele>78.8</ele>
        <time>2020-09-08T17:13:15Z</time>
      </trkpt>
      <trkpt lat="44.49638" lon="-0.28045">
        <ele>78.7</ele>
        <time>2020-09-08T17:13:16Z</time>
      </trkpt>
      <trkpt lat="44.49639" lon="-0.28046">
        <ele>78.6</ele>
        <time>2020-09-08T17:13:17Z</time>
      </trkpt>
      <trkpt lat="44.4964" lon="-0.28049">
        <ele>78.3</ele>
        <time>2020-09-08T17:13:19Z</time>
      </trkpt>
      <trkpt lat="44.49641" lon="-0.2805">
        <ele>78.1</ele>
        <time>2020-09-08T17:13:20Z</time>
      </trkpt>
      <trkpt lat="44.49642" lon="-0.28052">
        <ele>77.8</ele>
        <time>2020-09-08T17:13:22Z</time>
      </trkpt>
      <trkpt lat="44.49642" lon="-0.28054">
        <ele>77.4</ele>
        <time>2020-09-08T17:13:23Z</time>
      </trkpt>
      <trkpt lat="44.49643" lon="-0.28055">
        <ele>77.1</ele>
        <time>2020-09-08T17:13:24Z</time>
      </trkpt>
      <trkpt lat="44.49645" lon="-0.28058">
        <ele>76.5</ele>
        <time>2020-09-08T17:13:26Z</time>
      </trkpt>
      <trkpt lat="44.49645" lon="-0.28059">
        <ele>76.1</ele>
        <time>2020-09-08T17:13:27Z</time>
      </trkpt>
      <trkpt lat="44.49645" lon="-0.28061">
        <ele>75.5</ele>
        <time>2020-09-08T17:13:29Z</time>
      </trkpt>
      <trkpt lat="44.49646" lon="-0.28063">
        <ele>75.1</ele>
        <time>2020-09-08T17:13:30Z</time>
      </trkpt>
      <trkpt lat="44.49646" lon="-0.28064">
        <ele>74.8</ele>
        <time>2020-09-08T17:13:31Z</time>
      </trkpt>
      <trkpt lat="44.49647" lon="-0.28066">
        <ele>74.8</ele>
        <time>2020-09-08T17:13:33Z</time>
      </trkpt>
      <trkpt lat="44.49648" lon="-0.28067">
        <ele>74.8</ele>
        <time>2020-09-08T17:13:34Z</time>
      </trkpt>
      <trkpt lat="44.49648" lon="-0.28068">
        <ele>74.8</ele>
        <time>2020-09-08T17:13:35Z</time>
      </trkpt>
      <trkpt lat="44.49649" lon="-0.2807">
        <ele>74.8</ele>
        <time>2020-09-08T17:13:37Z</time>
      </trkpt>
      <trkpt lat="44.49649" lon="-0.28071">
        <ele>74.8</ele>
        <time>2020-09-08T17:13:38Z</time>
      </trkpt>
      <trkpt lat="44.4965" lon="-0.28071">
        <ele>74.8</ele>
        <time>2020-09-08T17:13:39Z</time>
      </trkpt>
      <trkpt lat="44.49651" lon="-0.28072">
        <ele>74.8</ele>
        <time>2020-09-08T17:13:40Z</time>
      </trkpt>
      <trkpt lat="44.49652" lon="-0.28073">
        <ele>74.8</ele>
        <time>2020-09-08T17:13:41Z</time>
      </trkpt>
      <trkpt lat="44.49653" lon="-0.28073">
        <ele>74.8</ele>
        <time>2020-09-08T17:13:42Z</time>
      </trkpt>
      <trkpt lat="44.49654" lon="-0.28074">
        <ele>74.8</ele>
        <time>2020-09-08T17:13:44Z</time>
      </trkpt>
      <trkpt lat="44.49655" lon="-0.28075">
        <ele>74.8</ele>
        <time>2020-09-08T17:13:45Z</time>
      </trkpt>
      <trkpt lat="44.49656" lon="-0.28075">
        <ele>74.8</ele>
        <time>2020-09-08T17:13:46Z</time>
      </trkpt>
      <trkpt lat="44.49657" lon="-0.28076">
        <ele>74.8</ele>
        <time>2020-09-08T17:13:47Z</time>
      </trkpt>
      <trkpt lat="44.49658" lon="-0.28078">
        <ele>74.8</ele>
        <time>2020-09-08T17:13:48Z</time>
      </trkpt>
      <trkpt lat="44.49659" lon="-0.28079">
        <ele>74.8</ele>
        <time>2020-09-08T17:13:49Z</time>
      </trkpt>
      <trkpt lat="44.4966" lon="-0.2808">
        <ele>74.8</ele>
        <time>2020-09-08T17:13:51Z</time>
      </trkpt>
      <trkpt lat="44.49661" lon="-0.28081">
        <ele>74.8</ele>
        <time>2020-09-08T17:13:52Z</time>
      </trkpt>
      <trkpt lat="44.49662" lon="-0.2808">
        <ele>74.7</ele>
        <time>2020-09-08T17:13:54Z</time>
      </trkpt>
      <trkpt lat="44.49663" lon="-0.28081">
        <ele>74.7</ele>
        <time>2020-09-08T17:13:55Z</time>
      </trkpt>
      <trkpt lat="44.49664" lon="-0.28082">
        <ele>74.7</ele>
        <time>2020-09-08T17:13:56Z</time>
      </trkpt>
      <trkpt lat="44.49665" lon="-0.28083">
        <ele>74.7</ele>
        <time>2020-09-08T17:13:57Z</time>
      </trkpt>
      <trkpt lat="44.49666" lon="-0.28085">
        <ele>74.7</ele>
        <time>2020-09-08T17:13:58Z</time>
      </trkpt>
      <trkpt lat="44.49667" lon="-0.28085">
        <ele>74.7</ele>
        <time>2020-09-08T17:13:59Z</time>
      </trkpt>
      <trkpt lat="44.49668" lon="-0.28086">
        <ele>74.7</ele>
        <time>2020-09-08T17:14:00Z</time>
      </trkpt>
      <trkpt lat="44.49669" lon="-0.28087">
        <ele>74.7</ele>
        <time>2020-09-08T17:14:01Z</time>
      </trkpt>
      <trkpt lat="44.49671" lon="-0.28088">
        <ele>74.7</ele>
        <time>2020-09-08T17:14:02Z</time>
      </trkpt>
      <trkpt lat="44.49672" lon="-0.28089">
        <ele>74.7</ele>
        <time>2020-09-08T17:14:04Z</time>
      </trkpt>
      <trkpt lat="44.49673" lon="-0.28089">
        <ele>74.7</ele>
        <time>2020-09-08T17:14:05Z</time>
      </trkpt>
      <trkpt lat="44.49674" lon="-0.2809">
        <ele>74.7</ele>
        <time>2020-09-08T17:14:06Z</time>
      </trkpt>
      <trkpt lat="44.49675" lon="-0.2809">
        <ele>74.7</ele>
        <time>2020-09-08T17:14:07Z</time>
      </trkpt>
      <trkpt lat="44.49676" lon="-0.28091">
        <ele>74.7</ele>
        <time>2020-09-08T17:14:08Z</time>
      </trkpt>
      <trkpt lat="44.49677" lon="-0.28092">
        <ele>74.7</ele>
        <time>2020-09-08T17:14:09Z</time>
      </trkpt>
      <trkpt lat="44.49678" lon="-0.28093">
        <ele>74.7</ele>
        <time>2020-09-08T17:14:10Z</time>
      </trkpt>
      <trkpt lat="44.49678" lon="-0.28093">
        <ele>74.7</ele>
        <time>2020-09-08T17:14:11Z</time>
      </trkpt>
      <trkpt lat="44.4968" lon="-0.28094">
        <ele>74.7</ele>
        <time>2020-09-08T17:14:12Z</time>
      </trkpt>
      <trkpt lat="44.49681" lon="-0.28095">
        <ele>74.7</ele>
        <time>2020-09-08T17:14:13Z</time>
      </trkpt>
      <trkpt lat="44.49681" lon="-0.28096">
        <ele>74.7</ele>
        <time>2020-09-08T17:14:14Z</time>
      </trkpt>
      <trkpt lat="44.49682" lon="-0.28097">
        <ele>74.7</ele>
        <time>2020-09-08T17:14:16Z</time>
      </trkpt>
      <trkpt lat="44.49684" lon="-0.28098">
        <ele>74.7</ele>
        <time>2020-09-08T17:14:17Z</time>
      </trkpt>
      <trkpt lat="44.49685" lon="-0.28098">
        <ele>74.7</ele>
        <time>2020-09-08T17:14:18Z</time>
      </trkpt>
      <trkpt lat="44.49686" lon="-0.28098">
        <ele>74.7</ele>
        <time>2020-09-08T17:14:19Z</time>
      </trkpt>
      <trkpt lat="44.49687" lon="-0.28099">
        <ele>74.7</ele>
        <time>2020-09-08T17:14:20Z</time>
      </trkpt>
      <trkpt lat="44.49688" lon="-0.281">
        <ele>74.7</ele>
        <time>2020-09-08T17:14:21Z</time>
      </trkpt>
      <trkpt lat="44.49689" lon="-0.28101">
        <ele>74.7</ele>
        <time>2020-09-08T17:14:22Z</time>
      </trkpt>
      <trkpt lat="44.4969" lon="-0.28101">
        <ele>74.7</ele>
        <time>2020-09-08T17:14:23Z</time>
      </trkpt>
      <trkpt lat="44.49691" lon="-0.28102">
        <ele>74.7</ele>
        <time>2020-09-08T17:14:24Z</time>
      </trkpt>
      <trkpt lat="44.49693" lon="-0.28103">
        <ele>74.7</ele>
        <time>2020-09-08T17:14:26Z</time>
      </trkpt>
      <trkpt lat="44.49694" lon="-0.28103">
        <ele>74.7</ele>
        <time>2020-09-08T17:14:27Z</time>
      </trkpt>
      <trkpt lat="44.49696" lon="-0.28103">
        <ele>74.7</ele>
        <time>2020-09-08T17:14:28Z</time>
      </trkpt>
      <trkpt lat="44.49697" lon="-0.28103">
        <ele>74.7</ele>
        <time>2020-09-08T17:14:29Z</time>
      </trkpt>
      <trkpt lat="44.49698" lon="-0.28104">
        <ele>74.7</ele>
        <time>2020-09-08T17:14:30Z</time>
      </trkpt>
      <trkpt lat="44.497" lon="-0.28104">
        <ele>74.7</ele>
        <time>2020-09-08T17:14:32Z</time>
      </trkpt>
      <trkpt lat="44.49701" lon="-0.28103">
        <ele>74.7</ele>
        <time>2020-09-08T17:14:34Z</time>
      </trkpt>
      <trkpt lat="44.49703" lon="-0.28104">
        <ele>74.6</ele>
        <time>2020-09-08T17:14:35Z</time>
      </trkpt>
      <trkpt lat="44.49704" lon="-0.28105">
        <ele>74.6</ele>
        <time>2020-09-08T17:14:36Z</time>
      </trkpt>
      <trkpt lat="44.49705" lon="-0.28105">
        <ele>74.6</ele>
        <time>2020-09-08T17:14:37Z</time>
      </trkpt>
      <trkpt lat="44.49707" lon="-0.28105">
        <ele>74.6</ele>
        <time>2020-09-08T17:14:39Z</time>
      </trkpt>
      <trkpt lat="44.49708" lon="-0.28106">
        <ele>74.6</ele>
        <time>2020-09-08T17:14:40Z</time>
      </trkpt>
      <trkpt lat="44.49711" lon="-0.28107">
        <ele>74.6</ele>
        <time>2020-09-08T17:14:42Z</time>
      </trkpt>
      <trkpt lat="44.49711" lon="-0.28107">
        <ele>74.6</ele>
        <time>2020-09-08T17:14:43Z</time>
      </trkpt>
      <trkpt lat="44.49712" lon="-0.28107">
        <ele>74.6</ele>
        <time>2020-09-08T17:14:44Z</time>
      </trkpt>
      <trkpt lat="44.49714" lon="-0.28108">
        <ele>74.6</ele>
        <time>2020-09-08T17:14:45Z</time>
      </trkpt>
      <trkpt lat="44.49716" lon="-0.28108">
        <ele>74.6</ele>
        <time>2020-09-08T17:14:47Z</time>
      </trkpt>
      <trkpt lat="44.49717" lon="-0.28109">
        <ele>74.6</ele>
        <time>2020-09-08T17:14:48Z</time>
      </trkpt>
      <trkpt lat="44.49718" lon="-0.28109">
        <ele>74.6</ele>
        <time>2020-09-08T17:14:49Z</time>
      </trkpt>
      <trkpt lat="44.49719" lon="-0.28109">
        <ele>74.6</ele>
        <time>2020-09-08T17:14:50Z</time>
      </trkpt>
      <trkpt lat="44.4972" lon="-0.2811">
        <ele>74.6</ele>
        <time>2020-09-08T17:14:51Z</time>
      </trkpt>
      <trkpt lat="44.49722" lon="-0.2811">
        <ele>74.6</ele>
        <time>2020-09-08T17:14:53Z</time>
      </trkpt>
      <trkpt lat="44.49727" lon="-0.2811">
        <ele>74.6</ele>
        <time>2020-09-08T17:14:54Z</time>
      </trkpt>
      <trkpt lat="44.49729" lon="-0.28111">
        <ele>74.6</ele>
        <time>2020-09-08T17:14:55Z</time>
      </trkpt>
      <trkpt lat="44.4973" lon="-0.28111">
        <ele>74.6</ele>
        <time>2020-09-08T17:14:56Z</time>
      </trkpt>
      <trkpt lat="44.4973" lon="-0.28112">
        <ele>74.6</ele>
        <time>2020-09-08T17:14:57Z</time>
      </trkpt>
      <trkpt lat="44.49734" lon="-0.28113">
        <ele>74.6</ele>
        <time>2020-09-08T17:14:59Z</time>
      </trkpt>
      <trkpt lat="44.49734" lon="-0.28113">
        <ele>74.6</ele>
        <time>2020-09-08T17:15:00Z</time>
      </trkpt>
      <trkpt lat="44.49735" lon="-0.28114">
        <ele>74.6</ele>
        <time>2020-09-08T17:15:01Z</time>
      </trkpt>
      <trkpt lat="44.49736" lon="-0.28115">
        <ele>74.6</ele>
        <time>2020-09-08T17:15:02Z</time>
      </trkpt>
      <trkpt lat="44.49737" lon="-0.28115">
        <ele>74.7</ele>
        <time>2020-09-08T17:15:03Z</time>
      </trkpt>
      <trkpt lat="44.4974" lon="-0.28117">
        <ele>74.7</ele>
        <time>2020-09-08T17:15:05Z</time>
      </trkpt>
      <trkpt lat="44.49741" lon="-0.28118">
        <ele>74.7</ele>
        <time>2020-09-08T17:15:07Z</time>
      </trkpt>
      <trkpt lat="44.49742" lon="-0.28118">
        <ele>74.7</ele>
        <time>2020-09-08T17:15:08Z</time>
      </trkpt>
      <trkpt lat="44.49741" lon="-0.28119">
        <ele>74.7</ele>
        <time>2020-09-08T17:15:09Z</time>
      </trkpt>
      <trkpt lat="44.49742" lon="-0.2812">
        <ele>74.8</ele>
        <time>2020-09-08T17:15:10Z</time>
      </trkpt>
      <trkpt lat="44.49743" lon="-0.2812">
        <ele>74.8</ele>
        <time>2020-09-08T17:15:11Z</time>
      </trkpt>
      <trkpt lat="44.49743" lon="-0.28122">
        <ele>74.8</ele>
        <time>2020-09-08T17:15:12Z</time>
      </trkpt>
      <trkpt lat="44.49744" lon="-0.28123">
        <ele>74.8</ele>
        <time>2020-09-08T17:15:13Z</time>
      </trkpt>
      <trkpt lat="44.49744" lon="-0.28124">
        <ele>74.8</ele>
        <time>2020-09-08T17:15:14Z</time>
      </trkpt>
      <trkpt lat="44.49745" lon="-0.28125">
        <ele>74.9</ele>
        <time>2020-09-08T17:15:15Z</time>
      </trkpt>
      <trkpt lat="44.49746" lon="-0.28126">
        <ele>74.9</ele>
        <time>2020-09-08T17:15:17Z</time>
      </trkpt>
      <trkpt lat="44.49747" lon="-0.28127">
        <ele>74.9</ele>
        <time>2020-09-08T17:15:18Z</time>
      </trkpt>
      <trkpt lat="44.49747" lon="-0.28125">
        <ele>74.9</ele>
        <time>2020-09-08T17:15:19Z</time>
      </trkpt>
      <trkpt lat="44.49749" lon="-0.28125">
        <ele>75</ele>
        <time>2020-09-08T17:15:20Z</time>
      </trkpt>
      <trkpt lat="44.4975" lon="-0.28125">
        <ele>75</ele>
        <time>2020-09-08T17:15:22Z</time>
      </trkpt>
      <trkpt lat="44.49751" lon="-0.28126">
        <ele>75</ele>
        <time>2020-09-08T17:15:23Z</time>
      </trkpt>
      <trkpt lat="44.49751" lon="-0.28126">
        <ele>75</ele>
        <time>2020-09-08T17:15:24Z</time>
      </trkpt>
      <trkpt lat="44.49753" lon="-0.28127">
        <ele>75.1</ele>
        <time>2020-09-08T17:15:26Z</time>
      </trkpt>
      <trkpt lat="44.49755" lon="-0.28128">
        <ele>75.1</ele>
        <time>2020-09-08T17:15:27Z</time>
      </trkpt>
      <trkpt lat="44.49757" lon="-0.2813">
        <ele>75.2</ele>
        <time>2020-09-08T17:15:29Z</time>
      </trkpt>
      <trkpt lat="44.49759" lon="-0.28132">
        <ele>75.2</ele>
        <time>2020-09-08T17:15:31Z</time>
      </trkpt>
      <trkpt lat="44.4976" lon="-0.28133">
        <ele>75.3</ele>
        <time>2020-09-08T17:15:32Z</time>
      </trkpt>
      <trkpt lat="44.49761" lon="-0.28135">
        <ele>75.3</ele>
        <time>2020-09-08T17:15:33Z</time>
      </trkpt>
      <trkpt lat="44.49761" lon="-0.28135">
        <ele>75.3</ele>
        <time>2020-09-08T17:15:34Z</time>
      </trkpt>
      <trkpt lat="44.49764" lon="-0.28137">
        <ele>75.4</ele>
        <time>2020-09-08T17:15:36Z</time>
      </trkpt>
      <trkpt lat="44.49766" lon="-0.28138">
        <ele>75.5</ele>
        <time>2020-09-08T17:15:38Z</time>
      </trkpt>
      <trkpt lat="44.49767" lon="-0.28138">
        <ele>75.5</ele>
        <time>2020-09-08T17:15:39Z</time>
      </trkpt>
      <trkpt lat="44.49769" lon="-0.28137">
        <ele>75.6</ele>
        <time>2020-09-08T17:15:41Z</time>
      </trkpt>
      <trkpt lat="44.4977" lon="-0.28136">
        <ele>75.6</ele>
        <time>2020-09-08T17:15:42Z</time>
      </trkpt>
      <trkpt lat="44.49772" lon="-0.28135">
        <ele>75.7</ele>
        <time>2020-09-08T17:15:44Z</time>
      </trkpt>
      <trkpt lat="44.49773" lon="-0.28134">
        <ele>75.7</ele>
        <time>2020-09-08T17:15:45Z</time>
      </trkpt>
      <trkpt lat="44.49776" lon="-0.28135">
        <ele>75.8</ele>
        <time>2020-09-08T17:15:46Z</time>
      </trkpt>
      <trkpt lat="44.49776" lon="-0.28135">
        <ele>75.8</ele>
        <time>2020-09-08T17:15:48Z</time>
      </trkpt>
      <trkpt lat="44.49777" lon="-0.28136">
        <ele>75.8</ele>
        <time>2020-09-08T17:15:49Z</time>
      </trkpt>
      <trkpt lat="44.49778" lon="-0.28137">
        <ele>75.8</ele>
        <time>2020-09-08T17:15:51Z</time>
      </trkpt>
      <trkpt lat="44.49779" lon="-0.28138">
        <ele>75.9</ele>
        <time>2020-09-08T17:15:52Z</time>
      </trkpt>
      <trkpt lat="44.4978" lon="-0.28139">
        <ele>75.9</ele>
        <time>2020-09-08T17:15:53Z</time>
      </trkpt>
      <trkpt lat="44.4978" lon="-0.28142">
        <ele>75.9</ele>
        <time>2020-09-08T17:15:54Z</time>
      </trkpt>
      <trkpt lat="44.4978" lon="-0.28143">
        <ele>76</ele>
        <time>2020-09-08T17:15:56Z</time>
      </trkpt>
      <trkpt lat="44.49781" lon="-0.28145">
        <ele>76</ele>
        <time>2020-09-08T17:15:57Z</time>
      </trkpt>
      <trkpt lat="44.49782" lon="-0.28148">
        <ele>76</ele>
        <time>2020-09-08T17:15:58Z</time>
      </trkpt>
      <trkpt lat="44.49782" lon="-0.28149">
        <ele>76</ele>
        <time>2020-09-08T17:15:59Z</time>
      </trkpt>
      <trkpt lat="44.49783" lon="-0.2815">
        <ele>76.1</ele>
        <time>2020-09-08T17:16:00Z</time>
      </trkpt>
      <trkpt lat="44.49783" lon="-0.28151">
        <ele>76.1</ele>
        <time>2020-09-08T17:16:01Z</time>
      </trkpt>
      <trkpt lat="44.49784" lon="-0.28153">
        <ele>76.1</ele>
        <time>2020-09-08T17:16:02Z</time>
      </trkpt>
      <trkpt lat="44.49785" lon="-0.28154">
        <ele>76.1</ele>
        <time>2020-09-08T17:16:04Z</time>
      </trkpt>
      <trkpt lat="44.49787" lon="-0.28156">
        <ele>76.2</ele>
        <time>2020-09-08T17:16:05Z</time>
      </trkpt>
      <trkpt lat="44.49787" lon="-0.28157">
        <ele>76.2</ele>
        <time>2020-09-08T17:16:06Z</time>
      </trkpt>
      <trkpt lat="44.49788" lon="-0.28158">
        <ele>76.2</ele>
        <time>2020-09-08T17:16:07Z</time>
      </trkpt>
      <trkpt lat="44.49789" lon="-0.28159">
        <ele>76.2</ele>
        <time>2020-09-08T17:16:08Z</time>
      </trkpt>
      <trkpt lat="44.4979" lon="-0.2816">
        <ele>76.3</ele>
        <time>2020-09-08T17:16:09Z</time>
      </trkpt>
      <trkpt lat="44.49791" lon="-0.28161">
        <ele>76.3</ele>
        <time>2020-09-08T17:16:10Z</time>
      </trkpt>
      <trkpt lat="44.49792" lon="-0.28162">
        <ele>76.3</ele>
        <time>2020-09-08T17:16:12Z</time>
      </trkpt>
      <trkpt lat="44.49793" lon="-0.28163">
        <ele>76.4</ele>
        <time>2020-09-08T17:16:13Z</time>
      </trkpt>
      <trkpt lat="44.49794" lon="-0.28165">
        <ele>76.4</ele>
        <time>2020-09-08T17:16:14Z</time>
      </trkpt>
      <trkpt lat="44.49794" lon="-0.28166">
        <ele>76.4</ele>
        <time>2020-09-08T17:16:15Z</time>
      </trkpt>
      <trkpt lat="44.49795" lon="-0.28167">
        <ele>76.4</ele>
        <time>2020-09-08T17:16:17Z</time>
      </trkpt>
      <trkpt lat="44.49796" lon="-0.28167">
        <ele>76.5</ele>
        <time>2020-09-08T17:16:18Z</time>
      </trkpt>
      <trkpt lat="44.49797" lon="-0.28167">
        <ele>76.5</ele>
        <time>2020-09-08T17:16:19Z</time>
      </trkpt>
      <trkpt lat="44.49798" lon="-0.28168">
        <ele>76.5</ele>
        <time>2020-09-08T17:16:20Z</time>
      </trkpt>
      <trkpt lat="44.49799" lon="-0.28169">
        <ele>76.5</ele>
        <time>2020-09-08T17:16:21Z</time>
      </trkpt>
      <trkpt lat="44.49799" lon="-0.28169">
        <ele>76.5</ele>
        <time>2020-09-08T17:16:22Z</time>
      </trkpt>
      <trkpt lat="44.498" lon="-0.28169">
        <ele>76.6</ele>
        <time>2020-09-08T17:16:23Z</time>
      </trkpt>
      <trkpt lat="44.49801" lon="-0.28172">
        <ele>76.6</ele>
        <time>2020-09-08T17:16:25Z</time>
      </trkpt>
      <trkpt lat="44.49802" lon="-0.28173">
        <ele>76.6</ele>
        <time>2020-09-08T17:16:26Z</time>
      </trkpt>
      <trkpt lat="44.49802" lon="-0.28173">
        <ele>76.6</ele>
        <time>2020-09-08T17:16:28Z</time>
      </trkpt>
      <trkpt lat="44.49802" lon="-0.28173">
        <ele>76.6</ele>
        <time>2020-09-08T17:16:29Z</time>
      </trkpt>
      <trkpt lat="44.49802" lon="-0.28173">
        <ele>76.7</ele>
        <time>2020-09-08T17:16:30Z</time>
      </trkpt>
      <trkpt lat="44.49803" lon="-0.28174">
        <ele>76.7</ele>
        <time>2020-09-08T17:16:31Z</time>
      </trkpt>
      <trkpt lat="44.49804" lon="-0.28175">
        <ele>76.7</ele>
        <time>2020-09-08T17:16:32Z</time>
      </trkpt>
      <trkpt lat="44.49805" lon="-0.28175">
        <ele>76.7</ele>
        <time>2020-09-08T17:16:33Z</time>
      </trkpt>
      <trkpt lat="44.49806" lon="-0.28176">
        <ele>76.8</ele>
        <time>2020-09-08T17:16:35Z</time>
      </trkpt>
      <trkpt lat="44.49807" lon="-0.28177">
        <ele>76.8</ele>
        <time>2020-09-08T17:16:36Z</time>
      </trkpt>
      <trkpt lat="44.49808" lon="-0.28178">
        <ele>76.8</ele>
        <time>2020-09-08T17:16:37Z</time>
      </trkpt>
      <trkpt lat="44.49809" lon="-0.28178">
        <ele>76.8</ele>
        <time>2020-09-08T17:16:39Z</time>
      </trkpt>
      <trkpt lat="44.49809" lon="-0.28178">
        <ele>76.9</ele>
        <time>2020-09-08T17:16:40Z</time>
      </trkpt>
      <trkpt lat="44.49809" lon="-0.28179">
        <ele>76.9</ele>
        <time>2020-09-08T17:16:42Z</time>
      </trkpt>
      <trkpt lat="44.49809" lon="-0.28179">
        <ele>76.9</ele>
        <time>2020-09-08T17:16:44Z</time>
      </trkpt>
      <trkpt lat="44.49809" lon="-0.28179">
        <ele>76.9</ele>
        <time>2020-09-08T17:16:45Z</time>
      </trkpt>
      <trkpt lat="44.49809" lon="-0.28177">
        <ele>76.9</ele>
        <time>2020-09-08T17:16:47Z</time>
      </trkpt>
      <trkpt lat="44.49809" lon="-0.28176">
        <ele>76.9</ele>
        <time>2020-09-08T17:16:48Z</time>
      </trkpt>
      <trkpt lat="44.49809" lon="-0.28175">
        <ele>77</ele>
        <time>2020-09-08T17:16:50Z</time>
      </trkpt>
      <trkpt lat="44.49809" lon="-0.28175">
        <ele>77</ele>
        <time>2020-09-08T17:16:51Z</time>
      </trkpt>
      <trkpt lat="44.49809" lon="-0.28174">
        <ele>77</ele>
        <time>2020-09-08T17:16:53Z</time>
      </trkpt>
      <trkpt lat="44.4981" lon="-0.28172">
        <ele>77.1</ele>
        <time>2020-09-08T17:16:54Z</time>
      </trkpt>
      <trkpt lat="44.49811" lon="-0.28172">
        <ele>77.1</ele>
        <time>2020-09-08T17:16:55Z</time>
      </trkpt>
      <trkpt lat="44.49812" lon="-0.28172">
        <ele>77.1</ele>
        <time>2020-09-08T17:16:56Z</time>
      </trkpt>
      <trkpt lat="44.49813" lon="-0.28172">
        <ele>77.1</ele>
        <time>2020-09-08T17:16:58Z</time>
      </trkpt>
      <trkpt lat="44.49814" lon="-0.28173">
        <ele>77.2</ele>
        <time>2020-09-08T17:16:59Z</time>
      </trkpt>
      <trkpt lat="44.49815" lon="-0.28174">
        <ele>77.2</ele>
        <time>2020-09-08T17:17:00Z</time>
      </trkpt>
      <trkpt lat="44.49816" lon="-0.28174">
        <ele>77.2</ele>
        <time>2020-09-08T17:17:02Z</time>
      </trkpt>
      <trkpt lat="44.49818" lon="-0.28174">
        <ele>77.3</ele>
        <time>2020-09-08T17:17:03Z</time>
      </trkpt>
      <trkpt lat="44.49819" lon="-0.28175">
        <ele>77.3</ele>
        <time>2020-09-08T17:17:04Z</time>
      </trkpt>
      <trkpt lat="44.49819" lon="-0.28175">
        <ele>77.3</ele>
        <time>2020-09-08T17:17:05Z</time>
      </trkpt>
      <trkpt lat="44.4982" lon="-0.28176">
        <ele>77.4</ele>
        <time>2020-09-08T17:17:06Z</time>
      </trkpt>
      <trkpt lat="44.49819" lon="-0.28177">
        <ele>77.4</ele>
        <time>2020-09-08T17:17:07Z</time>
      </trkpt>
      <trkpt lat="44.49819" lon="-0.28178">
        <ele>77.4</ele>
        <time>2020-09-08T17:17:08Z</time>
      </trkpt>
      <trkpt lat="44.4982" lon="-0.28181">
        <ele>77.5</ele>
        <time>2020-09-08T17:17:10Z</time>
      </trkpt>
      <trkpt lat="44.4982" lon="-0.28182">
        <ele>77.5</ele>
        <time>2020-09-08T17:17:11Z</time>
      </trkpt>
      <trkpt lat="44.49819" lon="-0.28185">
        <ele>77.6</ele>
        <time>2020-09-08T17:17:12Z</time>
      </trkpt>
      <trkpt lat="44.49819" lon="-0.28186">
        <ele>77.6</ele>
        <time>2020-09-08T17:17:14Z</time>
      </trkpt>
      <trkpt lat="44.4982" lon="-0.28187">
        <ele>77.7</ele>
        <time>2020-09-08T17:17:15Z</time>
      </trkpt>
      <trkpt lat="44.49821" lon="-0.2819">
        <ele>77.7</ele>
        <time>2020-09-08T17:17:17Z</time>
      </trkpt>
      <trkpt lat="44.49822" lon="-0.28191">
        <ele>77.7</ele>
        <time>2020-09-08T17:17:18Z</time>
      </trkpt>
      <trkpt lat="44.49823" lon="-0.28192">
        <ele>77.8</ele>
        <time>2020-09-08T17:17:19Z</time>
      </trkpt>
      <trkpt lat="44.49824" lon="-0.28194">
        <ele>77.8</ele>
        <time>2020-09-08T17:17:21Z</time>
      </trkpt>
      <trkpt lat="44.49825" lon="-0.28196">
        <ele>77.9</ele>
        <time>2020-09-08T17:17:22Z</time>
      </trkpt>
      <trkpt lat="44.49826" lon="-0.28198">
        <ele>77.9</ele>
        <time>2020-09-08T17:17:24Z</time>
      </trkpt>
      <trkpt lat="44.49828" lon="-0.28199">
        <ele>78</ele>
        <time>2020-09-08T17:17:25Z</time>
      </trkpt>
      <trkpt lat="44.49829" lon="-0.282">
        <ele>78</ele>
        <time>2020-09-08T17:17:26Z</time>
      </trkpt>
      <trkpt lat="44.49833" lon="-0.28203">
        <ele>78.1</ele>
        <time>2020-09-08T17:17:28Z</time>
      </trkpt>
      <trkpt lat="44.49838" lon="-0.28206">
        <ele>78.3</ele>
        <time>2020-09-08T17:17:30Z</time>
      </trkpt>
      <trkpt lat="44.49841" lon="-0.28209">
        <ele>78.3</ele>
        <time>2020-09-08T17:17:31Z</time>
      </trkpt>
      <trkpt lat="44.49842" lon="-0.28212">
        <ele>78.4</ele>
        <time>2020-09-08T17:17:32Z</time>
      </trkpt>
      <trkpt lat="44.49844" lon="-0.28213">
        <ele>78.4</ele>
        <time>2020-09-08T17:17:33Z</time>
      </trkpt>
      <trkpt lat="44.49845" lon="-0.28213">
        <ele>78.4</ele>
        <time>2020-09-08T17:17:34Z</time>
      </trkpt>
      <trkpt lat="44.49846" lon="-0.28214">
        <ele>78.4</ele>
        <time>2020-09-08T17:17:36Z</time>
      </trkpt>
      <trkpt lat="44.49846" lon="-0.28214">
        <ele>78.4</ele>
        <time>2020-09-08T17:17:37Z</time>
      </trkpt>
      <trkpt lat="44.49847" lon="-0.28213">
        <ele>78.4</ele>
        <time>2020-09-08T17:17:38Z</time>
      </trkpt>
      <trkpt lat="44.49847" lon="-0.28212">
        <ele>78.4</ele>
        <time>2020-09-08T17:17:39Z</time>
      </trkpt>
      <trkpt lat="44.49847" lon="-0.28211">
        <ele>78.4</ele>
        <time>2020-09-08T17:17:40Z</time>
      </trkpt>
      <trkpt lat="44.49847" lon="-0.2821">
        <ele>78.4</ele>
        <time>2020-09-08T17:17:42Z</time>
      </trkpt>
      <trkpt lat="44.49846" lon="-0.28208">
        <ele>78.4</ele>
        <time>2020-09-08T17:17:44Z</time>
      </trkpt>
      <trkpt lat="44.49846" lon="-0.28208">
        <ele>78.4</ele>
        <time>2020-09-08T17:17:46Z</time>
      </trkpt>
      <trkpt lat="44.49847" lon="-0.28209">
        <ele>78.4</ele>
        <time>2020-09-08T17:17:48Z</time>
      </trkpt>
      <trkpt lat="44.49848" lon="-0.28209">
        <ele>78.4</ele>
        <time>2020-09-08T17:17:49Z</time>
      </trkpt>
      <trkpt lat="44.49849" lon="-0.28208">
        <ele>78.4</ele>
        <time>2020-09-08T17:17:50Z</time>
      </trkpt>
      <trkpt lat="44.49848" lon="-0.28207">
        <ele>78.5</ele>
        <time>2020-09-08T17:17:52Z</time>
      </trkpt>
      <trkpt lat="44.49849" lon="-0.2821">
        <ele>78.5</ele>
        <time>2020-09-08T17:17:54Z</time>
      </trkpt>
      <trkpt lat="44.49849" lon="-0.2821">
        <ele>78.5</ele>
        <time>2020-09-08T17:17:56Z</time>
      </trkpt>
      <trkpt lat="44.49849" lon="-0.28211">
        <ele>78.5</ele>
        <time>2020-09-08T17:17:59Z</time>
      </trkpt>
      <trkpt lat="44.49849" lon="-0.28211">
        <ele>78.5</ele>
        <time>2020-09-08T17:18:01Z</time>
      </trkpt>
      <trkpt lat="44.49849" lon="-0.28211">
        <ele>78.5</ele>
        <time>2020-09-08T17:18:03Z</time>
      </trkpt>
      <trkpt lat="44.49849" lon="-0.28211">
        <ele>78.5</ele>
        <time>2020-09-08T17:18:04Z</time>
      </trkpt>
      <trkpt lat="44.49849" lon="-0.28211">
        <ele>78.5</ele>
        <time>2020-09-08T17:18:05Z</time>
      </trkpt>
      <trkpt lat="44.49849" lon="-0.28211">
        <ele>78.5</ele>
        <time>2020-09-08T17:18:07Z</time>
      </trkpt>
      <trkpt lat="44.49849" lon="-0.28211">
        <ele>78.5</ele>
        <time>2020-09-08T17:18:08Z</time>
      </trkpt>
      <trkpt lat="44.49849" lon="-0.2821">
        <ele>78.5</ele>
        <time>2020-09-08T17:18:09Z</time>
      </trkpt>
      <trkpt lat="44.49849" lon="-0.2821">
        <ele>78.5</ele>
        <time>2020-09-08T17:18:10Z</time>
      </trkpt>
      <trkpt lat="44.49849" lon="-0.2821">
        <ele>78.5</ele>
        <time>2020-09-08T17:18:11Z</time>
      </trkpt>
      <trkpt lat="44.49849" lon="-0.2821">
        <ele>78.5</ele>
        <time>2020-09-08T17:18:13Z</time>
      </trkpt>
      <trkpt lat="44.49849" lon="-0.2821">
        <ele>78.5</ele>
        <time>2020-09-08T17:18:14Z</time>
      </trkpt>
      <trkpt lat="44.49849" lon="-0.2821">
        <ele>78.5</ele>
        <time>2020-09-08T17:18:16Z</time>
      </trkpt>
      <trkpt lat="44.49849" lon="-0.2821">
        <ele>78.5</ele>
        <time>2020-09-08T17:18:18Z</time>
      </trkpt>
      <trkpt lat="44.49849" lon="-0.2821">
        <ele>78.5</ele>
        <time>2020-09-08T17:18:19Z</time>
      </trkpt>
      <trkpt lat="44.49849" lon="-0.2821">
        <ele>78.5</ele>
        <time>2020-09-08T17:18:21Z</time>
      </trkpt>
      <trkpt lat="44.49851" lon="-0.28209">
        <ele>78.5</ele>
        <time>2020-09-08T17:18:23Z</time>
      </trkpt>
      <trkpt lat="44.49851" lon="-0.28208">
        <ele>78.5</ele>
        <time>2020-09-08T17:18:24Z</time>
      </trkpt>
      <trkpt lat="44.49851" lon="-0.28209">
        <ele>78.5</ele>
        <time>2020-09-08T17:18:25Z</time>
      </trkpt>
      <trkpt lat="44.49852" lon="-0.28212">
        <ele>78.6</ele>
        <time>2020-09-08T17:18:26Z</time>
      </trkpt>
      <trkpt lat="44.49853" lon="-0.28213">
        <ele>78.6</ele>
        <time>2020-09-08T17:18:28Z</time>
      </trkpt>
      <trkpt lat="44.49853" lon="-0.28213">
        <ele>78.6</ele>
        <time>2020-09-08T17:18:29Z</time>
      </trkpt>
      <trkpt lat="44.49854" lon="-0.28214">
        <ele>78.6</ele>
        <time>2020-09-08T17:18:30Z</time>
      </trkpt>
      <trkpt lat="44.49855" lon="-0.28214">
        <ele>78.6</ele>
        <time>2020-09-08T17:18:31Z</time>
      </trkpt>
      <trkpt lat="44.49856" lon="-0.28214">
        <ele>78.6</ele>
        <time>2020-09-08T17:18:32Z</time>
      </trkpt>
      <trkpt lat="44.49857" lon="-0.28213">
        <ele>78.6</ele>
        <time>2020-09-08T17:18:33Z</time>
      </trkpt>
      <trkpt lat="44.49858" lon="-0.28211">
        <ele>78.6</ele>
        <time>2020-09-08T17:18:34Z</time>
      </trkpt>
      <trkpt lat="44.49858" lon="-0.2821">
        <ele>78.7</ele>
        <time>2020-09-08T17:18:36Z</time>
      </trkpt>
      <trkpt lat="44.49859" lon="-0.28209">
        <ele>78.7</ele>
        <time>2020-09-08T17:18:37Z</time>
      </trkpt>
      <trkpt lat="44.4986" lon="-0.28209">
        <ele>78.7</ele>
        <time>2020-09-08T17:18:38Z</time>
      </trkpt>
      <trkpt lat="44.49861" lon="-0.28209">
        <ele>78.7</ele>
        <time>2020-09-08T17:18:39Z</time>
      </trkpt>
      <trkpt lat="44.49863" lon="-0.28209">
        <ele>78.7</ele>
        <time>2020-09-08T17:18:40Z</time>
      </trkpt>
      <trkpt lat="44.49865" lon="-0.28208">
        <ele>78.7</ele>
        <time>2020-09-08T17:18:42Z</time>
      </trkpt>
      <trkpt lat="44.49864" lon="-0.28209">
        <ele>78.8</ele>
        <time>2020-09-08T17:18:44Z</time>
      </trkpt>
      <trkpt lat="44.49865" lon="-0.28209">
        <ele>78.8</ele>
        <time>2020-09-08T17:18:46Z</time>
      </trkpt>
      <trkpt lat="44.49865" lon="-0.28209">
        <ele>78.8</ele>
        <time>2020-09-08T17:18:47Z</time>
      </trkpt>
      <trkpt lat="44.49865" lon="-0.28209">
        <ele>78.8</ele>
        <time>2020-09-08T17:18:48Z</time>
      </trkpt>
      <trkpt lat="44.49864" lon="-0.28209">
        <ele>78.8</ele>
        <time>2020-09-08T17:18:50Z</time>
      </trkpt>
      <trkpt lat="44.49864" lon="-0.28209">
        <ele>78.8</ele>
        <time>2020-09-08T17:18:52Z</time>
      </trkpt>
      <trkpt lat="44.49864" lon="-0.28209">
        <ele>78.8</ele>
        <time>2020-09-08T17:18:54Z</time>
      </trkpt>
      <trkpt lat="44.49864" lon="-0.28209">
        <ele>78.8</ele>
        <time>2020-09-08T17:18:55Z</time>
      </trkpt>
      <trkpt lat="44.49864" lon="-0.28209">
        <ele>78.8</ele>
        <time>2020-09-08T17:18:57Z</time>
      </trkpt>
      <trkpt lat="44.49864" lon="-0.28209">
        <ele>78.8</ele>
        <time>2020-09-08T17:18:58Z</time>
      </trkpt>
      <trkpt lat="44.49864" lon="-0.28209">
        <ele>78.8</ele>
        <time>2020-09-08T17:18:59Z</time>
      </trkpt>
      <trkpt lat="44.49864" lon="-0.28209">
        <ele>78.8</ele>
        <time>2020-09-08T17:19:00Z</time>
      </trkpt>
      <trkpt lat="44.49865" lon="-0.2821">
        <ele>78.8</ele>
        <time>2020-09-08T17:19:02Z</time>
      </trkpt>
      <trkpt lat="44.49865" lon="-0.2821">
        <ele>78.8</ele>
        <time>2020-09-08T17:19:04Z</time>
      </trkpt>
      <trkpt lat="44.49865" lon="-0.2821">
        <ele>78.8</ele>
        <time>2020-09-08T17:19:06Z</time>
      </trkpt>
      <trkpt lat="44.49865" lon="-0.2821">
        <ele>78.8</ele>
        <time>2020-09-08T17:19:07Z</time>
      </trkpt>
      <trkpt lat="44.49865" lon="-0.2821">
        <ele>78.8</ele>
        <time>2020-09-08T17:19:09Z</time>
      </trkpt>
      <trkpt lat="44.49866" lon="-0.28209">
        <ele>78.8</ele>
        <time>2020-09-08T17:19:11Z</time>
      </trkpt>
      <trkpt lat="44.49866" lon="-0.28209">
        <ele>78.8</ele>
        <time>2020-09-08T17:19:13Z</time>
      </trkpt>
      <trkpt lat="44.49866" lon="-0.28209">
        <ele>78.8</ele>
        <time>2020-09-08T17:19:15Z</time>
      </trkpt>
    </trkseg>
  </trk>
</gpx>